<?xml version='1.0' encoding='UTF-8'?>
<gpx version="1.1" creator="https://www.komoot.de" xmlns="http://www.topografix.com/GPX/1/1" xmlns:xsi="http://www.w3.org/2001/XMLSchema-instance" xsi:schemaLocation="http://www.topografix.com/GPX/1/1 http://www.topografix.com/GPX/1/1/gpx.xsd">
  <metadata>
    <name>Day 6:  Pouzin to  to Pierrelatte</name>
    <author>
      <link href="https://www.komoot.de">
        <text>komoot</text>
        <type>text/html</type>
      </link>
    </author>
  </metadata>
  <trk>
    <name>Day 6:  Pouzin to  to Pierrelatte</name>
    <trkseg>
      <trkpt lat="44.756493" lon="4.756097">
        <ele>149.968374</ele>
        <time>2017-06-06T07:23:02.000Z</time>
      </trkpt>
      <trkpt lat="44.756584" lon="4.756121">
        <ele>149.968374</ele>
        <time>2017-06-06T07:23:06.000Z</time>
      </trkpt>
      <trkpt lat="44.756516" lon="4.756244">
        <ele>149.968374</ele>
        <time>2017-06-06T07:30:52.000Z</time>
      </trkpt>
      <trkpt lat="44.756410" lon="4.756354">
        <ele>149.968374</ele>
        <time>2017-06-06T07:34:02.000Z</time>
      </trkpt>
      <trkpt lat="44.756413" lon="4.756514">
        <ele>149.968374</ele>
        <time>2017-06-06T07:34:07.000Z</time>
      </trkpt>
      <trkpt lat="44.756430" lon="4.756652">
        <ele>149.968374</ele>
        <time>2017-06-06T07:34:10.000Z</time>
      </trkpt>
      <trkpt lat="44.756450" lon="4.756783">
        <ele>149.968374</ele>
        <time>2017-06-06T07:34:15.000Z</time>
      </trkpt>
      <trkpt lat="44.756360" lon="4.756736">
        <ele>149.968374</ele>
        <time>2017-06-06T07:34:21.000Z</time>
      </trkpt>
      <trkpt lat="44.756355" lon="4.756577">
        <ele>149.968374</ele>
        <time>2017-06-06T07:34:25.000Z</time>
      </trkpt>
      <trkpt lat="44.756367" lon="4.756442">
        <ele>149.955851</ele>
        <time>2017-06-06T07:34:28.000Z</time>
      </trkpt>
      <trkpt lat="44.756370" lon="4.756299">
        <ele>149.930155</ele>
        <time>2017-06-06T07:34:32.000Z</time>
      </trkpt>
      <trkpt lat="44.756275" lon="4.756242">
        <ele>149.904036</ele>
        <time>2017-06-06T07:34:46.000Z</time>
      </trkpt>
      <trkpt lat="44.756264" lon="4.756106">
        <ele>149.879450</ele>
        <time>2017-06-06T07:34:51.000Z</time>
      </trkpt>
      <trkpt lat="44.756280" lon="4.755967">
        <ele>149.854158</ele>
        <time>2017-06-06T07:34:54.000Z</time>
      </trkpt>
      <trkpt lat="44.756294" lon="4.755824">
        <ele>149.828230</ele>
        <time>2017-06-06T07:34:57.000Z</time>
      </trkpt>
      <trkpt lat="44.756298" lon="4.755676">
        <ele>149.801628</ele>
        <time>2017-06-06T07:35:00.000Z</time>
      </trkpt>
      <trkpt lat="44.756294" lon="4.755501">
        <ele>149.770179</ele>
        <time>2017-06-06T07:35:03.000Z</time>
      </trkpt>
      <trkpt lat="44.756260" lon="4.755335">
        <ele>149.739147</ele>
        <time>2017-06-06T07:35:06.000Z</time>
      </trkpt>
      <trkpt lat="44.756170" lon="4.755229">
        <ele>149.709470</ele>
        <time>2017-06-06T07:35:09.000Z</time>
      </trkpt>
      <trkpt lat="44.756070" lon="4.755195">
        <ele>149.683450</ele>
        <time>2017-06-06T07:35:12.000Z</time>
      </trkpt>
      <trkpt lat="44.756050" lon="4.755055">
        <ele>149.657800</ele>
        <time>2017-06-06T07:35:16.000Z</time>
      </trkpt>
      <trkpt lat="44.756100" lon="4.754926">
        <ele>149.631403</ele>
        <time>2017-06-06T07:35:22.000Z</time>
      </trkpt>
      <trkpt lat="44.756060" lon="4.755044">
        <ele>149.607917</ele>
        <time>2017-06-06T07:36:10.000Z</time>
      </trkpt>
      <trkpt lat="44.756050" lon="4.755172">
        <ele>149.584787</ele>
        <time>2017-06-06T07:36:18.000Z</time>
      </trkpt>
      <trkpt lat="44.756138" lon="4.755254">
        <ele>149.558097</ele>
        <time>2017-06-06T07:36:23.000Z</time>
      </trkpt>
      <trkpt lat="44.756240" lon="4.755330">
        <ele>149.528908</ele>
        <time>2017-06-06T07:36:26.000Z</time>
      </trkpt>
      <trkpt lat="44.756270" lon="4.755460">
        <ele>149.562799</ele>
        <time>2017-06-06T07:36:28.000Z</time>
      </trkpt>
      <trkpt lat="44.756280" lon="4.755641">
        <ele>149.740329</ele>
        <time>2017-06-06T07:36:31.000Z</time>
      </trkpt>
      <trkpt lat="44.756275" lon="4.755797">
        <ele>149.893033</ele>
        <time>2017-06-06T07:36:34.000Z</time>
      </trkpt>
      <trkpt lat="44.756275" lon="4.755926">
        <ele>150.019179</ele>
        <time>2017-06-06T07:36:37.000Z</time>
      </trkpt>
      <trkpt lat="44.756270" lon="4.756078">
        <ele>150.167976</ele>
        <time>2017-06-06T07:36:42.000Z</time>
      </trkpt>
      <trkpt lat="44.756264" lon="4.756214">
        <ele>150.301224</ele>
        <time>2017-06-06T07:36:46.000Z</time>
      </trkpt>
      <trkpt lat="44.756268" lon="4.756370">
        <ele>150.453872</ele>
        <time>2017-06-06T07:36:51.000Z</time>
      </trkpt>
      <trkpt lat="44.756252" lon="4.756537">
        <ele>150.618657</ele>
        <time>2017-06-06T07:36:55.000Z</time>
      </trkpt>
      <trkpt lat="44.756240" lon="4.756687">
        <ele>150.766266</ele>
        <time>2017-06-06T07:36:59.000Z</time>
      </trkpt>
      <trkpt lat="44.756233" lon="4.756815">
        <ele>150.891805</ele>
        <time>2017-06-06T07:37:03.000Z</time>
      </trkpt>
      <trkpt lat="44.756226" lon="4.756960">
        <ele>151.033925</ele>
        <time>2017-06-06T07:37:08.000Z</time>
      </trkpt>
      <trkpt lat="44.756195" lon="4.757116">
        <ele>151.192334</ele>
        <time>2017-06-06T07:37:12.000Z</time>
      </trkpt>
      <trkpt lat="44.756084" lon="4.757187">
        <ele>151.360219</ele>
        <time>2017-06-06T07:37:15.000Z</time>
      </trkpt>
      <trkpt lat="44.755990" lon="4.757195">
        <ele>151.489901</ele>
        <time>2017-06-06T07:37:17.000Z</time>
      </trkpt>
      <trkpt lat="44.755898" lon="4.757192">
        <ele>151.616626</ele>
        <time>2017-06-06T07:37:19.000Z</time>
      </trkpt>
      <trkpt lat="44.755802" lon="4.757178">
        <ele>151.749533</ele>
        <time>2017-06-06T07:37:21.000Z</time>
      </trkpt>
      <trkpt lat="44.755700" lon="4.757184">
        <ele>151.890118</ele>
        <time>2017-06-06T07:37:23.000Z</time>
      </trkpt>
      <trkpt lat="44.755590" lon="4.757196">
        <ele>151.997208</ele>
        <time>2017-06-06T07:37:25.000Z</time>
      </trkpt>
      <trkpt lat="44.755480" lon="4.757227">
        <ele>152.017823</ele>
        <time>2017-06-06T07:37:27.000Z</time>
      </trkpt>
      <trkpt lat="44.755375" lon="4.757278">
        <ele>152.038234</ele>
        <time>2017-06-06T07:37:29.000Z</time>
      </trkpt>
      <trkpt lat="44.755280" lon="4.757349">
        <ele>152.057997</ele>
        <time>2017-06-06T07:37:31.000Z</time>
      </trkpt>
      <trkpt lat="44.755188" lon="4.757422">
        <ele>152.077403</ele>
        <time>2017-06-06T07:37:33.000Z</time>
      </trkpt>
      <trkpt lat="44.755108" lon="4.757492">
        <ele>152.094711</ele>
        <time>2017-06-06T07:37:35.000Z</time>
      </trkpt>
      <trkpt lat="44.755020" lon="4.757577">
        <ele>152.114321</ele>
        <time>2017-06-06T07:37:37.000Z</time>
      </trkpt>
      <trkpt lat="44.754932" lon="4.757679">
        <ele>152.135265</ele>
        <time>2017-06-06T07:37:39.000Z</time>
      </trkpt>
      <trkpt lat="44.754850" lon="4.757774">
        <ele>152.154778</ele>
        <time>2017-06-06T07:37:41.000Z</time>
      </trkpt>
      <trkpt lat="44.754770" lon="4.757873">
        <ele>152.174349</ele>
        <time>2017-06-06T07:37:43.000Z</time>
      </trkpt>
      <trkpt lat="44.754692" lon="4.757965">
        <ele>152.193047</ele>
        <time>2017-06-06T07:37:45.000Z</time>
      </trkpt>
      <trkpt lat="44.754600" lon="4.758085">
        <ele>152.216091</ele>
        <time>2017-06-06T07:37:48.000Z</time>
      </trkpt>
      <trkpt lat="44.754500" lon="4.758182">
        <ele>152.238405</ele>
        <time>2017-06-06T07:37:51.000Z</time>
      </trkpt>
      <trkpt lat="44.754436" lon="4.758268">
        <ele>152.254662</ele>
        <time>2017-06-06T07:37:54.000Z</time>
      </trkpt>
      <trkpt lat="44.754345" lon="4.758352">
        <ele>152.274657</ele>
        <time>2017-06-06T07:37:58.000Z</time>
      </trkpt>
      <trkpt lat="44.754270" lon="4.758445">
        <ele>152.293021</ele>
        <time>2017-06-06T07:38:04.000Z</time>
      </trkpt>
      <trkpt lat="44.754177" lon="4.758525">
        <ele>152.313047</ele>
        <time>2017-06-06T07:38:09.000Z</time>
      </trkpt>
      <trkpt lat="44.754093" lon="4.758614">
        <ele>152.226699</ele>
        <time>2017-06-06T07:38:13.000Z</time>
      </trkpt>
      <trkpt lat="44.754013" lon="4.758682">
        <ele>152.086581</ele>
        <time>2017-06-06T07:38:16.000Z</time>
      </trkpt>
      <trkpt lat="44.753933" lon="4.758754">
        <ele>151.944215</ele>
        <time>2017-06-06T07:38:19.000Z</time>
      </trkpt>
      <trkpt lat="44.753840" lon="4.758845">
        <ele>151.774402</ele>
        <time>2017-06-06T07:38:22.000Z</time>
      </trkpt>
      <trkpt lat="44.753757" lon="4.758937">
        <ele>151.616014</ele>
        <time>2017-06-06T07:38:25.000Z</time>
      </trkpt>
      <trkpt lat="44.753670" lon="4.759010">
        <ele>151.464155</ele>
        <time>2017-06-06T07:38:28.000Z</time>
      </trkpt>
      <trkpt lat="44.753593" lon="4.759085">
        <ele>151.323766</ele>
        <time>2017-06-06T07:38:31.000Z</time>
      </trkpt>
      <trkpt lat="44.753517" lon="4.759171">
        <ele>151.177570</ele>
        <time>2017-06-06T07:38:34.000Z</time>
      </trkpt>
      <trkpt lat="44.753437" lon="4.759254">
        <ele>151.028569</ele>
        <time>2017-06-06T07:38:37.000Z</time>
      </trkpt>
      <trkpt lat="44.753353" lon="4.759324">
        <ele>150.882209</ele>
        <time>2017-06-06T07:38:40.000Z</time>
      </trkpt>
      <trkpt lat="44.753273" lon="4.759398">
        <ele>150.738684</ele>
        <time>2017-06-06T07:38:43.000Z</time>
      </trkpt>
      <trkpt lat="44.753193" lon="4.759488">
        <ele>150.585144</ele>
        <time>2017-06-06T07:38:46.000Z</time>
      </trkpt>
      <trkpt lat="44.753117" lon="4.759567">
        <ele>150.443497</ele>
        <time>2017-06-06T07:38:49.000Z</time>
      </trkpt>
      <trkpt lat="44.753056" lon="4.759667">
        <ele>150.303121</ele>
        <time>2017-06-06T07:38:52.000Z</time>
      </trkpt>
      <trkpt lat="44.752987" lon="4.759753">
        <ele>150.164950</ele>
        <time>2017-06-06T07:38:55.000Z</time>
      </trkpt>
      <trkpt lat="44.752920" lon="4.759865">
        <ele>150.009010</ele>
        <time>2017-06-06T07:38:59.000Z</time>
      </trkpt>
      <trkpt lat="44.752846" lon="4.759987">
        <ele>149.838160</ele>
        <time>2017-06-06T07:39:03.000Z</time>
      </trkpt>
      <trkpt lat="44.752785" lon="4.760085">
        <ele>149.699392</ele>
        <time>2017-06-06T07:39:06.000Z</time>
      </trkpt>
      <trkpt lat="44.752710" lon="4.760204">
        <ele>149.563813</ele>
        <time>2017-06-06T07:39:10.000Z</time>
      </trkpt>
      <trkpt lat="44.752647" lon="4.760298">
        <ele>149.475827</ele>
        <time>2017-06-06T07:39:13.000Z</time>
      </trkpt>
      <trkpt lat="44.752567" lon="4.760403">
        <ele>149.370995</ele>
        <time>2017-06-06T07:39:17.000Z</time>
      </trkpt>
      <trkpt lat="44.752476" lon="4.760500">
        <ele>149.261590</ele>
        <time>2017-06-06T07:39:21.000Z</time>
      </trkpt>
      <trkpt lat="44.752380" lon="4.760565">
        <ele>149.159481</ele>
        <time>2017-06-06T07:39:24.000Z</time>
      </trkpt>
      <trkpt lat="44.752274" lon="4.760624">
        <ele>149.050222</ele>
        <time>2017-06-06T07:39:27.000Z</time>
      </trkpt>
      <trkpt lat="44.752180" lon="4.760672">
        <ele>148.954374</ele>
        <time>2017-06-06T07:39:30.000Z</time>
      </trkpt>
      <trkpt lat="44.752083" lon="4.760719">
        <ele>148.856041</ele>
        <time>2017-06-06T07:39:33.000Z</time>
      </trkpt>
      <trkpt lat="44.751987" lon="4.760748">
        <ele>148.761924</ele>
        <time>2017-06-06T07:39:36.000Z</time>
      </trkpt>
      <trkpt lat="44.751896" lon="4.760796">
        <ele>148.668774</ele>
        <time>2017-06-06T07:39:39.000Z</time>
      </trkpt>
      <trkpt lat="44.751800" lon="4.760843">
        <ele>148.571348</ele>
        <time>2017-06-06T07:39:42.000Z</time>
      </trkpt>
      <trkpt lat="44.751690" lon="4.760906">
        <ele>148.457516</ele>
        <time>2017-06-06T07:39:46.000Z</time>
      </trkpt>
      <trkpt lat="44.751580" lon="4.760949">
        <ele>148.348085</ele>
        <time>2017-06-06T07:39:50.000Z</time>
      </trkpt>
      <trkpt lat="44.751484" lon="4.761002">
        <ele>148.249241</ele>
        <time>2017-06-06T07:39:54.000Z</time>
      </trkpt>
      <trkpt lat="44.751396" lon="4.761049">
        <ele>148.159022</ele>
        <time>2017-06-06T07:39:58.000Z</time>
      </trkpt>
      <trkpt lat="44.751293" lon="4.761106">
        <ele>148.052937</ele>
        <time>2017-06-06T07:40:02.000Z</time>
      </trkpt>
      <trkpt lat="44.751205" lon="4.761153">
        <ele>147.962718</ele>
        <time>2017-06-06T07:40:05.000Z</time>
      </trkpt>
      <trkpt lat="44.751118" lon="4.761197">
        <ele>147.978151</ele>
        <time>2017-06-06T07:40:10.000Z</time>
      </trkpt>
      <trkpt lat="44.750990" lon="4.761278">
        <ele>148.391398</ele>
        <time>2017-06-06T07:45:50.000Z</time>
      </trkpt>
      <trkpt lat="44.750896" lon="4.761328">
        <ele>148.687299</ele>
        <time>2017-06-06T07:45:54.000Z</time>
      </trkpt>
      <trkpt lat="44.750805" lon="4.761381">
        <ele>148.977292</ele>
        <time>2017-06-06T07:45:57.000Z</time>
      </trkpt>
      <trkpt lat="44.750706" lon="4.761436">
        <ele>149.290696</ele>
        <time>2017-06-06T07:46:00.000Z</time>
      </trkpt>
      <trkpt lat="44.750587" lon="4.761499">
        <ele>149.665075</ele>
        <time>2017-06-06T07:46:03.000Z</time>
      </trkpt>
      <trkpt lat="44.750500" lon="4.761541">
        <ele>149.935909</ele>
        <time>2017-06-06T07:46:05.000Z</time>
      </trkpt>
      <trkpt lat="44.750378" lon="4.761603">
        <ele>150.317855</ele>
        <time>2017-06-06T07:46:08.000Z</time>
      </trkpt>
      <trkpt lat="44.750270" lon="4.761640">
        <ele>150.645170</ele>
        <time>2017-06-06T07:46:11.000Z</time>
      </trkpt>
      <trkpt lat="44.750160" lon="4.761679">
        <ele>150.979206</ele>
        <time>2017-06-06T07:46:14.000Z</time>
      </trkpt>
      <trkpt lat="44.750046" lon="4.761718">
        <ele>151.324677</ele>
        <time>2017-06-06T07:46:17.000Z</time>
      </trkpt>
      <trkpt lat="44.749920" lon="4.761749">
        <ele>151.701341</ele>
        <time>2017-06-06T07:46:20.000Z</time>
      </trkpt>
      <trkpt lat="44.749800" lon="4.761805">
        <ele>152.073617</ele>
        <time>2017-06-06T07:46:23.000Z</time>
      </trkpt>
      <trkpt lat="44.749680" lon="4.761844">
        <ele>152.436281</ele>
        <time>2017-06-06T07:46:26.000Z</time>
      </trkpt>
      <trkpt lat="44.749560" lon="4.761898">
        <ele>152.807263</ele>
        <time>2017-06-06T07:46:29.000Z</time>
      </trkpt>
      <trkpt lat="44.749447" lon="4.761951">
        <ele>153.157998</ele>
        <time>2017-06-06T07:46:32.000Z</time>
      </trkpt>
      <trkpt lat="44.749336" lon="4.761998">
        <ele>153.337069</ele>
        <time>2017-06-06T07:46:35.000Z</time>
      </trkpt>
      <trkpt lat="44.749230" lon="4.762037">
        <ele>153.486959</ele>
        <time>2017-06-06T07:46:38.000Z</time>
      </trkpt>
      <trkpt lat="44.749115" lon="4.762084">
        <ele>153.650787</ele>
        <time>2017-06-06T07:46:41.000Z</time>
      </trkpt>
      <trkpt lat="44.748997" lon="4.762141">
        <ele>153.821461</ele>
        <time>2017-06-06T07:46:44.000Z</time>
      </trkpt>
      <trkpt lat="44.748870" lon="4.762180">
        <ele>153.999297</ele>
        <time>2017-06-06T07:46:47.000Z</time>
      </trkpt>
      <trkpt lat="44.748750" lon="4.762216">
        <ele>154.167157</ele>
        <time>2017-06-06T07:46:50.000Z</time>
      </trkpt>
      <trkpt lat="44.748623" lon="4.762265">
        <ele>154.347314</ele>
        <time>2017-06-06T07:46:53.000Z</time>
      </trkpt>
      <trkpt lat="44.748500" lon="4.762307">
        <ele>154.520471</ele>
        <time>2017-06-06T07:46:56.000Z</time>
      </trkpt>
      <trkpt lat="44.748380" lon="4.762353">
        <ele>154.690621</ele>
        <time>2017-06-06T07:46:59.000Z</time>
      </trkpt>
      <trkpt lat="44.748260" lon="4.762424">
        <ele>154.868702</ele>
        <time>2017-06-06T07:47:02.000Z</time>
      </trkpt>
      <trkpt lat="44.748177" lon="4.762476">
        <ele>154.992990</ele>
        <time>2017-06-06T07:47:04.000Z</time>
      </trkpt>
      <trkpt lat="44.748050" lon="4.762540">
        <ele>155.177534</ele>
        <time>2017-06-06T07:47:07.000Z</time>
      </trkpt>
      <trkpt lat="44.747967" lon="4.762593">
        <ele>155.302220</ele>
        <time>2017-06-06T07:47:09.000Z</time>
      </trkpt>
      <trkpt lat="44.747850" lon="4.762666">
        <ele>155.477303</ele>
        <time>2017-06-06T07:47:12.000Z</time>
      </trkpt>
      <trkpt lat="44.747723" lon="4.762736">
        <ele>155.658124</ele>
        <time>2017-06-06T07:47:15.000Z</time>
      </trkpt>
      <trkpt lat="44.747604" lon="4.762804">
        <ele>155.685957</ele>
        <time>2017-06-06T07:47:18.000Z</time>
      </trkpt>
      <trkpt lat="44.747486" lon="4.762881">
        <ele>155.714144</ele>
        <time>2017-06-06T07:47:21.000Z</time>
      </trkpt>
      <trkpt lat="44.747368" lon="4.762956">
        <ele>155.742202</ele>
        <time>2017-06-06T07:47:24.000Z</time>
      </trkpt>
      <trkpt lat="44.747253" lon="4.763035">
        <ele>155.769934</ele>
        <time>2017-06-06T07:47:27.000Z</time>
      </trkpt>
      <trkpt lat="44.747140" lon="4.763110">
        <ele>155.797008</ele>
        <time>2017-06-06T07:47:30.000Z</time>
      </trkpt>
      <trkpt lat="44.747017" lon="4.763183">
        <ele>155.825936</ele>
        <time>2017-06-06T07:47:33.000Z</time>
      </trkpt>
      <trkpt lat="44.746900" lon="4.763262">
        <ele>155.854058</ele>
        <time>2017-06-06T07:47:36.000Z</time>
      </trkpt>
      <trkpt lat="44.746780" lon="4.763332">
        <ele>155.882209</ele>
        <time>2017-06-06T07:47:39.000Z</time>
      </trkpt>
      <trkpt lat="44.746662" lon="4.763406">
        <ele>155.910204</ele>
        <time>2017-06-06T07:47:42.000Z</time>
      </trkpt>
      <trkpt lat="44.746550" lon="4.763480">
        <ele>155.937017</ele>
        <time>2017-06-06T07:47:45.000Z</time>
      </trkpt>
      <trkpt lat="44.746433" lon="4.763545">
        <ele>155.964276</ele>
        <time>2017-06-06T07:47:48.000Z</time>
      </trkpt>
      <trkpt lat="44.746315" lon="4.763616">
        <ele>155.992087</ele>
        <time>2017-06-06T07:47:51.000Z</time>
      </trkpt>
      <trkpt lat="44.746190" lon="4.763690">
        <ele>156.021475</ele>
        <time>2017-06-06T07:47:54.000Z</time>
      </trkpt>
      <trkpt lat="44.746070" lon="4.763771">
        <ele>156.004115</ele>
        <time>2017-06-06T07:47:57.000Z</time>
      </trkpt>
      <trkpt lat="44.745945" lon="4.763826">
        <ele>155.654295</ele>
        <time>2017-06-06T07:48:00.000Z</time>
      </trkpt>
      <trkpt lat="44.745827" lon="4.763902">
        <ele>155.307684</ele>
        <time>2017-06-06T07:48:03.000Z</time>
      </trkpt>
      <trkpt lat="44.745705" lon="4.763978">
        <ele>154.951330</ele>
        <time>2017-06-06T07:48:06.000Z</time>
      </trkpt>
      <trkpt lat="44.745625" lon="4.764035">
        <ele>154.711833</ele>
        <time>2017-06-06T07:48:08.000Z</time>
      </trkpt>
      <trkpt lat="44.745502" lon="4.764119">
        <ele>154.346670</ele>
        <time>2017-06-06T07:48:11.000Z</time>
      </trkpt>
      <trkpt lat="44.745400" lon="4.764216">
        <ele>154.017885</ele>
        <time>2017-06-06T07:48:14.000Z</time>
      </trkpt>
      <trkpt lat="44.745310" lon="4.764331">
        <ele>153.693239</ele>
        <time>2017-06-06T07:48:17.000Z</time>
      </trkpt>
      <trkpt lat="44.745250" lon="4.764434">
        <ele>153.440511</ele>
        <time>2017-06-06T07:48:19.000Z</time>
      </trkpt>
      <trkpt lat="44.745193" lon="4.764535">
        <ele>153.195770</ele>
        <time>2017-06-06T07:48:21.000Z</time>
      </trkpt>
      <trkpt lat="44.745132" lon="4.764645">
        <ele>152.931003</ele>
        <time>2017-06-06T07:48:23.000Z</time>
      </trkpt>
      <trkpt lat="44.745080" lon="4.764761">
        <ele>152.670761</ele>
        <time>2017-06-06T07:48:25.000Z</time>
      </trkpt>
      <trkpt lat="44.745026" lon="4.764882">
        <ele>152.399646</ele>
        <time>2017-06-06T07:48:27.000Z</time>
      </trkpt>
      <trkpt lat="44.744972" lon="4.764997">
        <ele>152.138098</ele>
        <time>2017-06-06T07:48:29.000Z</time>
      </trkpt>
      <trkpt lat="44.744926" lon="4.765110">
        <ele>151.890999</ele>
        <time>2017-06-06T07:48:31.000Z</time>
      </trkpt>
      <trkpt lat="44.744858" lon="4.765269">
        <ele>151.538881</ele>
        <time>2017-06-06T07:48:34.000Z</time>
      </trkpt>
      <trkpt lat="44.744812" lon="4.765381">
        <ele>151.293426</ele>
        <time>2017-06-06T07:48:36.000Z</time>
      </trkpt>
      <trkpt lat="44.744762" lon="4.765491">
        <ele>151.287881</ele>
        <time>2017-06-06T07:48:38.000Z</time>
      </trkpt>
      <trkpt lat="44.744705" lon="4.765605">
        <ele>151.349071</ele>
        <time>2017-06-06T07:48:40.000Z</time>
      </trkpt>
      <trkpt lat="44.744644" lon="4.765721">
        <ele>151.412421</ele>
        <time>2017-06-06T07:48:42.000Z</time>
      </trkpt>
      <trkpt lat="44.744590" lon="4.765832">
        <ele>151.471473</ele>
        <time>2017-06-06T07:48:44.000Z</time>
      </trkpt>
      <trkpt lat="44.744537" lon="4.765945">
        <ele>151.530908</ele>
        <time>2017-06-06T07:48:46.000Z</time>
      </trkpt>
      <trkpt lat="44.744490" lon="4.766053">
        <ele>151.586501</ele>
        <time>2017-06-06T07:48:48.000Z</time>
      </trkpt>
      <trkpt lat="44.744427" lon="4.766205">
        <ele>151.663745</ele>
        <time>2017-06-06T07:48:51.000Z</time>
      </trkpt>
      <trkpt lat="44.744360" lon="4.766376">
        <ele>151.749461</ele>
        <time>2017-06-06T07:48:54.000Z</time>
      </trkpt>
      <trkpt lat="44.744316" lon="4.766490">
        <ele>151.806408</ele>
        <time>2017-06-06T07:48:56.000Z</time>
      </trkpt>
      <trkpt lat="44.744250" lon="4.766652">
        <ele>151.888379</ele>
        <time>2017-06-06T07:48:59.000Z</time>
      </trkpt>
      <trkpt lat="44.744205" lon="4.766762">
        <ele>151.944096</ele>
        <time>2017-06-06T07:49:01.000Z</time>
      </trkpt>
      <trkpt lat="44.744160" lon="4.766879">
        <ele>152.002495</ele>
        <time>2017-06-06T07:49:03.000Z</time>
      </trkpt>
      <trkpt lat="44.744114" lon="4.766996">
        <ele>152.061191</ele>
        <time>2017-06-06T07:49:05.000Z</time>
      </trkpt>
      <trkpt lat="44.744064" lon="4.767112">
        <ele>152.120747</ele>
        <time>2017-06-06T07:49:07.000Z</time>
      </trkpt>
      <trkpt lat="44.744020" lon="4.767225">
        <ele>152.177309</ele>
        <time>2017-06-06T07:49:09.000Z</time>
      </trkpt>
      <trkpt lat="44.743973" lon="4.767343">
        <ele>152.236689</ele>
        <time>2017-06-06T07:49:11.000Z</time>
      </trkpt>
      <trkpt lat="44.743920" lon="4.767458">
        <ele>152.296859</ele>
        <time>2017-06-06T07:49:13.000Z</time>
      </trkpt>
      <trkpt lat="44.743862" lon="4.767575">
        <ele>152.340066</ele>
        <time>2017-06-06T07:49:15.000Z</time>
      </trkpt>
      <trkpt lat="44.743816" lon="4.767689">
        <ele>152.198508</ele>
        <time>2017-06-06T07:49:17.000Z</time>
      </trkpt>
      <trkpt lat="44.743750" lon="4.767791">
        <ele>152.049534</ele>
        <time>2017-06-06T07:49:19.000Z</time>
      </trkpt>
      <trkpt lat="44.743690" lon="4.767896">
        <ele>151.904034</ele>
        <time>2017-06-06T07:49:21.000Z</time>
      </trkpt>
      <trkpt lat="44.743620" lon="4.767993">
        <ele>151.754734</ele>
        <time>2017-06-06T07:49:23.000Z</time>
      </trkpt>
      <trkpt lat="44.743546" lon="4.768081">
        <ele>151.607491</ele>
        <time>2017-06-06T07:49:25.000Z</time>
      </trkpt>
      <trkpt lat="44.743470" lon="4.768168">
        <ele>151.458596</ele>
        <time>2017-06-06T07:49:27.000Z</time>
      </trkpt>
      <trkpt lat="44.743390" lon="4.768256">
        <ele>151.304273</ele>
        <time>2017-06-06T07:49:29.000Z</time>
      </trkpt>
      <trkpt lat="44.743305" lon="4.768340">
        <ele>151.146412</ele>
        <time>2017-06-06T07:49:31.000Z</time>
      </trkpt>
      <trkpt lat="44.743217" lon="4.768421">
        <ele>150.986592</ele>
        <time>2017-06-06T07:49:33.000Z</time>
      </trkpt>
      <trkpt lat="44.743134" lon="4.768505">
        <ele>150.831210</ele>
        <time>2017-06-06T07:49:35.000Z</time>
      </trkpt>
      <trkpt lat="44.743053" lon="4.768581">
        <ele>150.683245</ele>
        <time>2017-06-06T07:49:37.000Z</time>
      </trkpt>
      <trkpt lat="44.742970" lon="4.768667">
        <ele>150.526592</ele>
        <time>2017-06-06T07:49:39.000Z</time>
      </trkpt>
      <trkpt lat="44.742890" lon="4.768747">
        <ele>150.377431</ele>
        <time>2017-06-06T07:49:41.000Z</time>
      </trkpt>
      <trkpt lat="44.742800" lon="4.768829">
        <ele>150.214474</ele>
        <time>2017-06-06T07:49:43.000Z</time>
      </trkpt>
      <trkpt lat="44.742718" lon="4.768913">
        <ele>150.060323</ele>
        <time>2017-06-06T07:49:45.000Z</time>
      </trkpt>
      <trkpt lat="44.742634" lon="4.768994">
        <ele>149.905556</ele>
        <time>2017-06-06T07:49:47.000Z</time>
      </trkpt>
      <trkpt lat="44.742550" lon="4.769078">
        <ele>149.748937</ele>
        <time>2017-06-06T07:49:49.000Z</time>
      </trkpt>
      <trkpt lat="44.742470" lon="4.769160">
        <ele>149.612749</ele>
        <time>2017-06-06T07:49:51.000Z</time>
      </trkpt>
      <trkpt lat="44.742393" lon="4.769251">
        <ele>149.562352</ele>
        <time>2017-06-06T07:49:53.000Z</time>
      </trkpt>
      <trkpt lat="44.742320" lon="4.769341">
        <ele>149.513708</ele>
        <time>2017-06-06T07:49:55.000Z</time>
      </trkpt>
      <trkpt lat="44.742240" lon="4.769435">
        <ele>149.461471</ele>
        <time>2017-06-06T07:49:57.000Z</time>
      </trkpt>
      <trkpt lat="44.742170" lon="4.769527">
        <ele>149.413466</ele>
        <time>2017-06-06T07:49:59.000Z</time>
      </trkpt>
      <trkpt lat="44.742092" lon="4.769619">
        <ele>149.362455</ele>
        <time>2017-06-06T07:50:01.000Z</time>
      </trkpt>
      <trkpt lat="44.742016" lon="4.769707">
        <ele>149.313125</ele>
        <time>2017-06-06T07:50:03.000Z</time>
      </trkpt>
      <trkpt lat="44.741936" lon="4.769795">
        <ele>149.262231</ele>
        <time>2017-06-06T07:50:05.000Z</time>
      </trkpt>
      <trkpt lat="44.741860" lon="4.769884">
        <ele>149.212674</ele>
        <time>2017-06-06T07:50:07.000Z</time>
      </trkpt>
      <trkpt lat="44.741780" lon="4.769967">
        <ele>149.162856</ele>
        <time>2017-06-06T07:50:09.000Z</time>
      </trkpt>
      <trkpt lat="44.741700" lon="4.770048">
        <ele>149.113458</ele>
        <time>2017-06-06T07:50:11.000Z</time>
      </trkpt>
      <trkpt lat="44.741620" lon="4.770124">
        <ele>149.065077</ele>
        <time>2017-06-06T07:50:13.000Z</time>
      </trkpt>
      <trkpt lat="44.741540" lon="4.770193">
        <ele>149.018044</ele>
        <time>2017-06-06T07:50:15.000Z</time>
      </trkpt>
      <trkpt lat="44.741460" lon="4.770267">
        <ele>148.970058</ele>
        <time>2017-06-06T07:50:17.000Z</time>
      </trkpt>
      <trkpt lat="44.741380" lon="4.770338">
        <ele>148.922650</ele>
        <time>2017-06-06T07:50:19.000Z</time>
      </trkpt>
      <trkpt lat="44.741295" lon="4.770409">
        <ele>148.873103</ele>
        <time>2017-06-06T07:50:21.000Z</time>
      </trkpt>
      <trkpt lat="44.741220" lon="4.770482">
        <ele>148.827394</ele>
        <time>2017-06-06T07:50:23.000Z</time>
      </trkpt>
      <trkpt lat="44.741140" lon="4.770552">
        <ele>148.780175</ele>
        <time>2017-06-06T07:50:25.000Z</time>
      </trkpt>
      <trkpt lat="44.741055" lon="4.770626">
        <ele>148.730075</ele>
        <time>2017-06-06T07:50:27.000Z</time>
      </trkpt>
      <trkpt lat="44.740970" lon="4.770698">
        <ele>148.708022</ele>
        <time>2017-06-06T07:50:29.000Z</time>
      </trkpt>
      <trkpt lat="44.740887" lon="4.770772">
        <ele>148.694897</ele>
        <time>2017-06-06T07:50:31.000Z</time>
      </trkpt>
      <trkpt lat="44.740803" lon="4.770847">
        <ele>148.681608</ele>
        <time>2017-06-06T07:50:33.000Z</time>
      </trkpt>
      <trkpt lat="44.740715" lon="4.770922">
        <ele>148.667865</ele>
        <time>2017-06-06T07:50:35.000Z</time>
      </trkpt>
      <trkpt lat="44.740627" lon="4.770997">
        <ele>148.654122</ele>
        <time>2017-06-06T07:50:37.000Z</time>
      </trkpt>
      <trkpt lat="44.740543" lon="4.771071">
        <ele>148.640883</ele>
        <time>2017-06-06T07:50:39.000Z</time>
      </trkpt>
      <trkpt lat="44.740463" lon="4.771143">
        <ele>148.628198</ele>
        <time>2017-06-06T07:50:41.000Z</time>
      </trkpt>
      <trkpt lat="44.740380" lon="4.771215">
        <ele>148.615173</ele>
        <time>2017-06-06T07:50:43.000Z</time>
      </trkpt>
      <trkpt lat="44.740295" lon="4.771289">
        <ele>148.601822</ele>
        <time>2017-06-06T07:50:45.000Z</time>
      </trkpt>
      <trkpt lat="44.740210" lon="4.771365">
        <ele>148.588369</ele>
        <time>2017-06-06T07:50:47.000Z</time>
      </trkpt>
      <trkpt lat="44.740130" lon="4.771447">
        <ele>148.575148</ele>
        <time>2017-06-06T07:50:49.000Z</time>
      </trkpt>
      <trkpt lat="44.740050" lon="4.771524">
        <ele>148.562201</ele>
        <time>2017-06-06T07:50:51.000Z</time>
      </trkpt>
      <trkpt lat="44.739967" lon="4.771598">
        <ele>148.549076</ele>
        <time>2017-06-06T07:50:53.000Z</time>
      </trkpt>
      <trkpt lat="44.739883" lon="4.771677">
        <ele>148.535580</ele>
        <time>2017-06-06T07:50:55.000Z</time>
      </trkpt>
      <trkpt lat="44.739796" lon="4.771752">
        <ele>148.521951</ele>
        <time>2017-06-06T07:50:57.000Z</time>
      </trkpt>
      <trkpt lat="44.739708" lon="4.771827">
        <ele>148.508208</ele>
        <time>2017-06-06T07:50:59.000Z</time>
      </trkpt>
      <trkpt lat="44.739624" lon="4.771899">
        <ele>148.495069</ele>
        <time>2017-06-06T07:51:01.000Z</time>
      </trkpt>
      <trkpt lat="44.739544" lon="4.771978">
        <ele>148.482014</ele>
        <time>2017-06-06T07:51:03.000Z</time>
      </trkpt>
      <trkpt lat="44.739456" lon="4.772056">
        <ele>148.533741</ele>
        <time>2017-06-06T07:51:05.000Z</time>
      </trkpt>
      <trkpt lat="44.739370" lon="4.772131">
        <ele>148.612043</ele>
        <time>2017-06-06T07:51:07.000Z</time>
      </trkpt>
      <trkpt lat="44.739277" lon="4.772200">
        <ele>148.693410</ele>
        <time>2017-06-06T07:51:09.000Z</time>
      </trkpt>
      <trkpt lat="44.739180" lon="4.772272">
        <ele>148.778286</ele>
        <time>2017-06-06T07:51:11.000Z</time>
      </trkpt>
      <trkpt lat="44.739098" lon="4.772346">
        <ele>148.853675</ele>
        <time>2017-06-06T07:51:13.000Z</time>
      </trkpt>
      <trkpt lat="44.739006" lon="4.772423">
        <ele>148.936518</ele>
        <time>2017-06-06T07:51:15.000Z</time>
      </trkpt>
      <trkpt lat="44.738920" lon="4.772492">
        <ele>149.013134</ele>
        <time>2017-06-06T07:51:17.000Z</time>
      </trkpt>
      <trkpt lat="44.738834" lon="4.772560">
        <ele>149.089479</ele>
        <time>2017-06-06T07:51:19.000Z</time>
      </trkpt>
      <trkpt lat="44.738747" lon="4.772628">
        <ele>149.166501</ele>
        <time>2017-06-06T07:51:21.000Z</time>
      </trkpt>
      <trkpt lat="44.738660" lon="4.772700">
        <ele>149.244613</ele>
        <time>2017-06-06T07:51:23.000Z</time>
      </trkpt>
      <trkpt lat="44.738570" lon="4.772772">
        <ele>149.324736</ele>
        <time>2017-06-06T07:51:25.000Z</time>
      </trkpt>
      <trkpt lat="44.738434" lon="4.772877">
        <ele>149.444792</ele>
        <time>2017-06-06T07:51:28.000Z</time>
      </trkpt>
      <trkpt lat="44.738342" lon="4.772945">
        <ele>149.525219</ele>
        <time>2017-06-06T07:51:30.000Z</time>
      </trkpt>
      <trkpt lat="44.738243" lon="4.773006">
        <ele>149.608864</ele>
        <time>2017-06-06T07:51:32.000Z</time>
      </trkpt>
      <trkpt lat="44.738148" lon="4.773066">
        <ele>149.689456</ele>
        <time>2017-06-06T07:51:34.000Z</time>
      </trkpt>
      <trkpt lat="44.738050" lon="4.773138">
        <ele>149.775017</ele>
        <time>2017-06-06T07:51:36.000Z</time>
      </trkpt>
      <trkpt lat="44.737960" lon="4.773202">
        <ele>149.853061</ele>
        <time>2017-06-06T07:51:38.000Z</time>
      </trkpt>
      <trkpt lat="44.737870" lon="4.773264">
        <ele>149.748249</ele>
        <time>2017-06-06T07:51:40.000Z</time>
      </trkpt>
      <trkpt lat="44.737774" lon="4.773327">
        <ele>149.583785</ele>
        <time>2017-06-06T07:51:42.000Z</time>
      </trkpt>
      <trkpt lat="44.737682" lon="4.773393">
        <ele>149.423453</ele>
        <time>2017-06-06T07:51:44.000Z</time>
      </trkpt>
      <trkpt lat="44.737587" lon="4.773450">
        <ele>149.263103</ele>
        <time>2017-06-06T07:51:46.000Z</time>
      </trkpt>
      <trkpt lat="44.737488" lon="4.773510">
        <ele>149.095740</ele>
        <time>2017-06-06T07:51:48.000Z</time>
      </trkpt>
      <trkpt lat="44.737392" lon="4.773567">
        <ele>148.933961</ele>
        <time>2017-06-06T07:51:50.000Z</time>
      </trkpt>
      <trkpt lat="44.737290" lon="4.773617">
        <ele>148.766253</ele>
        <time>2017-06-06T07:51:52.000Z</time>
      </trkpt>
      <trkpt lat="44.737190" lon="4.773673">
        <ele>148.599144</ele>
        <time>2017-06-06T07:51:54.000Z</time>
      </trkpt>
      <trkpt lat="44.737090" lon="4.773722">
        <ele>148.434732</ele>
        <time>2017-06-06T07:51:56.000Z</time>
      </trkpt>
      <trkpt lat="44.736996" lon="4.773767">
        <ele>148.280565</ele>
        <time>2017-06-06T07:51:58.000Z</time>
      </trkpt>
      <trkpt lat="44.736897" lon="4.773804">
        <ele>148.121518</ele>
        <time>2017-06-06T07:52:00.000Z</time>
      </trkpt>
      <trkpt lat="44.736797" lon="4.773840">
        <ele>147.961246</ele>
        <time>2017-06-06T07:52:02.000Z</time>
      </trkpt>
      <trkpt lat="44.736702" lon="4.773883">
        <ele>147.806297</ele>
        <time>2017-06-06T07:52:04.000Z</time>
      </trkpt>
      <trkpt lat="44.736607" lon="4.773915">
        <ele>147.654622</ele>
        <time>2017-06-06T07:52:06.000Z</time>
      </trkpt>
      <trkpt lat="44.736507" lon="4.773942">
        <ele>147.496517</ele>
        <time>2017-06-06T07:52:08.000Z</time>
      </trkpt>
      <trkpt lat="44.736404" lon="4.773972">
        <ele>147.333196</ele>
        <time>2017-06-06T07:52:10.000Z</time>
      </trkpt>
      <trkpt lat="44.736310" lon="4.773997">
        <ele>147.184656</ele>
        <time>2017-06-06T07:52:12.000Z</time>
      </trkpt>
      <trkpt lat="44.736214" lon="4.774026">
        <ele>147.035647</ele>
        <time>2017-06-06T07:52:14.000Z</time>
      </trkpt>
      <trkpt lat="44.736115" lon="4.774050">
        <ele>146.891639</ele>
        <time>2017-06-06T07:52:16.000Z</time>
      </trkpt>
      <trkpt lat="44.736020" lon="4.774084">
        <ele>146.751121</ele>
        <time>2017-06-06T07:52:18.000Z</time>
      </trkpt>
      <trkpt lat="44.735928" lon="4.774111">
        <ele>146.616402</ele>
        <time>2017-06-06T07:52:20.000Z</time>
      </trkpt>
      <trkpt lat="44.735825" lon="4.774141">
        <ele>146.465621</ele>
        <time>2017-06-06T07:52:22.000Z</time>
      </trkpt>
      <trkpt lat="44.735733" lon="4.774173">
        <ele>146.329771</ele>
        <time>2017-06-06T07:52:24.000Z</time>
      </trkpt>
      <trkpt lat="44.735634" lon="4.774204">
        <ele>146.184383</ele>
        <time>2017-06-06T07:52:26.000Z</time>
      </trkpt>
      <trkpt lat="44.735530" lon="4.774230">
        <ele>146.032964</ele>
        <time>2017-06-06T07:52:28.000Z</time>
      </trkpt>
      <trkpt lat="44.735440" lon="4.774263">
        <ele>145.899642</ele>
        <time>2017-06-06T07:52:30.000Z</time>
      </trkpt>
      <trkpt lat="44.735348" lon="4.774295">
        <ele>145.763791</ele>
        <time>2017-06-06T07:52:32.000Z</time>
      </trkpt>
      <trkpt lat="44.735252" lon="4.774318">
        <ele>145.624194</ele>
        <time>2017-06-06T07:52:34.000Z</time>
      </trkpt>
      <trkpt lat="44.735157" lon="4.774343">
        <ele>145.485650</ele>
        <time>2017-06-06T07:52:36.000Z</time>
      </trkpt>
      <trkpt lat="44.735058" lon="4.774372">
        <ele>145.340690</ele>
        <time>2017-06-06T07:52:38.000Z</time>
      </trkpt>
      <trkpt lat="44.734960" lon="4.774398">
        <ele>145.197732</ele>
        <time>2017-06-06T07:52:40.000Z</time>
      </trkpt>
      <trkpt lat="44.734860" lon="4.774420">
        <ele>145.052639</ele>
        <time>2017-06-06T07:52:42.000Z</time>
      </trkpt>
      <trkpt lat="44.734760" lon="4.774453">
        <ele>144.905400</ele>
        <time>2017-06-06T07:52:44.000Z</time>
      </trkpt>
      <trkpt lat="44.734665" lon="4.774483">
        <ele>144.765831</ele>
        <time>2017-06-06T07:52:46.000Z</time>
      </trkpt>
      <trkpt lat="44.734562" lon="4.774511">
        <ele>144.615449</ele>
        <time>2017-06-06T07:52:48.000Z</time>
      </trkpt>
      <trkpt lat="44.734463" lon="4.774532">
        <ele>144.490471</ele>
        <time>2017-06-06T07:52:50.000Z</time>
      </trkpt>
      <trkpt lat="44.734367" lon="4.774541">
        <ele>144.448062</ele>
        <time>2017-06-06T07:52:52.000Z</time>
      </trkpt>
      <trkpt lat="44.734264" lon="4.774538">
        <ele>144.402651</ele>
        <time>2017-06-06T07:52:54.000Z</time>
      </trkpt>
      <trkpt lat="44.734158" lon="4.774517">
        <ele>144.355467</ele>
        <time>2017-06-06T07:52:56.000Z</time>
      </trkpt>
      <trkpt lat="44.734062" lon="4.774489">
        <ele>144.312253</ele>
        <time>2017-06-06T07:52:58.000Z</time>
      </trkpt>
      <trkpt lat="44.733967" lon="4.774447">
        <ele>144.268361</ele>
        <time>2017-06-06T07:53:00.000Z</time>
      </trkpt>
      <trkpt lat="44.733870" lon="4.774406">
        <ele>144.223719</ele>
        <time>2017-06-06T07:53:02.000Z</time>
      </trkpt>
      <trkpt lat="44.733780" lon="4.774360">
        <ele>144.181514</ele>
        <time>2017-06-06T07:53:04.000Z</time>
      </trkpt>
      <trkpt lat="44.733685" lon="4.774303">
        <ele>144.135995</ele>
        <time>2017-06-06T07:53:06.000Z</time>
      </trkpt>
      <trkpt lat="44.733593" lon="4.774250">
        <ele>144.092178</ele>
        <time>2017-06-06T07:53:08.000Z</time>
      </trkpt>
      <trkpt lat="44.733500" lon="4.774201">
        <ele>144.048407</ele>
        <time>2017-06-06T07:53:10.000Z</time>
      </trkpt>
      <trkpt lat="44.733406" lon="4.774152">
        <ele>144.004223</ele>
        <time>2017-06-06T07:53:12.000Z</time>
      </trkpt>
      <trkpt lat="44.733315" lon="4.774095">
        <ele>143.960320</ele>
        <time>2017-06-06T07:53:14.000Z</time>
      </trkpt>
      <trkpt lat="44.733220" lon="4.774043">
        <ele>143.915391</ele>
        <time>2017-06-06T07:53:16.000Z</time>
      </trkpt>
      <trkpt lat="44.733128" lon="4.773994">
        <ele>143.872033</ele>
        <time>2017-06-06T07:53:18.000Z</time>
      </trkpt>
      <trkpt lat="44.733030" lon="4.773948">
        <ele>143.826498</ele>
        <time>2017-06-06T07:53:20.000Z</time>
      </trkpt>
      <trkpt lat="44.732933" lon="4.773902">
        <ele>143.781380</ele>
        <time>2017-06-06T07:53:22.000Z</time>
      </trkpt>
      <trkpt lat="44.732838" lon="4.773846">
        <ele>143.735982</ele>
        <time>2017-06-06T07:53:24.000Z</time>
      </trkpt>
      <trkpt lat="44.732735" lon="4.773797">
        <ele>143.766483</ele>
        <time>2017-06-06T07:53:26.000Z</time>
      </trkpt>
      <trkpt lat="44.732628" lon="4.773754">
        <ele>143.933203</ele>
        <time>2017-06-06T07:53:28.000Z</time>
      </trkpt>
      <trkpt lat="44.732525" lon="4.773715">
        <ele>144.093010</ele>
        <time>2017-06-06T07:53:30.000Z</time>
      </trkpt>
      <trkpt lat="44.732414" lon="4.773684">
        <ele>144.262560</ele>
        <time>2017-06-06T07:53:32.000Z</time>
      </trkpt>
      <trkpt lat="44.732304" lon="4.773663">
        <ele>144.428879</ele>
        <time>2017-06-06T07:53:34.000Z</time>
      </trkpt>
      <trkpt lat="44.732193" lon="4.773651">
        <ele>144.595677</ele>
        <time>2017-06-06T07:53:36.000Z</time>
      </trkpt>
      <trkpt lat="44.732094" lon="4.773640">
        <ele>144.744467</ele>
        <time>2017-06-06T07:53:38.000Z</time>
      </trkpt>
      <trkpt lat="44.731990" lon="4.773625">
        <ele>144.901104</ele>
        <time>2017-06-06T07:53:40.000Z</time>
      </trkpt>
      <trkpt lat="44.731884" lon="4.773621">
        <ele>145.059978</ele>
        <time>2017-06-06T07:53:42.000Z</time>
      </trkpt>
      <trkpt lat="44.731780" lon="4.773604">
        <ele>145.216845</ele>
        <time>2017-06-06T07:53:44.000Z</time>
      </trkpt>
      <trkpt lat="44.731674" lon="4.773585">
        <ele>145.376944</ele>
        <time>2017-06-06T07:53:46.000Z</time>
      </trkpt>
      <trkpt lat="44.731570" lon="4.773571">
        <ele>145.533476</ele>
        <time>2017-06-06T07:53:48.000Z</time>
      </trkpt>
      <trkpt lat="44.731460" lon="4.773559">
        <ele>145.698780</ele>
        <time>2017-06-06T07:53:50.000Z</time>
      </trkpt>
      <trkpt lat="44.731358" lon="4.773548">
        <ele>145.852052</ele>
        <time>2017-06-06T07:53:52.000Z</time>
      </trkpt>
      <trkpt lat="44.731255" lon="4.773545">
        <ele>146.006407</ele>
        <time>2017-06-06T07:53:54.000Z</time>
      </trkpt>
      <trkpt lat="44.731160" lon="4.773544">
        <ele>146.148747</ele>
        <time>2017-06-06T07:53:56.000Z</time>
      </trkpt>
      <trkpt lat="44.731056" lon="4.773535">
        <ele>146.304861</ele>
        <time>2017-06-06T07:53:58.000Z</time>
      </trkpt>
      <trkpt lat="44.730950" lon="4.773528">
        <ele>146.440306</ele>
        <time>2017-06-06T07:54:00.000Z</time>
      </trkpt>
      <trkpt lat="44.730850" lon="4.773520">
        <ele>146.534383</ele>
        <time>2017-06-06T07:54:02.000Z</time>
      </trkpt>
      <trkpt lat="44.730750" lon="4.773506">
        <ele>146.628771</ele>
        <time>2017-06-06T07:54:04.000Z</time>
      </trkpt>
      <trkpt lat="44.730650" lon="4.773495">
        <ele>146.722983</ele>
        <time>2017-06-06T07:54:06.000Z</time>
      </trkpt>
      <trkpt lat="44.730550" lon="4.773494">
        <ele>146.816910</ele>
        <time>2017-06-06T07:54:08.000Z</time>
      </trkpt>
      <trkpt lat="44.730442" lon="4.773483">
        <ele>146.918615</ele>
        <time>2017-06-06T07:54:10.000Z</time>
      </trkpt>
      <trkpt lat="44.730343" lon="4.773483">
        <ele>147.011600</ele>
        <time>2017-06-06T07:54:12.000Z</time>
      </trkpt>
      <trkpt lat="44.730247" lon="4.773472">
        <ele>147.102067</ele>
        <time>2017-06-06T07:54:14.000Z</time>
      </trkpt>
      <trkpt lat="44.730150" lon="4.773460">
        <ele>147.193525</ele>
        <time>2017-06-06T07:54:16.000Z</time>
      </trkpt>
      <trkpt lat="44.730050" lon="4.773451">
        <ele>147.287642</ele>
        <time>2017-06-06T07:54:18.000Z</time>
      </trkpt>
      <trkpt lat="44.729954" lon="4.773438">
        <ele>147.378226</ele>
        <time>2017-06-06T07:54:20.000Z</time>
      </trkpt>
      <trkpt lat="44.729855" lon="4.773428">
        <ele>147.471451</ele>
        <time>2017-06-06T07:54:22.000Z</time>
      </trkpt>
      <trkpt lat="44.729755" lon="4.773418">
        <ele>147.565613</ele>
        <time>2017-06-06T07:54:24.000Z</time>
      </trkpt>
      <trkpt lat="44.729652" lon="4.773407">
        <ele>147.662634</ele>
        <time>2017-06-06T07:54:26.000Z</time>
      </trkpt>
      <trkpt lat="44.729553" lon="4.773399">
        <ele>147.755773</ele>
        <time>2017-06-06T07:54:28.000Z</time>
      </trkpt>
      <trkpt lat="44.729454" lon="4.773385">
        <ele>147.849227</ele>
        <time>2017-06-06T07:54:30.000Z</time>
      </trkpt>
      <trkpt lat="44.729355" lon="4.773381">
        <ele>147.942251</ele>
        <time>2017-06-06T07:54:32.000Z</time>
      </trkpt>
      <trkpt lat="44.729256" lon="4.773374">
        <ele>148.035354</ele>
        <time>2017-06-06T07:54:34.000Z</time>
      </trkpt>
      <trkpt lat="44.729153" lon="4.773364">
        <ele>148.069255</ele>
        <time>2017-06-06T07:54:36.000Z</time>
      </trkpt>
      <trkpt lat="44.729053" lon="4.773356">
        <ele>148.022746</ele>
        <time>2017-06-06T07:54:38.000Z</time>
      </trkpt>
      <trkpt lat="44.728960" lon="4.773351">
        <ele>147.979531</ele>
        <time>2017-06-06T07:54:40.000Z</time>
      </trkpt>
      <trkpt lat="44.728855" lon="4.773336">
        <ele>147.930525</ele>
        <time>2017-06-06T07:54:42.000Z</time>
      </trkpt>
      <trkpt lat="44.728760" lon="4.773327">
        <ele>147.886313</ele>
        <time>2017-06-06T07:54:44.000Z</time>
      </trkpt>
      <trkpt lat="44.728664" lon="4.773318">
        <ele>147.841637</ele>
        <time>2017-06-06T07:54:46.000Z</time>
      </trkpt>
      <trkpt lat="44.728570" lon="4.773307">
        <ele>147.797839</ele>
        <time>2017-06-06T07:54:48.000Z</time>
      </trkpt>
      <trkpt lat="44.728474" lon="4.773301">
        <ele>147.753218</ele>
        <time>2017-06-06T07:54:50.000Z</time>
      </trkpt>
      <trkpt lat="44.728380" lon="4.773296">
        <ele>147.709539</ele>
        <time>2017-06-06T07:54:52.000Z</time>
      </trkpt>
      <trkpt lat="44.728275" lon="4.773288">
        <ele>147.660712</ele>
        <time>2017-06-06T07:54:54.000Z</time>
      </trkpt>
      <trkpt lat="44.728180" lon="4.773284">
        <ele>147.616579</ele>
        <time>2017-06-06T07:54:56.000Z</time>
      </trkpt>
      <trkpt lat="44.728077" lon="4.773274">
        <ele>147.568639</ele>
        <time>2017-06-06T07:54:58.000Z</time>
      </trkpt>
      <trkpt lat="44.727974" lon="4.773258">
        <ele>147.520521</ele>
        <time>2017-06-06T07:55:00.000Z</time>
      </trkpt>
      <trkpt lat="44.727870" lon="4.773252">
        <ele>147.472189</ele>
        <time>2017-06-06T07:55:02.000Z</time>
      </trkpt>
      <trkpt lat="44.727770" lon="4.773240">
        <ele>147.425587</ele>
        <time>2017-06-06T07:55:04.000Z</time>
      </trkpt>
      <trkpt lat="44.727673" lon="4.773225">
        <ele>147.380274</ele>
        <time>2017-06-06T07:55:06.000Z</time>
      </trkpt>
      <trkpt lat="44.727570" lon="4.773212">
        <ele>147.332255</ele>
        <time>2017-06-06T07:55:08.000Z</time>
      </trkpt>
      <trkpt lat="44.727467" lon="4.773203">
        <ele>147.284336</ele>
        <time>2017-06-06T07:55:10.000Z</time>
      </trkpt>
      <trkpt lat="44.727364" lon="4.773187">
        <ele>147.277534</ele>
        <time>2017-06-06T07:55:12.000Z</time>
      </trkpt>
      <trkpt lat="44.727257" lon="4.773170">
        <ele>147.337895</ele>
        <time>2017-06-06T07:55:14.000Z</time>
      </trkpt>
      <trkpt lat="44.727142" lon="4.773152">
        <ele>147.402756</ele>
        <time>2017-06-06T07:55:16.000Z</time>
      </trkpt>
      <trkpt lat="44.727036" lon="4.773156">
        <ele>147.462197</ele>
        <time>2017-06-06T07:55:18.000Z</time>
      </trkpt>
      <trkpt lat="44.726936" lon="4.773172">
        <ele>147.518613</ele>
        <time>2017-06-06T07:55:20.000Z</time>
      </trkpt>
      <trkpt lat="44.726850" lon="4.773206">
        <ele>147.568687</ele>
        <time>2017-06-06T07:55:22.000Z</time>
      </trkpt>
      <trkpt lat="44.726746" lon="4.773281">
        <ele>147.634191</ele>
        <time>2017-06-06T07:55:25.000Z</time>
      </trkpt>
      <trkpt lat="44.726660" lon="4.773391">
        <ele>147.699331</ele>
        <time>2017-06-06T07:55:28.000Z</time>
      </trkpt>
      <trkpt lat="44.726593" lon="4.773504">
        <ele>147.757948</ele>
        <time>2017-06-06T07:55:31.000Z</time>
      </trkpt>
      <trkpt lat="44.726532" lon="4.773626">
        <ele>147.817362</ele>
        <time>2017-06-06T07:55:34.000Z</time>
      </trkpt>
      <trkpt lat="44.726475" lon="4.773757">
        <ele>147.878540</ele>
        <time>2017-06-06T07:55:37.000Z</time>
      </trkpt>
      <trkpt lat="44.726425" lon="4.773899">
        <ele>147.941658</ele>
        <time>2017-06-06T07:55:40.000Z</time>
      </trkpt>
      <trkpt lat="44.726368" lon="4.774027">
        <ele>148.001821</ele>
        <time>2017-06-06T07:55:43.000Z</time>
      </trkpt>
      <trkpt lat="44.726295" lon="4.774148">
        <ele>148.065041</ele>
        <time>2017-06-06T07:55:46.000Z</time>
      </trkpt>
      <trkpt lat="44.726210" lon="4.774276">
        <ele>148.134820</ele>
        <time>2017-06-06T07:55:49.000Z</time>
      </trkpt>
      <trkpt lat="44.726135" lon="4.774344">
        <ele>148.184829</ele>
        <time>2017-06-06T07:55:51.000Z</time>
      </trkpt>
      <trkpt lat="44.726030" lon="4.774396">
        <ele>148.247225</ele>
        <time>2017-06-06T07:55:53.000Z</time>
      </trkpt>
      <trkpt lat="44.725906" lon="4.774428">
        <ele>148.058304</ele>
        <time>2017-06-06T07:55:55.000Z</time>
      </trkpt>
      <trkpt lat="44.725773" lon="4.774440">
        <ele>147.778553</ele>
        <time>2017-06-06T07:55:57.000Z</time>
      </trkpt>
      <trkpt lat="44.725630" lon="4.774445">
        <ele>147.478292</ele>
        <time>2017-06-06T07:55:59.000Z</time>
      </trkpt>
      <trkpt lat="44.725500" lon="4.774444">
        <ele>147.205408</ele>
        <time>2017-06-06T07:56:01.000Z</time>
      </trkpt>
      <trkpt lat="44.725365" lon="4.774454">
        <ele>146.921641</ele>
        <time>2017-06-06T07:56:03.000Z</time>
      </trkpt>
      <trkpt lat="44.725243" lon="4.774460">
        <ele>146.665397</ele>
        <time>2017-06-06T07:56:05.000Z</time>
      </trkpt>
      <trkpt lat="44.725132" lon="4.774469">
        <ele>146.432013</ele>
        <time>2017-06-06T07:56:07.000Z</time>
      </trkpt>
      <trkpt lat="44.725025" lon="4.774477">
        <ele>146.207095</ele>
        <time>2017-06-06T07:56:09.000Z</time>
      </trkpt>
      <trkpt lat="44.724920" lon="4.774475">
        <ele>145.986671</ele>
        <time>2017-06-06T07:56:11.000Z</time>
      </trkpt>
      <trkpt lat="44.724815" lon="4.774471">
        <ele>145.766187</ele>
        <time>2017-06-06T07:56:13.000Z</time>
      </trkpt>
      <trkpt lat="44.724705" lon="4.774476">
        <ele>145.535168</ele>
        <time>2017-06-06T07:56:15.000Z</time>
      </trkpt>
      <trkpt lat="44.724594" lon="4.774479">
        <ele>145.302128</ele>
        <time>2017-06-06T07:56:17.000Z</time>
      </trkpt>
      <trkpt lat="44.724483" lon="4.774483">
        <ele>145.069054</ele>
        <time>2017-06-06T07:56:19.000Z</time>
      </trkpt>
      <trkpt lat="44.724380" lon="4.774484">
        <ele>144.852844</ele>
        <time>2017-06-06T07:56:21.000Z</time>
      </trkpt>
      <trkpt lat="44.724277" lon="4.774491">
        <ele>144.636387</ele>
        <time>2017-06-06T07:56:23.000Z</time>
      </trkpt>
      <trkpt lat="44.724170" lon="4.774498">
        <ele>144.484745</ele>
        <time>2017-06-06T07:56:25.000Z</time>
      </trkpt>
      <trkpt lat="44.724068" lon="4.774501">
        <ele>144.476470</ele>
        <time>2017-06-06T07:56:27.000Z</time>
      </trkpt>
      <trkpt lat="44.723960" lon="4.774503">
        <ele>144.467709</ele>
        <time>2017-06-06T07:56:29.000Z</time>
      </trkpt>
      <trkpt lat="44.723854" lon="4.774511">
        <ele>144.459099</ele>
        <time>2017-06-06T07:56:31.000Z</time>
      </trkpt>
      <trkpt lat="44.723755" lon="4.774520">
        <ele>144.451052</ele>
        <time>2017-06-06T07:56:33.000Z</time>
      </trkpt>
      <trkpt lat="44.723650" lon="4.774519">
        <ele>144.442535</ele>
        <time>2017-06-06T07:56:35.000Z</time>
      </trkpt>
      <trkpt lat="44.723540" lon="4.774520">
        <ele>144.433612</ele>
        <time>2017-06-06T07:56:37.000Z</time>
      </trkpt>
      <trkpt lat="44.723440" lon="4.774523">
        <ele>144.425499</ele>
        <time>2017-06-06T07:56:39.000Z</time>
      </trkpt>
      <trkpt lat="44.723335" lon="4.774533">
        <ele>144.416962</ele>
        <time>2017-06-06T07:56:41.000Z</time>
      </trkpt>
      <trkpt lat="44.723230" lon="4.774533">
        <ele>144.408446</ele>
        <time>2017-06-06T07:56:43.000Z</time>
      </trkpt>
      <trkpt lat="44.723120" lon="4.774536">
        <ele>144.399521</ele>
        <time>2017-06-06T07:56:45.000Z</time>
      </trkpt>
      <trkpt lat="44.723015" lon="4.774538">
        <ele>144.391004</ele>
        <time>2017-06-06T07:56:47.000Z</time>
      </trkpt>
      <trkpt lat="44.722908" lon="4.774541">
        <ele>144.382323</ele>
        <time>2017-06-06T07:56:49.000Z</time>
      </trkpt>
      <trkpt lat="44.722810" lon="4.774543">
        <ele>144.374373</ele>
        <time>2017-06-06T07:56:51.000Z</time>
      </trkpt>
      <trkpt lat="44.722700" lon="4.774543">
        <ele>144.365450</ele>
        <time>2017-06-06T07:56:53.000Z</time>
      </trkpt>
      <trkpt lat="44.722595" lon="4.774544">
        <ele>144.356933</ele>
        <time>2017-06-06T07:56:55.000Z</time>
      </trkpt>
      <trkpt lat="44.722496" lon="4.774545">
        <ele>144.348903</ele>
        <time>2017-06-06T07:56:57.000Z</time>
      </trkpt>
      <trkpt lat="44.722404" lon="4.774546">
        <ele>144.339115</ele>
        <time>2017-06-06T07:56:59.000Z</time>
      </trkpt>
      <trkpt lat="44.722275" lon="4.774533">
        <ele>144.259650</ele>
        <time>2017-06-06T07:57:02.000Z</time>
      </trkpt>
      <trkpt lat="44.722145" lon="4.774522">
        <ele>144.179629</ele>
        <time>2017-06-06T07:57:05.000Z</time>
      </trkpt>
      <trkpt lat="44.722015" lon="4.774557">
        <ele>144.098304</ele>
        <time>2017-06-06T07:57:08.000Z</time>
      </trkpt>
      <trkpt lat="44.721924" lon="4.774592">
        <ele>144.040340</ele>
        <time>2017-06-06T07:57:10.000Z</time>
      </trkpt>
      <trkpt lat="44.721825" lon="4.774622">
        <ele>143.978116</ele>
        <time>2017-06-06T07:57:12.000Z</time>
      </trkpt>
      <trkpt lat="44.721730" lon="4.774666">
        <ele>143.916665</ele>
        <time>2017-06-06T07:57:14.000Z</time>
      </trkpt>
      <trkpt lat="44.721634" lon="4.774714">
        <ele>143.854067</ele>
        <time>2017-06-06T07:57:16.000Z</time>
      </trkpt>
      <trkpt lat="44.721542" lon="4.774759">
        <ele>143.794223</ele>
        <time>2017-06-06T07:57:18.000Z</time>
      </trkpt>
      <trkpt lat="44.721455" lon="4.774800">
        <ele>143.737849</ele>
        <time>2017-06-06T07:57:20.000Z</time>
      </trkpt>
      <trkpt lat="44.721363" lon="4.774853">
        <ele>143.676769</ele>
        <time>2017-06-06T07:57:22.000Z</time>
      </trkpt>
      <trkpt lat="44.721260" lon="4.774907">
        <ele>143.609233</ele>
        <time>2017-06-06T07:57:24.000Z</time>
      </trkpt>
      <trkpt lat="44.721165" lon="4.774962">
        <ele>143.546116</ele>
        <time>2017-06-06T07:57:26.000Z</time>
      </trkpt>
      <trkpt lat="44.721066" lon="4.775017">
        <ele>143.480719</ele>
        <time>2017-06-06T07:57:28.000Z</time>
      </trkpt>
      <trkpt lat="44.720963" lon="4.775070">
        <ele>143.413334</ele>
        <time>2017-06-06T07:57:30.000Z</time>
      </trkpt>
      <trkpt lat="44.720863" lon="4.775121">
        <ele>143.347981</ele>
        <time>2017-06-06T07:57:32.000Z</time>
      </trkpt>
      <trkpt lat="44.720757" lon="4.775177">
        <ele>143.278413</ele>
        <time>2017-06-06T07:57:34.000Z</time>
      </trkpt>
      <trkpt lat="44.720657" lon="4.775233">
        <ele>143.303906</ele>
        <time>2017-06-06T07:57:36.000Z</time>
      </trkpt>
      <trkpt lat="44.720554" lon="4.775288">
        <ele>143.490838</ele>
        <time>2017-06-06T07:57:38.000Z</time>
      </trkpt>
      <trkpt lat="44.720455" lon="4.775335">
        <ele>143.668126</ele>
        <time>2017-06-06T07:57:40.000Z</time>
      </trkpt>
      <trkpt lat="44.720350" lon="4.775384">
        <ele>143.855834</ele>
        <time>2017-06-06T07:57:42.000Z</time>
      </trkpt>
      <trkpt lat="44.720240" lon="4.775437">
        <ele>144.053122</ele>
        <time>2017-06-06T07:57:44.000Z</time>
      </trkpt>
      <trkpt lat="44.720146" lon="4.775487">
        <ele>144.223637</ele>
        <time>2017-06-06T07:57:46.000Z</time>
      </trkpt>
      <trkpt lat="44.720050" lon="4.775545">
        <ele>144.400910</ele>
        <time>2017-06-06T07:57:48.000Z</time>
      </trkpt>
      <trkpt lat="44.719950" lon="4.775595">
        <ele>144.580985</ele>
        <time>2017-06-06T07:57:50.000Z</time>
      </trkpt>
      <trkpt lat="44.719850" lon="4.775642">
        <ele>144.759881</ele>
        <time>2017-06-06T07:57:52.000Z</time>
      </trkpt>
      <trkpt lat="44.719746" lon="4.775693">
        <ele>144.946759</ele>
        <time>2017-06-06T07:57:54.000Z</time>
      </trkpt>
      <trkpt lat="44.719654" lon="4.775744">
        <ele>145.114543</ele>
        <time>2017-06-06T07:57:56.000Z</time>
      </trkpt>
      <trkpt lat="44.719550" lon="4.775796">
        <ele>145.301821</ele>
        <time>2017-06-06T07:57:58.000Z</time>
      </trkpt>
      <trkpt lat="44.719456" lon="4.775857">
        <ele>145.477464</ele>
        <time>2017-06-06T07:58:00.000Z</time>
      </trkpt>
      <trkpt lat="44.719360" lon="4.775927">
        <ele>145.660927</ele>
        <time>2017-06-06T07:58:02.000Z</time>
      </trkpt>
      <trkpt lat="44.719273" lon="4.775994">
        <ele>145.829210</ele>
        <time>2017-06-06T07:58:04.000Z</time>
      </trkpt>
      <trkpt lat="44.719185" lon="4.776067">
        <ele>146.002542</ele>
        <time>2017-06-06T07:58:06.000Z</time>
      </trkpt>
      <trkpt lat="44.719097" lon="4.776139">
        <ele>146.175265</ele>
        <time>2017-06-06T07:58:08.000Z</time>
      </trkpt>
      <trkpt lat="44.719010" lon="4.776211">
        <ele>146.282642</ele>
        <time>2017-06-06T07:58:10.000Z</time>
      </trkpt>
      <trkpt lat="44.718920" lon="4.776283">
        <ele>146.264393</ele>
        <time>2017-06-06T07:58:12.000Z</time>
      </trkpt>
      <trkpt lat="44.718838" lon="4.776357">
        <ele>146.247223</ele>
        <time>2017-06-06T07:58:14.000Z</time>
      </trkpt>
      <trkpt lat="44.718758" lon="4.776431">
        <ele>146.230348</ele>
        <time>2017-06-06T07:58:16.000Z</time>
      </trkpt>
      <trkpt lat="44.718674" lon="4.776511">
        <ele>146.212470</ele>
        <time>2017-06-06T07:58:18.000Z</time>
      </trkpt>
      <trkpt lat="44.718586" lon="4.776586">
        <ele>146.194335</ele>
        <time>2017-06-06T07:58:20.000Z</time>
      </trkpt>
      <trkpt lat="44.718502" lon="4.776663">
        <ele>146.176665</ele>
        <time>2017-06-06T07:58:22.000Z</time>
      </trkpt>
      <trkpt lat="44.718420" lon="4.776739">
        <ele>146.159358</ele>
        <time>2017-06-06T07:58:24.000Z</time>
      </trkpt>
      <trkpt lat="44.718330" lon="4.776818">
        <ele>146.140661</ele>
        <time>2017-06-06T07:58:26.000Z</time>
      </trkpt>
      <trkpt lat="44.718250" lon="4.776899">
        <ele>146.123289</ele>
        <time>2017-06-06T07:58:28.000Z</time>
      </trkpt>
      <trkpt lat="44.718174" lon="4.776984">
        <ele>146.106177</ele>
        <time>2017-06-06T07:58:30.000Z</time>
      </trkpt>
      <trkpt lat="44.718094" lon="4.777067">
        <ele>146.088658</ele>
        <time>2017-06-06T07:58:32.000Z</time>
      </trkpt>
      <trkpt lat="44.718014" lon="4.777152">
        <ele>146.070989</ele>
        <time>2017-06-06T07:58:34.000Z</time>
      </trkpt>
      <trkpt lat="44.717934" lon="4.777241">
        <ele>146.053013</ele>
        <time>2017-06-06T07:58:36.000Z</time>
      </trkpt>
      <trkpt lat="44.717860" lon="4.777326">
        <ele>146.036176</ele>
        <time>2017-06-06T07:58:38.000Z</time>
      </trkpt>
      <trkpt lat="44.717780" lon="4.777410">
        <ele>146.018582</ele>
        <time>2017-06-06T07:58:40.000Z</time>
      </trkpt>
      <trkpt lat="44.717700" lon="4.777489">
        <ele>146.001355</ele>
        <time>2017-06-06T07:58:42.000Z</time>
      </trkpt>
      <trkpt lat="44.717625" lon="4.777571">
        <ele>145.984614</ele>
        <time>2017-06-06T07:58:44.000Z</time>
      </trkpt>
      <trkpt lat="44.717550" lon="4.777660">
        <ele>145.975100</ele>
        <time>2017-06-06T07:58:46.000Z</time>
      </trkpt>
      <trkpt lat="44.717472" lon="4.777748">
        <ele>145.989450</ele>
        <time>2017-06-06T07:58:48.000Z</time>
      </trkpt>
      <trkpt lat="44.717396" lon="4.777825">
        <ele>146.002892</ele>
        <time>2017-06-06T07:58:50.000Z</time>
      </trkpt>
      <trkpt lat="44.717323" lon="4.777905">
        <ele>146.016172</ele>
        <time>2017-06-06T07:58:52.000Z</time>
      </trkpt>
      <trkpt lat="44.717247" lon="4.777986">
        <ele>146.029857</ele>
        <time>2017-06-06T07:58:54.000Z</time>
      </trkpt>
      <trkpt lat="44.717170" lon="4.778067">
        <ele>146.043656</ele>
        <time>2017-06-06T07:58:56.000Z</time>
      </trkpt>
      <trkpt lat="44.717102" lon="4.778147">
        <ele>146.056378</ele>
        <time>2017-06-06T07:58:58.000Z</time>
      </trkpt>
      <trkpt lat="44.717022" lon="4.778223">
        <ele>146.070233</ele>
        <time>2017-06-06T07:59:00.000Z</time>
      </trkpt>
      <trkpt lat="44.716940" lon="4.778295">
        <ele>146.084106</ele>
        <time>2017-06-06T07:59:02.000Z</time>
      </trkpt>
      <trkpt lat="44.716824" lon="4.778393">
        <ele>146.103526</ele>
        <time>2017-06-06T07:59:05.000Z</time>
      </trkpt>
      <trkpt lat="44.716743" lon="4.778461">
        <ele>146.117065</ele>
        <time>2017-06-06T07:59:07.000Z</time>
      </trkpt>
      <trkpt lat="44.716640" lon="4.778554">
        <ele>146.134631</ele>
        <time>2017-06-06T07:59:10.000Z</time>
      </trkpt>
      <trkpt lat="44.716540" lon="4.778655">
        <ele>146.152299</ele>
        <time>2017-06-06T07:59:13.000Z</time>
      </trkpt>
      <trkpt lat="44.716442" lon="4.778768">
        <ele>146.170484</ele>
        <time>2017-06-06T07:59:16.000Z</time>
      </trkpt>
      <trkpt lat="44.716350" lon="4.778890">
        <ele>146.188629</ele>
        <time>2017-06-06T07:59:19.000Z</time>
      </trkpt>
      <trkpt lat="44.716240" lon="4.778994">
        <ele>146.207651</ele>
        <time>2017-06-06T07:59:22.000Z</time>
      </trkpt>
      <trkpt lat="44.716152" lon="4.779058">
        <ele>146.221869</ele>
        <time>2017-06-06T07:59:24.000Z</time>
      </trkpt>
      <trkpt lat="44.716064" lon="4.779126">
        <ele>146.265705</ele>
        <time>2017-06-06T07:59:26.000Z</time>
      </trkpt>
      <trkpt lat="44.715977" lon="4.779187">
        <ele>146.342856</ele>
        <time>2017-06-06T07:59:28.000Z</time>
      </trkpt>
      <trkpt lat="44.715855" lon="4.779270">
        <ele>146.450412</ele>
        <time>2017-06-06T07:59:31.000Z</time>
      </trkpt>
      <trkpt lat="44.715767" lon="4.779315">
        <ele>146.524729</ele>
        <time>2017-06-06T07:59:33.000Z</time>
      </trkpt>
      <trkpt lat="44.715680" lon="4.779365">
        <ele>146.599319</ele>
        <time>2017-06-06T07:59:35.000Z</time>
      </trkpt>
      <trkpt lat="44.715595" lon="4.779419">
        <ele>146.673342</ele>
        <time>2017-06-06T07:59:37.000Z</time>
      </trkpt>
      <trkpt lat="44.715515" lon="4.779495">
        <ele>146.749955</ele>
        <time>2017-06-06T07:59:39.000Z</time>
      </trkpt>
      <trkpt lat="44.715424" lon="4.779628">
        <ele>146.854091</ele>
        <time>2017-06-06T07:59:42.000Z</time>
      </trkpt>
      <trkpt lat="44.715370" lon="4.779755">
        <ele>146.937567</ele>
        <time>2017-06-06T07:59:44.000Z</time>
      </trkpt>
      <trkpt lat="44.715347" lon="4.779894">
        <ele>147.018064</ele>
        <time>2017-06-06T07:59:46.000Z</time>
      </trkpt>
      <trkpt lat="44.715340" lon="4.780022">
        <ele>147.090473</ele>
        <time>2017-06-06T07:59:48.000Z</time>
      </trkpt>
      <trkpt lat="44.715320" lon="4.780202">
        <ele>147.193232</ele>
        <time>2017-06-06T07:59:51.000Z</time>
      </trkpt>
      <trkpt lat="44.715317" lon="4.780377">
        <ele>147.291966</ele>
        <time>2017-06-06T07:59:54.000Z</time>
      </trkpt>
      <trkpt lat="44.715300" lon="4.780551">
        <ele>147.391031</ele>
        <time>2017-06-06T07:59:57.000Z</time>
      </trkpt>
      <trkpt lat="44.715298" lon="4.780712">
        <ele>147.481853</ele>
        <time>2017-06-06T08:00:00.000Z</time>
      </trkpt>
      <trkpt lat="44.715290" lon="4.780888">
        <ele>147.581325</ele>
        <time>2017-06-06T08:00:03.000Z</time>
      </trkpt>
      <trkpt lat="44.715286" lon="4.781064">
        <ele>147.686448</ele>
        <time>2017-06-06T08:00:06.000Z</time>
      </trkpt>
      <trkpt lat="44.715270" lon="4.781245">
        <ele>147.815019</ele>
        <time>2017-06-06T08:00:09.000Z</time>
      </trkpt>
      <trkpt lat="44.715240" lon="4.781367">
        <ele>147.906021</ele>
        <time>2017-06-06T08:00:11.000Z</time>
      </trkpt>
      <trkpt lat="44.715164" lon="4.781514">
        <ele>148.034164</ele>
        <time>2017-06-06T08:00:14.000Z</time>
      </trkpt>
      <trkpt lat="44.715057" lon="4.781596">
        <ele>148.155023</ele>
        <time>2017-06-06T08:00:17.000Z</time>
      </trkpt>
      <trkpt lat="44.714928" lon="4.781652">
        <ele>148.288937</ele>
        <time>2017-06-06T08:00:20.000Z</time>
      </trkpt>
      <trkpt lat="44.714836" lon="4.781663">
        <ele>148.380526</ele>
        <time>2017-06-06T08:00:22.000Z</time>
      </trkpt>
      <trkpt lat="44.714703" lon="4.781673">
        <ele>148.512646</ele>
        <time>2017-06-06T08:00:25.000Z</time>
      </trkpt>
      <trkpt lat="44.714610" lon="4.781690">
        <ele>148.605674</ele>
        <time>2017-06-06T08:00:27.000Z</time>
      </trkpt>
      <trkpt lat="44.714520" lon="4.781710">
        <ele>148.696057</ele>
        <time>2017-06-06T08:00:29.000Z</time>
      </trkpt>
      <trkpt lat="44.714394" lon="4.781738">
        <ele>148.822593</ele>
        <time>2017-06-06T08:00:32.000Z</time>
      </trkpt>
      <trkpt lat="44.714270" lon="4.781763">
        <ele>148.946853</ele>
        <time>2017-06-06T08:00:35.000Z</time>
      </trkpt>
      <trkpt lat="44.714150" lon="4.781805">
        <ele>149.069515</ele>
        <time>2017-06-06T08:00:38.000Z</time>
      </trkpt>
      <trkpt lat="44.714030" lon="4.781847">
        <ele>149.192178</ele>
        <time>2017-06-06T08:00:41.000Z</time>
      </trkpt>
      <trkpt lat="44.713940" lon="4.781872">
        <ele>149.283177</ele>
        <time>2017-06-06T08:00:43.000Z</time>
      </trkpt>
      <trkpt lat="44.713814" lon="4.781905">
        <ele>149.410311</ele>
        <time>2017-06-06T08:00:46.000Z</time>
      </trkpt>
      <trkpt lat="44.713688" lon="4.781954">
        <ele>149.336809</ele>
        <time>2017-06-06T08:00:49.000Z</time>
      </trkpt>
      <trkpt lat="44.713560" lon="4.782000">
        <ele>149.197224</ele>
        <time>2017-06-06T08:00:52.000Z</time>
      </trkpt>
      <trkpt lat="44.713432" lon="4.782042">
        <ele>149.058350</ele>
        <time>2017-06-06T08:00:55.000Z</time>
      </trkpt>
      <trkpt lat="44.713306" lon="4.782079">
        <ele>148.922351</ele>
        <time>2017-06-06T08:00:58.000Z</time>
      </trkpt>
      <trkpt lat="44.713180" lon="4.782108">
        <ele>148.787450</ele>
        <time>2017-06-06T08:01:01.000Z</time>
      </trkpt>
      <trkpt lat="44.713060" lon="4.782144">
        <ele>148.657809</ele>
        <time>2017-06-06T08:01:04.000Z</time>
      </trkpt>
      <trkpt lat="44.712925" lon="4.782177">
        <ele>148.513031</ele>
        <time>2017-06-06T08:01:07.000Z</time>
      </trkpt>
      <trkpt lat="44.712790" lon="4.782217">
        <ele>148.367262</ele>
        <time>2017-06-06T08:01:10.000Z</time>
      </trkpt>
      <trkpt lat="44.712700" lon="4.782240">
        <ele>148.270613</ele>
        <time>2017-06-06T08:01:12.000Z</time>
      </trkpt>
      <trkpt lat="44.712612" lon="4.782264">
        <ele>148.175902</ele>
        <time>2017-06-06T08:01:14.000Z</time>
      </trkpt>
      <trkpt lat="44.712517" lon="4.782290">
        <ele>148.073644</ele>
        <time>2017-06-06T08:01:16.000Z</time>
      </trkpt>
      <trkpt lat="44.712425" lon="4.782319">
        <ele>147.974027</ele>
        <time>2017-06-06T08:01:18.000Z</time>
      </trkpt>
      <trkpt lat="44.712337" lon="4.782346">
        <ele>147.878862</ele>
        <time>2017-06-06T08:01:20.000Z</time>
      </trkpt>
      <trkpt lat="44.712246" lon="4.782371">
        <ele>147.780896</ele>
        <time>2017-06-06T08:01:22.000Z</time>
      </trkpt>
      <trkpt lat="44.712154" lon="4.782395">
        <ele>147.682032</ele>
        <time>2017-06-06T08:01:24.000Z</time>
      </trkpt>
      <trkpt lat="44.712020" lon="4.782436">
        <ele>147.538532</ele>
        <time>2017-06-06T08:01:27.000Z</time>
      </trkpt>
      <trkpt lat="44.711930" lon="4.782461">
        <ele>147.475224</ele>
        <time>2017-06-06T08:01:29.000Z</time>
      </trkpt>
      <trkpt lat="44.711838" lon="4.782490">
        <ele>147.410160</ele>
        <time>2017-06-06T08:01:31.000Z</time>
      </trkpt>
      <trkpt lat="44.711740" lon="4.782516">
        <ele>147.341338</ele>
        <time>2017-06-06T08:01:33.000Z</time>
      </trkpt>
      <trkpt lat="44.711636" lon="4.782537">
        <ele>147.268832</ele>
        <time>2017-06-06T08:01:35.000Z</time>
      </trkpt>
      <trkpt lat="44.711544" lon="4.782565">
        <ele>147.203875</ele>
        <time>2017-06-06T08:01:37.000Z</time>
      </trkpt>
      <trkpt lat="44.711445" lon="4.782594">
        <ele>147.134089</ele>
        <time>2017-06-06T08:01:39.000Z</time>
      </trkpt>
      <trkpt lat="44.711350" lon="4.782627">
        <ele>147.066561</ele>
        <time>2017-06-06T08:01:41.000Z</time>
      </trkpt>
      <trkpt lat="44.711258" lon="4.782654">
        <ele>147.001705</ele>
        <time>2017-06-06T08:01:43.000Z</time>
      </trkpt>
      <trkpt lat="44.711170" lon="4.782681">
        <ele>146.939549</ele>
        <time>2017-06-06T08:01:45.000Z</time>
      </trkpt>
      <trkpt lat="44.711080" lon="4.782701">
        <ele>146.876670</ele>
        <time>2017-06-06T08:01:47.000Z</time>
      </trkpt>
      <trkpt lat="44.710964" lon="4.782732">
        <ele>146.795187</ele>
        <time>2017-06-06T08:01:50.000Z</time>
      </trkpt>
      <trkpt lat="44.710873" lon="4.782753">
        <ele>146.731548</ele>
        <time>2017-06-06T08:01:53.000Z</time>
      </trkpt>
      <trkpt lat="44.710766" lon="4.782708">
        <ele>146.654479</ele>
        <time>2017-06-06T08:01:58.000Z</time>
      </trkpt>
      <trkpt lat="44.710670" lon="4.782644">
        <ele>146.581170</ele>
        <time>2017-06-06T08:02:02.000Z</time>
      </trkpt>
      <trkpt lat="44.710575" lon="4.782591">
        <ele>146.510645</ele>
        <time>2017-06-06T08:02:06.000Z</time>
      </trkpt>
      <trkpt lat="44.710490" lon="4.782535">
        <ele>146.445875</ele>
        <time>2017-06-06T08:02:09.000Z</time>
      </trkpt>
      <trkpt lat="44.710392" lon="4.782487">
        <ele>146.374265</ele>
        <time>2017-06-06T08:02:12.000Z</time>
      </trkpt>
      <trkpt lat="44.710293" lon="4.782439">
        <ele>146.302002</ele>
        <time>2017-06-06T08:02:15.000Z</time>
      </trkpt>
      <trkpt lat="44.710200" lon="4.782415">
        <ele>146.330402</ele>
        <time>2017-06-06T08:02:18.000Z</time>
      </trkpt>
      <trkpt lat="44.710087" lon="4.782408">
        <ele>146.368107</ele>
        <time>2017-06-06T08:02:22.000Z</time>
      </trkpt>
      <trkpt lat="44.709970" lon="4.782412">
        <ele>146.407120</ele>
        <time>2017-06-06T08:02:25.000Z</time>
      </trkpt>
      <trkpt lat="44.709846" lon="4.782424">
        <ele>146.448553</ele>
        <time>2017-06-06T08:02:28.000Z</time>
      </trkpt>
      <trkpt lat="44.709740" lon="4.782442">
        <ele>146.484144</ele>
        <time>2017-06-06T08:02:31.000Z</time>
      </trkpt>
      <trkpt lat="44.709640" lon="4.782450">
        <ele>146.517532</ele>
        <time>2017-06-06T08:02:34.000Z</time>
      </trkpt>
      <trkpt lat="44.709510" lon="4.782475">
        <ele>146.561270</ele>
        <time>2017-06-06T08:02:37.000Z</time>
      </trkpt>
      <trkpt lat="44.709377" lon="4.782490">
        <ele>146.605747</ele>
        <time>2017-06-06T08:02:40.000Z</time>
      </trkpt>
      <trkpt lat="44.709260" lon="4.782508">
        <ele>146.644981</ele>
        <time>2017-06-06T08:02:43.000Z</time>
      </trkpt>
      <trkpt lat="44.709152" lon="4.782515">
        <ele>146.681021</ele>
        <time>2017-06-06T08:02:46.000Z</time>
      </trkpt>
      <trkpt lat="44.709045" lon="4.782523">
        <ele>146.716739</ele>
        <time>2017-06-06T08:02:49.000Z</time>
      </trkpt>
      <trkpt lat="44.708946" lon="4.782539">
        <ele>146.749957</ele>
        <time>2017-06-06T08:02:52.000Z</time>
      </trkpt>
      <trkpt lat="44.708810" lon="4.782556">
        <ele>146.795471</ele>
        <time>2017-06-06T08:02:55.000Z</time>
      </trkpt>
      <trkpt lat="44.708717" lon="4.782554">
        <ele>146.826476</ele>
        <time>2017-06-06T08:02:57.000Z</time>
      </trkpt>
      <trkpt lat="44.708620" lon="4.782572">
        <ele>146.859091</ele>
        <time>2017-06-06T08:03:00.000Z</time>
      </trkpt>
      <trkpt lat="44.708520" lon="4.782597">
        <ele>146.892947</ele>
        <time>2017-06-06T08:03:03.000Z</time>
      </trkpt>
      <trkpt lat="44.708416" lon="4.782609">
        <ele>147.055978</ele>
        <time>2017-06-06T08:03:05.000Z</time>
      </trkpt>
      <trkpt lat="44.708310" lon="4.782602">
        <ele>147.251875</ele>
        <time>2017-06-06T08:03:07.000Z</time>
      </trkpt>
      <trkpt lat="44.708210" lon="4.782605">
        <ele>147.436522</ele>
        <time>2017-06-06T08:03:09.000Z</time>
      </trkpt>
      <trkpt lat="44.708115" lon="4.782614">
        <ele>147.612295</ele>
        <time>2017-06-06T08:03:11.000Z</time>
      </trkpt>
      <trkpt lat="44.708023" lon="4.782617">
        <ele>147.782178</ele>
        <time>2017-06-06T08:03:13.000Z</time>
      </trkpt>
      <trkpt lat="44.707928" lon="4.782620">
        <ele>147.957597</ele>
        <time>2017-06-06T08:03:15.000Z</time>
      </trkpt>
      <trkpt lat="44.707832" lon="4.782639">
        <ele>148.136563</ele>
        <time>2017-06-06T08:03:17.000Z</time>
      </trkpt>
      <trkpt lat="44.707740" lon="4.782649">
        <ele>148.306906</ele>
        <time>2017-06-06T08:03:19.000Z</time>
      </trkpt>
      <trkpt lat="44.707645" lon="4.782677">
        <ele>148.486088</ele>
        <time>2017-06-06T08:03:21.000Z</time>
      </trkpt>
      <trkpt lat="44.707558" lon="4.782713">
        <ele>148.653496</ele>
        <time>2017-06-06T08:03:23.000Z</time>
      </trkpt>
      <trkpt lat="44.707470" lon="4.782754">
        <ele>148.824623</ele>
        <time>2017-06-06T08:03:25.000Z</time>
      </trkpt>
      <trkpt lat="44.707375" lon="4.782805">
        <ele>149.012329</ele>
        <time>2017-06-06T08:03:27.000Z</time>
      </trkpt>
      <trkpt lat="44.707287" lon="4.782858">
        <ele>149.189039</ele>
        <time>2017-06-06T08:03:29.000Z</time>
      </trkpt>
      <trkpt lat="44.707207" lon="4.782926">
        <ele>149.361580</ele>
        <time>2017-06-06T08:03:31.000Z</time>
      </trkpt>
      <trkpt lat="44.707123" lon="4.783004">
        <ele>149.547373</ele>
        <time>2017-06-06T08:03:33.000Z</time>
      </trkpt>
      <trkpt lat="44.707040" lon="4.783073">
        <ele>149.725341</ele>
        <time>2017-06-06T08:03:35.000Z</time>
      </trkpt>
      <trkpt lat="44.706966" lon="4.783162">
        <ele>149.905055</ele>
        <time>2017-06-06T08:03:37.000Z</time>
      </trkpt>
      <trkpt lat="44.706860" lon="4.783284">
        <ele>150.157864</ele>
        <time>2017-06-06T08:03:40.000Z</time>
      </trkpt>
      <trkpt lat="44.706760" lon="4.783402">
        <ele>150.187526</ele>
        <time>2017-06-06T08:03:43.000Z</time>
      </trkpt>
      <trkpt lat="44.706657" lon="4.783523">
        <ele>150.142755</ele>
        <time>2017-06-06T08:03:46.000Z</time>
      </trkpt>
      <trkpt lat="44.706560" lon="4.783642">
        <ele>150.099814</ele>
        <time>2017-06-06T08:03:49.000Z</time>
      </trkpt>
      <trkpt lat="44.706486" lon="4.783718">
        <ele>150.069245</ele>
        <time>2017-06-06T08:03:51.000Z</time>
      </trkpt>
      <trkpt lat="44.706387" lon="4.783838">
        <ele>150.025644</ele>
        <time>2017-06-06T08:03:54.000Z</time>
      </trkpt>
      <trkpt lat="44.706284" lon="4.783952">
        <ele>149.981918</ele>
        <time>2017-06-06T08:03:57.000Z</time>
      </trkpt>
      <trkpt lat="44.706207" lon="4.784021">
        <ele>149.951458</ele>
        <time>2017-06-06T08:03:59.000Z</time>
      </trkpt>
      <trkpt lat="44.706116" lon="4.784118">
        <ele>149.913365</ele>
        <time>2017-06-06T08:04:02.000Z</time>
      </trkpt>
      <trkpt lat="44.706036" lon="4.784180">
        <ele>149.882890</ele>
        <time>2017-06-06T08:04:04.000Z</time>
      </trkpt>
      <trkpt lat="44.705917" lon="4.784267">
        <ele>149.838144</ele>
        <time>2017-06-06T08:04:07.000Z</time>
      </trkpt>
      <trkpt lat="44.705830" lon="4.784325">
        <ele>149.806021</ele>
        <time>2017-06-06T08:04:09.000Z</time>
      </trkpt>
      <trkpt lat="44.705708" lon="4.784400">
        <ele>149.761598</ele>
        <time>2017-06-06T08:04:12.000Z</time>
      </trkpt>
      <trkpt lat="44.705616" lon="4.784444">
        <ele>149.729176</ele>
        <time>2017-06-06T08:04:14.000Z</time>
      </trkpt>
      <trkpt lat="44.705524" lon="4.784478">
        <ele>149.697437</ele>
        <time>2017-06-06T08:04:16.000Z</time>
      </trkpt>
      <trkpt lat="44.705402" lon="4.784538">
        <ele>149.654315</ele>
        <time>2017-06-06T08:04:19.000Z</time>
      </trkpt>
      <trkpt lat="44.705310" lon="4.784579">
        <ele>149.622115</ele>
        <time>2017-06-06T08:04:21.000Z</time>
      </trkpt>
      <trkpt lat="44.705215" lon="4.784611">
        <ele>149.662262</ele>
        <time>2017-06-06T08:04:23.000Z</time>
      </trkpt>
      <trkpt lat="44.705128" lon="4.784645">
        <ele>149.704701</ele>
        <time>2017-06-06T08:04:25.000Z</time>
      </trkpt>
      <trkpt lat="44.705032" lon="4.784677">
        <ele>149.751070</ele>
        <time>2017-06-06T08:04:27.000Z</time>
      </trkpt>
      <trkpt lat="44.704906" lon="4.784738">
        <ele>149.813699</ele>
        <time>2017-06-06T08:04:30.000Z</time>
      </trkpt>
      <trkpt lat="44.704820" lon="4.784781">
        <ele>149.856595</ele>
        <time>2017-06-06T08:04:32.000Z</time>
      </trkpt>
      <trkpt lat="44.704730" lon="4.784819">
        <ele>149.900760</ele>
        <time>2017-06-06T08:04:34.000Z</time>
      </trkpt>
      <trkpt lat="44.704605" lon="4.784874">
        <ele>149.962316</ele>
        <time>2017-06-06T08:04:37.000Z</time>
      </trkpt>
      <trkpt lat="44.704475" lon="4.784931">
        <ele>150.026315</ele>
        <time>2017-06-06T08:04:40.000Z</time>
      </trkpt>
      <trkpt lat="44.704353" lon="4.784984">
        <ele>150.086327</ele>
        <time>2017-06-06T08:04:43.000Z</time>
      </trkpt>
      <trkpt lat="44.704240" lon="4.785037">
        <ele>150.142310</ele>
        <time>2017-06-06T08:04:46.000Z</time>
      </trkpt>
      <trkpt lat="44.704105" lon="4.785101">
        <ele>150.209266</ele>
        <time>2017-06-06T08:04:49.000Z</time>
      </trkpt>
      <trkpt lat="44.704002" lon="4.785148">
        <ele>150.260159</ele>
        <time>2017-06-06T08:04:51.000Z</time>
      </trkpt>
      <trkpt lat="44.703910" lon="4.785195">
        <ele>150.306162</ele>
        <time>2017-06-06T08:04:53.000Z</time>
      </trkpt>
      <trkpt lat="44.703785" lon="4.785245">
        <ele>150.367241</ele>
        <time>2017-06-06T08:04:56.000Z</time>
      </trkpt>
      <trkpt lat="44.703693" lon="4.785284">
        <ele>150.412401</ele>
        <time>2017-06-06T08:04:58.000Z</time>
      </trkpt>
      <trkpt lat="44.703600" lon="4.785322">
        <ele>150.457918</ele>
        <time>2017-06-06T08:05:00.000Z</time>
      </trkpt>
      <trkpt lat="44.703514" lon="4.785358">
        <ele>150.387874</ele>
        <time>2017-06-06T08:05:02.000Z</time>
      </trkpt>
      <trkpt lat="44.703426" lon="4.785397">
        <ele>150.292193</ele>
        <time>2017-06-06T08:05:04.000Z</time>
      </trkpt>
      <trkpt lat="44.703340" lon="4.785437">
        <ele>150.198259</ele>
        <time>2017-06-06T08:05:06.000Z</time>
      </trkpt>
      <trkpt lat="44.703247" lon="4.785480">
        <ele>150.096739</ele>
        <time>2017-06-06T08:05:08.000Z</time>
      </trkpt>
      <trkpt lat="44.703114" lon="4.785537">
        <ele>149.952553</ele>
        <time>2017-06-06T08:05:11.000Z</time>
      </trkpt>
      <trkpt lat="44.703026" lon="4.785574">
        <ele>149.857305</ele>
        <time>2017-06-06T08:05:13.000Z</time>
      </trkpt>
      <trkpt lat="44.702934" lon="4.785614">
        <ele>149.757444</ele>
        <time>2017-06-06T08:05:15.000Z</time>
      </trkpt>
      <trkpt lat="44.702812" lon="4.785670">
        <ele>149.624360</ele>
        <time>2017-06-06T08:05:18.000Z</time>
      </trkpt>
      <trkpt lat="44.702682" lon="4.785723">
        <ele>149.483997</ele>
        <time>2017-06-06T08:05:21.000Z</time>
      </trkpt>
      <trkpt lat="44.702595" lon="4.785763">
        <ele>149.389078</ele>
        <time>2017-06-06T08:05:23.000Z</time>
      </trkpt>
      <trkpt lat="44.702507" lon="4.785800">
        <ele>149.293829</ele>
        <time>2017-06-06T08:05:25.000Z</time>
      </trkpt>
      <trkpt lat="44.702410" lon="4.785845">
        <ele>149.187907</ele>
        <time>2017-06-06T08:05:27.000Z</time>
      </trkpt>
      <trkpt lat="44.702320" lon="4.785886">
        <ele>149.089802</ele>
        <time>2017-06-06T08:05:29.000Z</time>
      </trkpt>
      <trkpt lat="44.702200" lon="4.785945">
        <ele>148.957975</ele>
        <time>2017-06-06T08:05:32.000Z</time>
      </trkpt>
      <trkpt lat="44.702087" lon="4.785989">
        <ele>148.836383</ele>
        <time>2017-06-06T08:05:35.000Z</time>
      </trkpt>
      <trkpt lat="44.701980" lon="4.786022">
        <ele>148.722783</ele>
        <time>2017-06-06T08:05:38.000Z</time>
      </trkpt>
      <trkpt lat="44.701874" lon="4.786071">
        <ele>148.607074</ele>
        <time>2017-06-06T08:05:41.000Z</time>
      </trkpt>
      <trkpt lat="44.701767" lon="4.786121">
        <ele>148.497612</ele>
        <time>2017-06-06T08:05:44.000Z</time>
      </trkpt>
      <trkpt lat="44.701637" lon="4.786175">
        <ele>148.366609</ele>
        <time>2017-06-06T08:05:47.000Z</time>
      </trkpt>
      <trkpt lat="44.701515" lon="4.786223">
        <ele>148.244175</ele>
        <time>2017-06-06T08:05:50.000Z</time>
      </trkpt>
      <trkpt lat="44.701385" lon="4.786277">
        <ele>148.113172</ele>
        <time>2017-06-06T08:05:53.000Z</time>
      </trkpt>
      <trkpt lat="44.701298" lon="4.786305">
        <ele>148.026917</ele>
        <time>2017-06-06T08:05:55.000Z</time>
      </trkpt>
      <trkpt lat="44.701206" lon="4.786327">
        <ele>147.936726</ele>
        <time>2017-06-06T08:05:57.000Z</time>
      </trkpt>
      <trkpt lat="44.701120" lon="4.786364">
        <ele>147.849810</ele>
        <time>2017-06-06T08:05:59.000Z</time>
      </trkpt>
      <trkpt lat="44.701030" lon="4.786396">
        <ele>147.760093</ele>
        <time>2017-06-06T08:06:01.000Z</time>
      </trkpt>
      <trkpt lat="44.700900" lon="4.786434">
        <ele>147.631768</ele>
        <time>2017-06-06T08:06:04.000Z</time>
      </trkpt>
      <trkpt lat="44.700810" lon="4.786465">
        <ele>147.542217</ele>
        <time>2017-06-06T08:06:06.000Z</time>
      </trkpt>
      <trkpt lat="44.700714" lon="4.786495">
        <ele>147.447174</ele>
        <time>2017-06-06T08:06:08.000Z</time>
      </trkpt>
      <trkpt lat="44.700623" lon="4.786516">
        <ele>147.358050</ele>
        <time>2017-06-06T08:06:10.000Z</time>
      </trkpt>
      <trkpt lat="44.700530" lon="4.786545">
        <ele>147.265986</ele>
        <time>2017-06-06T08:06:12.000Z</time>
      </trkpt>
      <trkpt lat="44.700440" lon="4.786575">
        <ele>147.176596</ele>
        <time>2017-06-06T08:06:14.000Z</time>
      </trkpt>
      <trkpt lat="44.700348" lon="4.786600">
        <ele>147.086037</ele>
        <time>2017-06-06T08:06:16.000Z</time>
      </trkpt>
      <trkpt lat="44.700256" lon="4.786628">
        <ele>146.995065</ele>
        <time>2017-06-06T08:06:18.000Z</time>
      </trkpt>
      <trkpt lat="44.700170" lon="4.786665">
        <ele>146.908148</ele>
        <time>2017-06-06T08:06:20.000Z</time>
      </trkpt>
      <trkpt lat="44.700080" lon="4.786690">
        <ele>146.853320</ele>
        <time>2017-06-06T08:06:22.000Z</time>
      </trkpt>
      <trkpt lat="44.699990" lon="4.786720">
        <ele>146.835977</ele>
        <time>2017-06-06T08:06:24.000Z</time>
      </trkpt>
      <trkpt lat="44.699898" lon="4.786745">
        <ele>146.818408</ele>
        <time>2017-06-06T08:06:26.000Z</time>
      </trkpt>
      <trkpt lat="44.699806" lon="4.786774">
        <ele>146.800730</ele>
        <time>2017-06-06T08:06:28.000Z</time>
      </trkpt>
      <trkpt lat="44.699677" lon="4.786813">
        <ele>146.775990</ele>
        <time>2017-06-06T08:06:31.000Z</time>
      </trkpt>
      <trkpt lat="44.699550" lon="4.786841">
        <ele>146.751887</ele>
        <time>2017-06-06T08:06:34.000Z</time>
      </trkpt>
      <trkpt lat="44.699463" lon="4.786869">
        <ele>146.735153</ele>
        <time>2017-06-06T08:06:36.000Z</time>
      </trkpt>
      <trkpt lat="44.699368" lon="4.786898">
        <ele>146.716925</ele>
        <time>2017-06-06T08:06:38.000Z</time>
      </trkpt>
      <trkpt lat="44.699270" lon="4.786925">
        <ele>146.698201</ele>
        <time>2017-06-06T08:06:40.000Z</time>
      </trkpt>
      <trkpt lat="44.699170" lon="4.786950">
        <ele>146.679157</ele>
        <time>2017-06-06T08:06:42.000Z</time>
      </trkpt>
      <trkpt lat="44.699043" lon="4.786983">
        <ele>146.654942</ele>
        <time>2017-06-06T08:06:45.000Z</time>
      </trkpt>
      <trkpt lat="44.698950" lon="4.786996">
        <ele>146.637418</ele>
        <time>2017-06-06T08:06:47.000Z</time>
      </trkpt>
      <trkpt lat="44.698860" lon="4.787009">
        <ele>146.620454</ele>
        <time>2017-06-06T08:06:49.000Z</time>
      </trkpt>
      <trkpt lat="44.698760" lon="4.787019">
        <ele>146.601656</ele>
        <time>2017-06-06T08:06:51.000Z</time>
      </trkpt>
      <trkpt lat="44.698660" lon="4.787031">
        <ele>146.582838</ele>
        <time>2017-06-06T08:06:53.000Z</time>
      </trkpt>
      <trkpt lat="44.698563" lon="4.787052">
        <ele>146.564436</ele>
        <time>2017-06-06T08:06:55.000Z</time>
      </trkpt>
      <trkpt lat="44.698463" lon="4.787088">
        <ele>146.545082</ele>
        <time>2017-06-06T08:06:57.000Z</time>
      </trkpt>
      <trkpt lat="44.698364" lon="4.787131">
        <ele>146.525654</ele>
        <time>2017-06-06T08:06:59.000Z</time>
      </trkpt>
      <trkpt lat="44.698270" lon="4.787172">
        <ele>146.490049</ele>
        <time>2017-06-06T08:07:01.000Z</time>
      </trkpt>
      <trkpt lat="44.698174" lon="4.787215">
        <ele>146.452112</ele>
        <time>2017-06-06T08:07:03.000Z</time>
      </trkpt>
      <trkpt lat="44.698070" lon="4.787262">
        <ele>146.410980</ele>
        <time>2017-06-06T08:07:05.000Z</time>
      </trkpt>
      <trkpt lat="44.697968" lon="4.787304">
        <ele>146.370961</ele>
        <time>2017-06-06T08:07:07.000Z</time>
      </trkpt>
      <trkpt lat="44.697870" lon="4.787341">
        <ele>146.332753</ele>
        <time>2017-06-06T08:07:09.000Z</time>
      </trkpt>
      <trkpt lat="44.697777" lon="4.787382">
        <ele>146.296054</ele>
        <time>2017-06-06T08:07:11.000Z</time>
      </trkpt>
      <trkpt lat="44.697678" lon="4.787417">
        <ele>146.257617</ele>
        <time>2017-06-06T08:07:13.000Z</time>
      </trkpt>
      <trkpt lat="44.697580" lon="4.787458">
        <ele>146.219117</ele>
        <time>2017-06-06T08:07:15.000Z</time>
      </trkpt>
      <trkpt lat="44.697480" lon="4.787493">
        <ele>146.180314</ele>
        <time>2017-06-06T08:07:17.000Z</time>
      </trkpt>
      <trkpt lat="44.697388" lon="4.787524">
        <ele>146.144692</ele>
        <time>2017-06-06T08:07:19.000Z</time>
      </trkpt>
      <trkpt lat="44.697296" lon="4.787559">
        <ele>146.108805</ele>
        <time>2017-06-06T08:07:21.000Z</time>
      </trkpt>
      <trkpt lat="44.697205" lon="4.787588">
        <ele>146.073671</ele>
        <time>2017-06-06T08:07:23.000Z</time>
      </trkpt>
      <trkpt lat="44.697117" lon="4.787623">
        <ele>146.039235</ele>
        <time>2017-06-06T08:07:25.000Z</time>
      </trkpt>
      <trkpt lat="44.697030" lon="4.787659">
        <ele>146.005088</ele>
        <time>2017-06-06T08:07:27.000Z</time>
      </trkpt>
      <trkpt lat="44.696938" lon="4.787684">
        <ele>145.969805</ele>
        <time>2017-06-06T08:07:29.000Z</time>
      </trkpt>
      <trkpt lat="44.696820" lon="4.787721">
        <ele>145.924281</ele>
        <time>2017-06-06T08:07:32.000Z</time>
      </trkpt>
      <trkpt lat="44.696690" lon="4.787751">
        <ele>145.874675</ele>
        <time>2017-06-06T08:07:35.000Z</time>
      </trkpt>
      <trkpt lat="44.696575" lon="4.787787">
        <ele>145.855305</ele>
        <time>2017-06-06T08:07:38.000Z</time>
      </trkpt>
      <trkpt lat="44.696450" lon="4.787828">
        <ele>145.879652</ele>
        <time>2017-06-06T08:07:41.000Z</time>
      </trkpt>
      <trkpt lat="44.696323" lon="4.787879">
        <ele>145.904705</ele>
        <time>2017-06-06T08:07:44.000Z</time>
      </trkpt>
      <trkpt lat="44.696198" lon="4.787917">
        <ele>145.928963</ele>
        <time>2017-06-06T08:07:47.000Z</time>
      </trkpt>
      <trkpt lat="44.696068" lon="4.787953">
        <ele>145.954096</ele>
        <time>2017-06-06T08:07:50.000Z</time>
      </trkpt>
      <trkpt lat="44.695942" lon="4.787989">
        <ele>145.978484</ele>
        <time>2017-06-06T08:07:53.000Z</time>
      </trkpt>
      <trkpt lat="44.695810" lon="4.788024">
        <ele>146.003964</ele>
        <time>2017-06-06T08:07:56.000Z</time>
      </trkpt>
      <trkpt lat="44.695680" lon="4.788069">
        <ele>146.029359</ele>
        <time>2017-06-06T08:07:59.000Z</time>
      </trkpt>
      <trkpt lat="44.695587" lon="4.788097">
        <ele>146.047400</ele>
        <time>2017-06-06T08:08:01.000Z</time>
      </trkpt>
      <trkpt lat="44.695457" lon="4.788124">
        <ele>146.072326</ele>
        <time>2017-06-06T08:08:04.000Z</time>
      </trkpt>
      <trkpt lat="44.695340" lon="4.788166">
        <ele>146.095231</ele>
        <time>2017-06-06T08:08:07.000Z</time>
      </trkpt>
      <trkpt lat="44.695244" lon="4.788187">
        <ele>146.113660</ele>
        <time>2017-06-06T08:08:09.000Z</time>
      </trkpt>
      <trkpt lat="44.695137" lon="4.788214">
        <ele>146.134281</ele>
        <time>2017-06-06T08:08:11.000Z</time>
      </trkpt>
      <trkpt lat="44.695030" lon="4.788246">
        <ele>146.155031</ele>
        <time>2017-06-06T08:08:13.000Z</time>
      </trkpt>
      <trkpt lat="44.694940" lon="4.788273">
        <ele>146.172487</ele>
        <time>2017-06-06T08:08:15.000Z</time>
      </trkpt>
      <trkpt lat="44.694817" lon="4.788324">
        <ele>146.243011</ele>
        <time>2017-06-06T08:08:18.000Z</time>
      </trkpt>
      <trkpt lat="44.694700" lon="4.788370">
        <ele>146.388476</ele>
        <time>2017-06-06T08:08:21.000Z</time>
      </trkpt>
      <trkpt lat="44.694570" lon="4.788414">
        <ele>146.548581</ele>
        <time>2017-06-06T08:08:24.000Z</time>
      </trkpt>
      <trkpt lat="44.694443" lon="4.788465">
        <ele>146.706727</ele>
        <time>2017-06-06T08:08:27.000Z</time>
      </trkpt>
      <trkpt lat="44.694355" lon="4.788495">
        <ele>146.815149</ele>
        <time>2017-06-06T08:08:29.000Z</time>
      </trkpt>
      <trkpt lat="44.694263" lon="4.788525">
        <ele>146.928231</ele>
        <time>2017-06-06T08:08:31.000Z</time>
      </trkpt>
      <trkpt lat="44.694168" lon="4.788555">
        <ele>147.044815</ele>
        <time>2017-06-06T08:08:33.000Z</time>
      </trkpt>
      <trkpt lat="44.694077" lon="4.788584">
        <ele>147.156541</ele>
        <time>2017-06-06T08:08:35.000Z</time>
      </trkpt>
      <trkpt lat="44.693977" lon="4.788615">
        <ele>147.279154</ele>
        <time>2017-06-06T08:08:37.000Z</time>
      </trkpt>
      <trkpt lat="44.693882" lon="4.788649">
        <ele>147.396532</ele>
        <time>2017-06-06T08:08:39.000Z</time>
      </trkpt>
      <trkpt lat="44.693783" lon="4.788682">
        <ele>147.518357</ele>
        <time>2017-06-06T08:08:41.000Z</time>
      </trkpt>
      <trkpt lat="44.693690" lon="4.788707">
        <ele>147.631731</ele>
        <time>2017-06-06T08:08:43.000Z</time>
      </trkpt>
      <trkpt lat="44.693600" lon="4.788744">
        <ele>147.744006</ele>
        <time>2017-06-06T08:08:45.000Z</time>
      </trkpt>
      <trkpt lat="44.693504" lon="4.788774">
        <ele>147.861759</ele>
        <time>2017-06-06T08:08:47.000Z</time>
      </trkpt>
      <trkpt lat="44.693417" lon="4.788806">
        <ele>147.969435</ele>
        <time>2017-06-06T08:08:49.000Z</time>
      </trkpt>
      <trkpt lat="44.693325" lon="4.788840">
        <ele>148.083335</ele>
        <time>2017-06-06T08:08:51.000Z</time>
      </trkpt>
      <trkpt lat="44.693230" lon="4.788875">
        <ele>148.200925</ele>
        <time>2017-06-06T08:08:53.000Z</time>
      </trkpt>
      <trkpt lat="44.693140" lon="4.788909">
        <ele>148.312510</ele>
        <time>2017-06-06T08:08:55.000Z</time>
      </trkpt>
      <trkpt lat="44.693040" lon="4.788933">
        <ele>148.231989</ele>
        <time>2017-06-06T08:08:57.000Z</time>
      </trkpt>
      <trkpt lat="44.692944" lon="4.788957">
        <ele>148.092850</ele>
        <time>2017-06-06T08:08:59.000Z</time>
      </trkpt>
      <trkpt lat="44.692844" lon="4.788983">
        <ele>147.947733</ele>
        <time>2017-06-06T08:09:01.000Z</time>
      </trkpt>
      <trkpt lat="44.692753" lon="4.789009">
        <ele>147.815224</ele>
        <time>2017-06-06T08:09:03.000Z</time>
      </trkpt>
      <trkpt lat="44.692660" lon="4.789035">
        <ele>147.679917</ele>
        <time>2017-06-06T08:09:05.000Z</time>
      </trkpt>
      <trkpt lat="44.692566" lon="4.789069">
        <ele>147.541416</ele>
        <time>2017-06-06T08:09:07.000Z</time>
      </trkpt>
      <trkpt lat="44.692463" lon="4.789104">
        <ele>147.390207</ele>
        <time>2017-06-06T08:09:09.000Z</time>
      </trkpt>
      <trkpt lat="44.692370" lon="4.789136">
        <ele>147.253583</ele>
        <time>2017-06-06T08:09:11.000Z</time>
      </trkpt>
      <trkpt lat="44.692272" lon="4.789163">
        <ele>147.111080</ele>
        <time>2017-06-06T08:09:13.000Z</time>
      </trkpt>
      <trkpt lat="44.692173" lon="4.789195">
        <ele>146.966125</ele>
        <time>2017-06-06T08:09:15.000Z</time>
      </trkpt>
      <trkpt lat="44.692078" lon="4.789222">
        <ele>146.827821</ele>
        <time>2017-06-06T08:09:17.000Z</time>
      </trkpt>
      <trkpt lat="44.691986" lon="4.789250">
        <ele>146.693499</ele>
        <time>2017-06-06T08:09:19.000Z</time>
      </trkpt>
      <trkpt lat="44.691856" lon="4.789291">
        <ele>146.503384</ele>
        <time>2017-06-06T08:09:22.000Z</time>
      </trkpt>
      <trkpt lat="44.691770" lon="4.789325">
        <ele>146.375907</ele>
        <time>2017-06-06T08:09:24.000Z</time>
      </trkpt>
      <trkpt lat="44.691677" lon="4.789348">
        <ele>146.241160</ele>
        <time>2017-06-06T08:09:26.000Z</time>
      </trkpt>
      <trkpt lat="44.691586" lon="4.789383">
        <ele>146.106536</ele>
        <time>2017-06-06T08:09:28.000Z</time>
      </trkpt>
      <trkpt lat="44.691490" lon="4.789420">
        <ele>145.964495</ele>
        <time>2017-06-06T08:09:30.000Z</time>
      </trkpt>
      <trkpt lat="44.691400" lon="4.789449">
        <ele>145.832739</ele>
        <time>2017-06-06T08:09:32.000Z</time>
      </trkpt>
      <trkpt lat="44.691307" lon="4.789474">
        <ele>145.697465</ele>
        <time>2017-06-06T08:09:34.000Z</time>
      </trkpt>
      <trkpt lat="44.691220" lon="4.789501">
        <ele>145.570068</ele>
        <time>2017-06-06T08:09:36.000Z</time>
      </trkpt>
      <trkpt lat="44.691128" lon="4.789530">
        <ele>145.435249</ele>
        <time>2017-06-06T08:09:38.000Z</time>
      </trkpt>
      <trkpt lat="44.691032" lon="4.789564">
        <ele>145.293689</ele>
        <time>2017-06-06T08:09:40.000Z</time>
      </trkpt>
      <trkpt lat="44.690940" lon="4.789593">
        <ele>145.158871</ele>
        <time>2017-06-06T08:09:42.000Z</time>
      </trkpt>
      <trkpt lat="44.690845" lon="4.789623">
        <ele>145.019644</ele>
        <time>2017-06-06T08:09:44.000Z</time>
      </trkpt>
      <trkpt lat="44.690754" lon="4.789651">
        <ele>144.886441</ele>
        <time>2017-06-06T08:09:46.000Z</time>
      </trkpt>
      <trkpt lat="44.690655" lon="4.789682">
        <ele>144.741410</ele>
        <time>2017-06-06T08:09:48.000Z</time>
      </trkpt>
      <trkpt lat="44.690560" lon="4.789711">
        <ele>144.602403</ele>
        <time>2017-06-06T08:09:50.000Z</time>
      </trkpt>
      <trkpt lat="44.690468" lon="4.789733">
        <ele>144.468959</ele>
        <time>2017-06-06T08:09:52.000Z</time>
      </trkpt>
      <trkpt lat="44.690376" lon="4.789760">
        <ele>144.334571</ele>
        <time>2017-06-06T08:09:54.000Z</time>
      </trkpt>
      <trkpt lat="44.690240" lon="4.789800">
        <ele>144.135891</ele>
        <time>2017-06-06T08:09:57.000Z</time>
      </trkpt>
      <trkpt lat="44.690110" lon="4.789840">
        <ele>143.945602</ele>
        <time>2017-06-06T08:10:00.000Z</time>
      </trkpt>
      <trkpt lat="44.690020" lon="4.789860">
        <ele>143.815310</ele>
        <time>2017-06-06T08:10:02.000Z</time>
      </trkpt>
      <trkpt lat="44.689896" lon="4.789895">
        <ele>143.634461</ele>
        <time>2017-06-06T08:10:05.000Z</time>
      </trkpt>
      <trkpt lat="44.689770" lon="4.789918">
        <ele>143.452776</ele>
        <time>2017-06-06T08:10:08.000Z</time>
      </trkpt>
      <trkpt lat="44.689644" lon="4.789943">
        <ele>143.270818</ele>
        <time>2017-06-06T08:10:11.000Z</time>
      </trkpt>
      <trkpt lat="44.689518" lon="4.789970">
        <ele>143.229637</ele>
        <time>2017-06-06T08:10:14.000Z</time>
      </trkpt>
      <trkpt lat="44.689426" lon="4.789997">
        <ele>143.260664</ele>
        <time>2017-06-06T08:10:16.000Z</time>
      </trkpt>
      <trkpt lat="44.689323" lon="4.790014">
        <ele>143.294901</ele>
        <time>2017-06-06T08:10:18.000Z</time>
      </trkpt>
      <trkpt lat="44.689213" lon="4.790034">
        <ele>143.331518</ele>
        <time>2017-06-06T08:10:20.000Z</time>
      </trkpt>
      <trkpt lat="44.689095" lon="4.790053">
        <ele>143.370728</ele>
        <time>2017-06-06T08:10:22.000Z</time>
      </trkpt>
      <trkpt lat="44.688984" lon="4.790078">
        <ele>143.407839</ele>
        <time>2017-06-06T08:10:24.000Z</time>
      </trkpt>
      <trkpt lat="44.688873" lon="4.790115">
        <ele>143.445499</ele>
        <time>2017-06-06T08:10:26.000Z</time>
      </trkpt>
      <trkpt lat="44.688766" lon="4.790157">
        <ele>143.482173</ele>
        <time>2017-06-06T08:10:28.000Z</time>
      </trkpt>
      <trkpt lat="44.688667" lon="4.790201">
        <ele>143.516449</ele>
        <time>2017-06-06T08:10:30.000Z</time>
      </trkpt>
      <trkpt lat="44.688572" lon="4.790241">
        <ele>143.549187</ele>
        <time>2017-06-06T08:10:32.000Z</time>
      </trkpt>
      <trkpt lat="44.688477" lon="4.790281">
        <ele>143.581924</ele>
        <time>2017-06-06T08:10:34.000Z</time>
      </trkpt>
      <trkpt lat="44.688380" lon="4.790329">
        <ele>143.615871</ele>
        <time>2017-06-06T08:10:36.000Z</time>
      </trkpt>
      <trkpt lat="44.688290" lon="4.790371">
        <ele>143.647176</ele>
        <time>2017-06-06T08:10:38.000Z</time>
      </trkpt>
      <trkpt lat="44.688194" lon="4.790403">
        <ele>143.679747</ele>
        <time>2017-06-06T08:10:40.000Z</time>
      </trkpt>
      <trkpt lat="44.688100" lon="4.790440">
        <ele>143.711971</ele>
        <time>2017-06-06T08:10:42.000Z</time>
      </trkpt>
      <trkpt lat="44.688010" lon="4.790479">
        <ele>143.743061</ele>
        <time>2017-06-06T08:10:44.000Z</time>
      </trkpt>
      <trkpt lat="44.687916" lon="4.790501">
        <ele>143.774521</ele>
        <time>2017-06-06T08:10:46.000Z</time>
      </trkpt>
      <trkpt lat="44.687824" lon="4.790525">
        <ele>143.830658</ele>
        <time>2017-06-06T08:10:48.000Z</time>
      </trkpt>
      <trkpt lat="44.687725" lon="4.790556">
        <ele>143.964288</ele>
        <time>2017-06-06T08:10:50.000Z</time>
      </trkpt>
      <trkpt lat="44.687630" lon="4.790585">
        <ele>144.092369</ele>
        <time>2017-06-06T08:10:52.000Z</time>
      </trkpt>
      <trkpt lat="44.687542" lon="4.790619">
        <ele>144.212607</ele>
        <time>2017-06-06T08:10:54.000Z</time>
      </trkpt>
      <trkpt lat="44.687447" lon="4.790647">
        <ele>144.340492</ele>
        <time>2017-06-06T08:10:56.000Z</time>
      </trkpt>
      <trkpt lat="44.687350" lon="4.790672">
        <ele>144.470421</ele>
        <time>2017-06-06T08:10:58.000Z</time>
      </trkpt>
      <trkpt lat="44.687256" lon="4.790710">
        <ele>144.599284</ele>
        <time>2017-06-06T08:11:00.000Z</time>
      </trkpt>
      <trkpt lat="44.687160" lon="4.790734">
        <ele>144.727751</ele>
        <time>2017-06-06T08:11:02.000Z</time>
      </trkpt>
      <trkpt lat="44.687070" lon="4.790765">
        <ele>144.849833</ele>
        <time>2017-06-06T08:11:04.000Z</time>
      </trkpt>
      <trkpt lat="44.686935" lon="4.790805">
        <ele>145.031605</ele>
        <time>2017-06-06T08:11:07.000Z</time>
      </trkpt>
      <trkpt lat="44.686848" lon="4.790843">
        <ele>145.151631</ele>
        <time>2017-06-06T08:11:09.000Z</time>
      </trkpt>
      <trkpt lat="44.686726" lon="4.790880">
        <ele>145.316066</ele>
        <time>2017-06-06T08:11:12.000Z</time>
      </trkpt>
      <trkpt lat="44.686634" lon="4.790901">
        <ele>145.438866</ele>
        <time>2017-06-06T08:11:14.000Z</time>
      </trkpt>
      <trkpt lat="44.686546" lon="4.790922">
        <ele>145.556466</ele>
        <time>2017-06-06T08:11:16.000Z</time>
      </trkpt>
      <trkpt lat="44.686455" lon="4.790947">
        <ele>145.678628</ele>
        <time>2017-06-06T08:11:18.000Z</time>
      </trkpt>
      <trkpt lat="44.686330" lon="4.790987">
        <ele>145.847530</ele>
        <time>2017-06-06T08:11:21.000Z</time>
      </trkpt>
      <trkpt lat="44.686200" lon="4.791028">
        <ele>146.023064</ele>
        <time>2017-06-06T08:11:24.000Z</time>
      </trkpt>
      <trkpt lat="44.686066" lon="4.791045">
        <ele>146.157932</ele>
        <time>2017-06-06T08:11:27.000Z</time>
      </trkpt>
      <trkpt lat="44.685940" lon="4.791077">
        <ele>146.113567</ele>
        <time>2017-06-06T08:11:30.000Z</time>
      </trkpt>
      <trkpt lat="44.685814" lon="4.791113">
        <ele>146.069017</ele>
        <time>2017-06-06T08:11:33.000Z</time>
      </trkpt>
      <trkpt lat="44.685722" lon="4.791134">
        <ele>146.036722</ele>
        <time>2017-06-06T08:11:35.000Z</time>
      </trkpt>
      <trkpt lat="44.685635" lon="4.791171">
        <ele>146.005229</ele>
        <time>2017-06-06T08:11:37.000Z</time>
      </trkpt>
      <trkpt lat="44.685543" lon="4.791198">
        <ele>145.972665</ele>
        <time>2017-06-06T08:11:39.000Z</time>
      </trkpt>
      <trkpt lat="44.685410" lon="4.791232">
        <ele>145.925826</ele>
        <time>2017-06-06T08:11:42.000Z</time>
      </trkpt>
      <trkpt lat="44.685318" lon="4.791270">
        <ele>145.892602</ele>
        <time>2017-06-06T08:11:44.000Z</time>
      </trkpt>
      <trkpt lat="44.685184" lon="4.791310">
        <ele>145.845137</ele>
        <time>2017-06-06T08:11:47.000Z</time>
      </trkpt>
      <trkpt lat="44.685090" lon="4.791341">
        <ele>145.811683</ele>
        <time>2017-06-06T08:11:49.000Z</time>
      </trkpt>
      <trkpt lat="44.685005" lon="4.791376">
        <ele>145.780995</ele>
        <time>2017-06-06T08:11:51.000Z</time>
      </trkpt>
      <trkpt lat="44.684868" lon="4.791421">
        <ele>145.732247</ele>
        <time>2017-06-06T08:11:54.000Z</time>
      </trkpt>
      <trkpt lat="44.684772" lon="4.791452">
        <ele>145.698118</ele>
        <time>2017-06-06T08:11:56.000Z</time>
      </trkpt>
      <trkpt lat="44.684677" lon="4.791482">
        <ele>145.664381</ele>
        <time>2017-06-06T08:11:58.000Z</time>
      </trkpt>
      <trkpt lat="44.684580" lon="4.791525">
        <ele>145.629141</ele>
        <time>2017-06-06T08:12:00.000Z</time>
      </trkpt>
      <trkpt lat="44.684490" lon="4.791554">
        <ele>145.597149</ele>
        <time>2017-06-06T08:12:02.000Z</time>
      </trkpt>
      <trkpt lat="44.684390" lon="4.791578">
        <ele>145.561998</ele>
        <time>2017-06-06T08:12:04.000Z</time>
      </trkpt>
      <trkpt lat="44.684296" lon="4.791607">
        <ele>145.517862</ele>
        <time>2017-06-06T08:12:06.000Z</time>
      </trkpt>
      <trkpt lat="44.684196" lon="4.791632">
        <ele>145.457152</ele>
        <time>2017-06-06T08:12:08.000Z</time>
      </trkpt>
      <trkpt lat="44.684105" lon="4.791659">
        <ele>145.401562</ele>
        <time>2017-06-06T08:12:10.000Z</time>
      </trkpt>
      <trkpt lat="44.684013" lon="4.791691">
        <ele>145.344915</ele>
        <time>2017-06-06T08:12:12.000Z</time>
      </trkpt>
      <trkpt lat="44.683918" lon="4.791723">
        <ele>145.286525</ele>
        <time>2017-06-06T08:12:14.000Z</time>
      </trkpt>
      <trkpt lat="44.683826" lon="4.791756">
        <ele>145.229774</ele>
        <time>2017-06-06T08:12:16.000Z</time>
      </trkpt>
      <trkpt lat="44.683730" lon="4.791788">
        <ele>145.170803</ele>
        <time>2017-06-06T08:12:18.000Z</time>
      </trkpt>
      <trkpt lat="44.683636" lon="4.791818">
        <ele>145.113188</ele>
        <time>2017-06-06T08:12:20.000Z</time>
      </trkpt>
      <trkpt lat="44.683537" lon="4.791853">
        <ele>145.052172</ele>
        <time>2017-06-06T08:12:22.000Z</time>
      </trkpt>
      <trkpt lat="44.683445" lon="4.791880">
        <ele>144.995997</ele>
        <time>2017-06-06T08:12:24.000Z</time>
      </trkpt>
      <trkpt lat="44.683353" lon="4.791913">
        <ele>144.939246</ele>
        <time>2017-06-06T08:12:26.000Z</time>
      </trkpt>
      <trkpt lat="44.683258" lon="4.791946">
        <ele>144.880756</ele>
        <time>2017-06-06T08:12:28.000Z</time>
      </trkpt>
      <trkpt lat="44.683163" lon="4.791982">
        <ele>144.821947</ele>
        <time>2017-06-06T08:12:30.000Z</time>
      </trkpt>
      <trkpt lat="44.683064" lon="4.792014">
        <ele>144.761229</ele>
        <time>2017-06-06T08:12:32.000Z</time>
      </trkpt>
      <trkpt lat="44.682964" lon="4.792040">
        <ele>144.700444</ele>
        <time>2017-06-06T08:12:34.000Z</time>
      </trkpt>
      <trkpt lat="44.682860" lon="4.792073">
        <ele>144.636718</ele>
        <time>2017-06-06T08:12:36.000Z</time>
      </trkpt>
      <trkpt lat="44.682770" lon="4.792104">
        <ele>144.581332</ele>
        <time>2017-06-06T08:12:38.000Z</time>
      </trkpt>
      <trkpt lat="44.682680" lon="4.792137">
        <ele>144.525739</ele>
        <time>2017-06-06T08:12:40.000Z</time>
      </trkpt>
      <trkpt lat="44.682550" lon="4.792178">
        <ele>144.432930</ele>
        <time>2017-06-06T08:12:43.000Z</time>
      </trkpt>
      <trkpt lat="44.682450" lon="4.792206">
        <ele>144.336035</ele>
        <time>2017-06-06T08:12:45.000Z</time>
      </trkpt>
      <trkpt lat="44.682358" lon="4.792220">
        <ele>144.248097</ele>
        <time>2017-06-06T08:12:47.000Z</time>
      </trkpt>
      <trkpt lat="44.682236" lon="4.792152">
        <ele>144.123388</ele>
        <time>2017-06-06T08:12:50.000Z</time>
      </trkpt>
      <trkpt lat="44.682186" lon="4.792044">
        <ele>144.036308</ele>
        <time>2017-06-06T08:12:52.000Z</time>
      </trkpt>
      <trkpt lat="44.682150" lon="4.791913">
        <ele>143.941412</ele>
        <time>2017-06-06T08:12:54.000Z</time>
      </trkpt>
      <trkpt lat="44.682102" lon="4.791789">
        <ele>143.846015</ele>
        <time>2017-06-06T08:12:56.000Z</time>
      </trkpt>
      <trkpt lat="44.682056" lon="4.791680">
        <ele>143.760370</ele>
        <time>2017-06-06T08:12:58.000Z</time>
      </trkpt>
      <trkpt lat="44.681995" lon="4.791571">
        <ele>143.666643</ele>
        <time>2017-06-06T08:13:00.000Z</time>
      </trkpt>
      <trkpt lat="44.681927" lon="4.791475">
        <ele>143.575082</ele>
        <time>2017-06-06T08:13:02.000Z</time>
      </trkpt>
      <trkpt lat="44.681843" lon="4.791392">
        <ele>143.477526</ele>
        <time>2017-06-06T08:13:04.000Z</time>
      </trkpt>
      <trkpt lat="44.681750" lon="4.791312">
        <ele>143.373927</ele>
        <time>2017-06-06T08:13:06.000Z</time>
      </trkpt>
      <trkpt lat="44.681660" lon="4.791255">
        <ele>143.280128</ele>
        <time>2017-06-06T08:13:08.000Z</time>
      </trkpt>
      <trkpt lat="44.681564" lon="4.791215">
        <ele>143.184980</ele>
        <time>2017-06-06T08:13:10.000Z</time>
      </trkpt>
      <trkpt lat="44.681470" lon="4.791182">
        <ele>143.092910</ele>
        <time>2017-06-06T08:13:12.000Z</time>
      </trkpt>
      <trkpt lat="44.681374" lon="4.791171">
        <ele>143.001379</ele>
        <time>2017-06-06T08:13:14.000Z</time>
      </trkpt>
      <trkpt lat="44.681280" lon="4.791171">
        <ele>142.912050</ele>
        <time>2017-06-06T08:13:16.000Z</time>
      </trkpt>
      <trkpt lat="44.681187" lon="4.791190">
        <ele>142.822745</ele>
        <time>2017-06-06T08:13:18.000Z</time>
      </trkpt>
      <trkpt lat="44.681100" lon="4.791225">
        <ele>142.772359</ele>
        <time>2017-06-06T08:13:20.000Z</time>
      </trkpt>
      <trkpt lat="44.681004" lon="4.791279">
        <ele>142.830077</ele>
        <time>2017-06-06T08:13:22.000Z</time>
      </trkpt>
      <trkpt lat="44.680916" lon="4.791340">
        <ele>142.884845</ele>
        <time>2017-06-06T08:13:24.000Z</time>
      </trkpt>
      <trkpt lat="44.680836" lon="4.791403">
        <ele>142.936028</ele>
        <time>2017-06-06T08:13:26.000Z</time>
      </trkpt>
      <trkpt lat="44.680756" lon="4.791475">
        <ele>142.989049</ele>
        <time>2017-06-06T08:13:28.000Z</time>
      </trkpt>
      <trkpt lat="44.680687" lon="4.791559">
        <ele>143.039994</ele>
        <time>2017-06-06T08:13:30.000Z</time>
      </trkpt>
      <trkpt lat="44.680610" lon="4.791649">
        <ele>143.095885</ele>
        <time>2017-06-06T08:13:32.000Z</time>
      </trkpt>
      <trkpt lat="44.680534" lon="4.791739">
        <ele>143.151348</ele>
        <time>2017-06-06T08:13:34.000Z</time>
      </trkpt>
      <trkpt lat="44.680458" lon="4.791831">
        <ele>143.207326</ele>
        <time>2017-06-06T08:13:36.000Z</time>
      </trkpt>
      <trkpt lat="44.680380" lon="4.791921">
        <ele>143.263648</ele>
        <time>2017-06-06T08:13:38.000Z</time>
      </trkpt>
      <trkpt lat="44.680300" lon="4.792009">
        <ele>143.320345</ele>
        <time>2017-06-06T08:13:40.000Z</time>
      </trkpt>
      <trkpt lat="44.680230" lon="4.792097">
        <ele>143.372757</ele>
        <time>2017-06-06T08:13:42.000Z</time>
      </trkpt>
      <trkpt lat="44.680153" lon="4.792185">
        <ele>143.428145</ele>
        <time>2017-06-06T08:13:44.000Z</time>
      </trkpt>
      <trkpt lat="44.680077" lon="4.792271">
        <ele>143.482599</ele>
        <time>2017-06-06T08:13:46.000Z</time>
      </trkpt>
      <trkpt lat="44.680004" lon="4.792362">
        <ele>143.537055</ele>
        <time>2017-06-06T08:13:48.000Z</time>
      </trkpt>
      <trkpt lat="44.679935" lon="4.792452">
        <ele>143.589589</ele>
        <time>2017-06-06T08:13:50.000Z</time>
      </trkpt>
      <trkpt lat="44.679863" lon="4.792531">
        <ele>143.640568</ele>
        <time>2017-06-06T08:13:52.000Z</time>
      </trkpt>
      <trkpt lat="44.679790" lon="4.792615">
        <ele>143.693221</ele>
        <time>2017-06-06T08:13:54.000Z</time>
      </trkpt>
      <trkpt lat="44.679718" lon="4.792699">
        <ele>143.745444</ele>
        <time>2017-06-06T08:13:56.000Z</time>
      </trkpt>
      <trkpt lat="44.679638" lon="4.792785">
        <ele>143.772077</ele>
        <time>2017-06-06T08:13:58.000Z</time>
      </trkpt>
      <trkpt lat="44.679558" lon="4.792865">
        <ele>143.784665</ele>
        <time>2017-06-06T08:14:00.000Z</time>
      </trkpt>
      <trkpt lat="44.679480" lon="4.792945">
        <ele>143.797045</ele>
        <time>2017-06-06T08:14:02.000Z</time>
      </trkpt>
      <trkpt lat="44.679400" lon="4.793019">
        <ele>143.809324</ele>
        <time>2017-06-06T08:14:04.000Z</time>
      </trkpt>
      <trkpt lat="44.679317" lon="4.793082">
        <ele>143.821419</ele>
        <time>2017-06-06T08:14:06.000Z</time>
      </trkpt>
      <trkpt lat="44.679230" lon="4.793133">
        <ele>143.833506</ele>
        <time>2017-06-06T08:14:08.000Z</time>
      </trkpt>
      <trkpt lat="44.679142" lon="4.793177">
        <ele>143.845483</ele>
        <time>2017-06-06T08:14:10.000Z</time>
      </trkpt>
      <trkpt lat="44.679050" lon="4.793215">
        <ele>143.857779</ele>
        <time>2017-06-06T08:14:12.000Z</time>
      </trkpt>
      <trkpt lat="44.678960" lon="4.793250">
        <ele>143.869754</ele>
        <time>2017-06-06T08:14:14.000Z</time>
      </trkpt>
      <trkpt lat="44.678864" lon="4.793264">
        <ele>143.882131</ele>
        <time>2017-06-06T08:14:16.000Z</time>
      </trkpt>
      <trkpt lat="44.678757" lon="4.793266">
        <ele>143.895854</ele>
        <time>2017-06-06T08:14:18.000Z</time>
      </trkpt>
      <trkpt lat="44.678658" lon="4.793268">
        <ele>143.908550</ele>
        <time>2017-06-06T08:14:20.000Z</time>
      </trkpt>
      <trkpt lat="44.678560" lon="4.793279">
        <ele>143.921158</ele>
        <time>2017-06-06T08:14:22.000Z</time>
      </trkpt>
      <trkpt lat="44.678467" lon="4.793286">
        <ele>143.933101</ele>
        <time>2017-06-06T08:14:24.000Z</time>
      </trkpt>
      <trkpt lat="44.678370" lon="4.793294">
        <ele>143.945561</ele>
        <time>2017-06-06T08:14:26.000Z</time>
      </trkpt>
      <trkpt lat="44.678280" lon="4.793307">
        <ele>143.957163</ele>
        <time>2017-06-06T08:14:28.000Z</time>
      </trkpt>
      <trkpt lat="44.678185" lon="4.793311">
        <ele>143.969351</ele>
        <time>2017-06-06T08:14:30.000Z</time>
      </trkpt>
      <trkpt lat="44.678090" lon="4.793317">
        <ele>143.981546</ele>
        <time>2017-06-06T08:14:32.000Z</time>
      </trkpt>
      <trkpt lat="44.677994" lon="4.793320">
        <ele>143.993860</ele>
        <time>2017-06-06T08:14:34.000Z</time>
      </trkpt>
      <trkpt lat="44.677900" lon="4.793328">
        <ele>143.886698</ele>
        <time>2017-06-06T08:14:36.000Z</time>
      </trkpt>
      <trkpt lat="44.677803" lon="4.793335">
        <ele>143.775663</ele>
        <time>2017-06-06T08:14:38.000Z</time>
      </trkpt>
      <trkpt lat="44.677670" lon="4.793339">
        <ele>143.623584</ele>
        <time>2017-06-06T08:14:41.000Z</time>
      </trkpt>
      <trkpt lat="44.677578" lon="4.793338">
        <ele>143.518408</ele>
        <time>2017-06-06T08:14:43.000Z</time>
      </trkpt>
      <trkpt lat="44.677486" lon="4.793335">
        <ele>143.413206</ele>
        <time>2017-06-06T08:14:45.000Z</time>
      </trkpt>
      <trkpt lat="44.677390" lon="4.793326">
        <ele>143.303216</ele>
        <time>2017-06-06T08:14:47.000Z</time>
      </trkpt>
      <trkpt lat="44.677300" lon="4.793308">
        <ele>143.199294</ele>
        <time>2017-06-06T08:14:49.000Z</time>
      </trkpt>
      <trkpt lat="44.677208" lon="4.793285">
        <ele>143.092472</ele>
        <time>2017-06-06T08:14:51.000Z</time>
      </trkpt>
      <trkpt lat="44.677116" lon="4.793254">
        <ele>142.984322</ele>
        <time>2017-06-06T08:14:53.000Z</time>
      </trkpt>
      <trkpt lat="44.677000" lon="4.793197">
        <ele>142.843850</ele>
        <time>2017-06-06T08:14:56.000Z</time>
      </trkpt>
      <trkpt lat="44.676880" lon="4.793136">
        <ele>142.697981</ele>
        <time>2017-06-06T08:14:59.000Z</time>
      </trkpt>
      <trkpt lat="44.676796" lon="4.793079">
        <ele>142.591358</ele>
        <time>2017-06-06T08:15:01.000Z</time>
      </trkpt>
      <trkpt lat="44.676716" lon="4.793012">
        <ele>142.484914</ele>
        <time>2017-06-06T08:15:03.000Z</time>
      </trkpt>
      <trkpt lat="44.676636" lon="4.792941">
        <ele>142.376770</ele>
        <time>2017-06-06T08:15:05.000Z</time>
      </trkpt>
      <trkpt lat="44.676560" lon="4.792854">
        <ele>142.264742</ele>
        <time>2017-06-06T08:15:07.000Z</time>
      </trkpt>
      <trkpt lat="44.676495" lon="4.792769">
        <ele>142.163273</ele>
        <time>2017-06-06T08:15:09.000Z</time>
      </trkpt>
      <trkpt lat="44.676422" lon="4.792682">
        <ele>142.053883</ele>
        <time>2017-06-06T08:15:11.000Z</time>
      </trkpt>
      <trkpt lat="44.676350" lon="4.792577">
        <ele>141.941230</ele>
        <time>2017-06-06T08:15:13.000Z</time>
      </trkpt>
      <trkpt lat="44.676285" lon="4.792480">
        <ele>142.098504</ele>
        <time>2017-06-06T08:15:15.000Z</time>
      </trkpt>
      <trkpt lat="44.676224" lon="4.792366">
        <ele>142.266854</ele>
        <time>2017-06-06T08:15:17.000Z</time>
      </trkpt>
      <trkpt lat="44.676178" lon="4.792247">
        <ele>142.426679</ele>
        <time>2017-06-06T08:15:19.000Z</time>
      </trkpt>
      <trkpt lat="44.676132" lon="4.792124">
        <ele>142.590668</ele>
        <time>2017-06-06T08:15:21.000Z</time>
      </trkpt>
      <trkpt lat="44.676090" lon="4.791992">
        <ele>142.761309</ele>
        <time>2017-06-06T08:15:23.000Z</time>
      </trkpt>
      <trkpt lat="44.676056" lon="4.791868">
        <ele>142.918129</ele>
        <time>2017-06-06T08:15:25.000Z</time>
      </trkpt>
      <trkpt lat="44.676020" lon="4.791738">
        <ele>143.082750</ele>
        <time>2017-06-06T08:15:27.000Z</time>
      </trkpt>
      <trkpt lat="44.675995" lon="4.791596">
        <ele>143.255369</ele>
        <time>2017-06-06T08:15:29.000Z</time>
      </trkpt>
      <trkpt lat="44.675970" lon="4.791454">
        <ele>143.427988</ele>
        <time>2017-06-06T08:15:31.000Z</time>
      </trkpt>
      <trkpt lat="44.675957" lon="4.791321">
        <ele>143.586403</ele>
        <time>2017-06-06T08:15:33.000Z</time>
      </trkpt>
      <trkpt lat="44.675945" lon="4.791180">
        <ele>143.753971</ele>
        <time>2017-06-06T08:15:35.000Z</time>
      </trkpt>
      <trkpt lat="44.675938" lon="4.791041">
        <ele>143.918401</ele>
        <time>2017-06-06T08:15:37.000Z</time>
      </trkpt>
      <trkpt lat="44.675938" lon="4.790905">
        <ele>144.078881</ele>
        <time>2017-06-06T08:15:39.000Z</time>
      </trkpt>
      <trkpt lat="44.675934" lon="4.790767">
        <ele>144.241856</ele>
        <time>2017-06-06T08:15:41.000Z</time>
      </trkpt>
      <trkpt lat="44.675934" lon="4.790635">
        <ele>144.397616</ele>
        <time>2017-06-06T08:15:43.000Z</time>
      </trkpt>
      <trkpt lat="44.675926" lon="4.790451">
        <ele>144.615141</ele>
        <time>2017-06-06T08:15:46.000Z</time>
      </trkpt>
      <trkpt lat="44.675915" lon="4.790274">
        <ele>144.824797</ele>
        <time>2017-06-06T08:15:49.000Z</time>
      </trkpt>
      <trkpt lat="44.675907" lon="4.790109">
        <ele>144.972561</ele>
        <time>2017-06-06T08:15:52.000Z</time>
      </trkpt>
      <trkpt lat="44.675896" lon="4.789970">
        <ele>145.057414</ele>
        <time>2017-06-06T08:15:55.000Z</time>
      </trkpt>
      <trkpt lat="44.675846" lon="4.789866">
        <ele>145.133580</ele>
        <time>2017-06-06T08:15:59.000Z</time>
      </trkpt>
      <trkpt lat="44.675740" lon="4.789836">
        <ele>145.225833</ele>
        <time>2017-06-06T08:16:06.000Z</time>
      </trkpt>
      <trkpt lat="44.675648" lon="4.789842">
        <ele>145.304412</ele>
        <time>2017-06-06T08:16:11.000Z</time>
      </trkpt>
      <trkpt lat="44.675735" lon="4.789881">
        <ele>145.382321</ele>
        <time>2017-06-06T08:16:52.000Z</time>
      </trkpt>
      <trkpt lat="44.675830" lon="4.789914">
        <ele>145.465811</ele>
        <time>2017-06-06T08:16:57.000Z</time>
      </trkpt>
      <trkpt lat="44.675896" lon="4.790009">
        <ele>145.546390</ele>
        <time>2017-06-06T08:17:04.000Z</time>
      </trkpt>
      <trkpt lat="44.675920" lon="4.790178">
        <ele>145.650949</ele>
        <time>2017-06-06T08:17:43.000Z</time>
      </trkpt>
      <trkpt lat="44.675915" lon="4.790342">
        <ele>145.750540</ele>
        <time>2017-06-06T08:17:47.000Z</time>
      </trkpt>
      <trkpt lat="44.675915" lon="4.790470">
        <ele>145.828199</ele>
        <time>2017-06-06T08:17:50.000Z</time>
      </trkpt>
      <trkpt lat="44.675922" lon="4.790603">
        <ele>145.909112</ele>
        <time>2017-06-06T08:17:53.000Z</time>
      </trkpt>
      <trkpt lat="44.675922" lon="4.790755">
        <ele>146.001332</ele>
        <time>2017-06-06T08:17:56.000Z</time>
      </trkpt>
      <trkpt lat="44.675922" lon="4.790905">
        <ele>146.092338</ele>
        <time>2017-06-06T08:17:59.000Z</time>
      </trkpt>
      <trkpt lat="44.675922" lon="4.791057">
        <ele>146.184558</ele>
        <time>2017-06-06T08:18:02.000Z</time>
      </trkpt>
      <trkpt lat="44.675915" lon="4.791205">
        <ele>146.274549</ele>
        <time>2017-06-06T08:18:05.000Z</time>
      </trkpt>
      <trkpt lat="44.675922" lon="4.791333">
        <ele>146.352437</ele>
        <time>2017-06-06T08:18:08.000Z</time>
      </trkpt>
      <trkpt lat="44.675970" lon="4.791187">
        <ele>146.450025</ele>
        <time>2017-06-06T08:18:21.000Z</time>
      </trkpt>
      <trkpt lat="44.675957" lon="4.791037">
        <ele>146.337843</ele>
        <time>2017-06-06T08:18:24.000Z</time>
      </trkpt>
      <trkpt lat="44.675940" lon="4.790849">
        <ele>146.176035</ele>
        <time>2017-06-06T08:18:27.000Z</time>
      </trkpt>
      <trkpt lat="44.675934" lon="4.790672">
        <ele>146.024741</ele>
        <time>2017-06-06T08:18:30.000Z</time>
      </trkpt>
      <trkpt lat="44.675930" lon="4.790505">
        <ele>145.882076</ele>
        <time>2017-06-06T08:18:33.000Z</time>
      </trkpt>
      <trkpt lat="44.675922" lon="4.790348">
        <ele>145.747685</ele>
        <time>2017-06-06T08:18:36.000Z</time>
      </trkpt>
      <trkpt lat="44.675915" lon="4.790173">
        <ele>145.598034</ele>
        <time>2017-06-06T08:18:39.000Z</time>
      </trkpt>
      <trkpt lat="44.675910" lon="4.790029">
        <ele>145.474940</ele>
        <time>2017-06-06T08:18:42.000Z</time>
      </trkpt>
      <trkpt lat="44.675877" lon="4.789906">
        <ele>145.362696</ele>
        <time>2017-06-06T08:18:45.000Z</time>
      </trkpt>
      <trkpt lat="44.675790" lon="4.789846">
        <ele>145.246352</ele>
        <time>2017-06-06T08:18:48.000Z</time>
      </trkpt>
      <trkpt lat="44.675690" lon="4.789826">
        <ele>145.125075</ele>
        <time>2017-06-06T08:18:51.000Z</time>
      </trkpt>
      <trkpt lat="44.675575" lon="4.789826">
        <ele>144.986996</ele>
        <time>2017-06-06T08:18:54.000Z</time>
      </trkpt>
      <trkpt lat="44.675453" lon="4.789822">
        <ele>144.840473</ele>
        <time>2017-06-06T08:18:57.000Z</time>
      </trkpt>
      <trkpt lat="44.675323" lon="4.789828">
        <ele>144.684300</ele>
        <time>2017-06-06T08:19:00.000Z</time>
      </trkpt>
      <trkpt lat="44.675232" lon="4.789834">
        <ele>144.574918</ele>
        <time>2017-06-06T08:19:02.000Z</time>
      </trkpt>
      <trkpt lat="44.675100" lon="4.789848">
        <ele>144.415977</ele>
        <time>2017-06-06T08:19:05.000Z</time>
      </trkpt>
      <trkpt lat="44.675003" lon="4.789849">
        <ele>144.299508</ele>
        <time>2017-06-06T08:19:07.000Z</time>
      </trkpt>
      <trkpt lat="44.674908" lon="4.789852">
        <ele>144.280466</ele>
        <time>2017-06-06T08:19:09.000Z</time>
      </trkpt>
      <trkpt lat="44.674778" lon="4.789866">
        <ele>144.256775</ele>
        <time>2017-06-06T08:19:12.000Z</time>
      </trkpt>
      <trkpt lat="44.674644" lon="4.789871">
        <ele>144.232419</ele>
        <time>2017-06-06T08:19:15.000Z</time>
      </trkpt>
      <trkpt lat="44.674545" lon="4.789871">
        <ele>144.214430</ele>
        <time>2017-06-06T08:19:17.000Z</time>
      </trkpt>
      <trkpt lat="44.674450" lon="4.789878">
        <ele>144.197144</ele>
        <time>2017-06-06T08:19:19.000Z</time>
      </trkpt>
      <trkpt lat="44.674355" lon="4.789885">
        <ele>144.179859</ele>
        <time>2017-06-06T08:19:21.000Z</time>
      </trkpt>
      <trkpt lat="44.674263" lon="4.789887">
        <ele>144.163140</ele>
        <time>2017-06-06T08:19:23.000Z</time>
      </trkpt>
      <trkpt lat="44.674168" lon="4.789891">
        <ele>144.145870</ele>
        <time>2017-06-06T08:19:25.000Z</time>
      </trkpt>
      <trkpt lat="44.674070" lon="4.789900">
        <ele>144.128026</ele>
        <time>2017-06-06T08:19:27.000Z</time>
      </trkpt>
      <trkpt lat="44.673965" lon="4.789906">
        <ele>144.108931</ele>
        <time>2017-06-06T08:19:29.000Z</time>
      </trkpt>
      <trkpt lat="44.673870" lon="4.789912">
        <ele>144.091652</ele>
        <time>2017-06-06T08:19:31.000Z</time>
      </trkpt>
      <trkpt lat="44.673775" lon="4.789919">
        <ele>144.074366</ele>
        <time>2017-06-06T08:19:33.000Z</time>
      </trkpt>
      <trkpt lat="44.673676" lon="4.789921">
        <ele>144.056376</ele>
        <time>2017-06-06T08:19:35.000Z</time>
      </trkpt>
      <trkpt lat="44.673584" lon="4.789927">
        <ele>144.039641</ele>
        <time>2017-06-06T08:19:37.000Z</time>
      </trkpt>
      <trkpt lat="44.673492" lon="4.789935">
        <ele>144.022892</ele>
        <time>2017-06-06T08:19:39.000Z</time>
      </trkpt>
      <trkpt lat="44.673400" lon="4.789945">
        <ele>144.006126</ele>
        <time>2017-06-06T08:19:41.000Z</time>
      </trkpt>
      <trkpt lat="44.673300" lon="4.789951">
        <ele>143.987939</ele>
        <time>2017-06-06T08:19:43.000Z</time>
      </trkpt>
      <trkpt lat="44.673206" lon="4.789968">
        <ele>143.970718</ele>
        <time>2017-06-06T08:19:45.000Z</time>
      </trkpt>
      <trkpt lat="44.673115" lon="4.790002">
        <ele>144.184586</ele>
        <time>2017-06-06T08:19:47.000Z</time>
      </trkpt>
      <trkpt lat="44.673023" lon="4.790047">
        <ele>144.407556</ele>
        <time>2017-06-06T08:19:49.000Z</time>
      </trkpt>
      <trkpt lat="44.672910" lon="4.790133">
        <ele>144.701674</ele>
        <time>2017-06-06T08:19:52.000Z</time>
      </trkpt>
      <trkpt lat="44.672794" lon="4.790240">
        <ele>145.019235</ele>
        <time>2017-06-06T08:19:55.000Z</time>
      </trkpt>
      <trkpt lat="44.672684" lon="4.790343">
        <ele>145.321747</ele>
        <time>2017-06-06T08:19:58.000Z</time>
      </trkpt>
      <trkpt lat="44.672604" lon="4.790409">
        <ele>145.534062</ele>
        <time>2017-06-06T08:20:00.000Z</time>
      </trkpt>
      <trkpt lat="44.672490" lon="4.790504">
        <ele>145.837396</ele>
        <time>2017-06-06T08:20:03.000Z</time>
      </trkpt>
      <trkpt lat="44.672398" lon="4.790572">
        <ele>146.075310</ele>
        <time>2017-06-06T08:20:05.000Z</time>
      </trkpt>
      <trkpt lat="44.672310" lon="4.790646">
        <ele>146.310018</ele>
        <time>2017-06-06T08:20:07.000Z</time>
      </trkpt>
      <trkpt lat="44.672215" lon="4.790715">
        <ele>146.554774</ele>
        <time>2017-06-06T08:20:09.000Z</time>
      </trkpt>
      <trkpt lat="44.672123" lon="4.790783">
        <ele>146.792687</ele>
        <time>2017-06-06T08:20:11.000Z</time>
      </trkpt>
      <trkpt lat="44.672035" lon="4.790855">
        <ele>147.025741</ele>
        <time>2017-06-06T08:20:13.000Z</time>
      </trkpt>
      <trkpt lat="44.671947" lon="4.790925">
        <ele>147.257175</ele>
        <time>2017-06-06T08:20:15.000Z</time>
      </trkpt>
      <trkpt lat="44.671864" lon="4.790994">
        <ele>147.477886</ele>
        <time>2017-06-06T08:20:17.000Z</time>
      </trkpt>
      <trkpt lat="44.671783" lon="4.791061">
        <ele>147.693000</ele>
        <time>2017-06-06T08:20:19.000Z</time>
      </trkpt>
      <trkpt lat="44.671703" lon="4.791129">
        <ele>147.906982</ele>
        <time>2017-06-06T08:20:21.000Z</time>
      </trkpt>
      <trkpt lat="44.671627" lon="4.791194">
        <ele>148.076771</ele>
        <time>2017-06-06T08:20:23.000Z</time>
      </trkpt>
      <trkpt lat="44.671535" lon="4.791257">
        <ele>147.963367</ele>
        <time>2017-06-06T08:20:25.000Z</time>
      </trkpt>
      <trkpt lat="44.671450" lon="4.791326">
        <ele>147.854598</ele>
        <time>2017-06-06T08:20:27.000Z</time>
      </trkpt>
      <trkpt lat="44.671360" lon="4.791390">
        <ele>147.742829</ele>
        <time>2017-06-06T08:20:29.000Z</time>
      </trkpt>
      <trkpt lat="44.671276" lon="4.791463">
        <ele>147.633394</ele>
        <time>2017-06-06T08:20:31.000Z</time>
      </trkpt>
      <trkpt lat="44.671196" lon="4.791536">
        <ele>147.527704</ele>
        <time>2017-06-06T08:20:33.000Z</time>
      </trkpt>
      <trkpt lat="44.671116" lon="4.791608">
        <ele>147.422442</ele>
        <time>2017-06-06T08:20:35.000Z</time>
      </trkpt>
      <trkpt lat="44.671024" lon="4.791678">
        <ele>147.306516</ele>
        <time>2017-06-06T08:20:37.000Z</time>
      </trkpt>
      <trkpt lat="44.670940" lon="4.791747">
        <ele>147.198705</ele>
        <time>2017-06-06T08:20:39.000Z</time>
      </trkpt>
      <trkpt lat="44.670856" lon="4.791819">
        <ele>147.089682</ele>
        <time>2017-06-06T08:20:41.000Z</time>
      </trkpt>
      <trkpt lat="44.670770" lon="4.791893">
        <ele>146.977947</ele>
        <time>2017-06-06T08:20:43.000Z</time>
      </trkpt>
      <trkpt lat="44.670690" lon="4.791966">
        <ele>146.872257</ele>
        <time>2017-06-06T08:20:45.000Z</time>
      </trkpt>
      <trkpt lat="44.670597" lon="4.792038">
        <ele>146.754603</ele>
        <time>2017-06-06T08:20:47.000Z</time>
      </trkpt>
      <trkpt lat="44.670513" lon="4.792106">
        <ele>146.647187</ele>
        <time>2017-06-06T08:20:49.000Z</time>
      </trkpt>
      <trkpt lat="44.670430" lon="4.792177">
        <ele>146.539521</ele>
        <time>2017-06-06T08:20:51.000Z</time>
      </trkpt>
      <trkpt lat="44.670345" lon="4.792254">
        <ele>146.427466</ele>
        <time>2017-06-06T08:20:53.000Z</time>
      </trkpt>
      <trkpt lat="44.670265" lon="4.792325">
        <ele>146.322625</ele>
        <time>2017-06-06T08:20:55.000Z</time>
      </trkpt>
      <trkpt lat="44.670180" lon="4.792391">
        <ele>146.215018</ele>
        <time>2017-06-06T08:20:57.000Z</time>
      </trkpt>
      <trkpt lat="44.670097" lon="4.792463">
        <ele>146.106940</ele>
        <time>2017-06-06T08:20:59.000Z</time>
      </trkpt>
      <trkpt lat="44.670010" lon="4.792533">
        <ele>145.917206</ele>
        <time>2017-06-06T08:21:01.000Z</time>
      </trkpt>
      <trkpt lat="44.669920" lon="4.792596">
        <ele>145.716957</ele>
        <time>2017-06-06T08:21:03.000Z</time>
      </trkpt>
      <trkpt lat="44.669834" lon="4.792657">
        <ele>145.525100</ele>
        <time>2017-06-06T08:21:05.000Z</time>
      </trkpt>
      <trkpt lat="44.669740" lon="4.792711">
        <ele>145.322845</ele>
        <time>2017-06-06T08:21:07.000Z</time>
      </trkpt>
      <trkpt lat="44.669647" lon="4.792748">
        <ele>145.130334</ele>
        <time>2017-06-06T08:21:09.000Z</time>
      </trkpt>
      <trkpt lat="44.669556" lon="4.792776">
        <ele>144.944788</ele>
        <time>2017-06-06T08:21:11.000Z</time>
      </trkpt>
      <trkpt lat="44.669460" lon="4.792799">
        <ele>144.750817</ele>
        <time>2017-06-06T08:21:13.000Z</time>
      </trkpt>
      <trkpt lat="44.669365" lon="4.792808">
        <ele>144.561165</ele>
        <time>2017-06-06T08:21:15.000Z</time>
      </trkpt>
      <trkpt lat="44.669266" lon="4.792813">
        <ele>144.363847</ele>
        <time>2017-06-06T08:21:17.000Z</time>
      </trkpt>
      <trkpt lat="44.669167" lon="4.792808">
        <ele>144.166529</ele>
        <time>2017-06-06T08:21:19.000Z</time>
      </trkpt>
      <trkpt lat="44.669064" lon="4.792794">
        <ele>143.960414</ele>
        <time>2017-06-06T08:21:21.000Z</time>
      </trkpt>
      <trkpt lat="44.668964" lon="4.792773">
        <ele>143.759022</ele>
        <time>2017-06-06T08:21:23.000Z</time>
      </trkpt>
      <trkpt lat="44.668860" lon="4.792750">
        <ele>143.549326</ele>
        <time>2017-06-06T08:21:25.000Z</time>
      </trkpt>
      <trkpt lat="44.668762" lon="4.792723">
        <ele>143.350415</ele>
        <time>2017-06-06T08:21:27.000Z</time>
      </trkpt>
      <trkpt lat="44.668660" lon="4.792698">
        <ele>143.144186</ele>
        <time>2017-06-06T08:21:29.000Z</time>
      </trkpt>
      <trkpt lat="44.668570" lon="4.792674">
        <ele>142.961726</ele>
        <time>2017-06-06T08:21:31.000Z</time>
      </trkpt>
      <trkpt lat="44.668472" lon="4.792646">
        <ele>142.762538</ele>
        <time>2017-06-06T08:21:33.000Z</time>
      </trkpt>
      <trkpt lat="44.668380" lon="4.792624">
        <ele>142.576659</ele>
        <time>2017-06-06T08:21:35.000Z</time>
      </trkpt>
      <trkpt lat="44.668290" lon="4.792601">
        <ele>142.490173</ele>
        <time>2017-06-06T08:21:37.000Z</time>
      </trkpt>
      <trkpt lat="44.668194" lon="4.792570">
        <ele>142.453858</ele>
        <time>2017-06-06T08:21:39.000Z</time>
      </trkpt>
      <trkpt lat="44.668106" lon="4.792532">
        <ele>142.419918</ele>
        <time>2017-06-06T08:21:41.000Z</time>
      </trkpt>
      <trkpt lat="44.668007" lon="4.792508">
        <ele>142.382879</ele>
        <time>2017-06-06T08:21:43.000Z</time>
      </trkpt>
      <trkpt lat="44.667904" lon="4.792472">
        <ele>142.343748</ele>
        <time>2017-06-06T08:21:45.000Z</time>
      </trkpt>
      <trkpt lat="44.667810" lon="4.792436">
        <ele>142.307829</ele>
        <time>2017-06-06T08:21:47.000Z</time>
      </trkpt>
      <trkpt lat="44.667710" lon="4.792405">
        <ele>142.270075</ele>
        <time>2017-06-06T08:21:49.000Z</time>
      </trkpt>
      <trkpt lat="44.667614" lon="4.792371">
        <ele>142.233575</ele>
        <time>2017-06-06T08:21:51.000Z</time>
      </trkpt>
      <trkpt lat="44.667510" lon="4.792325">
        <ele>142.193379</ele>
        <time>2017-06-06T08:21:53.000Z</time>
      </trkpt>
      <trkpt lat="44.667423" lon="4.792284">
        <ele>142.159550</ele>
        <time>2017-06-06T08:21:55.000Z</time>
      </trkpt>
      <trkpt lat="44.667324" lon="4.792234">
        <ele>142.120766</ele>
        <time>2017-06-06T08:21:57.000Z</time>
      </trkpt>
      <trkpt lat="44.667230" lon="4.792194">
        <ele>142.084557</ele>
        <time>2017-06-06T08:21:59.000Z</time>
      </trkpt>
      <trkpt lat="44.667133" lon="4.792152">
        <ele>142.047137</ele>
        <time>2017-06-06T08:22:01.000Z</time>
      </trkpt>
      <trkpt lat="44.667034" lon="4.792103">
        <ele>142.008442</ele>
        <time>2017-06-06T08:22:03.000Z</time>
      </trkpt>
      <trkpt lat="44.666940" lon="4.792054">
        <ele>141.971480</ele>
        <time>2017-06-06T08:22:05.000Z</time>
      </trkpt>
      <trkpt lat="44.666847" lon="4.791996">
        <ele>141.933970</ele>
        <time>2017-06-06T08:22:07.000Z</time>
      </trkpt>
      <trkpt lat="44.666750" lon="4.791944">
        <ele>141.895697</ele>
        <time>2017-06-06T08:22:09.000Z</time>
      </trkpt>
      <trkpt lat="44.666660" lon="4.791896">
        <ele>141.860208</ele>
        <time>2017-06-06T08:22:11.000Z</time>
      </trkpt>
      <trkpt lat="44.666570" lon="4.791846">
        <ele>141.850262</ele>
        <time>2017-06-06T08:22:13.000Z</time>
      </trkpt>
      <trkpt lat="44.666477" lon="4.791795">
        <ele>141.852519</ele>
        <time>2017-06-06T08:22:15.000Z</time>
      </trkpt>
      <trkpt lat="44.666386" lon="4.791738">
        <ele>141.854772</ele>
        <time>2017-06-06T08:22:17.000Z</time>
      </trkpt>
      <trkpt lat="44.666290" lon="4.791679">
        <ele>141.857141</ele>
        <time>2017-06-06T08:22:19.000Z</time>
      </trkpt>
      <trkpt lat="44.666203" lon="4.791612">
        <ele>141.859383</ele>
        <time>2017-06-06T08:22:21.000Z</time>
      </trkpt>
      <trkpt lat="44.666107" lon="4.791555">
        <ele>141.861740</ele>
        <time>2017-06-06T08:22:23.000Z</time>
      </trkpt>
      <trkpt lat="44.666020" lon="4.791491">
        <ele>141.863960</ele>
        <time>2017-06-06T08:22:25.000Z</time>
      </trkpt>
      <trkpt lat="44.665930" lon="4.791427">
        <ele>141.866240</ele>
        <time>2017-06-06T08:22:27.000Z</time>
      </trkpt>
      <trkpt lat="44.665840" lon="4.791370">
        <ele>141.868472</ele>
        <time>2017-06-06T08:22:29.000Z</time>
      </trkpt>
      <trkpt lat="44.665756" lon="4.791304">
        <ele>141.870647</ele>
        <time>2017-06-06T08:22:31.000Z</time>
      </trkpt>
      <trkpt lat="44.665670" lon="4.791242">
        <ele>141.872833</ele>
        <time>2017-06-06T08:22:33.000Z</time>
      </trkpt>
      <trkpt lat="44.665585" lon="4.791172">
        <ele>141.875060</ele>
        <time>2017-06-06T08:22:35.000Z</time>
      </trkpt>
      <trkpt lat="44.665493" lon="4.791104">
        <ele>141.877410</ele>
        <time>2017-06-06T08:22:37.000Z</time>
      </trkpt>
      <trkpt lat="44.665400" lon="4.791035">
        <ele>141.879787</ele>
        <time>2017-06-06T08:22:39.000Z</time>
      </trkpt>
      <trkpt lat="44.665314" lon="4.790958">
        <ele>141.882093</ele>
        <time>2017-06-06T08:22:41.000Z</time>
      </trkpt>
      <trkpt lat="44.665230" lon="4.790872">
        <ele>141.884442</ele>
        <time>2017-06-06T08:22:43.000Z</time>
      </trkpt>
      <trkpt lat="44.665146" lon="4.790780">
        <ele>141.886849</ele>
        <time>2017-06-06T08:22:45.000Z</time>
      </trkpt>
      <trkpt lat="44.665062" lon="4.790684">
        <ele>141.889297</ele>
        <time>2017-06-06T08:22:47.000Z</time>
      </trkpt>
      <trkpt lat="44.664980" lon="4.790587">
        <ele>142.153935</ele>
        <time>2017-06-06T08:22:49.000Z</time>
      </trkpt>
      <trkpt lat="44.664900" lon="4.790486">
        <ele>142.436297</ele>
        <time>2017-06-06T08:22:51.000Z</time>
      </trkpt>
      <trkpt lat="44.664833" lon="4.790391">
        <ele>142.686188</ele>
        <time>2017-06-06T08:22:53.000Z</time>
      </trkpt>
      <trkpt lat="44.664760" lon="4.790311">
        <ele>142.929254</ele>
        <time>2017-06-06T08:22:55.000Z</time>
      </trkpt>
      <trkpt lat="44.664660" lon="4.790195">
        <ele>143.269714</ele>
        <time>2017-06-06T08:22:58.000Z</time>
      </trkpt>
      <trkpt lat="44.664570" lon="4.790082">
        <ele>143.586593</ele>
        <time>2017-06-06T08:23:01.000Z</time>
      </trkpt>
      <trkpt lat="44.664480" lon="4.789989">
        <ele>143.879916</ele>
        <time>2017-06-06T08:23:04.000Z</time>
      </trkpt>
      <trkpt lat="44.664380" lon="4.789915">
        <ele>144.176687</ele>
        <time>2017-06-06T08:23:07.000Z</time>
      </trkpt>
      <trkpt lat="44.664280" lon="4.789863">
        <ele>144.456690</ele>
        <time>2017-06-06T08:23:10.000Z</time>
      </trkpt>
      <trkpt lat="44.664190" lon="4.789845">
        <ele>144.695425</ele>
        <time>2017-06-06T08:23:13.000Z</time>
      </trkpt>
      <trkpt lat="44.664078" lon="4.789886">
        <ele>144.999363</ele>
        <time>2017-06-06T08:23:17.000Z</time>
      </trkpt>
      <trkpt lat="44.663990" lon="4.789935">
        <ele>145.247930</ele>
        <time>2017-06-06T08:23:20.000Z</time>
      </trkpt>
      <trkpt lat="44.663910" lon="4.789988">
        <ele>145.480180</ele>
        <time>2017-06-06T08:23:23.000Z</time>
      </trkpt>
      <trkpt lat="44.663826" lon="4.790036">
        <ele>145.718302</ele>
        <time>2017-06-06T08:23:26.000Z</time>
      </trkpt>
      <trkpt lat="44.663740" lon="4.790093">
        <ele>145.967990</ele>
        <time>2017-06-06T08:23:29.000Z</time>
      </trkpt>
      <trkpt lat="44.663635" lon="4.790149">
        <ele>146.262911</ele>
        <time>2017-06-06T08:23:32.000Z</time>
      </trkpt>
      <trkpt lat="44.663555" lon="4.790238">
        <ele>146.530820</ele>
        <time>2017-06-06T08:23:34.000Z</time>
      </trkpt>
      <trkpt lat="44.663480" lon="4.790380">
        <ele>146.662023</ele>
        <time>2017-06-06T08:23:36.000Z</time>
      </trkpt>
      <trkpt lat="44.663410" lon="4.790504">
        <ele>146.720430</ele>
        <time>2017-06-06T08:23:38.000Z</time>
      </trkpt>
      <trkpt lat="44.663334" lon="4.790576">
        <ele>146.767968</ele>
        <time>2017-06-06T08:23:40.000Z</time>
      </trkpt>
      <trkpt lat="44.663320" lon="4.790706">
        <ele>146.816477</ele>
        <time>2017-06-06T08:25:01.000Z</time>
      </trkpt>
      <trkpt lat="44.663300" lon="4.790874">
        <ele>146.879322</ele>
        <time>2017-06-06T08:25:05.000Z</time>
      </trkpt>
      <trkpt lat="44.663280" lon="4.791052">
        <ele>146.945809</ele>
        <time>2017-06-06T08:25:08.000Z</time>
      </trkpt>
      <trkpt lat="44.663210" lon="4.791158">
        <ele>146.999175</ele>
        <time>2017-06-06T08:25:11.000Z</time>
      </trkpt>
      <trkpt lat="44.663100" lon="4.791171">
        <ele>147.056436</ele>
        <time>2017-06-06T08:25:14.000Z</time>
      </trkpt>
      <trkpt lat="44.662987" lon="4.791118">
        <ele>147.118228</ele>
        <time>2017-06-06T08:25:17.000Z</time>
      </trkpt>
      <trkpt lat="44.662884" lon="4.791064">
        <ele>147.175250</ele>
        <time>2017-06-06T08:25:20.000Z</time>
      </trkpt>
      <trkpt lat="44.662777" lon="4.791019">
        <ele>147.233184</ele>
        <time>2017-06-06T08:25:23.000Z</time>
      </trkpt>
      <trkpt lat="44.662660" lon="4.790968">
        <ele>147.296725</ele>
        <time>2017-06-06T08:25:26.000Z</time>
      </trkpt>
      <trkpt lat="44.662550" lon="4.790919">
        <ele>147.356580</ele>
        <time>2017-06-06T08:25:29.000Z</time>
      </trkpt>
      <trkpt lat="44.662453" lon="4.790909">
        <ele>147.407032</ele>
        <time>2017-06-06T08:25:32.000Z</time>
      </trkpt>
      <trkpt lat="44.662357" lon="4.790947">
        <ele>147.458766</ele>
        <time>2017-06-06T08:25:36.000Z</time>
      </trkpt>
      <trkpt lat="44.662285" lon="4.791030">
        <ele>147.507063</ele>
        <time>2017-06-06T08:25:42.000Z</time>
      </trkpt>
      <trkpt lat="44.662197" lon="4.790966">
        <ele>147.613569</ele>
        <time>2017-06-06T08:25:49.000Z</time>
      </trkpt>
      <trkpt lat="44.662098" lon="4.790929">
        <ele>147.901871</ele>
        <time>2017-06-06T08:25:53.000Z</time>
      </trkpt>
      <trkpt lat="44.662006" lon="4.790865">
        <ele>148.190758</ele>
        <time>2017-06-06T08:25:57.000Z</time>
      </trkpt>
      <trkpt lat="44.661920" lon="4.790835">
        <ele>148.440135</ele>
        <time>2017-06-06T08:26:01.000Z</time>
      </trkpt>
      <trkpt lat="44.661840" lon="4.790923">
        <ele>148.726011</ele>
        <time>2017-06-06T08:26:06.000Z</time>
      </trkpt>
      <trkpt lat="44.661823" lon="4.791080">
        <ele>149.043913</ele>
        <time>2017-06-06T08:26:10.000Z</time>
      </trkpt>
      <trkpt lat="44.661800" lon="4.791231">
        <ele>149.353038</ele>
        <time>2017-06-06T08:26:14.000Z</time>
      </trkpt>
      <trkpt lat="44.661780" lon="4.791379">
        <ele>149.654603</ele>
        <time>2017-06-06T08:26:18.000Z</time>
      </trkpt>
      <trkpt lat="44.661762" lon="4.791531">
        <ele>149.963064</ele>
        <time>2017-06-06T08:26:22.000Z</time>
      </trkpt>
      <trkpt lat="44.661750" lon="4.791665">
        <ele>150.233423</ele>
        <time>2017-06-06T08:26:26.000Z</time>
      </trkpt>
      <trkpt lat="44.661730" lon="4.791818">
        <ele>150.544827</ele>
        <time>2017-06-06T08:26:30.000Z</time>
      </trkpt>
      <trkpt lat="44.661710" lon="4.791966">
        <ele>150.846393</ele>
        <time>2017-06-06T08:26:34.000Z</time>
      </trkpt>
      <trkpt lat="44.661686" lon="4.792112">
        <ele>151.146359</ele>
        <time>2017-06-06T08:26:38.000Z</time>
      </trkpt>
      <trkpt lat="44.661667" lon="4.792254">
        <ele>151.435601</ele>
        <time>2017-06-06T08:26:42.000Z</time>
      </trkpt>
      <trkpt lat="44.661650" lon="4.792412">
        <ele>151.755483</ele>
        <time>2017-06-06T08:26:46.000Z</time>
      </trkpt>
      <trkpt lat="44.661625" lon="4.792549">
        <ele>152.038612</ele>
        <time>2017-06-06T08:26:50.000Z</time>
      </trkpt>
      <trkpt lat="44.661610" lon="4.792695">
        <ele>152.333908</ele>
        <time>2017-06-06T08:26:54.000Z</time>
      </trkpt>
      <trkpt lat="44.661590" lon="4.792835">
        <ele>152.608537</ele>
        <time>2017-06-06T08:26:59.000Z</time>
      </trkpt>
      <trkpt lat="44.661503" lon="4.792871">
        <ele>152.617933</ele>
        <time>2017-06-06T08:27:09.000Z</time>
      </trkpt>
      <trkpt lat="44.661470" lon="4.792737">
        <ele>152.628383</ele>
        <time>2017-06-06T08:27:13.000Z</time>
      </trkpt>
      <trkpt lat="44.661434" lon="4.792580">
        <ele>152.640539</ele>
        <time>2017-06-06T08:27:16.000Z</time>
      </trkpt>
      <trkpt lat="44.661350" lon="4.792440">
        <ele>152.654036</ele>
        <time>2017-06-06T08:27:19.000Z</time>
      </trkpt>
      <trkpt lat="44.661247" lon="4.792409">
        <ele>152.664949</ele>
        <time>2017-06-06T08:27:22.000Z</time>
      </trkpt>
      <trkpt lat="44.661170" lon="4.792489">
        <ele>152.674869</ele>
        <time>2017-06-06T08:27:24.000Z</time>
      </trkpt>
      <trkpt lat="44.661090" lon="4.792596">
        <ele>152.686309</ele>
        <time>2017-06-06T08:27:26.000Z</time>
      </trkpt>
      <trkpt lat="44.661020" lon="4.792688">
        <ele>152.696237</ele>
        <time>2017-06-06T08:27:28.000Z</time>
      </trkpt>
      <trkpt lat="44.660934" lon="4.792780">
        <ele>152.707433</ele>
        <time>2017-06-06T08:27:31.000Z</time>
      </trkpt>
      <trkpt lat="44.660820" lon="4.792812">
        <ele>152.719477</ele>
        <time>2017-06-06T08:27:34.000Z</time>
      </trkpt>
      <trkpt lat="44.660713" lon="4.792789">
        <ele>152.730692</ele>
        <time>2017-06-06T08:27:37.000Z</time>
      </trkpt>
      <trkpt lat="44.660620" lon="4.792755">
        <ele>152.740648</ele>
        <time>2017-06-06T08:27:40.000Z</time>
      </trkpt>
      <trkpt lat="44.660530" lon="4.792731">
        <ele>152.750139</ele>
        <time>2017-06-06T08:27:43.000Z</time>
      </trkpt>
      <trkpt lat="44.660440" lon="4.792706">
        <ele>152.759643</ele>
        <time>2017-06-06T08:27:46.000Z</time>
      </trkpt>
      <trkpt lat="44.660343" lon="4.792695">
        <ele>152.769726</ele>
        <time>2017-06-06T08:27:50.000Z</time>
      </trkpt>
      <trkpt lat="44.660250" lon="4.792752">
        <ele>152.780237</ele>
        <time>2017-06-06T08:27:56.000Z</time>
      </trkpt>
      <trkpt lat="44.660168" lon="4.792834">
        <ele>152.790663</ele>
        <time>2017-06-06T08:28:00.000Z</time>
      </trkpt>
      <trkpt lat="44.660095" lon="4.792919">
        <ele>152.802038</ele>
        <time>2017-06-06T08:28:04.000Z</time>
      </trkpt>
      <trkpt lat="44.660020" lon="4.793017">
        <ele>152.815383</ele>
        <time>2017-06-06T08:28:08.000Z</time>
      </trkpt>
      <trkpt lat="44.659943" lon="4.793100">
        <ele>152.828030</ele>
        <time>2017-06-06T08:28:11.000Z</time>
      </trkpt>
      <trkpt lat="44.659843" lon="4.793169">
        <ele>152.842549</ele>
        <time>2017-06-06T08:28:15.000Z</time>
      </trkpt>
      <trkpt lat="44.659750" lon="4.793171">
        <ele>152.854672</ele>
        <time>2017-06-06T08:28:19.000Z</time>
      </trkpt>
      <trkpt lat="44.659645" lon="4.793145">
        <ele>152.868569</ele>
        <time>2017-06-06T08:28:23.000Z</time>
      </trkpt>
      <trkpt lat="44.659546" lon="4.793118">
        <ele>152.881713</ele>
        <time>2017-06-06T08:28:26.000Z</time>
      </trkpt>
      <trkpt lat="44.659450" lon="4.793092">
        <ele>152.894456</ele>
        <time>2017-06-06T08:28:29.000Z</time>
      </trkpt>
      <trkpt lat="44.659355" lon="4.793068">
        <ele>152.907037</ele>
        <time>2017-06-06T08:28:32.000Z</time>
      </trkpt>
      <trkpt lat="44.659240" lon="4.793034">
        <ele>152.922354</ele>
        <time>2017-06-06T08:28:36.000Z</time>
      </trkpt>
      <trkpt lat="44.659172" lon="4.793118">
        <ele>152.934152</ele>
        <time>2017-06-06T08:28:40.000Z</time>
      </trkpt>
      <trkpt lat="44.659286" lon="4.793095">
        <ele>152.949163</ele>
        <time>2017-06-06T08:28:46.000Z</time>
      </trkpt>
      <trkpt lat="44.659374" lon="4.793074">
        <ele>152.960797</ele>
        <time>2017-06-06T08:28:49.000Z</time>
      </trkpt>
      <trkpt lat="44.659490" lon="4.793088">
        <ele>152.975972</ele>
        <time>2017-06-06T08:28:53.000Z</time>
      </trkpt>
      <trkpt lat="44.659615" lon="4.793144">
        <ele>152.993072</ele>
        <time>2017-06-06T08:30:20.000Z</time>
      </trkpt>
      <trkpt lat="44.659718" lon="4.793172">
        <ele>153.006746</ele>
        <time>2017-06-06T08:30:25.000Z</time>
      </trkpt>
      <trkpt lat="44.659817" lon="4.793189">
        <ele>153.019746</ele>
        <time>2017-06-06T08:30:30.000Z</time>
      </trkpt>
      <trkpt lat="44.659897" lon="4.793126">
        <ele>153.007188</ele>
        <time>2017-06-06T08:30:34.000Z</time>
      </trkpt>
      <trkpt lat="44.659970" lon="4.793045">
        <ele>152.913294</ele>
        <time>2017-06-06T08:30:37.000Z</time>
      </trkpt>
      <trkpt lat="44.660060" lon="4.792955">
        <ele>152.801785</ele>
        <time>2017-06-06T08:30:41.000Z</time>
      </trkpt>
      <trkpt lat="44.660152" lon="4.792872">
        <ele>152.691418</ele>
        <time>2017-06-06T08:30:45.000Z</time>
      </trkpt>
      <trkpt lat="44.660236" lon="4.792793">
        <ele>152.589382</ele>
        <time>2017-06-06T08:30:49.000Z</time>
      </trkpt>
      <trkpt lat="44.660313" lon="4.792707">
        <ele>152.490094</ele>
        <time>2017-06-06T08:30:54.000Z</time>
      </trkpt>
      <trkpt lat="44.660305" lon="4.792566">
        <ele>152.388515</ele>
        <time>2017-06-06T08:31:01.000Z</time>
      </trkpt>
      <trkpt lat="44.660286" lon="4.792424">
        <ele>152.284750</ele>
        <time>2017-06-06T08:31:08.000Z</time>
      </trkpt>
      <trkpt lat="44.660275" lon="4.792296">
        <ele>152.192159</ele>
        <time>2017-06-06T08:31:14.000Z</time>
      </trkpt>
      <trkpt lat="44.660290" lon="4.792436">
        <ele>152.090485</ele>
        <time>2017-06-06T08:31:37.000Z</time>
      </trkpt>
      <trkpt lat="44.660290" lon="4.792574">
        <ele>151.991381</ele>
        <time>2017-06-06T08:31:41.000Z</time>
      </trkpt>
      <trkpt lat="44.660294" lon="4.792715">
        <ele>151.890043</ele>
        <time>2017-06-06T08:31:46.000Z</time>
      </trkpt>
      <trkpt lat="44.660290" lon="4.792503">
        <ele>151.737743</ele>
        <time>2017-06-06T08:34:28.000Z</time>
      </trkpt>
      <trkpt lat="44.660300" lon="4.792338">
        <ele>151.618820</ele>
        <time>2017-06-06T08:34:32.000Z</time>
      </trkpt>
      <trkpt lat="44.660305" lon="4.792205">
        <ele>151.523174</ele>
        <time>2017-06-06T08:34:35.000Z</time>
      </trkpt>
      <trkpt lat="44.660313" lon="4.792068">
        <ele>151.424458</ele>
        <time>2017-06-06T08:34:38.000Z</time>
      </trkpt>
      <trkpt lat="44.660310" lon="4.791933">
        <ele>151.327461</ele>
        <time>2017-06-06T08:34:41.000Z</time>
      </trkpt>
      <trkpt lat="44.660305" lon="4.791794">
        <ele>151.227512</ele>
        <time>2017-06-06T08:34:44.000Z</time>
      </trkpt>
      <trkpt lat="44.660294" lon="4.791658">
        <ele>151.174951</ele>
        <time>2017-06-06T08:34:47.000Z</time>
      </trkpt>
      <trkpt lat="44.660267" lon="4.791534">
        <ele>151.132708</ele>
        <time>2017-06-06T08:34:50.000Z</time>
      </trkpt>
      <trkpt lat="44.660225" lon="4.791381">
        <ele>151.079286</ele>
        <time>2017-06-06T08:34:54.000Z</time>
      </trkpt>
      <trkpt lat="44.660180" lon="4.791250">
        <ele>151.031898</ele>
        <time>2017-06-06T08:34:57.000Z</time>
      </trkpt>
      <trkpt lat="44.660152" lon="4.791110">
        <ele>150.984525</ele>
        <time>2017-06-06T08:35:00.000Z</time>
      </trkpt>
      <trkpt lat="44.660160" lon="4.790962">
        <ele>150.936176</ele>
        <time>2017-06-06T08:35:03.000Z</time>
      </trkpt>
      <trkpt lat="44.660202" lon="4.790835">
        <ele>150.890554</ele>
        <time>2017-06-06T08:35:06.000Z</time>
      </trkpt>
      <trkpt lat="44.660225" lon="4.790698">
        <ele>150.844700</ele>
        <time>2017-06-06T08:35:09.000Z</time>
      </trkpt>
      <trkpt lat="44.660260" lon="4.790557">
        <ele>150.796054</ele>
        <time>2017-06-06T08:35:12.000Z</time>
      </trkpt>
      <trkpt lat="44.660294" lon="4.790409">
        <ele>150.745392</ele>
        <time>2017-06-06T08:35:15.000Z</time>
      </trkpt>
      <trkpt lat="44.660316" lon="4.790274">
        <ele>150.700277</ele>
        <time>2017-06-06T08:35:18.000Z</time>
      </trkpt>
      <trkpt lat="44.660280" lon="4.790130">
        <ele>150.650557</ele>
        <time>2017-06-06T08:35:21.000Z</time>
      </trkpt>
      <trkpt lat="44.660168" lon="4.790043">
        <ele>150.591956</ele>
        <time>2017-06-06T08:35:24.000Z</time>
      </trkpt>
      <trkpt lat="44.660065" lon="4.790031">
        <ele>150.544624</ele>
        <time>2017-06-06T08:35:27.000Z</time>
      </trkpt>
      <trkpt lat="44.659958" lon="4.790050">
        <ele>150.495233</ele>
        <time>2017-06-06T08:35:30.000Z</time>
      </trkpt>
      <trkpt lat="44.659847" lon="4.790052">
        <ele>150.444395</ele>
        <time>2017-06-06T08:35:33.000Z</time>
      </trkpt>
      <trkpt lat="44.659737" lon="4.790057">
        <ele>150.393992</ele>
        <time>2017-06-06T08:35:36.000Z</time>
      </trkpt>
      <trkpt lat="44.659634" lon="4.790065">
        <ele>150.848676</ele>
        <time>2017-06-06T08:35:39.000Z</time>
      </trkpt>
      <trkpt lat="44.659527" lon="4.790083">
        <ele>151.382821</ele>
        <time>2017-06-06T08:35:42.000Z</time>
      </trkpt>
      <trkpt lat="44.659424" lon="4.790111">
        <ele>151.902813</ele>
        <time>2017-06-06T08:35:45.000Z</time>
      </trkpt>
      <trkpt lat="44.659336" lon="4.790158">
        <ele>152.369413</ele>
        <time>2017-06-06T08:35:48.000Z</time>
      </trkpt>
      <trkpt lat="44.659250" lon="4.790215">
        <ele>152.840682</ele>
        <time>2017-06-06T08:35:52.000Z</time>
      </trkpt>
      <trkpt lat="44.659160" lon="4.790257">
        <ele>153.310715</ele>
        <time>2017-06-06T08:35:56.000Z</time>
      </trkpt>
      <trkpt lat="44.659077" lon="4.790316">
        <ele>153.771715</ele>
        <time>2017-06-06T08:36:00.000Z</time>
      </trkpt>
      <trkpt lat="44.658985" lon="4.790370">
        <ele>154.265875</ele>
        <time>2017-06-06T08:36:04.000Z</time>
      </trkpt>
      <trkpt lat="44.658897" lon="4.790415">
        <ele>154.730019</ele>
        <time>2017-06-06T08:36:08.000Z</time>
      </trkpt>
      <trkpt lat="44.658806" lon="4.790455">
        <ele>155.202607</ele>
        <time>2017-06-06T08:36:12.000Z</time>
      </trkpt>
      <trkpt lat="44.658707" lon="4.790491">
        <ele>155.709465</ele>
        <time>2017-06-06T08:36:16.000Z</time>
      </trkpt>
      <trkpt lat="44.658607" lon="4.790510">
        <ele>156.209636</ele>
        <time>2017-06-06T08:36:20.000Z</time>
      </trkpt>
      <trkpt lat="44.658500" lon="4.790505">
        <ele>156.740291</ele>
        <time>2017-06-06T08:36:24.000Z</time>
      </trkpt>
      <trkpt lat="44.658382" lon="4.790490">
        <ele>157.327562</ele>
        <time>2017-06-06T08:36:28.000Z</time>
      </trkpt>
      <trkpt lat="44.658270" lon="4.790472">
        <ele>157.886322</ele>
        <time>2017-06-06T08:36:32.000Z</time>
      </trkpt>
      <trkpt lat="44.658180" lon="4.790454">
        <ele>158.336912</ele>
        <time>2017-06-06T08:36:35.000Z</time>
      </trkpt>
      <trkpt lat="44.658085" lon="4.790439">
        <ele>158.810755</ele>
        <time>2017-06-06T08:36:38.000Z</time>
      </trkpt>
      <trkpt lat="44.657936" lon="4.790413">
        <ele>159.306257</ele>
        <time>2017-06-06T08:36:43.000Z</time>
      </trkpt>
      <trkpt lat="44.657845" lon="4.790402">
        <ele>159.309523</ele>
        <time>2017-06-06T08:36:46.000Z</time>
      </trkpt>
      <trkpt lat="44.657750" lon="4.790398">
        <ele>159.312921</ele>
        <time>2017-06-06T08:36:49.000Z</time>
      </trkpt>
      <trkpt lat="44.657658" lon="4.790403">
        <ele>159.316213</ele>
        <time>2017-06-06T08:36:52.000Z</time>
      </trkpt>
      <trkpt lat="44.657547" lon="4.790417">
        <ele>159.320198</ele>
        <time>2017-06-06T08:36:56.000Z</time>
      </trkpt>
      <trkpt lat="44.657436" lon="4.790437">
        <ele>159.324200</ele>
        <time>2017-06-06T08:37:00.000Z</time>
      </trkpt>
      <trkpt lat="44.657322" lon="4.790457">
        <ele>159.328308</ele>
        <time>2017-06-06T08:37:04.000Z</time>
      </trkpt>
      <trkpt lat="44.657204" lon="4.790482">
        <ele>159.332575</ele>
        <time>2017-06-06T08:37:08.000Z</time>
      </trkpt>
      <trkpt lat="44.657090" lon="4.790495">
        <ele>159.336665</ele>
        <time>2017-06-06T08:37:12.000Z</time>
      </trkpt>
      <trkpt lat="44.656994" lon="4.790499">
        <ele>159.340099</ele>
        <time>2017-06-06T08:37:15.000Z</time>
      </trkpt>
      <trkpt lat="44.656900" lon="4.790513">
        <ele>159.343479</ele>
        <time>2017-06-06T08:37:18.000Z</time>
      </trkpt>
      <trkpt lat="44.656780" lon="4.790514">
        <ele>159.347770</ele>
        <time>2017-06-06T08:37:21.000Z</time>
      </trkpt>
      <trkpt lat="44.656650" lon="4.790541">
        <ele>159.352469</ele>
        <time>2017-06-06T08:37:24.000Z</time>
      </trkpt>
      <trkpt lat="44.656548" lon="4.790558">
        <ele>159.356142</ele>
        <time>2017-06-06T08:37:26.000Z</time>
      </trkpt>
      <trkpt lat="44.656450" lon="4.790583">
        <ele>159.359704</ele>
        <time>2017-06-06T08:37:28.000Z</time>
      </trkpt>
      <trkpt lat="44.656350" lon="4.790624">
        <ele>159.363429</ele>
        <time>2017-06-06T08:37:30.000Z</time>
      </trkpt>
      <trkpt lat="44.656258" lon="4.790679">
        <ele>159.367003</ele>
        <time>2017-06-06T08:37:32.000Z</time>
      </trkpt>
      <trkpt lat="44.656174" lon="4.790752">
        <ele>159.343555</ele>
        <time>2017-06-06T08:37:34.000Z</time>
      </trkpt>
      <trkpt lat="44.656100" lon="4.790842">
        <ele>159.293698</ele>
        <time>2017-06-06T08:37:36.000Z</time>
      </trkpt>
      <trkpt lat="44.656033" lon="4.790944">
        <ele>159.243379</ele>
        <time>2017-06-06T08:37:38.000Z</time>
      </trkpt>
      <trkpt lat="44.655945" lon="4.791026">
        <ele>159.189586</ele>
        <time>2017-06-06T08:37:40.000Z</time>
      </trkpt>
      <trkpt lat="44.655865" lon="4.791102">
        <ele>159.140390</ele>
        <time>2017-06-06T08:37:42.000Z</time>
      </trkpt>
      <trkpt lat="44.655777" lon="4.791147">
        <ele>159.092678</ele>
        <time>2017-06-06T08:37:44.000Z</time>
      </trkpt>
      <trkpt lat="44.655663" lon="4.791186">
        <ele>159.032898</ele>
        <time>2017-06-06T08:37:47.000Z</time>
      </trkpt>
      <trkpt lat="44.655560" lon="4.791209">
        <ele>158.979760</ele>
        <time>2017-06-06T08:37:50.000Z</time>
      </trkpt>
      <trkpt lat="44.655464" lon="4.791225">
        <ele>158.930504</ele>
        <time>2017-06-06T08:37:53.000Z</time>
      </trkpt>
      <trkpt lat="44.655365" lon="4.791237">
        <ele>158.879874</ele>
        <time>2017-06-06T08:37:56.000Z</time>
      </trkpt>
      <trkpt lat="44.655266" lon="4.791244">
        <ele>158.829368</ele>
        <time>2017-06-06T08:37:59.000Z</time>
      </trkpt>
      <trkpt lat="44.655163" lon="4.791245">
        <ele>158.776887</ele>
        <time>2017-06-06T08:38:02.000Z</time>
      </trkpt>
      <trkpt lat="44.655052" lon="4.791251">
        <ele>158.720289</ele>
        <time>2017-06-06T08:38:05.000Z</time>
      </trkpt>
      <trkpt lat="44.654945" lon="4.791249">
        <ele>158.665765</ele>
        <time>2017-06-06T08:38:08.000Z</time>
      </trkpt>
      <trkpt lat="44.654846" lon="4.791262">
        <ele>158.615104</ele>
        <time>2017-06-06T08:38:11.000Z</time>
      </trkpt>
      <trkpt lat="44.654755" lon="4.791283">
        <ele>158.568117</ele>
        <time>2017-06-06T08:38:14.000Z</time>
      </trkpt>
      <trkpt lat="44.654650" lon="4.791305">
        <ele>158.514027</ele>
        <time>2017-06-06T08:38:17.000Z</time>
      </trkpt>
      <trkpt lat="44.654556" lon="4.791332">
        <ele>158.465143</ele>
        <time>2017-06-06T08:38:20.000Z</time>
      </trkpt>
      <trkpt lat="44.654453" lon="4.791358">
        <ele>158.680340</ele>
        <time>2017-06-06T08:38:23.000Z</time>
      </trkpt>
      <trkpt lat="44.654366" lon="4.791386">
        <ele>158.936343</ele>
        <time>2017-06-06T08:38:25.000Z</time>
      </trkpt>
      <trkpt lat="44.654274" lon="4.791413">
        <ele>159.205920</ele>
        <time>2017-06-06T08:38:27.000Z</time>
      </trkpt>
      <trkpt lat="44.654150" lon="4.791446">
        <ele>159.567912</ele>
        <time>2017-06-06T08:38:30.000Z</time>
      </trkpt>
      <trkpt lat="44.654026" lon="4.791493">
        <ele>159.936289</ele>
        <time>2017-06-06T08:38:33.000Z</time>
      </trkpt>
      <trkpt lat="44.653923" lon="4.791524">
        <ele>160.238424</ele>
        <time>2017-06-06T08:38:36.000Z</time>
      </trkpt>
      <trkpt lat="44.653835" lon="4.791555">
        <ele>160.498643</ele>
        <time>2017-06-06T08:38:39.000Z</time>
      </trkpt>
      <trkpt lat="44.653725" lon="4.791598">
        <ele>160.826133</ele>
        <time>2017-06-06T08:38:43.000Z</time>
      </trkpt>
      <trkpt lat="44.653637" lon="4.791631">
        <ele>161.087374</ele>
        <time>2017-06-06T08:38:46.000Z</time>
      </trkpt>
      <trkpt lat="44.653545" lon="4.791675">
        <ele>161.366116</ele>
        <time>2017-06-06T08:38:49.000Z</time>
      </trkpt>
      <trkpt lat="44.653446" lon="4.791727">
        <ele>161.669258</ele>
        <time>2017-06-06T08:38:52.000Z</time>
      </trkpt>
      <trkpt lat="44.653336" lon="4.791762">
        <ele>161.992757</ele>
        <time>2017-06-06T08:38:55.000Z</time>
      </trkpt>
      <trkpt lat="44.653230" lon="4.791806">
        <ele>162.309780</ele>
        <time>2017-06-06T08:38:58.000Z</time>
      </trkpt>
      <trkpt lat="44.653122" lon="4.791852">
        <ele>162.633469</ele>
        <time>2017-06-06T08:39:02.000Z</time>
      </trkpt>
      <trkpt lat="44.653030" lon="4.791880">
        <ele>162.903471</ele>
        <time>2017-06-06T08:39:05.000Z</time>
      </trkpt>
      <trkpt lat="44.652916" lon="4.791916">
        <ele>163.238611</ele>
        <time>2017-06-06T08:39:08.000Z</time>
      </trkpt>
      <trkpt lat="44.652798" lon="4.791952">
        <ele>163.584956</ele>
        <time>2017-06-06T08:39:11.000Z</time>
      </trkpt>
      <trkpt lat="44.652690" lon="4.791981">
        <ele>164.129462</ele>
        <time>2017-06-06T08:39:14.000Z</time>
      </trkpt>
      <trkpt lat="44.652596" lon="4.792015">
        <ele>164.628684</ele>
        <time>2017-06-06T08:39:17.000Z</time>
      </trkpt>
      <trkpt lat="44.652490" lon="4.792050">
        <ele>165.188716</ele>
        <time>2017-06-06T08:39:21.000Z</time>
      </trkpt>
      <trkpt lat="44.652380" lon="4.792066">
        <ele>165.757504</ele>
        <time>2017-06-06T08:39:25.000Z</time>
      </trkpt>
      <trkpt lat="44.652270" lon="4.792046">
        <ele>166.327984</ele>
        <time>2017-06-06T08:39:29.000Z</time>
      </trkpt>
      <trkpt lat="44.652170" lon="4.792039">
        <ele>166.842956</ele>
        <time>2017-06-06T08:39:33.000Z</time>
      </trkpt>
      <trkpt lat="44.652054" lon="4.792048">
        <ele>167.440491</ele>
        <time>2017-06-06T08:39:37.000Z</time>
      </trkpt>
      <trkpt lat="44.651943" lon="4.792061">
        <ele>168.013380</ele>
        <time>2017-06-06T08:39:41.000Z</time>
      </trkpt>
      <trkpt lat="44.651833" lon="4.792078">
        <ele>168.582556</ele>
        <time>2017-06-06T08:39:45.000Z</time>
      </trkpt>
      <trkpt lat="44.651714" lon="4.792108">
        <ele>169.204379</ele>
        <time>2017-06-06T08:39:49.000Z</time>
      </trkpt>
      <trkpt lat="44.651596" lon="4.792139">
        <ele>169.821801</ele>
        <time>2017-06-06T08:39:53.000Z</time>
      </trkpt>
      <trkpt lat="44.651480" lon="4.792176">
        <ele>170.433595</ele>
        <time>2017-06-06T08:39:57.000Z</time>
      </trkpt>
      <trkpt lat="44.651386" lon="4.792206">
        <ele>170.929374</ele>
        <time>2017-06-06T08:40:00.000Z</time>
      </trkpt>
      <trkpt lat="44.651290" lon="4.792237">
        <ele>171.435995</ele>
        <time>2017-06-06T08:40:03.000Z</time>
      </trkpt>
      <trkpt lat="44.651180" lon="4.792273">
        <ele>172.016894</ele>
        <time>2017-06-06T08:40:07.000Z</time>
      </trkpt>
      <trkpt lat="44.651073" lon="4.792308">
        <ele>172.581935</ele>
        <time>2017-06-06T08:40:11.000Z</time>
      </trkpt>
      <trkpt lat="44.650967" lon="4.792351">
        <ele>172.863501</ele>
        <time>2017-06-06T08:40:15.000Z</time>
      </trkpt>
      <trkpt lat="44.650856" lon="4.792403">
        <ele>172.865624</ele>
        <time>2017-06-06T08:40:19.000Z</time>
      </trkpt>
      <trkpt lat="44.650745" lon="4.792457">
        <ele>172.867756</ele>
        <time>2017-06-06T08:40:23.000Z</time>
      </trkpt>
      <trkpt lat="44.650642" lon="4.792520">
        <ele>172.869794</ele>
        <time>2017-06-06T08:40:27.000Z</time>
      </trkpt>
      <trkpt lat="44.650550" lon="4.792603">
        <ele>172.871778</ele>
        <time>2017-06-06T08:40:31.000Z</time>
      </trkpt>
      <trkpt lat="44.650455" lon="4.792664">
        <ele>172.873674</ele>
        <time>2017-06-06T08:40:35.000Z</time>
      </trkpt>
      <trkpt lat="44.650345" lon="4.792705">
        <ele>172.875739</ele>
        <time>2017-06-06T08:40:39.000Z</time>
      </trkpt>
      <trkpt lat="44.650253" lon="4.792708">
        <ele>172.877409</ele>
        <time>2017-06-06T08:40:42.000Z</time>
      </trkpt>
      <trkpt lat="44.650130" lon="4.792722">
        <ele>172.879649</ele>
        <time>2017-06-06T08:40:45.000Z</time>
      </trkpt>
      <trkpt lat="44.650013" lon="4.792722">
        <ele>172.881772</ele>
        <time>2017-06-06T08:40:48.000Z</time>
      </trkpt>
      <trkpt lat="44.649910" lon="4.792722">
        <ele>172.883642</ele>
        <time>2017-06-06T08:40:51.000Z</time>
      </trkpt>
      <trkpt lat="44.649807" lon="4.792721">
        <ele>172.885511</ele>
        <time>2017-06-06T08:40:55.000Z</time>
      </trkpt>
      <trkpt lat="44.649720" lon="4.792656">
        <ele>172.887299</ele>
        <time>2017-06-06T08:41:01.000Z</time>
      </trkpt>
      <trkpt lat="44.649708" lon="4.792520">
        <ele>172.889068</ele>
        <time>2017-06-06T08:41:06.000Z</time>
      </trkpt>
      <trkpt lat="44.649742" lon="4.792373">
        <ele>172.891064</ele>
        <time>2017-06-06T08:41:10.000Z</time>
      </trkpt>
      <trkpt lat="44.649760" lon="4.792205">
        <ele>172.893258</ele>
        <time>2017-06-06T08:41:14.000Z</time>
      </trkpt>
      <trkpt lat="44.649780" lon="4.792026">
        <ele>172.787446</ele>
        <time>2017-06-06T08:41:17.000Z</time>
      </trkpt>
      <trkpt lat="44.649826" lon="4.791854">
        <ele>172.239148</ele>
        <time>2017-06-06T08:41:20.000Z</time>
      </trkpt>
      <trkpt lat="44.649864" lon="4.791685">
        <ele>171.710282</ele>
        <time>2017-06-06T08:41:23.000Z</time>
      </trkpt>
      <trkpt lat="44.649887" lon="4.791545">
        <ele>171.281542</ele>
        <time>2017-06-06T08:41:26.000Z</time>
      </trkpt>
      <trkpt lat="44.649910" lon="4.791417">
        <ele>170.887609</ele>
        <time>2017-06-06T08:41:29.000Z</time>
      </trkpt>
      <trkpt lat="44.649920" lon="4.791281">
        <ele>170.479638</ele>
        <time>2017-06-06T08:41:32.000Z</time>
      </trkpt>
      <trkpt lat="44.649918" lon="4.791152">
        <ele>170.094625</ele>
        <time>2017-06-06T08:41:37.000Z</time>
      </trkpt>
      <trkpt lat="44.649930" lon="4.791023">
        <ele>169.706426</ele>
        <time>2017-06-06T08:41:43.000Z</time>
      </trkpt>
      <trkpt lat="44.649986" lon="4.790815">
        <ele>169.042819</ele>
        <time>2017-06-06T08:43:39.000Z</time>
      </trkpt>
      <trkpt lat="44.650013" lon="4.790686">
        <ele>168.641584</ele>
        <time>2017-06-06T08:43:45.000Z</time>
      </trkpt>
      <trkpt lat="44.650047" lon="4.790566">
        <ele>168.256164</ele>
        <time>2017-06-06T08:43:50.000Z</time>
      </trkpt>
      <trkpt lat="44.650070" lon="4.790435">
        <ele>167.853547</ele>
        <time>2017-06-06T08:43:54.000Z</time>
      </trkpt>
      <trkpt lat="44.650100" lon="4.790282">
        <ele>167.379990</ele>
        <time>2017-06-06T08:43:58.000Z</time>
      </trkpt>
      <trkpt lat="44.650130" lon="4.790117">
        <ele>166.871825</ele>
        <time>2017-06-06T08:44:02.000Z</time>
      </trkpt>
      <trkpt lat="44.650150" lon="4.789982">
        <ele>166.460359</ele>
        <time>2017-06-06T08:44:05.000Z</time>
      </trkpt>
      <trkpt lat="44.650166" lon="4.789835">
        <ele>166.016624</ele>
        <time>2017-06-06T08:44:08.000Z</time>
      </trkpt>
      <trkpt lat="44.650170" lon="4.789653">
        <ele>165.473299</ele>
        <time>2017-06-06T08:44:11.000Z</time>
      </trkpt>
      <trkpt lat="44.650150" lon="4.789517">
        <ele>165.135726</ele>
        <time>2017-06-06T08:44:13.000Z</time>
      </trkpt>
      <trkpt lat="44.650124" lon="4.789367">
        <ele>164.796175</ele>
        <time>2017-06-06T08:44:15.000Z</time>
      </trkpt>
      <trkpt lat="44.650100" lon="4.789215">
        <ele>164.453742</ele>
        <time>2017-06-06T08:44:17.000Z</time>
      </trkpt>
      <trkpt lat="44.650097" lon="4.789075">
        <ele>164.145695</ele>
        <time>2017-06-06T08:44:19.000Z</time>
      </trkpt>
      <trkpt lat="44.650090" lon="4.788901">
        <ele>163.762400</ele>
        <time>2017-06-06T08:44:22.000Z</time>
      </trkpt>
      <trkpt lat="44.650074" lon="4.788775">
        <ele>163.480904</ele>
        <time>2017-06-06T08:44:25.000Z</time>
      </trkpt>
      <trkpt lat="44.650040" lon="4.788646">
        <ele>163.178344</ele>
        <time>2017-06-06T08:44:31.000Z</time>
      </trkpt>
      <trkpt lat="44.650055" lon="4.788390">
        <ele>162.613408</ele>
        <time>2017-06-06T08:45:01.000Z</time>
      </trkpt>
      <trkpt lat="44.650050" lon="4.788258">
        <ele>162.322684</ele>
        <time>2017-06-06T08:45:04.000Z</time>
      </trkpt>
      <trkpt lat="44.650047" lon="4.788073">
        <ele>161.915701</ele>
        <time>2017-06-06T08:45:07.000Z</time>
      </trkpt>
      <trkpt lat="44.650060" lon="4.787932">
        <ele>161.603001</ele>
        <time>2017-06-06T08:45:09.000Z</time>
      </trkpt>
      <trkpt lat="44.650074" lon="4.787768">
        <ele>161.239723</ele>
        <time>2017-06-06T08:45:11.000Z</time>
      </trkpt>
      <trkpt lat="44.650100" lon="4.787594">
        <ele>160.848688</ele>
        <time>2017-06-06T08:45:13.000Z</time>
      </trkpt>
      <trkpt lat="44.650140" lon="4.787420">
        <ele>160.446520</ele>
        <time>2017-06-06T08:45:15.000Z</time>
      </trkpt>
      <trkpt lat="44.650170" lon="4.787259">
        <ele>160.080483</ele>
        <time>2017-06-06T08:45:17.000Z</time>
      </trkpt>
      <trkpt lat="44.650204" lon="4.787096">
        <ele>159.821989</ele>
        <time>2017-06-06T08:45:19.000Z</time>
      </trkpt>
      <trkpt lat="44.650238" lon="4.786935">
        <ele>159.960853</ele>
        <time>2017-06-06T08:45:21.000Z</time>
      </trkpt>
      <trkpt lat="44.650270" lon="4.786777">
        <ele>160.096686</ele>
        <time>2017-06-06T08:45:23.000Z</time>
      </trkpt>
      <trkpt lat="44.650303" lon="4.786628">
        <ele>160.225718</ele>
        <time>2017-06-06T08:45:25.000Z</time>
      </trkpt>
      <trkpt lat="44.650333" lon="4.786490">
        <ele>160.345032</ele>
        <time>2017-06-06T08:45:27.000Z</time>
      </trkpt>
      <trkpt lat="44.650333" lon="4.786322">
        <ele>160.483942</ele>
        <time>2017-06-06T08:45:30.000Z</time>
      </trkpt>
      <trkpt lat="44.650272" lon="4.786209">
        <ele>160.601230</ele>
        <time>2017-06-06T08:45:33.000Z</time>
      </trkpt>
      <trkpt lat="44.650177" lon="4.786145">
        <ele>160.723671</ele>
        <time>2017-06-06T08:45:37.000Z</time>
      </trkpt>
      <trkpt lat="44.650066" lon="4.786113">
        <ele>160.855368</ele>
        <time>2017-06-06T08:45:41.000Z</time>
      </trkpt>
      <trkpt lat="44.649956" lon="4.786077">
        <ele>160.986637</ele>
        <time>2017-06-06T08:45:45.000Z</time>
      </trkpt>
      <trkpt lat="44.649840" lon="4.786040">
        <ele>161.124887</ele>
        <time>2017-06-06T08:45:49.000Z</time>
      </trkpt>
      <trkpt lat="44.649727" lon="4.786002">
        <ele>161.259929</ele>
        <time>2017-06-06T08:45:53.000Z</time>
      </trkpt>
      <trkpt lat="44.649612" lon="4.785960">
        <ele>161.398028</ele>
        <time>2017-06-06T08:45:57.000Z</time>
      </trkpt>
      <trkpt lat="44.649525" lon="4.785931">
        <ele>161.501949</ele>
        <time>2017-06-06T08:46:00.000Z</time>
      </trkpt>
      <trkpt lat="44.649414" lon="4.785882">
        <ele>161.637173</ele>
        <time>2017-06-06T08:46:04.000Z</time>
      </trkpt>
      <trkpt lat="44.649300" lon="4.785836">
        <ele>161.775023</ele>
        <time>2017-06-06T08:46:08.000Z</time>
      </trkpt>
      <trkpt lat="44.649190" lon="4.785783">
        <ele>161.938717</ele>
        <time>2017-06-06T08:46:12.000Z</time>
      </trkpt>
      <trkpt lat="44.649082" lon="4.785729">
        <ele>162.202491</ele>
        <time>2017-06-06T08:46:16.000Z</time>
      </trkpt>
      <trkpt lat="44.648970" lon="4.785683">
        <ele>162.470991</ele>
        <time>2017-06-06T08:46:20.000Z</time>
      </trkpt>
      <trkpt lat="44.648870" lon="4.785631">
        <ele>162.716343</ele>
        <time>2017-06-06T08:46:24.000Z</time>
      </trkpt>
      <trkpt lat="44.648760" lon="4.785578">
        <ele>162.983922</ele>
        <time>2017-06-06T08:46:28.000Z</time>
      </trkpt>
      <trkpt lat="44.648655" lon="4.785523">
        <ele>163.241769</ele>
        <time>2017-06-06T08:46:32.000Z</time>
      </trkpt>
      <trkpt lat="44.648556" lon="4.785474">
        <ele>163.483289</ele>
        <time>2017-06-06T08:46:36.000Z</time>
      </trkpt>
      <trkpt lat="44.648450" lon="4.785420">
        <ele>163.742732</ele>
        <time>2017-06-06T08:46:40.000Z</time>
      </trkpt>
      <trkpt lat="44.648357" lon="4.785367">
        <ele>163.973655</ele>
        <time>2017-06-06T08:46:44.000Z</time>
      </trkpt>
      <trkpt lat="44.648270" lon="4.785320">
        <ele>164.188128</ele>
        <time>2017-06-06T08:46:49.000Z</time>
      </trkpt>
      <trkpt lat="44.648180" lon="4.785277">
        <ele>164.406864</ele>
        <time>2017-06-06T08:46:54.000Z</time>
      </trkpt>
      <trkpt lat="44.648087" lon="4.785209">
        <ele>164.648089</ele>
        <time>2017-06-06T08:46:59.000Z</time>
      </trkpt>
      <trkpt lat="44.648010" lon="4.785135">
        <ele>164.862730</ele>
        <time>2017-06-06T08:47:03.000Z</time>
      </trkpt>
      <trkpt lat="44.647910" lon="4.785071">
        <ele>165.115571</ele>
        <time>2017-06-06T08:47:08.000Z</time>
      </trkpt>
      <trkpt lat="44.647816" lon="4.784988">
        <ele>165.371012</ele>
        <time>2017-06-06T08:47:13.000Z</time>
      </trkpt>
      <trkpt lat="44.647724" lon="4.784945">
        <ele>165.594111</ele>
        <time>2017-06-06T08:47:16.000Z</time>
      </trkpt>
      <trkpt lat="44.647617" lon="4.784891">
        <ele>165.855719</ele>
        <time>2017-06-06T08:47:19.000Z</time>
      </trkpt>
      <trkpt lat="44.647495" lon="4.784872">
        <ele>165.953693</ele>
        <time>2017-06-06T08:47:22.000Z</time>
      </trkpt>
      <trkpt lat="44.647380" lon="4.784909">
        <ele>165.801685</ele>
        <time>2017-06-06T08:47:25.000Z</time>
      </trkpt>
      <trkpt lat="44.647285" lon="4.784960">
        <ele>165.670654</ele>
        <time>2017-06-06T08:47:28.000Z</time>
      </trkpt>
      <trkpt lat="44.647190" lon="4.785006">
        <ele>165.541189</ele>
        <time>2017-06-06T08:47:31.000Z</time>
      </trkpt>
      <trkpt lat="44.647095" lon="4.785042">
        <ele>165.414412</ele>
        <time>2017-06-06T08:47:34.000Z</time>
      </trkpt>
      <trkpt lat="44.647000" lon="4.785087">
        <ele>165.285242</ele>
        <time>2017-06-06T08:47:37.000Z</time>
      </trkpt>
      <trkpt lat="44.646910" lon="4.785123">
        <ele>165.164675</ele>
        <time>2017-06-06T08:47:40.000Z</time>
      </trkpt>
      <trkpt lat="44.646810" lon="4.785173">
        <ele>165.027917</ele>
        <time>2017-06-06T08:47:43.000Z</time>
      </trkpt>
      <trkpt lat="44.646710" lon="4.785228">
        <ele>164.889555</ele>
        <time>2017-06-06T08:47:46.000Z</time>
      </trkpt>
      <trkpt lat="44.646614" lon="4.785282">
        <ele>164.756323</ele>
        <time>2017-06-06T08:47:49.000Z</time>
      </trkpt>
      <trkpt lat="44.646520" lon="4.785351">
        <ele>164.619684</ele>
        <time>2017-06-06T08:47:52.000Z</time>
      </trkpt>
      <trkpt lat="44.646430" lon="4.785425">
        <ele>164.485337</ele>
        <time>2017-06-06T08:47:55.000Z</time>
      </trkpt>
      <trkpt lat="44.646330" lon="4.785495">
        <ele>164.341394</ele>
        <time>2017-06-06T08:47:58.000Z</time>
      </trkpt>
      <trkpt lat="44.646236" lon="4.785580">
        <ele>164.197376</ele>
        <time>2017-06-06T08:48:01.000Z</time>
      </trkpt>
      <trkpt lat="44.646150" lon="4.785654">
        <ele>164.067451</ele>
        <time>2017-06-06T08:48:04.000Z</time>
      </trkpt>
      <trkpt lat="44.646053" lon="4.785724">
        <ele>163.926958</ele>
        <time>2017-06-06T08:48:07.000Z</time>
      </trkpt>
      <trkpt lat="44.645958" lon="4.785785">
        <ele>163.792384</ele>
        <time>2017-06-06T08:48:10.000Z</time>
      </trkpt>
      <trkpt lat="44.645866" lon="4.785838">
        <ele>163.752753</ele>
        <time>2017-06-06T08:48:13.000Z</time>
      </trkpt>
      <trkpt lat="44.645744" lon="4.785864">
        <ele>163.962840</ele>
        <time>2017-06-06T08:48:16.000Z</time>
      </trkpt>
      <trkpt lat="44.645660" lon="4.785941">
        <ele>164.133582</ele>
        <time>2017-06-06T08:48:18.000Z</time>
      </trkpt>
      <trkpt lat="44.645600" lon="4.786074">
        <ele>164.324345</ele>
        <time>2017-06-06T08:48:21.000Z</time>
      </trkpt>
      <trkpt lat="44.645565" lon="4.786191">
        <ele>164.478087</ele>
        <time>2017-06-06T08:48:25.000Z</time>
      </trkpt>
      <trkpt lat="44.645540" lon="4.786319">
        <ele>164.638872</ele>
        <time>2017-06-06T08:48:29.000Z</time>
      </trkpt>
      <trkpt lat="44.645500" lon="4.786472">
        <ele>164.836321</ele>
        <time>2017-06-06T08:48:33.000Z</time>
      </trkpt>
      <trkpt lat="44.645473" lon="4.786598">
        <ele>164.995719</ele>
        <time>2017-06-06T08:48:36.000Z</time>
      </trkpt>
      <trkpt lat="44.645428" lon="4.786750">
        <ele>165.195145</ele>
        <time>2017-06-06T08:48:40.000Z</time>
      </trkpt>
      <trkpt lat="44.645393" lon="4.786881">
        <ele>165.364648</ele>
        <time>2017-06-06T08:48:43.000Z</time>
      </trkpt>
      <trkpt lat="44.645350" lon="4.786999">
        <ele>165.525242</ele>
        <time>2017-06-06T08:48:46.000Z</time>
      </trkpt>
      <trkpt lat="44.645290" lon="4.787111">
        <ele>165.695069</ele>
        <time>2017-06-06T08:48:49.000Z</time>
      </trkpt>
      <trkpt lat="44.645267" lon="4.787242">
        <ele>165.858513</ele>
        <time>2017-06-06T08:48:52.000Z</time>
      </trkpt>
      <trkpt lat="44.645237" lon="4.787373">
        <ele>166.025215</ele>
        <time>2017-06-06T08:48:55.000Z</time>
      </trkpt>
      <trkpt lat="44.645206" lon="4.787508">
        <ele>166.197050</ele>
        <time>2017-06-06T08:48:58.000Z</time>
      </trkpt>
      <trkpt lat="44.645172" lon="4.787640">
        <ele>166.367101</ele>
        <time>2017-06-06T08:49:01.000Z</time>
      </trkpt>
      <trkpt lat="44.645145" lon="4.787765">
        <ele>166.525341</ele>
        <time>2017-06-06T08:49:04.000Z</time>
      </trkpt>
      <trkpt lat="44.645110" lon="4.787885">
        <ele>166.682441</ele>
        <time>2017-06-06T08:49:07.000Z</time>
      </trkpt>
      <trkpt lat="44.645060" lon="4.788022">
        <ele>166.716014</ele>
        <time>2017-06-06T08:49:10.000Z</time>
      </trkpt>
      <trkpt lat="44.645020" lon="4.788150">
        <ele>166.636942</ele>
        <time>2017-06-06T08:49:13.000Z</time>
      </trkpt>
      <trkpt lat="44.644962" lon="4.788278">
        <ele>166.551110</ele>
        <time>2017-06-06T08:49:16.000Z</time>
      </trkpt>
      <trkpt lat="44.644897" lon="4.788395">
        <ele>166.467151</ele>
        <time>2017-06-06T08:49:19.000Z</time>
      </trkpt>
      <trkpt lat="44.644800" lon="4.788511">
        <ele>166.365906</ele>
        <time>2017-06-06T08:49:22.000Z</time>
      </trkpt>
      <trkpt lat="44.644700" lon="4.788583">
        <ele>166.276586</ele>
        <time>2017-06-06T08:49:25.000Z</time>
      </trkpt>
      <trkpt lat="44.644585" lon="4.788665">
        <ele>166.174074</ele>
        <time>2017-06-06T08:49:28.000Z</time>
      </trkpt>
      <trkpt lat="44.644493" lon="4.788712">
        <ele>166.096257</ele>
        <time>2017-06-06T08:49:30.000Z</time>
      </trkpt>
      <trkpt lat="44.644405" lon="4.788736">
        <ele>166.024995</ele>
        <time>2017-06-06T08:49:32.000Z</time>
      </trkpt>
      <trkpt lat="44.644318" lon="4.788769">
        <ele>165.953360</ele>
        <time>2017-06-06T08:49:34.000Z</time>
      </trkpt>
      <trkpt lat="44.644226" lon="4.788784">
        <ele>165.879733</ele>
        <time>2017-06-06T08:49:36.000Z</time>
      </trkpt>
      <trkpt lat="44.644130" lon="4.788803">
        <ele>165.802664</ele>
        <time>2017-06-06T08:49:38.000Z</time>
      </trkpt>
      <trkpt lat="44.644030" lon="4.788823">
        <ele>165.722367</ele>
        <time>2017-06-06T08:49:40.000Z</time>
      </trkpt>
      <trkpt lat="44.643932" lon="4.788835">
        <ele>165.644166</ele>
        <time>2017-06-06T08:49:42.000Z</time>
      </trkpt>
      <trkpt lat="44.643818" lon="4.788852">
        <ele>165.553032</ele>
        <time>2017-06-06T08:49:44.000Z</time>
      </trkpt>
      <trkpt lat="44.643715" lon="4.788869">
        <ele>165.470588</ele>
        <time>2017-06-06T08:49:46.000Z</time>
      </trkpt>
      <trkpt lat="44.643612" lon="4.788878">
        <ele>165.388549</ele>
        <time>2017-06-06T08:49:48.000Z</time>
      </trkpt>
      <trkpt lat="44.643482" lon="4.788898">
        <ele>165.333485</ele>
        <time>2017-06-06T08:49:51.000Z</time>
      </trkpt>
      <trkpt lat="44.643387" lon="4.788907">
        <ele>165.331438</ele>
        <time>2017-06-06T08:49:53.000Z</time>
      </trkpt>
      <trkpt lat="44.643288" lon="4.788913">
        <ele>165.329307</ele>
        <time>2017-06-06T08:49:55.000Z</time>
      </trkpt>
      <trkpt lat="44.643180" lon="4.788922">
        <ele>165.326980</ele>
        <time>2017-06-06T08:49:57.000Z</time>
      </trkpt>
      <trkpt lat="44.643078" lon="4.788936">
        <ele>165.324776</ele>
        <time>2017-06-06T08:49:59.000Z</time>
      </trkpt>
      <trkpt lat="44.642975" lon="4.788956">
        <ele>165.322540</ele>
        <time>2017-06-06T08:50:01.000Z</time>
      </trkpt>
      <trkpt lat="44.642870" lon="4.788963">
        <ele>165.320279</ele>
        <time>2017-06-06T08:50:03.000Z</time>
      </trkpt>
      <trkpt lat="44.642776" lon="4.788961">
        <ele>165.318258</ele>
        <time>2017-06-06T08:50:05.000Z</time>
      </trkpt>
      <trkpt lat="44.642685" lon="4.788968">
        <ele>165.316298</ele>
        <time>2017-06-06T08:50:07.000Z</time>
      </trkpt>
      <trkpt lat="44.642586" lon="4.788981">
        <ele>165.314160</ele>
        <time>2017-06-06T08:50:09.000Z</time>
      </trkpt>
      <trkpt lat="44.642483" lon="4.788992">
        <ele>165.311938</ele>
        <time>2017-06-06T08:50:11.000Z</time>
      </trkpt>
      <trkpt lat="44.642387" lon="4.789010">
        <ele>165.309855</ele>
        <time>2017-06-06T08:50:13.000Z</time>
      </trkpt>
      <trkpt lat="44.642292" lon="4.789030">
        <ele>165.307790</ele>
        <time>2017-06-06T08:50:15.000Z</time>
      </trkpt>
      <trkpt lat="44.642197" lon="4.789042">
        <ele>165.305738</ele>
        <time>2017-06-06T08:50:17.000Z</time>
      </trkpt>
      <trkpt lat="44.642067" lon="4.789066">
        <ele>165.302919</ele>
        <time>2017-06-06T08:50:20.000Z</time>
      </trkpt>
      <trkpt lat="44.641968" lon="4.789081">
        <ele>165.300777</ele>
        <time>2017-06-06T08:50:22.000Z</time>
      </trkpt>
      <trkpt lat="44.641870" lon="4.789097">
        <ele>165.298656</ele>
        <time>2017-06-06T08:50:24.000Z</time>
      </trkpt>
      <trkpt lat="44.641780" lon="4.789128">
        <ele>165.296663</ele>
        <time>2017-06-06T08:50:26.000Z</time>
      </trkpt>
      <trkpt lat="44.641693" lon="4.789152">
        <ele>165.405629</ele>
        <time>2017-06-06T08:50:28.000Z</time>
      </trkpt>
      <trkpt lat="44.641567" lon="4.789183">
        <ele>165.619412</ele>
        <time>2017-06-06T08:50:31.000Z</time>
      </trkpt>
      <trkpt lat="44.641445" lon="4.789230">
        <ele>165.830829</ele>
        <time>2017-06-06T08:50:34.000Z</time>
      </trkpt>
      <trkpt lat="44.641323" lon="4.789290">
        <ele>166.046848</ele>
        <time>2017-06-06T08:50:37.000Z</time>
      </trkpt>
      <trkpt lat="44.641200" lon="4.789356">
        <ele>166.266888</ele>
        <time>2017-06-06T08:50:40.000Z</time>
      </trkpt>
      <trkpt lat="44.641113" lon="4.789405">
        <ele>166.423530</ele>
        <time>2017-06-06T08:50:42.000Z</time>
      </trkpt>
      <trkpt lat="44.641030" lon="4.789443">
        <ele>166.569421</ele>
        <time>2017-06-06T08:50:44.000Z</time>
      </trkpt>
      <trkpt lat="44.640903" lon="4.789506">
        <ele>166.794507</ele>
        <time>2017-06-06T08:50:47.000Z</time>
      </trkpt>
      <trkpt lat="44.640785" lon="4.789574">
        <ele>167.007652</ele>
        <time>2017-06-06T08:50:50.000Z</time>
      </trkpt>
      <trkpt lat="44.640670" lon="4.789635">
        <ele>167.213082</ele>
        <time>2017-06-06T08:50:53.000Z</time>
      </trkpt>
      <trkpt lat="44.640556" lon="4.789696">
        <ele>167.416949</ele>
        <time>2017-06-06T08:50:56.000Z</time>
      </trkpt>
      <trkpt lat="44.640446" lon="4.789768">
        <ele>167.619750</ele>
        <time>2017-06-06T08:50:59.000Z</time>
      </trkpt>
      <trkpt lat="44.640347" lon="4.789820">
        <ele>167.796384</ele>
        <time>2017-06-06T08:51:02.000Z</time>
      </trkpt>
      <trkpt lat="44.640244" lon="4.789883">
        <ele>167.984122</ele>
        <time>2017-06-06T08:51:06.000Z</time>
      </trkpt>
      <trkpt lat="44.640150" lon="4.789932">
        <ele>168.151680</ele>
        <time>2017-06-06T08:51:10.000Z</time>
      </trkpt>
      <trkpt lat="44.640057" lon="4.789918">
        <ele>168.305955</ele>
        <time>2017-06-06T08:51:14.000Z</time>
      </trkpt>
      <trkpt lat="44.639980" lon="4.789851">
        <ele>168.404008</ele>
        <time>2017-06-06T08:51:18.000Z</time>
      </trkpt>
      <trkpt lat="44.639896" lon="4.789776">
        <ele>168.511757</ele>
        <time>2017-06-06T08:51:21.000Z</time>
      </trkpt>
      <trkpt lat="44.639847" lon="4.789627">
        <ele>168.638211</ele>
        <time>2017-06-06T08:51:24.000Z</time>
      </trkpt>
      <trkpt lat="44.639847" lon="4.789448">
        <ele>168.776110</ele>
        <time>2017-06-06T08:51:27.000Z</time>
      </trkpt>
      <trkpt lat="44.639835" lon="4.789293">
        <ele>168.896224</ele>
        <time>2017-06-06T08:51:30.000Z</time>
      </trkpt>
      <trkpt lat="44.639805" lon="4.789161">
        <ele>169.002976</ele>
        <time>2017-06-06T08:51:33.000Z</time>
      </trkpt>
      <trkpt lat="44.639706" lon="4.789113">
        <ele>169.116363</ele>
        <time>2017-06-06T08:51:37.000Z</time>
      </trkpt>
      <trkpt lat="44.639614" lon="4.789120">
        <ele>169.216117</ele>
        <time>2017-06-06T08:51:42.000Z</time>
      </trkpt>
      <trkpt lat="44.639520" lon="4.789139">
        <ele>169.318938</ele>
        <time>2017-06-06T08:51:47.000Z</time>
      </trkpt>
      <trkpt lat="44.639420" lon="4.789162">
        <ele>169.428649</ele>
        <time>2017-06-06T08:51:52.000Z</time>
      </trkpt>
      <trkpt lat="44.639313" lon="4.789191">
        <ele>169.546633</ele>
        <time>2017-06-06T08:51:56.000Z</time>
      </trkpt>
      <trkpt lat="44.639206" lon="4.789214">
        <ele>169.663829</ele>
        <time>2017-06-06T08:52:00.000Z</time>
      </trkpt>
      <trkpt lat="44.639110" lon="4.789227">
        <ele>169.768250</ele>
        <time>2017-06-06T08:52:04.000Z</time>
      </trkpt>
      <trkpt lat="44.639010" lon="4.789257">
        <ele>169.878960</ele>
        <time>2017-06-06T08:52:09.000Z</time>
      </trkpt>
      <trkpt lat="44.638912" lon="4.789276">
        <ele>169.986069</ele>
        <time>2017-06-06T08:52:13.000Z</time>
      </trkpt>
      <trkpt lat="44.638810" lon="4.789307">
        <ele>170.099058</ele>
        <time>2017-06-06T08:52:18.000Z</time>
      </trkpt>
      <trkpt lat="44.638702" lon="4.789321">
        <ele>170.216486</ele>
        <time>2017-06-06T08:52:21.000Z</time>
      </trkpt>
      <trkpt lat="44.638590" lon="4.789368">
        <ele>170.548575</ele>
        <time>2017-06-06T08:52:25.000Z</time>
      </trkpt>
      <trkpt lat="44.638477" lon="4.789410">
        <ele>170.953479</ele>
        <time>2017-06-06T08:52:29.000Z</time>
      </trkpt>
      <trkpt lat="44.638367" lon="4.789431">
        <ele>171.338032</ele>
        <time>2017-06-06T08:52:33.000Z</time>
      </trkpt>
      <trkpt lat="44.638245" lon="4.789469">
        <ele>171.770910</ele>
        <time>2017-06-06T08:52:37.000Z</time>
      </trkpt>
      <trkpt lat="44.638153" lon="4.789508">
        <ele>172.103792</ele>
        <time>2017-06-06T08:52:40.000Z</time>
      </trkpt>
      <trkpt lat="44.638060" lon="4.789548">
        <ele>172.440705</ele>
        <time>2017-06-06T08:52:43.000Z</time>
      </trkpt>
      <trkpt lat="44.637966" lon="4.789586">
        <ele>172.779537</ele>
        <time>2017-06-06T08:52:46.000Z</time>
      </trkpt>
      <trkpt lat="44.637870" lon="4.789629">
        <ele>173.128575</ele>
        <time>2017-06-06T08:52:49.000Z</time>
      </trkpt>
      <trkpt lat="44.637775" lon="4.789674">
        <ele>173.475857</ele>
        <time>2017-06-06T08:52:52.000Z</time>
      </trkpt>
      <trkpt lat="44.637688" lon="4.789712">
        <ele>173.791456</ele>
        <time>2017-06-06T08:52:55.000Z</time>
      </trkpt>
      <trkpt lat="44.637592" lon="4.789748">
        <ele>174.135648</ele>
        <time>2017-06-06T08:52:58.000Z</time>
      </trkpt>
      <trkpt lat="44.637505" lon="4.789776">
        <ele>174.444828</ele>
        <time>2017-06-06T08:53:01.000Z</time>
      </trkpt>
      <trkpt lat="44.637410" lon="4.789822">
        <ele>174.792906</ele>
        <time>2017-06-06T08:53:04.000Z</time>
      </trkpt>
      <trkpt lat="44.637314" lon="4.789868">
        <ele>175.144260</ele>
        <time>2017-06-06T08:53:07.000Z</time>
      </trkpt>
      <trkpt lat="44.637226" lon="4.789904">
        <ele>175.461756</ele>
        <time>2017-06-06T08:53:10.000Z</time>
      </trkpt>
      <trkpt lat="44.637135" lon="4.789928">
        <ele>175.782494</ele>
        <time>2017-06-06T08:53:13.000Z</time>
      </trkpt>
      <trkpt lat="44.637035" lon="4.789972">
        <ele>176.145488</ele>
        <time>2017-06-06T08:53:16.000Z</time>
      </trkpt>
      <trkpt lat="44.636920" lon="4.790017">
        <ele>176.522155</ele>
        <time>2017-06-06T08:53:20.000Z</time>
      </trkpt>
      <trkpt lat="44.636806" lon="4.790048">
        <ele>176.735999</ele>
        <time>2017-06-06T08:53:24.000Z</time>
      </trkpt>
      <trkpt lat="44.636696" lon="4.790076">
        <ele>176.941879</ele>
        <time>2017-06-06T08:53:28.000Z</time>
      </trkpt>
      <trkpt lat="44.636585" lon="4.790098">
        <ele>177.148328</ele>
        <time>2017-06-06T08:53:32.000Z</time>
      </trkpt>
      <trkpt lat="44.636482" lon="4.790103">
        <ele>177.338133</ele>
        <time>2017-06-06T08:53:36.000Z</time>
      </trkpt>
      <trkpt lat="44.636370" lon="4.790129">
        <ele>177.547195</ele>
        <time>2017-06-06T08:53:41.000Z</time>
      </trkpt>
      <trkpt lat="44.636276" lon="4.790145">
        <ele>177.721577</ele>
        <time>2017-06-06T08:53:45.000Z</time>
      </trkpt>
      <trkpt lat="44.636154" lon="4.790165">
        <ele>177.947785</ele>
        <time>2017-06-06T08:53:49.000Z</time>
      </trkpt>
      <trkpt lat="44.636063" lon="4.790177">
        <ele>178.116113</ele>
        <time>2017-06-06T08:53:52.000Z</time>
      </trkpt>
      <trkpt lat="44.635970" lon="4.790198">
        <ele>178.289585</ele>
        <time>2017-06-06T08:53:55.000Z</time>
      </trkpt>
      <trkpt lat="44.635870" lon="4.790211">
        <ele>178.474538</ele>
        <time>2017-06-06T08:53:58.000Z</time>
      </trkpt>
      <trkpt lat="44.635770" lon="4.790230">
        <ele>178.660381</ele>
        <time>2017-06-06T08:54:01.000Z</time>
      </trkpt>
      <trkpt lat="44.635666" lon="4.790236">
        <ele>178.852076</ele>
        <time>2017-06-06T08:54:04.000Z</time>
      </trkpt>
      <trkpt lat="44.635548" lon="4.790232">
        <ele>179.069456</ele>
        <time>2017-06-06T08:54:07.000Z</time>
      </trkpt>
      <trkpt lat="44.635450" lon="4.790240">
        <ele>179.250244</ele>
        <time>2017-06-06T08:54:11.000Z</time>
      </trkpt>
      <trkpt lat="44.635357" lon="4.790241">
        <ele>179.421524</ele>
        <time>2017-06-06T08:54:15.000Z</time>
      </trkpt>
      <trkpt lat="44.635265" lon="4.790247">
        <ele>179.591140</ele>
        <time>2017-06-06T08:54:19.000Z</time>
      </trkpt>
      <trkpt lat="44.635166" lon="4.790273">
        <ele>179.776622</ele>
        <time>2017-06-06T08:54:23.000Z</time>
      </trkpt>
      <trkpt lat="44.635060" lon="4.790292">
        <ele>179.982955</ele>
        <time>2017-06-06T08:54:29.000Z</time>
      </trkpt>
      <trkpt lat="44.634968" lon="4.790257">
        <ele>180.167754</ele>
        <time>2017-06-06T08:54:35.000Z</time>
      </trkpt>
      <trkpt lat="44.634857" lon="4.790271">
        <ele>180.383836</ele>
        <time>2017-06-06T08:54:41.000Z</time>
      </trkpt>
      <trkpt lat="44.634758" lon="4.790284">
        <ele>180.576622</ele>
        <time>2017-06-06T08:54:45.000Z</time>
      </trkpt>
      <trkpt lat="44.634663" lon="4.790335">
        <ele>180.773800</ele>
        <time>2017-06-06T08:54:50.000Z</time>
      </trkpt>
      <trkpt lat="44.634586" lon="4.790481">
        <ele>181.024531</ele>
        <time>2017-06-06T09:05:07.000Z</time>
      </trkpt>
      <trkpt lat="44.634500" lon="4.790520">
        <ele>181.199743</ele>
        <time>2017-06-06T09:05:11.000Z</time>
      </trkpt>
      <trkpt lat="44.634403" lon="4.790539">
        <ele>181.389634</ele>
        <time>2017-06-06T09:05:15.000Z</time>
      </trkpt>
      <trkpt lat="44.634296" lon="4.790524">
        <ele>181.598125</ele>
        <time>2017-06-06T09:05:19.000Z</time>
      </trkpt>
      <trkpt lat="44.634200" lon="4.790501">
        <ele>181.786944</ele>
        <time>2017-06-06T09:05:22.000Z</time>
      </trkpt>
      <trkpt lat="44.634110" lon="4.790456">
        <ele>181.972161</ele>
        <time>2017-06-06T09:05:25.000Z</time>
      </trkpt>
      <trkpt lat="44.634014" lon="4.790416">
        <ele>182.166304</ele>
        <time>2017-06-06T09:05:28.000Z</time>
      </trkpt>
      <trkpt lat="44.633915" lon="4.790369">
        <ele>182.368912</ele>
        <time>2017-06-06T09:05:31.000Z</time>
      </trkpt>
      <trkpt lat="44.633820" lon="4.790325">
        <ele>182.562854</ele>
        <time>2017-06-06T09:05:34.000Z</time>
      </trkpt>
      <trkpt lat="44.633728" lon="4.790283">
        <ele>182.750408</ele>
        <time>2017-06-06T09:05:37.000Z</time>
      </trkpt>
      <trkpt lat="44.633636" lon="4.790231">
        <ele>182.942674</ele>
        <time>2017-06-06T09:05:40.000Z</time>
      </trkpt>
      <trkpt lat="44.633540" lon="4.790176">
        <ele>183.143683</ele>
        <time>2017-06-06T09:05:43.000Z</time>
      </trkpt>
      <trkpt lat="44.633442" lon="4.790128">
        <ele>183.339310</ele>
        <time>2017-06-06T09:05:46.000Z</time>
      </trkpt>
      <trkpt lat="44.633343" lon="4.790074">
        <ele>183.527410</ele>
        <time>2017-06-06T09:05:49.000Z</time>
      </trkpt>
      <trkpt lat="44.633244" lon="4.790022">
        <ele>183.714614</ele>
        <time>2017-06-06T09:05:52.000Z</time>
      </trkpt>
      <trkpt lat="44.633144" lon="4.789966">
        <ele>183.905285</ele>
        <time>2017-06-06T09:05:55.000Z</time>
      </trkpt>
      <trkpt lat="44.633045" lon="4.789912">
        <ele>184.093386</ele>
        <time>2017-06-06T09:05:58.000Z</time>
      </trkpt>
      <trkpt lat="44.632946" lon="4.789852">
        <ele>184.284353</ele>
        <time>2017-06-06T09:06:01.000Z</time>
      </trkpt>
      <trkpt lat="44.632847" lon="4.789793">
        <ele>184.474825</ele>
        <time>2017-06-06T09:06:04.000Z</time>
      </trkpt>
      <trkpt lat="44.632750" lon="4.789733">
        <ele>184.662545</ele>
        <time>2017-06-06T09:06:07.000Z</time>
      </trkpt>
      <trkpt lat="44.632652" lon="4.789674">
        <ele>184.851388</ele>
        <time>2017-06-06T09:06:10.000Z</time>
      </trkpt>
      <trkpt lat="44.632557" lon="4.789610">
        <ele>185.037995</ele>
        <time>2017-06-06T09:06:13.000Z</time>
      </trkpt>
      <trkpt lat="44.632460" lon="4.789557">
        <ele>185.222337</ele>
        <time>2017-06-06T09:06:16.000Z</time>
      </trkpt>
      <trkpt lat="44.632370" lon="4.789501">
        <ele>185.396678</ele>
        <time>2017-06-06T09:06:19.000Z</time>
      </trkpt>
      <trkpt lat="44.632280" lon="4.789449">
        <ele>185.569040</ele>
        <time>2017-06-06T09:06:22.000Z</time>
      </trkpt>
      <trkpt lat="44.632183" lon="4.789396">
        <ele>185.753382</ele>
        <time>2017-06-06T09:06:25.000Z</time>
      </trkpt>
      <trkpt lat="44.632090" lon="4.789344">
        <ele>185.930670</ele>
        <time>2017-06-06T09:06:28.000Z</time>
      </trkpt>
      <trkpt lat="44.631990" lon="4.789301">
        <ele>186.115902</ele>
        <time>2017-06-06T09:06:31.000Z</time>
      </trkpt>
      <trkpt lat="44.631890" lon="4.789270">
        <ele>186.297287</ele>
        <time>2017-06-06T09:06:34.000Z</time>
      </trkpt>
      <trkpt lat="44.631786" lon="4.789241">
        <ele>186.490665</ele>
        <time>2017-06-06T09:06:37.000Z</time>
      </trkpt>
      <trkpt lat="44.631683" lon="4.789218">
        <ele>186.729483</ele>
        <time>2017-06-06T09:06:40.000Z</time>
      </trkpt>
      <trkpt lat="44.631577" lon="4.789204">
        <ele>186.973282</ele>
        <time>2017-06-06T09:06:43.000Z</time>
      </trkpt>
      <trkpt lat="44.631477" lon="4.789185">
        <ele>187.204354</ele>
        <time>2017-06-06T09:06:46.000Z</time>
      </trkpt>
      <trkpt lat="44.631386" lon="4.789163">
        <ele>187.415796</ele>
        <time>2017-06-06T09:06:49.000Z</time>
      </trkpt>
      <trkpt lat="44.631290" lon="4.789145">
        <ele>187.637574</ele>
        <time>2017-06-06T09:06:52.000Z</time>
      </trkpt>
      <trkpt lat="44.631190" lon="4.789133">
        <ele>187.867396</ele>
        <time>2017-06-06T09:06:55.000Z</time>
      </trkpt>
      <trkpt lat="44.631092" lon="4.789126">
        <ele>188.092095</ele>
        <time>2017-06-06T09:06:58.000Z</time>
      </trkpt>
      <trkpt lat="44.630990" lon="4.789120">
        <ele>188.325868</ele>
        <time>2017-06-06T09:07:01.000Z</time>
      </trkpt>
      <trkpt lat="44.630886" lon="4.789111">
        <ele>188.564468</ele>
        <time>2017-06-06T09:07:04.000Z</time>
      </trkpt>
      <trkpt lat="44.630783" lon="4.789096">
        <ele>188.801590</ele>
        <time>2017-06-06T09:07:07.000Z</time>
      </trkpt>
      <trkpt lat="44.630684" lon="4.789087">
        <ele>189.028763</ele>
        <time>2017-06-06T09:07:10.000Z</time>
      </trkpt>
      <trkpt lat="44.630566" lon="4.789076">
        <ele>189.299564</ele>
        <time>2017-06-06T09:07:13.000Z</time>
      </trkpt>
      <trkpt lat="44.630432" lon="4.789062">
        <ele>189.607256</ele>
        <time>2017-06-06T09:07:16.000Z</time>
      </trkpt>
      <trkpt lat="44.630320" lon="4.789043">
        <ele>189.865586</ele>
        <time>2017-06-06T09:07:19.000Z</time>
      </trkpt>
      <trkpt lat="44.630207" lon="4.789031">
        <ele>190.125082</ele>
        <time>2017-06-06T09:07:22.000Z</time>
      </trkpt>
      <trkpt lat="44.630090" lon="4.789021">
        <ele>190.393494</ele>
        <time>2017-06-06T09:07:25.000Z</time>
      </trkpt>
      <trkpt lat="44.629980" lon="4.789018">
        <ele>190.641042</ele>
        <time>2017-06-06T09:07:28.000Z</time>
      </trkpt>
      <trkpt lat="44.629880" lon="4.788998">
        <ele>190.855618</ele>
        <time>2017-06-06T09:07:31.000Z</time>
      </trkpt>
      <trkpt lat="44.629772" lon="4.788969">
        <ele>191.089199</ele>
        <time>2017-06-06T09:07:34.000Z</time>
      </trkpt>
      <trkpt lat="44.629658" lon="4.788946">
        <ele>191.333858</ele>
        <time>2017-06-06T09:07:37.000Z</time>
      </trkpt>
      <trkpt lat="44.629550" lon="4.788923">
        <ele>191.565907</ele>
        <time>2017-06-06T09:07:40.000Z</time>
      </trkpt>
      <trkpt lat="44.629448" lon="4.788898">
        <ele>191.785862</ele>
        <time>2017-06-06T09:07:43.000Z</time>
      </trkpt>
      <trkpt lat="44.629337" lon="4.788871">
        <ele>192.025172</ele>
        <time>2017-06-06T09:07:46.000Z</time>
      </trkpt>
      <trkpt lat="44.629240" lon="4.788845">
        <ele>192.234949</ele>
        <time>2017-06-06T09:07:49.000Z</time>
      </trkpt>
      <trkpt lat="44.629130" lon="4.788820">
        <ele>192.471664</ele>
        <time>2017-06-06T09:07:52.000Z</time>
      </trkpt>
      <trkpt lat="44.629032" lon="4.788790">
        <ele>192.684733</ele>
        <time>2017-06-06T09:07:55.000Z</time>
      </trkpt>
      <trkpt lat="44.628920" lon="4.788763">
        <ele>192.926136</ele>
        <time>2017-06-06T09:07:58.000Z</time>
      </trkpt>
      <trkpt lat="44.628822" lon="4.788736">
        <ele>193.138286</ele>
        <time>2017-06-06T09:08:01.000Z</time>
      </trkpt>
      <trkpt lat="44.628720" lon="4.788709">
        <ele>193.358781</ele>
        <time>2017-06-06T09:08:04.000Z</time>
      </trkpt>
      <trkpt lat="44.628610" lon="4.788690">
        <ele>193.594218</ele>
        <time>2017-06-06T09:08:07.000Z</time>
      </trkpt>
      <trkpt lat="44.628500" lon="4.788666">
        <ele>193.830697</ele>
        <time>2017-06-06T09:08:10.000Z</time>
      </trkpt>
      <trkpt lat="44.628400" lon="4.788643">
        <ele>194.045958</ele>
        <time>2017-06-06T09:08:13.000Z</time>
      </trkpt>
      <trkpt lat="44.628296" lon="4.788631">
        <ele>194.267634</ele>
        <time>2017-06-06T09:08:16.000Z</time>
      </trkpt>
      <trkpt lat="44.628190" lon="4.788622">
        <ele>194.476834</ele>
        <time>2017-06-06T09:08:19.000Z</time>
      </trkpt>
      <trkpt lat="44.628075" lon="4.788609">
        <ele>194.676033</ele>
        <time>2017-06-06T09:08:22.000Z</time>
      </trkpt>
      <trkpt lat="44.627956" lon="4.788589">
        <ele>194.882961</ele>
        <time>2017-06-06T09:08:25.000Z</time>
      </trkpt>
      <trkpt lat="44.627834" lon="4.788583">
        <ele>195.093734</ele>
        <time>2017-06-06T09:08:28.000Z</time>
      </trkpt>
      <trkpt lat="44.627716" lon="4.788583">
        <ele>195.297471</ele>
        <time>2017-06-06T09:08:31.000Z</time>
      </trkpt>
      <trkpt lat="44.627600" lon="4.788584">
        <ele>195.497759</ele>
        <time>2017-06-06T09:08:34.000Z</time>
      </trkpt>
      <trkpt lat="44.627480" lon="4.788584">
        <ele>195.704949</ele>
        <time>2017-06-06T09:08:37.000Z</time>
      </trkpt>
      <trkpt lat="44.627365" lon="4.788603">
        <ele>195.904875</ele>
        <time>2017-06-06T09:08:40.000Z</time>
      </trkpt>
      <trkpt lat="44.627250" lon="4.788622">
        <ele>196.104800</ele>
        <time>2017-06-06T09:08:43.000Z</time>
      </trkpt>
      <trkpt lat="44.627132" lon="4.788643">
        <ele>196.310165</ele>
        <time>2017-06-06T09:08:46.000Z</time>
      </trkpt>
      <trkpt lat="44.627018" lon="4.788664">
        <ele>196.508680</ele>
        <time>2017-06-06T09:08:49.000Z</time>
      </trkpt>
      <trkpt lat="44.626904" lon="4.788690">
        <ele>196.708087</ele>
        <time>2017-06-06T09:08:52.000Z</time>
      </trkpt>
      <trkpt lat="44.626780" lon="4.788711">
        <ele>196.923733</ele>
        <time>2017-06-06T09:08:55.000Z</time>
      </trkpt>
      <trkpt lat="44.626660" lon="4.788734">
        <ele>197.132842</ele>
        <time>2017-06-06T09:08:58.000Z</time>
      </trkpt>
      <trkpt lat="44.626540" lon="4.788751">
        <ele>197.341083</ele>
        <time>2017-06-06T09:09:01.000Z</time>
      </trkpt>
      <trkpt lat="44.626434" lon="4.788779">
        <ele>197.512156</ele>
        <time>2017-06-06T09:09:04.000Z</time>
      </trkpt>
      <trkpt lat="44.626320" lon="4.788799">
        <ele>197.523991</ele>
        <time>2017-06-06T09:09:07.000Z</time>
      </trkpt>
      <trkpt lat="44.626213" lon="4.788809">
        <ele>197.535038</ele>
        <time>2017-06-06T09:09:10.000Z</time>
      </trkpt>
      <trkpt lat="44.626083" lon="4.788829">
        <ele>197.548510</ele>
        <time>2017-06-06T09:09:13.000Z</time>
      </trkpt>
      <trkpt lat="44.625957" lon="4.788850">
        <ele>197.561581</ele>
        <time>2017-06-06T09:09:16.000Z</time>
      </trkpt>
      <trkpt lat="44.625835" lon="4.788872">
        <ele>197.574252</ele>
        <time>2017-06-06T09:09:19.000Z</time>
      </trkpt>
      <trkpt lat="44.625706" lon="4.788895">
        <ele>197.587648</ele>
        <time>2017-06-06T09:09:22.000Z</time>
      </trkpt>
      <trkpt lat="44.625580" lon="4.788923">
        <ele>197.600790</ele>
        <time>2017-06-06T09:09:25.000Z</time>
      </trkpt>
      <trkpt lat="44.625458" lon="4.788947">
        <ele>197.613480</ele>
        <time>2017-06-06T09:09:28.000Z</time>
      </trkpt>
      <trkpt lat="44.625330" lon="4.788969">
        <ele>197.626765</ele>
        <time>2017-06-06T09:09:31.000Z</time>
      </trkpt>
      <trkpt lat="44.625210" lon="4.788990">
        <ele>197.639222</ele>
        <time>2017-06-06T09:09:34.000Z</time>
      </trkpt>
      <trkpt lat="44.625080" lon="4.789008">
        <ele>197.652679</ele>
        <time>2017-06-06T09:09:37.000Z</time>
      </trkpt>
      <trkpt lat="44.624960" lon="4.789032">
        <ele>197.665166</ele>
        <time>2017-06-06T09:09:40.000Z</time>
      </trkpt>
      <trkpt lat="44.624847" lon="4.789048">
        <ele>197.676866</ele>
        <time>2017-06-06T09:09:43.000Z</time>
      </trkpt>
      <trkpt lat="44.624718" lon="4.789072">
        <ele>197.690271</ele>
        <time>2017-06-06T09:09:46.000Z</time>
      </trkpt>
      <trkpt lat="44.624603" lon="4.789092">
        <ele>197.654153</ele>
        <time>2017-06-06T09:09:49.000Z</time>
      </trkpt>
      <trkpt lat="44.624485" lon="4.789067">
        <ele>197.563230</ele>
        <time>2017-06-06T09:09:52.000Z</time>
      </trkpt>
      <trkpt lat="44.624386" lon="4.789016">
        <ele>197.482890</ele>
        <time>2017-06-06T09:09:55.000Z</time>
      </trkpt>
      <trkpt lat="44.624294" lon="4.788943">
        <ele>197.402388</ele>
        <time>2017-06-06T09:09:58.000Z</time>
      </trkpt>
      <trkpt lat="44.624195" lon="4.788883">
        <ele>197.320239</ele>
        <time>2017-06-06T09:10:01.000Z</time>
      </trkpt>
      <trkpt lat="44.624084" lon="4.788816">
        <ele>197.228192</ele>
        <time>2017-06-06T09:10:04.000Z</time>
      </trkpt>
      <trkpt lat="44.623974" lon="4.788756">
        <ele>197.138287</ele>
        <time>2017-06-06T09:10:07.000Z</time>
      </trkpt>
      <trkpt lat="44.623863" lon="4.788691">
        <ele>197.046662</ele>
        <time>2017-06-06T09:10:10.000Z</time>
      </trkpt>
      <trkpt lat="44.623750" lon="4.788626">
        <ele>196.953629</ele>
        <time>2017-06-06T09:10:13.000Z</time>
      </trkpt>
      <trkpt lat="44.623634" lon="4.788590">
        <ele>196.863116</ele>
        <time>2017-06-06T09:10:16.000Z</time>
      </trkpt>
      <trkpt lat="44.623516" lon="4.788587">
        <ele>196.773195</ele>
        <time>2017-06-06T09:10:19.000Z</time>
      </trkpt>
      <trkpt lat="44.623390" lon="4.788618">
        <ele>196.675732</ele>
        <time>2017-06-06T09:10:22.000Z</time>
      </trkpt>
      <trkpt lat="44.623272" lon="4.788663">
        <ele>196.582572</ele>
        <time>2017-06-06T09:10:25.000Z</time>
      </trkpt>
      <trkpt lat="44.623150" lon="4.788722">
        <ele>196.484266</ele>
        <time>2017-06-06T09:10:28.000Z</time>
      </trkpt>
      <trkpt lat="44.623028" lon="4.788770">
        <ele>196.387736</ele>
        <time>2017-06-06T09:10:31.000Z</time>
      </trkpt>
      <trkpt lat="44.622906" lon="4.788814">
        <ele>196.378784</ele>
        <time>2017-06-06T09:10:34.000Z</time>
      </trkpt>
      <trkpt lat="44.622790" lon="4.788857">
        <ele>196.519310</ele>
        <time>2017-06-06T09:10:37.000Z</time>
      </trkpt>
      <trkpt lat="44.622677" lon="4.788897">
        <ele>196.655808</ele>
        <time>2017-06-06T09:10:40.000Z</time>
      </trkpt>
      <trkpt lat="44.622562" lon="4.788924">
        <ele>196.792380</ele>
        <time>2017-06-06T09:10:43.000Z</time>
      </trkpt>
      <trkpt lat="44.622444" lon="4.788959">
        <ele>196.933645</ele>
        <time>2017-06-06T09:10:46.000Z</time>
      </trkpt>
      <trkpt lat="44.622322" lon="4.788986">
        <ele>197.078311</ele>
        <time>2017-06-06T09:10:49.000Z</time>
      </trkpt>
      <trkpt lat="44.622196" lon="4.789015">
        <ele>197.227868</ele>
        <time>2017-06-06T09:10:52.000Z</time>
      </trkpt>
      <trkpt lat="44.622078" lon="4.789036">
        <ele>197.367191</ele>
        <time>2017-06-06T09:10:55.000Z</time>
      </trkpt>
      <trkpt lat="44.621960" lon="4.789051">
        <ele>197.505974</ele>
        <time>2017-06-06T09:10:58.000Z</time>
      </trkpt>
      <trkpt lat="44.621840" lon="4.789069">
        <ele>197.647334</ele>
        <time>2017-06-06T09:11:01.000Z</time>
      </trkpt>
      <trkpt lat="44.621730" lon="4.789077">
        <ele>197.776354</ele>
        <time>2017-06-06T09:11:04.000Z</time>
      </trkpt>
      <trkpt lat="44.621616" lon="4.789086">
        <ele>197.910098</ele>
        <time>2017-06-06T09:11:07.000Z</time>
      </trkpt>
      <trkpt lat="44.621494" lon="4.789098">
        <ele>198.053351</ele>
        <time>2017-06-06T09:11:10.000Z</time>
      </trkpt>
      <trkpt lat="44.621372" lon="4.789120">
        <ele>198.197428</ele>
        <time>2017-06-06T09:11:13.000Z</time>
      </trkpt>
      <trkpt lat="44.621250" lon="4.789126">
        <ele>198.340419</ele>
        <time>2017-06-06T09:11:16.000Z</time>
      </trkpt>
      <trkpt lat="44.621124" lon="4.789156">
        <ele>198.441408</ele>
        <time>2017-06-06T09:11:19.000Z</time>
      </trkpt>
      <trkpt lat="44.620995" lon="4.789176">
        <ele>198.464036</ele>
        <time>2017-06-06T09:11:22.000Z</time>
      </trkpt>
      <trkpt lat="44.620860" lon="4.789190">
        <ele>198.487638</ele>
        <time>2017-06-06T09:11:25.000Z</time>
      </trkpt>
      <trkpt lat="44.620730" lon="4.789213">
        <ele>198.510483</ele>
        <time>2017-06-06T09:11:28.000Z</time>
      </trkpt>
      <trkpt lat="44.620644" lon="4.789232">
        <ele>198.525662</ele>
        <time>2017-06-06T09:11:30.000Z</time>
      </trkpt>
      <trkpt lat="44.620510" lon="4.789254">
        <ele>198.549184</ele>
        <time>2017-06-06T09:11:33.000Z</time>
      </trkpt>
      <trkpt lat="44.620380" lon="4.789279">
        <ele>198.572061</ele>
        <time>2017-06-06T09:11:36.000Z</time>
      </trkpt>
      <trkpt lat="44.620250" lon="4.789303">
        <ele>198.594922</ele>
        <time>2017-06-06T09:11:39.000Z</time>
      </trkpt>
      <trkpt lat="44.620120" lon="4.789325">
        <ele>198.617752</ele>
        <time>2017-06-06T09:11:42.000Z</time>
      </trkpt>
      <trkpt lat="44.619984" lon="4.789335">
        <ele>198.641496</ele>
        <time>2017-06-06T09:11:45.000Z</time>
      </trkpt>
      <trkpt lat="44.619865" lon="4.789332">
        <ele>198.662247</ele>
        <time>2017-06-06T09:11:48.000Z</time>
      </trkpt>
      <trkpt lat="44.619766" lon="4.789315">
        <ele>198.679637</ele>
        <time>2017-06-06T09:11:51.000Z</time>
      </trkpt>
      <trkpt lat="44.619660" lon="4.789305">
        <ele>198.698160</ele>
        <time>2017-06-06T09:11:54.000Z</time>
      </trkpt>
      <trkpt lat="44.619553" lon="4.789299">
        <ele>198.716831</ele>
        <time>2017-06-06T09:11:57.000Z</time>
      </trkpt>
      <trkpt lat="44.619442" lon="4.789293">
        <ele>198.736198</ele>
        <time>2017-06-06T09:12:00.000Z</time>
      </trkpt>
      <trkpt lat="44.619324" lon="4.789289">
        <ele>198.766038</ele>
        <time>2017-06-06T09:12:03.000Z</time>
      </trkpt>
      <trkpt lat="44.619198" lon="4.789282">
        <ele>198.807814</ele>
        <time>2017-06-06T09:12:06.000Z</time>
      </trkpt>
      <trkpt lat="44.619076" lon="4.789287">
        <ele>198.848250</ele>
        <time>2017-06-06T09:12:09.000Z</time>
      </trkpt>
      <trkpt lat="44.618958" lon="4.789276">
        <ele>198.887429</ele>
        <time>2017-06-06T09:12:12.000Z</time>
      </trkpt>
      <trkpt lat="44.618847" lon="4.789284">
        <ele>198.924251</ele>
        <time>2017-06-06T09:12:15.000Z</time>
      </trkpt>
      <trkpt lat="44.618744" lon="4.789297">
        <ele>198.958512</ele>
        <time>2017-06-06T09:12:18.000Z</time>
      </trkpt>
      <trkpt lat="44.618645" lon="4.789301">
        <ele>198.991324</ele>
        <time>2017-06-06T09:12:21.000Z</time>
      </trkpt>
      <trkpt lat="44.618546" lon="4.789295">
        <ele>199.024153</ele>
        <time>2017-06-06T09:12:24.000Z</time>
      </trkpt>
      <trkpt lat="44.618446" lon="4.789300">
        <ele>199.057304</ele>
        <time>2017-06-06T09:12:27.000Z</time>
      </trkpt>
      <trkpt lat="44.618336" lon="4.789323">
        <ele>199.094148</ele>
        <time>2017-06-06T09:12:30.000Z</time>
      </trkpt>
      <trkpt lat="44.618244" lon="4.789334">
        <ele>199.124738</ele>
        <time>2017-06-06T09:12:32.000Z</time>
      </trkpt>
      <trkpt lat="44.618150" lon="4.789338">
        <ele>199.155894</ele>
        <time>2017-06-06T09:12:34.000Z</time>
      </trkpt>
      <trkpt lat="44.618023" lon="4.789331">
        <ele>199.198001</ele>
        <time>2017-06-06T09:12:37.000Z</time>
      </trkpt>
      <trkpt lat="44.617890" lon="4.789303">
        <ele>199.242556</ele>
        <time>2017-06-06T09:12:40.000Z</time>
      </trkpt>
      <trkpt lat="44.617794" lon="4.789288">
        <ele>199.274556</ele>
        <time>2017-06-06T09:12:42.000Z</time>
      </trkpt>
      <trkpt lat="44.617702" lon="4.789266">
        <ele>199.305474</ele>
        <time>2017-06-06T09:12:44.000Z</time>
      </trkpt>
      <trkpt lat="44.617607" lon="4.789242">
        <ele>199.337452</ele>
        <time>2017-06-06T09:12:46.000Z</time>
      </trkpt>
      <trkpt lat="44.617510" lon="4.789223">
        <ele>199.051797</ele>
        <time>2017-06-06T09:12:48.000Z</time>
      </trkpt>
      <trkpt lat="44.617416" lon="4.789200">
        <ele>198.718064</ele>
        <time>2017-06-06T09:12:50.000Z</time>
      </trkpt>
      <trkpt lat="44.617320" lon="4.789183">
        <ele>198.379628</ele>
        <time>2017-06-06T09:12:52.000Z</time>
      </trkpt>
      <trkpt lat="44.617230" lon="4.789169">
        <ele>198.062911</ele>
        <time>2017-06-06T09:12:54.000Z</time>
      </trkpt>
      <trkpt lat="44.617100" lon="4.789142">
        <ele>197.603267</ele>
        <time>2017-06-06T09:12:57.000Z</time>
      </trkpt>
      <trkpt lat="44.616980" lon="4.789109">
        <ele>197.175577</ele>
        <time>2017-06-06T09:13:00.000Z</time>
      </trkpt>
      <trkpt lat="44.616800" lon="4.789034">
        <ele>196.518883</ele>
        <time>2017-06-06T09:14:23.000Z</time>
      </trkpt>
      <trkpt lat="44.616690" lon="4.788999">
        <ele>196.124392</ele>
        <time>2017-06-06T09:14:26.000Z</time>
      </trkpt>
      <trkpt lat="44.616558" lon="4.788964">
        <ele>195.654543</ele>
        <time>2017-06-06T09:14:29.000Z</time>
      </trkpt>
      <trkpt lat="44.616467" lon="4.788941">
        <ele>195.331142</ele>
        <time>2017-06-06T09:14:31.000Z</time>
      </trkpt>
      <trkpt lat="44.616380" lon="4.788915">
        <ele>195.020033</ele>
        <time>2017-06-06T09:14:33.000Z</time>
      </trkpt>
      <trkpt lat="44.616287" lon="4.788897">
        <ele>194.691674</ele>
        <time>2017-06-06T09:14:35.000Z</time>
      </trkpt>
      <trkpt lat="44.616190" lon="4.788868">
        <ele>194.344799</ele>
        <time>2017-06-06T09:14:37.000Z</time>
      </trkpt>
      <trkpt lat="44.616100" lon="4.788842">
        <ele>194.023419</ele>
        <time>2017-06-06T09:14:39.000Z</time>
      </trkpt>
      <trkpt lat="44.615974" lon="4.788803">
        <ele>193.572139</ele>
        <time>2017-06-06T09:14:42.000Z</time>
      </trkpt>
      <trkpt lat="44.615887" lon="4.788778">
        <ele>193.261538</ele>
        <time>2017-06-06T09:14:44.000Z</time>
      </trkpt>
      <trkpt lat="44.615788" lon="4.788752">
        <ele>193.039748</ele>
        <time>2017-06-06T09:14:46.000Z</time>
      </trkpt>
      <trkpt lat="44.615692" lon="4.788725">
        <ele>193.011986</ele>
        <time>2017-06-06T09:14:48.000Z</time>
      </trkpt>
      <trkpt lat="44.615585" lon="4.788699">
        <ele>192.981195</ele>
        <time>2017-06-06T09:14:50.000Z</time>
      </trkpt>
      <trkpt lat="44.615480" lon="4.788670">
        <ele>192.950852</ele>
        <time>2017-06-06T09:14:52.000Z</time>
      </trkpt>
      <trkpt lat="44.615376" lon="4.788640">
        <ele>192.920746</ele>
        <time>2017-06-06T09:14:54.000Z</time>
      </trkpt>
      <trkpt lat="44.615276" lon="4.788611">
        <ele>192.891793</ele>
        <time>2017-06-06T09:14:56.000Z</time>
      </trkpt>
      <trkpt lat="44.615173" lon="4.788582">
        <ele>192.862005</ele>
        <time>2017-06-06T09:14:58.000Z</time>
      </trkpt>
      <trkpt lat="44.615078" lon="4.788560">
        <ele>192.834704</ele>
        <time>2017-06-06T09:15:00.000Z</time>
      </trkpt>
      <trkpt lat="44.614975" lon="4.788526">
        <ele>192.804702</ele>
        <time>2017-06-06T09:15:02.000Z</time>
      </trkpt>
      <trkpt lat="44.614883" lon="4.788497">
        <ele>192.777966</ele>
        <time>2017-06-06T09:15:04.000Z</time>
      </trkpt>
      <trkpt lat="44.614788" lon="4.788473">
        <ele>192.750596</ele>
        <time>2017-06-06T09:15:06.000Z</time>
      </trkpt>
      <trkpt lat="44.614693" lon="4.788443">
        <ele>192.722986</ele>
        <time>2017-06-06T09:15:08.000Z</time>
      </trkpt>
      <trkpt lat="44.614594" lon="4.788420">
        <ele>192.694532</ele>
        <time>2017-06-06T09:15:10.000Z</time>
      </trkpt>
      <trkpt lat="44.614494" lon="4.788409">
        <ele>192.666090</ele>
        <time>2017-06-06T09:15:12.000Z</time>
      </trkpt>
      <trkpt lat="44.614400" lon="4.788403">
        <ele>192.639408</ele>
        <time>2017-06-06T09:15:14.000Z</time>
      </trkpt>
      <trkpt lat="44.614270" lon="4.788397">
        <ele>192.602526</ele>
        <time>2017-06-06T09:15:17.000Z</time>
      </trkpt>
      <trkpt lat="44.614180" lon="4.788420">
        <ele>192.576586</ele>
        <time>2017-06-06T09:15:19.000Z</time>
      </trkpt>
      <trkpt lat="44.614086" lon="4.788445">
        <ele>192.549459</ele>
        <time>2017-06-06T09:15:21.000Z</time>
      </trkpt>
      <trkpt lat="44.614000" lon="4.788486">
        <ele>192.458888</ele>
        <time>2017-06-06T09:15:23.000Z</time>
      </trkpt>
      <trkpt lat="44.613900" lon="4.788540">
        <ele>192.316208</ele>
        <time>2017-06-06T09:15:25.000Z</time>
      </trkpt>
      <trkpt lat="44.613804" lon="4.788584">
        <ele>192.181723</ele>
        <time>2017-06-06T09:15:27.000Z</time>
      </trkpt>
      <trkpt lat="44.613705" lon="4.788629">
        <ele>192.043144</ele>
        <time>2017-06-06T09:15:29.000Z</time>
      </trkpt>
      <trkpt lat="44.613610" lon="4.788676">
        <ele>191.909007</ele>
        <time>2017-06-06T09:15:31.000Z</time>
      </trkpt>
      <trkpt lat="44.613503" lon="4.788724">
        <ele>191.759415</ele>
        <time>2017-06-06T09:15:33.000Z</time>
      </trkpt>
      <trkpt lat="44.613390" lon="4.788773">
        <ele>191.601915</ele>
        <time>2017-06-06T09:15:35.000Z</time>
      </trkpt>
      <trkpt lat="44.613277" lon="4.788821">
        <ele>191.444692</ele>
        <time>2017-06-06T09:15:37.000Z</time>
      </trkpt>
      <trkpt lat="44.613167" lon="4.788859">
        <ele>191.293830</ele>
        <time>2017-06-06T09:15:39.000Z</time>
      </trkpt>
      <trkpt lat="44.613050" lon="4.788889">
        <ele>191.135435</ele>
        <time>2017-06-06T09:15:41.000Z</time>
      </trkpt>
      <trkpt lat="44.612926" lon="4.788920">
        <ele>190.967698</ele>
        <time>2017-06-06T09:15:43.000Z</time>
      </trkpt>
      <trkpt lat="44.612810" lon="4.788946">
        <ele>190.811255</ele>
        <time>2017-06-06T09:15:45.000Z</time>
      </trkpt>
      <trkpt lat="44.612694" lon="4.788951">
        <ele>190.656694</ele>
        <time>2017-06-06T09:15:47.000Z</time>
      </trkpt>
      <trkpt lat="44.612583" lon="4.788956">
        <ele>190.508789</ele>
        <time>2017-06-06T09:15:49.000Z</time>
      </trkpt>
      <trkpt lat="44.612473" lon="4.788945">
        <ele>190.361920</ele>
        <time>2017-06-06T09:15:51.000Z</time>
      </trkpt>
      <trkpt lat="44.612362" lon="4.788936">
        <ele>190.213845</ele>
        <time>2017-06-06T09:15:53.000Z</time>
      </trkpt>
      <trkpt lat="44.612255" lon="4.788919">
        <ele>190.286431</ele>
        <time>2017-06-06T09:15:55.000Z</time>
      </trkpt>
      <trkpt lat="44.612150" lon="4.788899">
        <ele>190.549681</ele>
        <time>2017-06-06T09:15:57.000Z</time>
      </trkpt>
      <trkpt lat="44.612038" lon="4.788889">
        <ele>190.828496</ele>
        <time>2017-06-06T09:15:59.000Z</time>
      </trkpt>
      <trkpt lat="44.611927" lon="4.788882">
        <ele>191.104542</ele>
        <time>2017-06-06T09:16:01.000Z</time>
      </trkpt>
      <trkpt lat="44.611820" lon="4.788871">
        <ele>191.371084</ele>
        <time>2017-06-06T09:16:03.000Z</time>
      </trkpt>
      <trkpt lat="44.611720" lon="4.788856">
        <ele>191.620937</ele>
        <time>2017-06-06T09:16:05.000Z</time>
      </trkpt>
      <trkpt lat="44.611630" lon="4.788844">
        <ele>191.845538</ele>
        <time>2017-06-06T09:16:07.000Z</time>
      </trkpt>
      <trkpt lat="44.611534" lon="4.788829">
        <ele>192.085512</ele>
        <time>2017-06-06T09:16:09.000Z</time>
      </trkpt>
      <trkpt lat="44.611435" lon="4.788818">
        <ele>192.332236</ele>
        <time>2017-06-06T09:16:11.000Z</time>
      </trkpt>
      <trkpt lat="44.611340" lon="4.788813">
        <ele>192.568420</ele>
        <time>2017-06-06T09:16:13.000Z</time>
      </trkpt>
      <trkpt lat="44.611240" lon="4.788804">
        <ele>192.817370</ele>
        <time>2017-06-06T09:16:15.000Z</time>
      </trkpt>
      <trkpt lat="44.611137" lon="4.788789">
        <ele>193.074635</ele>
        <time>2017-06-06T09:16:17.000Z</time>
      </trkpt>
      <trkpt lat="44.611050" lon="4.788787">
        <ele>193.290807</ele>
        <time>2017-06-06T09:16:19.000Z</time>
      </trkpt>
      <trkpt lat="44.610930" lon="4.788794">
        <ele>193.589193</ele>
        <time>2017-06-06T09:16:22.000Z</time>
      </trkpt>
      <trkpt lat="44.610830" lon="4.788788">
        <ele>193.837859</ele>
        <time>2017-06-06T09:16:26.000Z</time>
      </trkpt>
      <trkpt lat="44.610706" lon="4.788878">
        <ele>194.184619</ele>
        <time>2017-06-06T09:17:26.000Z</time>
      </trkpt>
      <trkpt lat="44.610615" lon="4.788926">
        <ele>194.426113</ele>
        <time>2017-06-06T09:19:19.000Z</time>
      </trkpt>
      <trkpt lat="44.610523" lon="4.788971">
        <ele>194.575912</ele>
        <time>2017-06-06T09:21:40.000Z</time>
      </trkpt>
      <trkpt lat="44.610435" lon="4.789015">
        <ele>194.409929</ele>
        <time>2017-06-06T09:21:49.000Z</time>
      </trkpt>
      <trkpt lat="44.610330" lon="4.789066">
        <ele>194.212509</ele>
        <time>2017-06-06T09:21:53.000Z</time>
      </trkpt>
      <trkpt lat="44.610233" lon="4.789114">
        <ele>194.029762</ele>
        <time>2017-06-06T09:21:56.000Z</time>
      </trkpt>
      <trkpt lat="44.610146" lon="4.789149">
        <ele>193.868952</ele>
        <time>2017-06-06T09:21:59.000Z</time>
      </trkpt>
      <trkpt lat="44.610054" lon="4.789182">
        <ele>193.700226</ele>
        <time>2017-06-06T09:22:02.000Z</time>
      </trkpt>
      <trkpt lat="44.609966" lon="4.789217">
        <ele>193.537706</ele>
        <time>2017-06-06T09:22:05.000Z</time>
      </trkpt>
      <trkpt lat="44.609880" lon="4.789246">
        <ele>193.380546</ele>
        <time>2017-06-06T09:22:08.000Z</time>
      </trkpt>
      <trkpt lat="44.609760" lon="4.789285">
        <ele>193.161679</ele>
        <time>2017-06-06T09:22:11.000Z</time>
      </trkpt>
      <trkpt lat="44.609673" lon="4.789308">
        <ele>193.004369</ele>
        <time>2017-06-06T09:22:13.000Z</time>
      </trkpt>
      <trkpt lat="44.609550" lon="4.789323">
        <ele>192.784982</ele>
        <time>2017-06-06T09:22:16.000Z</time>
      </trkpt>
      <trkpt lat="44.609440" lon="4.789313">
        <ele>192.589107</ele>
        <time>2017-06-06T09:22:19.000Z</time>
      </trkpt>
      <trkpt lat="44.609330" lon="4.789310">
        <ele>192.393605</ele>
        <time>2017-06-06T09:22:22.000Z</time>
      </trkpt>
      <trkpt lat="44.609207" lon="4.789313">
        <ele>192.175007</ele>
        <time>2017-06-06T09:22:25.000Z</time>
      </trkpt>
      <trkpt lat="44.609077" lon="4.789327">
        <ele>191.943325</ele>
        <time>2017-06-06T09:22:28.000Z</time>
      </trkpt>
      <trkpt lat="44.608944" lon="4.789349">
        <ele>191.705357</ele>
        <time>2017-06-06T09:22:31.000Z</time>
      </trkpt>
      <trkpt lat="44.608810" lon="4.789377">
        <ele>191.464624</ele>
        <time>2017-06-06T09:22:34.000Z</time>
      </trkpt>
      <trkpt lat="44.608696" lon="4.789406">
        <ele>191.262115</ele>
        <time>2017-06-06T09:22:37.000Z</time>
      </trkpt>
      <trkpt lat="44.608562" lon="4.789448">
        <ele>191.023285</ele>
        <time>2017-06-06T09:22:40.000Z</time>
      </trkpt>
      <trkpt lat="44.608460" lon="4.789453">
        <ele>190.845744</ele>
        <time>2017-06-06T09:22:42.000Z</time>
      </trkpt>
      <trkpt lat="44.608368" lon="4.789475">
        <ele>190.683405</ele>
        <time>2017-06-06T09:22:44.000Z</time>
      </trkpt>
      <trkpt lat="44.608276" lon="4.789494">
        <ele>190.521647</ele>
        <time>2017-06-06T09:22:46.000Z</time>
      </trkpt>
      <trkpt lat="44.608190" lon="4.789528">
        <ele>190.366234</ele>
        <time>2017-06-06T09:22:48.000Z</time>
      </trkpt>
      <trkpt lat="44.608097" lon="4.789543">
        <ele>190.203394</ele>
        <time>2017-06-06T09:22:50.000Z</time>
      </trkpt>
      <trkpt lat="44.607975" lon="4.789591">
        <ele>189.983003</ele>
        <time>2017-06-06T09:22:53.000Z</time>
      </trkpt>
      <trkpt lat="44.607850" lon="4.789649">
        <ele>189.754005</ele>
        <time>2017-06-06T09:22:56.000Z</time>
      </trkpt>
      <trkpt lat="44.607760" lon="4.789697">
        <ele>189.586541</ele>
        <time>2017-06-06T09:22:58.000Z</time>
      </trkpt>
      <trkpt lat="44.607666" lon="4.789762">
        <ele>189.404284</ele>
        <time>2017-06-06T09:23:00.000Z</time>
      </trkpt>
      <trkpt lat="44.607555" lon="4.789791">
        <ele>189.207884</ele>
        <time>2017-06-06T09:23:02.000Z</time>
      </trkpt>
      <trkpt lat="44.607440" lon="4.789828">
        <ele>189.002657</ele>
        <time>2017-06-06T09:23:04.000Z</time>
      </trkpt>
      <trkpt lat="44.607330" lon="4.789872">
        <ele>188.803701</ele>
        <time>2017-06-06T09:23:06.000Z</time>
      </trkpt>
      <trkpt lat="44.607220" lon="4.789920">
        <ele>188.603331</ele>
        <time>2017-06-06T09:23:08.000Z</time>
      </trkpt>
      <trkpt lat="44.607110" lon="4.789968">
        <ele>188.402961</ele>
        <time>2017-06-06T09:23:10.000Z</time>
      </trkpt>
      <trkpt lat="44.607000" lon="4.790021">
        <ele>188.253126</ele>
        <time>2017-06-06T09:23:12.000Z</time>
      </trkpt>
      <trkpt lat="44.606895" lon="4.790071">
        <ele>188.174208</ele>
        <time>2017-06-06T09:23:14.000Z</time>
      </trkpt>
      <trkpt lat="44.606790" lon="4.790116">
        <ele>188.096067</ele>
        <time>2017-06-06T09:23:16.000Z</time>
      </trkpt>
      <trkpt lat="44.606690" lon="4.790167">
        <ele>188.020340</ele>
        <time>2017-06-06T09:23:18.000Z</time>
      </trkpt>
      <trkpt lat="44.606598" lon="4.790224">
        <ele>187.948767</ele>
        <time>2017-06-06T09:23:20.000Z</time>
      </trkpt>
      <trkpt lat="44.606510" lon="4.790291">
        <ele>187.877518</ele>
        <time>2017-06-06T09:23:22.000Z</time>
      </trkpt>
      <trkpt lat="44.606430" lon="4.790380">
        <ele>187.804876</ele>
        <time>2017-06-06T09:23:24.000Z</time>
      </trkpt>
      <trkpt lat="44.606346" lon="4.790479">
        <ele>187.726824</ele>
        <time>2017-06-06T09:23:26.000Z</time>
      </trkpt>
      <trkpt lat="44.606260" lon="4.790577">
        <ele>187.647997</ele>
        <time>2017-06-06T09:23:28.000Z</time>
      </trkpt>
      <trkpt lat="44.606167" lon="4.790668">
        <ele>187.567320</ele>
        <time>2017-06-06T09:23:30.000Z</time>
      </trkpt>
      <trkpt lat="44.606064" lon="4.790740">
        <ele>187.485427</ele>
        <time>2017-06-06T09:23:32.000Z</time>
      </trkpt>
      <trkpt lat="44.605965" lon="4.790807">
        <ele>187.407205</ele>
        <time>2017-06-06T09:23:34.000Z</time>
      </trkpt>
      <trkpt lat="44.605860" lon="4.790873">
        <ele>187.325323</ele>
        <time>2017-06-06T09:23:36.000Z</time>
      </trkpt>
      <trkpt lat="44.605762" lon="4.790929">
        <ele>187.250015</ele>
        <time>2017-06-06T09:23:38.000Z</time>
      </trkpt>
      <trkpt lat="44.605667" lon="4.790995">
        <ele>187.174574</ele>
        <time>2017-06-06T09:23:40.000Z</time>
      </trkpt>
      <trkpt lat="44.605583" lon="4.791057">
        <ele>187.107030</ele>
        <time>2017-06-06T09:23:42.000Z</time>
      </trkpt>
      <trkpt lat="44.605526" lon="4.791167">
        <ele>187.038083</ele>
        <time>2017-06-06T09:23:45.000Z</time>
      </trkpt>
      <trkpt lat="44.605526" lon="4.791304">
        <ele>187.289302</ele>
        <time>2017-06-06T09:23:50.000Z</time>
      </trkpt>
      <trkpt lat="44.605545" lon="4.791158">
        <ele>187.809220</ele>
        <time>2017-06-06T09:25:41.000Z</time>
      </trkpt>
      <trkpt lat="44.605570" lon="4.791028">
        <ele>188.280935</ele>
        <time>2017-06-06T09:25:45.000Z</time>
      </trkpt>
      <trkpt lat="44.605568" lon="4.790889">
        <ele>188.767956</ele>
        <time>2017-06-06T09:25:49.000Z</time>
      </trkpt>
      <trkpt lat="44.605568" lon="4.790741">
        <ele>189.286406</ele>
        <time>2017-06-06T09:25:53.000Z</time>
      </trkpt>
      <trkpt lat="44.605570" lon="4.790610">
        <ele>189.745409</ele>
        <time>2017-06-06T09:25:57.000Z</time>
      </trkpt>
      <trkpt lat="44.605576" lon="4.790457">
        <ele>190.282186</ele>
        <time>2017-06-06T09:26:02.000Z</time>
      </trkpt>
      <trkpt lat="44.605553" lon="4.790302">
        <ele>190.836824</ele>
        <time>2017-06-06T09:26:07.000Z</time>
      </trkpt>
      <trkpt lat="44.605560" lon="4.790151">
        <ele>191.366903</ele>
        <time>2017-06-06T09:26:12.000Z</time>
      </trkpt>
      <trkpt lat="44.605560" lon="4.790011">
        <ele>191.857328</ele>
        <time>2017-06-06T09:26:17.000Z</time>
      </trkpt>
      <trkpt lat="44.605556" lon="4.789873">
        <ele>192.341148</ele>
        <time>2017-06-06T09:26:22.000Z</time>
      </trkpt>
      <trkpt lat="44.605553" lon="4.789739">
        <ele>192.810787</ele>
        <time>2017-06-06T09:26:27.000Z</time>
      </trkpt>
      <trkpt lat="44.605545" lon="4.789597">
        <ele>193.309773</ele>
        <time>2017-06-06T09:26:32.000Z</time>
      </trkpt>
      <trkpt lat="44.605522" lon="4.789465">
        <ele>193.785821</ele>
        <time>2017-06-06T09:26:37.000Z</time>
      </trkpt>
      <trkpt lat="44.605480" lon="4.789342">
        <ele>194.263688</ele>
        <time>2017-06-06T09:26:42.000Z</time>
      </trkpt>
      <trkpt lat="44.605442" lon="4.789219">
        <ele>194.733380</ele>
        <time>2017-06-06T09:26:47.000Z</time>
      </trkpt>
      <trkpt lat="44.605410" lon="4.789067">
        <ele>195.288634</ele>
        <time>2017-06-06T09:26:52.000Z</time>
      </trkpt>
      <trkpt lat="44.605377" lon="4.788921">
        <ele>195.825234</ele>
        <time>2017-06-06T09:26:57.000Z</time>
      </trkpt>
      <trkpt lat="44.605350" lon="4.788778">
        <ele>196.094707</ele>
        <time>2017-06-06T09:27:02.000Z</time>
      </trkpt>
      <trkpt lat="44.605324" lon="4.788636">
        <ele>196.344577</ele>
        <time>2017-06-06T09:27:07.000Z</time>
      </trkpt>
      <trkpt lat="44.605267" lon="4.788540">
        <ele>196.557606</ele>
        <time>2017-06-06T09:27:11.000Z</time>
      </trkpt>
      <trkpt lat="44.605198" lon="4.788443">
        <ele>196.791284</ele>
        <time>2017-06-06T09:27:15.000Z</time>
      </trkpt>
      <trkpt lat="44.605118" lon="4.788348">
        <ele>197.042044</ele>
        <time>2017-06-06T09:27:19.000Z</time>
      </trkpt>
      <trkpt lat="44.605038" lon="4.788257">
        <ele>197.288458</ele>
        <time>2017-06-06T09:27:23.000Z</time>
      </trkpt>
      <trkpt lat="44.604954" lon="4.788160">
        <ele>197.548756</ele>
        <time>2017-06-06T09:27:27.000Z</time>
      </trkpt>
      <trkpt lat="44.604870" lon="4.788055">
        <ele>197.817918</ele>
        <time>2017-06-06T09:27:31.000Z</time>
      </trkpt>
      <trkpt lat="44.604786" lon="4.787962">
        <ele>198.073941</ele>
        <time>2017-06-06T09:27:35.000Z</time>
      </trkpt>
      <trkpt lat="44.604694" lon="4.787859">
        <ele>198.355557</ele>
        <time>2017-06-06T09:27:39.000Z</time>
      </trkpt>
      <trkpt lat="44.604614" lon="4.787789">
        <ele>198.581169</ele>
        <time>2017-06-06T09:27:42.000Z</time>
      </trkpt>
      <trkpt lat="44.604530" lon="4.787707">
        <ele>198.826031</ele>
        <time>2017-06-06T09:27:46.000Z</time>
      </trkpt>
      <trkpt lat="44.604435" lon="4.787619">
        <ele>199.098430</ele>
        <time>2017-06-06T09:27:51.000Z</time>
      </trkpt>
      <trkpt lat="44.604340" lon="4.787570">
        <ele>199.340676</ele>
        <time>2017-06-06T09:27:55.000Z</time>
      </trkpt>
      <trkpt lat="44.604256" lon="4.787520">
        <ele>199.559054</ele>
        <time>2017-06-06T09:27:59.000Z</time>
      </trkpt>
      <trkpt lat="44.604168" lon="4.787449">
        <ele>199.801976</ele>
        <time>2017-06-06T09:28:03.000Z</time>
      </trkpt>
      <trkpt lat="44.604084" lon="4.787367">
        <ele>200.046838</ele>
        <time>2017-06-06T09:28:07.000Z</time>
      </trkpt>
      <trkpt lat="44.604004" lon="4.787299">
        <ele>200.182681</ele>
        <time>2017-06-06T09:28:10.000Z</time>
      </trkpt>
      <trkpt lat="44.603912" lon="4.787207">
        <ele>200.229261</ele>
        <time>2017-06-06T09:28:14.000Z</time>
      </trkpt>
      <trkpt lat="44.603840" lon="4.787123">
        <ele>200.267865</ele>
        <time>2017-06-06T09:28:17.000Z</time>
      </trkpt>
      <trkpt lat="44.603770" lon="4.787026">
        <ele>200.308422</ele>
        <time>2017-06-06T09:28:20.000Z</time>
      </trkpt>
      <trkpt lat="44.603690" lon="4.786900">
        <ele>200.357998</ele>
        <time>2017-06-06T09:28:24.000Z</time>
      </trkpt>
      <trkpt lat="44.603630" lon="4.786799">
        <ele>200.396625</ele>
        <time>2017-06-06T09:28:27.000Z</time>
      </trkpt>
      <trkpt lat="44.603560" lon="4.786703">
        <ele>200.436977</ele>
        <time>2017-06-06T09:28:30.000Z</time>
      </trkpt>
      <trkpt lat="44.603480" lon="4.786612">
        <ele>200.479436</ele>
        <time>2017-06-06T09:28:33.000Z</time>
      </trkpt>
      <trkpt lat="44.603382" lon="4.786531">
        <ele>200.526335</ele>
        <time>2017-06-06T09:28:36.000Z</time>
      </trkpt>
      <trkpt lat="44.603287" lon="4.786449">
        <ele>200.572325</ele>
        <time>2017-06-06T09:28:39.000Z</time>
      </trkpt>
      <trkpt lat="44.603195" lon="4.786365">
        <ele>200.617583</ele>
        <time>2017-06-06T09:28:42.000Z</time>
      </trkpt>
      <trkpt lat="44.603110" lon="4.786290">
        <ele>200.658985</ele>
        <time>2017-06-06T09:28:45.000Z</time>
      </trkpt>
      <trkpt lat="44.603024" lon="4.786218">
        <ele>200.700279</ele>
        <time>2017-06-06T09:28:48.000Z</time>
      </trkpt>
      <trkpt lat="44.602940" lon="4.786145">
        <ele>200.741020</ele>
        <time>2017-06-06T09:28:51.000Z</time>
      </trkpt>
      <trkpt lat="44.602848" lon="4.786076">
        <ele>200.784036</ele>
        <time>2017-06-06T09:28:54.000Z</time>
      </trkpt>
      <trkpt lat="44.602757" lon="4.785998">
        <ele>200.828006</ele>
        <time>2017-06-06T09:28:57.000Z</time>
      </trkpt>
      <trkpt lat="44.602657" lon="4.785924">
        <ele>200.874625</ele>
        <time>2017-06-06T09:29:00.000Z</time>
      </trkpt>
      <trkpt lat="44.602573" lon="4.785837">
        <ele>200.896062</ele>
        <time>2017-06-06T09:29:03.000Z</time>
      </trkpt>
      <trkpt lat="44.602486" lon="4.785751">
        <ele>200.857243</ele>
        <time>2017-06-06T09:29:06.000Z</time>
      </trkpt>
      <trkpt lat="44.602398" lon="4.785664">
        <ele>200.817976</ele>
        <time>2017-06-06T09:29:09.000Z</time>
      </trkpt>
      <trkpt lat="44.602314" lon="4.785576">
        <ele>200.779739</ele>
        <time>2017-06-06T09:29:12.000Z</time>
      </trkpt>
      <trkpt lat="44.602238" lon="4.785488">
        <ele>200.743799</ele>
        <time>2017-06-06T09:29:15.000Z</time>
      </trkpt>
      <trkpt lat="44.602170" lon="4.785398">
        <ele>200.709706</ele>
        <time>2017-06-06T09:29:18.000Z</time>
      </trkpt>
      <trkpt lat="44.602097" lon="4.785290">
        <ele>200.671018</ele>
        <time>2017-06-06T09:29:21.000Z</time>
      </trkpt>
      <trkpt lat="44.602024" lon="4.785173">
        <ele>200.630603</ele>
        <time>2017-06-06T09:29:24.000Z</time>
      </trkpt>
      <trkpt lat="44.601960" lon="4.785060">
        <ele>200.593091</ele>
        <time>2017-06-06T09:29:27.000Z</time>
      </trkpt>
      <trkpt lat="44.601894" lon="4.784947">
        <ele>200.555120</ele>
        <time>2017-06-06T09:29:30.000Z</time>
      </trkpt>
      <trkpt lat="44.601820" lon="4.784823">
        <ele>200.513086</ele>
        <time>2017-06-06T09:29:33.000Z</time>
      </trkpt>
      <trkpt lat="44.601757" lon="4.784697">
        <ele>200.473086</ele>
        <time>2017-06-06T09:29:36.000Z</time>
      </trkpt>
      <trkpt lat="44.601690" lon="4.784586">
        <ele>200.435281</ele>
        <time>2017-06-06T09:29:39.000Z</time>
      </trkpt>
      <trkpt lat="44.601604" lon="4.784461">
        <ele>200.390122</ele>
        <time>2017-06-06T09:29:42.000Z</time>
      </trkpt>
      <trkpt lat="44.601524" lon="4.784325">
        <ele>200.344291</ele>
        <time>2017-06-06T09:29:45.000Z</time>
      </trkpt>
      <trkpt lat="44.601444" lon="4.784214">
        <ele>200.303258</ele>
        <time>2017-06-06T09:29:48.000Z</time>
      </trkpt>
      <trkpt lat="44.601376" lon="4.784107">
        <ele>200.265997</ele>
        <time>2017-06-06T09:29:51.000Z</time>
      </trkpt>
      <trkpt lat="44.601315" lon="4.784001">
        <ele>200.300853</ele>
        <time>2017-06-06T09:29:54.000Z</time>
      </trkpt>
      <trkpt lat="44.601242" lon="4.783904">
        <ele>200.397502</ele>
        <time>2017-06-06T09:29:57.000Z</time>
      </trkpt>
      <trkpt lat="44.601177" lon="4.783791">
        <ele>200.496978</ele>
        <time>2017-06-06T09:30:00.000Z</time>
      </trkpt>
      <trkpt lat="44.601120" lon="4.783692">
        <ele>200.584161</ele>
        <time>2017-06-06T09:30:03.000Z</time>
      </trkpt>
      <trkpt lat="44.601055" lon="4.783584">
        <ele>200.680998</ele>
        <time>2017-06-06T09:30:06.000Z</time>
      </trkpt>
      <trkpt lat="44.600990" lon="4.783492">
        <ele>200.769749</ele>
        <time>2017-06-06T09:30:09.000Z</time>
      </trkpt>
      <trkpt lat="44.600933" lon="4.783391">
        <ele>200.858002</ele>
        <time>2017-06-06T09:30:12.000Z</time>
      </trkpt>
      <trkpt lat="44.600870" lon="4.783292">
        <ele>200.948925</ele>
        <time>2017-06-06T09:30:15.000Z</time>
      </trkpt>
      <trkpt lat="44.600792" lon="4.783178">
        <ele>201.057190</ele>
        <time>2017-06-06T09:30:19.000Z</time>
      </trkpt>
      <trkpt lat="44.600723" lon="4.783057">
        <ele>201.163346</ele>
        <time>2017-06-06T09:30:24.000Z</time>
      </trkpt>
      <trkpt lat="44.600660" lon="4.782957">
        <ele>201.254781</ele>
        <time>2017-06-06T09:30:30.000Z</time>
      </trkpt>
      <trkpt lat="44.600563" lon="4.782945">
        <ele>201.348431</ele>
        <time>2017-06-06T09:31:15.000Z</time>
      </trkpt>
      <trkpt lat="44.600487" lon="4.783016">
        <ele>201.436217</ele>
        <time>2017-06-06T09:31:19.000Z</time>
      </trkpt>
      <trkpt lat="44.600390" lon="4.783123">
        <ele>201.554840</ele>
        <time>2017-06-06T09:31:23.000Z</time>
      </trkpt>
      <trkpt lat="44.600320" lon="4.783203">
        <ele>201.641635</ele>
        <time>2017-06-06T09:31:26.000Z</time>
      </trkpt>
      <trkpt lat="44.600246" lon="4.783291">
        <ele>201.734890</ele>
        <time>2017-06-06T09:31:29.000Z</time>
      </trkpt>
      <trkpt lat="44.600170" lon="4.783383">
        <ele>201.831386</ele>
        <time>2017-06-06T09:31:32.000Z</time>
      </trkpt>
      <trkpt lat="44.600094" lon="4.783501">
        <ele>201.940344</ele>
        <time>2017-06-06T09:31:35.000Z</time>
      </trkpt>
      <trkpt lat="44.600006" lon="4.783596">
        <ele>202.019953</ele>
        <time>2017-06-06T09:31:38.000Z</time>
      </trkpt>
      <trkpt lat="44.599920" lon="4.783680">
        <ele>202.080103</ele>
        <time>2017-06-06T09:31:41.000Z</time>
      </trkpt>
      <trkpt lat="44.599823" lon="4.783773">
        <ele>202.147542</ele>
        <time>2017-06-06T09:31:44.000Z</time>
      </trkpt>
      <trkpt lat="44.599730" lon="4.783895">
        <ele>202.220615</ele>
        <time>2017-06-06T09:31:47.000Z</time>
      </trkpt>
      <trkpt lat="44.599663" lon="4.784020">
        <ele>202.284584</ele>
        <time>2017-06-06T09:31:50.000Z</time>
      </trkpt>
      <trkpt lat="44.599598" lon="4.784166">
        <ele>202.354984</ele>
        <time>2017-06-06T09:31:53.000Z</time>
      </trkpt>
      <trkpt lat="44.599540" lon="4.784311">
        <ele>202.422982</ele>
        <time>2017-06-06T09:31:56.000Z</time>
      </trkpt>
      <trkpt lat="44.599472" lon="4.784455">
        <ele>202.493627</ele>
        <time>2017-06-06T09:31:59.000Z</time>
      </trkpt>
      <trkpt lat="44.599415" lon="4.784596">
        <ele>202.559919</ele>
        <time>2017-06-06T09:32:02.000Z</time>
      </trkpt>
      <trkpt lat="44.599354" lon="4.784745">
        <ele>202.630190</ele>
        <time>2017-06-06T09:32:05.000Z</time>
      </trkpt>
      <trkpt lat="44.599293" lon="4.784879">
        <ele>202.695216</ele>
        <time>2017-06-06T09:32:08.000Z</time>
      </trkpt>
      <trkpt lat="44.599210" lon="4.784961">
        <ele>202.753486</ele>
        <time>2017-06-06T09:32:11.000Z</time>
      </trkpt>
      <trkpt lat="44.599102" lon="4.784949">
        <ele>202.815694</ele>
        <time>2017-06-06T09:32:14.000Z</time>
      </trkpt>
      <trkpt lat="44.598990" lon="4.784932">
        <ele>202.880379</ele>
        <time>2017-06-06T09:32:17.000Z</time>
      </trkpt>
      <trkpt lat="44.598892" lon="4.784918">
        <ele>202.936942</ele>
        <time>2017-06-06T09:32:20.000Z</time>
      </trkpt>
      <trkpt lat="44.598778" lon="4.784903">
        <ele>203.002688</ele>
        <time>2017-06-06T09:32:23.000Z</time>
      </trkpt>
      <trkpt lat="44.598667" lon="4.784895">
        <ele>203.237473</ele>
        <time>2017-06-06T09:32:26.000Z</time>
      </trkpt>
      <trkpt lat="44.598553" lon="4.784885">
        <ele>203.510810</ele>
        <time>2017-06-06T09:32:29.000Z</time>
      </trkpt>
      <trkpt lat="44.598446" lon="4.784875">
        <ele>203.767431</ele>
        <time>2017-06-06T09:32:32.000Z</time>
      </trkpt>
      <trkpt lat="44.598335" lon="4.784868">
        <ele>204.033325</ele>
        <time>2017-06-06T09:32:35.000Z</time>
      </trkpt>
      <trkpt lat="44.598230" lon="4.784878">
        <ele>204.285170</ele>
        <time>2017-06-06T09:32:38.000Z</time>
      </trkpt>
      <trkpt lat="44.598114" lon="4.784887">
        <ele>204.563185</ele>
        <time>2017-06-06T09:32:41.000Z</time>
      </trkpt>
      <trkpt lat="44.598000" lon="4.784912">
        <ele>204.839296</ele>
        <time>2017-06-06T09:32:44.000Z</time>
      </trkpt>
      <trkpt lat="44.597885" lon="4.784953">
        <ele>205.123224</ele>
        <time>2017-06-06T09:32:47.000Z</time>
      </trkpt>
      <trkpt lat="44.597780" lon="4.784999">
        <ele>205.386434</ele>
        <time>2017-06-06T09:32:50.000Z</time>
      </trkpt>
      <trkpt lat="44.597670" lon="4.785065">
        <ele>205.672684</ele>
        <time>2017-06-06T09:32:53.000Z</time>
      </trkpt>
      <trkpt lat="44.597565" lon="4.785140">
        <ele>205.954585</ele>
        <time>2017-06-06T09:32:56.000Z</time>
      </trkpt>
      <trkpt lat="44.597458" lon="4.785208">
        <ele>206.235636</ele>
        <time>2017-06-06T09:32:59.000Z</time>
      </trkpt>
      <trkpt lat="44.597355" lon="4.785270">
        <ele>206.503805</ele>
        <time>2017-06-06T09:33:02.000Z</time>
      </trkpt>
      <trkpt lat="44.597260" lon="4.785329">
        <ele>206.752381</ele>
        <time>2017-06-06T09:33:05.000Z</time>
      </trkpt>
      <trkpt lat="44.597153" lon="4.785394">
        <ele>207.031363</ele>
        <time>2017-06-06T09:33:08.000Z</time>
      </trkpt>
      <trkpt lat="44.597060" lon="4.785457">
        <ele>207.278453</ele>
        <time>2017-06-06T09:33:11.000Z</time>
      </trkpt>
      <trkpt lat="44.596970" lon="4.785520">
        <ele>207.140348</ele>
        <time>2017-06-06T09:33:14.000Z</time>
      </trkpt>
      <trkpt lat="44.596890" lon="4.785598">
        <ele>206.937190</ele>
        <time>2017-06-06T09:33:17.000Z</time>
      </trkpt>
      <trkpt lat="44.596794" lon="4.785690">
        <ele>206.694748</ele>
        <time>2017-06-06T09:33:20.000Z</time>
      </trkpt>
      <trkpt lat="44.596718" lon="4.785762">
        <ele>206.503509</ele>
        <time>2017-06-06T09:33:22.000Z</time>
      </trkpt>
      <trkpt lat="44.596630" lon="4.785847">
        <ele>206.280711</ele>
        <time>2017-06-06T09:33:24.000Z</time>
      </trkpt>
      <trkpt lat="44.596523" lon="4.785914">
        <ele>206.036324</ele>
        <time>2017-06-06T09:33:26.000Z</time>
      </trkpt>
      <trkpt lat="44.596400" lon="4.785966">
        <ele>205.768368</ele>
        <time>2017-06-06T09:33:28.000Z</time>
      </trkpt>
      <trkpt lat="44.596260" lon="4.785982">
        <ele>205.475359</ele>
        <time>2017-06-06T09:33:30.000Z</time>
      </trkpt>
      <trkpt lat="44.596115" lon="4.785988">
        <ele>205.172754</ele>
        <time>2017-06-06T09:33:32.000Z</time>
      </trkpt>
      <trkpt lat="44.595978" lon="4.785985">
        <ele>204.886933</ele>
        <time>2017-06-06T09:33:34.000Z</time>
      </trkpt>
      <trkpt lat="44.595840" lon="4.785983">
        <ele>204.599046</ele>
        <time>2017-06-06T09:33:36.000Z</time>
      </trkpt>
      <trkpt lat="44.595695" lon="4.785985">
        <ele>204.296557</ele>
        <time>2017-06-06T09:33:38.000Z</time>
      </trkpt>
      <trkpt lat="44.595554" lon="4.785985">
        <ele>204.002427</ele>
        <time>2017-06-06T09:33:40.000Z</time>
      </trkpt>
      <trkpt lat="44.595410" lon="4.785982">
        <ele>203.702006</ele>
        <time>2017-06-06T09:33:42.000Z</time>
      </trkpt>
      <trkpt lat="44.595272" lon="4.786000">
        <ele>203.619938</ele>
        <time>2017-06-06T09:33:44.000Z</time>
      </trkpt>
      <trkpt lat="44.595135" lon="4.786027">
        <ele>203.724887</ele>
        <time>2017-06-06T09:33:46.000Z</time>
      </trkpt>
      <trkpt lat="44.595000" lon="4.786057">
        <ele>203.828574</ele>
        <time>2017-06-06T09:33:48.000Z</time>
      </trkpt>
      <trkpt lat="44.594875" lon="4.786071">
        <ele>203.923702</ele>
        <time>2017-06-06T09:33:50.000Z</time>
      </trkpt>
      <trkpt lat="44.594776" lon="4.786069">
        <ele>203.998813</ele>
        <time>2017-06-06T09:33:52.000Z</time>
      </trkpt>
      <trkpt lat="44.594685" lon="4.786061">
        <ele>204.067983</ele>
        <time>2017-06-06T09:33:54.000Z</time>
      </trkpt>
      <trkpt lat="44.594593" lon="4.786045">
        <ele>204.138308</ele>
        <time>2017-06-06T09:33:56.000Z</time>
      </trkpt>
      <trkpt lat="44.594463" lon="4.786009">
        <ele>204.238828</ele>
        <time>2017-06-06T09:33:59.000Z</time>
      </trkpt>
      <trkpt lat="44.594376" lon="4.785985">
        <ele>204.306089</ele>
        <time>2017-06-06T09:34:01.000Z</time>
      </trkpt>
      <trkpt lat="44.594246" lon="4.785975">
        <ele>204.404857</ele>
        <time>2017-06-06T09:34:04.000Z</time>
      </trkpt>
      <trkpt lat="44.594147" lon="4.785971">
        <ele>204.479991</ele>
        <time>2017-06-06T09:34:06.000Z</time>
      </trkpt>
      <trkpt lat="44.594048" lon="4.785976">
        <ele>204.555143</ele>
        <time>2017-06-06T09:34:08.000Z</time>
      </trkpt>
      <trkpt lat="44.593945" lon="4.785989">
        <ele>204.633595</ele>
        <time>2017-06-06T09:34:10.000Z</time>
      </trkpt>
      <trkpt lat="44.593850" lon="4.786007">
        <ele>204.706317</ele>
        <time>2017-06-06T09:34:12.000Z</time>
      </trkpt>
      <trkpt lat="44.593754" lon="4.786018">
        <ele>204.779386</ele>
        <time>2017-06-06T09:34:14.000Z</time>
      </trkpt>
      <trkpt lat="44.593660" lon="4.786019">
        <ele>204.850698</ele>
        <time>2017-06-06T09:34:16.000Z</time>
      </trkpt>
      <trkpt lat="44.593560" lon="4.786034">
        <ele>204.926992</ele>
        <time>2017-06-06T09:34:18.000Z</time>
      </trkpt>
      <trkpt lat="44.593456" lon="4.786063">
        <ele>205.670854</ele>
        <time>2017-06-06T09:34:20.000Z</time>
      </trkpt>
      <trkpt lat="44.593357" lon="4.786090">
        <ele>206.396221</ele>
        <time>2017-06-06T09:34:22.000Z</time>
      </trkpt>
      <trkpt lat="44.593270" lon="4.786122">
        <ele>207.043082</ele>
        <time>2017-06-06T09:34:24.000Z</time>
      </trkpt>
      <trkpt lat="44.593150" lon="4.786151">
        <ele>207.918876</ele>
        <time>2017-06-06T09:34:27.000Z</time>
      </trkpt>
      <trkpt lat="44.593044" lon="4.786173">
        <ele>208.689569</ele>
        <time>2017-06-06T09:34:30.000Z</time>
      </trkpt>
      <trkpt lat="44.592940" lon="4.786183">
        <ele>209.439346</ele>
        <time>2017-06-06T09:34:33.000Z</time>
      </trkpt>
      <trkpt lat="44.592840" lon="4.786175">
        <ele>210.159768</ele>
        <time>2017-06-06T09:34:36.000Z</time>
      </trkpt>
      <trkpt lat="44.592724" lon="4.786169">
        <ele>210.994670</ele>
        <time>2017-06-06T09:34:40.000Z</time>
      </trkpt>
      <trkpt lat="44.592632" lon="4.786166">
        <ele>211.656563</ele>
        <time>2017-06-06T09:34:44.000Z</time>
      </trkpt>
      <trkpt lat="44.592530" lon="4.786168">
        <ele>212.390275</ele>
        <time>2017-06-06T09:34:50.000Z</time>
      </trkpt>
      <trkpt lat="44.592587" lon="4.786048">
        <ele>213.129094</ele>
        <time>2017-06-06T09:35:54.000Z</time>
      </trkpt>
      <trkpt lat="44.592648" lon="4.785930">
        <ele>213.875943</ele>
        <time>2017-06-06T09:35:58.000Z</time>
      </trkpt>
      <trkpt lat="44.592705" lon="4.785814">
        <ele>214.597807</ele>
        <time>2017-06-06T09:36:02.000Z</time>
      </trkpt>
      <trkpt lat="44.592680" lon="4.785654">
        <ele>215.436811</ele>
        <time>2017-06-06T09:36:06.000Z</time>
      </trkpt>
      <trkpt lat="44.592632" lon="4.785502">
        <ele>216.288460</ele>
        <time>2017-06-06T09:36:10.000Z</time>
      </trkpt>
      <trkpt lat="44.592606" lon="4.785378">
        <ele>216.950540</ele>
        <time>2017-06-06T09:36:13.000Z</time>
      </trkpt>
      <trkpt lat="44.592610" lon="4.785245">
        <ele>217.632364</ele>
        <time>2017-06-06T09:36:16.000Z</time>
      </trkpt>
      <trkpt lat="44.592564" lon="4.785101">
        <ele>217.905683</ele>
        <time>2017-06-06T09:36:20.000Z</time>
      </trkpt>
      <trkpt lat="44.592457" lon="4.785021">
        <ele>217.965822</ele>
        <time>2017-06-06T09:36:24.000Z</time>
      </trkpt>
      <trkpt lat="44.592365" lon="4.784973">
        <ele>218.014513</ele>
        <time>2017-06-06T09:36:27.000Z</time>
      </trkpt>
      <trkpt lat="44.592262" lon="4.784928">
        <ele>218.068029</ele>
        <time>2017-06-06T09:36:30.000Z</time>
      </trkpt>
      <trkpt lat="44.592167" lon="4.784877">
        <ele>218.118487</ele>
        <time>2017-06-06T09:36:33.000Z</time>
      </trkpt>
      <trkpt lat="44.592075" lon="4.784831">
        <ele>218.166936</ele>
        <time>2017-06-06T09:36:36.000Z</time>
      </trkpt>
      <trkpt lat="44.591980" lon="4.784802">
        <ele>218.215168</ele>
        <time>2017-06-06T09:36:39.000Z</time>
      </trkpt>
      <trkpt lat="44.591880" lon="4.784755">
        <ele>218.267485</ele>
        <time>2017-06-06T09:36:42.000Z</time>
      </trkpt>
      <trkpt lat="44.591780" lon="4.784696">
        <ele>218.321297</ele>
        <time>2017-06-06T09:36:45.000Z</time>
      </trkpt>
      <trkpt lat="44.591686" lon="4.784635">
        <ele>218.372671</ele>
        <time>2017-06-06T09:36:48.000Z</time>
      </trkpt>
      <trkpt lat="44.591587" lon="4.784594">
        <ele>218.423878</ele>
        <time>2017-06-06T09:36:51.000Z</time>
      </trkpt>
      <trkpt lat="44.591476" lon="4.784526">
        <ele>218.483959</ele>
        <time>2017-06-06T09:36:54.000Z</time>
      </trkpt>
      <trkpt lat="44.591366" lon="4.784465">
        <ele>218.542633</ele>
        <time>2017-06-06T09:36:57.000Z</time>
      </trkpt>
      <trkpt lat="44.591263" lon="4.784402">
        <ele>218.598370</ele>
        <time>2017-06-06T09:37:00.000Z</time>
      </trkpt>
      <trkpt lat="44.591164" lon="4.784338">
        <ele>218.652440</ele>
        <time>2017-06-06T09:37:03.000Z</time>
      </trkpt>
      <trkpt lat="44.591072" lon="4.784265">
        <ele>218.704866</ele>
        <time>2017-06-06T09:37:06.000Z</time>
      </trkpt>
      <trkpt lat="44.590973" lon="4.784191">
        <ele>218.760168</ele>
        <time>2017-06-06T09:37:09.000Z</time>
      </trkpt>
      <trkpt lat="44.590880" lon="4.784120">
        <ele>218.804349</ele>
        <time>2017-06-06T09:37:12.000Z</time>
      </trkpt>
      <trkpt lat="44.590767" lon="4.784037">
        <ele>218.857573</ele>
        <time>2017-06-06T09:37:16.000Z</time>
      </trkpt>
      <trkpt lat="44.590668" lon="4.783951">
        <ele>218.906159</ele>
        <time>2017-06-06T09:37:20.000Z</time>
      </trkpt>
      <trkpt lat="44.590553" lon="4.783852">
        <ele>218.962457</ele>
        <time>2017-06-06T09:37:24.000Z</time>
      </trkpt>
      <trkpt lat="44.590466" lon="4.783780">
        <ele>219.004604</ele>
        <time>2017-06-06T09:37:27.000Z</time>
      </trkpt>
      <trkpt lat="44.590374" lon="4.783721">
        <ele>219.046816</ele>
        <time>2017-06-06T09:37:30.000Z</time>
      </trkpt>
      <trkpt lat="44.590263" lon="4.783664">
        <ele>219.096144</ele>
        <time>2017-06-06T09:37:34.000Z</time>
      </trkpt>
      <trkpt lat="44.590153" lon="4.783619">
        <ele>219.143962</ele>
        <time>2017-06-06T09:37:38.000Z</time>
      </trkpt>
      <trkpt lat="44.590054" lon="4.783572">
        <ele>219.187579</ele>
        <time>2017-06-06T09:37:41.000Z</time>
      </trkpt>
      <trkpt lat="44.589962" lon="4.783516">
        <ele>219.229428</ele>
        <time>2017-06-06T09:37:44.000Z</time>
      </trkpt>
      <trkpt lat="44.589870" lon="4.783469">
        <ele>219.270288</ele>
        <time>2017-06-06T09:37:47.000Z</time>
      </trkpt>
      <trkpt lat="44.589764" lon="4.783414">
        <ele>219.317452</ele>
        <time>2017-06-06T09:37:51.000Z</time>
      </trkpt>
      <trkpt lat="44.589676" lon="4.783355">
        <ele>219.358151</ele>
        <time>2017-06-06T09:37:55.000Z</time>
      </trkpt>
      <trkpt lat="44.589560" lon="4.783303">
        <ele>219.408972</ele>
        <time>2017-06-06T09:37:59.000Z</time>
      </trkpt>
      <trkpt lat="44.589466" lon="4.783270">
        <ele>219.449412</ele>
        <time>2017-06-06T09:38:02.000Z</time>
      </trkpt>
      <trkpt lat="44.589375" lon="4.783261">
        <ele>219.487486</ele>
        <time>2017-06-06T09:38:05.000Z</time>
      </trkpt>
      <trkpt lat="44.589268" lon="4.783277">
        <ele>219.451015</ele>
        <time>2017-06-06T09:38:09.000Z</time>
      </trkpt>
      <trkpt lat="44.589180" lon="4.783302">
        <ele>219.357801</ele>
        <time>2017-06-06T09:38:12.000Z</time>
      </trkpt>
      <trkpt lat="44.589077" lon="4.783328">
        <ele>219.249150</ele>
        <time>2017-06-06T09:38:15.000Z</time>
      </trkpt>
      <trkpt lat="44.588966" lon="4.783349">
        <ele>219.132866</ele>
        <time>2017-06-06T09:38:18.000Z</time>
      </trkpt>
      <trkpt lat="44.588850" lon="4.783362">
        <ele>219.012050</ele>
        <time>2017-06-06T09:38:21.000Z</time>
      </trkpt>
      <trkpt lat="44.588726" lon="4.783383">
        <ele>218.882378</ele>
        <time>2017-06-06T09:38:24.000Z</time>
      </trkpt>
      <trkpt lat="44.588604" lon="4.783404">
        <ele>218.754767</ele>
        <time>2017-06-06T09:38:27.000Z</time>
      </trkpt>
      <trkpt lat="44.588480" lon="4.783429">
        <ele>218.624708</ele>
        <time>2017-06-06T09:38:30.000Z</time>
      </trkpt>
      <trkpt lat="44.588360" lon="4.783445">
        <ele>218.499562</ele>
        <time>2017-06-06T09:38:33.000Z</time>
      </trkpt>
      <trkpt lat="44.588250" lon="4.783485">
        <ele>218.381590</ele>
        <time>2017-06-06T09:38:36.000Z</time>
      </trkpt>
      <trkpt lat="44.588140" lon="4.783541">
        <ele>218.260112</ele>
        <time>2017-06-06T09:38:39.000Z</time>
      </trkpt>
      <trkpt lat="44.588024" lon="4.783619">
        <ele>218.126582</ele>
        <time>2017-06-06T09:38:42.000Z</time>
      </trkpt>
      <trkpt lat="44.587917" lon="4.783710">
        <ele>217.996705</ele>
        <time>2017-06-06T09:38:45.000Z</time>
      </trkpt>
      <trkpt lat="44.587822" lon="4.783781">
        <ele>217.884973</ele>
        <time>2017-06-06T09:38:48.000Z</time>
      </trkpt>
      <trkpt lat="44.587727" lon="4.783857">
        <ele>217.771458</ele>
        <time>2017-06-06T09:38:51.000Z</time>
      </trkpt>
      <trkpt lat="44.587627" lon="4.783938">
        <ele>217.651600</ele>
        <time>2017-06-06T09:38:54.000Z</time>
      </trkpt>
      <trkpt lat="44.587524" lon="4.784014">
        <ele>217.620346</ele>
        <time>2017-06-06T09:38:57.000Z</time>
      </trkpt>
      <trkpt lat="44.587418" lon="4.784104">
        <ele>217.595605</ele>
        <time>2017-06-06T09:39:00.000Z</time>
      </trkpt>
      <trkpt lat="44.587303" lon="4.784192">
        <ele>217.569446</ele>
        <time>2017-06-06T09:39:03.000Z</time>
      </trkpt>
      <trkpt lat="44.587185" lon="4.784275">
        <ele>217.543085</ele>
        <time>2017-06-06T09:39:06.000Z</time>
      </trkpt>
      <trkpt lat="44.587074" lon="4.784370">
        <ele>217.517121</ele>
        <time>2017-06-06T09:39:09.000Z</time>
      </trkpt>
      <trkpt lat="44.586967" lon="4.784450">
        <ele>217.492909</ele>
        <time>2017-06-06T09:39:12.000Z</time>
      </trkpt>
      <trkpt lat="44.586864" lon="4.784534">
        <ele>217.469118</ele>
        <time>2017-06-06T09:39:15.000Z</time>
      </trkpt>
      <trkpt lat="44.586750" lon="4.784614">
        <ele>217.443663</ele>
        <time>2017-06-06T09:39:18.000Z</time>
      </trkpt>
      <trkpt lat="44.586640" lon="4.784706">
        <ele>217.418090</ele>
        <time>2017-06-06T09:39:21.000Z</time>
      </trkpt>
      <trkpt lat="44.586530" lon="4.784801">
        <ele>217.392296</ele>
        <time>2017-06-06T09:39:24.000Z</time>
      </trkpt>
      <trkpt lat="44.586414" lon="4.784893">
        <ele>217.365686</ele>
        <time>2017-06-06T09:39:27.000Z</time>
      </trkpt>
      <trkpt lat="44.586310" lon="4.784969">
        <ele>217.342269</ele>
        <time>2017-06-06T09:39:30.000Z</time>
      </trkpt>
      <trkpt lat="44.586212" lon="4.785042">
        <ele>217.320111</ele>
        <time>2017-06-06T09:39:33.000Z</time>
      </trkpt>
      <trkpt lat="44.586113" lon="4.785115">
        <ele>217.297776</ele>
        <time>2017-06-06T09:39:36.000Z</time>
      </trkpt>
      <trkpt lat="44.586006" lon="4.785133">
        <ele>217.251294</ele>
        <time>2017-06-06T09:39:39.000Z</time>
      </trkpt>
      <trkpt lat="44.585903" lon="4.785084">
        <ele>217.141783</ele>
        <time>2017-06-06T09:39:42.000Z</time>
      </trkpt>
      <trkpt lat="44.585800" lon="4.784999">
        <ele>217.021476</ele>
        <time>2017-06-06T09:39:45.000Z</time>
      </trkpt>
      <trkpt lat="44.585700" lon="4.784907">
        <ele>216.901087</ele>
        <time>2017-06-06T09:39:48.000Z</time>
      </trkpt>
      <trkpt lat="44.585580" lon="4.784808">
        <ele>216.760935</ele>
        <time>2017-06-06T09:39:51.000Z</time>
      </trkpt>
      <trkpt lat="44.585490" lon="4.784738">
        <ele>216.657331</ele>
        <time>2017-06-06T09:39:53.000Z</time>
      </trkpt>
      <trkpt lat="44.585403" lon="4.784674">
        <ele>216.558428</ele>
        <time>2017-06-06T09:39:55.000Z</time>
      </trkpt>
      <trkpt lat="44.585316" lon="4.784601">
        <ele>216.456369</ele>
        <time>2017-06-06T09:39:57.000Z</time>
      </trkpt>
      <trkpt lat="44.585228" lon="4.784518">
        <ele>216.349618</ele>
        <time>2017-06-06T09:39:59.000Z</time>
      </trkpt>
      <trkpt lat="44.585133" lon="4.784436">
        <ele>216.237324</ele>
        <time>2017-06-06T09:40:01.000Z</time>
      </trkpt>
      <trkpt lat="44.585040" lon="4.784356">
        <ele>216.127496</ele>
        <time>2017-06-06T09:40:03.000Z</time>
      </trkpt>
      <trkpt lat="44.584950" lon="4.784276">
        <ele>216.020233</ele>
        <time>2017-06-06T09:40:05.000Z</time>
      </trkpt>
      <trkpt lat="44.584860" lon="4.784187">
        <ele>215.909384</ele>
        <time>2017-06-06T09:40:07.000Z</time>
      </trkpt>
      <trkpt lat="44.584770" lon="4.784092">
        <ele>215.796001</ele>
        <time>2017-06-06T09:40:09.000Z</time>
      </trkpt>
      <trkpt lat="44.584675" lon="4.783993">
        <ele>215.676868</ele>
        <time>2017-06-06T09:40:11.000Z</time>
      </trkpt>
      <trkpt lat="44.584580" lon="4.783886">
        <ele>215.554229</ele>
        <time>2017-06-06T09:40:13.000Z</time>
      </trkpt>
      <trkpt lat="44.584496" lon="4.783786">
        <ele>215.469005</ele>
        <time>2017-06-06T09:40:15.000Z</time>
      </trkpt>
      <trkpt lat="44.584410" lon="4.783679">
        <ele>215.459790</ele>
        <time>2017-06-06T09:40:17.000Z</time>
      </trkpt>
      <trkpt lat="44.584335" lon="4.783581">
        <ele>215.451573</ele>
        <time>2017-06-06T09:40:19.000Z</time>
      </trkpt>
      <trkpt lat="44.584255" lon="4.783485">
        <ele>215.443134</ele>
        <time>2017-06-06T09:40:21.000Z</time>
      </trkpt>
      <trkpt lat="44.584180" lon="4.783389">
        <ele>215.434995</ele>
        <time>2017-06-06T09:40:23.000Z</time>
      </trkpt>
      <trkpt lat="44.584100" lon="4.783300">
        <ele>215.426809</ele>
        <time>2017-06-06T09:40:25.000Z</time>
      </trkpt>
      <trkpt lat="44.584023" lon="4.783202">
        <ele>215.418475</ele>
        <time>2017-06-06T09:40:27.000Z</time>
      </trkpt>
      <trkpt lat="44.583946" lon="4.783111">
        <ele>215.410403</ele>
        <time>2017-06-06T09:40:29.000Z</time>
      </trkpt>
      <trkpt lat="44.583870" lon="4.783016">
        <ele>215.402243</ele>
        <time>2017-06-06T09:40:31.000Z</time>
      </trkpt>
      <trkpt lat="44.583800" lon="4.782922">
        <ele>215.394475</ele>
        <time>2017-06-06T09:40:33.000Z</time>
      </trkpt>
      <trkpt lat="44.583736" lon="4.782833">
        <ele>215.387251</ele>
        <time>2017-06-06T09:40:35.000Z</time>
      </trkpt>
      <trkpt lat="44.583660" lon="4.782749">
        <ele>215.379494</ele>
        <time>2017-06-06T09:40:37.000Z</time>
      </trkpt>
      <trkpt lat="44.583590" lon="4.782654">
        <ele>215.371687</ele>
        <time>2017-06-06T09:40:39.000Z</time>
      </trkpt>
      <trkpt lat="44.583523" lon="4.782571">
        <ele>215.364521</ele>
        <time>2017-06-06T09:40:41.000Z</time>
      </trkpt>
      <trkpt lat="44.583447" lon="4.782471">
        <ele>215.356168</ele>
        <time>2017-06-06T09:40:43.000Z</time>
      </trkpt>
      <trkpt lat="44.583370" lon="4.782384">
        <ele>215.348242</ele>
        <time>2017-06-06T09:40:45.000Z</time>
      </trkpt>
      <trkpt lat="44.583298" lon="4.782292">
        <ele>215.340435</ele>
        <time>2017-06-06T09:40:47.000Z</time>
      </trkpt>
      <trkpt lat="44.583220" lon="4.782197">
        <ele>215.332154</ele>
        <time>2017-06-06T09:40:49.000Z</time>
      </trkpt>
      <trkpt lat="44.583150" lon="4.782115">
        <ele>215.314673</ele>
        <time>2017-06-06T09:40:51.000Z</time>
      </trkpt>
      <trkpt lat="44.583076" lon="4.782021">
        <ele>215.268624</ele>
        <time>2017-06-06T09:40:53.000Z</time>
      </trkpt>
      <trkpt lat="44.583000" lon="4.781921">
        <ele>215.220561</ele>
        <time>2017-06-06T09:40:55.000Z</time>
      </trkpt>
      <trkpt lat="44.582930" lon="4.781812">
        <ele>215.172325</ele>
        <time>2017-06-06T09:40:57.000Z</time>
      </trkpt>
      <trkpt lat="44.582860" lon="4.781702">
        <ele>215.123844</ele>
        <time>2017-06-06T09:40:59.000Z</time>
      </trkpt>
      <trkpt lat="44.582790" lon="4.781590">
        <ele>215.074871</ele>
        <time>2017-06-06T09:41:01.000Z</time>
      </trkpt>
      <trkpt lat="44.582720" lon="4.781477">
        <ele>215.025651</ele>
        <time>2017-06-06T09:41:03.000Z</time>
      </trkpt>
      <trkpt lat="44.582657" lon="4.781358">
        <ele>214.976919</ele>
        <time>2017-06-06T09:41:05.000Z</time>
      </trkpt>
      <trkpt lat="44.582592" lon="4.781238">
        <ele>214.927370</ele>
        <time>2017-06-06T09:41:07.000Z</time>
      </trkpt>
      <trkpt lat="44.582523" lon="4.781117">
        <ele>214.876426</ele>
        <time>2017-06-06T09:41:09.000Z</time>
      </trkpt>
      <trkpt lat="44.582460" lon="4.780998">
        <ele>214.827694</ele>
        <time>2017-06-06T09:41:11.000Z</time>
      </trkpt>
      <trkpt lat="44.582394" lon="4.780876">
        <ele>214.777342</ele>
        <time>2017-06-06T09:41:13.000Z</time>
      </trkpt>
      <trkpt lat="44.582336" lon="4.780753">
        <ele>214.728860</ele>
        <time>2017-06-06T09:41:15.000Z</time>
      </trkpt>
      <trkpt lat="44.582280" lon="4.780631">
        <ele>214.681157</ele>
        <time>2017-06-06T09:41:17.000Z</time>
      </trkpt>
      <trkpt lat="44.582226" lon="4.780510">
        <ele>214.634227</ele>
        <time>2017-06-06T09:41:19.000Z</time>
      </trkpt>
      <trkpt lat="44.582176" lon="4.780378">
        <ele>214.585090</ele>
        <time>2017-06-06T09:41:21.000Z</time>
      </trkpt>
      <trkpt lat="44.582127" lon="4.780246">
        <ele>214.536168</ele>
        <time>2017-06-06T09:41:23.000Z</time>
      </trkpt>
      <trkpt lat="44.582080" lon="4.780117">
        <ele>214.458147</ele>
        <time>2017-06-06T09:41:25.000Z</time>
      </trkpt>
      <trkpt lat="44.582030" lon="4.779984">
        <ele>214.231046</ele>
        <time>2017-06-06T09:41:27.000Z</time>
      </trkpt>
      <trkpt lat="44.581985" lon="4.779843">
        <ele>213.997727</ele>
        <time>2017-06-06T09:41:29.000Z</time>
      </trkpt>
      <trkpt lat="44.581940" lon="4.779705">
        <ele>213.768534</ele>
        <time>2017-06-06T09:41:31.000Z</time>
      </trkpt>
      <trkpt lat="44.581894" lon="4.779574">
        <ele>213.547979</ele>
        <time>2017-06-06T09:41:33.000Z</time>
      </trkpt>
      <trkpt lat="44.581844" lon="4.779439">
        <ele>213.318202</ele>
        <time>2017-06-06T09:41:35.000Z</time>
      </trkpt>
      <trkpt lat="44.581802" lon="4.779319">
        <ele>213.116295</ele>
        <time>2017-06-06T09:41:37.000Z</time>
      </trkpt>
      <trkpt lat="44.581745" lon="4.779162">
        <ele>212.850188</ele>
        <time>2017-06-06T09:41:40.000Z</time>
      </trkpt>
      <trkpt lat="44.581700" lon="4.779044">
        <ele>212.648064</ele>
        <time>2017-06-06T09:41:42.000Z</time>
      </trkpt>
      <trkpt lat="44.581654" lon="4.778923">
        <ele>212.440944</ele>
        <time>2017-06-06T09:41:44.000Z</time>
      </trkpt>
      <trkpt lat="44.581600" lon="4.778796">
        <ele>212.217588</ele>
        <time>2017-06-06T09:41:46.000Z</time>
      </trkpt>
      <trkpt lat="44.581547" lon="4.778652">
        <ele>211.972818</ele>
        <time>2017-06-06T09:41:48.000Z</time>
      </trkpt>
      <trkpt lat="44.581486" lon="4.778495">
        <ele>211.702753</ele>
        <time>2017-06-06T09:41:50.000Z</time>
      </trkpt>
      <trkpt lat="44.581417" lon="4.778341">
        <ele>211.428012</ele>
        <time>2017-06-06T09:41:52.000Z</time>
      </trkpt>
      <trkpt lat="44.581345" lon="4.778201">
        <ele>211.167247</ele>
        <time>2017-06-06T09:41:54.000Z</time>
      </trkpt>
      <trkpt lat="44.581270" lon="4.778065">
        <ele>210.907511</ele>
        <time>2017-06-06T09:41:56.000Z</time>
      </trkpt>
      <trkpt lat="44.581192" lon="4.777934">
        <ele>210.649178</ele>
        <time>2017-06-06T09:41:58.000Z</time>
      </trkpt>
      <trkpt lat="44.581116" lon="4.777806">
        <ele>210.393889</ele>
        <time>2017-06-06T09:42:00.000Z</time>
      </trkpt>
      <trkpt lat="44.581036" lon="4.777682">
        <ele>210.137581</ele>
        <time>2017-06-06T09:42:02.000Z</time>
      </trkpt>
      <trkpt lat="44.580956" lon="4.777564">
        <ele>209.888008</ele>
        <time>2017-06-06T09:42:04.000Z</time>
      </trkpt>
      <trkpt lat="44.580875" lon="4.777454">
        <ele>209.645624</ele>
        <time>2017-06-06T09:42:06.000Z</time>
      </trkpt>
      <trkpt lat="44.580790" lon="4.777340">
        <ele>209.392790</ele>
        <time>2017-06-06T09:42:08.000Z</time>
      </trkpt>
      <trkpt lat="44.580710" lon="4.777230">
        <ele>209.151946</ele>
        <time>2017-06-06T09:42:10.000Z</time>
      </trkpt>
      <trkpt lat="44.580630" lon="4.777116">
        <ele>208.906775</ele>
        <time>2017-06-06T09:42:12.000Z</time>
      </trkpt>
      <trkpt lat="44.580547" lon="4.777003">
        <ele>208.658103</ele>
        <time>2017-06-06T09:42:14.000Z</time>
      </trkpt>
      <trkpt lat="44.580467" lon="4.776891">
        <ele>208.415105</ele>
        <time>2017-06-06T09:42:16.000Z</time>
      </trkpt>
      <trkpt lat="44.580383" lon="4.776776">
        <ele>208.162753</ele>
        <time>2017-06-06T09:42:18.000Z</time>
      </trkpt>
      <trkpt lat="44.580296" lon="4.776655">
        <ele>207.899357</ele>
        <time>2017-06-06T09:42:20.000Z</time>
      </trkpt>
      <trkpt lat="44.580215" lon="4.776527">
        <ele>207.637049</ele>
        <time>2017-06-06T09:42:22.000Z</time>
      </trkpt>
      <trkpt lat="44.580130" lon="4.776404">
        <ele>207.374500</ele>
        <time>2017-06-06T09:42:24.000Z</time>
      </trkpt>
      <trkpt lat="44.580055" lon="4.776264">
        <ele>207.106128</ele>
        <time>2017-06-06T09:42:26.000Z</time>
      </trkpt>
      <trkpt lat="44.579980" lon="4.776129">
        <ele>206.843837</ele>
        <time>2017-06-06T09:42:28.000Z</time>
      </trkpt>
      <trkpt lat="44.579914" lon="4.775985">
        <ele>206.781612</ele>
        <time>2017-06-06T09:42:30.000Z</time>
      </trkpt>
      <trkpt lat="44.579853" lon="4.775837">
        <ele>206.744197</ele>
        <time>2017-06-06T09:42:32.000Z</time>
      </trkpt>
      <trkpt lat="44.579796" lon="4.775680">
        <ele>206.705638</ele>
        <time>2017-06-06T09:42:34.000Z</time>
      </trkpt>
      <trkpt lat="44.579740" lon="4.775521">
        <ele>206.666826</ele>
        <time>2017-06-06T09:42:36.000Z</time>
      </trkpt>
      <trkpt lat="44.579700" lon="4.775352">
        <ele>206.627858</ele>
        <time>2017-06-06T09:42:38.000Z</time>
      </trkpt>
      <trkpt lat="44.579678" lon="4.775191">
        <ele>206.591987</ele>
        <time>2017-06-06T09:42:40.000Z</time>
      </trkpt>
      <trkpt lat="44.579678" lon="4.775044">
        <ele>206.559821</ele>
        <time>2017-06-06T09:42:42.000Z</time>
      </trkpt>
      <trkpt lat="44.579693" lon="4.774916">
        <ele>206.531436</ele>
        <time>2017-06-06T09:42:44.000Z</time>
      </trkpt>
      <trkpt lat="44.579735" lon="4.774777">
        <ele>206.498398</ele>
        <time>2017-06-06T09:42:47.000Z</time>
      </trkpt>
      <trkpt lat="44.579800" lon="4.774649">
        <ele>206.464000</ele>
        <time>2017-06-06T09:42:51.000Z</time>
      </trkpt>
      <trkpt lat="44.579823" lon="4.774513">
        <ele>206.433415</ele>
        <time>2017-06-06T09:42:54.000Z</time>
      </trkpt>
      <trkpt lat="44.579807" lon="4.774371">
        <ele>206.401957</ele>
        <time>2017-06-06T09:42:57.000Z</time>
      </trkpt>
      <trkpt lat="44.579760" lon="4.774249">
        <ele>206.371607</ele>
        <time>2017-06-06T09:43:00.000Z</time>
      </trkpt>
      <trkpt lat="44.579680" lon="4.774159">
        <ele>206.340114</ele>
        <time>2017-06-06T09:43:04.000Z</time>
      </trkpt>
      <trkpt lat="44.579597" lon="4.774106">
        <ele>206.312103</ele>
        <time>2017-06-06T09:43:08.000Z</time>
      </trkpt>
      <trkpt lat="44.579502" lon="4.774095">
        <ele>206.282819</ele>
        <time>2017-06-06T09:43:11.000Z</time>
      </trkpt>
      <trkpt lat="44.579400" lon="4.774142">
        <ele>206.274901</ele>
        <time>2017-06-06T09:43:15.000Z</time>
      </trkpt>
      <trkpt lat="44.579250" lon="4.774275">
        <ele>206.329087</ele>
        <time>2017-06-06T09:43:45.000Z</time>
      </trkpt>
      <trkpt lat="44.579216" lon="4.774397">
        <ele>206.357588</ele>
        <time>2017-06-06T09:43:48.000Z</time>
      </trkpt>
      <trkpt lat="44.579210" lon="4.774560">
        <ele>206.393096</ele>
        <time>2017-06-06T09:43:52.000Z</time>
      </trkpt>
      <trkpt lat="44.579216" lon="4.774692">
        <ele>206.421872</ele>
        <time>2017-06-06T09:43:55.000Z</time>
      </trkpt>
      <trkpt lat="44.579136" lon="4.774806">
        <ele>206.456687</ele>
        <time>2017-06-06T09:43:59.000Z</time>
      </trkpt>
      <trkpt lat="44.579040" lon="4.774873">
        <ele>206.489432</ele>
        <time>2017-06-06T09:44:02.000Z</time>
      </trkpt>
      <trkpt lat="44.578945" lon="4.774923">
        <ele>206.520420</ele>
        <time>2017-06-06T09:44:05.000Z</time>
      </trkpt>
      <trkpt lat="44.578854" lon="4.774962">
        <ele>206.549480</ele>
        <time>2017-06-06T09:44:08.000Z</time>
      </trkpt>
      <trkpt lat="44.578762" lon="4.774990">
        <ele>206.578233</ele>
        <time>2017-06-06T09:44:11.000Z</time>
      </trkpt>
      <trkpt lat="44.578648" lon="4.775001">
        <ele>206.613134</ele>
        <time>2017-06-06T09:44:15.000Z</time>
      </trkpt>
      <trkpt lat="44.578540" lon="4.774992">
        <ele>206.646179</ele>
        <time>2017-06-06T09:44:18.000Z</time>
      </trkpt>
      <trkpt lat="44.578434" lon="4.774964">
        <ele>206.679122</ele>
        <time>2017-06-06T09:44:21.000Z</time>
      </trkpt>
      <trkpt lat="44.578335" lon="4.774922">
        <ele>206.710710</ele>
        <time>2017-06-06T09:44:24.000Z</time>
      </trkpt>
      <trkpt lat="44.578240" lon="4.774864">
        <ele>206.742351</ele>
        <time>2017-06-06T09:44:27.000Z</time>
      </trkpt>
      <trkpt lat="44.578148" lon="4.774797">
        <ele>206.774007</ele>
        <time>2017-06-06T09:44:30.000Z</time>
      </trkpt>
      <trkpt lat="44.578056" lon="4.774717">
        <ele>206.807060</ele>
        <time>2017-06-06T09:44:33.000Z</time>
      </trkpt>
      <trkpt lat="44.577965" lon="4.774638">
        <ele>206.602054</ele>
        <time>2017-06-06T09:44:36.000Z</time>
      </trkpt>
      <trkpt lat="44.577870" lon="4.774572">
        <ele>206.359320</ele>
        <time>2017-06-06T09:44:39.000Z</time>
      </trkpt>
      <trkpt lat="44.577778" lon="4.774501">
        <ele>206.118904</ele>
        <time>2017-06-06T09:44:42.000Z</time>
      </trkpt>
      <trkpt lat="44.577690" lon="4.774436">
        <ele>205.891191</ele>
        <time>2017-06-06T09:44:45.000Z</time>
      </trkpt>
      <trkpt lat="44.577583" lon="4.774365">
        <ele>205.620166</ele>
        <time>2017-06-06T09:44:48.000Z</time>
      </trkpt>
      <trkpt lat="44.577480" lon="4.774280">
        <ele>205.346560</ele>
        <time>2017-06-06T09:44:51.000Z</time>
      </trkpt>
      <trkpt lat="44.577370" lon="4.774218">
        <ele>205.075113</ele>
        <time>2017-06-06T09:44:54.000Z</time>
      </trkpt>
      <trkpt lat="44.577248" lon="4.774148">
        <ele>204.773296</ele>
        <time>2017-06-06T09:44:57.000Z</time>
      </trkpt>
      <trkpt lat="44.577130" lon="4.774078">
        <ele>204.479939</ele>
        <time>2017-06-06T09:45:00.000Z</time>
      </trkpt>
      <trkpt lat="44.577015" lon="4.774013">
        <ele>204.196042</ele>
        <time>2017-06-06T09:45:03.000Z</time>
      </trkpt>
      <trkpt lat="44.576910" lon="4.773961">
        <ele>203.941066</ele>
        <time>2017-06-06T09:45:06.000Z</time>
      </trkpt>
      <trkpt lat="44.576810" lon="4.773917">
        <ele>203.701079</ele>
        <time>2017-06-06T09:45:09.000Z</time>
      </trkpt>
      <trkpt lat="44.576706" lon="4.773859">
        <ele>203.444812</ele>
        <time>2017-06-06T09:45:12.000Z</time>
      </trkpt>
      <trkpt lat="44.576603" lon="4.773814">
        <ele>203.197781</ele>
        <time>2017-06-06T09:45:15.000Z</time>
      </trkpt>
      <trkpt lat="44.576508" lon="4.773757">
        <ele>202.961192</ele>
        <time>2017-06-06T09:45:18.000Z</time>
      </trkpt>
      <trkpt lat="44.576405" lon="4.773708">
        <ele>202.712144</ele>
        <time>2017-06-06T09:45:21.000Z</time>
      </trkpt>
      <trkpt lat="44.576294" lon="4.773682">
        <ele>202.521390</ele>
        <time>2017-06-06T09:45:24.000Z</time>
      </trkpt>
      <trkpt lat="44.576200" lon="4.773609">
        <ele>202.344481</ele>
        <time>2017-06-06T09:45:27.000Z</time>
      </trkpt>
      <trkpt lat="44.576096" lon="4.773525">
        <ele>202.146887</ele>
        <time>2017-06-06T09:45:30.000Z</time>
      </trkpt>
      <trkpt lat="44.576000" lon="4.773423">
        <ele>201.948616</ele>
        <time>2017-06-06T09:45:33.000Z</time>
      </trkpt>
      <trkpt lat="44.575916" lon="4.773310">
        <ele>201.757023</ele>
        <time>2017-06-06T09:45:36.000Z</time>
      </trkpt>
      <trkpt lat="44.575860" lon="4.773205">
        <ele>201.603151</ele>
        <time>2017-06-06T09:45:38.000Z</time>
      </trkpt>
      <trkpt lat="44.575800" lon="4.773093">
        <ele>201.438757</ele>
        <time>2017-06-06T09:45:40.000Z</time>
      </trkpt>
      <trkpt lat="44.575745" lon="4.772978">
        <ele>201.276266</ele>
        <time>2017-06-06T09:45:42.000Z</time>
      </trkpt>
      <trkpt lat="44.575700" lon="4.772852">
        <ele>201.110921</ele>
        <time>2017-06-06T09:45:44.000Z</time>
      </trkpt>
      <trkpt lat="44.575657" lon="4.772732">
        <ele>200.953343</ele>
        <time>2017-06-06T09:45:46.000Z</time>
      </trkpt>
      <trkpt lat="44.575615" lon="4.772609">
        <ele>200.793333</ele>
        <time>2017-06-06T09:45:48.000Z</time>
      </trkpt>
      <trkpt lat="44.575577" lon="4.772495">
        <ele>200.645683</ele>
        <time>2017-06-06T09:45:50.000Z</time>
      </trkpt>
      <trkpt lat="44.575500" lon="4.772334">
        <ele>200.418196</ele>
        <time>2017-06-06T09:45:53.000Z</time>
      </trkpt>
      <trkpt lat="44.575450" lon="4.772221">
        <ele>200.262145</ele>
        <time>2017-06-06T09:45:55.000Z</time>
      </trkpt>
      <trkpt lat="44.575394" lon="4.772121">
        <ele>200.112926</ele>
        <time>2017-06-06T09:45:57.000Z</time>
      </trkpt>
      <trkpt lat="44.575333" lon="4.772018">
        <ele>199.955792</ele>
        <time>2017-06-06T09:45:59.000Z</time>
      </trkpt>
      <trkpt lat="44.575260" lon="4.771915">
        <ele>199.785346</ele>
        <time>2017-06-06T09:46:01.000Z</time>
      </trkpt>
      <trkpt lat="44.575184" lon="4.771800">
        <ele>199.648709</ele>
        <time>2017-06-06T09:46:03.000Z</time>
      </trkpt>
      <trkpt lat="44.575110" lon="4.771695">
        <ele>199.538874</ele>
        <time>2017-06-06T09:46:05.000Z</time>
      </trkpt>
      <trkpt lat="44.575035" lon="4.771591">
        <ele>199.428827</ele>
        <time>2017-06-06T09:46:07.000Z</time>
      </trkpt>
      <trkpt lat="44.574932" lon="4.771494">
        <ele>199.299353</ele>
        <time>2017-06-06T09:46:09.000Z</time>
      </trkpt>
      <trkpt lat="44.574820" lon="4.771411">
        <ele>199.167146</ele>
        <time>2017-06-06T09:46:11.000Z</time>
      </trkpt>
      <trkpt lat="44.574703" lon="4.771335">
        <ele>199.032568</ele>
        <time>2017-06-06T09:46:13.000Z</time>
      </trkpt>
      <trkpt lat="44.574593" lon="4.771263">
        <ele>198.905871</ele>
        <time>2017-06-06T09:46:15.000Z</time>
      </trkpt>
      <trkpt lat="44.574486" lon="4.771195">
        <ele>198.783261</ele>
        <time>2017-06-06T09:46:17.000Z</time>
      </trkpt>
      <trkpt lat="44.574375" lon="4.771136">
        <ele>198.659360</ele>
        <time>2017-06-06T09:46:19.000Z</time>
      </trkpt>
      <trkpt lat="44.574270" lon="4.771081">
        <ele>198.542369</ele>
        <time>2017-06-06T09:46:21.000Z</time>
      </trkpt>
      <trkpt lat="44.574165" lon="4.771010">
        <ele>198.420707</ele>
        <time>2017-06-06T09:46:23.000Z</time>
      </trkpt>
      <trkpt lat="44.574060" lon="4.770938">
        <ele>198.298720</ele>
        <time>2017-06-06T09:46:25.000Z</time>
      </trkpt>
      <trkpt lat="44.573956" lon="4.770873">
        <ele>198.179881</ele>
        <time>2017-06-06T09:46:27.000Z</time>
      </trkpt>
      <trkpt lat="44.573856" lon="4.770806">
        <ele>198.064211</ele>
        <time>2017-06-06T09:46:29.000Z</time>
      </trkpt>
      <trkpt lat="44.573765" lon="4.770749">
        <ele>197.960189</ele>
        <time>2017-06-06T09:46:31.000Z</time>
      </trkpt>
      <trkpt lat="44.573666" lon="4.770682">
        <ele>197.853940</ele>
        <time>2017-06-06T09:46:33.000Z</time>
      </trkpt>
      <trkpt lat="44.573566" lon="4.770624">
        <ele>197.865603</ele>
        <time>2017-06-06T09:46:35.000Z</time>
      </trkpt>
      <trkpt lat="44.573470" lon="4.770567">
        <ele>197.876838</ele>
        <time>2017-06-06T09:46:37.000Z</time>
      </trkpt>
      <trkpt lat="44.573376" lon="4.770503">
        <ele>197.888098</ele>
        <time>2017-06-06T09:46:39.000Z</time>
      </trkpt>
      <trkpt lat="44.573284" lon="4.770436">
        <ele>197.899270</ele>
        <time>2017-06-06T09:46:41.000Z</time>
      </trkpt>
      <trkpt lat="44.573185" lon="4.770374">
        <ele>197.910954</ele>
        <time>2017-06-06T09:46:43.000Z</time>
      </trkpt>
      <trkpt lat="44.573086" lon="4.770319">
        <ele>197.922430</ele>
        <time>2017-06-06T09:46:45.000Z</time>
      </trkpt>
      <trkpt lat="44.572980" lon="4.770262">
        <ele>197.934665</ele>
        <time>2017-06-06T09:46:47.000Z</time>
      </trkpt>
      <trkpt lat="44.572880" lon="4.770195">
        <ele>197.946608</ele>
        <time>2017-06-06T09:46:49.000Z</time>
      </trkpt>
      <trkpt lat="44.572784" lon="4.770142">
        <ele>197.957727</ele>
        <time>2017-06-06T09:46:51.000Z</time>
      </trkpt>
      <trkpt lat="44.572690" lon="4.770086">
        <ele>197.968734</ele>
        <time>2017-06-06T09:46:53.000Z</time>
      </trkpt>
      <trkpt lat="44.572594" lon="4.770018">
        <ele>197.980324</ele>
        <time>2017-06-06T09:46:55.000Z</time>
      </trkpt>
      <trkpt lat="44.572502" lon="4.769962">
        <ele>197.991132</ele>
        <time>2017-06-06T09:46:57.000Z</time>
      </trkpt>
      <trkpt lat="44.572410" lon="4.769921">
        <ele>198.001536</ele>
        <time>2017-06-06T09:46:59.000Z</time>
      </trkpt>
      <trkpt lat="44.572280" lon="4.769855">
        <ele>198.016437</ele>
        <time>2017-06-06T09:47:02.000Z</time>
      </trkpt>
      <trkpt lat="44.572180" lon="4.769793">
        <ele>198.028220</ele>
        <time>2017-06-06T09:47:04.000Z</time>
      </trkpt>
      <trkpt lat="44.572086" lon="4.769725">
        <ele>198.039618</ele>
        <time>2017-06-06T09:47:06.000Z</time>
      </trkpt>
      <trkpt lat="44.571990" lon="4.769646">
        <ele>198.033276</ele>
        <time>2017-06-06T09:47:08.000Z</time>
      </trkpt>
      <trkpt lat="44.571920" lon="4.769555">
        <ele>198.002544</ele>
        <time>2017-06-06T09:47:10.000Z</time>
      </trkpt>
      <trkpt lat="44.571850" lon="4.769447">
        <ele>197.969038</ele>
        <time>2017-06-06T09:47:12.000Z</time>
      </trkpt>
      <trkpt lat="44.571785" lon="4.769352">
        <ele>197.938812</ele>
        <time>2017-06-06T09:47:14.000Z</time>
      </trkpt>
      <trkpt lat="44.571724" lon="4.769252">
        <ele>197.908602</ele>
        <time>2017-06-06T09:47:16.000Z</time>
      </trkpt>
      <trkpt lat="44.571636" lon="4.769110">
        <ele>197.865412</ele>
        <time>2017-06-06T09:47:19.000Z</time>
      </trkpt>
      <trkpt lat="44.571580" lon="4.769011">
        <ele>197.836404</ele>
        <time>2017-06-06T09:47:21.000Z</time>
      </trkpt>
      <trkpt lat="44.571510" lon="4.768862">
        <ele>197.795447</ele>
        <time>2017-06-06T09:47:24.000Z</time>
      </trkpt>
      <trkpt lat="44.571440" lon="4.768714">
        <ele>197.754681</ele>
        <time>2017-06-06T09:47:27.000Z</time>
      </trkpt>
      <trkpt lat="44.571384" lon="4.768556">
        <ele>197.714185</ele>
        <time>2017-06-06T09:47:30.000Z</time>
      </trkpt>
      <trkpt lat="44.571330" lon="4.768454">
        <ele>197.685023</ele>
        <time>2017-06-06T09:47:32.000Z</time>
      </trkpt>
      <trkpt lat="44.571274" lon="4.768298">
        <ele>197.644937</ele>
        <time>2017-06-06T09:47:35.000Z</time>
      </trkpt>
      <trkpt lat="44.571228" lon="4.768188">
        <ele>197.615668</ele>
        <time>2017-06-06T09:47:37.000Z</time>
      </trkpt>
      <trkpt lat="44.571186" lon="4.768015">
        <ele>197.573727</ele>
        <time>2017-06-06T09:47:40.000Z</time>
      </trkpt>
      <trkpt lat="44.571160" lon="4.767886">
        <ele>197.542963</ele>
        <time>2017-06-06T09:47:42.000Z</time>
      </trkpt>
      <trkpt lat="44.571136" lon="4.767765">
        <ele>197.514140</ele>
        <time>2017-06-06T09:47:44.000Z</time>
      </trkpt>
      <trkpt lat="44.571095" lon="4.767589">
        <ele>197.471649</ele>
        <time>2017-06-06T09:47:47.000Z</time>
      </trkpt>
      <trkpt lat="44.571060" lon="4.767444">
        <ele>197.078894</ele>
        <time>2017-06-06T09:47:50.000Z</time>
      </trkpt>
      <trkpt lat="44.571026" lon="4.767307">
        <ele>196.662983</ele>
        <time>2017-06-06T09:47:53.000Z</time>
      </trkpt>
      <trkpt lat="44.570988" lon="4.767155">
        <ele>196.201166</ele>
        <time>2017-06-06T09:47:57.000Z</time>
      </trkpt>
      <trkpt lat="44.570960" lon="4.767017">
        <ele>195.789805</ele>
        <time>2017-06-06T09:48:01.000Z</time>
      </trkpt>
      <trkpt lat="44.570927" lon="4.766881">
        <ele>195.377915</ele>
        <time>2017-06-06T09:48:04.000Z</time>
      </trkpt>
      <trkpt lat="44.570896" lon="4.766722">
        <ele>194.905320</ele>
        <time>2017-06-06T09:48:07.000Z</time>
      </trkpt>
      <trkpt lat="44.570850" lon="4.766564">
        <ele>194.415988</ele>
        <time>2017-06-06T09:48:10.000Z</time>
      </trkpt>
      <trkpt lat="44.570816" lon="4.766405">
        <ele>193.940063</ele>
        <time>2017-06-06T09:48:13.000Z</time>
      </trkpt>
      <trkpt lat="44.570780" lon="4.766244">
        <ele>193.456294</ele>
        <time>2017-06-06T09:48:16.000Z</time>
      </trkpt>
      <trkpt lat="44.570755" lon="4.766075">
        <ele>192.961457</ele>
        <time>2017-06-06T09:48:19.000Z</time>
      </trkpt>
      <trkpt lat="44.570710" lon="4.765906">
        <ele>192.444217</ele>
        <time>2017-06-06T09:48:22.000Z</time>
      </trkpt>
      <trkpt lat="44.570663" lon="4.765784">
        <ele>192.046591</ele>
        <time>2017-06-06T09:48:24.000Z</time>
      </trkpt>
      <trkpt lat="44.570614" lon="4.765667">
        <ele>191.657496</ele>
        <time>2017-06-06T09:48:26.000Z</time>
      </trkpt>
      <trkpt lat="44.570515" lon="4.765547">
        <ele>191.131109</ele>
        <time>2017-06-06T09:48:28.000Z</time>
      </trkpt>
      <trkpt lat="44.570400" lon="4.765416">
        <ele>190.535098</ele>
        <time>2017-06-06T09:48:30.000Z</time>
      </trkpt>
      <trkpt lat="44.570286" lon="4.765283">
        <ele>189.832096</ele>
        <time>2017-06-06T09:48:32.000Z</time>
      </trkpt>
      <trkpt lat="44.570168" lon="4.765132">
        <ele>188.954220</ele>
        <time>2017-06-06T09:48:34.000Z</time>
      </trkpt>
      <trkpt lat="44.570030" lon="4.764971">
        <ele>187.967663</ele>
        <time>2017-06-06T09:48:36.000Z</time>
      </trkpt>
      <trkpt lat="44.569960" lon="4.764890">
        <ele>187.468900</ele>
        <time>2017-06-06T09:48:37.000Z</time>
      </trkpt>
      <trkpt lat="44.569820" lon="4.764727">
        <ele>186.468877</ele>
        <time>2017-06-06T09:48:39.000Z</time>
      </trkpt>
      <trkpt lat="44.569750" lon="4.764643">
        <ele>185.962558</ele>
        <time>2017-06-06T09:48:40.000Z</time>
      </trkpt>
      <trkpt lat="44.569614" lon="4.764482">
        <ele>184.984429</ele>
        <time>2017-06-06T09:48:42.000Z</time>
      </trkpt>
      <trkpt lat="44.569485" lon="4.764323">
        <ele>184.040582</ele>
        <time>2017-06-06T09:48:44.000Z</time>
      </trkpt>
      <trkpt lat="44.569366" lon="4.764187">
        <ele>183.196901</ele>
        <time>2017-06-06T09:48:46.000Z</time>
      </trkpt>
      <trkpt lat="44.569252" lon="4.764063">
        <ele>182.403983</ele>
        <time>2017-06-06T09:48:48.000Z</time>
      </trkpt>
      <trkpt lat="44.569140" lon="4.763952">
        <ele>181.650198</ele>
        <time>2017-06-06T09:48:50.000Z</time>
      </trkpt>
      <trkpt lat="44.569042" lon="4.763838">
        <ele>180.950429</ele>
        <time>2017-06-06T09:48:52.000Z</time>
      </trkpt>
      <trkpt lat="44.568930" lon="4.763740">
        <ele>180.316566</ele>
        <time>2017-06-06T09:48:54.000Z</time>
      </trkpt>
      <trkpt lat="44.568817" lon="4.763636">
        <ele>180.163209</ele>
        <time>2017-06-06T09:48:56.000Z</time>
      </trkpt>
      <trkpt lat="44.568710" lon="4.763541">
        <ele>180.019518</ele>
        <time>2017-06-06T09:48:58.000Z</time>
      </trkpt>
      <trkpt lat="44.568607" lon="4.763446">
        <ele>179.879642</ele>
        <time>2017-06-06T09:49:00.000Z</time>
      </trkpt>
      <trkpt lat="44.568497" lon="4.763345">
        <ele>179.730462</ele>
        <time>2017-06-06T09:49:02.000Z</time>
      </trkpt>
      <trkpt lat="44.568386" lon="4.763245">
        <ele>179.580769</ele>
        <time>2017-06-06T09:49:04.000Z</time>
      </trkpt>
      <trkpt lat="44.568280" lon="4.763147">
        <ele>179.436715</ele>
        <time>2017-06-06T09:49:06.000Z</time>
      </trkpt>
      <trkpt lat="44.568176" lon="4.763050">
        <ele>179.295001</ele>
        <time>2017-06-06T09:49:08.000Z</time>
      </trkpt>
      <trkpt lat="44.568073" lon="4.762957">
        <ele>179.156006</ele>
        <time>2017-06-06T09:49:10.000Z</time>
      </trkpt>
      <trkpt lat="44.567974" lon="4.762862">
        <ele>179.019901</ele>
        <time>2017-06-06T09:49:12.000Z</time>
      </trkpt>
      <trkpt lat="44.567880" lon="4.762767">
        <ele>178.888441</ele>
        <time>2017-06-06T09:49:14.000Z</time>
      </trkpt>
      <trkpt lat="44.567795" lon="4.762687">
        <ele>178.772292</ele>
        <time>2017-06-06T09:49:16.000Z</time>
      </trkpt>
      <trkpt lat="44.567707" lon="4.762627">
        <ele>178.661259</ele>
        <time>2017-06-06T09:49:18.000Z</time>
      </trkpt>
      <trkpt lat="44.567623" lon="4.762552">
        <ele>178.548272</ele>
        <time>2017-06-06T09:49:20.000Z</time>
      </trkpt>
      <trkpt lat="44.567535" lon="4.762476">
        <ele>178.431007</ele>
        <time>2017-06-06T09:49:22.000Z</time>
      </trkpt>
      <trkpt lat="44.567444" lon="4.762416">
        <ele>178.316901</ele>
        <time>2017-06-06T09:49:24.000Z</time>
      </trkpt>
      <trkpt lat="44.567345" lon="4.762365">
        <ele>178.266969</ele>
        <time>2017-06-06T09:49:26.000Z</time>
      </trkpt>
      <trkpt lat="44.567257" lon="4.762321">
        <ele>178.233545</ele>
        <time>2017-06-06T09:49:28.000Z</time>
      </trkpt>
      <trkpt lat="44.567173" lon="4.762274">
        <ele>178.201191</ele>
        <time>2017-06-06T09:49:30.000Z</time>
      </trkpt>
      <trkpt lat="44.567060" lon="4.762222">
        <ele>178.158644</ele>
        <time>2017-06-06T09:49:33.000Z</time>
      </trkpt>
      <trkpt lat="44.566960" lon="4.762155">
        <ele>178.118997</ele>
        <time>2017-06-06T09:49:36.000Z</time>
      </trkpt>
      <trkpt lat="44.566853" lon="4.762109">
        <ele>178.078958</ele>
        <time>2017-06-06T09:49:39.000Z</time>
      </trkpt>
      <trkpt lat="44.566757" lon="4.762058">
        <ele>178.042233</ele>
        <time>2017-06-06T09:49:42.000Z</time>
      </trkpt>
      <trkpt lat="44.566666" lon="4.761999">
        <ele>178.006368</ele>
        <time>2017-06-06T09:49:45.000Z</time>
      </trkpt>
      <trkpt lat="44.566550" lon="4.761937">
        <ele>177.961957</ele>
        <time>2017-06-06T09:49:48.000Z</time>
      </trkpt>
      <trkpt lat="44.566437" lon="4.761881">
        <ele>177.919081</ele>
        <time>2017-06-06T09:49:51.000Z</time>
      </trkpt>
      <trkpt lat="44.566340" lon="4.761808">
        <ele>177.879701</ele>
        <time>2017-06-06T09:49:54.000Z</time>
      </trkpt>
      <trkpt lat="44.566254" lon="4.761730">
        <ele>177.843067</ele>
        <time>2017-06-06T09:49:57.000Z</time>
      </trkpt>
      <trkpt lat="44.566162" lon="4.761651">
        <ele>177.804479</ele>
        <time>2017-06-06T09:50:00.000Z</time>
      </trkpt>
      <trkpt lat="44.566080" lon="4.761561">
        <ele>177.767235</ele>
        <time>2017-06-06T09:50:03.000Z</time>
      </trkpt>
      <trkpt lat="44.565983" lon="4.761467">
        <ele>177.725061</ele>
        <time>2017-06-06T09:50:06.000Z</time>
      </trkpt>
      <trkpt lat="44.565887" lon="4.761367">
        <ele>177.682288</ele>
        <time>2017-06-06T09:50:09.000Z</time>
      </trkpt>
      <trkpt lat="44.565784" lon="4.761294">
        <ele>177.643372</ele>
        <time>2017-06-06T09:50:12.000Z</time>
      </trkpt>
      <trkpt lat="44.565678" lon="4.761240">
        <ele>177.609594</ele>
        <time>2017-06-06T09:50:15.000Z</time>
      </trkpt>
      <trkpt lat="44.565575" lon="4.761186">
        <ele>177.576660</ele>
        <time>2017-06-06T09:50:18.000Z</time>
      </trkpt>
      <trkpt lat="44.565453" lon="4.761123">
        <ele>177.537722</ele>
        <time>2017-06-06T09:50:21.000Z</time>
      </trkpt>
      <trkpt lat="44.565323" lon="4.761041">
        <ele>177.495031</ele>
        <time>2017-06-06T09:50:24.000Z</time>
      </trkpt>
      <trkpt lat="44.565230" lon="4.760989">
        <ele>177.465045</ele>
        <time>2017-06-06T09:50:26.000Z</time>
      </trkpt>
      <trkpt lat="44.565140" lon="4.760933">
        <ele>177.435557</ele>
        <time>2017-06-06T09:50:28.000Z</time>
      </trkpt>
      <trkpt lat="44.565063" lon="4.760847">
        <ele>177.406082</ele>
        <time>2017-06-06T09:50:30.000Z</time>
      </trkpt>
      <trkpt lat="44.564995" lon="4.760749">
        <ele>177.376888</ele>
        <time>2017-06-06T09:50:32.000Z</time>
      </trkpt>
      <trkpt lat="44.564926" lon="4.760634">
        <ele>177.344803</ele>
        <time>2017-06-06T09:50:34.000Z</time>
      </trkpt>
      <trkpt lat="44.564860" lon="4.760526">
        <ele>177.314438</ele>
        <time>2017-06-06T09:50:36.000Z</time>
      </trkpt>
      <trkpt lat="44.564796" lon="4.760438">
        <ele>177.287602</ele>
        <time>2017-06-06T09:50:38.000Z</time>
      </trkpt>
      <trkpt lat="44.564700" lon="4.760310">
        <ele>177.247940</ele>
        <time>2017-06-06T09:50:41.000Z</time>
      </trkpt>
      <trkpt lat="44.564630" lon="4.760219">
        <ele>177.219361</ele>
        <time>2017-06-06T09:50:43.000Z</time>
      </trkpt>
      <trkpt lat="44.564568" lon="4.760121">
        <ele>177.191392</ele>
        <time>2017-06-06T09:50:45.000Z</time>
      </trkpt>
      <trkpt lat="44.564495" lon="4.760039">
        <ele>177.163385</ele>
        <time>2017-06-06T09:50:47.000Z</time>
      </trkpt>
      <trkpt lat="44.564423" lon="4.759951">
        <ele>177.134788</ele>
        <time>2017-06-06T09:50:49.000Z</time>
      </trkpt>
      <trkpt lat="44.564350" lon="4.759865">
        <ele>177.088449</ele>
        <time>2017-06-06T09:50:51.000Z</time>
      </trkpt>
      <trkpt lat="44.564280" lon="4.759783">
        <ele>177.015067</ele>
        <time>2017-06-06T09:50:53.000Z</time>
      </trkpt>
      <trkpt lat="44.564210" lon="4.759693">
        <ele>176.938664</ele>
        <time>2017-06-06T09:50:55.000Z</time>
      </trkpt>
      <trkpt lat="44.564114" lon="4.759567">
        <ele>176.832882</ele>
        <time>2017-06-06T09:50:58.000Z</time>
      </trkpt>
      <trkpt lat="44.564045" lon="4.759482">
        <ele>176.758992</ele>
        <time>2017-06-06T09:51:00.000Z</time>
      </trkpt>
      <trkpt lat="44.563980" lon="4.759379">
        <ele>176.680093</ele>
        <time>2017-06-06T09:51:02.000Z</time>
      </trkpt>
      <trkpt lat="44.563915" lon="4.759267">
        <ele>176.597259</ele>
        <time>2017-06-06T09:51:04.000Z</time>
      </trkpt>
      <trkpt lat="44.563854" lon="4.759138">
        <ele>176.508478</ele>
        <time>2017-06-06T09:51:06.000Z</time>
      </trkpt>
      <trkpt lat="44.563786" lon="4.759019">
        <ele>176.421005</ele>
        <time>2017-06-06T09:51:08.000Z</time>
      </trkpt>
      <trkpt lat="44.563700" lon="4.758908">
        <ele>176.326972</ele>
        <time>2017-06-06T09:51:10.000Z</time>
      </trkpt>
      <trkpt lat="44.563614" lon="4.758794">
        <ele>176.231767</ele>
        <time>2017-06-06T09:51:12.000Z</time>
      </trkpt>
      <trkpt lat="44.563526" lon="4.758703">
        <ele>176.143794</ele>
        <time>2017-06-06T09:51:14.000Z</time>
      </trkpt>
      <trkpt lat="44.563446" lon="4.758623">
        <ele>176.064736</ele>
        <time>2017-06-06T09:51:17.000Z</time>
      </trkpt>
      <trkpt lat="44.563343" lon="4.758507">
        <ele>175.958450</ele>
        <time>2017-06-06T09:51:52.000Z</time>
      </trkpt>
      <trkpt lat="44.563260" lon="4.758402">
        <ele>175.868519</ele>
        <time>2017-06-06T09:51:56.000Z</time>
      </trkpt>
      <trkpt lat="44.563168" lon="4.758296">
        <ele>175.772721</ele>
        <time>2017-06-06T09:52:00.000Z</time>
      </trkpt>
      <trkpt lat="44.563100" lon="4.758174">
        <ele>175.683899</ele>
        <time>2017-06-06T09:52:03.000Z</time>
      </trkpt>
      <trkpt lat="44.563010" lon="4.758060">
        <ele>175.588427</ele>
        <time>2017-06-06T09:52:06.000Z</time>
      </trkpt>
      <trkpt lat="44.562940" lon="4.757983">
        <ele>175.518662</ele>
        <time>2017-06-06T09:52:08.000Z</time>
      </trkpt>
      <trkpt lat="44.562862" lon="4.757912">
        <ele>175.445736</ele>
        <time>2017-06-06T09:52:10.000Z</time>
      </trkpt>
      <trkpt lat="44.562750" lon="4.757825">
        <ele>175.345321</ele>
        <time>2017-06-06T09:52:13.000Z</time>
      </trkpt>
      <trkpt lat="44.562650" lon="4.757766">
        <ele>175.260229</ele>
        <time>2017-06-06T09:52:16.000Z</time>
      </trkpt>
      <trkpt lat="44.562540" lon="4.757713">
        <ele>175.168999</ele>
        <time>2017-06-06T09:52:19.000Z</time>
      </trkpt>
      <trkpt lat="44.562443" lon="4.757665">
        <ele>175.088318</ele>
        <time>2017-06-06T09:52:22.000Z</time>
      </trkpt>
      <trkpt lat="44.562424" lon="4.757509">
        <ele>174.999865</ele>
        <time>2017-06-06T09:52:26.000Z</time>
      </trkpt>
      <trkpt lat="44.562454" lon="4.757381">
        <ele>174.924555</ele>
        <time>2017-06-06T09:52:29.000Z</time>
      </trkpt>
      <trkpt lat="44.562485" lon="4.757235">
        <ele>174.839410</ele>
        <time>2017-06-06T09:52:32.000Z</time>
      </trkpt>
      <trkpt lat="44.562508" lon="4.757098">
        <ele>174.760744</ele>
        <time>2017-06-06T09:52:35.000Z</time>
      </trkpt>
      <trkpt lat="44.562515" lon="4.756969">
        <ele>174.688438</ele>
        <time>2017-06-06T09:52:38.000Z</time>
      </trkpt>
      <trkpt lat="44.562492" lon="4.756841">
        <ele>174.614659</ele>
        <time>2017-06-06T09:52:42.000Z</time>
      </trkpt>
      <trkpt lat="44.562416" lon="4.756749">
        <ele>174.535931</ele>
        <time>2017-06-06T09:52:45.000Z</time>
      </trkpt>
      <trkpt lat="44.562313" lon="4.756755">
        <ele>174.455065</ele>
        <time>2017-06-06T09:52:49.000Z</time>
      </trkpt>
      <trkpt lat="44.562218" lon="4.756751">
        <ele>174.380510</ele>
        <time>2017-06-06T09:52:53.000Z</time>
      </trkpt>
      <trkpt lat="44.562107" lon="4.756737">
        <ele>174.293087</ele>
        <time>2017-06-06T09:52:57.000Z</time>
      </trkpt>
      <trkpt lat="44.561985" lon="4.756734">
        <ele>174.115474</ele>
        <time>2017-06-06T09:53:01.000Z</time>
      </trkpt>
      <trkpt lat="44.561880" lon="4.756699">
        <ele>173.916946</ele>
        <time>2017-06-06T09:53:04.000Z</time>
      </trkpt>
      <trkpt lat="44.561768" lon="4.756630">
        <ele>173.691939</ele>
        <time>2017-06-06T09:53:07.000Z</time>
      </trkpt>
      <trkpt lat="44.561676" lon="4.756551">
        <ele>173.493536</ele>
        <time>2017-06-06T09:53:10.000Z</time>
      </trkpt>
      <trkpt lat="44.561584" lon="4.756495">
        <ele>173.309064</ele>
        <time>2017-06-06T09:53:13.000Z</time>
      </trkpt>
      <trkpt lat="44.561474" lon="4.756425">
        <ele>173.086883</ele>
        <time>2017-06-06T09:53:17.000Z</time>
      </trkpt>
      <trkpt lat="44.561390" lon="4.756379">
        <ele>172.921013</ele>
        <time>2017-06-06T09:53:20.000Z</time>
      </trkpt>
      <trkpt lat="44.561314" lon="4.756449">
        <ele>172.753788</ele>
        <time>2017-06-06T09:53:23.000Z</time>
      </trkpt>
      <trkpt lat="44.561280" lon="4.756587">
        <ele>172.562403</ele>
        <time>2017-06-06T09:53:26.000Z</time>
      </trkpt>
      <trkpt lat="44.561230" lon="4.756734">
        <ele>172.348902</ele>
        <time>2017-06-06T09:53:29.000Z</time>
      </trkpt>
      <trkpt lat="44.561207" lon="4.756884">
        <ele>172.147796</ele>
        <time>2017-06-06T09:53:32.000Z</time>
      </trkpt>
      <trkpt lat="44.561146" lon="4.757035">
        <ele>171.920282</ele>
        <time>2017-06-06T09:53:35.000Z</time>
      </trkpt>
      <trkpt lat="44.561035" lon="4.757062">
        <ele>171.713045</ele>
        <time>2017-06-06T09:53:38.000Z</time>
      </trkpt>
      <trkpt lat="44.560955" lon="4.756985">
        <ele>171.534598</ele>
        <time>2017-06-06T09:53:41.000Z</time>
      </trkpt>
      <trkpt lat="44.560905" lon="4.756876">
        <ele>171.364683</ele>
        <time>2017-06-06T09:53:44.000Z</time>
      </trkpt>
      <trkpt lat="44.560837" lon="4.756788">
        <ele>171.194531</ele>
        <time>2017-06-06T09:53:48.000Z</time>
      </trkpt>
      <trkpt lat="44.560757" lon="4.756699">
        <ele>171.006740</ele>
        <time>2017-06-06T09:53:52.000Z</time>
      </trkpt>
      <trkpt lat="44.560650" lon="4.756637">
        <ele>170.811801</ele>
        <time>2017-06-06T09:53:55.000Z</time>
      </trkpt>
      <trkpt lat="44.560550" lon="4.756576">
        <ele>170.634419</ele>
        <time>2017-06-06T09:53:57.000Z</time>
      </trkpt>
      <trkpt lat="44.560432" lon="4.756511">
        <ele>170.428199</ele>
        <time>2017-06-06T09:54:00.000Z</time>
      </trkpt>
      <trkpt lat="44.560337" lon="4.756431">
        <ele>170.247967</ele>
        <time>2017-06-06T09:54:02.000Z</time>
      </trkpt>
      <trkpt lat="44.560265" lon="4.756341">
        <ele>170.091116</ele>
        <time>2017-06-06T09:54:04.000Z</time>
      </trkpt>
      <trkpt lat="44.560204" lon="4.756223">
        <ele>169.922132</ele>
        <time>2017-06-06T09:54:07.000Z</time>
      </trkpt>
      <trkpt lat="44.560220" lon="4.756098">
        <ele>169.774922</ele>
        <time>2017-06-06T09:54:11.000Z</time>
      </trkpt>
      <trkpt lat="44.560246" lon="4.755972">
        <ele>169.622870</ele>
        <time>2017-06-06T09:54:15.000Z</time>
      </trkpt>
      <trkpt lat="44.560287" lon="4.755854">
        <ele>169.470697</ele>
        <time>2017-06-06T09:54:19.000Z</time>
      </trkpt>
      <trkpt lat="44.560330" lon="4.755732">
        <ele>169.312929</ele>
        <time>2017-06-06T09:54:23.000Z</time>
      </trkpt>
      <trkpt lat="44.560360" lon="4.755593">
        <ele>169.144581</ele>
        <time>2017-06-06T09:54:28.000Z</time>
      </trkpt>
      <trkpt lat="44.560410" lon="4.755462">
        <ele>168.972322</ele>
        <time>2017-06-06T09:54:33.000Z</time>
      </trkpt>
      <trkpt lat="44.560444" lon="4.755303">
        <ele>168.779901</ele>
        <time>2017-06-06T09:54:37.000Z</time>
      </trkpt>
      <trkpt lat="44.560463" lon="4.755161">
        <ele>168.612429</ele>
        <time>2017-06-06T09:54:40.000Z</time>
      </trkpt>
      <trkpt lat="44.560493" lon="4.755036">
        <ele>168.459540</ele>
        <time>2017-06-06T09:54:44.000Z</time>
      </trkpt>
      <trkpt lat="44.560550" lon="4.754914">
        <ele>168.290436</ele>
        <time>2017-06-06T09:54:49.000Z</time>
      </trkpt>
      <trkpt lat="44.560620" lon="4.754791">
        <ele>168.107969</ele>
        <time>2017-06-06T09:54:54.000Z</time>
      </trkpt>
      <trkpt lat="44.560673" lon="4.754668">
        <ele>167.822215</ele>
        <time>2017-06-06T09:54:58.000Z</time>
      </trkpt>
      <trkpt lat="44.560726" lon="4.754538">
        <ele>167.396717</ele>
        <time>2017-06-06T09:55:02.000Z</time>
      </trkpt>
      <trkpt lat="44.560574" lon="4.754433">
        <ele>166.721238</ele>
        <time>2017-06-06T09:56:53.000Z</time>
      </trkpt>
      <trkpt lat="44.560470" lon="4.754401">
        <ele>166.296725</ele>
        <time>2017-06-06T09:56:57.000Z</time>
      </trkpt>
      <trkpt lat="44.560463" lon="4.754273">
        <ele>165.932022</ele>
        <time>2017-06-06T09:57:01.000Z</time>
      </trkpt>
      <trkpt lat="44.560577" lon="4.754312">
        <ele>165.464178</ele>
        <time>2017-06-06T09:57:05.000Z</time>
      </trkpt>
      <trkpt lat="44.560673" lon="4.754370">
        <ele>165.047453</ele>
        <time>2017-06-06T09:57:08.000Z</time>
      </trkpt>
      <trkpt lat="44.560772" lon="4.754376">
        <ele>164.652357</ele>
        <time>2017-06-06T09:57:12.000Z</time>
      </trkpt>
      <trkpt lat="44.560703" lon="4.754273">
        <ele>164.250725</ele>
        <time>2017-06-06T09:57:16.000Z</time>
      </trkpt>
      <trkpt lat="44.560590" lon="4.754245">
        <ele>163.793209</ele>
        <time>2017-06-06T09:57:19.000Z</time>
      </trkpt>
      <trkpt lat="44.560500" lon="4.754193">
        <ele>163.405147</ele>
        <time>2017-06-06T09:57:22.000Z</time>
      </trkpt>
      <trkpt lat="44.560596" lon="4.754149">
        <ele>163.002487</ele>
        <time>2017-06-06T09:57:26.000Z</time>
      </trkpt>
      <trkpt lat="44.560696" lon="4.754229">
        <ele>162.543547</ele>
        <time>2017-06-06T09:57:29.000Z</time>
      </trkpt>
      <trkpt lat="44.560787" lon="4.754281">
        <ele>162.151796</ele>
        <time>2017-06-06T09:57:32.000Z</time>
      </trkpt>
      <trkpt lat="44.560726" lon="4.754174">
        <ele>161.762496</ele>
        <time>2017-06-06T09:57:41.000Z</time>
      </trkpt>
      <trkpt lat="44.560635" lon="4.754127">
        <ele>161.375877</ele>
        <time>2017-06-06T09:57:45.000Z</time>
      </trkpt>
      <trkpt lat="44.560560" lon="4.754014">
        <ele>160.937156</ele>
        <time>2017-06-06T09:57:56.000Z</time>
      </trkpt>
      <trkpt lat="44.560562" lon="4.753852">
        <ele>160.264322</ele>
        <time>2017-06-06T09:58:00.000Z</time>
      </trkpt>
      <trkpt lat="44.560596" lon="4.753712">
        <ele>159.606060</ele>
        <time>2017-06-06T09:58:03.000Z</time>
      </trkpt>
      <trkpt lat="44.560654" lon="4.753577">
        <ele>158.904477</ele>
        <time>2017-06-06T09:58:06.000Z</time>
      </trkpt>
      <trkpt lat="44.560730" lon="4.753438">
        <ele>158.124715</ele>
        <time>2017-06-06T09:58:10.000Z</time>
      </trkpt>
      <trkpt lat="44.560764" lon="4.753289">
        <ele>157.428423</ele>
        <time>2017-06-06T09:58:14.000Z</time>
      </trkpt>
      <trkpt lat="44.560783" lon="4.753141">
        <ele>156.759152</ele>
        <time>2017-06-06T09:58:21.000Z</time>
      </trkpt>
      <trkpt lat="44.560833" lon="4.752994">
        <ele>156.034216</ele>
        <time>2017-06-06T09:58:25.000Z</time>
      </trkpt>
      <trkpt lat="44.560925" lon="4.752913">
        <ele>155.355858</ele>
        <time>2017-06-06T09:58:30.000Z</time>
      </trkpt>
      <trkpt lat="44.561000" lon="4.752806">
        <ele>154.687862</ele>
        <time>2017-06-06T09:58:35.000Z</time>
      </trkpt>
      <trkpt lat="44.560970" lon="4.752682">
        <ele>154.105064</ele>
        <time>2017-06-06T09:58:39.000Z</time>
      </trkpt>
      <trkpt lat="44.560883" lon="4.752608">
        <ele>153.469642</ele>
        <time>2017-06-06T09:58:43.000Z</time>
      </trkpt>
      <trkpt lat="44.560790" lon="4.752518">
        <ele>152.764044</ele>
        <time>2017-06-06T09:58:48.000Z</time>
      </trkpt>
      <trkpt lat="44.560707" lon="4.752430">
        <ele>152.114311</ele>
        <time>2017-06-06T09:58:52.000Z</time>
      </trkpt>
      <trkpt lat="44.560623" lon="4.752335">
        <ele>151.440486</ele>
        <time>2017-06-06T09:59:06.000Z</time>
      </trkpt>
      <trkpt lat="44.560524" lon="4.752250">
        <ele>150.715583</ele>
        <time>2017-06-06T09:59:10.000Z</time>
      </trkpt>
      <trkpt lat="44.560436" lon="4.752177">
        <ele>150.077085</ele>
        <time>2017-06-06T09:59:13.000Z</time>
      </trkpt>
      <trkpt lat="44.560360" lon="4.752108">
        <ele>149.545013</ele>
        <time>2017-06-06T09:59:16.000Z</time>
      </trkpt>
      <trkpt lat="44.560260" lon="4.752013">
        <ele>149.028487</ele>
        <time>2017-06-06T09:59:20.000Z</time>
      </trkpt>
      <trkpt lat="44.560173" lon="4.751931">
        <ele>148.580216</ele>
        <time>2017-06-06T09:59:23.000Z</time>
      </trkpt>
      <trkpt lat="44.560093" lon="4.751839">
        <ele>148.137813</ele>
        <time>2017-06-06T09:59:27.000Z</time>
      </trkpt>
      <trkpt lat="44.560010" lon="4.751760">
        <ele>147.708839</ele>
        <time>2017-06-06T09:59:31.000Z</time>
      </trkpt>
      <trkpt lat="44.559925" lon="4.751645">
        <ele>147.203824</ele>
        <time>2017-06-06T09:59:35.000Z</time>
      </trkpt>
      <trkpt lat="44.559850" lon="4.751562">
        <ele>146.795277</ele>
        <time>2017-06-06T09:59:39.000Z</time>
      </trkpt>
      <trkpt lat="44.559750" lon="4.751512">
        <ele>146.341195</ele>
        <time>2017-06-06T09:59:49.000Z</time>
      </trkpt>
      <trkpt lat="44.559660" lon="4.751465">
        <ele>145.930435</ele>
        <time>2017-06-06T09:59:54.000Z</time>
      </trkpt>
      <trkpt lat="44.559574" lon="4.751397">
        <ele>145.508208</ele>
        <time>2017-06-06T09:59:58.000Z</time>
      </trkpt>
      <trkpt lat="44.559486" lon="4.751328">
        <ele>145.077029</ele>
        <time>2017-06-06T10:00:03.000Z</time>
      </trkpt>
      <trkpt lat="44.559410" lon="4.751258">
        <ele>144.688186</ele>
        <time>2017-06-06T10:00:08.000Z</time>
      </trkpt>
      <trkpt lat="44.559456" lon="4.751141">
        <ele>144.280909</ele>
        <time>2017-06-06T10:00:13.000Z</time>
      </trkpt>
      <trkpt lat="44.559464" lon="4.750987">
        <ele>143.810303</ele>
        <time>2017-06-06T10:00:17.000Z</time>
      </trkpt>
      <trkpt lat="44.559470" lon="4.750856">
        <ele>143.410217</ele>
        <time>2017-06-06T10:00:22.000Z</time>
      </trkpt>
      <trkpt lat="44.559390" lon="4.750780">
        <ele>142.996994</ele>
        <time>2017-06-06T10:00:31.000Z</time>
      </trkpt>
      <trkpt lat="44.559376" lon="4.750917">
        <ele>142.575173</ele>
        <time>2017-06-06T11:17:48.000Z</time>
      </trkpt>
      <trkpt lat="44.559376" lon="4.750791">
        <ele>142.191150</ele>
        <time>2017-06-06T11:19:09.000Z</time>
      </trkpt>
      <trkpt lat="44.559300" lon="4.750725">
        <ele>141.840213</ele>
        <time>2017-06-06T11:20:03.000Z</time>
      </trkpt>
      <trkpt lat="44.559277" lon="4.750597">
        <ele>141.547706</ele>
        <time>2017-06-06T11:20:08.000Z</time>
      </trkpt>
      <trkpt lat="44.559177" lon="4.750575">
        <ele>141.232925</ele>
        <time>2017-06-06T11:20:15.000Z</time>
      </trkpt>
      <trkpt lat="44.559150" lon="4.750431">
        <ele>140.902981</ele>
        <time>2017-06-06T11:22:55.000Z</time>
      </trkpt>
      <trkpt lat="44.559162" lon="4.750276">
        <ele>140.557504</ele>
        <time>2017-06-06T11:22:59.000Z</time>
      </trkpt>
      <trkpt lat="44.559170" lon="4.750126">
        <ele>140.224199</ele>
        <time>2017-06-06T11:23:03.000Z</time>
      </trkpt>
      <trkpt lat="44.559174" lon="4.749963">
        <ele>139.862803</ele>
        <time>2017-06-06T11:23:08.000Z</time>
      </trkpt>
      <trkpt lat="44.559180" lon="4.749820">
        <ele>139.545389</ele>
        <time>2017-06-06T11:23:12.000Z</time>
      </trkpt>
      <trkpt lat="44.559162" lon="4.749686">
        <ele>139.243236</ele>
        <time>2017-06-06T11:23:16.000Z</time>
      </trkpt>
      <trkpt lat="44.559180" lon="4.749816">
        <ele>138.949788</ele>
        <time>2017-06-06T11:23:31.000Z</time>
      </trkpt>
      <trkpt lat="44.559177" lon="4.749977">
        <ele>138.592916</ele>
        <time>2017-06-06T11:23:36.000Z</time>
      </trkpt>
      <trkpt lat="44.559196" lon="4.750114">
        <ele>138.283649</ele>
        <time>2017-06-06T11:23:40.000Z</time>
      </trkpt>
      <trkpt lat="44.559204" lon="4.750240">
        <ele>138.003347</ele>
        <time>2017-06-06T11:23:47.000Z</time>
      </trkpt>
      <trkpt lat="44.559208" lon="4.750389">
        <ele>137.672953</ele>
        <time>2017-06-06T11:23:59.000Z</time>
      </trkpt>
      <trkpt lat="44.559150" lon="4.750496">
        <ele>137.375048</ele>
        <time>2017-06-06T11:24:05.000Z</time>
      </trkpt>
      <trkpt lat="44.559055" lon="4.750455">
        <ele>137.065961</ele>
        <time>2017-06-06T11:24:09.000Z</time>
      </trkpt>
      <trkpt lat="44.558964" lon="4.750415">
        <ele>136.769410</ele>
        <time>2017-06-06T11:24:13.000Z</time>
      </trkpt>
      <trkpt lat="44.558870" lon="4.750410">
        <ele>136.476876</ele>
        <time>2017-06-06T11:24:17.000Z</time>
      </trkpt>
      <trkpt lat="44.558765" lon="4.750362">
        <ele>136.413804</ele>
        <time>2017-06-06T11:24:22.000Z</time>
      </trkpt>
      <trkpt lat="44.558660" lon="4.750320">
        <ele>136.558007</ele>
        <time>2017-06-06T11:24:27.000Z</time>
      </trkpt>
      <trkpt lat="44.558563" lon="4.750300">
        <ele>136.687497</ele>
        <time>2017-06-06T11:24:31.000Z</time>
      </trkpt>
      <trkpt lat="44.558464" lon="4.750262">
        <ele>136.823054</ele>
        <time>2017-06-06T11:24:36.000Z</time>
      </trkpt>
      <trkpt lat="44.558380" lon="4.750216">
        <ele>136.942145</ele>
        <time>2017-06-06T11:24:41.000Z</time>
      </trkpt>
      <trkpt lat="44.558292" lon="4.750166">
        <ele>137.067536</ele>
        <time>2017-06-06T11:24:46.000Z</time>
      </trkpt>
      <trkpt lat="44.558205" lon="4.750107">
        <ele>137.195155</ele>
        <time>2017-06-06T11:24:52.000Z</time>
      </trkpt>
      <trkpt lat="44.558117" lon="4.750068">
        <ele>137.317040</ele>
        <time>2017-06-06T11:24:56.000Z</time>
      </trkpt>
      <trkpt lat="44.558020" lon="4.750040">
        <ele>137.447836</ele>
        <time>2017-06-06T11:25:00.000Z</time>
      </trkpt>
      <trkpt lat="44.557934" lon="4.750021">
        <ele>137.562820</ele>
        <time>2017-06-06T11:25:04.000Z</time>
      </trkpt>
      <trkpt lat="44.557835" lon="4.749938">
        <ele>137.715130</ele>
        <time>2017-06-06T11:25:09.000Z</time>
      </trkpt>
      <trkpt lat="44.557740" lon="4.749891">
        <ele>137.848171</ele>
        <time>2017-06-06T11:25:13.000Z</time>
      </trkpt>
      <trkpt lat="44.557636" lon="4.749852">
        <ele>137.990350</ele>
        <time>2017-06-06T11:25:18.000Z</time>
      </trkpt>
      <trkpt lat="44.557540" lon="4.749838">
        <ele>138.117826</ele>
        <time>2017-06-06T11:25:23.000Z</time>
      </trkpt>
      <trkpt lat="44.557440" lon="4.749784">
        <ele>138.259342</ele>
        <time>2017-06-06T11:25:28.000Z</time>
      </trkpt>
      <trkpt lat="44.557354" lon="4.749733">
        <ele>138.382652</ele>
        <time>2017-06-06T11:25:33.000Z</time>
      </trkpt>
      <trkpt lat="44.557330" lon="4.749580">
        <ele>138.530090</ele>
        <time>2017-06-06T11:25:39.000Z</time>
      </trkpt>
      <trkpt lat="44.557346" lon="4.749439">
        <ele>138.664458</ele>
        <time>2017-06-06T11:25:43.000Z</time>
      </trkpt>
      <trkpt lat="44.557365" lon="4.749281">
        <ele>138.890870</ele>
        <time>2017-06-06T11:25:48.000Z</time>
      </trkpt>
      <trkpt lat="44.557358" lon="4.749155">
        <ele>139.091988</ele>
        <time>2017-06-06T11:25:52.000Z</time>
      </trkpt>
      <trkpt lat="44.557270" lon="4.749079">
        <ele>139.322751</ele>
        <time>2017-06-06T11:26:00.000Z</time>
      </trkpt>
      <trkpt lat="44.557180" lon="4.749035">
        <ele>139.535596</ele>
        <time>2017-06-06T11:26:04.000Z</time>
      </trkpt>
      <trkpt lat="44.557068" lon="4.749007">
        <ele>139.789665</ele>
        <time>2017-06-06T11:26:09.000Z</time>
      </trkpt>
      <trkpt lat="44.556957" lon="4.748994">
        <ele>140.038424</ele>
        <time>2017-06-06T11:26:13.000Z</time>
      </trkpt>
      <trkpt lat="44.556860" lon="4.748942">
        <ele>140.270322</ele>
        <time>2017-06-06T11:26:17.000Z</time>
      </trkpt>
      <trkpt lat="44.556747" lon="4.748921">
        <ele>140.524889</ele>
        <time>2017-06-06T11:26:21.000Z</time>
      </trkpt>
      <trkpt lat="44.556633" lon="4.748929">
        <ele>140.779805</ele>
        <time>2017-06-06T11:26:25.000Z</time>
      </trkpt>
      <trkpt lat="44.556520" lon="4.748905">
        <ele>141.035043</ele>
        <time>2017-06-06T11:26:29.000Z</time>
      </trkpt>
      <trkpt lat="44.556423" lon="4.748916">
        <ele>141.252380</ele>
        <time>2017-06-06T11:26:35.000Z</time>
      </trkpt>
      <trkpt lat="44.556510" lon="4.748868">
        <ele>141.461154</ele>
        <time>2017-06-06T11:26:46.000Z</time>
      </trkpt>
      <trkpt lat="44.556625" lon="4.748884">
        <ele>141.719244</ele>
        <time>2017-06-06T11:26:50.000Z</time>
      </trkpt>
      <trkpt lat="44.556705" lon="4.748947">
        <ele>141.924116</ele>
        <time>2017-06-06T11:26:53.000Z</time>
      </trkpt>
      <trkpt lat="44.556800" lon="4.748892">
        <ele>142.153625</ele>
        <time>2017-06-06T11:26:57.000Z</time>
      </trkpt>
      <trkpt lat="44.556870" lon="4.748768">
        <ele>142.405375</ele>
        <time>2017-06-06T11:27:01.000Z</time>
      </trkpt>
      <trkpt lat="44.556870" lon="4.748640">
        <ele>142.609069</ele>
        <time>2017-06-06T11:27:05.000Z</time>
      </trkpt>
      <trkpt lat="44.556847" lon="4.748509">
        <ele>142.402253</ele>
        <time>2017-06-06T11:27:12.000Z</time>
      </trkpt>
      <trkpt lat="44.556812" lon="4.748375">
        <ele>141.681727</ele>
        <time>2017-06-06T11:27:17.000Z</time>
      </trkpt>
      <trkpt lat="44.556847" lon="4.748246">
        <ele>140.984847</ele>
        <time>2017-06-06T11:27:21.000Z</time>
      </trkpt>
      <trkpt lat="44.556904" lon="4.748144">
        <ele>140.330419</ele>
        <time>2017-06-06T11:27:25.000Z</time>
      </trkpt>
      <trkpt lat="44.556812" lon="4.748099">
        <ele>139.640127</ele>
        <time>2017-06-06T11:27:34.000Z</time>
      </trkpt>
      <trkpt lat="44.556793" lon="4.747954">
        <ele>138.895809</ele>
        <time>2017-06-06T11:27:39.000Z</time>
      </trkpt>
      <trkpt lat="44.556810" lon="4.747819">
        <ele>138.203691</ele>
        <time>2017-06-06T11:27:43.000Z</time>
      </trkpt>
      <trkpt lat="44.556824" lon="4.747693">
        <ele>137.559884</ele>
        <time>2017-06-06T11:27:47.000Z</time>
      </trkpt>
      <trkpt lat="44.556793" lon="4.747568">
        <ele>136.891682</ele>
        <time>2017-06-06T11:27:55.000Z</time>
      </trkpt>
      <trkpt lat="44.556820" lon="4.747423">
        <ele>136.135056</ele>
        <time>2017-06-06T11:28:30.000Z</time>
      </trkpt>
      <trkpt lat="44.556873" lon="4.747299">
        <ele>135.405046</ele>
        <time>2017-06-06T11:28:37.000Z</time>
      </trkpt>
      <trkpt lat="44.556885" lon="4.747136">
        <ele>134.577749</ele>
        <time>2017-06-06T11:28:42.000Z</time>
      </trkpt>
      <trkpt lat="44.556843" lon="4.747010">
        <ele>133.875467</ele>
        <time>2017-06-06T11:28:45.000Z</time>
      </trkpt>
      <trkpt lat="44.556812" lon="4.746888">
        <ele>133.221551</ele>
        <time>2017-06-06T11:28:49.000Z</time>
      </trkpt>
      <trkpt lat="44.556786" lon="4.746750">
        <ele>132.500906</ele>
        <time>2017-06-06T11:28:54.000Z</time>
      </trkpt>
      <trkpt lat="44.556755" lon="4.746604">
        <ele>131.731785</ele>
        <time>2017-06-06T11:28:59.000Z</time>
      </trkpt>
      <trkpt lat="44.556730" lon="4.746474">
        <ele>131.051988</ele>
        <time>2017-06-06T11:29:04.000Z</time>
      </trkpt>
      <trkpt lat="44.556744" lon="4.746321">
        <ele>130.273212</ele>
        <time>2017-06-06T11:29:08.000Z</time>
      </trkpt>
      <trkpt lat="44.556730" lon="4.746168">
        <ele>129.887844</ele>
        <time>2017-06-06T11:29:12.000Z</time>
      </trkpt>
      <trkpt lat="44.556713" lon="4.746015">
        <ele>129.740700</ele>
        <time>2017-06-06T11:29:16.000Z</time>
      </trkpt>
      <trkpt lat="44.556700" lon="4.745862">
        <ele>129.594283</ele>
        <time>2017-06-06T11:29:20.000Z</time>
      </trkpt>
      <trkpt lat="44.556700" lon="4.745720">
        <ele>129.459349</ele>
        <time>2017-06-06T11:29:24.000Z</time>
      </trkpt>
      <trkpt lat="44.556705" lon="4.745581">
        <ele>129.327097</ele>
        <time>2017-06-06T11:29:28.000Z</time>
      </trkpt>
      <trkpt lat="44.556747" lon="4.745425">
        <ele>129.168631</ele>
        <time>2017-06-06T11:29:32.000Z</time>
      </trkpt>
      <trkpt lat="44.556786" lon="4.745308">
        <ele>129.045889</ele>
        <time>2017-06-06T11:29:35.000Z</time>
      </trkpt>
      <trkpt lat="44.556830" lon="4.745150">
        <ele>128.884693</ele>
        <time>2017-06-06T11:29:39.000Z</time>
      </trkpt>
      <trkpt lat="44.556870" lon="4.745012">
        <ele>128.743125</ele>
        <time>2017-06-06T11:29:43.000Z</time>
      </trkpt>
      <trkpt lat="44.556812" lon="4.744911">
        <ele>128.619863</ele>
        <time>2017-06-06T11:29:50.000Z</time>
      </trkpt>
      <trkpt lat="44.556790" lon="4.744764">
        <ele>128.477130</ele>
        <time>2017-06-06T11:29:55.000Z</time>
      </trkpt>
      <trkpt lat="44.556720" lon="4.744661">
        <ele>128.341876</ele>
        <time>2017-06-06T11:30:01.000Z</time>
      </trkpt>
      <trkpt lat="44.556683" lon="4.744532">
        <ele>128.209736</ele>
        <time>2017-06-06T11:30:09.000Z</time>
      </trkpt>
      <trkpt lat="44.556698" lon="4.744396">
        <ele>128.078965</ele>
        <time>2017-06-06T11:30:15.000Z</time>
      </trkpt>
      <trkpt lat="44.556694" lon="4.744242">
        <ele>127.932530</ele>
        <time>2017-06-06T11:30:20.000Z</time>
      </trkpt>
      <trkpt lat="44.556700" lon="4.744099">
        <ele>127.796410</ele>
        <time>2017-06-06T11:30:24.000Z</time>
      </trkpt>
      <trkpt lat="44.556713" lon="4.743970">
        <ele>127.672609</ele>
        <time>2017-06-06T11:30:27.000Z</time>
      </trkpt>
      <trkpt lat="44.556725" lon="4.743827">
        <ele>127.585091</ele>
        <time>2017-06-06T11:30:30.000Z</time>
      </trkpt>
      <trkpt lat="44.556760" lon="4.743685">
        <ele>127.599932</ele>
        <time>2017-06-06T11:30:33.000Z</time>
      </trkpt>
      <trkpt lat="44.556800" lon="4.743553">
        <ele>127.614100</ele>
        <time>2017-06-06T11:30:36.000Z</time>
      </trkpt>
      <trkpt lat="44.556840" lon="4.743411">
        <ele>127.629183</ele>
        <time>2017-06-06T11:30:40.000Z</time>
      </trkpt>
      <trkpt lat="44.556890" lon="4.743283">
        <ele>127.643601</ele>
        <time>2017-06-06T11:30:44.000Z</time>
      </trkpt>
      <trkpt lat="44.556910" lon="4.743157">
        <ele>127.656352</ele>
        <time>2017-06-06T11:30:54.000Z</time>
      </trkpt>
      <trkpt lat="44.556957" lon="4.743048">
        <ele>127.668936</ele>
        <time>2017-06-06T11:30:59.000Z</time>
      </trkpt>
      <trkpt lat="44.556995" lon="4.742923">
        <ele>127.682360</ele>
        <time>2017-06-06T11:31:03.000Z</time>
      </trkpt>
      <trkpt lat="44.557050" lon="4.742773">
        <ele>127.699023</ele>
        <time>2017-06-06T11:31:07.000Z</time>
      </trkpt>
      <trkpt lat="44.557087" lon="4.742647">
        <ele>127.712484</ele>
        <time>2017-06-06T11:31:10.000Z</time>
      </trkpt>
      <trkpt lat="44.557120" lon="4.742523">
        <ele>127.725558</ele>
        <time>2017-06-06T11:31:13.000Z</time>
      </trkpt>
      <trkpt lat="44.557150" lon="4.742391">
        <ele>127.739243</ele>
        <time>2017-06-06T11:31:16.000Z</time>
      </trkpt>
      <trkpt lat="44.557182" lon="4.742264">
        <ele>127.752549</ele>
        <time>2017-06-06T11:31:19.000Z</time>
      </trkpt>
      <trkpt lat="44.557213" lon="4.742107">
        <ele>127.768641</ele>
        <time>2017-06-06T11:31:23.000Z</time>
      </trkpt>
      <trkpt lat="44.557262" lon="4.741959">
        <ele>127.784761</ele>
        <time>2017-06-06T11:31:27.000Z</time>
      </trkpt>
      <trkpt lat="44.557300" lon="4.741828">
        <ele>127.798731</ele>
        <time>2017-06-06T11:31:31.000Z</time>
      </trkpt>
      <trkpt lat="44.557312" lon="4.741695">
        <ele>127.811973</ele>
        <time>2017-06-06T11:31:36.000Z</time>
      </trkpt>
      <trkpt lat="44.557247" lon="4.741565">
        <ele>127.827660</ele>
        <time>2017-06-06T11:31:41.000Z</time>
      </trkpt>
      <trkpt lat="44.557186" lon="4.741466">
        <ele>127.823040</ele>
        <time>2017-06-06T11:31:45.000Z</time>
      </trkpt>
      <trkpt lat="44.557133" lon="4.741345">
        <ele>127.814294</ele>
        <time>2017-06-06T11:31:49.000Z</time>
      </trkpt>
      <trkpt lat="44.557125" lon="4.741196">
        <ele>127.805094</ele>
        <time>2017-06-06T11:31:53.000Z</time>
      </trkpt>
      <trkpt lat="44.557130" lon="4.741048">
        <ele>127.795971</ele>
        <time>2017-06-06T11:31:58.000Z</time>
      </trkpt>
      <trkpt lat="44.557130" lon="4.740921">
        <ele>127.788151</ele>
        <time>2017-06-06T11:32:03.000Z</time>
      </trkpt>
      <trkpt lat="44.557140" lon="4.740790">
        <ele>127.780039</ele>
        <time>2017-06-06T11:32:07.000Z</time>
      </trkpt>
      <trkpt lat="44.557160" lon="4.740633">
        <ele>127.770219</ele>
        <time>2017-06-06T11:32:11.000Z</time>
      </trkpt>
      <trkpt lat="44.557163" lon="4.740485">
        <ele>127.761103</ele>
        <time>2017-06-06T11:32:15.000Z</time>
      </trkpt>
      <trkpt lat="44.557175" lon="4.740336">
        <ele>127.751870</ele>
        <time>2017-06-06T11:32:19.000Z</time>
      </trkpt>
      <trkpt lat="44.557186" lon="4.740199">
        <ele>127.743381</ele>
        <time>2017-06-06T11:32:23.000Z</time>
      </trkpt>
      <trkpt lat="44.557198" lon="4.740033">
        <ele>127.733108</ele>
        <time>2017-06-06T11:32:27.000Z</time>
      </trkpt>
      <trkpt lat="44.557200" lon="4.739877">
        <ele>127.723501</ele>
        <time>2017-06-06T11:32:31.000Z</time>
      </trkpt>
      <trkpt lat="44.557117" lon="4.739787">
        <ele>127.714438</ele>
        <time>2017-06-06T11:32:36.000Z</time>
      </trkpt>
      <trkpt lat="44.557010" lon="4.739785">
        <ele>127.705191</ele>
        <time>2017-06-06T11:32:40.000Z</time>
      </trkpt>
      <trkpt lat="44.556904" lon="4.739780">
        <ele>127.696026</ele>
        <time>2017-06-06T11:32:44.000Z</time>
      </trkpt>
      <trkpt lat="44.556793" lon="4.739793">
        <ele>127.686401</ele>
        <time>2017-06-06T11:32:48.000Z</time>
      </trkpt>
      <trkpt lat="44.556760" lon="4.739938">
        <ele>127.677029</ele>
        <time>2017-06-06T11:32:52.000Z</time>
      </trkpt>
      <trkpt lat="44.556736" lon="4.740076">
        <ele>127.744993</ele>
        <time>2017-06-06T11:32:55.000Z</time>
      </trkpt>
      <trkpt lat="44.556713" lon="4.740228">
        <ele>127.856279</ele>
        <time>2017-06-06T11:32:59.000Z</time>
      </trkpt>
      <trkpt lat="44.556698" lon="4.740375">
        <ele>127.962632</ele>
        <time>2017-06-06T11:33:03.000Z</time>
      </trkpt>
      <trkpt lat="44.556667" lon="4.740495">
        <ele>128.054047</ele>
        <time>2017-06-06T11:33:06.000Z</time>
      </trkpt>
      <trkpt lat="44.556633" lon="4.740630">
        <ele>128.156592</ele>
        <time>2017-06-06T11:33:09.000Z</time>
      </trkpt>
      <trkpt lat="44.556610" lon="4.740780">
        <ele>128.266479</ele>
        <time>2017-06-06T11:33:13.000Z</time>
      </trkpt>
      <trkpt lat="44.556618" lon="4.740915">
        <ele>128.363497</ele>
        <time>2017-06-06T11:33:18.000Z</time>
      </trkpt>
      <trkpt lat="44.556725" lon="4.740962">
        <ele>128.476185</ele>
        <time>2017-06-06T11:33:22.000Z</time>
      </trkpt>
      <trkpt lat="44.556830" lon="4.740991">
        <ele>128.583743</ele>
        <time>2017-06-06T11:33:26.000Z</time>
      </trkpt>
      <trkpt lat="44.556915" lon="4.741042">
        <ele>128.676656</ele>
        <time>2017-06-06T11:33:39.000Z</time>
      </trkpt>
      <trkpt lat="44.557010" lon="4.741067">
        <ele>128.773803</ele>
        <time>2017-06-06T11:33:43.000Z</time>
      </trkpt>
      <trkpt lat="44.557102" lon="4.741098">
        <ele>128.868899</ele>
        <time>2017-06-06T11:33:47.000Z</time>
      </trkpt>
      <trkpt lat="44.557133" lon="4.741227">
        <ele>128.966398</ele>
        <time>2017-06-06T11:33:50.000Z</time>
      </trkpt>
      <trkpt lat="44.557114" lon="4.741366">
        <ele>129.067761</ele>
        <time>2017-06-06T11:33:53.000Z</time>
      </trkpt>
      <trkpt lat="44.557034" lon="4.741473">
        <ele>129.178835</ele>
        <time>2017-06-06T11:33:57.000Z</time>
      </trkpt>
      <trkpt lat="44.556934" lon="4.741451">
        <ele>129.280571</ele>
        <time>2017-06-06T11:34:01.000Z</time>
      </trkpt>
      <trkpt lat="44.556835" lon="4.741413">
        <ele>129.383729</ele>
        <time>2017-06-06T11:34:07.000Z</time>
      </trkpt>
      <trkpt lat="44.556750" lon="4.741359">
        <ele>129.477507</ele>
        <time>2017-06-06T11:34:12.000Z</time>
      </trkpt>
      <trkpt lat="44.556660" lon="4.741343">
        <ele>129.431163</ele>
        <time>2017-06-06T11:34:18.000Z</time>
      </trkpt>
      <trkpt lat="44.556553" lon="4.741305">
        <ele>129.365818</ele>
        <time>2017-06-06T11:34:23.000Z</time>
      </trkpt>
      <trkpt lat="44.556450" lon="4.741264">
        <ele>129.302432</ele>
        <time>2017-06-06T11:34:27.000Z</time>
      </trkpt>
      <trkpt lat="44.556343" lon="4.741227">
        <ele>129.237188</ele>
        <time>2017-06-06T11:34:31.000Z</time>
      </trkpt>
      <trkpt lat="44.556250" lon="4.741212">
        <ele>129.181766</ele>
        <time>2017-06-06T11:34:34.000Z</time>
      </trkpt>
      <trkpt lat="44.556150" lon="4.741183">
        <ele>129.121311</ele>
        <time>2017-06-06T11:34:38.000Z</time>
      </trkpt>
      <trkpt lat="44.556053" lon="4.741159">
        <ele>129.062997</ele>
        <time>2017-06-06T11:34:42.000Z</time>
      </trkpt>
      <trkpt lat="44.555960" lon="4.741113">
        <ele>129.004617</ele>
        <time>2017-06-06T11:34:46.000Z</time>
      </trkpt>
      <trkpt lat="44.555862" lon="4.741093">
        <ele>128.945987</ele>
        <time>2017-06-06T11:34:50.000Z</time>
      </trkpt>
      <trkpt lat="44.555760" lon="4.741048">
        <ele>128.882684</ele>
        <time>2017-06-06T11:34:54.000Z</time>
      </trkpt>
      <trkpt lat="44.555645" lon="4.741016">
        <ele>128.813274</ele>
        <time>2017-06-06T11:34:58.000Z</time>
      </trkpt>
      <trkpt lat="44.555540" lon="4.740993">
        <ele>128.750357</ele>
        <time>2017-06-06T11:35:02.000Z</time>
      </trkpt>
      <trkpt lat="44.555424" lon="4.740953">
        <ele>128.679637</ele>
        <time>2017-06-06T11:35:06.000Z</time>
      </trkpt>
      <trkpt lat="44.555310" lon="4.740903">
        <ele>128.608924</ele>
        <time>2017-06-06T11:35:10.000Z</time>
      </trkpt>
      <trkpt lat="44.555214" lon="4.740882">
        <ele>128.551402</ele>
        <time>2017-06-06T11:35:13.000Z</time>
      </trkpt>
      <trkpt lat="44.555122" lon="4.740862">
        <ele>128.496284</ele>
        <time>2017-06-06T11:35:16.000Z</time>
      </trkpt>
      <trkpt lat="44.555030" lon="4.740830">
        <ele>128.440168</ele>
        <time>2017-06-06T11:35:19.000Z</time>
      </trkpt>
      <trkpt lat="44.554940" lon="4.740792">
        <ele>128.464726</ele>
        <time>2017-06-06T11:35:22.000Z</time>
      </trkpt>
      <trkpt lat="44.554830" lon="4.740746">
        <ele>128.563224</ele>
        <time>2017-06-06T11:35:26.000Z</time>
      </trkpt>
      <trkpt lat="44.554720" lon="4.740708">
        <ele>128.660437</ele>
        <time>2017-06-06T11:35:30.000Z</time>
      </trkpt>
      <trkpt lat="44.554630" lon="4.740693">
        <ele>128.738212</ele>
        <time>2017-06-06T11:35:33.000Z</time>
      </trkpt>
      <trkpt lat="44.554540" lon="4.740665">
        <ele>128.817320</ele>
        <time>2017-06-06T11:35:36.000Z</time>
      </trkpt>
      <trkpt lat="44.554430" lon="4.740628">
        <ele>128.914389</ele>
        <time>2017-06-06T11:35:40.000Z</time>
      </trkpt>
      <trkpt lat="44.554325" lon="4.740587">
        <ele>129.007917</ele>
        <time>2017-06-06T11:35:44.000Z</time>
      </trkpt>
      <trkpt lat="44.554230" lon="4.740565">
        <ele>129.090543</ele>
        <time>2017-06-06T11:35:49.000Z</time>
      </trkpt>
      <trkpt lat="44.554173" lon="4.740689">
        <ele>129.180776</ele>
        <time>2017-06-06T11:35:57.000Z</time>
      </trkpt>
      <trkpt lat="44.554150" lon="4.740829">
        <ele>129.268632</ele>
        <time>2017-06-06T11:36:02.000Z</time>
      </trkpt>
      <trkpt lat="44.554130" lon="4.741000">
        <ele>129.374598</ele>
        <time>2017-06-06T11:36:06.000Z</time>
      </trkpt>
      <trkpt lat="44.554108" lon="4.741154">
        <ele>129.470642</ele>
        <time>2017-06-06T11:36:09.000Z</time>
      </trkpt>
      <trkpt lat="44.554092" lon="4.741309">
        <ele>129.566414</ele>
        <time>2017-06-06T11:36:12.000Z</time>
      </trkpt>
      <trkpt lat="44.554077" lon="4.741454">
        <ele>129.656011</ele>
        <time>2017-06-06T11:36:15.000Z</time>
      </trkpt>
      <trkpt lat="44.554060" lon="4.741595">
        <ele>129.743458</ele>
        <time>2017-06-06T11:36:18.000Z</time>
      </trkpt>
      <trkpt lat="44.554040" lon="4.741780">
        <ele>129.857881</ele>
        <time>2017-06-06T11:36:22.000Z</time>
      </trkpt>
      <trkpt lat="44.554024" lon="4.741923">
        <ele>129.946397</ele>
        <time>2017-06-06T11:36:25.000Z</time>
      </trkpt>
      <trkpt lat="44.553997" lon="4.742125">
        <ele>130.106582</ele>
        <time>2017-06-06T11:36:29.000Z</time>
      </trkpt>
      <trkpt lat="44.553986" lon="4.742279">
        <ele>130.230563</ele>
        <time>2017-06-06T11:36:32.000Z</time>
      </trkpt>
      <trkpt lat="44.553960" lon="4.742441">
        <ele>130.363585</ele>
        <time>2017-06-06T11:36:35.000Z</time>
      </trkpt>
      <trkpt lat="44.553913" lon="4.742602">
        <ele>130.502959</ele>
        <time>2017-06-06T11:36:38.000Z</time>
      </trkpt>
      <trkpt lat="44.553867" lon="4.742756">
        <ele>130.636722</ele>
        <time>2017-06-06T11:36:41.000Z</time>
      </trkpt>
      <trkpt lat="44.553852" lon="4.742888">
        <ele>130.743798</ele>
        <time>2017-06-06T11:36:44.000Z</time>
      </trkpt>
      <trkpt lat="44.553840" lon="4.743043">
        <ele>130.868693</ele>
        <time>2017-06-06T11:36:47.000Z</time>
      </trkpt>
      <trkpt lat="44.553818" lon="4.743206">
        <ele>131.001587</ele>
        <time>2017-06-06T11:36:50.000Z</time>
      </trkpt>
      <trkpt lat="44.553825" lon="4.743355">
        <ele>131.121204</ele>
        <time>2017-06-06T11:36:53.000Z</time>
      </trkpt>
      <trkpt lat="44.553820" lon="4.743504">
        <ele>131.240695</ele>
        <time>2017-06-06T11:36:56.000Z</time>
      </trkpt>
      <trkpt lat="44.553800" lon="4.743635">
        <ele>131.348015</ele>
        <time>2017-06-06T11:36:59.000Z</time>
      </trkpt>
      <trkpt lat="44.553795" lon="4.743819">
        <ele>131.495518</ele>
        <time>2017-06-06T11:37:03.000Z</time>
      </trkpt>
      <trkpt lat="44.553764" lon="4.743949">
        <ele>131.605332</ele>
        <time>2017-06-06T11:37:06.000Z</time>
      </trkpt>
      <trkpt lat="44.553734" lon="4.744086">
        <ele>131.720142</ele>
        <time>2017-06-06T11:37:09.000Z</time>
      </trkpt>
      <trkpt lat="44.553720" lon="4.744216">
        <ele>131.825463</ele>
        <time>2017-06-06T11:37:12.000Z</time>
      </trkpt>
      <trkpt lat="44.553703" lon="4.744354">
        <ele>131.937649</ele>
        <time>2017-06-06T11:37:15.000Z</time>
      </trkpt>
      <trkpt lat="44.553690" lon="4.744505">
        <ele>132.040665</ele>
        <time>2017-06-06T11:37:18.000Z</time>
      </trkpt>
      <trkpt lat="44.553673" lon="4.744635">
        <ele>132.120587</ele>
        <time>2017-06-06T11:37:20.000Z</time>
      </trkpt>
      <trkpt lat="44.553646" lon="4.744763">
        <ele>132.201306</ele>
        <time>2017-06-06T11:37:22.000Z</time>
      </trkpt>
      <trkpt lat="44.553608" lon="4.744926">
        <ele>132.305011</ele>
        <time>2017-06-06T11:37:25.000Z</time>
      </trkpt>
      <trkpt lat="44.553577" lon="4.745101">
        <ele>132.414051</ele>
        <time>2017-06-06T11:37:28.000Z</time>
      </trkpt>
      <trkpt lat="44.553562" lon="4.745231">
        <ele>132.493684</ele>
        <time>2017-06-06T11:37:30.000Z</time>
      </trkpt>
      <trkpt lat="44.553550" lon="4.745359">
        <ele>132.571751</ele>
        <time>2017-06-06T11:37:32.000Z</time>
      </trkpt>
      <trkpt lat="44.553547" lon="4.745500">
        <ele>132.657050</ele>
        <time>2017-06-06T11:37:34.000Z</time>
      </trkpt>
      <trkpt lat="44.553528" lon="4.745638">
        <ele>132.742040</ele>
        <time>2017-06-06T11:37:36.000Z</time>
      </trkpt>
      <trkpt lat="44.553513" lon="4.745770">
        <ele>132.822867</ele>
        <time>2017-06-06T11:37:38.000Z</time>
      </trkpt>
      <trkpt lat="44.553482" lon="4.745947">
        <ele>132.933081</ele>
        <time>2017-06-06T11:37:41.000Z</time>
      </trkpt>
      <trkpt lat="44.553463" lon="4.746073">
        <ele>133.010959</ele>
        <time>2017-06-06T11:37:43.000Z</time>
      </trkpt>
      <trkpt lat="44.553440" lon="4.746199">
        <ele>133.089610</ele>
        <time>2017-06-06T11:37:45.000Z</time>
      </trkpt>
      <trkpt lat="44.553417" lon="4.746333">
        <ele>133.172955</ele>
        <time>2017-06-06T11:37:47.000Z</time>
      </trkpt>
      <trkpt lat="44.553402" lon="4.746462">
        <ele>133.251992</ele>
        <time>2017-06-06T11:37:49.000Z</time>
      </trkpt>
      <trkpt lat="44.553364" lon="4.746641">
        <ele>133.364932</ele>
        <time>2017-06-06T11:37:52.000Z</time>
      </trkpt>
      <trkpt lat="44.553350" lon="4.746766">
        <ele>133.441446</ele>
        <time>2017-06-06T11:37:54.000Z</time>
      </trkpt>
      <trkpt lat="44.553330" lon="4.746947">
        <ele>133.559923</ele>
        <time>2017-06-06T11:37:57.000Z</time>
      </trkpt>
      <trkpt lat="44.553300" lon="4.747126">
        <ele>133.690975</ele>
        <time>2017-06-06T11:38:00.000Z</time>
      </trkpt>
      <trkpt lat="44.553303" lon="4.747303">
        <ele>133.817157</ele>
        <time>2017-06-06T11:38:03.000Z</time>
      </trkpt>
      <trkpt lat="44.553280" lon="4.747430">
        <ele>133.910546</ele>
        <time>2017-06-06T11:38:05.000Z</time>
      </trkpt>
      <trkpt lat="44.553265" lon="4.747557">
        <ele>134.002292</ele>
        <time>2017-06-06T11:38:07.000Z</time>
      </trkpt>
      <trkpt lat="44.553240" lon="4.747685">
        <ele>134.096881</ele>
        <time>2017-06-06T11:38:09.000Z</time>
      </trkpt>
      <trkpt lat="44.553215" lon="4.747807">
        <ele>134.187353</ele>
        <time>2017-06-06T11:38:11.000Z</time>
      </trkpt>
      <trkpt lat="44.553177" lon="4.747955">
        <ele>134.299469</ele>
        <time>2017-06-06T11:38:14.000Z</time>
      </trkpt>
      <trkpt lat="44.553127" lon="4.748106">
        <ele>134.418136</ele>
        <time>2017-06-06T11:38:17.000Z</time>
      </trkpt>
      <trkpt lat="44.553040" lon="4.748223">
        <ele>134.538652</ele>
        <time>2017-06-06T11:38:20.000Z</time>
      </trkpt>
      <trkpt lat="44.552933" lon="4.748306">
        <ele>134.660926</ele>
        <time>2017-06-06T11:38:23.000Z</time>
      </trkpt>
      <trkpt lat="44.552810" lon="4.748327">
        <ele>134.784849</ele>
        <time>2017-06-06T11:38:26.000Z</time>
      </trkpt>
      <trkpt lat="44.552704" lon="4.748296">
        <ele>134.893141</ele>
        <time>2017-06-06T11:38:29.000Z</time>
      </trkpt>
      <trkpt lat="44.552597" lon="4.748250">
        <ele>135.005063</ele>
        <time>2017-06-06T11:38:32.000Z</time>
      </trkpt>
      <trkpt lat="44.552483" lon="4.748189">
        <ele>135.127086</ele>
        <time>2017-06-06T11:38:35.000Z</time>
      </trkpt>
      <trkpt lat="44.552372" lon="4.748137">
        <ele>135.244122</ele>
        <time>2017-06-06T11:38:38.000Z</time>
      </trkpt>
      <trkpt lat="44.552265" lon="4.748097">
        <ele>135.511553</ele>
        <time>2017-06-06T11:38:41.000Z</time>
      </trkpt>
      <trkpt lat="44.552155" lon="4.748055">
        <ele>136.005497</ele>
        <time>2017-06-06T11:38:44.000Z</time>
      </trkpt>
      <trkpt lat="44.552044" lon="4.748005">
        <ele>136.510618</ele>
        <time>2017-06-06T11:38:47.000Z</time>
      </trkpt>
      <trkpt lat="44.551920" lon="4.747956">
        <ele>137.068791</ele>
        <time>2017-06-06T11:38:50.000Z</time>
      </trkpt>
      <trkpt lat="44.551807" lon="4.747904">
        <ele>137.584060</ele>
        <time>2017-06-06T11:38:53.000Z</time>
      </trkpt>
      <trkpt lat="44.551693" lon="4.747863">
        <ele>138.093973</ele>
        <time>2017-06-06T11:38:56.000Z</time>
      </trkpt>
      <trkpt lat="44.551575" lon="4.747819">
        <ele>138.622995</ele>
        <time>2017-06-06T11:38:59.000Z</time>
      </trkpt>
      <trkpt lat="44.551460" lon="4.747788">
        <ele>139.130387</ele>
        <time>2017-06-06T11:39:02.000Z</time>
      </trkpt>
      <trkpt lat="44.551346" lon="4.747746">
        <ele>139.641075</ele>
        <time>2017-06-06T11:39:05.000Z</time>
      </trkpt>
      <trkpt lat="44.551224" lon="4.747712">
        <ele>140.180010</ele>
        <time>2017-06-06T11:39:08.000Z</time>
      </trkpt>
      <trkpt lat="44.551117" lon="4.747702">
        <ele>140.644656</ele>
        <time>2017-06-06T11:39:10.000Z</time>
      </trkpt>
      <trkpt lat="44.551010" lon="4.747664">
        <ele>141.122891</ele>
        <time>2017-06-06T11:39:12.000Z</time>
      </trkpt>
      <trkpt lat="44.550884" lon="4.747609">
        <ele>141.694637</ele>
        <time>2017-06-06T11:39:15.000Z</time>
      </trkpt>
      <trkpt lat="44.550760" lon="4.747550">
        <ele>142.261960</ele>
        <time>2017-06-06T11:39:18.000Z</time>
      </trkpt>
      <trkpt lat="44.550640" lon="4.747520">
        <ele>142.790092</ele>
        <time>2017-06-06T11:39:21.000Z</time>
      </trkpt>
      <trkpt lat="44.550507" lon="4.747482">
        <ele>142.937072</ele>
        <time>2017-06-06T11:39:24.000Z</time>
      </trkpt>
      <trkpt lat="44.550420" lon="4.747442">
        <ele>142.702130</ele>
        <time>2017-06-06T11:39:26.000Z</time>
      </trkpt>
      <trkpt lat="44.550327" lon="4.747406">
        <ele>142.454555</ele>
        <time>2017-06-06T11:39:28.000Z</time>
      </trkpt>
      <trkpt lat="44.550236" lon="4.747357">
        <ele>142.204425</ele>
        <time>2017-06-06T11:39:30.000Z</time>
      </trkpt>
      <trkpt lat="44.550137" lon="4.747317">
        <ele>141.940045</ele>
        <time>2017-06-06T11:39:32.000Z</time>
      </trkpt>
      <trkpt lat="44.550040" lon="4.747283">
        <ele>141.683471</ele>
        <time>2017-06-06T11:39:34.000Z</time>
      </trkpt>
      <trkpt lat="44.549950" lon="4.747243">
        <ele>141.441202</ele>
        <time>2017-06-06T11:39:36.000Z</time>
      </trkpt>
      <trkpt lat="44.549850" lon="4.747223">
        <ele>141.181984</ele>
        <time>2017-06-06T11:39:38.000Z</time>
      </trkpt>
      <trkpt lat="44.549755" lon="4.747205">
        <ele>140.935979</ele>
        <time>2017-06-06T11:39:40.000Z</time>
      </trkpt>
      <trkpt lat="44.549640" lon="4.747194">
        <ele>140.640176</ele>
        <time>2017-06-06T11:39:43.000Z</time>
      </trkpt>
      <trkpt lat="44.549534" lon="4.747172">
        <ele>140.365195</ele>
        <time>2017-06-06T11:39:46.000Z</time>
      </trkpt>
      <trkpt lat="44.549480" lon="4.747057">
        <ele>140.113331</ele>
        <time>2017-06-06T11:39:49.000Z</time>
      </trkpt>
      <trkpt lat="44.549465" lon="4.746911">
        <ele>139.843563</ele>
        <time>2017-06-06T11:39:52.000Z</time>
      </trkpt>
      <trkpt lat="44.549450" lon="4.746757">
        <ele>139.559306</ele>
        <time>2017-06-06T11:39:55.000Z</time>
      </trkpt>
      <trkpt lat="44.549430" lon="4.746591">
        <ele>139.251414</ele>
        <time>2017-06-06T11:39:58.000Z</time>
      </trkpt>
      <trkpt lat="44.549400" lon="4.746415">
        <ele>138.920462</ele>
        <time>2017-06-06T11:40:01.000Z</time>
      </trkpt>
      <trkpt lat="44.549362" lon="4.746213">
        <ele>138.538386</ele>
        <time>2017-06-06T11:40:05.000Z</time>
      </trkpt>
      <trkpt lat="44.549347" lon="4.746081">
        <ele>138.217637</ele>
        <time>2017-06-06T11:40:14.000Z</time>
      </trkpt>
      <trkpt lat="44.549313" lon="4.745953">
        <ele>137.868269</ele>
        <time>2017-06-06T11:40:18.000Z</time>
      </trkpt>
      <trkpt lat="44.549274" lon="4.745812">
        <ele>137.481444</ele>
        <time>2017-06-06T11:40:21.000Z</time>
      </trkpt>
      <trkpt lat="44.549220" lon="4.745654">
        <ele>137.033282</ele>
        <time>2017-06-06T11:40:24.000Z</time>
      </trkpt>
      <trkpt lat="44.549187" lon="4.745471">
        <ele>136.550497</ele>
        <time>2017-06-06T11:40:27.000Z</time>
      </trkpt>
      <trkpt lat="44.549156" lon="4.745338">
        <ele>136.192609</ele>
        <time>2017-06-06T11:40:29.000Z</time>
      </trkpt>
      <trkpt lat="44.549133" lon="4.745194">
        <ele>135.815183</ele>
        <time>2017-06-06T11:40:31.000Z</time>
      </trkpt>
      <trkpt lat="44.549110" lon="4.745064">
        <ele>135.472607</ele>
        <time>2017-06-06T11:40:33.000Z</time>
      </trkpt>
      <trkpt lat="44.549095" lon="4.744934">
        <ele>135.135793</ele>
        <time>2017-06-06T11:40:35.000Z</time>
      </trkpt>
      <trkpt lat="44.549080" lon="4.744807">
        <ele>134.806551</ele>
        <time>2017-06-06T11:40:37.000Z</time>
      </trkpt>
      <trkpt lat="44.549060" lon="4.744679">
        <ele>134.471407</ele>
        <time>2017-06-06T11:40:39.000Z</time>
      </trkpt>
      <trkpt lat="44.549050" lon="4.744553">
        <ele>134.147161</ele>
        <time>2017-06-06T11:40:41.000Z</time>
      </trkpt>
      <trkpt lat="44.549034" lon="4.744421">
        <ele>133.804713</ele>
        <time>2017-06-06T11:40:43.000Z</time>
      </trkpt>
      <trkpt lat="44.549010" lon="4.744278">
        <ele>133.428975</ele>
        <time>2017-06-06T11:40:45.000Z</time>
      </trkpt>
      <trkpt lat="44.548992" lon="4.744127">
        <ele>133.037416</ele>
        <time>2017-06-06T11:40:47.000Z</time>
      </trkpt>
      <trkpt lat="44.548985" lon="4.743967">
        <ele>132.627434</ele>
        <time>2017-06-06T11:40:49.000Z</time>
      </trkpt>
      <trkpt lat="44.548970" lon="4.743823">
        <ele>132.255230</ele>
        <time>2017-06-06T11:40:51.000Z</time>
      </trkpt>
      <trkpt lat="44.548954" lon="4.743690">
        <ele>131.988654</ele>
        <time>2017-06-06T11:40:53.000Z</time>
      </trkpt>
      <trkpt lat="44.548946" lon="4.743550">
        <ele>131.863832</ele>
        <time>2017-06-06T11:40:55.000Z</time>
      </trkpt>
      <trkpt lat="44.548943" lon="4.743409">
        <ele>131.738464</ele>
        <time>2017-06-06T11:40:57.000Z</time>
      </trkpt>
      <trkpt lat="44.548930" lon="4.743264">
        <ele>131.608581</ele>
        <time>2017-06-06T11:40:59.000Z</time>
      </trkpt>
      <trkpt lat="44.548920" lon="4.743117">
        <ele>131.477343</ele>
        <time>2017-06-06T11:41:01.000Z</time>
      </trkpt>
      <trkpt lat="44.548900" lon="4.742974">
        <ele>131.347829</ele>
        <time>2017-06-06T11:41:03.000Z</time>
      </trkpt>
      <trkpt lat="44.548878" lon="4.742818">
        <ele>131.206497</ele>
        <time>2017-06-06T11:41:05.000Z</time>
      </trkpt>
      <trkpt lat="44.548847" lon="4.742668">
        <ele>131.067694</ele>
        <time>2017-06-06T11:41:07.000Z</time>
      </trkpt>
      <trkpt lat="44.548824" lon="4.742536">
        <ele>130.946925</ele>
        <time>2017-06-06T11:41:09.000Z</time>
      </trkpt>
      <trkpt lat="44.548810" lon="4.742406">
        <ele>130.830077</ele>
        <time>2017-06-06T11:41:11.000Z</time>
      </trkpt>
      <trkpt lat="44.548794" lon="4.742260">
        <ele>130.698796</ele>
        <time>2017-06-06T11:41:13.000Z</time>
      </trkpt>
      <trkpt lat="44.548775" lon="4.742121">
        <ele>130.573009</ele>
        <time>2017-06-06T11:41:15.000Z</time>
      </trkpt>
      <trkpt lat="44.548737" lon="4.742001">
        <ele>130.456305</ele>
        <time>2017-06-06T11:41:17.000Z</time>
      </trkpt>
      <trkpt lat="44.548702" lon="4.741883">
        <ele>130.342713</ele>
        <time>2017-06-06T11:41:19.000Z</time>
      </trkpt>
      <trkpt lat="44.548664" lon="4.741768">
        <ele>130.230056</ele>
        <time>2017-06-06T11:41:21.000Z</time>
      </trkpt>
      <trkpt lat="44.548615" lon="4.741607">
        <ele>130.074466</ele>
        <time>2017-06-06T11:41:24.000Z</time>
      </trkpt>
      <trkpt lat="44.548557" lon="4.741476">
        <ele>129.937402</ele>
        <time>2017-06-06T11:41:27.000Z</time>
      </trkpt>
      <trkpt lat="44.548466" lon="4.741385">
        <ele>129.798048</ele>
        <time>2017-06-06T11:41:30.000Z</time>
      </trkpt>
      <trkpt lat="44.548363" lon="4.741341">
        <ele>129.722179</ele>
        <time>2017-06-06T11:41:33.000Z</time>
      </trkpt>
      <trkpt lat="44.548283" lon="4.741273">
        <ele>129.660666</ele>
        <time>2017-06-06T11:41:37.000Z</time>
      </trkpt>
      <trkpt lat="44.548332" lon="4.741135">
        <ele>129.588405</ele>
        <time>2017-06-06T11:41:42.000Z</time>
      </trkpt>
      <trkpt lat="44.548347" lon="4.741007">
        <ele>129.527608</ele>
        <time>2017-06-06T11:41:45.000Z</time>
      </trkpt>
      <trkpt lat="44.548344" lon="4.740880">
        <ele>129.468053</ele>
        <time>2017-06-06T11:41:48.000Z</time>
      </trkpt>
      <trkpt lat="44.548264" lon="4.740819">
        <ele>129.408174</ele>
        <time>2017-06-06T11:41:51.000Z</time>
      </trkpt>
      <trkpt lat="44.548140" lon="4.740827">
        <ele>129.326539</ele>
        <time>2017-06-06T11:41:54.000Z</time>
      </trkpt>
      <trkpt lat="44.548016" lon="4.740857">
        <ele>129.243787</ele>
        <time>2017-06-06T11:41:57.000Z</time>
      </trkpt>
      <trkpt lat="44.547920" lon="4.740849">
        <ele>129.180541</ele>
        <time>2017-06-06T11:41:59.000Z</time>
      </trkpt>
      <trkpt lat="44.547794" lon="4.740797">
        <ele>129.094167</ele>
        <time>2017-06-06T11:42:02.000Z</time>
      </trkpt>
      <trkpt lat="44.547703" lon="4.740763">
        <ele>129.032235</ele>
        <time>2017-06-06T11:42:04.000Z</time>
      </trkpt>
      <trkpt lat="44.547573" lon="4.740727">
        <ele>128.945091</ele>
        <time>2017-06-06T11:42:07.000Z</time>
      </trkpt>
      <trkpt lat="44.547480" lon="4.740702">
        <ele>128.882817</ele>
        <time>2017-06-06T11:42:09.000Z</time>
      </trkpt>
      <trkpt lat="44.547390" lon="4.740681">
        <ele>128.822816</ele>
        <time>2017-06-06T11:42:11.000Z</time>
      </trkpt>
      <trkpt lat="44.547300" lon="4.740653">
        <ele>128.762189</ele>
        <time>2017-06-06T11:42:13.000Z</time>
      </trkpt>
      <trkpt lat="44.547200" lon="4.740619">
        <ele>128.694521</ele>
        <time>2017-06-06T11:42:15.000Z</time>
      </trkpt>
      <trkpt lat="44.547108" lon="4.740593">
        <ele>128.632802</ele>
        <time>2017-06-06T11:42:17.000Z</time>
      </trkpt>
      <trkpt lat="44.547020" lon="4.740553">
        <ele>128.637081</ele>
        <time>2017-06-06T11:42:19.000Z</time>
      </trkpt>
      <trkpt lat="44.546925" lon="4.740520">
        <ele>128.701713</ele>
        <time>2017-06-06T11:42:21.000Z</time>
      </trkpt>
      <trkpt lat="44.546830" lon="4.740493">
        <ele>128.765725</ele>
        <time>2017-06-06T11:42:23.000Z</time>
      </trkpt>
      <trkpt lat="44.546740" lon="4.740461">
        <ele>128.827040</ele>
        <time>2017-06-06T11:42:25.000Z</time>
      </trkpt>
      <trkpt lat="44.546646" lon="4.740437">
        <ele>128.890137</ele>
        <time>2017-06-06T11:42:27.000Z</time>
      </trkpt>
      <trkpt lat="44.546555" lon="4.740413">
        <ele>128.951286</ele>
        <time>2017-06-06T11:42:29.000Z</time>
      </trkpt>
      <trkpt lat="44.546463" lon="4.740387">
        <ele>129.013263</ele>
        <time>2017-06-06T11:42:31.000Z</time>
      </trkpt>
      <trkpt lat="44.546337" lon="4.740346">
        <ele>129.098682</ele>
        <time>2017-06-06T11:42:34.000Z</time>
      </trkpt>
      <trkpt lat="44.546227" lon="4.740296">
        <ele>129.175043</ele>
        <time>2017-06-06T11:42:37.000Z</time>
      </trkpt>
      <trkpt lat="44.546120" lon="4.740213">
        <ele>129.255785</ele>
        <time>2017-06-06T11:42:40.000Z</time>
      </trkpt>
      <trkpt lat="44.546020" lon="4.740101">
        <ele>129.340284</ele>
        <time>2017-06-06T11:42:43.000Z</time>
      </trkpt>
      <trkpt lat="44.545944" lon="4.739963">
        <ele>129.422368</ele>
        <time>2017-06-06T11:42:46.000Z</time>
      </trkpt>
      <trkpt lat="44.545880" lon="4.739861">
        <ele>129.486330</ele>
        <time>2017-06-06T11:42:48.000Z</time>
      </trkpt>
      <trkpt lat="44.545822" lon="4.739757">
        <ele>129.548484</ele>
        <time>2017-06-06T11:42:50.000Z</time>
      </trkpt>
      <trkpt lat="44.545765" lon="4.739647">
        <ele>129.612495</ele>
        <time>2017-06-06T11:42:52.000Z</time>
      </trkpt>
      <trkpt lat="44.545685" lon="4.739498">
        <ele>129.700298</ele>
        <time>2017-06-06T11:42:55.000Z</time>
      </trkpt>
      <trkpt lat="44.545616" lon="4.739338">
        <ele>129.788317</ele>
        <time>2017-06-06T11:42:58.000Z</time>
      </trkpt>
      <trkpt lat="44.545550" lon="4.739178">
        <ele>129.805527</ele>
        <time>2017-06-06T11:43:01.000Z</time>
      </trkpt>
      <trkpt lat="44.545513" lon="4.739064">
        <ele>129.814929</ele>
        <time>2017-06-06T11:43:03.000Z</time>
      </trkpt>
      <trkpt lat="44.545464" lon="4.738953">
        <ele>129.824729</ele>
        <time>2017-06-06T11:43:05.000Z</time>
      </trkpt>
      <trkpt lat="44.545430" lon="4.738834">
        <ele>129.834352</ele>
        <time>2017-06-06T11:43:07.000Z</time>
      </trkpt>
      <trkpt lat="44.545364" lon="4.738664">
        <ele>129.848882</ele>
        <time>2017-06-06T11:43:10.000Z</time>
      </trkpt>
      <trkpt lat="44.545322" lon="4.738552">
        <ele>129.858381</ele>
        <time>2017-06-06T11:43:12.000Z</time>
      </trkpt>
      <trkpt lat="44.545270" lon="4.738393">
        <ele>129.871511</ele>
        <time>2017-06-06T11:43:15.000Z</time>
      </trkpt>
      <trkpt lat="44.545200" lon="4.738229">
        <ele>129.885859</ele>
        <time>2017-06-06T11:43:18.000Z</time>
      </trkpt>
      <trkpt lat="44.545130" lon="4.738084">
        <ele>129.899004</ele>
        <time>2017-06-06T11:43:21.000Z</time>
      </trkpt>
      <trkpt lat="44.545044" lon="4.737959">
        <ele>129.912044</ele>
        <time>2017-06-06T11:43:24.000Z</time>
      </trkpt>
      <trkpt lat="44.544930" lon="4.737858">
        <ele>129.926243</ele>
        <time>2017-06-06T11:43:27.000Z</time>
      </trkpt>
      <trkpt lat="44.544853" lon="4.737793">
        <ele>129.935707</ele>
        <time>2017-06-06T11:43:29.000Z</time>
      </trkpt>
      <trkpt lat="44.544770" lon="4.737736">
        <ele>129.945438</ele>
        <time>2017-06-06T11:43:31.000Z</time>
      </trkpt>
      <trkpt lat="44.544680" lon="4.737677">
        <ele>129.955900</ele>
        <time>2017-06-06T11:43:33.000Z</time>
      </trkpt>
      <trkpt lat="44.544598" lon="4.737622">
        <ele>129.965472</ele>
        <time>2017-06-06T11:43:35.000Z</time>
      </trkpt>
      <trkpt lat="44.544518" lon="4.737571">
        <ele>129.974726</ele>
        <time>2017-06-06T11:43:37.000Z</time>
      </trkpt>
      <trkpt lat="44.544400" lon="4.737481">
        <ele>130.002869</ele>
        <time>2017-06-06T11:43:40.000Z</time>
      </trkpt>
      <trkpt lat="44.544292" lon="4.737387">
        <ele>130.042405</ele>
        <time>2017-06-06T11:43:43.000Z</time>
      </trkpt>
      <trkpt lat="44.544178" lon="4.737297">
        <ele>130.083098</ele>
        <time>2017-06-06T11:43:46.000Z</time>
      </trkpt>
      <trkpt lat="44.544060" lon="4.737217">
        <ele>130.123866</ele>
        <time>2017-06-06T11:43:49.000Z</time>
      </trkpt>
      <trkpt lat="44.543938" lon="4.737133">
        <ele>130.166142</ele>
        <time>2017-06-06T11:43:52.000Z</time>
      </trkpt>
      <trkpt lat="44.543827" lon="4.737055">
        <ele>130.204761</ele>
        <time>2017-06-06T11:43:55.000Z</time>
      </trkpt>
      <trkpt lat="44.543716" lon="4.736964">
        <ele>130.244754</ele>
        <time>2017-06-06T11:43:58.000Z</time>
      </trkpt>
      <trkpt lat="44.543600" lon="4.736877">
        <ele>130.285672</ele>
        <time>2017-06-06T11:44:01.000Z</time>
      </trkpt>
      <trkpt lat="44.543495" lon="4.736782">
        <ele>130.324539</ele>
        <time>2017-06-06T11:44:04.000Z</time>
      </trkpt>
      <trkpt lat="44.543385" lon="4.736690">
        <ele>130.364377</ele>
        <time>2017-06-06T11:44:07.000Z</time>
      </trkpt>
      <trkpt lat="44.543278" lon="4.736599">
        <ele>130.403300</ele>
        <time>2017-06-06T11:44:10.000Z</time>
      </trkpt>
      <trkpt lat="44.543198" lon="4.736532">
        <ele>130.432284</ele>
        <time>2017-06-06T11:44:12.000Z</time>
      </trkpt>
      <trkpt lat="44.543118" lon="4.736453">
        <ele>130.462717</ele>
        <time>2017-06-06T11:44:14.000Z</time>
      </trkpt>
      <trkpt lat="44.543037" lon="4.736378">
        <ele>130.492907</ele>
        <time>2017-06-06T11:44:16.000Z</time>
      </trkpt>
      <trkpt lat="44.542957" lon="4.736303">
        <ele>130.522838</ele>
        <time>2017-06-06T11:44:18.000Z</time>
      </trkpt>
      <trkpt lat="44.542880" lon="4.736227">
        <ele>130.568453</ele>
        <time>2017-06-06T11:44:20.000Z</time>
      </trkpt>
      <trkpt lat="44.542810" lon="4.736146">
        <ele>130.639015</ele>
        <time>2017-06-06T11:44:22.000Z</time>
      </trkpt>
      <trkpt lat="44.542698" lon="4.736038">
        <ele>130.744702</ele>
        <time>2017-06-06T11:44:25.000Z</time>
      </trkpt>
      <trkpt lat="44.542625" lon="4.735961">
        <ele>130.815726</ele>
        <time>2017-06-06T11:44:27.000Z</time>
      </trkpt>
      <trkpt lat="44.542515" lon="4.735851">
        <ele>130.920775</ele>
        <time>2017-06-06T11:44:30.000Z</time>
      </trkpt>
      <trkpt lat="44.542446" lon="4.735767">
        <ele>130.991818</ele>
        <time>2017-06-06T11:44:32.000Z</time>
      </trkpt>
      <trkpt lat="44.542377" lon="4.735680">
        <ele>131.063961</ele>
        <time>2017-06-06T11:44:34.000Z</time>
      </trkpt>
      <trkpt lat="44.542310" lon="4.735581">
        <ele>131.139631</ele>
        <time>2017-06-06T11:44:36.000Z</time>
      </trkpt>
      <trkpt lat="44.542248" lon="4.735480">
        <ele>131.213514</ele>
        <time>2017-06-06T11:44:38.000Z</time>
      </trkpt>
      <trkpt lat="44.542187" lon="4.735381">
        <ele>131.286050</ele>
        <time>2017-06-06T11:44:40.000Z</time>
      </trkpt>
      <trkpt lat="44.542100" lon="4.735238">
        <ele>131.390262</ele>
        <time>2017-06-06T11:44:43.000Z</time>
      </trkpt>
      <trkpt lat="44.542027" lon="4.735141">
        <ele>131.468451</ele>
        <time>2017-06-06T11:44:45.000Z</time>
      </trkpt>
      <trkpt lat="44.541943" lon="4.735016">
        <ele>131.563675</ele>
        <time>2017-06-06T11:44:48.000Z</time>
      </trkpt>
      <trkpt lat="44.541890" lon="4.734913">
        <ele>131.634090</ele>
        <time>2017-06-06T11:44:50.000Z</time>
      </trkpt>
      <trkpt lat="44.541830" lon="4.734816">
        <ele>131.705279</ele>
        <time>2017-06-06T11:44:52.000Z</time>
      </trkpt>
      <trkpt lat="44.541763" lon="4.734727">
        <ele>131.777031</ele>
        <time>2017-06-06T11:44:54.000Z</time>
      </trkpt>
      <trkpt lat="44.541670" lon="4.734589">
        <ele>131.882300</ele>
        <time>2017-06-06T11:44:57.000Z</time>
      </trkpt>
      <trkpt lat="44.541590" lon="4.734454">
        <ele>131.955128</ele>
        <time>2017-06-06T11:45:00.000Z</time>
      </trkpt>
      <trkpt lat="44.541500" lon="4.734316">
        <ele>131.994722</ele>
        <time>2017-06-06T11:45:03.000Z</time>
      </trkpt>
      <trkpt lat="44.541412" lon="4.734180">
        <ele>132.033602</ele>
        <time>2017-06-06T11:45:06.000Z</time>
      </trkpt>
      <trkpt lat="44.541325" lon="4.734043">
        <ele>132.072442</ele>
        <time>2017-06-06T11:45:09.000Z</time>
      </trkpt>
      <trkpt lat="44.541264" lon="4.733946">
        <ele>132.099823</ele>
        <time>2017-06-06T11:45:11.000Z</time>
      </trkpt>
      <trkpt lat="44.541203" lon="4.733853">
        <ele>132.126576</ele>
        <time>2017-06-06T11:45:13.000Z</time>
      </trkpt>
      <trkpt lat="44.541140" lon="4.733760">
        <ele>132.153734</ele>
        <time>2017-06-06T11:45:15.000Z</time>
      </trkpt>
      <trkpt lat="44.541058" lon="4.733632">
        <ele>132.190163</ele>
        <time>2017-06-06T11:45:18.000Z</time>
      </trkpt>
      <trkpt lat="44.540970" lon="4.733496">
        <ele>132.229044</ele>
        <time>2017-06-06T11:45:21.000Z</time>
      </trkpt>
      <trkpt lat="44.540882" lon="4.733370">
        <ele>132.266385</ele>
        <time>2017-06-06T11:45:24.000Z</time>
      </trkpt>
      <trkpt lat="44.540794" lon="4.733244">
        <ele>132.303725</ele>
        <time>2017-06-06T11:45:27.000Z</time>
      </trkpt>
      <trkpt lat="44.540710" lon="4.733133">
        <ele>132.337994</ele>
        <time>2017-06-06T11:45:30.000Z</time>
      </trkpt>
      <trkpt lat="44.540610" lon="4.733031">
        <ele>132.374711</ele>
        <time>2017-06-06T11:45:33.000Z</time>
      </trkpt>
      <trkpt lat="44.540524" lon="4.732967">
        <ele>132.403622</ele>
        <time>2017-06-06T11:45:35.000Z</time>
      </trkpt>
      <trkpt lat="44.540436" lon="4.732908">
        <ele>132.432587</ele>
        <time>2017-06-06T11:45:37.000Z</time>
      </trkpt>
      <trkpt lat="44.540318" lon="4.732831">
        <ele>132.471235</ele>
        <time>2017-06-06T11:45:40.000Z</time>
      </trkpt>
      <trkpt lat="44.540203" lon="4.732755">
        <ele>132.453937</ele>
        <time>2017-06-06T11:45:43.000Z</time>
      </trkpt>
      <trkpt lat="44.540090" lon="4.732688">
        <ele>132.432781</ele>
        <time>2017-06-06T11:45:46.000Z</time>
      </trkpt>
      <trkpt lat="44.539963" lon="4.732615">
        <ele>132.409111</ele>
        <time>2017-06-06T11:45:49.000Z</time>
      </trkpt>
      <trkpt lat="44.539880" lon="4.732564">
        <ele>132.393484</ele>
        <time>2017-06-06T11:45:51.000Z</time>
      </trkpt>
      <trkpt lat="44.539800" lon="4.732501">
        <ele>132.377663</ele>
        <time>2017-06-06T11:45:53.000Z</time>
      </trkpt>
      <trkpt lat="44.539710" lon="4.732441">
        <ele>132.360478</ele>
        <time>2017-06-06T11:45:55.000Z</time>
      </trkpt>
      <trkpt lat="44.539593" lon="4.732374">
        <ele>132.338684</ele>
        <time>2017-06-06T11:45:58.000Z</time>
      </trkpt>
      <trkpt lat="44.539505" lon="4.732318">
        <ele>132.322019</ele>
        <time>2017-06-06T11:46:00.000Z</time>
      </trkpt>
      <trkpt lat="44.539425" lon="4.732262">
        <ele>132.306600</ele>
        <time>2017-06-06T11:46:02.000Z</time>
      </trkpt>
      <trkpt lat="44.539340" lon="4.732144">
        <ele>132.285978</ele>
        <time>2017-06-06T11:46:05.000Z</time>
      </trkpt>
      <trkpt lat="44.539314" lon="4.731995">
        <ele>132.267121</ele>
        <time>2017-06-06T11:46:08.000Z</time>
      </trkpt>
      <trkpt lat="44.539340" lon="4.731841">
        <ele>132.247667</ele>
        <time>2017-06-06T11:46:12.000Z</time>
      </trkpt>
      <trkpt lat="44.539326" lon="4.731706">
        <ele>132.230897</ele>
        <time>2017-06-06T11:46:16.000Z</time>
      </trkpt>
      <trkpt lat="44.539220" lon="4.731672">
        <ele>132.212145</ele>
        <time>2017-06-06T11:46:19.000Z</time>
      </trkpt>
      <trkpt lat="44.539130" lon="4.731642">
        <ele>132.196191</ele>
        <time>2017-06-06T11:46:21.000Z</time>
      </trkpt>
      <trkpt lat="44.539043" lon="4.731604">
        <ele>132.180477</ele>
        <time>2017-06-06T11:46:23.000Z</time>
      </trkpt>
      <trkpt lat="44.538950" lon="4.731568">
        <ele>132.164440</ele>
        <time>2017-06-06T11:46:25.000Z</time>
      </trkpt>
      <trkpt lat="44.538830" lon="4.731510">
        <ele>132.246008</ele>
        <time>2017-06-06T11:46:28.000Z</time>
      </trkpt>
      <trkpt lat="44.538730" lon="4.731435">
        <ele>132.318882</ele>
        <time>2017-06-06T11:46:31.000Z</time>
      </trkpt>
      <trkpt lat="44.538660" lon="4.731334">
        <ele>132.383413</ele>
        <time>2017-06-06T11:46:34.000Z</time>
      </trkpt>
      <trkpt lat="44.538578" lon="4.731218">
        <ele>132.458251</ele>
        <time>2017-06-06T11:46:37.000Z</time>
      </trkpt>
      <trkpt lat="44.538467" lon="4.731119">
        <ele>132.542782</ele>
        <time>2017-06-06T11:46:40.000Z</time>
      </trkpt>
      <trkpt lat="44.538380" lon="4.731069">
        <ele>132.603204</ele>
        <time>2017-06-06T11:46:42.000Z</time>
      </trkpt>
      <trkpt lat="44.538258" lon="4.731033">
        <ele>132.683325</ele>
        <time>2017-06-06T11:46:45.000Z</time>
      </trkpt>
      <trkpt lat="44.538162" lon="4.730975">
        <ele>132.750498</ele>
        <time>2017-06-06T11:46:48.000Z</time>
      </trkpt>
      <trkpt lat="44.538074" lon="4.730923">
        <ele>132.811865</ele>
        <time>2017-06-06T11:46:51.000Z</time>
      </trkpt>
      <trkpt lat="44.537990" lon="4.730874">
        <ele>132.870329</ele>
        <time>2017-06-06T11:46:55.000Z</time>
      </trkpt>
      <trkpt lat="44.537888" lon="4.730831">
        <ele>132.938777</ele>
        <time>2017-06-06T11:47:00.000Z</time>
      </trkpt>
      <trkpt lat="44.537785" lon="4.730792">
        <ele>133.007340</ele>
        <time>2017-06-06T11:47:05.000Z</time>
      </trkpt>
      <trkpt lat="44.537690" lon="4.730739">
        <ele>133.073044</ele>
        <time>2017-06-06T11:47:10.000Z</time>
      </trkpt>
      <trkpt lat="44.537590" lon="4.730719">
        <ele>133.137960</ele>
        <time>2017-06-06T11:47:15.000Z</time>
      </trkpt>
      <trkpt lat="44.537506" lon="4.730834">
        <ele>133.213389</ele>
        <time>2017-06-06T11:47:19.000Z</time>
      </trkpt>
      <trkpt lat="44.537464" lon="4.730974">
        <ele>133.282970</ele>
        <time>2017-06-06T11:47:22.000Z</time>
      </trkpt>
      <trkpt lat="44.537407" lon="4.731113">
        <ele>133.274449</ele>
        <time>2017-06-06T11:47:25.000Z</time>
      </trkpt>
      <trkpt lat="44.537290" lon="4.731158">
        <ele>133.177463</ele>
        <time>2017-06-06T11:47:28.000Z</time>
      </trkpt>
      <trkpt lat="44.537197" lon="4.731122">
        <ele>133.100337</ele>
        <time>2017-06-06T11:47:30.000Z</time>
      </trkpt>
      <trkpt lat="44.537106" lon="4.731074">
        <ele>133.022615</ele>
        <time>2017-06-06T11:47:32.000Z</time>
      </trkpt>
      <trkpt lat="44.537018" lon="4.731031">
        <ele>132.948119</ele>
        <time>2017-06-06T11:47:34.000Z</time>
      </trkpt>
      <trkpt lat="44.536926" lon="4.730988">
        <ele>132.870596</ele>
        <time>2017-06-06T11:47:36.000Z</time>
      </trkpt>
      <trkpt lat="44.536830" lon="4.730937">
        <ele>132.788532</ele>
        <time>2017-06-06T11:47:38.000Z</time>
      </trkpt>
      <trkpt lat="44.536705" lon="4.730881">
        <ele>132.683630</ele>
        <time>2017-06-06T11:47:41.000Z</time>
      </trkpt>
      <trkpt lat="44.536583" lon="4.730816">
        <ele>132.579301</ele>
        <time>2017-06-06T11:47:44.000Z</time>
      </trkpt>
      <trkpt lat="44.536453" lon="4.730751">
        <ele>132.468971</ele>
        <time>2017-06-06T11:47:47.000Z</time>
      </trkpt>
      <trkpt lat="44.536327" lon="4.730688">
        <ele>132.362034</ele>
        <time>2017-06-06T11:47:50.000Z</time>
      </trkpt>
      <trkpt lat="44.536240" lon="4.730641">
        <ele>132.287504</ele>
        <time>2017-06-06T11:47:52.000Z</time>
      </trkpt>
      <trkpt lat="44.536110" lon="4.730586">
        <ele>132.178954</ele>
        <time>2017-06-06T11:47:55.000Z</time>
      </trkpt>
      <trkpt lat="44.536026" lon="4.730537">
        <ele>132.106227</ele>
        <time>2017-06-06T11:47:57.000Z</time>
      </trkpt>
      <trkpt lat="44.535930" lon="4.730493">
        <ele>132.025488</ele>
        <time>2017-06-06T11:47:59.000Z</time>
      </trkpt>
      <trkpt lat="44.535830" lon="4.730448">
        <ele>131.941532</ele>
        <time>2017-06-06T11:48:01.000Z</time>
      </trkpt>
      <trkpt lat="44.535736" lon="4.730397">
        <ele>131.892800</ele>
        <time>2017-06-06T11:48:03.000Z</time>
      </trkpt>
      <trkpt lat="44.535640" lon="4.730357">
        <ele>131.933991</ele>
        <time>2017-06-06T11:48:05.000Z</time>
      </trkpt>
      <trkpt lat="44.535553" lon="4.730316">
        <ele>131.971740</ele>
        <time>2017-06-06T11:48:07.000Z</time>
      </trkpt>
      <trkpt lat="44.535470" lon="4.730271">
        <ele>132.008340</ele>
        <time>2017-06-06T11:48:09.000Z</time>
      </trkpt>
      <trkpt lat="44.535347" lon="4.730234">
        <ele>132.060082</ele>
        <time>2017-06-06T11:48:12.000Z</time>
      </trkpt>
      <trkpt lat="44.535250" lon="4.730162">
        <ele>132.105220</ele>
        <time>2017-06-06T11:48:15.000Z</time>
      </trkpt>
      <trkpt lat="44.535206" lon="4.730037">
        <ele>132.146094</ele>
        <time>2017-06-06T11:48:18.000Z</time>
      </trkpt>
      <trkpt lat="44.535225" lon="4.729892">
        <ele>132.189319</ele>
        <time>2017-06-06T11:48:22.000Z</time>
      </trkpt>
      <trkpt lat="44.535194" lon="4.729757">
        <ele>132.230903</ele>
        <time>2017-06-06T11:48:33.000Z</time>
      </trkpt>
      <trkpt lat="44.535090" lon="4.729717">
        <ele>132.275258</ele>
        <time>2017-06-06T11:48:37.000Z</time>
      </trkpt>
      <trkpt lat="44.534992" lon="4.729670">
        <ele>132.317857</ele>
        <time>2017-06-06T11:48:40.000Z</time>
      </trkpt>
      <trkpt lat="44.534920" lon="4.729556">
        <ele>132.362514</ele>
        <time>2017-06-06T11:48:44.000Z</time>
      </trkpt>
      <trkpt lat="44.534912" lon="4.729423">
        <ele>132.401647</ele>
        <time>2017-06-06T11:48:47.000Z</time>
      </trkpt>
      <trkpt lat="44.534927" lon="4.729280">
        <ele>132.444025</ele>
        <time>2017-06-06T11:48:50.000Z</time>
      </trkpt>
      <trkpt lat="44.534973" lon="4.729146">
        <ele>132.487632</ele>
        <time>2017-06-06T11:48:53.000Z</time>
      </trkpt>
      <trkpt lat="44.535015" lon="4.728990">
        <ele>132.536524</ele>
        <time>2017-06-06T11:48:56.000Z</time>
      </trkpt>
      <trkpt lat="44.535053" lon="4.728838">
        <ele>132.583751</ele>
        <time>2017-06-06T11:48:59.000Z</time>
      </trkpt>
      <trkpt lat="44.535076" lon="4.728669">
        <ele>132.669187</ele>
        <time>2017-06-06T11:49:02.000Z</time>
      </trkpt>
      <trkpt lat="44.535103" lon="4.728499">
        <ele>132.864299</ele>
        <time>2017-06-06T11:49:05.000Z</time>
      </trkpt>
      <trkpt lat="44.535122" lon="4.728329">
        <ele>133.057067</ele>
        <time>2017-06-06T11:49:08.000Z</time>
      </trkpt>
      <trkpt lat="44.535130" lon="4.728158">
        <ele>133.249041</ele>
        <time>2017-06-06T11:49:11.000Z</time>
      </trkpt>
      <trkpt lat="44.535130" lon="4.727976">
        <ele>133.452925</ele>
        <time>2017-06-06T11:49:14.000Z</time>
      </trkpt>
      <trkpt lat="44.535126" lon="4.727814">
        <ele>133.634513</ele>
        <time>2017-06-06T11:49:17.000Z</time>
      </trkpt>
      <trkpt lat="44.535120" lon="4.727653">
        <ele>133.815119</ele>
        <time>2017-06-06T11:49:20.000Z</time>
      </trkpt>
      <trkpt lat="44.535100" lon="4.727513">
        <ele>133.975071</ele>
        <time>2017-06-06T11:49:23.000Z</time>
      </trkpt>
      <trkpt lat="44.535057" lon="4.727383">
        <ele>134.135618</ele>
        <time>2017-06-06T11:49:26.000Z</time>
      </trkpt>
      <trkpt lat="44.535027" lon="4.727238">
        <ele>134.304758</ele>
        <time>2017-06-06T11:49:29.000Z</time>
      </trkpt>
      <trkpt lat="44.534992" lon="4.727102">
        <ele>134.466736</ele>
        <time>2017-06-06T11:49:32.000Z</time>
      </trkpt>
      <trkpt lat="44.534958" lon="4.726967">
        <ele>134.627131</ele>
        <time>2017-06-06T11:49:38.000Z</time>
      </trkpt>
      <trkpt lat="44.534924" lon="4.726841">
        <ele>134.778058</ele>
        <time>2017-06-06T11:49:42.000Z</time>
      </trkpt>
      <trkpt lat="44.534897" lon="4.726700">
        <ele>134.941613</ele>
        <time>2017-06-06T11:49:45.000Z</time>
      </trkpt>
      <trkpt lat="44.534863" lon="4.726570">
        <ele>135.096738</ele>
        <time>2017-06-06T11:49:48.000Z</time>
      </trkpt>
      <trkpt lat="44.534817" lon="4.726413">
        <ele>135.286895</ele>
        <time>2017-06-06T11:49:51.000Z</time>
      </trkpt>
      <trkpt lat="44.534780" lon="4.726238">
        <ele>135.404735</ele>
        <time>2017-06-06T11:49:54.000Z</time>
      </trkpt>
      <trkpt lat="44.534744" lon="4.726085">
        <ele>135.220742</ele>
        <time>2017-06-06T11:49:57.000Z</time>
      </trkpt>
      <trkpt lat="44.534718" lon="4.725941">
        <ele>135.051106</ele>
        <time>2017-06-06T11:50:01.000Z</time>
      </trkpt>
      <trkpt lat="44.534687" lon="4.725802">
        <ele>134.884785</ele>
        <time>2017-06-06T11:50:07.000Z</time>
      </trkpt>
      <trkpt lat="44.534664" lon="4.725662">
        <ele>134.720718</ele>
        <time>2017-06-06T11:50:13.000Z</time>
      </trkpt>
      <trkpt lat="44.534634" lon="4.725514">
        <ele>134.545006</ele>
        <time>2017-06-06T11:50:18.000Z</time>
      </trkpt>
      <trkpt lat="44.534603" lon="4.725390">
        <ele>134.394946</ele>
        <time>2017-06-06T11:50:21.000Z</time>
      </trkpt>
      <trkpt lat="44.534565" lon="4.725223">
        <ele>134.194756</ele>
        <time>2017-06-06T11:50:24.000Z</time>
      </trkpt>
      <trkpt lat="44.534515" lon="4.725047">
        <ele>133.978395</ele>
        <time>2017-06-06T11:50:27.000Z</time>
      </trkpt>
      <trkpt lat="44.534477" lon="4.724869">
        <ele>133.766204</ele>
        <time>2017-06-06T11:50:30.000Z</time>
      </trkpt>
      <trkpt lat="44.534435" lon="4.724706">
        <ele>133.568275</ele>
        <time>2017-06-06T11:50:33.000Z</time>
      </trkpt>
      <trkpt lat="44.534412" lon="4.724545">
        <ele>133.380761</ele>
        <time>2017-06-06T11:50:36.000Z</time>
      </trkpt>
      <trkpt lat="44.534386" lon="4.724384">
        <ele>133.192245</ele>
        <time>2017-06-06T11:50:39.000Z</time>
      </trkpt>
      <trkpt lat="44.534350" lon="4.724227">
        <ele>133.003907</ele>
        <time>2017-06-06T11:50:42.000Z</time>
      </trkpt>
      <trkpt lat="44.534320" lon="4.724082">
        <ele>132.831487</ele>
        <time>2017-06-06T11:50:45.000Z</time>
      </trkpt>
      <trkpt lat="44.534298" lon="4.723938">
        <ele>132.663308</ele>
        <time>2017-06-06T11:50:49.000Z</time>
      </trkpt>
      <trkpt lat="44.534283" lon="4.723801">
        <ele>132.491159</ele>
        <time>2017-06-06T11:50:55.000Z</time>
      </trkpt>
      <trkpt lat="44.534237" lon="4.723665">
        <ele>132.280799</ele>
        <time>2017-06-06T11:51:00.000Z</time>
      </trkpt>
      <trkpt lat="44.534200" lon="4.723542">
        <ele>132.094237</ele>
        <time>2017-06-06T11:51:03.000Z</time>
      </trkpt>
      <trkpt lat="44.534140" lon="4.723386">
        <ele>131.846529</ele>
        <time>2017-06-06T11:51:06.000Z</time>
      </trkpt>
      <trkpt lat="44.534084" lon="4.723220">
        <ele>131.589889</ele>
        <time>2017-06-06T11:51:09.000Z</time>
      </trkpt>
      <trkpt lat="44.534046" lon="4.723091">
        <ele>131.394833</ele>
        <time>2017-06-06T11:51:12.000Z</time>
      </trkpt>
      <trkpt lat="44.533875" lon="4.723047">
        <ele>131.054013</ele>
        <time>2017-06-06T11:52:09.000Z</time>
      </trkpt>
      <trkpt lat="44.533752" lon="4.723008">
        <ele>130.806802</ele>
        <time>2017-06-06T11:52:12.000Z</time>
      </trkpt>
      <trkpt lat="44.533665" lon="4.722973">
        <ele>130.629373</ele>
        <time>2017-06-06T11:52:14.000Z</time>
      </trkpt>
      <trkpt lat="44.533560" lon="4.722940">
        <ele>130.418428</ele>
        <time>2017-06-06T11:52:17.000Z</time>
      </trkpt>
      <trkpt lat="44.533440" lon="4.722972">
        <ele>130.178968</ele>
        <time>2017-06-06T11:52:20.000Z</time>
      </trkpt>
      <trkpt lat="44.533344" lon="4.723027">
        <ele>129.975680</ele>
        <time>2017-06-06T11:52:23.000Z</time>
      </trkpt>
      <trkpt lat="44.533250" lon="4.723065">
        <ele>129.783904</ele>
        <time>2017-06-06T11:52:26.000Z</time>
      </trkpt>
      <trkpt lat="44.533142" lon="4.723100">
        <ele>129.566605</ele>
        <time>2017-06-06T11:52:29.000Z</time>
      </trkpt>
      <trkpt lat="44.533047" lon="4.723135">
        <ele>129.374052</ele>
        <time>2017-06-06T11:52:32.000Z</time>
      </trkpt>
      <trkpt lat="44.532932" lon="4.723186">
        <ele>129.137609</ele>
        <time>2017-06-06T11:52:35.000Z</time>
      </trkpt>
      <trkpt lat="44.532803" lon="4.723222">
        <ele>129.068716</ele>
        <time>2017-06-06T11:52:38.000Z</time>
      </trkpt>
      <trkpt lat="44.532710" lon="4.723254">
        <ele>129.101066</ele>
        <time>2017-06-06T11:52:40.000Z</time>
      </trkpt>
      <trkpt lat="44.532580" lon="4.723300">
        <ele>129.146361</ele>
        <time>2017-06-06T11:52:43.000Z</time>
      </trkpt>
      <trkpt lat="44.532455" lon="4.723347">
        <ele>129.190081</ele>
        <time>2017-06-06T11:52:46.000Z</time>
      </trkpt>
      <trkpt lat="44.532364" lon="4.723375">
        <ele>129.221555</ele>
        <time>2017-06-06T11:52:48.000Z</time>
      </trkpt>
      <trkpt lat="44.532276" lon="4.723408">
        <ele>129.252328</ele>
        <time>2017-06-06T11:52:50.000Z</time>
      </trkpt>
      <trkpt lat="44.532180" lon="4.723439">
        <ele>129.285608</ele>
        <time>2017-06-06T11:52:52.000Z</time>
      </trkpt>
      <trkpt lat="44.532080" lon="4.723469">
        <ele>129.320156</ele>
        <time>2017-06-06T11:52:54.000Z</time>
      </trkpt>
      <trkpt lat="44.531986" lon="4.723505">
        <ele>129.353075</ele>
        <time>2017-06-06T11:52:56.000Z</time>
      </trkpt>
      <trkpt lat="44.531887" lon="4.723544">
        <ele>129.387814</ele>
        <time>2017-06-06T11:52:58.000Z</time>
      </trkpt>
      <trkpt lat="44.531784" lon="4.723573">
        <ele>129.423305</ele>
        <time>2017-06-06T11:53:00.000Z</time>
      </trkpt>
      <trkpt lat="44.531680" lon="4.723608">
        <ele>129.459437</ele>
        <time>2017-06-06T11:53:02.000Z</time>
      </trkpt>
      <trkpt lat="44.531578" lon="4.723642">
        <ele>129.494856</ele>
        <time>2017-06-06T11:53:04.000Z</time>
      </trkpt>
      <trkpt lat="44.531470" lon="4.723678">
        <ele>129.532358</ele>
        <time>2017-06-06T11:53:06.000Z</time>
      </trkpt>
      <trkpt lat="44.531360" lon="4.723714">
        <ele>129.570518</ele>
        <time>2017-06-06T11:53:08.000Z</time>
      </trkpt>
      <trkpt lat="44.531254" lon="4.723750">
        <ele>129.607363</ele>
        <time>2017-06-06T11:53:10.000Z</time>
      </trkpt>
      <trkpt lat="44.531140" lon="4.723785">
        <ele>129.646788</ele>
        <time>2017-06-06T11:53:12.000Z</time>
      </trkpt>
      <trkpt lat="44.531030" lon="4.723810">
        <ele>129.719593</ele>
        <time>2017-06-06T11:53:14.000Z</time>
      </trkpt>
      <trkpt lat="44.530922" lon="4.723838">
        <ele>129.793088</ele>
        <time>2017-06-06T11:53:16.000Z</time>
      </trkpt>
      <trkpt lat="44.530827" lon="4.723873">
        <ele>129.858816</ele>
        <time>2017-06-06T11:53:18.000Z</time>
      </trkpt>
      <trkpt lat="44.530730" lon="4.723907">
        <ele>129.925721</ele>
        <time>2017-06-06T11:53:20.000Z</time>
      </trkpt>
      <trkpt lat="44.530636" lon="4.723939">
        <ele>129.990450</ele>
        <time>2017-06-06T11:53:22.000Z</time>
      </trkpt>
      <trkpt lat="44.530533" lon="4.723970">
        <ele>130.060943</ele>
        <time>2017-06-06T11:53:24.000Z</time>
      </trkpt>
      <trkpt lat="44.530434" lon="4.724003">
        <ele>130.129036</ele>
        <time>2017-06-06T11:53:26.000Z</time>
      </trkpt>
      <trkpt lat="44.530334" lon="4.724036">
        <ele>130.197780</ele>
        <time>2017-06-06T11:53:28.000Z</time>
      </trkpt>
      <trkpt lat="44.530235" lon="4.724058">
        <ele>130.264855</ele>
        <time>2017-06-06T11:53:30.000Z</time>
      </trkpt>
      <trkpt lat="44.530132" lon="4.724091">
        <ele>130.335554</ele>
        <time>2017-06-06T11:53:32.000Z</time>
      </trkpt>
      <trkpt lat="44.530030" lon="4.724120">
        <ele>130.405198</ele>
        <time>2017-06-06T11:53:34.000Z</time>
      </trkpt>
      <trkpt lat="44.529926" lon="4.724137">
        <ele>130.475263</ele>
        <time>2017-06-06T11:53:36.000Z</time>
      </trkpt>
      <trkpt lat="44.529823" lon="4.724135">
        <ele>130.544195</ele>
        <time>2017-06-06T11:53:38.000Z</time>
      </trkpt>
      <trkpt lat="44.529724" lon="4.724100">
        <ele>130.612515</ele>
        <time>2017-06-06T11:53:40.000Z</time>
      </trkpt>
      <trkpt lat="44.529630" lon="4.724099">
        <ele>130.675419</ele>
        <time>2017-06-06T11:53:42.000Z</time>
      </trkpt>
      <trkpt lat="44.529537" lon="4.724070">
        <ele>130.739171</ele>
        <time>2017-06-06T11:53:44.000Z</time>
      </trkpt>
      <trkpt lat="44.529450" lon="4.724017">
        <ele>130.802642</ele>
        <time>2017-06-06T11:53:46.000Z</time>
      </trkpt>
      <trkpt lat="44.529346" lon="4.723980">
        <ele>130.868566</ele>
        <time>2017-06-06T11:53:48.000Z</time>
      </trkpt>
      <trkpt lat="44.529250" lon="4.723947">
        <ele>130.917245</ele>
        <time>2017-06-06T11:53:50.000Z</time>
      </trkpt>
      <trkpt lat="44.529152" lon="4.723918">
        <ele>130.966571</ele>
        <time>2017-06-06T11:53:52.000Z</time>
      </trkpt>
      <trkpt lat="44.529053" lon="4.723887">
        <ele>131.016529</ele>
        <time>2017-06-06T11:53:54.000Z</time>
      </trkpt>
      <trkpt lat="44.528950" lon="4.723867">
        <ele>131.067739</ele>
        <time>2017-06-06T11:53:56.000Z</time>
      </trkpt>
      <trkpt lat="44.528854" lon="4.723844">
        <ele>131.115704</ele>
        <time>2017-06-06T11:53:58.000Z</time>
      </trkpt>
      <trkpt lat="44.528748" lon="4.723816">
        <ele>131.168826</ele>
        <time>2017-06-06T11:54:00.000Z</time>
      </trkpt>
      <trkpt lat="44.528645" lon="4.723790">
        <ele>131.220367</ele>
        <time>2017-06-06T11:54:02.000Z</time>
      </trkpt>
      <trkpt lat="44.528538" lon="4.723772">
        <ele>131.273442</ele>
        <time>2017-06-06T11:54:04.000Z</time>
      </trkpt>
      <trkpt lat="44.528430" lon="4.723743">
        <ele>131.327597</ele>
        <time>2017-06-06T11:54:06.000Z</time>
      </trkpt>
      <trkpt lat="44.528330" lon="4.723722">
        <ele>131.377396</ele>
        <time>2017-06-06T11:54:08.000Z</time>
      </trkpt>
      <trkpt lat="44.528220" lon="4.723706">
        <ele>131.431861</ele>
        <time>2017-06-06T11:54:10.000Z</time>
      </trkpt>
      <trkpt lat="44.528120" lon="4.723688">
        <ele>131.481514</ele>
        <time>2017-06-06T11:54:12.000Z</time>
      </trkpt>
      <trkpt lat="44.528015" lon="4.723665">
        <ele>131.533853</ele>
        <time>2017-06-06T11:54:14.000Z</time>
      </trkpt>
      <trkpt lat="44.527916" lon="4.723643">
        <ele>131.583218</ele>
        <time>2017-06-06T11:54:16.000Z</time>
      </trkpt>
      <trkpt lat="44.527813" lon="4.723625">
        <ele>131.634337</ele>
        <time>2017-06-06T11:54:18.000Z</time>
      </trkpt>
      <trkpt lat="44.527714" lon="4.723600">
        <ele>131.683878</ele>
        <time>2017-06-06T11:54:20.000Z</time>
      </trkpt>
      <trkpt lat="44.527610" lon="4.723575">
        <ele>131.735844</ele>
        <time>2017-06-06T11:54:22.000Z</time>
      </trkpt>
      <trkpt lat="44.527508" lon="4.723544">
        <ele>131.753641</ele>
        <time>2017-06-06T11:54:24.000Z</time>
      </trkpt>
      <trkpt lat="44.527405" lon="4.723522">
        <ele>131.769928</ele>
        <time>2017-06-06T11:54:26.000Z</time>
      </trkpt>
      <trkpt lat="44.527300" lon="4.723503">
        <ele>131.786478</ele>
        <time>2017-06-06T11:54:28.000Z</time>
      </trkpt>
      <trkpt lat="44.527200" lon="4.723476">
        <ele>131.802397</ele>
        <time>2017-06-06T11:54:30.000Z</time>
      </trkpt>
      <trkpt lat="44.527096" lon="4.723450">
        <ele>131.818910</ele>
        <time>2017-06-06T11:54:32.000Z</time>
      </trkpt>
      <trkpt lat="44.526997" lon="4.723423">
        <ele>131.834676</ele>
        <time>2017-06-06T11:54:34.000Z</time>
      </trkpt>
      <trkpt lat="44.526897" lon="4.723392">
        <ele>131.850685</ele>
        <time>2017-06-06T11:54:36.000Z</time>
      </trkpt>
      <trkpt lat="44.526800" lon="4.723366">
        <ele>131.866123</ele>
        <time>2017-06-06T11:54:38.000Z</time>
      </trkpt>
      <trkpt lat="44.526700" lon="4.723345">
        <ele>131.881929</ele>
        <time>2017-06-06T11:54:40.000Z</time>
      </trkpt>
      <trkpt lat="44.526600" lon="4.723316">
        <ele>131.897892</ele>
        <time>2017-06-06T11:54:42.000Z</time>
      </trkpt>
      <trkpt lat="44.526493" lon="4.723285">
        <ele>131.914971</ele>
        <time>2017-06-06T11:54:44.000Z</time>
      </trkpt>
      <trkpt lat="44.526390" lon="4.723258">
        <ele>131.931351</ele>
        <time>2017-06-06T11:54:46.000Z</time>
      </trkpt>
      <trkpt lat="44.526290" lon="4.723229">
        <ele>131.947314</ele>
        <time>2017-06-06T11:54:48.000Z</time>
      </trkpt>
      <trkpt lat="44.526190" lon="4.723207">
        <ele>131.963137</ele>
        <time>2017-06-06T11:54:50.000Z</time>
      </trkpt>
      <trkpt lat="44.526093" lon="4.723187">
        <ele>131.978463</ele>
        <time>2017-06-06T11:54:52.000Z</time>
      </trkpt>
      <trkpt lat="44.525993" lon="4.723164">
        <ele>131.994304</ele>
        <time>2017-06-06T11:54:54.000Z</time>
      </trkpt>
      <trkpt lat="44.525894" lon="4.723138">
        <ele>132.010049</ele>
        <time>2017-06-06T11:54:56.000Z</time>
      </trkpt>
      <trkpt lat="44.525790" lon="4.723111">
        <ele>131.983003</ele>
        <time>2017-06-06T11:54:58.000Z</time>
      </trkpt>
      <trkpt lat="44.525690" lon="4.723089">
        <ele>131.905649</ele>
        <time>2017-06-06T11:55:00.000Z</time>
      </trkpt>
      <trkpt lat="44.525590" lon="4.723076">
        <ele>131.828901</ele>
        <time>2017-06-06T11:55:02.000Z</time>
      </trkpt>
      <trkpt lat="44.525486" lon="4.723059">
        <ele>131.748887</ele>
        <time>2017-06-06T11:55:04.000Z</time>
      </trkpt>
      <trkpt lat="44.525380" lon="4.723034">
        <ele>131.666744</ele>
        <time>2017-06-06T11:55:06.000Z</time>
      </trkpt>
      <trkpt lat="44.525272" lon="4.723021">
        <ele>131.583907</ele>
        <time>2017-06-06T11:55:08.000Z</time>
      </trkpt>
      <trkpt lat="44.525173" lon="4.723032">
        <ele>131.508014</ele>
        <time>2017-06-06T11:55:10.000Z</time>
      </trkpt>
      <trkpt lat="44.525085" lon="4.723069">
        <ele>131.437808</ele>
        <time>2017-06-06T11:55:12.000Z</time>
      </trkpt>
      <trkpt lat="44.524986" lon="4.723121">
        <ele>131.357021</ele>
        <time>2017-06-06T11:55:14.000Z</time>
      </trkpt>
      <trkpt lat="44.524890" lon="4.723168">
        <ele>131.279317</ele>
        <time>2017-06-06T11:55:16.000Z</time>
      </trkpt>
      <trkpt lat="44.524796" lon="4.723226">
        <ele>131.200839</ele>
        <time>2017-06-06T11:55:18.000Z</time>
      </trkpt>
      <trkpt lat="44.524700" lon="4.723283">
        <ele>131.121174</ele>
        <time>2017-06-06T11:55:20.000Z</time>
      </trkpt>
      <trkpt lat="44.524605" lon="4.723349">
        <ele>131.040157</ele>
        <time>2017-06-06T11:55:22.000Z</time>
      </trkpt>
      <trkpt lat="44.524506" lon="4.723406">
        <ele>130.958375</ele>
        <time>2017-06-06T11:55:24.000Z</time>
      </trkpt>
      <trkpt lat="44.524406" lon="4.723465">
        <ele>130.875469</ele>
        <time>2017-06-06T11:55:26.000Z</time>
      </trkpt>
      <trkpt lat="44.524315" lon="4.723523">
        <ele>130.799084</ele>
        <time>2017-06-06T11:55:28.000Z</time>
      </trkpt>
      <trkpt lat="44.524220" lon="4.723577">
        <ele>130.720750</ele>
        <time>2017-06-06T11:55:30.000Z</time>
      </trkpt>
      <trkpt lat="44.524124" lon="4.723624">
        <ele>130.638943</ele>
        <time>2017-06-06T11:55:32.000Z</time>
      </trkpt>
      <trkpt lat="44.524036" lon="4.723692">
        <ele>130.366639</ele>
        <time>2017-06-06T11:55:34.000Z</time>
      </trkpt>
      <trkpt lat="44.523937" lon="4.723752">
        <ele>130.074345</ele>
        <time>2017-06-06T11:55:36.000Z</time>
      </trkpt>
      <trkpt lat="44.523834" lon="4.723812">
        <ele>129.772068</ele>
        <time>2017-06-06T11:55:38.000Z</time>
      </trkpt>
      <trkpt lat="44.523740" lon="4.723877">
        <ele>129.488023</ele>
        <time>2017-06-06T11:55:40.000Z</time>
      </trkpt>
      <trkpt lat="44.523636" lon="4.723942">
        <ele>129.179437</ele>
        <time>2017-06-06T11:55:42.000Z</time>
      </trkpt>
      <trkpt lat="44.523537" lon="4.724002">
        <ele>128.887142</ele>
        <time>2017-06-06T11:55:44.000Z</time>
      </trkpt>
      <trkpt lat="44.523434" lon="4.724066">
        <ele>128.581817</ele>
        <time>2017-06-06T11:55:46.000Z</time>
      </trkpt>
      <trkpt lat="44.523320" lon="4.724125">
        <ele>128.252483</ele>
        <time>2017-06-06T11:55:48.000Z</time>
      </trkpt>
      <trkpt lat="44.523205" lon="4.724176">
        <ele>127.925592</ele>
        <time>2017-06-06T11:55:50.000Z</time>
      </trkpt>
      <trkpt lat="44.523094" lon="4.724218">
        <ele>127.613997</ele>
        <time>2017-06-06T11:55:52.000Z</time>
      </trkpt>
      <trkpt lat="44.522987" lon="4.724235">
        <ele>127.322142</ele>
        <time>2017-06-06T11:55:54.000Z</time>
      </trkpt>
      <trkpt lat="44.522877" lon="4.724245">
        <ele>127.023386</ele>
        <time>2017-06-06T11:55:56.000Z</time>
      </trkpt>
      <trkpt lat="44.522766" lon="4.724245">
        <ele>126.722546</ele>
        <time>2017-06-06T11:55:58.000Z</time>
      </trkpt>
      <trkpt lat="44.522644" lon="4.724245">
        <ele>126.391892</ele>
        <time>2017-06-06T11:56:00.000Z</time>
      </trkpt>
      <trkpt lat="44.522500" lon="4.724240">
        <ele>126.001492</ele>
        <time>2017-06-06T11:56:02.000Z</time>
      </trkpt>
      <trkpt lat="44.522335" lon="4.724241">
        <ele>125.521233</ele>
        <time>2017-06-06T11:56:04.000Z</time>
      </trkpt>
      <trkpt lat="44.522180" lon="4.724233">
        <ele>125.036378</ele>
        <time>2017-06-06T11:56:06.000Z</time>
      </trkpt>
      <trkpt lat="44.522030" lon="4.724240">
        <ele>124.567222</ele>
        <time>2017-06-06T11:56:08.000Z</time>
      </trkpt>
      <trkpt lat="44.521890" lon="4.724233">
        <ele>124.129307</ele>
        <time>2017-06-06T11:56:10.000Z</time>
      </trkpt>
      <trkpt lat="44.521744" lon="4.724230">
        <ele>123.672866</ele>
        <time>2017-06-06T11:56:12.000Z</time>
      </trkpt>
      <trkpt lat="44.521645" lon="4.724285">
        <ele>123.340000</ele>
        <time>2017-06-06T11:56:14.000Z</time>
      </trkpt>
      <trkpt lat="44.521572" lon="4.724369">
        <ele>123.044833</ele>
        <time>2017-06-06T11:56:16.000Z</time>
      </trkpt>
      <trkpt lat="44.521480" lon="4.724454">
        <ele>122.700452</ele>
        <time>2017-06-06T11:56:18.000Z</time>
      </trkpt>
      <trkpt lat="44.521378" lon="4.724527">
        <ele>122.342490</ele>
        <time>2017-06-06T11:56:20.000Z</time>
      </trkpt>
      <trkpt lat="44.521260" lon="4.724601">
        <ele>121.938431</ele>
        <time>2017-06-06T11:56:22.000Z</time>
      </trkpt>
      <trkpt lat="44.521137" lon="4.724702">
        <ele>121.492886</ele>
        <time>2017-06-06T11:56:24.000Z</time>
      </trkpt>
      <trkpt lat="44.521023" lon="4.724820">
        <ele>121.049985</ele>
        <time>2017-06-06T11:56:26.000Z</time>
      </trkpt>
      <trkpt lat="44.520920" lon="4.724943">
        <ele>120.627111</ele>
        <time>2017-06-06T11:56:28.000Z</time>
      </trkpt>
      <trkpt lat="44.520800" lon="4.725060">
        <ele>120.170258</ele>
        <time>2017-06-06T11:56:30.000Z</time>
      </trkpt>
      <trkpt lat="44.520700" lon="4.725178">
        <ele>120.030489</ele>
        <time>2017-06-06T11:56:32.000Z</time>
      </trkpt>
      <trkpt lat="44.520600" lon="4.725271">
        <ele>119.916842</ele>
        <time>2017-06-06T11:56:34.000Z</time>
      </trkpt>
      <trkpt lat="44.520508" lon="4.725340">
        <ele>119.818026</ele>
        <time>2017-06-06T11:56:36.000Z</time>
      </trkpt>
      <trkpt lat="44.520397" lon="4.725380">
        <ele>119.709476</ele>
        <time>2017-06-06T11:56:38.000Z</time>
      </trkpt>
      <trkpt lat="44.520287" lon="4.725393">
        <ele>119.604919</ele>
        <time>2017-06-06T11:56:40.000Z</time>
      </trkpt>
      <trkpt lat="44.520164" lon="4.725381">
        <ele>119.488136</ele>
        <time>2017-06-06T11:56:42.000Z</time>
      </trkpt>
      <trkpt lat="44.520040" lon="4.725374">
        <ele>119.370593</ele>
        <time>2017-06-06T11:56:44.000Z</time>
      </trkpt>
      <trkpt lat="44.519910" lon="4.725370">
        <ele>119.247432</ele>
        <time>2017-06-06T11:56:46.000Z</time>
      </trkpt>
      <trkpt lat="44.519780" lon="4.725359">
        <ele>119.124077</ele>
        <time>2017-06-06T11:56:48.000Z</time>
      </trkpt>
      <trkpt lat="44.519660" lon="4.725353">
        <ele>119.010345</ele>
        <time>2017-06-06T11:56:50.000Z</time>
      </trkpt>
      <trkpt lat="44.519543" lon="4.725349">
        <ele>118.899494</ele>
        <time>2017-06-06T11:56:52.000Z</time>
      </trkpt>
      <trkpt lat="44.519436" lon="4.725342">
        <ele>118.798037</ele>
        <time>2017-06-06T11:56:54.000Z</time>
      </trkpt>
      <trkpt lat="44.519325" lon="4.725336">
        <ele>118.692824</ele>
        <time>2017-06-06T11:56:56.000Z</time>
      </trkpt>
      <trkpt lat="44.519210" lon="4.725317">
        <ele>118.583147</ele>
        <time>2017-06-06T11:56:58.000Z</time>
      </trkpt>
      <trkpt lat="44.519104" lon="4.725293">
        <ele>118.481448</ele>
        <time>2017-06-06T11:57:00.000Z</time>
      </trkpt>
      <trkpt lat="44.518990" lon="4.725269">
        <ele>118.445975</ele>
        <time>2017-06-06T11:57:02.000Z</time>
      </trkpt>
      <trkpt lat="44.518887" lon="4.725243">
        <ele>118.449118</ele>
        <time>2017-06-06T11:57:04.000Z</time>
      </trkpt>
      <trkpt lat="44.518780" lon="4.725217">
        <ele>118.452381</ele>
        <time>2017-06-06T11:57:06.000Z</time>
      </trkpt>
      <trkpt lat="44.518673" lon="4.725195">
        <ele>118.455629</ele>
        <time>2017-06-06T11:57:08.000Z</time>
      </trkpt>
      <trkpt lat="44.518566" lon="4.725177">
        <ele>118.458866</ele>
        <time>2017-06-06T11:57:10.000Z</time>
      </trkpt>
      <trkpt lat="44.518460" lon="4.725163">
        <ele>118.462065</ele>
        <time>2017-06-06T11:57:12.000Z</time>
      </trkpt>
      <trkpt lat="44.518364" lon="4.725143">
        <ele>118.464980</ele>
        <time>2017-06-06T11:57:14.000Z</time>
      </trkpt>
      <trkpt lat="44.518257" lon="4.725124">
        <ele>118.468220</ele>
        <time>2017-06-06T11:57:16.000Z</time>
      </trkpt>
      <trkpt lat="44.518150" lon="4.725105">
        <ele>118.471460</ele>
        <time>2017-06-06T11:57:18.000Z</time>
      </trkpt>
      <trkpt lat="44.518047" lon="4.725081">
        <ele>118.474596</ele>
        <time>2017-06-06T11:57:20.000Z</time>
      </trkpt>
      <trkpt lat="44.517940" lon="4.725058">
        <ele>118.477848</ele>
        <time>2017-06-06T11:57:22.000Z</time>
      </trkpt>
      <trkpt lat="44.517845" lon="4.725022">
        <ele>118.480804</ele>
        <time>2017-06-06T11:57:24.000Z</time>
      </trkpt>
      <trkpt lat="44.517750" lon="4.724975">
        <ele>118.483830</ele>
        <time>2017-06-06T11:57:26.000Z</time>
      </trkpt>
      <trkpt lat="44.517662" lon="4.724894">
        <ele>118.486992</ele>
        <time>2017-06-06T11:57:28.000Z</time>
      </trkpt>
      <trkpt lat="44.517525" lon="4.724764">
        <ele>118.491961</ele>
        <time>2017-06-06T11:57:31.000Z</time>
      </trkpt>
      <trkpt lat="44.517420" lon="4.724702">
        <ele>118.495384</ele>
        <time>2017-06-06T11:57:33.000Z</time>
      </trkpt>
      <trkpt lat="44.517310" lon="4.724661">
        <ele>118.448253</ele>
        <time>2017-06-06T11:57:35.000Z</time>
      </trkpt>
      <trkpt lat="44.517210" lon="4.724623">
        <ele>118.303440</ele>
        <time>2017-06-06T11:57:37.000Z</time>
      </trkpt>
      <trkpt lat="44.517110" lon="4.724582">
        <ele>118.157817</ele>
        <time>2017-06-06T11:57:39.000Z</time>
      </trkpt>
      <trkpt lat="44.517010" lon="4.724533">
        <ele>118.009758</ele>
        <time>2017-06-06T11:57:41.000Z</time>
      </trkpt>
      <trkpt lat="44.516903" lon="4.724488">
        <ele>117.853621</ele>
        <time>2017-06-06T11:57:43.000Z</time>
      </trkpt>
      <trkpt lat="44.516790" lon="4.724450">
        <ele>117.691201</ele>
        <time>2017-06-06T11:57:45.000Z</time>
      </trkpt>
      <trkpt lat="44.516674" lon="4.724407">
        <ele>117.523496</ele>
        <time>2017-06-06T11:57:47.000Z</time>
      </trkpt>
      <trkpt lat="44.516556" lon="4.724363">
        <ele>117.352833</ele>
        <time>2017-06-06T11:57:49.000Z</time>
      </trkpt>
      <trkpt lat="44.516440" lon="4.724320">
        <ele>117.185128</ele>
        <time>2017-06-06T11:57:51.000Z</time>
      </trkpt>
      <trkpt lat="44.516323" lon="4.724274">
        <ele>117.015289</ele>
        <time>2017-06-06T11:57:53.000Z</time>
      </trkpt>
      <trkpt lat="44.516216" lon="4.724223">
        <ele>116.857330</ele>
        <time>2017-06-06T11:57:55.000Z</time>
      </trkpt>
      <trkpt lat="44.516100" lon="4.724176">
        <ele>116.688563</ele>
        <time>2017-06-06T11:57:57.000Z</time>
      </trkpt>
      <trkpt lat="44.515980" lon="4.724122">
        <ele>116.512412</ele>
        <time>2017-06-06T11:57:59.000Z</time>
      </trkpt>
      <trkpt lat="44.515858" lon="4.724073">
        <ele>116.335033</ele>
        <time>2017-06-06T11:58:01.000Z</time>
      </trkpt>
      <trkpt lat="44.515736" lon="4.724031">
        <ele>116.159448</ele>
        <time>2017-06-06T11:58:03.000Z</time>
      </trkpt>
      <trkpt lat="44.515617" lon="4.723984">
        <ele>115.986647</ele>
        <time>2017-06-06T11:58:05.000Z</time>
      </trkpt>
      <trkpt lat="44.515507" lon="4.723934">
        <ele>115.916974</ele>
        <time>2017-06-06T11:58:07.000Z</time>
      </trkpt>
      <trkpt lat="44.515392" lon="4.723884">
        <ele>115.846193</ele>
        <time>2017-06-06T11:58:09.000Z</time>
      </trkpt>
      <trkpt lat="44.515278" lon="4.723836">
        <ele>115.776220</ele>
        <time>2017-06-06T11:58:11.000Z</time>
      </trkpt>
      <trkpt lat="44.515160" lon="4.723792">
        <ele>115.704440</ele>
        <time>2017-06-06T11:58:13.000Z</time>
      </trkpt>
      <trkpt lat="44.515053" lon="4.723749">
        <ele>115.639005</ele>
        <time>2017-06-06T11:58:15.000Z</time>
      </trkpt>
      <trkpt lat="44.514950" lon="4.723700">
        <ele>115.575065</ele>
        <time>2017-06-06T11:58:17.000Z</time>
      </trkpt>
      <trkpt lat="44.514847" lon="4.723642">
        <ele>115.509814</ele>
        <time>2017-06-06T11:58:19.000Z</time>
      </trkpt>
      <trkpt lat="44.514736" lon="4.723580">
        <ele>115.439575</ele>
        <time>2017-06-06T11:58:21.000Z</time>
      </trkpt>
      <trkpt lat="44.514620" lon="4.723530">
        <ele>115.368232</ele>
        <time>2017-06-06T11:58:23.000Z</time>
      </trkpt>
      <trkpt lat="44.514510" lon="4.723491">
        <ele>115.301531</ele>
        <time>2017-06-06T11:58:25.000Z</time>
      </trkpt>
      <trkpt lat="44.514397" lon="4.723443">
        <ele>115.232121</ele>
        <time>2017-06-06T11:58:27.000Z</time>
      </trkpt>
      <trkpt lat="44.514282" lon="4.723391">
        <ele>115.161087</ele>
        <time>2017-06-06T11:58:29.000Z</time>
      </trkpt>
      <trkpt lat="44.514164" lon="4.723339">
        <ele>115.088373</ele>
        <time>2017-06-06T11:58:31.000Z</time>
      </trkpt>
      <trkpt lat="44.514053" lon="4.723292">
        <ele>115.020209</ele>
        <time>2017-06-06T11:58:33.000Z</time>
      </trkpt>
      <trkpt lat="44.513943" lon="4.723243">
        <ele>114.952359</ele>
        <time>2017-06-06T11:58:35.000Z</time>
      </trkpt>
      <trkpt lat="44.513830" lon="4.723197">
        <ele>114.965024</ele>
        <time>2017-06-06T11:58:37.000Z</time>
      </trkpt>
      <trkpt lat="44.513714" lon="4.723157">
        <ele>115.027978</ele>
        <time>2017-06-06T11:58:39.000Z</time>
      </trkpt>
      <trkpt lat="44.513603" lon="4.723111">
        <ele>115.088977</ele>
        <time>2017-06-06T11:58:41.000Z</time>
      </trkpt>
      <trkpt lat="44.513496" lon="4.723064">
        <ele>115.148068</ele>
        <time>2017-06-06T11:58:43.000Z</time>
      </trkpt>
      <trkpt lat="44.513382" lon="4.723016">
        <ele>115.210797</ele>
        <time>2017-06-06T11:58:45.000Z</time>
      </trkpt>
      <trkpt lat="44.513268" lon="4.722968">
        <ele>115.273526</ele>
        <time>2017-06-06T11:58:47.000Z</time>
      </trkpt>
      <trkpt lat="44.513145" lon="4.722920">
        <ele>115.340811</ele>
        <time>2017-06-06T11:58:49.000Z</time>
      </trkpt>
      <trkpt lat="44.513035" lon="4.722871">
        <ele>115.401636</ele>
        <time>2017-06-06T11:58:51.000Z</time>
      </trkpt>
      <trkpt lat="44.512920" lon="4.722817">
        <ele>115.465550</ele>
        <time>2017-06-06T11:58:53.000Z</time>
      </trkpt>
      <trkpt lat="44.512817" lon="4.722756">
        <ele>115.524474</ele>
        <time>2017-06-06T11:58:55.000Z</time>
      </trkpt>
      <trkpt lat="44.512720" lon="4.722704">
        <ele>115.579202</ele>
        <time>2017-06-06T11:58:57.000Z</time>
      </trkpt>
      <trkpt lat="44.512610" lon="4.722663">
        <ele>115.639185</ele>
        <time>2017-06-06T11:58:59.000Z</time>
      </trkpt>
      <trkpt lat="44.512512" lon="4.722615">
        <ele>115.693892</ele>
        <time>2017-06-06T11:59:01.000Z</time>
      </trkpt>
      <trkpt lat="44.512420" lon="4.722532">
        <ele>115.751544</ele>
        <time>2017-06-06T11:59:03.000Z</time>
      </trkpt>
      <trkpt lat="44.512344" lon="4.722419">
        <ele>115.809919</ele>
        <time>2017-06-06T11:59:05.000Z</time>
      </trkpt>
      <trkpt lat="44.512310" lon="4.722289">
        <ele>115.861956</ele>
        <time>2017-06-06T11:59:07.000Z</time>
      </trkpt>
      <trkpt lat="44.512295" lon="4.722141">
        <ele>115.913131</ele>
        <time>2017-06-06T11:59:09.000Z</time>
      </trkpt>
      <trkpt lat="44.512314" lon="4.721995">
        <ele>115.962548</ele>
        <time>2017-06-06T11:59:11.000Z</time>
      </trkpt>
      <trkpt lat="44.512306" lon="4.721843">
        <ele>116.013297</ele>
        <time>2017-06-06T11:59:13.000Z</time>
      </trkpt>
      <trkpt lat="44.512287" lon="4.721683">
        <ele>116.067306</ele>
        <time>2017-06-06T11:59:15.000Z</time>
      </trkpt>
      <trkpt lat="44.512257" lon="4.721526">
        <ele>116.121427</ele>
        <time>2017-06-06T11:59:17.000Z</time>
      </trkpt>
      <trkpt lat="44.512226" lon="4.721382">
        <ele>116.171512</ele>
        <time>2017-06-06T11:59:19.000Z</time>
      </trkpt>
      <trkpt lat="44.512200" lon="4.721240">
        <ele>116.220327</ele>
        <time>2017-06-06T11:59:21.000Z</time>
      </trkpt>
      <trkpt lat="44.512177" lon="4.721107">
        <ele>116.265896</ele>
        <time>2017-06-06T11:59:23.000Z</time>
      </trkpt>
      <trkpt lat="44.512160" lon="4.720965">
        <ele>116.313840</ele>
        <time>2017-06-06T11:59:25.000Z</time>
      </trkpt>
      <trkpt lat="44.512142" lon="4.720819">
        <ele>116.363175</ele>
        <time>2017-06-06T11:59:27.000Z</time>
      </trkpt>
      <trkpt lat="44.512142" lon="4.720678">
        <ele>116.410124</ele>
        <time>2017-06-06T11:59:29.000Z</time>
      </trkpt>
      <trkpt lat="44.512157" lon="4.720533">
        <ele>116.458910</ele>
        <time>2017-06-06T11:59:31.000Z</time>
      </trkpt>
      <trkpt lat="44.512160" lon="4.720388">
        <ele>116.507211</ele>
        <time>2017-06-06T11:59:33.000Z</time>
      </trkpt>
      <trkpt lat="44.512142" lon="4.720241">
        <ele>116.556874</ele>
        <time>2017-06-06T11:59:35.000Z</time>
      </trkpt>
      <trkpt lat="44.512130" lon="4.720088">
        <ele>116.608126</ele>
        <time>2017-06-06T11:59:37.000Z</time>
      </trkpt>
      <trkpt lat="44.512115" lon="4.719933">
        <ele>116.660209</ele>
        <time>2017-06-06T11:59:39.000Z</time>
      </trkpt>
      <trkpt lat="44.512104" lon="4.719795">
        <ele>116.706446</ele>
        <time>2017-06-06T11:59:41.000Z</time>
      </trkpt>
      <trkpt lat="44.512093" lon="4.719652">
        <ele>116.689406</ele>
        <time>2017-06-06T11:59:43.000Z</time>
      </trkpt>
      <trkpt lat="44.512074" lon="4.719514">
        <ele>116.660707</ele>
        <time>2017-06-06T11:59:45.000Z</time>
      </trkpt>
      <trkpt lat="44.512060" lon="4.719388">
        <ele>116.634669</ele>
        <time>2017-06-06T11:59:47.000Z</time>
      </trkpt>
      <trkpt lat="44.512020" lon="4.719214">
        <ele>116.597340</ele>
        <time>2017-06-06T11:59:50.000Z</time>
      </trkpt>
      <trkpt lat="44.511955" lon="4.719057">
        <ele>116.560271</ele>
        <time>2017-06-06T11:59:53.000Z</time>
      </trkpt>
      <trkpt lat="44.511883" lon="4.718906">
        <ele>116.523180</ele>
        <time>2017-06-06T11:59:56.000Z</time>
      </trkpt>
      <trkpt lat="44.511826" lon="4.718798">
        <ele>116.495745</ele>
        <time>2017-06-06T11:59:58.000Z</time>
      </trkpt>
      <trkpt lat="44.511760" lon="4.718698">
        <ele>116.467923</ele>
        <time>2017-06-06T12:00:00.000Z</time>
      </trkpt>
      <trkpt lat="44.511684" lon="4.718611">
        <ele>116.439831</ele>
        <time>2017-06-06T12:00:02.000Z</time>
      </trkpt>
      <trkpt lat="44.511597" lon="4.718534">
        <ele>116.410372</ele>
        <time>2017-06-06T12:00:04.000Z</time>
      </trkpt>
      <trkpt lat="44.511510" lon="4.718457">
        <ele>116.380914</ele>
        <time>2017-06-06T12:00:06.000Z</time>
      </trkpt>
      <trkpt lat="44.511420" lon="4.718373">
        <ele>116.349958</ele>
        <time>2017-06-06T12:00:08.000Z</time>
      </trkpt>
      <trkpt lat="44.511333" lon="4.718295">
        <ele>116.320390</ele>
        <time>2017-06-06T12:00:10.000Z</time>
      </trkpt>
      <trkpt lat="44.511250" lon="4.718216">
        <ele>116.291666</ele>
        <time>2017-06-06T12:00:12.000Z</time>
      </trkpt>
      <trkpt lat="44.511160" lon="4.718134">
        <ele>116.260934</ele>
        <time>2017-06-06T12:00:14.000Z</time>
      </trkpt>
      <trkpt lat="44.511070" lon="4.718049">
        <ele>116.229864</ele>
        <time>2017-06-06T12:00:16.000Z</time>
      </trkpt>
      <trkpt lat="44.510980" lon="4.717963">
        <ele>116.198794</ele>
        <time>2017-06-06T12:00:18.000Z</time>
      </trkpt>
      <trkpt lat="44.510887" lon="4.717879">
        <ele>116.176574</ele>
        <time>2017-06-06T12:00:20.000Z</time>
      </trkpt>
      <trkpt lat="44.510803" lon="4.717794">
        <ele>116.155768</ele>
        <time>2017-06-06T12:00:22.000Z</time>
      </trkpt>
      <trkpt lat="44.510710" lon="4.717711">
        <ele>116.133625</ele>
        <time>2017-06-06T12:00:24.000Z</time>
      </trkpt>
      <trkpt lat="44.510616" lon="4.717622">
        <ele>116.110843</ele>
        <time>2017-06-06T12:00:26.000Z</time>
      </trkpt>
      <trkpt lat="44.510517" lon="4.717535">
        <ele>116.087376</ele>
        <time>2017-06-06T12:00:28.000Z</time>
      </trkpt>
      <trkpt lat="44.510426" lon="4.717438">
        <ele>116.064416</ele>
        <time>2017-06-06T12:00:30.000Z</time>
      </trkpt>
      <trkpt lat="44.510326" lon="4.717337">
        <ele>116.039662</ele>
        <time>2017-06-06T12:00:32.000Z</time>
      </trkpt>
      <trkpt lat="44.510235" lon="4.717243">
        <ele>116.016959</ele>
        <time>2017-06-06T12:00:34.000Z</time>
      </trkpt>
      <trkpt lat="44.510140" lon="4.717156">
        <ele>115.994169</ele>
        <time>2017-06-06T12:00:36.000Z</time>
      </trkpt>
      <trkpt lat="44.510056" lon="4.717055">
        <ele>115.971943</ele>
        <time>2017-06-06T12:00:38.000Z</time>
      </trkpt>
      <trkpt lat="44.509980" lon="4.716925">
        <ele>115.947864</ele>
        <time>2017-06-06T12:00:40.000Z</time>
      </trkpt>
      <trkpt lat="44.509900" lon="4.716813">
        <ele>115.925157</ele>
        <time>2017-06-06T12:00:42.000Z</time>
      </trkpt>
      <trkpt lat="44.509810" lon="4.716699">
        <ele>115.900796</ele>
        <time>2017-06-06T12:00:44.000Z</time>
      </trkpt>
      <trkpt lat="44.509740" lon="4.716575">
        <ele>115.878143</ele>
        <time>2017-06-06T12:00:46.000Z</time>
      </trkpt>
      <trkpt lat="44.509647" lon="4.716461">
        <ele>115.853331</ele>
        <time>2017-06-06T12:00:48.000Z</time>
      </trkpt>
      <trkpt lat="44.509567" lon="4.716358">
        <ele>115.840106</ele>
        <time>2017-06-06T12:00:50.000Z</time>
      </trkpt>
      <trkpt lat="44.509495" lon="4.716250">
        <ele>115.847945</ele>
        <time>2017-06-06T12:00:52.000Z</time>
      </trkpt>
      <trkpt lat="44.509415" lon="4.716152">
        <ele>115.855844</ele>
        <time>2017-06-06T12:00:54.000Z</time>
      </trkpt>
      <trkpt lat="44.509327" lon="4.716058">
        <ele>115.864070</ele>
        <time>2017-06-06T12:00:56.000Z</time>
      </trkpt>
      <trkpt lat="44.509230" lon="4.715973">
        <ele>115.872575</ele>
        <time>2017-06-06T12:00:58.000Z</time>
      </trkpt>
      <trkpt lat="44.509132" lon="4.715885">
        <ele>115.881228</ele>
        <time>2017-06-06T12:01:00.000Z</time>
      </trkpt>
      <trkpt lat="44.509026" lon="4.715798">
        <ele>115.890361</ele>
        <time>2017-06-06T12:01:02.000Z</time>
      </trkpt>
      <trkpt lat="44.508926" lon="4.715720">
        <ele>115.898869</ele>
        <time>2017-06-06T12:01:04.000Z</time>
      </trkpt>
      <trkpt lat="44.508820" lon="4.715642">
        <ele>115.907770</ele>
        <time>2017-06-06T12:01:06.000Z</time>
      </trkpt>
      <trkpt lat="44.508713" lon="4.715567">
        <ele>115.916665</ele>
        <time>2017-06-06T12:01:08.000Z</time>
      </trkpt>
      <trkpt lat="44.508602" lon="4.715497">
        <ele>115.925715</ele>
        <time>2017-06-06T12:01:10.000Z</time>
      </trkpt>
      <trkpt lat="44.508495" lon="4.715430">
        <ele>115.934428</ele>
        <time>2017-06-06T12:01:12.000Z</time>
      </trkpt>
      <trkpt lat="44.508392" lon="4.715372">
        <ele>115.942682</ele>
        <time>2017-06-06T12:01:14.000Z</time>
      </trkpt>
      <trkpt lat="44.508280" lon="4.715311">
        <ele>115.951616</ele>
        <time>2017-06-06T12:01:16.000Z</time>
      </trkpt>
      <trkpt lat="44.508167" lon="4.715254">
        <ele>115.960545</ele>
        <time>2017-06-06T12:01:18.000Z</time>
      </trkpt>
      <trkpt lat="44.508057" lon="4.715196">
        <ele>115.969284</ele>
        <time>2017-06-06T12:01:20.000Z</time>
      </trkpt>
      <trkpt lat="44.507946" lon="4.715128">
        <ele>115.923729</ele>
        <time>2017-06-06T12:01:22.000Z</time>
      </trkpt>
      <trkpt lat="44.507824" lon="4.715059">
        <ele>115.854605</ele>
        <time>2017-06-06T12:01:24.000Z</time>
      </trkpt>
      <trkpt lat="44.507713" lon="4.714998">
        <ele>115.791960</ele>
        <time>2017-06-06T12:01:26.000Z</time>
      </trkpt>
      <trkpt lat="44.507607" lon="4.714943">
        <ele>115.732571</ele>
        <time>2017-06-06T12:01:28.000Z</time>
      </trkpt>
      <trkpt lat="44.507504" lon="4.714878">
        <ele>115.673221</ele>
        <time>2017-06-06T12:01:30.000Z</time>
      </trkpt>
      <trkpt lat="44.507397" lon="4.714840">
        <ele>115.615222</ele>
        <time>2017-06-06T12:01:32.000Z</time>
      </trkpt>
      <trkpt lat="44.507282" lon="4.714806">
        <ele>115.553466</ele>
        <time>2017-06-06T12:01:34.000Z</time>
      </trkpt>
      <trkpt lat="44.507175" lon="4.714736">
        <ele>115.491424</ele>
        <time>2017-06-06T12:01:36.000Z</time>
      </trkpt>
      <trkpt lat="44.507080" lon="4.714626">
        <ele>115.426687</ele>
        <time>2017-06-06T12:01:38.000Z</time>
      </trkpt>
      <trkpt lat="44.507020" lon="4.714479">
        <ele>115.363217</ele>
        <time>2017-06-06T12:01:40.000Z</time>
      </trkpt>
      <trkpt lat="44.506960" lon="4.714335">
        <ele>115.300720</ele>
        <time>2017-06-06T12:01:42.000Z</time>
      </trkpt>
      <trkpt lat="44.506910" lon="4.714186">
        <ele>115.239012</ele>
        <time>2017-06-06T12:01:44.000Z</time>
      </trkpt>
      <trkpt lat="44.506863" lon="4.714043">
        <ele>115.180007</ele>
        <time>2017-06-06T12:01:46.000Z</time>
      </trkpt>
      <trkpt lat="44.506805" lon="4.713906">
        <ele>115.120304</ele>
        <time>2017-06-06T12:01:48.000Z</time>
      </trkpt>
      <trkpt lat="44.506760" lon="4.713775">
        <ele>115.065816</ele>
        <time>2017-06-06T12:01:50.000Z</time>
      </trkpt>
      <trkpt lat="44.506718" lon="4.713654">
        <ele>115.036187</ele>
        <time>2017-06-06T12:01:52.000Z</time>
      </trkpt>
      <trkpt lat="44.506660" lon="4.713493">
        <ele>115.096008</ele>
        <time>2017-06-06T12:01:55.000Z</time>
      </trkpt>
      <trkpt lat="44.506607" lon="4.713355">
        <ele>115.147991</ele>
        <time>2017-06-06T12:01:58.000Z</time>
      </trkpt>
      <trkpt lat="44.506565" lon="4.713224">
        <ele>115.195625</ele>
        <time>2017-06-06T12:02:01.000Z</time>
      </trkpt>
      <trkpt lat="44.506527" lon="4.713110">
        <ele>115.237359</ele>
        <time>2017-06-06T12:02:04.000Z</time>
      </trkpt>
      <trkpt lat="44.506485" lon="4.712981">
        <ele>115.284389</ele>
        <time>2017-06-06T12:02:08.000Z</time>
      </trkpt>
      <trkpt lat="44.506424" lon="4.712877">
        <ele>115.329048</ele>
        <time>2017-06-06T12:02:15.000Z</time>
      </trkpt>
      <trkpt lat="44.506386" lon="4.712711">
        <ele>115.386868</ele>
        <time>2017-06-06T12:08:26.000Z</time>
      </trkpt>
      <trkpt lat="44.506344" lon="4.712579">
        <ele>115.434806</ele>
        <time>2017-06-06T12:08:31.000Z</time>
      </trkpt>
      <trkpt lat="44.506306" lon="4.712462">
        <ele>115.477443</ele>
        <time>2017-06-06T12:08:35.000Z</time>
      </trkpt>
      <trkpt lat="44.506264" lon="4.712338">
        <ele>115.522970</ele>
        <time>2017-06-06T12:08:39.000Z</time>
      </trkpt>
      <trkpt lat="44.506214" lon="4.712198">
        <ele>115.574898</ele>
        <time>2017-06-06T12:08:44.000Z</time>
      </trkpt>
      <trkpt lat="44.506165" lon="4.712078">
        <ele>115.620758</ele>
        <time>2017-06-06T12:08:47.000Z</time>
      </trkpt>
      <trkpt lat="44.506120" lon="4.711946">
        <ele>115.669281</ele>
        <time>2017-06-06T12:08:50.000Z</time>
      </trkpt>
      <trkpt lat="44.506050" lon="4.711801">
        <ele>115.727352</ele>
        <time>2017-06-06T12:08:53.000Z</time>
      </trkpt>
      <trkpt lat="44.506004" lon="4.711667">
        <ele>115.776674</ele>
        <time>2017-06-06T12:08:56.000Z</time>
      </trkpt>
      <trkpt lat="44.505940" lon="4.711522">
        <ele>115.833229</ele>
        <time>2017-06-06T12:08:59.000Z</time>
      </trkpt>
      <trkpt lat="44.505880" lon="4.711381">
        <ele>115.907825</ele>
        <time>2017-06-06T12:09:02.000Z</time>
      </trkpt>
      <trkpt lat="44.505820" lon="4.711226">
        <ele>116.013764</ele>
        <time>2017-06-06T12:09:05.000Z</time>
      </trkpt>
      <trkpt lat="44.505768" lon="4.711066">
        <ele>116.119385</ele>
        <time>2017-06-06T12:09:08.000Z</time>
      </trkpt>
      <trkpt lat="44.505707" lon="4.710908">
        <ele>116.227310</ele>
        <time>2017-06-06T12:09:11.000Z</time>
      </trkpt>
      <trkpt lat="44.505640" lon="4.710747">
        <ele>116.339283</ele>
        <time>2017-06-06T12:09:14.000Z</time>
      </trkpt>
      <trkpt lat="44.505596" lon="4.710625">
        <ele>116.421406</ele>
        <time>2017-06-06T12:09:16.000Z</time>
      </trkpt>
      <trkpt lat="44.505547" lon="4.710497">
        <ele>116.508673</ele>
        <time>2017-06-06T12:09:18.000Z</time>
      </trkpt>
      <trkpt lat="44.505486" lon="4.710382">
        <ele>116.594765</ele>
        <time>2017-06-06T12:09:20.000Z</time>
      </trkpt>
      <trkpt lat="44.505440" lon="4.710272">
        <ele>116.671364</ele>
        <time>2017-06-06T12:09:22.000Z</time>
      </trkpt>
      <trkpt lat="44.505380" lon="4.710105">
        <ele>116.783692</ele>
        <time>2017-06-06T12:09:25.000Z</time>
      </trkpt>
      <trkpt lat="44.505314" lon="4.709936">
        <ele>116.899435</ele>
        <time>2017-06-06T12:09:28.000Z</time>
      </trkpt>
      <trkpt lat="44.505264" lon="4.709824">
        <ele>116.978808</ele>
        <time>2017-06-06T12:09:30.000Z</time>
      </trkpt>
      <trkpt lat="44.505210" lon="4.709714">
        <ele>117.059026</ele>
        <time>2017-06-06T12:09:32.000Z</time>
      </trkpt>
      <trkpt lat="44.505142" lon="4.709552">
        <ele>117.171944</ele>
        <time>2017-06-06T12:09:35.000Z</time>
      </trkpt>
      <trkpt lat="44.505074" lon="4.709464">
        <ele>117.249885</ele>
        <time>2017-06-06T12:09:37.000Z</time>
      </trkpt>
      <trkpt lat="44.505005" lon="4.709365">
        <ele>117.333038</ele>
        <time>2017-06-06T12:09:39.000Z</time>
      </trkpt>
      <trkpt lat="44.504950" lon="4.709245">
        <ele>117.378956</ele>
        <time>2017-06-06T12:09:41.000Z</time>
      </trkpt>
      <trkpt lat="44.504898" lon="4.709125">
        <ele>117.381296</ele>
        <time>2017-06-06T12:09:43.000Z</time>
      </trkpt>
      <trkpt lat="44.504850" lon="4.708997">
        <ele>117.383706</ele>
        <time>2017-06-06T12:09:45.000Z</time>
      </trkpt>
      <trkpt lat="44.504790" lon="4.708869">
        <ele>117.386259</ele>
        <time>2017-06-06T12:09:47.000Z</time>
      </trkpt>
      <trkpt lat="44.504738" lon="4.708738">
        <ele>117.388758</ele>
        <time>2017-06-06T12:09:49.000Z</time>
      </trkpt>
      <trkpt lat="44.504690" lon="4.708607">
        <ele>117.391212</ele>
        <time>2017-06-06T12:09:51.000Z</time>
      </trkpt>
      <trkpt lat="44.504642" lon="4.708478">
        <ele>117.393637</ele>
        <time>2017-06-06T12:09:53.000Z</time>
      </trkpt>
      <trkpt lat="44.504593" lon="4.708360">
        <ele>117.395913</ele>
        <time>2017-06-06T12:09:55.000Z</time>
      </trkpt>
      <trkpt lat="44.504543" lon="4.708242">
        <ele>117.398201</ele>
        <time>2017-06-06T12:09:57.000Z</time>
      </trkpt>
      <trkpt lat="44.504490" lon="4.708112">
        <ele>117.400696</ele>
        <time>2017-06-06T12:09:59.000Z</time>
      </trkpt>
      <trkpt lat="44.504417" lon="4.708000">
        <ele>117.403225</ele>
        <time>2017-06-06T12:10:01.000Z</time>
      </trkpt>
      <trkpt lat="44.504337" lon="4.707879">
        <ele>117.405975</ele>
        <time>2017-06-06T12:10:03.000Z</time>
      </trkpt>
      <trkpt lat="44.504276" lon="4.707756">
        <ele>117.408472</ele>
        <time>2017-06-06T12:10:05.000Z</time>
      </trkpt>
      <trkpt lat="44.504220" lon="4.707630">
        <ele>117.410946</ele>
        <time>2017-06-06T12:10:07.000Z</time>
      </trkpt>
      <trkpt lat="44.504158" lon="4.707505">
        <ele>117.413484</ele>
        <time>2017-06-06T12:10:09.000Z</time>
      </trkpt>
      <trkpt lat="44.504090" lon="4.707400">
        <ele>117.415848</ele>
        <time>2017-06-06T12:10:11.000Z</time>
      </trkpt>
      <trkpt lat="44.503998" lon="4.707333">
        <ele>117.418270</ele>
        <time>2017-06-06T12:10:13.000Z</time>
      </trkpt>
      <trkpt lat="44.503914" lon="4.707264">
        <ele>117.440241</ele>
        <time>2017-06-06T12:10:15.000Z</time>
      </trkpt>
      <trkpt lat="44.503834" lon="4.707197">
        <ele>117.504376</ele>
        <time>2017-06-06T12:10:17.000Z</time>
      </trkpt>
      <trkpt lat="44.503735" lon="4.707134">
        <ele>117.579203</ele>
        <time>2017-06-06T12:10:19.000Z</time>
      </trkpt>
      <trkpt lat="44.503640" lon="4.707121">
        <ele>117.644899</ele>
        <time>2017-06-06T12:10:21.000Z</time>
      </trkpt>
      <trkpt lat="44.503563" lon="4.707202">
        <ele>117.711152</ele>
        <time>2017-06-06T12:10:23.000Z</time>
      </trkpt>
      <trkpt lat="44.503464" lon="4.707335">
        <ele>117.805518</ele>
        <time>2017-06-06T12:10:26.000Z</time>
      </trkpt>
      <trkpt lat="44.503407" lon="4.707441">
        <ele>117.870683</ele>
        <time>2017-06-06T12:10:28.000Z</time>
      </trkpt>
      <trkpt lat="44.503353" lon="4.707550">
        <ele>117.935830</ele>
        <time>2017-06-06T12:10:30.000Z</time>
      </trkpt>
      <trkpt lat="44.503300" lon="4.707662">
        <ele>118.001809</ele>
        <time>2017-06-06T12:10:32.000Z</time>
      </trkpt>
      <trkpt lat="44.503246" lon="4.707766">
        <ele>118.064955</ele>
        <time>2017-06-06T12:10:34.000Z</time>
      </trkpt>
      <trkpt lat="44.503162" lon="4.707887">
        <ele>118.147843</ele>
        <time>2017-06-06T12:10:37.000Z</time>
      </trkpt>
      <trkpt lat="44.503086" lon="4.707968">
        <ele>118.213547</ele>
        <time>2017-06-06T12:10:40.000Z</time>
      </trkpt>
      <trkpt lat="44.503002" lon="4.707898">
        <ele>118.280801</ele>
        <time>2017-06-06T12:10:44.000Z</time>
      </trkpt>
      <trkpt lat="44.502934" lon="4.707770">
        <ele>118.359148</ele>
        <time>2017-06-06T12:10:48.000Z</time>
      </trkpt>
      <trkpt lat="44.502827" lon="4.707796">
        <ele>118.433890</ele>
        <time>2017-06-06T12:10:53.000Z</time>
      </trkpt>
      <trkpt lat="44.502728" lon="4.707871">
        <ele>118.511338</ele>
        <time>2017-06-06T12:10:56.000Z</time>
      </trkpt>
      <trkpt lat="44.502632" lon="4.707948">
        <ele>118.587458</ele>
        <time>2017-06-06T12:10:59.000Z</time>
      </trkpt>
      <trkpt lat="44.502520" lon="4.707936">
        <ele>118.660721</ele>
        <time>2017-06-06T12:11:02.000Z</time>
      </trkpt>
      <trkpt lat="44.502422" lon="4.707855">
        <ele>118.693625</ele>
        <time>2017-06-06T12:11:05.000Z</time>
      </trkpt>
      <trkpt lat="44.502342" lon="4.707789">
        <ele>118.720472</ele>
        <time>2017-06-06T12:11:07.000Z</time>
      </trkpt>
      <trkpt lat="44.502270" lon="4.707711">
        <ele>118.746789</ele>
        <time>2017-06-06T12:11:09.000Z</time>
      </trkpt>
      <trkpt lat="44.502197" lon="4.707629">
        <ele>118.773843</ele>
        <time>2017-06-06T12:11:11.000Z</time>
      </trkpt>
      <trkpt lat="44.502130" lon="4.707537">
        <ele>118.800968</ele>
        <time>2017-06-06T12:11:13.000Z</time>
      </trkpt>
      <trkpt lat="44.502106" lon="4.707353">
        <ele>118.839554</ele>
        <time>2017-06-06T12:11:16.000Z</time>
      </trkpt>
      <trkpt lat="44.502098" lon="4.707173">
        <ele>118.876759</ele>
        <time>2017-06-06T12:11:19.000Z</time>
      </trkpt>
      <trkpt lat="44.502068" lon="4.706992">
        <ele>118.915092</ele>
        <time>2017-06-06T12:11:22.000Z</time>
      </trkpt>
      <trkpt lat="44.502003" lon="4.706879">
        <ele>118.945039</ele>
        <time>2017-06-06T12:11:24.000Z</time>
      </trkpt>
      <trkpt lat="44.501938" lon="4.706750">
        <ele>118.977622</ele>
        <time>2017-06-06T12:11:26.000Z</time>
      </trkpt>
      <trkpt lat="44.501890" lon="4.706626">
        <ele>119.006726</ele>
        <time>2017-06-06T12:11:28.000Z</time>
      </trkpt>
      <trkpt lat="44.501840" lon="4.706494">
        <ele>119.037559</ele>
        <time>2017-06-06T12:11:30.000Z</time>
      </trkpt>
      <trkpt lat="44.501790" lon="4.706369">
        <ele>119.067123</ele>
        <time>2017-06-06T12:11:32.000Z</time>
      </trkpt>
      <trkpt lat="44.501743" lon="4.706245">
        <ele>119.096091</ele>
        <time>2017-06-06T12:11:34.000Z</time>
      </trkpt>
      <trkpt lat="44.501686" lon="4.706124">
        <ele>119.126005</ele>
        <time>2017-06-06T12:11:36.000Z</time>
      </trkpt>
      <trkpt lat="44.501614" lon="4.706026">
        <ele>119.155029</ele>
        <time>2017-06-06T12:11:38.000Z</time>
      </trkpt>
      <trkpt lat="44.501534" lon="4.705928">
        <ele>119.203597</ele>
        <time>2017-06-06T12:11:40.000Z</time>
      </trkpt>
      <trkpt lat="44.501453" lon="4.705832">
        <ele>119.305009</ele>
        <time>2017-06-06T12:11:42.000Z</time>
      </trkpt>
      <trkpt lat="44.501377" lon="4.705735">
        <ele>119.403276</ele>
        <time>2017-06-06T12:11:44.000Z</time>
      </trkpt>
      <trkpt lat="44.501324" lon="4.705605">
        <ele>119.505392</ele>
        <time>2017-06-06T12:11:46.000Z</time>
      </trkpt>
      <trkpt lat="44.501280" lon="4.705472">
        <ele>119.605375</ele>
        <time>2017-06-06T12:11:48.000Z</time>
      </trkpt>
      <trkpt lat="44.501230" lon="4.705345">
        <ele>119.704303</ele>
        <time>2017-06-06T12:11:50.000Z</time>
      </trkpt>
      <trkpt lat="44.501180" lon="4.705224">
        <ele>119.799669</ele>
        <time>2017-06-06T12:11:52.000Z</time>
      </trkpt>
      <trkpt lat="44.501137" lon="4.705110">
        <ele>119.887615</ele>
        <time>2017-06-06T12:11:54.000Z</time>
      </trkpt>
      <trkpt lat="44.501087" lon="4.704966">
        <ele>119.996837</ele>
        <time>2017-06-06T12:11:57.000Z</time>
      </trkpt>
      <trkpt lat="44.501022" lon="4.704825">
        <ele>120.111330</ele>
        <time>2017-06-06T12:12:01.000Z</time>
      </trkpt>
      <trkpt lat="44.500920" lon="4.704845">
        <ele>120.209807</ele>
        <time>2017-06-06T12:12:06.000Z</time>
      </trkpt>
      <trkpt lat="44.500860" lon="4.704950">
        <ele>120.301561</ele>
        <time>2017-06-06T12:12:09.000Z</time>
      </trkpt>
      <trkpt lat="44.500780" lon="4.705057">
        <ele>120.407276</ele>
        <time>2017-06-06T12:12:12.000Z</time>
      </trkpt>
      <trkpt lat="44.500710" lon="4.705142">
        <ele>120.495819</ele>
        <time>2017-06-06T12:12:14.000Z</time>
      </trkpt>
      <trkpt lat="44.500637" lon="4.705230">
        <ele>120.587871</ele>
        <time>2017-06-06T12:12:16.000Z</time>
      </trkpt>
      <trkpt lat="44.500546" lon="4.705351">
        <ele>120.707788</ele>
        <time>2017-06-06T12:12:19.000Z</time>
      </trkpt>
      <trkpt lat="44.500450" lon="4.705477">
        <ele>120.833522</ele>
        <time>2017-06-06T12:12:22.000Z</time>
      </trkpt>
      <trkpt lat="44.500374" lon="4.705554">
        <ele>120.894050</ele>
        <time>2017-06-06T12:12:24.000Z</time>
      </trkpt>
      <trkpt lat="44.500275" lon="4.705671">
        <ele>120.875782</ele>
        <time>2017-06-06T12:12:27.000Z</time>
      </trkpt>
      <trkpt lat="44.500187" lon="4.705789">
        <ele>120.858601</ele>
        <time>2017-06-06T12:12:30.000Z</time>
      </trkpt>
      <trkpt lat="44.500103" lon="4.705912">
        <ele>120.841464</ele>
        <time>2017-06-06T12:12:33.000Z</time>
      </trkpt>
      <trkpt lat="44.500015" lon="4.706016">
        <ele>120.825225</ele>
        <time>2017-06-06T12:12:36.000Z</time>
      </trkpt>
      <trkpt lat="44.499928" lon="4.706099">
        <ele>120.810378</ele>
        <time>2017-06-06T12:12:39.000Z</time>
      </trkpt>
      <trkpt lat="44.499847" lon="4.706212">
        <ele>120.794255</ele>
        <time>2017-06-06T12:12:43.000Z</time>
      </trkpt>
      <trkpt lat="44.499800" lon="4.706348">
        <ele>120.779047</ele>
        <time>2017-06-06T12:12:47.000Z</time>
      </trkpt>
      <trkpt lat="44.499794" lon="4.706499">
        <ele>120.763828</ele>
        <time>2017-06-06T12:12:51.000Z</time>
      </trkpt>
      <trkpt lat="44.499744" lon="4.706609">
        <ele>120.750701</ele>
        <time>2017-06-06T12:12:55.000Z</time>
      </trkpt>
      <trkpt lat="44.499680" lon="4.706699">
        <ele>120.737911</ele>
        <time>2017-06-06T12:12:58.000Z</time>
      </trkpt>
      <trkpt lat="44.499596" lon="4.706818">
        <ele>120.721063</ele>
        <time>2017-06-06T12:13:02.000Z</time>
      </trkpt>
      <trkpt lat="44.499527" lon="4.706919">
        <ele>120.706988</ele>
        <time>2017-06-06T12:13:06.000Z</time>
      </trkpt>
      <trkpt lat="44.499460" lon="4.707031">
        <ele>120.692278</ele>
        <time>2017-06-06T12:13:17.000Z</time>
      </trkpt>
      <trkpt lat="44.499393" lon="4.707137">
        <ele>120.678024</ele>
        <time>2017-06-06T12:13:21.000Z</time>
      </trkpt>
      <trkpt lat="44.499302" lon="4.707269">
        <ele>120.659550</ele>
        <time>2017-06-06T12:13:24.000Z</time>
      </trkpt>
      <trkpt lat="44.499220" lon="4.707391">
        <ele>120.625574</ele>
        <time>2017-06-06T12:13:26.000Z</time>
      </trkpt>
      <trkpt lat="44.499123" lon="4.707501">
        <ele>120.383263</ele>
        <time>2017-06-06T12:13:28.000Z</time>
      </trkpt>
      <trkpt lat="44.499023" lon="4.707640">
        <ele>120.109763</ele>
        <time>2017-06-06T12:13:30.000Z</time>
      </trkpt>
      <trkpt lat="44.498928" lon="4.707791">
        <ele>119.830831</ele>
        <time>2017-06-06T12:13:32.000Z</time>
      </trkpt>
      <trkpt lat="44.498837" lon="4.707929">
        <ele>119.570473</ele>
        <time>2017-06-06T12:13:34.000Z</time>
      </trkpt>
      <trkpt lat="44.498753" lon="4.708062">
        <ele>119.324374</ele>
        <time>2017-06-06T12:13:36.000Z</time>
      </trkpt>
      <trkpt lat="44.498665" lon="4.708182">
        <ele>119.085945</ele>
        <time>2017-06-06T12:13:38.000Z</time>
      </trkpt>
      <trkpt lat="44.498577" lon="4.708294">
        <ele>118.855107</ele>
        <time>2017-06-06T12:13:40.000Z</time>
      </trkpt>
      <trkpt lat="44.498505" lon="4.708416">
        <ele>118.635743</ele>
        <time>2017-06-06T12:13:42.000Z</time>
      </trkpt>
      <trkpt lat="44.498425" lon="4.708532">
        <ele>118.412211</ele>
        <time>2017-06-06T12:13:44.000Z</time>
      </trkpt>
      <trkpt lat="44.498340" lon="4.708639">
        <ele>118.190338</ele>
        <time>2017-06-06T12:13:46.000Z</time>
      </trkpt>
      <trkpt lat="44.498272" lon="4.708762">
        <ele>117.974750</ele>
        <time>2017-06-06T12:13:48.000Z</time>
      </trkpt>
      <trkpt lat="44.498207" lon="4.708856">
        <ele>117.793379</ele>
        <time>2017-06-06T12:13:50.000Z</time>
      </trkpt>
      <trkpt lat="44.498110" lon="4.708974">
        <ele>117.543947</ele>
        <time>2017-06-06T12:13:53.000Z</time>
      </trkpt>
      <trkpt lat="44.498028" lon="4.709085">
        <ele>117.322562</ele>
        <time>2017-06-06T12:13:56.000Z</time>
      </trkpt>
      <trkpt lat="44.497925" lon="4.709122">
        <ele>117.187007</ele>
        <time>2017-06-06T12:13:59.000Z</time>
      </trkpt>
      <trkpt lat="44.497814" lon="4.709054">
        <ele>117.434531</ele>
        <time>2017-06-06T12:14:02.000Z</time>
      </trkpt>
      <trkpt lat="44.497710" lon="4.708993">
        <ele>117.664892</ele>
        <time>2017-06-06T12:14:05.000Z</time>
      </trkpt>
      <trkpt lat="44.497623" lon="4.709045">
        <ele>117.858148</ele>
        <time>2017-06-06T12:14:07.000Z</time>
      </trkpt>
      <trkpt lat="44.497528" lon="4.709168">
        <ele>118.122387</ele>
        <time>2017-06-06T12:14:10.000Z</time>
      </trkpt>
      <trkpt lat="44.497433" lon="4.709301">
        <ele>118.396723</ele>
        <time>2017-06-06T12:14:13.000Z</time>
      </trkpt>
      <trkpt lat="44.497375" lon="4.709399">
        <ele>118.582326</ele>
        <time>2017-06-06T12:14:15.000Z</time>
      </trkpt>
      <trkpt lat="44.497288" lon="4.709523">
        <ele>118.835837</ele>
        <time>2017-06-06T12:14:18.000Z</time>
      </trkpt>
      <trkpt lat="44.497200" lon="4.709635">
        <ele>119.078700</ele>
        <time>2017-06-06T12:14:21.000Z</time>
      </trkpt>
      <trkpt lat="44.497116" lon="4.709735">
        <ele>119.303878</ele>
        <time>2017-06-06T12:14:24.000Z</time>
      </trkpt>
      <trkpt lat="44.497036" lon="4.709838">
        <ele>119.525824</ele>
        <time>2017-06-06T12:14:27.000Z</time>
      </trkpt>
      <trkpt lat="44.496940" lon="4.709954">
        <ele>119.784796</ele>
        <time>2017-06-06T12:14:30.000Z</time>
      </trkpt>
      <trkpt lat="44.496845" lon="4.710095">
        <ele>120.067493</ele>
        <time>2017-06-06T12:14:33.000Z</time>
      </trkpt>
      <trkpt lat="44.496777" lon="4.710192">
        <ele>120.265724</ele>
        <time>2017-06-06T12:14:35.000Z</time>
      </trkpt>
      <trkpt lat="44.496704" lon="4.710290">
        <ele>120.472251</ele>
        <time>2017-06-06T12:14:37.000Z</time>
      </trkpt>
      <trkpt lat="44.496650" lon="4.710393">
        <ele>120.658566</ele>
        <time>2017-06-06T12:14:39.000Z</time>
      </trkpt>
      <trkpt lat="44.496630" lon="4.710518">
        <ele>120.827905</ele>
        <time>2017-06-06T12:14:41.000Z</time>
      </trkpt>
      <trkpt lat="44.496635" lon="4.710701">
        <ele>120.854889</ele>
        <time>2017-06-06T12:14:44.000Z</time>
      </trkpt>
      <trkpt lat="44.496630" lon="4.710877">
        <ele>120.880842</ele>
        <time>2017-06-06T12:14:47.000Z</time>
      </trkpt>
      <trkpt lat="44.496582" lon="4.711007">
        <ele>120.902411</ele>
        <time>2017-06-06T12:14:50.000Z</time>
      </trkpt>
      <trkpt lat="44.496506" lon="4.711088">
        <ele>120.922132</ele>
        <time>2017-06-06T12:14:52.000Z</time>
      </trkpt>
      <trkpt lat="44.496390" lon="4.711127">
        <ele>120.946773</ele>
        <time>2017-06-06T12:14:54.000Z</time>
      </trkpt>
      <trkpt lat="44.496270" lon="4.711143">
        <ele>120.971673</ele>
        <time>2017-06-06T12:14:56.000Z</time>
      </trkpt>
      <trkpt lat="44.496147" lon="4.711130">
        <ele>120.997153</ele>
        <time>2017-06-06T12:14:58.000Z</time>
      </trkpt>
      <trkpt lat="44.496030" lon="4.711093">
        <ele>121.021929</ele>
        <time>2017-06-06T12:15:00.000Z</time>
      </trkpt>
      <trkpt lat="44.495914" lon="4.711065">
        <ele>121.046243</ele>
        <time>2017-06-06T12:15:02.000Z</time>
      </trkpt>
      <trkpt lat="44.495810" lon="4.711052">
        <ele>121.067812</ele>
        <time>2017-06-06T12:15:04.000Z</time>
      </trkpt>
      <trkpt lat="44.495710" lon="4.711062">
        <ele>121.088521</ele>
        <time>2017-06-06T12:15:06.000Z</time>
      </trkpt>
      <trkpt lat="44.495583" lon="4.711068">
        <ele>121.114770</ele>
        <time>2017-06-06T12:15:08.000Z</time>
      </trkpt>
      <trkpt lat="44.495460" lon="4.711108">
        <ele>121.140853</ele>
        <time>2017-06-06T12:15:10.000Z</time>
      </trkpt>
      <trkpt lat="44.495350" lon="4.711155">
        <ele>121.164607</ele>
        <time>2017-06-06T12:15:12.000Z</time>
      </trkpt>
      <trkpt lat="44.495230" lon="4.711183">
        <ele>121.189737</ele>
        <time>2017-06-06T12:15:14.000Z</time>
      </trkpt>
      <trkpt lat="44.495113" lon="4.711195">
        <ele>121.203380</ele>
        <time>2017-06-06T12:15:16.000Z</time>
      </trkpt>
      <trkpt lat="44.494995" lon="4.711198">
        <ele>121.212089</ele>
        <time>2017-06-06T12:15:18.000Z</time>
      </trkpt>
      <trkpt lat="44.494870" lon="4.711202">
        <ele>121.221316</ele>
        <time>2017-06-06T12:15:20.000Z</time>
      </trkpt>
      <trkpt lat="44.494743" lon="4.711214">
        <ele>121.230710</ele>
        <time>2017-06-06T12:15:22.000Z</time>
      </trkpt>
      <trkpt lat="44.494630" lon="4.711237">
        <ele>121.239136</ele>
        <time>2017-06-06T12:15:24.000Z</time>
      </trkpt>
      <trkpt lat="44.494514" lon="4.711266">
        <ele>121.247831</ele>
        <time>2017-06-06T12:15:26.000Z</time>
      </trkpt>
      <trkpt lat="44.494400" lon="4.711326">
        <ele>121.256817</ele>
        <time>2017-06-06T12:15:28.000Z</time>
      </trkpt>
      <trkpt lat="44.494297" lon="4.711413">
        <ele>121.265691</ele>
        <time>2017-06-06T12:15:30.000Z</time>
      </trkpt>
      <trkpt lat="44.494194" lon="4.711505">
        <ele>121.274704</ele>
        <time>2017-06-06T12:15:32.000Z</time>
      </trkpt>
      <trkpt lat="44.494080" lon="4.711571">
        <ele>121.283806</ele>
        <time>2017-06-06T12:15:34.000Z</time>
      </trkpt>
      <trkpt lat="44.493958" lon="4.711591">
        <ele>121.292871</ele>
        <time>2017-06-06T12:15:36.000Z</time>
      </trkpt>
      <trkpt lat="44.493835" lon="4.711593">
        <ele>121.301948</ele>
        <time>2017-06-06T12:15:38.000Z</time>
      </trkpt>
      <trkpt lat="44.493725" lon="4.711584">
        <ele>121.310079</ele>
        <time>2017-06-06T12:15:40.000Z</time>
      </trkpt>
      <trkpt lat="44.493633" lon="4.711562">
        <ele>121.316967</ele>
        <time>2017-06-06T12:15:42.000Z</time>
      </trkpt>
      <trkpt lat="44.493523" lon="4.711665">
        <ele>121.326728</ele>
        <time>2017-06-06T12:15:45.000Z</time>
      </trkpt>
      <trkpt lat="44.493454" lon="4.711771">
        <ele>121.186782</ele>
        <time>2017-06-06T12:15:47.000Z</time>
      </trkpt>
      <trkpt lat="44.493393" lon="4.711899">
        <ele>120.900179</ele>
        <time>2017-06-06T12:15:49.000Z</time>
      </trkpt>
      <trkpt lat="44.493330" lon="4.712035">
        <ele>120.598266</ele>
        <time>2017-06-06T12:15:51.000Z</time>
      </trkpt>
      <trkpt lat="44.493270" lon="4.712163">
        <ele>120.313104</ele>
        <time>2017-06-06T12:15:53.000Z</time>
      </trkpt>
      <trkpt lat="44.493220" lon="4.712292">
        <ele>120.039765</ele>
        <time>2017-06-06T12:15:55.000Z</time>
      </trkpt>
      <trkpt lat="44.493180" lon="4.712413">
        <ele>119.791469</ele>
        <time>2017-06-06T12:15:57.000Z</time>
      </trkpt>
      <trkpt lat="44.493122" lon="4.712556">
        <ele>119.485200</ele>
        <time>2017-06-06T12:16:00.000Z</time>
      </trkpt>
      <trkpt lat="44.493040" lon="4.712616">
        <ele>119.243778</ele>
        <time>2017-06-06T12:16:04.000Z</time>
      </trkpt>
      <trkpt lat="44.492958" lon="4.712521">
        <ele>118.966127</ele>
        <time>2017-06-06T12:16:11.000Z</time>
      </trkpt>
      <trkpt lat="44.492893" lon="4.712394">
        <ele>118.675109</ele>
        <time>2017-06-06T12:16:14.000Z</time>
      </trkpt>
      <trkpt lat="44.492813" lon="4.712321">
        <ele>118.425969</ele>
        <time>2017-06-06T12:16:16.000Z</time>
      </trkpt>
      <trkpt lat="44.492706" lon="4.712209">
        <ele>118.077434</ele>
        <time>2017-06-06T12:16:19.000Z</time>
      </trkpt>
      <trkpt lat="44.492634" lon="4.712133">
        <ele>117.842196</ele>
        <time>2017-06-06T12:16:21.000Z</time>
      </trkpt>
      <trkpt lat="44.492554" lon="4.712074">
        <ele>117.606262</ele>
        <time>2017-06-06T12:16:23.000Z</time>
      </trkpt>
      <trkpt lat="44.492450" lon="4.711985">
        <ele>117.288238</ele>
        <time>2017-06-06T12:16:26.000Z</time>
      </trkpt>
      <trkpt lat="44.492340" lon="4.711896">
        <ele>116.956747</ele>
        <time>2017-06-06T12:16:29.000Z</time>
      </trkpt>
      <trkpt lat="44.492252" lon="4.711832">
        <ele>116.697995</ele>
        <time>2017-06-06T12:16:31.000Z</time>
      </trkpt>
      <trkpt lat="44.492172" lon="4.711766">
        <ele>116.568397</ele>
        <time>2017-06-06T12:16:33.000Z</time>
      </trkpt>
      <trkpt lat="44.492085" lon="4.711689">
        <ele>116.467965</ele>
        <time>2017-06-06T12:16:35.000Z</time>
      </trkpt>
      <trkpt lat="44.492000" lon="4.711609">
        <ele>116.368028</ele>
        <time>2017-06-06T12:16:37.000Z</time>
      </trkpt>
      <trkpt lat="44.491905" lon="4.711539">
        <ele>116.263265</ele>
        <time>2017-06-06T12:16:39.000Z</time>
      </trkpt>
      <trkpt lat="44.491814" lon="4.711470">
        <ele>116.162276</ele>
        <time>2017-06-06T12:16:41.000Z</time>
      </trkpt>
      <trkpt lat="44.491722" lon="4.711398">
        <ele>116.059424</ele>
        <time>2017-06-06T12:16:43.000Z</time>
      </trkpt>
      <trkpt lat="44.491630" lon="4.711328">
        <ele>115.957245</ele>
        <time>2017-06-06T12:16:45.000Z</time>
      </trkpt>
      <trkpt lat="44.491543" lon="4.711247">
        <ele>115.855298</ele>
        <time>2017-06-06T12:16:47.000Z</time>
      </trkpt>
      <trkpt lat="44.491460" lon="4.711176">
        <ele>115.760385</ele>
        <time>2017-06-06T12:16:49.000Z</time>
      </trkpt>
      <trkpt lat="44.491370" lon="4.711107">
        <ele>115.660253</ele>
        <time>2017-06-06T12:16:51.000Z</time>
      </trkpt>
      <trkpt lat="44.491283" lon="4.711029">
        <ele>115.559446</ele>
        <time>2017-06-06T12:16:53.000Z</time>
      </trkpt>
      <trkpt lat="44.491190" lon="4.710960">
        <ele>115.456735</ele>
        <time>2017-06-06T12:16:55.000Z</time>
      </trkpt>
      <trkpt lat="44.491104" lon="4.710886">
        <ele>115.358235</ele>
        <time>2017-06-06T12:16:57.000Z</time>
      </trkpt>
      <trkpt lat="44.491016" lon="4.710813">
        <ele>115.258421</ele>
        <time>2017-06-06T12:16:59.000Z</time>
      </trkpt>
      <trkpt lat="44.490932" lon="4.710733">
        <ele>115.159293</ele>
        <time>2017-06-06T12:17:01.000Z</time>
      </trkpt>
      <trkpt lat="44.490840" lon="4.710651">
        <ele>115.052873</ele>
        <time>2017-06-06T12:17:03.000Z</time>
      </trkpt>
      <trkpt lat="44.490750" lon="4.710574">
        <ele>114.949952</ele>
        <time>2017-06-06T12:17:05.000Z</time>
      </trkpt>
      <trkpt lat="44.490658" lon="4.710493">
        <ele>114.880991</ele>
        <time>2017-06-06T12:17:07.000Z</time>
      </trkpt>
      <trkpt lat="44.490570" lon="4.710421">
        <ele>114.883720</ele>
        <time>2017-06-06T12:17:09.000Z</time>
      </trkpt>
      <trkpt lat="44.490482" lon="4.710352">
        <ele>114.886421</ele>
        <time>2017-06-06T12:17:11.000Z</time>
      </trkpt>
      <trkpt lat="44.490390" lon="4.710275">
        <ele>114.889290</ele>
        <time>2017-06-06T12:17:13.000Z</time>
      </trkpt>
      <trkpt lat="44.490300" lon="4.710197">
        <ele>114.892124</ele>
        <time>2017-06-06T12:17:15.000Z</time>
      </trkpt>
      <trkpt lat="44.490208" lon="4.710122">
        <ele>114.894975</ele>
        <time>2017-06-06T12:17:17.000Z</time>
      </trkpt>
      <trkpt lat="44.490112" lon="4.710048">
        <ele>114.897909</ele>
        <time>2017-06-06T12:17:19.000Z</time>
      </trkpt>
      <trkpt lat="44.490020" lon="4.709975">
        <ele>114.900740</ele>
        <time>2017-06-06T12:17:21.000Z</time>
      </trkpt>
      <trkpt lat="44.489933" lon="4.709895">
        <ele>114.903527</ele>
        <time>2017-06-06T12:17:23.000Z</time>
      </trkpt>
      <trkpt lat="44.489838" lon="4.709819">
        <ele>114.906457</ele>
        <time>2017-06-06T12:17:25.000Z</time>
      </trkpt>
      <trkpt lat="44.489746" lon="4.709742">
        <ele>114.909326</ele>
        <time>2017-06-06T12:17:27.000Z</time>
      </trkpt>
      <trkpt lat="44.489660" lon="4.709667">
        <ele>114.912039</ele>
        <time>2017-06-06T12:17:29.000Z</time>
      </trkpt>
      <trkpt lat="44.489570" lon="4.709589">
        <ele>114.914873</ele>
        <time>2017-06-06T12:17:31.000Z</time>
      </trkpt>
      <trkpt lat="44.489483" lon="4.709512">
        <ele>114.917629</ele>
        <time>2017-06-06T12:17:33.000Z</time>
      </trkpt>
      <trkpt lat="44.489388" lon="4.709437">
        <ele>114.920549</ele>
        <time>2017-06-06T12:17:35.000Z</time>
      </trkpt>
      <trkpt lat="44.489296" lon="4.709353">
        <ele>114.923489</ele>
        <time>2017-06-06T12:17:37.000Z</time>
      </trkpt>
      <trkpt lat="44.489200" lon="4.709272">
        <ele>114.926490</ele>
        <time>2017-06-06T12:17:39.000Z</time>
      </trkpt>
      <trkpt lat="44.489110" lon="4.709189">
        <ele>114.910995</ele>
        <time>2017-06-06T12:17:41.000Z</time>
      </trkpt>
      <trkpt lat="44.489020" lon="4.709107">
        <ele>114.869923</ele>
        <time>2017-06-06T12:17:43.000Z</time>
      </trkpt>
      <trkpt lat="44.488926" lon="4.709024">
        <ele>114.827414</ele>
        <time>2017-06-06T12:17:45.000Z</time>
      </trkpt>
      <trkpt lat="44.488842" lon="4.708934">
        <ele>114.786959</ele>
        <time>2017-06-06T12:17:47.000Z</time>
      </trkpt>
      <trkpt lat="44.488750" lon="4.708844">
        <ele>114.744031</ele>
        <time>2017-06-06T12:17:49.000Z</time>
      </trkpt>
      <trkpt lat="44.488660" lon="4.708745">
        <ele>114.700256</ele>
        <time>2017-06-06T12:17:51.000Z</time>
      </trkpt>
      <trkpt lat="44.488580" lon="4.708644">
        <ele>114.659060</ele>
        <time>2017-06-06T12:17:53.000Z</time>
      </trkpt>
      <trkpt lat="44.488500" lon="4.708533">
        <ele>114.615989</ele>
        <time>2017-06-06T12:17:55.000Z</time>
      </trkpt>
      <trkpt lat="44.488422" lon="4.708424">
        <ele>114.573846</ele>
        <time>2017-06-06T12:17:57.000Z</time>
      </trkpt>
      <trkpt lat="44.488340" lon="4.708315">
        <ele>114.530605</ele>
        <time>2017-06-06T12:17:59.000Z</time>
      </trkpt>
      <trkpt lat="44.488250" lon="4.708210">
        <ele>114.485801</ele>
        <time>2017-06-06T12:18:01.000Z</time>
      </trkpt>
      <trkpt lat="44.488170" lon="4.708102">
        <ele>114.443302</ele>
        <time>2017-06-06T12:18:03.000Z</time>
      </trkpt>
      <trkpt lat="44.488087" lon="4.707989">
        <ele>114.399029</ele>
        <time>2017-06-06T12:18:05.000Z</time>
      </trkpt>
      <trkpt lat="44.488000" lon="4.707881">
        <ele>114.354562</ele>
        <time>2017-06-06T12:18:07.000Z</time>
      </trkpt>
      <trkpt lat="44.487920" lon="4.707775">
        <ele>114.312440</ele>
        <time>2017-06-06T12:18:09.000Z</time>
      </trkpt>
      <trkpt lat="44.487846" lon="4.707668">
        <ele>114.271760</ele>
        <time>2017-06-06T12:18:11.000Z</time>
      </trkpt>
      <trkpt lat="44.487766" lon="4.707555">
        <ele>114.233534</ele>
        <time>2017-06-06T12:18:13.000Z</time>
      </trkpt>
      <trkpt lat="44.487686" lon="4.707438">
        <ele>114.209175</ele>
        <time>2017-06-06T12:18:15.000Z</time>
      </trkpt>
      <trkpt lat="44.487610" lon="4.707322">
        <ele>114.185502</ele>
        <time>2017-06-06T12:18:17.000Z</time>
      </trkpt>
      <trkpt lat="44.487537" lon="4.707208">
        <ele>114.162476</ele>
        <time>2017-06-06T12:18:19.000Z</time>
      </trkpt>
      <trkpt lat="44.487460" lon="4.707089">
        <ele>114.138328</ele>
        <time>2017-06-06T12:18:21.000Z</time>
      </trkpt>
      <trkpt lat="44.487385" lon="4.706967">
        <ele>114.114121</ele>
        <time>2017-06-06T12:18:23.000Z</time>
      </trkpt>
      <trkpt lat="44.487305" lon="4.706859">
        <ele>114.090719</ele>
        <time>2017-06-06T12:18:25.000Z</time>
      </trkpt>
      <trkpt lat="44.487225" lon="4.706748">
        <ele>114.067003</ele>
        <time>2017-06-06T12:18:27.000Z</time>
      </trkpt>
      <trkpt lat="44.487150" lon="4.706634">
        <ele>114.043693</ele>
        <time>2017-06-06T12:18:29.000Z</time>
      </trkpt>
      <trkpt lat="44.487064" lon="4.706523">
        <ele>114.019062</ele>
        <time>2017-06-06T12:18:31.000Z</time>
      </trkpt>
      <trkpt lat="44.486984" lon="4.706415">
        <ele>113.995660</ele>
        <time>2017-06-06T12:18:33.000Z</time>
      </trkpt>
      <trkpt lat="44.486904" lon="4.706309">
        <ele>113.972466</ele>
        <time>2017-06-06T12:18:35.000Z</time>
      </trkpt>
      <trkpt lat="44.486830" lon="4.706198">
        <ele>113.949631</ele>
        <time>2017-06-06T12:18:37.000Z</time>
      </trkpt>
      <trkpt lat="44.486750" lon="4.706091">
        <ele>113.926333</ele>
        <time>2017-06-06T12:18:39.000Z</time>
      </trkpt>
      <trkpt lat="44.486680" lon="4.705991">
        <ele>113.905275</ele>
        <time>2017-06-06T12:18:41.000Z</time>
      </trkpt>
      <trkpt lat="44.486610" lon="4.705889">
        <ele>113.884001</ele>
        <time>2017-06-06T12:18:43.000Z</time>
      </trkpt>
      <trkpt lat="44.486534" lon="4.705791">
        <ele>113.862243</ele>
        <time>2017-06-06T12:18:45.000Z</time>
      </trkpt>
      <trkpt lat="44.486450" lon="4.705680">
        <ele>113.824868</ele>
        <time>2017-06-06T12:18:47.000Z</time>
      </trkpt>
      <trkpt lat="44.486366" lon="4.705573">
        <ele>113.787419</ele>
        <time>2017-06-06T12:18:49.000Z</time>
      </trkpt>
      <trkpt lat="44.486286" lon="4.705462">
        <ele>113.750279</ele>
        <time>2017-06-06T12:18:51.000Z</time>
      </trkpt>
      <trkpt lat="44.486214" lon="4.705356">
        <ele>113.715828</ele>
        <time>2017-06-06T12:18:53.000Z</time>
      </trkpt>
      <trkpt lat="44.486140" lon="4.705232">
        <ele>113.677776</ele>
        <time>2017-06-06T12:18:55.000Z</time>
      </trkpt>
      <trkpt lat="44.486065" lon="4.705122">
        <ele>113.641960</ele>
        <time>2017-06-06T12:18:57.000Z</time>
      </trkpt>
      <trkpt lat="44.485977" lon="4.705026">
        <ele>113.605169</ele>
        <time>2017-06-06T12:18:59.000Z</time>
      </trkpt>
      <trkpt lat="44.485905" lon="4.704922">
        <ele>113.571057</ele>
        <time>2017-06-06T12:19:01.000Z</time>
      </trkpt>
      <trkpt lat="44.485836" lon="4.704817">
        <ele>113.537455</ele>
        <time>2017-06-06T12:19:03.000Z</time>
      </trkpt>
      <trkpt lat="44.485775" lon="4.704704">
        <ele>113.504100</ele>
        <time>2017-06-06T12:19:05.000Z</time>
      </trkpt>
      <trkpt lat="44.485703" lon="4.704593">
        <ele>113.468787</ele>
        <time>2017-06-06T12:19:07.000Z</time>
      </trkpt>
      <trkpt lat="44.485626" lon="4.704481">
        <ele>113.432175</ele>
        <time>2017-06-06T12:19:09.000Z</time>
      </trkpt>
      <trkpt lat="44.485558" lon="4.704360">
        <ele>113.395918</ele>
        <time>2017-06-06T12:19:11.000Z</time>
      </trkpt>
      <trkpt lat="44.485490" lon="4.704258">
        <ele>113.363058</ele>
        <time>2017-06-06T12:19:13.000Z</time>
      </trkpt>
      <trkpt lat="44.485420" lon="4.704162">
        <ele>113.330746</ele>
        <time>2017-06-06T12:19:15.000Z</time>
      </trkpt>
      <trkpt lat="44.485355" lon="4.704069">
        <ele>113.300101</ele>
        <time>2017-06-06T12:19:17.000Z</time>
      </trkpt>
      <trkpt lat="44.485287" lon="4.703967">
        <ele>113.267135</ele>
        <time>2017-06-06T12:19:19.000Z</time>
      </trkpt>
      <trkpt lat="44.485214" lon="4.703858">
        <ele>113.219712</ele>
        <time>2017-06-06T12:19:21.000Z</time>
      </trkpt>
      <trkpt lat="44.485138" lon="4.703751">
        <ele>113.171817</ele>
        <time>2017-06-06T12:19:23.000Z</time>
      </trkpt>
      <trkpt lat="44.485060" lon="4.703645">
        <ele>113.123513</ele>
        <time>2017-06-06T12:19:25.000Z</time>
      </trkpt>
      <trkpt lat="44.484980" lon="4.703541">
        <ele>113.074999</ele>
        <time>2017-06-06T12:19:27.000Z</time>
      </trkpt>
      <trkpt lat="44.484917" lon="4.703446">
        <ele>113.033856</ele>
        <time>2017-06-06T12:19:29.000Z</time>
      </trkpt>
      <trkpt lat="44.484844" lon="4.703367">
        <ele>112.992851</ele>
        <time>2017-06-06T12:19:31.000Z</time>
      </trkpt>
      <trkpt lat="44.484760" lon="4.703280">
        <ele>112.946412</ele>
        <time>2017-06-06T12:19:33.000Z</time>
      </trkpt>
      <trkpt lat="44.484676" lon="4.703186">
        <ele>112.898621</ele>
        <time>2017-06-06T12:19:35.000Z</time>
      </trkpt>
      <trkpt lat="44.484592" lon="4.703078">
        <ele>112.847940</ele>
        <time>2017-06-06T12:19:37.000Z</time>
      </trkpt>
      <trkpt lat="44.484512" lon="4.702978">
        <ele>112.800280</ele>
        <time>2017-06-06T12:19:39.000Z</time>
      </trkpt>
      <trkpt lat="44.484420" lon="4.702884">
        <ele>112.749661</ele>
        <time>2017-06-06T12:19:41.000Z</time>
      </trkpt>
      <trkpt lat="44.484330" lon="4.702797">
        <ele>112.701051</ele>
        <time>2017-06-06T12:19:43.000Z</time>
      </trkpt>
      <trkpt lat="44.484250" lon="4.702714">
        <ele>112.656797</ele>
        <time>2017-06-06T12:19:45.000Z</time>
      </trkpt>
      <trkpt lat="44.484177" lon="4.702621">
        <ele>112.612936</ele>
        <time>2017-06-06T12:19:47.000Z</time>
      </trkpt>
      <trkpt lat="44.484104" lon="4.702514">
        <ele>112.565973</ele>
        <time>2017-06-06T12:19:49.000Z</time>
      </trkpt>
      <trkpt lat="44.484040" lon="4.702411">
        <ele>112.522645</ele>
        <time>2017-06-06T12:19:51.000Z</time>
      </trkpt>
      <trkpt lat="44.483963" lon="4.702309">
        <ele>112.475539</ele>
        <time>2017-06-06T12:19:53.000Z</time>
      </trkpt>
      <trkpt lat="44.483887" lon="4.702204">
        <ele>112.571687</ele>
        <time>2017-06-06T12:19:55.000Z</time>
      </trkpt>
      <trkpt lat="44.483818" lon="4.702114">
        <ele>112.681237</ele>
        <time>2017-06-06T12:19:57.000Z</time>
      </trkpt>
      <trkpt lat="44.483750" lon="4.702005">
        <ele>112.801304</ele>
        <time>2017-06-06T12:19:59.000Z</time>
      </trkpt>
      <trkpt lat="44.483677" lon="4.701904">
        <ele>112.920524</ele>
        <time>2017-06-06T12:20:01.000Z</time>
      </trkpt>
      <trkpt lat="44.483612" lon="4.701807">
        <ele>113.030875</ele>
        <time>2017-06-06T12:20:03.000Z</time>
      </trkpt>
      <trkpt lat="44.483520" lon="4.701682">
        <ele>113.179797</ele>
        <time>2017-06-06T12:20:06.000Z</time>
      </trkpt>
      <trkpt lat="44.483450" lon="4.701562">
        <ele>113.308332</ele>
        <time>2017-06-06T12:20:09.000Z</time>
      </trkpt>
      <trkpt lat="44.483380" lon="4.701476">
        <ele>113.416522</ele>
        <time>2017-06-06T12:20:12.000Z</time>
      </trkpt>
      <trkpt lat="44.483303" lon="4.701405">
        <ele>113.523647</ele>
        <time>2017-06-06T12:20:16.000Z</time>
      </trkpt>
      <trkpt lat="44.483220" lon="4.701307">
        <ele>113.649783</ele>
        <time>2017-06-06T12:20:22.000Z</time>
      </trkpt>
      <trkpt lat="44.483128" lon="4.701250">
        <ele>113.766693</ele>
        <time>2017-06-06T12:20:28.000Z</time>
      </trkpt>
      <trkpt lat="44.483013" lon="4.701183">
        <ele>113.911442</ele>
        <time>2017-06-06T12:47:41.000Z</time>
      </trkpt>
      <trkpt lat="44.482910" lon="4.701152">
        <ele>114.033886</ele>
        <time>2017-06-06T12:47:47.000Z</time>
      </trkpt>
      <trkpt lat="44.482807" lon="4.701148">
        <ele>114.153646</ele>
        <time>2017-06-06T12:47:51.000Z</time>
      </trkpt>
      <trkpt lat="44.482693" lon="4.701130">
        <ele>114.286984</ele>
        <time>2017-06-06T12:47:55.000Z</time>
      </trkpt>
      <trkpt lat="44.482590" lon="4.701132">
        <ele>114.406710</ele>
        <time>2017-06-06T12:47:59.000Z</time>
      </trkpt>
      <trkpt lat="44.482490" lon="4.701130">
        <ele>114.522950</ele>
        <time>2017-06-06T12:48:03.000Z</time>
      </trkpt>
      <trkpt lat="44.482395" lon="4.701151">
        <ele>114.702568</ele>
        <time>2017-06-06T12:48:07.000Z</time>
      </trkpt>
      <trkpt lat="44.482300" lon="4.701203">
        <ele>114.926381</ele>
        <time>2017-06-06T12:48:12.000Z</time>
      </trkpt>
      <trkpt lat="44.482216" lon="4.701293">
        <ele>115.158410</ele>
        <time>2017-06-06T12:48:18.000Z</time>
      </trkpt>
      <trkpt lat="44.482147" lon="4.701399">
        <ele>115.383072</ele>
        <time>2017-06-06T12:48:22.000Z</time>
      </trkpt>
      <trkpt lat="44.482067" lon="4.701457">
        <ele>115.580729</ele>
        <time>2017-06-06T12:48:25.000Z</time>
      </trkpt>
      <trkpt lat="44.481960" lon="4.701488">
        <ele>115.820506</ele>
        <time>2017-06-06T12:48:29.000Z</time>
      </trkpt>
      <trkpt lat="44.481860" lon="4.701529">
        <ele>116.049154</ele>
        <time>2017-06-06T12:48:34.000Z</time>
      </trkpt>
      <trkpt lat="44.481808" lon="4.701427">
        <ele>116.245438</ele>
        <time>2017-06-06T12:48:40.000Z</time>
      </trkpt>
      <trkpt lat="44.481796" lon="4.701290">
        <ele>116.461553</ele>
        <time>2017-06-06T12:48:44.000Z</time>
      </trkpt>
      <trkpt lat="44.481792" lon="4.701156">
        <ele>116.671543</ele>
        <time>2017-06-06T12:48:48.000Z</time>
      </trkpt>
      <trkpt lat="44.481785" lon="4.701013">
        <ele>116.895969</ele>
        <time>2017-06-06T12:48:52.000Z</time>
      </trkpt>
      <trkpt lat="44.481770" lon="4.700862">
        <ele>117.134674</ele>
        <time>2017-06-06T12:48:56.000Z</time>
      </trkpt>
      <trkpt lat="44.481754" lon="4.700711">
        <ele>117.373691</ele>
        <time>2017-06-06T12:49:00.000Z</time>
      </trkpt>
      <trkpt lat="44.481735" lon="4.700583">
        <ele>117.578396</ele>
        <time>2017-06-06T12:49:03.000Z</time>
      </trkpt>
      <trkpt lat="44.481720" lon="4.700449">
        <ele>117.790770</ele>
        <time>2017-06-06T12:49:06.000Z</time>
      </trkpt>
      <trkpt lat="44.481705" lon="4.700303">
        <ele>118.021724</ele>
        <time>2017-06-06T12:49:09.000Z</time>
      </trkpt>
      <trkpt lat="44.481693" lon="4.700161">
        <ele>118.245611</ele>
        <time>2017-06-06T12:49:12.000Z</time>
      </trkpt>
      <trkpt lat="44.481674" lon="4.699991">
        <ele>118.509360</ele>
        <time>2017-06-06T12:49:15.000Z</time>
      </trkpt>
      <trkpt lat="44.481655" lon="4.699833">
        <ele>118.611115</ele>
        <time>2017-06-06T12:49:18.000Z</time>
      </trkpt>
      <trkpt lat="44.481644" lon="4.699685">
        <ele>118.705612</ele>
        <time>2017-06-06T12:49:21.000Z</time>
      </trkpt>
      <trkpt lat="44.481625" lon="4.699536">
        <ele>118.801735</ele>
        <time>2017-06-06T12:49:24.000Z</time>
      </trkpt>
      <trkpt lat="44.481606" lon="4.699374">
        <ele>118.905995</ele>
        <time>2017-06-06T12:49:27.000Z</time>
      </trkpt>
      <trkpt lat="44.481594" lon="4.699218">
        <ele>119.005638</ele>
        <time>2017-06-06T12:49:30.000Z</time>
      </trkpt>
      <trkpt lat="44.481583" lon="4.699054">
        <ele>119.110247</ele>
        <time>2017-06-06T12:49:33.000Z</time>
      </trkpt>
      <trkpt lat="44.481575" lon="4.698900">
        <ele>119.208304</ele>
        <time>2017-06-06T12:49:36.000Z</time>
      </trkpt>
      <trkpt lat="44.481556" lon="4.698735">
        <ele>119.314445</ele>
        <time>2017-06-06T12:49:39.000Z</time>
      </trkpt>
      <trkpt lat="44.481544" lon="4.698571">
        <ele>119.419141</ele>
        <time>2017-06-06T12:49:42.000Z</time>
      </trkpt>
      <trkpt lat="44.481530" lon="4.698413">
        <ele>119.520251</ele>
        <time>2017-06-06T12:49:45.000Z</time>
      </trkpt>
      <trkpt lat="44.481510" lon="4.698245">
        <ele>119.628416</ele>
        <time>2017-06-06T12:49:48.000Z</time>
      </trkpt>
      <trkpt lat="44.481495" lon="4.698075">
        <ele>119.737198</ele>
        <time>2017-06-06T12:49:51.000Z</time>
      </trkpt>
      <trkpt lat="44.481487" lon="4.697886">
        <ele>119.857435</ele>
        <time>2017-06-06T12:49:54.000Z</time>
      </trkpt>
      <trkpt lat="44.481472" lon="4.697743">
        <ele>119.949225</ele>
        <time>2017-06-06T12:49:56.000Z</time>
      </trkpt>
      <trkpt lat="44.481464" lon="4.697594">
        <ele>120.044116</ele>
        <time>2017-06-06T12:49:58.000Z</time>
      </trkpt>
      <trkpt lat="44.481445" lon="4.697453">
        <ele>120.038899</ele>
        <time>2017-06-06T12:50:00.000Z</time>
      </trkpt>
      <trkpt lat="44.481422" lon="4.697309">
        <ele>119.819080</ele>
        <time>2017-06-06T12:50:02.000Z</time>
      </trkpt>
      <trkpt lat="44.481415" lon="4.697167">
        <ele>119.607047</ele>
        <time>2017-06-06T12:50:04.000Z</time>
      </trkpt>
      <trkpt lat="44.481403" lon="4.697020">
        <ele>119.386640</ele>
        <time>2017-06-06T12:50:06.000Z</time>
      </trkpt>
      <trkpt lat="44.481388" lon="4.696878">
        <ele>119.172804</ele>
        <time>2017-06-06T12:50:08.000Z</time>
      </trkpt>
      <trkpt lat="44.481377" lon="4.696725">
        <ele>118.943734</ele>
        <time>2017-06-06T12:50:11.000Z</time>
      </trkpt>
      <trkpt lat="44.481422" lon="4.696617">
        <ele>118.757427</ele>
        <time>2017-06-06T12:50:21.000Z</time>
      </trkpt>
      <trkpt lat="44.481525" lon="4.696619">
        <ele>118.542357</ele>
        <time>2017-06-06T12:50:24.000Z</time>
      </trkpt>
      <trkpt lat="44.481617" lon="4.696605">
        <ele>118.349144</ele>
        <time>2017-06-06T12:50:26.000Z</time>
      </trkpt>
      <trkpt lat="44.481710" lon="4.696599">
        <ele>118.154767</ele>
        <time>2017-06-06T12:50:28.000Z</time>
      </trkpt>
      <trkpt lat="44.481804" lon="4.696588">
        <ele>117.957825</ele>
        <time>2017-06-06T12:50:30.000Z</time>
      </trkpt>
      <trkpt lat="44.481907" lon="4.696550">
        <ele>117.735450</ele>
        <time>2017-06-06T12:50:33.000Z</time>
      </trkpt>
      <trkpt lat="44.481987" lon="4.696477">
        <ele>117.536141</ele>
        <time>2017-06-06T12:50:40.000Z</time>
      </trkpt>
      <trkpt lat="44.482082" lon="4.696417">
        <ele>117.318587</ele>
        <time>2017-06-06T12:50:47.000Z</time>
      </trkpt>
      <trkpt lat="44.482170" lon="4.696373">
        <ele>117.123514</ele>
        <time>2017-06-06T12:50:51.000Z</time>
      </trkpt>
      <trkpt lat="44.482250" lon="4.696305">
        <ele>116.928170</ele>
        <time>2017-06-06T12:50:54.000Z</time>
      </trkpt>
      <trkpt lat="44.482340" lon="4.696245">
        <ele>116.720089</ele>
        <time>2017-06-06T12:50:57.000Z</time>
      </trkpt>
      <trkpt lat="44.482426" lon="4.696192">
        <ele>116.523942</ele>
        <time>2017-06-06T12:51:00.000Z</time>
      </trkpt>
      <trkpt lat="44.482520" lon="4.696112">
        <ele>116.319028</ele>
        <time>2017-06-06T12:51:04.000Z</time>
      </trkpt>
      <trkpt lat="44.482610" lon="4.696037">
        <ele>116.195477</ele>
        <time>2017-06-06T12:51:10.000Z</time>
      </trkpt>
      <trkpt lat="44.482693" lon="4.695978">
        <ele>116.085663</ele>
        <time>2017-06-06T12:51:14.000Z</time>
      </trkpt>
      <trkpt lat="44.482790" lon="4.695891">
        <ele>115.949776</ele>
        <time>2017-06-06T12:51:18.000Z</time>
      </trkpt>
      <trkpt lat="44.482887" lon="4.695809">
        <ele>115.816111</ele>
        <time>2017-06-06T12:51:22.000Z</time>
      </trkpt>
      <trkpt lat="44.482983" lon="4.695742">
        <ele>115.689567</ele>
        <time>2017-06-06T12:51:25.000Z</time>
      </trkpt>
      <trkpt lat="44.483074" lon="4.695668">
        <ele>115.565425</ele>
        <time>2017-06-06T12:51:28.000Z</time>
      </trkpt>
      <trkpt lat="44.483177" lon="4.695602">
        <ele>115.431788</ele>
        <time>2017-06-06T12:51:31.000Z</time>
      </trkpt>
      <trkpt lat="44.483295" lon="4.695540">
        <ele>115.283088</ele>
        <time>2017-06-06T12:51:34.000Z</time>
      </trkpt>
      <trkpt lat="44.483400" lon="4.695458">
        <ele>115.141256</ele>
        <time>2017-06-06T12:51:37.000Z</time>
      </trkpt>
      <trkpt lat="44.483505" lon="4.695390">
        <ele>115.004772</ele>
        <time>2017-06-06T12:51:40.000Z</time>
      </trkpt>
      <trkpt lat="44.483590" lon="4.695340">
        <ele>114.895999</ele>
        <time>2017-06-06T12:51:42.000Z</time>
      </trkpt>
      <trkpt lat="44.483696" lon="4.695256">
        <ele>114.752314</ele>
        <time>2017-06-06T12:51:45.000Z</time>
      </trkpt>
      <trkpt lat="44.483807" lon="4.695173">
        <ele>114.603863</ele>
        <time>2017-06-06T12:51:48.000Z</time>
      </trkpt>
      <trkpt lat="44.483906" lon="4.695086">
        <ele>114.465983</ele>
        <time>2017-06-06T12:51:51.000Z</time>
      </trkpt>
      <trkpt lat="44.484016" lon="4.695003">
        <ele>114.318573</ele>
        <time>2017-06-06T12:51:54.000Z</time>
      </trkpt>
      <trkpt lat="44.484130" lon="4.694907">
        <ele>114.235704</ele>
        <time>2017-06-06T12:51:57.000Z</time>
      </trkpt>
      <trkpt lat="44.484203" lon="4.694833">
        <ele>114.246715</ele>
        <time>2017-06-06T12:51:59.000Z</time>
      </trkpt>
      <trkpt lat="44.484287" lon="4.694771">
        <ele>114.258318</ele>
        <time>2017-06-06T12:52:01.000Z</time>
      </trkpt>
      <trkpt lat="44.484400" lon="4.694676">
        <ele>114.274423</ele>
        <time>2017-06-06T12:52:04.000Z</time>
      </trkpt>
      <trkpt lat="44.484505" lon="4.694587">
        <ele>114.289420</ele>
        <time>2017-06-06T12:52:07.000Z</time>
      </trkpt>
      <trkpt lat="44.484608" lon="4.694487">
        <ele>114.304734</ele>
        <time>2017-06-06T12:52:10.000Z</time>
      </trkpt>
      <trkpt lat="44.484700" lon="4.694385">
        <ele>114.319071</ele>
        <time>2017-06-06T12:52:13.000Z</time>
      </trkpt>
      <trkpt lat="44.484787" lon="4.694301">
        <ele>114.331983</ele>
        <time>2017-06-06T12:52:16.000Z</time>
      </trkpt>
      <trkpt lat="44.484870" lon="4.694218">
        <ele>114.344444</ele>
        <time>2017-06-06T12:52:19.000Z</time>
      </trkpt>
      <trkpt lat="44.484966" lon="4.694140">
        <ele>114.358006</ele>
        <time>2017-06-06T12:52:22.000Z</time>
      </trkpt>
      <trkpt lat="44.485050" lon="4.694051">
        <ele>114.370876</ele>
        <time>2017-06-06T12:52:25.000Z</time>
      </trkpt>
      <trkpt lat="44.485146" lon="4.693975">
        <ele>114.384351</ele>
        <time>2017-06-06T12:52:28.000Z</time>
      </trkpt>
      <trkpt lat="44.485240" lon="4.693871">
        <ele>114.398987</ele>
        <time>2017-06-06T12:52:31.000Z</time>
      </trkpt>
      <trkpt lat="44.485344" lon="4.693765">
        <ele>114.414704</ele>
        <time>2017-06-06T12:52:34.000Z</time>
      </trkpt>
      <trkpt lat="44.485430" lon="4.693651">
        <ele>114.429170</ele>
        <time>2017-06-06T12:52:37.000Z</time>
      </trkpt>
      <trkpt lat="44.485520" lon="4.693560">
        <ele>114.442734</ele>
        <time>2017-06-06T12:52:40.000Z</time>
      </trkpt>
      <trkpt lat="44.485607" lon="4.693486">
        <ele>114.499584</ele>
        <time>2017-06-06T12:52:43.000Z</time>
      </trkpt>
      <trkpt lat="44.485683" lon="4.693399">
        <ele>114.592447</ele>
        <time>2017-06-06T12:52:46.000Z</time>
      </trkpt>
      <trkpt lat="44.485767" lon="4.693305">
        <ele>114.694170</ele>
        <time>2017-06-06T12:52:49.000Z</time>
      </trkpt>
      <trkpt lat="44.485870" lon="4.693218">
        <ele>114.807978</ele>
        <time>2017-06-06T12:52:52.000Z</time>
      </trkpt>
      <trkpt lat="44.485966" lon="4.693141">
        <ele>114.912653</ele>
        <time>2017-06-06T12:52:55.000Z</time>
      </trkpt>
      <trkpt lat="44.486060" lon="4.693073">
        <ele>115.012761</ele>
        <time>2017-06-06T12:52:58.000Z</time>
      </trkpt>
      <trkpt lat="44.486137" lon="4.692999">
        <ele>115.101115</ele>
        <time>2017-06-06T12:53:03.000Z</time>
      </trkpt>
      <trkpt lat="44.486122" lon="4.692870">
        <ele>115.189361</ele>
        <time>2017-06-06T12:53:10.000Z</time>
      </trkpt>
      <trkpt lat="44.486100" lon="4.692744">
        <ele>115.276943</ele>
        <time>2017-06-06T12:53:17.000Z</time>
      </trkpt>
      <trkpt lat="44.486137" lon="4.692866">
        <ele>115.366447</ele>
        <time>2017-06-06T12:53:41.000Z</time>
      </trkpt>
      <trkpt lat="44.486280" lon="4.692895">
        <ele>115.503188</ele>
        <time>2017-06-06T12:54:34.000Z</time>
      </trkpt>
      <trkpt lat="44.486380" lon="4.692839">
        <ele>115.605099</ele>
        <time>2017-06-06T12:54:39.000Z</time>
      </trkpt>
      <trkpt lat="44.486477" lon="4.692783">
        <ele>115.704379</ele>
        <time>2017-06-06T12:54:44.000Z</time>
      </trkpt>
      <trkpt lat="44.486588" lon="4.692758">
        <ele>115.810775</ele>
        <time>2017-06-06T12:54:49.000Z</time>
      </trkpt>
      <trkpt lat="44.486675" lon="4.692719">
        <ele>115.897218</ele>
        <time>2017-06-06T12:54:53.000Z</time>
      </trkpt>
      <trkpt lat="44.486760" lon="4.692669">
        <ele>115.984456</ele>
        <time>2017-06-06T12:54:57.000Z</time>
      </trkpt>
      <trkpt lat="44.486828" lon="4.692588">
        <ele>116.068909</ele>
        <time>2017-06-06T12:55:02.000Z</time>
      </trkpt>
      <trkpt lat="44.486904" lon="4.692509">
        <ele>116.121405</ele>
        <time>2017-06-06T12:55:07.000Z</time>
      </trkpt>
      <trkpt lat="44.486965" lon="4.692400">
        <ele>115.763057</ele>
        <time>2017-06-06T12:55:12.000Z</time>
      </trkpt>
      <trkpt lat="44.487038" lon="4.692307">
        <ele>115.405388</ele>
        <time>2017-06-06T12:55:17.000Z</time>
      </trkpt>
      <trkpt lat="44.487118" lon="4.692224">
        <ele>115.044512</ele>
        <time>2017-06-06T12:55:23.000Z</time>
      </trkpt>
      <trkpt lat="44.487190" lon="4.692139">
        <ele>114.703201</ele>
        <time>2017-06-06T12:55:29.000Z</time>
      </trkpt>
      <trkpt lat="44.487244" lon="4.692005">
        <ele>114.305110</ele>
        <time>2017-06-06T12:55:35.000Z</time>
      </trkpt>
      <trkpt lat="44.487180" lon="4.691890">
        <ele>113.927836</ele>
        <time>2017-06-06T12:55:40.000Z</time>
      </trkpt>
      <trkpt lat="44.487083" lon="4.691819">
        <ele>113.531069</ele>
        <time>2017-06-06T12:55:45.000Z</time>
      </trkpt>
      <trkpt lat="44.487015" lon="4.691737">
        <ele>113.205832</ele>
        <time>2017-06-06T12:55:49.000Z</time>
      </trkpt>
      <trkpt lat="44.486908" lon="4.691684">
        <ele>112.794360</ele>
        <time>2017-06-06T12:55:53.000Z</time>
      </trkpt>
      <trkpt lat="44.486813" lon="4.691632">
        <ele>112.424577</ele>
        <time>2017-06-06T12:55:57.000Z</time>
      </trkpt>
      <trkpt lat="44.486730" lon="4.691573">
        <ele>112.087150</ele>
        <time>2017-06-06T12:56:00.000Z</time>
      </trkpt>
      <trkpt lat="44.486650" lon="4.691514">
        <ele>111.759386</ele>
        <time>2017-06-06T12:56:03.000Z</time>
      </trkpt>
      <trkpt lat="44.486570" lon="4.691445">
        <ele>111.418808</ele>
        <time>2017-06-06T12:56:07.000Z</time>
      </trkpt>
      <trkpt lat="44.486477" lon="4.691368">
        <ele>111.027176</ele>
        <time>2017-06-06T12:56:11.000Z</time>
      </trkpt>
      <trkpt lat="44.486374" lon="4.691303">
        <ele>110.617615</ele>
        <time>2017-06-06T12:56:15.000Z</time>
      </trkpt>
      <trkpt lat="44.486298" lon="4.691239">
        <ele>110.296148</ele>
        <time>2017-06-06T12:56:18.000Z</time>
      </trkpt>
      <trkpt lat="44.486202" lon="4.691170">
        <ele>109.904977</ele>
        <time>2017-06-06T12:56:22.000Z</time>
      </trkpt>
      <trkpt lat="44.486107" lon="4.691091">
        <ele>109.654995</ele>
        <time>2017-06-06T12:56:26.000Z</time>
      </trkpt>
      <trkpt lat="44.486023" lon="4.691019">
        <ele>109.728654</ele>
        <time>2017-06-06T12:56:29.000Z</time>
      </trkpt>
      <trkpt lat="44.485930" lon="4.690946">
        <ele>109.808395</ele>
        <time>2017-06-06T12:56:33.000Z</time>
      </trkpt>
      <trkpt lat="44.485855" lon="4.690874">
        <ele>109.876402</ele>
        <time>2017-06-06T12:56:36.000Z</time>
      </trkpt>
      <trkpt lat="44.485770" lon="4.690823">
        <ele>109.945573</ele>
        <time>2017-06-06T12:56:39.000Z</time>
      </trkpt>
      <trkpt lat="44.485683" lon="4.690766">
        <ele>110.017417</ele>
        <time>2017-06-06T12:56:43.000Z</time>
      </trkpt>
      <trkpt lat="44.485584" lon="4.690675">
        <ele>110.105986</ele>
        <time>2017-06-06T12:56:48.000Z</time>
      </trkpt>
      <trkpt lat="44.485500" lon="4.690604">
        <ele>110.179369</ele>
        <time>2017-06-06T12:56:52.000Z</time>
      </trkpt>
      <trkpt lat="44.485405" lon="4.690533">
        <ele>110.259911</ele>
        <time>2017-06-06T12:56:57.000Z</time>
      </trkpt>
      <trkpt lat="44.485317" lon="4.690452">
        <ele>110.338671</ele>
        <time>2017-06-06T12:57:01.000Z</time>
      </trkpt>
      <trkpt lat="44.485220" lon="4.690385">
        <ele>110.419570</ele>
        <time>2017-06-06T12:57:06.000Z</time>
      </trkpt>
      <trkpt lat="44.485123" lon="4.690306">
        <ele>110.503498</ele>
        <time>2017-06-06T12:57:10.000Z</time>
      </trkpt>
      <trkpt lat="44.485027" lon="4.690231">
        <ele>110.585719</ele>
        <time>2017-06-06T12:57:15.000Z</time>
      </trkpt>
      <trkpt lat="44.484917" lon="4.690162">
        <ele>110.675876</ele>
        <time>2017-06-06T12:57:20.000Z</time>
      </trkpt>
      <trkpt lat="44.484837" lon="4.690100">
        <ele>110.744265</ele>
        <time>2017-06-06T12:57:24.000Z</time>
      </trkpt>
      <trkpt lat="44.484753" lon="4.690057">
        <ele>110.811166</ele>
        <time>2017-06-06T12:57:29.000Z</time>
      </trkpt>
      <trkpt lat="44.484657" lon="4.690028">
        <ele>110.884634</ele>
        <time>2017-06-06T12:57:34.000Z</time>
      </trkpt>
      <trkpt lat="44.484573" lon="4.689974">
        <ele>110.953770</ele>
        <time>2017-06-06T12:57:39.000Z</time>
      </trkpt>
      <trkpt lat="44.484486" lon="4.689938">
        <ele>111.244506</ele>
        <time>2017-06-06T12:57:46.000Z</time>
      </trkpt>
      <trkpt lat="44.484394" lon="4.689905">
        <ele>111.653933</ele>
        <time>2017-06-06T12:57:53.000Z</time>
      </trkpt>
      <trkpt lat="44.484290" lon="4.689925">
        <ele>112.106514</ele>
        <time>2017-06-06T12:57:57.000Z</time>
      </trkpt>
      <trkpt lat="44.484184" lon="4.689952">
        <ele>112.571003</ele>
        <time>2017-06-06T12:58:01.000Z</time>
      </trkpt>
      <trkpt lat="44.484093" lon="4.689934">
        <ele>112.967224</ele>
        <time>2017-06-06T12:58:06.000Z</time>
      </trkpt>
      <trkpt lat="44.483982" lon="4.689955">
        <ele>113.450124</ele>
        <time>2017-06-06T12:58:12.000Z</time>
      </trkpt>
      <trkpt lat="44.483883" lon="4.689961">
        <ele>113.877347</ele>
        <time>2017-06-06T12:58:17.000Z</time>
      </trkpt>
      <trkpt lat="44.483788" lon="4.689987">
        <ele>114.294660</ele>
        <time>2017-06-06T12:58:25.000Z</time>
      </trkpt>
      <trkpt lat="44.483704" lon="4.690050">
        <ele>114.705401</ele>
        <time>2017-06-06T12:58:32.000Z</time>
      </trkpt>
      <trkpt lat="44.483624" lon="4.690123">
        <ele>115.116960</ele>
        <time>2017-06-06T12:58:36.000Z</time>
      </trkpt>
      <trkpt lat="44.483550" lon="4.690247">
        <ele>115.614218</ele>
        <time>2017-06-06T12:58:41.000Z</time>
      </trkpt>
      <trkpt lat="44.483475" lon="4.690330">
        <ele>116.026209</ele>
        <time>2017-06-06T12:58:46.000Z</time>
      </trkpt>
      <trkpt lat="44.483547" lon="4.690228">
        <ele>116.467566</ele>
        <time>2017-06-06T12:59:02.000Z</time>
      </trkpt>
      <trkpt lat="44.483620" lon="4.690153">
        <ele>116.857790</ele>
        <time>2017-06-06T12:59:06.000Z</time>
      </trkpt>
      <trkpt lat="44.483704" lon="4.690064">
        <ele>117.311771</ele>
        <time>2017-06-06T12:59:10.000Z</time>
      </trkpt>
      <trkpt lat="44.483780" lon="4.689973">
        <ele>117.742715</ele>
        <time>2017-06-06T12:59:14.000Z</time>
      </trkpt>
      <trkpt lat="44.483814" lon="4.689825">
        <ele>118.220971</ele>
        <time>2017-06-06T12:59:18.000Z</time>
      </trkpt>
      <trkpt lat="44.483790" lon="4.689668">
        <ele>118.714853</ele>
        <time>2017-06-06T12:59:22.000Z</time>
      </trkpt>
      <trkpt lat="44.483765" lon="4.689505">
        <ele>119.092963</ele>
        <time>2017-06-06T12:59:26.000Z</time>
      </trkpt>
      <trkpt lat="44.483757" lon="4.689354">
        <ele>119.432778</ele>
        <time>2017-06-06T12:59:30.000Z</time>
      </trkpt>
      <trkpt lat="44.483723" lon="4.689239">
        <ele>119.712149</ele>
        <time>2017-06-06T12:59:35.000Z</time>
      </trkpt>
      <trkpt lat="44.483646" lon="4.689139">
        <ele>120.042351</ele>
        <time>2017-06-06T12:59:41.000Z</time>
      </trkpt>
      <trkpt lat="44.483547" lon="4.689137">
        <ele>120.353801</ele>
        <time>2017-06-06T12:59:47.000Z</time>
      </trkpt>
      <trkpt lat="44.483450" lon="4.689128">
        <ele>120.659594</ele>
        <time>2017-06-06T12:59:52.000Z</time>
      </trkpt>
      <trkpt lat="44.483353" lon="4.689198">
        <ele>121.002788</ele>
        <time>2017-06-06T12:59:58.000Z</time>
      </trkpt>
      <trkpt lat="44.483250" lon="4.689225">
        <ele>121.332405</ele>
        <time>2017-06-06T13:00:03.000Z</time>
      </trkpt>
      <trkpt lat="44.483147" lon="4.689206">
        <ele>121.659198</ele>
        <time>2017-06-06T13:00:10.000Z</time>
      </trkpt>
      <trkpt lat="44.483060" lon="4.689233">
        <ele>121.939496</ele>
        <time>2017-06-06T13:00:16.000Z</time>
      </trkpt>
      <trkpt lat="44.482967" lon="4.689239">
        <ele>122.232349</ele>
        <time>2017-06-06T13:00:22.000Z</time>
      </trkpt>
      <trkpt lat="44.482870" lon="4.689220">
        <ele>122.540440</ele>
        <time>2017-06-06T13:00:27.000Z</time>
      </trkpt>
      <trkpt lat="44.482758" lon="4.689246">
        <ele>122.897550</ele>
        <time>2017-06-06T13:00:32.000Z</time>
      </trkpt>
      <trkpt lat="44.482662" lon="4.689269">
        <ele>123.203910</ele>
        <time>2017-06-06T13:00:36.000Z</time>
      </trkpt>
      <trkpt lat="44.482567" lon="4.689339">
        <ele>123.541523</ele>
        <time>2017-06-06T13:00:41.000Z</time>
      </trkpt>
      <trkpt lat="44.482475" lon="4.689355">
        <ele>123.833140</ele>
        <time>2017-06-06T13:00:46.000Z</time>
      </trkpt>
      <trkpt lat="44.482380" lon="4.689355">
        <ele>124.131975</ele>
        <time>2017-06-06T13:00:53.000Z</time>
      </trkpt>
      <trkpt lat="44.482277" lon="4.689365">
        <ele>124.499091</ele>
        <time>2017-06-06T13:00:58.000Z</time>
      </trkpt>
      <trkpt lat="44.482174" lon="4.689385">
        <ele>125.025568</ele>
        <time>2017-06-06T13:01:03.000Z</time>
      </trkpt>
      <trkpt lat="44.482067" lon="4.689387">
        <ele>125.567365</ele>
        <time>2017-06-06T13:01:09.000Z</time>
      </trkpt>
      <trkpt lat="44.481964" lon="4.689385">
        <ele>126.088911</ele>
        <time>2017-06-06T13:01:14.000Z</time>
      </trkpt>
      <trkpt lat="44.481890" lon="4.689287">
        <ele>126.604372</ele>
        <time>2017-06-06T13:01:22.000Z</time>
      </trkpt>
      <trkpt lat="44.481853" lon="4.689144">
        <ele>127.153859</ele>
        <time>2017-06-06T13:01:27.000Z</time>
      </trkpt>
      <trkpt lat="44.481853" lon="4.689010">
        <ele>127.637915</ele>
        <time>2017-06-06T13:01:32.000Z</time>
      </trkpt>
      <trkpt lat="44.481920" lon="4.688906">
        <ele>128.144091</ele>
        <time>2017-06-06T13:01:40.000Z</time>
      </trkpt>
      <trkpt lat="44.482002" lon="4.688860">
        <ele>128.591282</ele>
        <time>2017-06-06T13:01:44.000Z</time>
      </trkpt>
      <trkpt lat="44.482090" lon="4.688802">
        <ele>129.083635</ele>
        <time>2017-06-06T13:01:48.000Z</time>
      </trkpt>
      <trkpt lat="44.482180" lon="4.688750">
        <ele>129.576510</ele>
        <time>2017-06-06T13:01:52.000Z</time>
      </trkpt>
      <trkpt lat="44.482273" lon="4.688687">
        <ele>130.099488</ele>
        <time>2017-06-06T13:01:56.000Z</time>
      </trkpt>
      <trkpt lat="44.482370" lon="4.688637">
        <ele>130.622766</ele>
        <time>2017-06-06T13:02:00.000Z</time>
      </trkpt>
      <trkpt lat="44.482464" lon="4.688584">
        <ele>131.135759</ele>
        <time>2017-06-06T13:02:04.000Z</time>
      </trkpt>
      <trkpt lat="44.482560" lon="4.688532">
        <ele>131.656848</ele>
        <time>2017-06-06T13:02:08.000Z</time>
      </trkpt>
      <trkpt lat="44.482660" lon="4.688485">
        <ele>132.190863</ele>
        <time>2017-06-06T13:02:12.000Z</time>
      </trkpt>
      <trkpt lat="44.482750" lon="4.688427">
        <ele>132.692398</ele>
        <time>2017-06-06T13:02:16.000Z</time>
      </trkpt>
      <trkpt lat="44.482830" lon="4.688332">
        <ele>133.223271</ele>
        <time>2017-06-06T13:02:20.000Z</time>
      </trkpt>
      <trkpt lat="44.482903" lon="4.688246">
        <ele>133.592770</ele>
        <time>2017-06-06T13:02:24.000Z</time>
      </trkpt>
      <trkpt lat="44.482986" lon="4.688144">
        <ele>133.853110</ele>
        <time>2017-06-06T13:02:31.000Z</time>
      </trkpt>
      <trkpt lat="44.483060" lon="4.687971">
        <ele>134.192521</ele>
        <time>2017-06-06T13:02:59.000Z</time>
      </trkpt>
      <trkpt lat="44.483128" lon="4.687861">
        <ele>134.437429</ele>
        <time>2017-06-06T13:03:05.000Z</time>
      </trkpt>
      <trkpt lat="44.483070" lon="4.687972">
        <ele>134.668940</ele>
        <time>2017-06-06T13:03:40.000Z</time>
      </trkpt>
      <trkpt lat="44.483040" lon="4.688106">
        <ele>134.905258</ele>
        <time>2017-06-06T13:03:44.000Z</time>
      </trkpt>
      <trkpt lat="44.482994" lon="4.688232">
        <ele>135.143420</ele>
        <time>2017-06-06T13:03:48.000Z</time>
      </trkpt>
      <trkpt lat="44.482930" lon="4.688327">
        <ele>135.363276</ele>
        <time>2017-06-06T13:03:52.000Z</time>
      </trkpt>
      <trkpt lat="44.482860" lon="4.688419">
        <ele>135.589596</ele>
        <time>2017-06-06T13:03:56.000Z</time>
      </trkpt>
      <trkpt lat="44.482773" lon="4.688502">
        <ele>135.837804</ele>
        <time>2017-06-06T13:04:01.000Z</time>
      </trkpt>
      <trkpt lat="44.482674" lon="4.688549">
        <ele>136.084323</ele>
        <time>2017-06-06T13:04:05.000Z</time>
      </trkpt>
      <trkpt lat="44.482555" lon="4.688599">
        <ele>136.377320</ele>
        <time>2017-06-06T13:04:09.000Z</time>
      </trkpt>
      <trkpt lat="44.482460" lon="4.688659">
        <ele>136.623071</ele>
        <time>2017-06-06T13:04:12.000Z</time>
      </trkpt>
      <trkpt lat="44.482350" lon="4.688745">
        <ele>136.920134</ele>
        <time>2017-06-06T13:04:15.000Z</time>
      </trkpt>
      <trkpt lat="44.482265" lon="4.688789">
        <ele>137.133839</ele>
        <time>2017-06-06T13:04:17.000Z</time>
      </trkpt>
      <trkpt lat="44.482143" lon="4.688858">
        <ele>137.444115</ele>
        <time>2017-06-06T13:04:20.000Z</time>
      </trkpt>
      <trkpt lat="44.482048" lon="4.688892">
        <ele>137.675359</ele>
        <time>2017-06-06T13:04:22.000Z</time>
      </trkpt>
      <trkpt lat="44.481922" lon="4.688962">
        <ele>137.551563</ele>
        <time>2017-06-06T13:04:25.000Z</time>
      </trkpt>
      <trkpt lat="44.481840" lon="4.689011">
        <ele>137.401865</ele>
        <time>2017-06-06T13:04:27.000Z</time>
      </trkpt>
      <trkpt lat="44.481740" lon="4.689050">
        <ele>137.227551</ele>
        <time>2017-06-06T13:04:30.000Z</time>
      </trkpt>
      <trkpt lat="44.481647" lon="4.689110">
        <ele>137.055621</ele>
        <time>2017-06-06T13:04:33.000Z</time>
      </trkpt>
      <trkpt lat="44.481533" lon="4.689169">
        <ele>136.851542</ele>
        <time>2017-06-06T13:04:36.000Z</time>
      </trkpt>
      <trkpt lat="44.481415" lon="4.689239">
        <ele>136.636361</ele>
        <time>2017-06-06T13:04:39.000Z</time>
      </trkpt>
      <trkpt lat="44.481335" lon="4.689299">
        <ele>136.483989</ele>
        <time>2017-06-06T13:04:41.000Z</time>
      </trkpt>
      <trkpt lat="44.481255" lon="4.689377">
        <ele>136.320333</ele>
        <time>2017-06-06T13:04:43.000Z</time>
      </trkpt>
      <trkpt lat="44.481148" lon="4.689497">
        <ele>136.090200</ele>
        <time>2017-06-06T13:04:46.000Z</time>
      </trkpt>
      <trkpt lat="44.481045" lon="4.689599">
        <ele>135.878409</ele>
        <time>2017-06-06T13:04:49.000Z</time>
      </trkpt>
      <trkpt lat="44.480950" lon="4.689707">
        <ele>135.672989</ele>
        <time>2017-06-06T13:04:52.000Z</time>
      </trkpt>
      <trkpt lat="44.480854" lon="4.689787">
        <ele>135.485429</ele>
        <time>2017-06-06T13:04:55.000Z</time>
      </trkpt>
      <trkpt lat="44.480770" lon="4.689882">
        <ele>135.304167</ele>
        <time>2017-06-06T13:04:58.000Z</time>
      </trkpt>
      <trkpt lat="44.480700" lon="4.689986">
        <ele>135.132858</ele>
        <time>2017-06-06T13:05:01.000Z</time>
      </trkpt>
      <trkpt lat="44.480637" lon="4.690080">
        <ele>134.978330</ele>
        <time>2017-06-06T13:05:04.000Z</time>
      </trkpt>
      <trkpt lat="44.480550" lon="4.690155">
        <ele>134.806804</ele>
        <time>2017-06-06T13:05:09.000Z</time>
      </trkpt>
      <trkpt lat="44.480630" lon="4.690065">
        <ele>135.038470</ele>
        <time>2017-06-06T13:05:38.000Z</time>
      </trkpt>
      <trkpt lat="44.480710" lon="4.690167">
        <ele>135.763269</ele>
        <time>2017-06-06T13:05:44.000Z</time>
      </trkpt>
      <trkpt lat="44.480747" lon="4.690294">
        <ele>136.419216</ele>
        <time>2017-06-06T13:05:49.000Z</time>
      </trkpt>
      <trkpt lat="44.480827" lon="4.690415">
        <ele>137.208018</ele>
        <time>2017-06-06T13:06:13.000Z</time>
      </trkpt>
      <trkpt lat="44.480892" lon="4.690521">
        <ele>137.876349</ele>
        <time>2017-06-06T13:06:20.000Z</time>
      </trkpt>
      <trkpt lat="44.480957" lon="4.690617">
        <ele>138.509183</ele>
        <time>2017-06-06T13:06:28.000Z</time>
      </trkpt>
      <trkpt lat="44.481000" lon="4.690727">
        <ele>139.108936</ele>
        <time>2017-06-06T13:06:37.000Z</time>
      </trkpt>
      <trkpt lat="44.481050" lon="4.690835">
        <ele>139.724543</ele>
        <time>2017-06-06T13:06:44.000Z</time>
      </trkpt>
      <trkpt lat="44.481083" lon="4.690971">
        <ele>140.411424</ele>
        <time>2017-06-06T13:07:03.000Z</time>
      </trkpt>
      <trkpt lat="44.481144" lon="4.691065">
        <ele>141.019004</ele>
        <time>2017-06-06T13:07:12.000Z</time>
      </trkpt>
      <trkpt lat="44.481197" lon="4.691165">
        <ele>141.614659</ele>
        <time>2017-06-06T13:07:23.000Z</time>
      </trkpt>
      <trkpt lat="44.481280" lon="4.691247">
        <ele>142.295212</ele>
        <time>2017-06-06T13:07:49.000Z</time>
      </trkpt>
      <trkpt lat="44.481377" lon="4.691150">
        <ele>143.093790</ele>
        <time>2017-06-06T13:08:05.000Z</time>
      </trkpt>
      <trkpt lat="44.481430" lon="4.691047">
        <ele>143.701019</ele>
        <time>2017-06-06T13:08:15.000Z</time>
      </trkpt>
      <trkpt lat="44.481570" lon="4.691077">
        <ele>144.650177</ele>
        <time>2017-06-06T13:10:00.000Z</time>
      </trkpt>
      <trkpt lat="44.481647" lon="4.691168">
        <ele>145.325183</ele>
        <time>2017-06-06T13:10:05.000Z</time>
      </trkpt>
      <trkpt lat="44.481730" lon="4.691226">
        <ele>145.946736</ele>
        <time>2017-06-06T13:10:10.000Z</time>
      </trkpt>
      <trkpt lat="44.481830" lon="4.691307">
        <ele>146.720786</ele>
        <time>2017-06-06T13:10:16.000Z</time>
      </trkpt>
      <trkpt lat="44.481922" lon="4.691318">
        <ele>146.847462</ele>
        <time>2017-06-06T13:10:20.000Z</time>
      </trkpt>
      <trkpt lat="44.481990" lon="4.691233">
        <ele>146.930811</ele>
        <time>2017-06-06T13:10:34.000Z</time>
      </trkpt>
      <trkpt lat="44.482010" lon="4.691100">
        <ele>147.019522</ele>
        <time>2017-06-06T13:10:39.000Z</time>
      </trkpt>
      <trkpt lat="44.482090" lon="4.690989">
        <ele>147.122498</ele>
        <time>2017-06-06T13:10:44.000Z</time>
      </trkpt>
      <trkpt lat="44.482170" lon="4.690917">
        <ele>147.209467</ele>
        <time>2017-06-06T13:10:48.000Z</time>
      </trkpt>
      <trkpt lat="44.482240" lon="4.690835">
        <ele>147.292921</ele>
        <time>2017-06-06T13:10:52.000Z</time>
      </trkpt>
      <trkpt lat="44.482277" lon="4.690704">
        <ele>147.384875</ele>
        <time>2017-06-06T13:10:58.000Z</time>
      </trkpt>
      <trkpt lat="44.482240" lon="4.690577">
        <ele>147.474407</ele>
        <time>2017-06-06T13:11:06.000Z</time>
      </trkpt>
      <trkpt lat="44.482162" lon="4.690501">
        <ele>147.561307</ele>
        <time>2017-06-06T13:11:15.000Z</time>
      </trkpt>
      <trkpt lat="44.482235" lon="4.690575">
        <ele>147.643720</ele>
        <time>2017-06-06T13:11:35.000Z</time>
      </trkpt>
      <trkpt lat="44.482327" lon="4.690511">
        <ele>147.737675</ele>
        <time>2017-06-06T13:11:47.000Z</time>
      </trkpt>
      <trkpt lat="44.482407" lon="4.690455">
        <ele>147.819475</ele>
        <time>2017-06-06T13:11:56.000Z</time>
      </trkpt>
      <trkpt lat="44.482500" lon="4.690418">
        <ele>147.907910</ele>
        <time>2017-06-06T13:12:05.000Z</time>
      </trkpt>
      <trkpt lat="44.482594" lon="4.690415">
        <ele>147.993921</ele>
        <time>2017-06-06T13:12:16.000Z</time>
      </trkpt>
      <trkpt lat="44.482685" lon="4.690391">
        <ele>148.078626</ele>
        <time>2017-06-06T13:12:27.000Z</time>
      </trkpt>
      <trkpt lat="44.482777" lon="4.690328">
        <ele>148.172292</ele>
        <time>2017-06-06T13:12:38.000Z</time>
      </trkpt>
      <trkpt lat="44.482864" lon="4.690271">
        <ele>148.260143</ele>
        <time>2017-06-06T13:12:50.000Z</time>
      </trkpt>
      <trkpt lat="44.482970" lon="4.690243">
        <ele>148.358815</ele>
        <time>2017-06-06T13:12:56.000Z</time>
      </trkpt>
      <trkpt lat="44.483070" lon="4.690199">
        <ele>148.424874</ele>
        <time>2017-06-06T13:13:01.000Z</time>
      </trkpt>
      <trkpt lat="44.483160" lon="4.690147">
        <ele>148.446996</ele>
        <time>2017-06-06T13:13:15.000Z</time>
      </trkpt>
      <trkpt lat="44.483246" lon="4.690118">
        <ele>148.467097</ele>
        <time>2017-06-06T13:13:23.000Z</time>
      </trkpt>
      <trkpt lat="44.483345" lon="4.690093">
        <ele>148.489957</ele>
        <time>2017-06-06T13:17:27.000Z</time>
      </trkpt>
      <trkpt lat="44.483433" lon="4.690055">
        <ele>148.510882</ele>
        <time>2017-06-06T13:17:38.000Z</time>
      </trkpt>
      <trkpt lat="44.483437" lon="4.689921">
        <ele>148.532627</ele>
        <time>2017-06-06T13:17:51.000Z</time>
      </trkpt>
      <trkpt lat="44.483334" lon="4.689919">
        <ele>148.556036</ele>
        <time>2017-06-06T13:26:51.000Z</time>
      </trkpt>
      <trkpt lat="44.483270" lon="4.690024">
        <ele>148.578426</ele>
        <time>2017-06-06T13:27:03.000Z</time>
      </trkpt>
      <trkpt lat="44.483190" lon="4.690081">
        <ele>148.598820</ele>
        <time>2017-06-06T13:27:13.000Z</time>
      </trkpt>
      <trkpt lat="44.483112" lon="4.690158">
        <ele>148.620501</ele>
        <time>2017-06-06T13:27:20.000Z</time>
      </trkpt>
      <trkpt lat="44.483036" lon="4.690273">
        <ele>148.645916</ele>
        <time>2017-06-06T13:27:27.000Z</time>
      </trkpt>
      <trkpt lat="44.482937" lon="4.690321">
        <ele>148.669722</ele>
        <time>2017-06-06T13:27:32.000Z</time>
      </trkpt>
      <trkpt lat="44.482838" lon="4.690344">
        <ele>148.692527</ele>
        <time>2017-06-06T13:27:37.000Z</time>
      </trkpt>
      <trkpt lat="44.482746" lon="4.690382">
        <ele>148.714322</ele>
        <time>2017-06-06T13:27:42.000Z</time>
      </trkpt>
      <trkpt lat="44.482655" lon="4.690415">
        <ele>148.735683</ele>
        <time>2017-06-06T13:27:47.000Z</time>
      </trkpt>
      <trkpt lat="44.482555" lon="4.690446">
        <ele>148.758957</ele>
        <time>2017-06-06T13:27:53.000Z</time>
      </trkpt>
      <trkpt lat="44.482468" lon="4.690473">
        <ele>148.779207</ele>
        <time>2017-06-06T13:27:59.000Z</time>
      </trkpt>
      <trkpt lat="44.482452" lon="4.690614">
        <ele>148.802355</ele>
        <time>2017-06-06T13:28:07.000Z</time>
      </trkpt>
      <trkpt lat="44.482414" lon="4.690733">
        <ele>148.823493</ele>
        <time>2017-06-06T13:28:15.000Z</time>
      </trkpt>
      <trkpt lat="44.482320" lon="4.690810">
        <ele>148.393886</ele>
        <time>2017-06-06T13:28:21.000Z</time>
      </trkpt>
      <trkpt lat="44.482243" lon="4.690882">
        <ele>148.024477</ele>
        <time>2017-06-06T13:28:25.000Z</time>
      </trkpt>
      <trkpt lat="44.482140" lon="4.690954">
        <ele>147.565128</ele>
        <time>2017-06-06T13:28:29.000Z</time>
      </trkpt>
      <trkpt lat="44.482063" lon="4.691028">
        <ele>147.192529</ele>
        <time>2017-06-06T13:28:32.000Z</time>
      </trkpt>
      <trkpt lat="44.482000" lon="4.691125">
        <ele>146.819032</ele>
        <time>2017-06-06T13:28:35.000Z</time>
      </trkpt>
      <trkpt lat="44.481968" lon="4.691262">
        <ele>146.408567</ele>
        <time>2017-06-06T13:28:38.000Z</time>
      </trkpt>
      <trkpt lat="44.481860" lon="4.691299">
        <ele>145.964861</ele>
        <time>2017-06-06T13:28:42.000Z</time>
      </trkpt>
      <trkpt lat="44.481762" lon="4.691268">
        <ele>145.563916</ele>
        <time>2017-06-06T13:28:46.000Z</time>
      </trkpt>
      <trkpt lat="44.481667" lon="4.691224">
        <ele>145.164616</ele>
        <time>2017-06-06T13:28:50.000Z</time>
      </trkpt>
      <trkpt lat="44.481583" lon="4.691134">
        <ele>144.742650</ele>
        <time>2017-06-06T13:28:54.000Z</time>
      </trkpt>
      <trkpt lat="44.481533" lon="4.691021">
        <ele>144.364039</ele>
        <time>2017-06-06T13:28:59.000Z</time>
      </trkpt>
      <trkpt lat="44.481440" lon="4.691050">
        <ele>143.983811</ele>
        <time>2017-06-06T13:29:07.000Z</time>
      </trkpt>
      <trkpt lat="44.481373" lon="4.691167">
        <ele>143.556628</ele>
        <time>2017-06-06T13:29:13.000Z</time>
      </trkpt>
      <trkpt lat="44.481304" lon="4.691274">
        <ele>143.145950</ele>
        <time>2017-06-06T13:29:16.000Z</time>
      </trkpt>
      <trkpt lat="44.481216" lon="4.691234">
        <ele>142.776744</ele>
        <time>2017-06-06T13:29:21.000Z</time>
      </trkpt>
      <trkpt lat="44.481148" lon="4.691141">
        <ele>142.397571</ele>
        <time>2017-06-06T13:29:25.000Z</time>
      </trkpt>
      <trkpt lat="44.481083" lon="4.691037">
        <ele>142.003886</ele>
        <time>2017-06-06T13:29:29.000Z</time>
      </trkpt>
      <trkpt lat="44.481026" lon="4.690899">
        <ele>141.395837</ele>
        <time>2017-06-06T13:29:33.000Z</time>
      </trkpt>
      <trkpt lat="44.480976" lon="4.690791">
        <ele>140.439367</ele>
        <time>2017-06-06T13:29:37.000Z</time>
      </trkpt>
      <trkpt lat="44.480923" lon="4.690654">
        <ele>139.281571</ele>
        <time>2017-06-06T13:29:41.000Z</time>
      </trkpt>
      <trkpt lat="44.480877" lon="4.690544">
        <ele>138.334329</ele>
        <time>2017-06-06T13:29:44.000Z</time>
      </trkpt>
      <trkpt lat="44.480820" lon="4.690399">
        <ele>137.104403</ele>
        <time>2017-06-06T13:29:48.000Z</time>
      </trkpt>
      <trkpt lat="44.480740" lon="4.690323">
        <ele>136.098069</ele>
        <time>2017-06-06T13:29:52.000Z</time>
      </trkpt>
      <trkpt lat="44.480694" lon="4.690212">
        <ele>135.144408</ele>
        <time>2017-06-06T13:29:58.000Z</time>
      </trkpt>
      <trkpt lat="44.480620" lon="4.690289">
        <ele>134.184736</ele>
        <time>2017-06-06T13:30:08.000Z</time>
      </trkpt>
      <trkpt lat="44.480520" lon="4.690230">
        <ele>133.054974</ele>
        <time>2017-06-06T13:30:48.000Z</time>
      </trkpt>
      <trkpt lat="44.480473" lon="4.690355">
        <ele>132.005250</ele>
        <time>2017-06-06T13:30:55.000Z</time>
      </trkpt>
      <trkpt lat="44.480460" lon="4.690485">
        <ele>131.030000</ele>
        <time>2017-06-06T13:31:04.000Z</time>
      </trkpt>
      <trkpt lat="44.480362" lon="4.690527">
        <ele>129.962921</ele>
        <time>2017-06-06T13:31:12.000Z</time>
      </trkpt>
      <trkpt lat="44.480408" lon="4.690668">
        <ele>128.811075</ele>
        <time>2017-06-06T13:31:19.000Z</time>
      </trkpt>
      <trkpt lat="44.480446" lon="4.690786">
        <ele>127.849257</ele>
        <time>2017-06-06T13:31:22.000Z</time>
      </trkpt>
      <trkpt lat="44.480490" lon="4.690916">
        <ele>126.780288</ele>
        <time>2017-06-06T13:31:25.000Z</time>
      </trkpt>
      <trkpt lat="44.480530" lon="4.691051">
        <ele>125.694287</ele>
        <time>2017-06-06T13:31:28.000Z</time>
      </trkpt>
      <trkpt lat="44.480564" lon="4.691186">
        <ele>124.630682</ele>
        <time>2017-06-06T13:31:31.000Z</time>
      </trkpt>
      <trkpt lat="44.480606" lon="4.691338">
        <ele>123.419704</ele>
        <time>2017-06-06T13:31:35.000Z</time>
      </trkpt>
      <trkpt lat="44.480644" lon="4.691488">
        <ele>122.630498</ele>
        <time>2017-06-06T13:31:39.000Z</time>
      </trkpt>
      <trkpt lat="44.480682" lon="4.691608">
        <ele>122.219510</ele>
        <time>2017-06-06T13:31:43.000Z</time>
      </trkpt>
      <trkpt lat="44.480717" lon="4.691742">
        <ele>121.772809</ele>
        <time>2017-06-06T13:31:47.000Z</time>
      </trkpt>
      <trkpt lat="44.480760" lon="4.691882">
        <ele>121.295667</ele>
        <time>2017-06-06T13:31:50.000Z</time>
      </trkpt>
      <trkpt lat="44.480797" lon="4.692007">
        <ele>120.872026</ele>
        <time>2017-06-06T13:31:52.000Z</time>
      </trkpt>
      <trkpt lat="44.480835" lon="4.692152">
        <ele>120.388464</ele>
        <time>2017-06-06T13:31:54.000Z</time>
      </trkpt>
      <trkpt lat="44.480880" lon="4.692308">
        <ele>119.861717</ele>
        <time>2017-06-06T13:31:56.000Z</time>
      </trkpt>
      <trkpt lat="44.480910" lon="4.692464">
        <ele>119.355945</ele>
        <time>2017-06-06T13:31:58.000Z</time>
      </trkpt>
      <trkpt lat="44.480950" lon="4.692602">
        <ele>118.889660</ele>
        <time>2017-06-06T13:32:00.000Z</time>
      </trkpt>
      <trkpt lat="44.481000" lon="4.692755">
        <ele>118.362857</ele>
        <time>2017-06-06T13:32:03.000Z</time>
      </trkpt>
      <trkpt lat="44.481003" lon="4.692891">
        <ele>117.936918</ele>
        <time>2017-06-06T13:32:08.000Z</time>
      </trkpt>
      <trkpt lat="44.480910" lon="4.692889">
        <ele>117.528832</ele>
        <time>2017-06-06T13:32:23.000Z</time>
      </trkpt>
      <trkpt lat="44.480804" lon="4.692951">
        <ele>117.024884</ele>
        <time>2017-06-06T13:32:29.000Z</time>
      </trkpt>
      <trkpt lat="44.480713" lon="4.692984">
        <ele>116.612473</ele>
        <time>2017-06-06T13:32:32.000Z</time>
      </trkpt>
      <trkpt lat="44.480620" lon="4.693021">
        <ele>116.188315</ele>
        <time>2017-06-06T13:32:35.000Z</time>
      </trkpt>
      <trkpt lat="44.480515" lon="4.693067">
        <ele>115.705646</ele>
        <time>2017-06-06T13:32:38.000Z</time>
      </trkpt>
      <trkpt lat="44.480408" lon="4.693149">
        <ele>115.170587</ele>
        <time>2017-06-06T13:32:41.000Z</time>
      </trkpt>
      <trkpt lat="44.480297" lon="4.693242">
        <ele>115.002450</ele>
        <time>2017-06-06T13:32:44.000Z</time>
      </trkpt>
      <trkpt lat="44.480220" lon="4.693319">
        <ele>114.979908</ele>
        <time>2017-06-06T13:32:46.000Z</time>
      </trkpt>
      <trkpt lat="44.480145" lon="4.693399">
        <ele>114.957448</ele>
        <time>2017-06-06T13:32:48.000Z</time>
      </trkpt>
      <trkpt lat="44.480072" lon="4.693483">
        <ele>114.934939</ele>
        <time>2017-06-06T13:32:50.000Z</time>
      </trkpt>
      <trkpt lat="44.479990" lon="4.693561">
        <ele>114.911322</ele>
        <time>2017-06-06T13:32:52.000Z</time>
      </trkpt>
      <trkpt lat="44.479890" lon="4.693605">
        <ele>114.886345</ele>
        <time>2017-06-06T13:32:54.000Z</time>
      </trkpt>
      <trkpt lat="44.479794" lon="4.693649">
        <ele>114.862275</ele>
        <time>2017-06-06T13:32:56.000Z</time>
      </trkpt>
      <trkpt lat="44.479690" lon="4.693684">
        <ele>114.836786</ele>
        <time>2017-06-06T13:32:58.000Z</time>
      </trkpt>
      <trkpt lat="44.479600" lon="4.693708">
        <ele>114.814953</ele>
        <time>2017-06-06T13:33:00.000Z</time>
      </trkpt>
      <trkpt lat="44.479470" lon="4.693757">
        <ele>114.782872</ele>
        <time>2017-06-06T13:33:03.000Z</time>
      </trkpt>
      <trkpt lat="44.479347" lon="4.693803">
        <ele>114.752535</ele>
        <time>2017-06-06T13:33:06.000Z</time>
      </trkpt>
      <trkpt lat="44.479230" lon="4.693856">
        <ele>114.723232</ele>
        <time>2017-06-06T13:33:09.000Z</time>
      </trkpt>
      <trkpt lat="44.479126" lon="4.693917">
        <ele>114.696365</ele>
        <time>2017-06-06T13:33:12.000Z</time>
      </trkpt>
      <trkpt lat="44.479020" lon="4.693979">
        <ele>114.668993</ele>
        <time>2017-06-06T13:33:15.000Z</time>
      </trkpt>
      <trkpt lat="44.478912" lon="4.694031">
        <ele>114.641779</ele>
        <time>2017-06-06T13:33:18.000Z</time>
      </trkpt>
      <trkpt lat="44.478820" lon="4.694077">
        <ele>114.618501</ele>
        <time>2017-06-06T13:33:21.000Z</time>
      </trkpt>
      <trkpt lat="44.478725" lon="4.694120">
        <ele>114.592144</ele>
        <time>2017-06-06T13:33:27.000Z</time>
      </trkpt>
      <trkpt lat="44.478630" lon="4.694139">
        <ele>114.540475</ele>
        <time>2017-06-06T13:33:32.000Z</time>
      </trkpt>
      <trkpt lat="44.478527" lon="4.694161">
        <ele>114.484376</ele>
        <time>2017-06-06T13:33:36.000Z</time>
      </trkpt>
      <trkpt lat="44.478430" lon="4.694161">
        <ele>114.432148</ele>
        <time>2017-06-06T13:33:39.000Z</time>
      </trkpt>
      <trkpt lat="44.478317" lon="4.694167">
        <ele>114.371261</ele>
        <time>2017-06-06T13:33:42.000Z</time>
      </trkpt>
      <trkpt lat="44.478200" lon="4.694172">
        <ele>114.308235</ele>
        <time>2017-06-06T13:33:45.000Z</time>
      </trkpt>
      <trkpt lat="44.478080" lon="4.694188">
        <ele>114.243331</ele>
        <time>2017-06-06T13:33:48.000Z</time>
      </trkpt>
      <trkpt lat="44.477974" lon="4.694261">
        <ele>114.179738</ele>
        <time>2017-06-06T13:33:51.000Z</time>
      </trkpt>
      <trkpt lat="44.477886" lon="4.694314">
        <ele>114.128166</ele>
        <time>2017-06-06T13:33:53.000Z</time>
      </trkpt>
      <trkpt lat="44.477780" lon="4.694369">
        <ele>114.067306</ele>
        <time>2017-06-06T13:33:56.000Z</time>
      </trkpt>
      <trkpt lat="44.477665" lon="4.694424">
        <ele>114.001880</ele>
        <time>2017-06-06T13:33:59.000Z</time>
      </trkpt>
      <trkpt lat="44.477570" lon="4.694497">
        <ele>113.943544</ele>
        <time>2017-06-06T13:34:02.000Z</time>
      </trkpt>
      <trkpt lat="44.477460" lon="4.694553">
        <ele>113.880530</ele>
        <time>2017-06-06T13:34:05.000Z</time>
      </trkpt>
      <trkpt lat="44.477350" lon="4.694642">
        <ele>113.812141</ele>
        <time>2017-06-06T13:34:08.000Z</time>
      </trkpt>
      <trkpt lat="44.477238" lon="4.694735">
        <ele>113.742046</ele>
        <time>2017-06-06T13:34:11.000Z</time>
      </trkpt>
      <trkpt lat="44.477140" lon="4.694843">
        <ele>113.674920</ele>
        <time>2017-06-06T13:34:14.000Z</time>
      </trkpt>
      <trkpt lat="44.477043" lon="4.694959">
        <ele>113.598540</ele>
        <time>2017-06-06T13:34:17.000Z</time>
      </trkpt>
      <trkpt lat="44.476930" lon="4.695043">
        <ele>113.505530</ele>
        <time>2017-06-06T13:34:20.000Z</time>
      </trkpt>
      <trkpt lat="44.476837" lon="4.695066">
        <ele>113.436861</ele>
        <time>2017-06-06T13:34:22.000Z</time>
      </trkpt>
      <trkpt lat="44.476730" lon="4.695080">
        <ele>113.358718</ele>
        <time>2017-06-06T13:34:24.000Z</time>
      </trkpt>
      <trkpt lat="44.476620" lon="4.695104">
        <ele>113.277769</ele>
        <time>2017-06-06T13:34:26.000Z</time>
      </trkpt>
      <trkpt lat="44.476513" lon="4.695120">
        <ele>113.199523</ele>
        <time>2017-06-06T13:34:28.000Z</time>
      </trkpt>
      <trkpt lat="44.476406" lon="4.695121">
        <ele>113.121717</ele>
        <time>2017-06-06T13:34:30.000Z</time>
      </trkpt>
      <trkpt lat="44.476307" lon="4.695108">
        <ele>113.049415</ele>
        <time>2017-06-06T13:34:32.000Z</time>
      </trkpt>
      <trkpt lat="44.476208" lon="4.695104">
        <ele>112.977398</ele>
        <time>2017-06-06T13:34:34.000Z</time>
      </trkpt>
      <trkpt lat="44.476112" lon="4.695099">
        <ele>112.907544</ele>
        <time>2017-06-06T13:34:36.000Z</time>
      </trkpt>
      <trkpt lat="44.476013" lon="4.695100">
        <ele>112.835555</ele>
        <time>2017-06-06T13:34:38.000Z</time>
      </trkpt>
      <trkpt lat="44.475920" lon="4.695071">
        <ele>112.766277</ele>
        <time>2017-06-06T13:34:40.000Z</time>
      </trkpt>
      <trkpt lat="44.475822" lon="4.695068">
        <ele>112.695000</ele>
        <time>2017-06-06T13:34:42.000Z</time>
      </trkpt>
      <trkpt lat="44.475730" lon="4.695078">
        <ele>112.627902</ele>
        <time>2017-06-06T13:34:44.000Z</time>
      </trkpt>
      <trkpt lat="44.475647" lon="4.695124">
        <ele>112.563001</ele>
        <time>2017-06-06T13:34:46.000Z</time>
      </trkpt>
      <trkpt lat="44.475555" lon="4.695180">
        <ele>112.490067</ele>
        <time>2017-06-06T13:34:48.000Z</time>
      </trkpt>
      <trkpt lat="44.475464" lon="4.695234">
        <ele>112.418210</ele>
        <time>2017-06-06T13:34:50.000Z</time>
      </trkpt>
      <trkpt lat="44.475370" lon="4.695277">
        <ele>112.346309</ele>
        <time>2017-06-06T13:34:52.000Z</time>
      </trkpt>
      <trkpt lat="44.475270" lon="4.695325">
        <ele>112.259928</ele>
        <time>2017-06-06T13:34:54.000Z</time>
      </trkpt>
      <trkpt lat="44.475166" lon="4.695352">
        <ele>112.168656</ele>
        <time>2017-06-06T13:34:56.000Z</time>
      </trkpt>
      <trkpt lat="44.475075" lon="4.695383">
        <ele>112.087842</ele>
        <time>2017-06-06T13:34:58.000Z</time>
      </trkpt>
      <trkpt lat="44.474970" lon="4.695428">
        <ele>111.993092</ele>
        <time>2017-06-06T13:35:00.000Z</time>
      </trkpt>
      <trkpt lat="44.474870" lon="4.695474">
        <ele>111.902269</ele>
        <time>2017-06-06T13:35:02.000Z</time>
      </trkpt>
      <trkpt lat="44.474760" lon="4.695522">
        <ele>111.802851</ele>
        <time>2017-06-06T13:35:04.000Z</time>
      </trkpt>
      <trkpt lat="44.474650" lon="4.695573">
        <ele>111.702868</ele>
        <time>2017-06-06T13:35:06.000Z</time>
      </trkpt>
      <trkpt lat="44.474552" lon="4.695612">
        <ele>111.614957</ele>
        <time>2017-06-06T13:35:08.000Z</time>
      </trkpt>
      <trkpt lat="44.474460" lon="4.695656">
        <ele>111.531072</ele>
        <time>2017-06-06T13:35:10.000Z</time>
      </trkpt>
      <trkpt lat="44.474377" lon="4.695717">
        <ele>111.450197</ele>
        <time>2017-06-06T13:35:12.000Z</time>
      </trkpt>
      <trkpt lat="44.474262" lon="4.695776">
        <ele>111.344518</ele>
        <time>2017-06-06T13:35:15.000Z</time>
      </trkpt>
      <trkpt lat="44.474155" lon="4.695799">
        <ele>111.251104</ele>
        <time>2017-06-06T13:35:18.000Z</time>
      </trkpt>
      <trkpt lat="44.474045" lon="4.695840">
        <ele>111.152882</ele>
        <time>2017-06-06T13:35:21.000Z</time>
      </trkpt>
      <trkpt lat="44.473923" lon="4.695886">
        <ele>111.043860</ele>
        <time>2017-06-06T13:35:24.000Z</time>
      </trkpt>
      <trkpt lat="44.473816" lon="4.695933">
        <ele>110.947096</ele>
        <time>2017-06-06T13:35:27.000Z</time>
      </trkpt>
      <trkpt lat="44.473700" lon="4.695987">
        <ele>110.841618</ele>
        <time>2017-06-06T13:35:30.000Z</time>
      </trkpt>
      <trkpt lat="44.473583" lon="4.696047">
        <ele>110.744749</ele>
        <time>2017-06-06T13:35:33.000Z</time>
      </trkpt>
      <trkpt lat="44.473476" lon="4.696114">
        <ele>110.675081</ele>
        <time>2017-06-06T13:35:36.000Z</time>
      </trkpt>
      <trkpt lat="44.473370" lon="4.696172">
        <ele>110.607434</ele>
        <time>2017-06-06T13:35:39.000Z</time>
      </trkpt>
      <trkpt lat="44.473255" lon="4.696240">
        <ele>110.533234</ele>
        <time>2017-06-06T13:35:42.000Z</time>
      </trkpt>
      <trkpt lat="44.473170" lon="4.696288">
        <ele>110.478756</ele>
        <time>2017-06-06T13:35:44.000Z</time>
      </trkpt>
      <trkpt lat="44.473045" lon="4.696343">
        <ele>110.400871</ele>
        <time>2017-06-06T13:35:47.000Z</time>
      </trkpt>
      <trkpt lat="44.472935" lon="4.696378">
        <ele>110.333816</ele>
        <time>2017-06-06T13:35:50.000Z</time>
      </trkpt>
      <trkpt lat="44.472816" lon="4.696403">
        <ele>110.262284</ele>
        <time>2017-06-06T13:35:53.000Z</time>
      </trkpt>
      <trkpt lat="44.472706" lon="4.696408">
        <ele>110.196858</ele>
        <time>2017-06-06T13:35:56.000Z</time>
      </trkpt>
      <trkpt lat="44.472603" lon="4.696408">
        <ele>110.135628</ele>
        <time>2017-06-06T13:35:59.000Z</time>
      </trkpt>
      <trkpt lat="44.472492" lon="4.696418">
        <ele>110.069506</ele>
        <time>2017-06-06T13:36:03.000Z</time>
      </trkpt>
      <trkpt lat="44.472397" lon="4.696427">
        <ele>110.012902</ele>
        <time>2017-06-06T13:36:06.000Z</time>
      </trkpt>
      <trkpt lat="44.472270" lon="4.696439">
        <ele>109.937234</ele>
        <time>2017-06-06T13:36:09.000Z</time>
      </trkpt>
      <trkpt lat="44.472170" lon="4.696444">
        <ele>109.877749</ele>
        <time>2017-06-06T13:36:11.000Z</time>
      </trkpt>
      <trkpt lat="44.472070" lon="4.696448">
        <ele>109.818278</ele>
        <time>2017-06-06T13:36:13.000Z</time>
      </trkpt>
      <trkpt lat="44.471954" lon="4.696464">
        <ele>109.748987</ele>
        <time>2017-06-06T13:36:15.000Z</time>
      </trkpt>
      <trkpt lat="44.471844" lon="4.696469">
        <ele>109.654236</ele>
        <time>2017-06-06T13:36:17.000Z</time>
      </trkpt>
      <trkpt lat="44.471733" lon="4.696487">
        <ele>109.462298</ele>
        <time>2017-06-06T13:36:19.000Z</time>
      </trkpt>
      <trkpt lat="44.471615" lon="4.696495">
        <ele>109.259372</ele>
        <time>2017-06-06T13:36:21.000Z</time>
      </trkpt>
      <trkpt lat="44.471497" lon="4.696501">
        <ele>109.056550</ele>
        <time>2017-06-06T13:36:23.000Z</time>
      </trkpt>
      <trkpt lat="44.471382" lon="4.696502">
        <ele>108.859010</ele>
        <time>2017-06-06T13:36:25.000Z</time>
      </trkpt>
      <trkpt lat="44.471268" lon="4.696501">
        <ele>108.663188</ele>
        <time>2017-06-06T13:36:27.000Z</time>
      </trkpt>
      <trkpt lat="44.471160" lon="4.696484">
        <ele>108.476510</ele>
        <time>2017-06-06T13:36:29.000Z</time>
      </trkpt>
      <trkpt lat="44.471058" lon="4.696464">
        <ele>108.299597</ele>
        <time>2017-06-06T13:36:31.000Z</time>
      </trkpt>
      <trkpt lat="44.470924" lon="4.696472">
        <ele>108.069216</ele>
        <time>2017-06-06T13:36:33.000Z</time>
      </trkpt>
      <trkpt lat="44.470802" lon="4.696469">
        <ele>107.859624</ele>
        <time>2017-06-06T13:36:35.000Z</time>
      </trkpt>
      <trkpt lat="44.470676" lon="4.696467">
        <ele>107.643179</ele>
        <time>2017-06-06T13:36:37.000Z</time>
      </trkpt>
      <trkpt lat="44.470550" lon="4.696476">
        <ele>107.426468</ele>
        <time>2017-06-06T13:36:39.000Z</time>
      </trkpt>
      <trkpt lat="44.470432" lon="4.696480">
        <ele>107.223720</ele>
        <time>2017-06-06T13:36:41.000Z</time>
      </trkpt>
      <trkpt lat="44.470318" lon="4.696487">
        <ele>107.027713</ele>
        <time>2017-06-06T13:36:43.000Z</time>
      </trkpt>
      <trkpt lat="44.470200" lon="4.696497">
        <ele>106.824654</ele>
        <time>2017-06-06T13:36:45.000Z</time>
      </trkpt>
      <trkpt lat="44.470085" lon="4.696505">
        <ele>106.626875</ele>
        <time>2017-06-06T13:36:47.000Z</time>
      </trkpt>
      <trkpt lat="44.469967" lon="4.696512">
        <ele>106.622456</ele>
        <time>2017-06-06T13:36:49.000Z</time>
      </trkpt>
      <trkpt lat="44.469856" lon="4.696518">
        <ele>106.635733</ele>
        <time>2017-06-06T13:36:51.000Z</time>
      </trkpt>
      <trkpt lat="44.469740" lon="4.696528">
        <ele>106.649625</ele>
        <time>2017-06-06T13:36:53.000Z</time>
      </trkpt>
      <trkpt lat="44.469635" lon="4.696532">
        <ele>106.662179</ele>
        <time>2017-06-06T13:36:55.000Z</time>
      </trkpt>
      <trkpt lat="44.469524" lon="4.696542">
        <ele>106.675474</ele>
        <time>2017-06-06T13:36:57.000Z</time>
      </trkpt>
      <trkpt lat="44.469420" lon="4.696558">
        <ele>106.687979</ele>
        <time>2017-06-06T13:36:59.000Z</time>
      </trkpt>
      <trkpt lat="44.469322" lon="4.696564">
        <ele>106.699704</ele>
        <time>2017-06-06T13:37:01.000Z</time>
      </trkpt>
      <trkpt lat="44.469220" lon="4.696575">
        <ele>106.711932</ele>
        <time>2017-06-06T13:37:03.000Z</time>
      </trkpt>
      <trkpt lat="44.469112" lon="4.696587">
        <ele>106.724881</ele>
        <time>2017-06-06T13:37:05.000Z</time>
      </trkpt>
      <trkpt lat="44.469006" lon="4.696593">
        <ele>106.737561</ele>
        <time>2017-06-06T13:37:07.000Z</time>
      </trkpt>
      <trkpt lat="44.468903" lon="4.696592">
        <ele>106.749872</ele>
        <time>2017-06-06T13:37:09.000Z</time>
      </trkpt>
      <trkpt lat="44.468792" lon="4.696597">
        <ele>106.763146</ele>
        <time>2017-06-06T13:37:11.000Z</time>
      </trkpt>
      <trkpt lat="44.468685" lon="4.696605">
        <ele>106.775954</ele>
        <time>2017-06-06T13:37:13.000Z</time>
      </trkpt>
      <trkpt lat="44.468525" lon="4.696612">
        <ele>106.795087</ele>
        <time>2017-06-06T13:37:16.000Z</time>
      </trkpt>
      <trkpt lat="44.468420" lon="4.696619">
        <ele>106.807651</ele>
        <time>2017-06-06T13:37:18.000Z</time>
      </trkpt>
      <trkpt lat="44.468315" lon="4.696649">
        <ele>106.820460</ele>
        <time>2017-06-06T13:37:20.000Z</time>
      </trkpt>
      <trkpt lat="44.468212" lon="4.696675">
        <ele>106.858523</ele>
        <time>2017-06-06T13:37:22.000Z</time>
      </trkpt>
      <trkpt lat="44.468113" lon="4.696695">
        <ele>106.906675</ele>
        <time>2017-06-06T13:37:24.000Z</time>
      </trkpt>
      <trkpt lat="44.468010" lon="4.696736">
        <ele>106.958221</ele>
        <time>2017-06-06T13:37:26.000Z</time>
      </trkpt>
      <trkpt lat="44.467910" lon="4.696771">
        <ele>107.007840</ele>
        <time>2017-06-06T13:37:28.000Z</time>
      </trkpt>
      <trkpt lat="44.467820" lon="4.696802">
        <ele>107.052456</ele>
        <time>2017-06-06T13:37:30.000Z</time>
      </trkpt>
      <trkpt lat="44.467693" lon="4.696855">
        <ele>107.116248</ele>
        <time>2017-06-06T13:37:33.000Z</time>
      </trkpt>
      <trkpt lat="44.467606" lon="4.696896">
        <ele>107.160435</ele>
        <time>2017-06-06T13:37:35.000Z</time>
      </trkpt>
      <trkpt lat="44.467510" lon="4.696924">
        <ele>107.207640</ele>
        <time>2017-06-06T13:37:37.000Z</time>
      </trkpt>
      <trkpt lat="44.467384" lon="4.696968">
        <ele>107.270152</ele>
        <time>2017-06-06T13:37:40.000Z</time>
      </trkpt>
      <trkpt lat="44.467293" lon="4.696998">
        <ele>107.315156</ele>
        <time>2017-06-06T13:37:42.000Z</time>
      </trkpt>
      <trkpt lat="44.467205" lon="4.697026">
        <ele>107.358597</ele>
        <time>2017-06-06T13:37:44.000Z</time>
      </trkpt>
      <trkpt lat="44.467100" lon="4.697073">
        <ele>107.411661</ele>
        <time>2017-06-06T13:37:46.000Z</time>
      </trkpt>
      <trkpt lat="44.466984" lon="4.697109">
        <ele>107.468857</ele>
        <time>2017-06-06T13:37:48.000Z</time>
      </trkpt>
      <trkpt lat="44.466877" lon="4.697142">
        <ele>107.521600</ele>
        <time>2017-06-06T13:37:50.000Z</time>
      </trkpt>
      <trkpt lat="44.466778" lon="4.697181">
        <ele>107.571106</ele>
        <time>2017-06-06T13:37:52.000Z</time>
      </trkpt>
      <trkpt lat="44.466670" lon="4.697218">
        <ele>107.624629</ele>
        <time>2017-06-06T13:37:54.000Z</time>
      </trkpt>
      <trkpt lat="44.466570" lon="4.697249">
        <ele>107.673933</ele>
        <time>2017-06-06T13:37:56.000Z</time>
      </trkpt>
      <trkpt lat="44.466465" lon="4.697287">
        <ele>107.730062</ele>
        <time>2017-06-06T13:37:59.000Z</time>
      </trkpt>
      <trkpt lat="44.466347" lon="4.697328">
        <ele>107.795012</ele>
        <time>2017-06-06T13:38:02.000Z</time>
      </trkpt>
      <trkpt lat="44.466255" lon="4.697373">
        <ele>107.847070</ele>
        <time>2017-06-06T13:38:04.000Z</time>
      </trkpt>
      <trkpt lat="44.466164" lon="4.697417">
        <ele>107.898499</ele>
        <time>2017-06-06T13:38:06.000Z</time>
      </trkpt>
      <trkpt lat="44.466072" lon="4.697455">
        <ele>107.949740</ele>
        <time>2017-06-06T13:38:08.000Z</time>
      </trkpt>
      <trkpt lat="44.465942" lon="4.697496">
        <ele>108.020929</ele>
        <time>2017-06-06T13:38:11.000Z</time>
      </trkpt>
      <trkpt lat="44.465847" lon="4.697528">
        <ele>108.073128</ele>
        <time>2017-06-06T13:38:13.000Z</time>
      </trkpt>
      <trkpt lat="44.465748" lon="4.697558">
        <ele>108.127241</ele>
        <time>2017-06-06T13:38:15.000Z</time>
      </trkpt>
      <trkpt lat="44.465637" lon="4.697585">
        <ele>108.187428</ele>
        <time>2017-06-06T13:38:17.000Z</time>
      </trkpt>
      <trkpt lat="44.465530" lon="4.697602">
        <ele>108.244959</ele>
        <time>2017-06-06T13:38:19.000Z</time>
      </trkpt>
      <trkpt lat="44.465424" lon="4.697626">
        <ele>108.302323</ele>
        <time>2017-06-06T13:38:21.000Z</time>
      </trkpt>
      <trkpt lat="44.465324" lon="4.697646">
        <ele>108.356288</ele>
        <time>2017-06-06T13:38:23.000Z</time>
      </trkpt>
      <trkpt lat="44.465230" lon="4.697647">
        <ele>108.406508</ele>
        <time>2017-06-06T13:38:25.000Z</time>
      </trkpt>
      <trkpt lat="44.465130" lon="4.697656">
        <ele>108.460043</ele>
        <time>2017-06-06T13:38:27.000Z</time>
      </trkpt>
      <trkpt lat="44.465030" lon="4.697675">
        <ele>108.513956</ele>
        <time>2017-06-06T13:38:29.000Z</time>
      </trkpt>
      <trkpt lat="44.464886" lon="4.697703">
        <ele>108.591624</ele>
        <time>2017-06-06T13:38:32.000Z</time>
      </trkpt>
      <trkpt lat="44.464767" lon="4.697697">
        <ele>108.662048</ele>
        <time>2017-06-06T13:38:34.000Z</time>
      </trkpt>
      <trkpt lat="44.464660" lon="4.697704">
        <ele>108.818379</ele>
        <time>2017-06-06T13:38:36.000Z</time>
      </trkpt>
      <trkpt lat="44.464565" lon="4.697729">
        <ele>108.959451</ele>
        <time>2017-06-06T13:38:38.000Z</time>
      </trkpt>
      <trkpt lat="44.464466" lon="4.697737">
        <ele>109.104177</ele>
        <time>2017-06-06T13:38:40.000Z</time>
      </trkpt>
      <trkpt lat="44.464375" lon="4.697752">
        <ele>109.237903</ele>
        <time>2017-06-06T13:38:42.000Z</time>
      </trkpt>
      <trkpt lat="44.464270" lon="4.697758">
        <ele>109.391272</ele>
        <time>2017-06-06T13:38:44.000Z</time>
      </trkpt>
      <trkpt lat="44.464172" lon="4.697763">
        <ele>109.534393</ele>
        <time>2017-06-06T13:38:46.000Z</time>
      </trkpt>
      <trkpt lat="44.464046" lon="4.697760">
        <ele>109.718311</ele>
        <time>2017-06-06T13:38:49.000Z</time>
      </trkpt>
      <trkpt lat="44.463947" lon="4.697772">
        <ele>109.863336</ele>
        <time>2017-06-06T13:38:52.000Z</time>
      </trkpt>
      <trkpt lat="44.463833" lon="4.697781">
        <ele>110.029978</ele>
        <time>2017-06-06T13:38:56.000Z</time>
      </trkpt>
      <trkpt lat="44.463707" lon="4.697774">
        <ele>110.214013</ele>
        <time>2017-06-06T13:39:00.000Z</time>
      </trkpt>
      <trkpt lat="44.463580" lon="4.697781">
        <ele>110.399507</ele>
        <time>2017-06-06T13:39:03.000Z</time>
      </trkpt>
      <trkpt lat="44.463490" lon="4.697784">
        <ele>110.530895</ele>
        <time>2017-06-06T13:39:05.000Z</time>
      </trkpt>
      <trkpt lat="44.463398" lon="4.697795">
        <ele>110.665652</ele>
        <time>2017-06-06T13:39:07.000Z</time>
      </trkpt>
      <trkpt lat="44.463264" lon="4.697815">
        <ele>110.862325</ele>
        <time>2017-06-06T13:39:10.000Z</time>
      </trkpt>
      <trkpt lat="44.463173" lon="4.697816">
        <ele>110.995139</ele>
        <time>2017-06-06T13:39:12.000Z</time>
      </trkpt>
      <trkpt lat="44.463036" lon="4.697830">
        <ele>111.195615</ele>
        <time>2017-06-06T13:39:15.000Z</time>
      </trkpt>
      <trkpt lat="44.462930" lon="4.697833">
        <ele>111.282717</ele>
        <time>2017-06-06T13:39:17.000Z</time>
      </trkpt>
      <trkpt lat="44.462830" lon="4.697850">
        <ele>111.295382</ele>
        <time>2017-06-06T13:39:19.000Z</time>
      </trkpt>
      <trkpt lat="44.462723" lon="4.697852">
        <ele>111.308836</ele>
        <time>2017-06-06T13:39:21.000Z</time>
      </trkpt>
      <trkpt lat="44.462620" lon="4.697854">
        <ele>111.321788</ele>
        <time>2017-06-06T13:39:23.000Z</time>
      </trkpt>
      <trkpt lat="44.462517" lon="4.697858">
        <ele>111.334743</ele>
        <time>2017-06-06T13:39:25.000Z</time>
      </trkpt>
      <trkpt lat="44.462414" lon="4.697869">
        <ele>111.347730</ele>
        <time>2017-06-06T13:39:27.000Z</time>
      </trkpt>
      <trkpt lat="44.462322" lon="4.697872">
        <ele>111.359301</ele>
        <time>2017-06-06T13:39:29.000Z</time>
      </trkpt>
      <trkpt lat="44.462220" lon="4.697875">
        <ele>111.372128</ele>
        <time>2017-06-06T13:39:31.000Z</time>
      </trkpt>
      <trkpt lat="44.462112" lon="4.697884">
        <ele>111.385731</ele>
        <time>2017-06-06T13:39:33.000Z</time>
      </trkpt>
      <trkpt lat="44.462006" lon="4.697894">
        <ele>111.399088</ele>
        <time>2017-06-06T13:39:35.000Z</time>
      </trkpt>
      <trkpt lat="44.461906" lon="4.697911">
        <ele>111.411753</ele>
        <time>2017-06-06T13:39:37.000Z</time>
      </trkpt>
      <trkpt lat="44.461803" lon="4.697940">
        <ele>111.424962</ele>
        <time>2017-06-06T13:39:39.000Z</time>
      </trkpt>
      <trkpt lat="44.461693" lon="4.697980">
        <ele>111.439251</ele>
        <time>2017-06-06T13:39:41.000Z</time>
      </trkpt>
      <trkpt lat="44.461582" lon="4.698010">
        <ele>111.453464</ele>
        <time>2017-06-06T13:39:43.000Z</time>
      </trkpt>
      <trkpt lat="44.461475" lon="4.698041">
        <ele>111.467202</ele>
        <time>2017-06-06T13:39:45.000Z</time>
      </trkpt>
      <trkpt lat="44.461370" lon="4.698078">
        <ele>111.480814</ele>
        <time>2017-06-06T13:39:47.000Z</time>
      </trkpt>
      <trkpt lat="44.461266" lon="4.698113">
        <ele>111.494262</ele>
        <time>2017-06-06T13:39:49.000Z</time>
      </trkpt>
      <trkpt lat="44.461163" lon="4.698127">
        <ele>111.473934</ele>
        <time>2017-06-06T13:39:51.000Z</time>
      </trkpt>
      <trkpt lat="44.461060" lon="4.698146">
        <ele>111.396073</ele>
        <time>2017-06-06T13:39:53.000Z</time>
      </trkpt>
      <trkpt lat="44.460957" lon="4.698168">
        <ele>111.317986</ele>
        <time>2017-06-06T13:39:55.000Z</time>
      </trkpt>
      <trkpt lat="44.460850" lon="4.698178">
        <ele>111.237615</ele>
        <time>2017-06-06T13:39:57.000Z</time>
      </trkpt>
      <trkpt lat="44.460750" lon="4.698180">
        <ele>111.162661</ele>
        <time>2017-06-06T13:39:59.000Z</time>
      </trkpt>
      <trkpt lat="44.460650" lon="4.698179">
        <ele>111.087712</ele>
        <time>2017-06-06T13:40:01.000Z</time>
      </trkpt>
      <trkpt lat="44.460560" lon="4.698176">
        <ele>111.020241</ele>
        <time>2017-06-06T13:40:03.000Z</time>
      </trkpt>
      <trkpt lat="44.460464" lon="4.698175">
        <ele>110.948290</ele>
        <time>2017-06-06T13:40:05.000Z</time>
      </trkpt>
      <trkpt lat="44.460360" lon="4.698164">
        <ele>110.870124</ele>
        <time>2017-06-06T13:40:07.000Z</time>
      </trkpt>
      <trkpt lat="44.460260" lon="4.698154">
        <ele>110.794987</ele>
        <time>2017-06-06T13:40:09.000Z</time>
      </trkpt>
      <trkpt lat="44.460150" lon="4.698138">
        <ele>110.712102</ele>
        <time>2017-06-06T13:40:11.000Z</time>
      </trkpt>
      <trkpt lat="44.460045" lon="4.698129">
        <ele>110.633261</ele>
        <time>2017-06-06T13:40:13.000Z</time>
      </trkpt>
      <trkpt lat="44.459938" lon="4.698116">
        <ele>110.552768</ele>
        <time>2017-06-06T13:40:15.000Z</time>
      </trkpt>
      <trkpt lat="44.459830" lon="4.698104">
        <ele>110.471571</ele>
        <time>2017-06-06T13:40:17.000Z</time>
      </trkpt>
      <trkpt lat="44.459724" lon="4.698087">
        <ele>110.391609</ele>
        <time>2017-06-06T13:40:19.000Z</time>
      </trkpt>
      <trkpt lat="44.459620" lon="4.698076">
        <ele>110.313443</ele>
        <time>2017-06-06T13:40:21.000Z</time>
      </trkpt>
      <trkpt lat="44.459520" lon="4.698057">
        <ele>110.237810</ele>
        <time>2017-06-06T13:40:23.000Z</time>
      </trkpt>
      <trkpt lat="44.459410" lon="4.698041">
        <ele>110.154926</ele>
        <time>2017-06-06T13:40:25.000Z</time>
      </trkpt>
      <trkpt lat="44.459316" lon="4.698025">
        <ele>110.159685</ele>
        <time>2017-06-06T13:40:27.000Z</time>
      </trkpt>
      <trkpt lat="44.459225" lon="4.697998">
        <ele>110.164849</ele>
        <time>2017-06-06T13:40:29.000Z</time>
      </trkpt>
      <trkpt lat="44.459095" lon="4.697968">
        <ele>110.172165</ele>
        <time>2017-06-06T13:40:32.000Z</time>
      </trkpt>
      <trkpt lat="44.459007" lon="4.697940">
        <ele>110.177175</ele>
        <time>2017-06-06T13:40:34.000Z</time>
      </trkpt>
      <trkpt lat="44.458910" lon="4.697916">
        <ele>110.182644</ele>
        <time>2017-06-06T13:40:36.000Z</time>
      </trkpt>
      <trkpt lat="44.458820" lon="4.697901">
        <ele>110.187677</ele>
        <time>2017-06-06T13:40:38.000Z</time>
      </trkpt>
      <trkpt lat="44.458730" lon="4.697883">
        <ele>110.192725</ele>
        <time>2017-06-06T13:40:40.000Z</time>
      </trkpt>
      <trkpt lat="44.458600" lon="4.697850">
        <ele>110.200060</ele>
        <time>2017-06-06T13:40:43.000Z</time>
      </trkpt>
      <trkpt lat="44.458500" lon="4.697827">
        <ele>110.205687</ele>
        <time>2017-06-06T13:40:45.000Z</time>
      </trkpt>
      <trkpt lat="44.458405" lon="4.697807">
        <ele>110.211021</ele>
        <time>2017-06-06T13:40:47.000Z</time>
      </trkpt>
      <trkpt lat="44.458317" lon="4.697775">
        <ele>110.216069</ele>
        <time>2017-06-06T13:40:49.000Z</time>
      </trkpt>
      <trkpt lat="44.458225" lon="4.697749">
        <ele>110.221280</ele>
        <time>2017-06-06T13:40:51.000Z</time>
      </trkpt>
      <trkpt lat="44.458134" lon="4.697724">
        <ele>110.226429</ele>
        <time>2017-06-06T13:40:53.000Z</time>
      </trkpt>
      <trkpt lat="44.458046" lon="4.697697">
        <ele>110.231431</ele>
        <time>2017-06-06T13:40:55.000Z</time>
      </trkpt>
      <trkpt lat="44.457930" lon="4.697658">
        <ele>110.238055</ele>
        <time>2017-06-06T13:40:58.000Z</time>
      </trkpt>
      <trkpt lat="44.457810" lon="4.697621">
        <ele>110.244877</ele>
        <time>2017-06-06T13:41:01.000Z</time>
      </trkpt>
      <trkpt lat="44.457676" lon="4.697591">
        <ele>110.252412</ele>
        <time>2017-06-06T13:41:04.000Z</time>
      </trkpt>
      <trkpt lat="44.457577" lon="4.697574">
        <ele>110.240856</ele>
        <time>2017-06-06T13:41:06.000Z</time>
      </trkpt>
      <trkpt lat="44.457478" lon="4.697549">
        <ele>110.220068</ele>
        <time>2017-06-06T13:41:08.000Z</time>
      </trkpt>
      <trkpt lat="44.457380" lon="4.697524">
        <ele>110.199484</ele>
        <time>2017-06-06T13:41:10.000Z</time>
      </trkpt>
      <trkpt lat="44.457287" lon="4.697502">
        <ele>110.179993</ele>
        <time>2017-06-06T13:41:12.000Z</time>
      </trkpt>
      <trkpt lat="44.457190" lon="4.697477">
        <ele>110.159612</ele>
        <time>2017-06-06T13:41:14.000Z</time>
      </trkpt>
      <trkpt lat="44.457096" lon="4.697459">
        <ele>110.140007</ele>
        <time>2017-06-06T13:41:16.000Z</time>
      </trkpt>
      <trkpt lat="44.456997" lon="4.697432">
        <ele>110.119165</ele>
        <time>2017-06-06T13:41:18.000Z</time>
      </trkpt>
      <trkpt lat="44.456905" lon="4.697406">
        <ele>110.099770</ele>
        <time>2017-06-06T13:41:20.000Z</time>
      </trkpt>
      <trkpt lat="44.456810" lon="4.697379">
        <ele>110.079739</ele>
        <time>2017-06-06T13:41:22.000Z</time>
      </trkpt>
      <trkpt lat="44.456707" lon="4.697344">
        <ele>110.057837</ele>
        <time>2017-06-06T13:41:24.000Z</time>
      </trkpt>
      <trkpt lat="44.456596" lon="4.697310">
        <ele>110.034358</ele>
        <time>2017-06-06T13:41:26.000Z</time>
      </trkpt>
      <trkpt lat="44.456493" lon="4.697279">
        <ele>110.012588</ele>
        <time>2017-06-06T13:41:28.000Z</time>
      </trkpt>
      <trkpt lat="44.456394" lon="4.697236">
        <ele>109.991169</ele>
        <time>2017-06-06T13:41:30.000Z</time>
      </trkpt>
      <trkpt lat="44.456290" lon="4.697187">
        <ele>109.968495</ele>
        <time>2017-06-06T13:41:32.000Z</time>
      </trkpt>
      <trkpt lat="44.456190" lon="4.697145">
        <ele>109.946922</ele>
        <time>2017-06-06T13:41:34.000Z</time>
      </trkpt>
      <trkpt lat="44.456090" lon="4.697110">
        <ele>109.925622</ele>
        <time>2017-06-06T13:41:36.000Z</time>
      </trkpt>
      <trkpt lat="44.455997" lon="4.697074">
        <ele>109.905683</ele>
        <time>2017-06-06T13:41:38.000Z</time>
      </trkpt>
      <trkpt lat="44.455906" lon="4.697045">
        <ele>109.886398</ele>
        <time>2017-06-06T13:41:40.000Z</time>
      </trkpt>
      <trkpt lat="44.455772" lon="4.697017">
        <ele>109.875518</ele>
        <time>2017-06-06T13:41:43.000Z</time>
      </trkpt>
      <trkpt lat="44.455677" lon="4.696991">
        <ele>109.869638</ele>
        <time>2017-06-06T13:41:45.000Z</time>
      </trkpt>
      <trkpt lat="44.455578" lon="4.696951">
        <ele>109.863378</ele>
        <time>2017-06-06T13:41:47.000Z</time>
      </trkpt>
      <trkpt lat="44.455482" lon="4.696908">
        <ele>109.857256</ele>
        <time>2017-06-06T13:41:49.000Z</time>
      </trkpt>
      <trkpt lat="44.455387" lon="4.696868">
        <ele>109.851229</ele>
        <time>2017-06-06T13:41:51.000Z</time>
      </trkpt>
      <trkpt lat="44.455260" lon="4.696803">
        <ele>109.843015</ele>
        <time>2017-06-06T13:41:54.000Z</time>
      </trkpt>
      <trkpt lat="44.455177" lon="4.696743">
        <ele>109.837341</ele>
        <time>2017-06-06T13:41:56.000Z</time>
      </trkpt>
      <trkpt lat="44.455093" lon="4.696685">
        <ele>109.831652</ele>
        <time>2017-06-06T13:41:58.000Z</time>
      </trkpt>
      <trkpt lat="44.455010" lon="4.696634">
        <ele>109.826146</ele>
        <time>2017-06-06T13:42:00.000Z</time>
      </trkpt>
      <trkpt lat="44.454920" lon="4.696587">
        <ele>109.820311</ele>
        <time>2017-06-06T13:42:02.000Z</time>
      </trkpt>
      <trkpt lat="44.454826" lon="4.696545">
        <ele>109.814317</ele>
        <time>2017-06-06T13:42:04.000Z</time>
      </trkpt>
      <trkpt lat="44.454735" lon="4.696507">
        <ele>109.808549</ele>
        <time>2017-06-06T13:42:06.000Z</time>
      </trkpt>
      <trkpt lat="44.454640" lon="4.696457">
        <ele>109.802383</ele>
        <time>2017-06-06T13:42:08.000Z</time>
      </trkpt>
      <trkpt lat="44.454520" lon="4.696376">
        <ele>109.794291</ele>
        <time>2017-06-06T13:42:11.000Z</time>
      </trkpt>
      <trkpt lat="44.454430" lon="4.696312">
        <ele>109.788160</ele>
        <time>2017-06-06T13:42:15.000Z</time>
      </trkpt>
      <trkpt lat="44.454468" lon="4.696451">
        <ele>109.781705</ele>
        <time>2017-06-06T13:42:21.000Z</time>
      </trkpt>
      <trkpt lat="44.454407" lon="4.696563">
        <ele>109.775596</ele>
        <time>2017-06-06T13:42:27.000Z</time>
      </trkpt>
      <trkpt lat="44.454468" lon="4.696458">
        <ele>109.841430</ele>
        <time>2017-06-06T13:55:30.000Z</time>
      </trkpt>
      <trkpt lat="44.454450" lon="4.696326">
        <ele>109.950024</ele>
        <time>2017-06-06T13:55:37.000Z</time>
      </trkpt>
      <trkpt lat="44.454357" lon="4.696256">
        <ele>110.069538</ele>
        <time>2017-06-06T13:55:42.000Z</time>
      </trkpt>
      <trkpt lat="44.454243" lon="4.696193">
        <ele>110.208270</ele>
        <time>2017-06-06T13:55:46.000Z</time>
      </trkpt>
      <trkpt lat="44.454132" lon="4.696153">
        <ele>110.338019</ele>
        <time>2017-06-06T13:55:49.000Z</time>
      </trkpt>
      <trkpt lat="44.454030" lon="4.696105">
        <ele>110.459828</ele>
        <time>2017-06-06T13:55:52.000Z</time>
      </trkpt>
      <trkpt lat="44.453938" lon="4.696088">
        <ele>110.564879</ele>
        <time>2017-06-06T13:55:55.000Z</time>
      </trkpt>
      <trkpt lat="44.453840" lon="4.696094">
        <ele>110.675926</ele>
        <time>2017-06-06T13:55:58.000Z</time>
      </trkpt>
      <trkpt lat="44.453712" lon="4.696098">
        <ele>110.820865</ele>
        <time>2017-06-06T13:56:01.000Z</time>
      </trkpt>
      <trkpt lat="44.453598" lon="4.696097">
        <ele>110.949921</ele>
        <time>2017-06-06T13:56:04.000Z</time>
      </trkpt>
      <trkpt lat="44.453487" lon="4.696106">
        <ele>111.075789</ele>
        <time>2017-06-06T13:56:07.000Z</time>
      </trkpt>
      <trkpt lat="44.453380" lon="4.696117">
        <ele>111.197245</ele>
        <time>2017-06-06T13:56:10.000Z</time>
      </trkpt>
      <trkpt lat="44.453260" lon="4.696131">
        <ele>111.333561</ele>
        <time>2017-06-06T13:56:13.000Z</time>
      </trkpt>
      <trkpt lat="44.453136" lon="4.696135">
        <ele>111.473973</ele>
        <time>2017-06-06T13:56:16.000Z</time>
      </trkpt>
      <trkpt lat="44.453030" lon="4.696138">
        <ele>111.593995</ele>
        <time>2017-06-06T13:56:19.000Z</time>
      </trkpt>
      <trkpt lat="44.452915" lon="4.696135">
        <ele>111.724203</ele>
        <time>2017-06-06T13:56:22.000Z</time>
      </trkpt>
      <trkpt lat="44.452790" lon="4.696076">
        <ele>111.960608</ele>
        <time>2017-06-06T13:56:25.000Z</time>
      </trkpt>
      <trkpt lat="44.452700" lon="4.696015">
        <ele>112.227817</ele>
        <time>2017-06-06T13:56:27.000Z</time>
      </trkpt>
      <trkpt lat="44.452610" lon="4.695943">
        <ele>112.504810</ele>
        <time>2017-06-06T13:56:30.000Z</time>
      </trkpt>
      <trkpt lat="44.452522" lon="4.696134">
        <ele>112.938507</ele>
        <time>2017-06-06T13:57:20.000Z</time>
      </trkpt>
      <trkpt lat="44.452507" lon="4.696283">
        <ele>113.225581</ele>
        <time>2017-06-06T13:57:25.000Z</time>
      </trkpt>
      <trkpt lat="44.452500" lon="4.696419">
        <ele>113.485715</ele>
        <time>2017-06-06T13:57:29.000Z</time>
      </trkpt>
      <trkpt lat="44.452484" lon="4.696562">
        <ele>113.761861</ele>
        <time>2017-06-06T13:57:33.000Z</time>
      </trkpt>
      <trkpt lat="44.452477" lon="4.696695">
        <ele>114.016286</ele>
        <time>2017-06-06T13:57:36.000Z</time>
      </trkpt>
      <trkpt lat="44.452465" lon="4.696830">
        <ele>114.275828</ele>
        <time>2017-06-06T13:57:39.000Z</time>
      </trkpt>
      <trkpt lat="44.452446" lon="4.696959">
        <ele>114.527118</ele>
        <time>2017-06-06T13:57:42.000Z</time>
      </trkpt>
      <trkpt lat="44.452440" lon="4.697112">
        <ele>114.819451</ele>
        <time>2017-06-06T13:57:46.000Z</time>
      </trkpt>
      <trkpt lat="44.452427" lon="4.697270">
        <ele>115.122879</ele>
        <time>2017-06-06T13:57:50.000Z</time>
      </trkpt>
      <trkpt lat="44.452423" lon="4.697432">
        <ele>115.432127</ele>
        <time>2017-06-06T13:57:54.000Z</time>
      </trkpt>
      <trkpt lat="44.452410" lon="4.697559">
        <ele>115.676896</ele>
        <time>2017-06-06T13:57:58.000Z</time>
      </trkpt>
      <trkpt lat="44.452396" lon="4.697719">
        <ele>115.984428</ele>
        <time>2017-06-06T13:58:02.000Z</time>
      </trkpt>
      <trkpt lat="44.452393" lon="4.697856">
        <ele>116.245919</ele>
        <time>2017-06-06T13:58:05.000Z</time>
      </trkpt>
      <trkpt lat="44.452374" lon="4.698008">
        <ele>116.540317</ele>
        <time>2017-06-06T13:58:08.000Z</time>
      </trkpt>
      <trkpt lat="44.452350" lon="4.698179">
        <ele>116.533264</ele>
        <time>2017-06-06T13:58:11.000Z</time>
      </trkpt>
      <trkpt lat="44.452335" lon="4.698360">
        <ele>116.420163</ele>
        <time>2017-06-06T13:58:14.000Z</time>
      </trkpt>
      <trkpt lat="44.452330" lon="4.698506">
        <ele>116.329437</ele>
        <time>2017-06-06T13:58:17.000Z</time>
      </trkpt>
      <trkpt lat="44.452330" lon="4.698664">
        <ele>116.231367</ele>
        <time>2017-06-06T13:58:21.000Z</time>
      </trkpt>
      <trkpt lat="44.452328" lon="4.698828">
        <ele>116.129558</ele>
        <time>2017-06-06T13:58:25.000Z</time>
      </trkpt>
      <trkpt lat="44.452330" lon="4.698957">
        <ele>116.049469</ele>
        <time>2017-06-06T13:58:28.000Z</time>
      </trkpt>
      <trkpt lat="44.452320" lon="4.699082">
        <ele>115.971396</ele>
        <time>2017-06-06T13:58:31.000Z</time>
      </trkpt>
      <trkpt lat="44.452310" lon="4.699211">
        <ele>115.890855</ele>
        <time>2017-06-06T13:58:34.000Z</time>
      </trkpt>
      <trkpt lat="44.452286" lon="4.699348">
        <ele>115.803296</ele>
        <time>2017-06-06T13:58:37.000Z</time>
      </trkpt>
      <trkpt lat="44.452260" lon="4.699504">
        <ele>115.703863</ele>
        <time>2017-06-06T13:58:40.000Z</time>
      </trkpt>
      <trkpt lat="44.452244" lon="4.699729">
        <ele>115.563514</ele>
        <time>2017-06-06T13:58:44.000Z</time>
      </trkpt>
      <trkpt lat="44.452230" lon="4.699853">
        <ele>115.485591</ele>
        <time>2017-06-06T13:58:46.000Z</time>
      </trkpt>
      <trkpt lat="44.452213" lon="4.699983">
        <ele>115.403557</ele>
        <time>2017-06-06T13:58:48.000Z</time>
      </trkpt>
      <trkpt lat="44.452194" lon="4.700131">
        <ele>115.310220</ele>
        <time>2017-06-06T13:58:50.000Z</time>
      </trkpt>
      <trkpt lat="44.452183" lon="4.700268">
        <ele>115.224648</ele>
        <time>2017-06-06T13:58:52.000Z</time>
      </trkpt>
      <trkpt lat="44.452103" lon="4.700406">
        <ele>115.114303</ele>
        <time>2017-06-06T13:58:55.000Z</time>
      </trkpt>
      <trkpt lat="44.452007" lon="4.700452">
        <ele>115.026233</ele>
        <time>2017-06-06T13:58:57.000Z</time>
      </trkpt>
      <trkpt lat="44.451885" lon="4.700455">
        <ele>114.920745</ele>
        <time>2017-06-06T13:59:00.000Z</time>
      </trkpt>
      <trkpt lat="44.451763" lon="4.700417">
        <ele>114.812698</ele>
        <time>2017-06-06T13:59:03.000Z</time>
      </trkpt>
      <trkpt lat="44.451640" lon="4.700304">
        <ele>114.685534</ele>
        <time>2017-06-06T13:59:05.000Z</time>
      </trkpt>
      <trkpt lat="44.451546" lon="4.700225">
        <ele>114.590766</ele>
        <time>2017-06-06T13:59:07.000Z</time>
      </trkpt>
      <trkpt lat="44.451458" lon="4.700192">
        <ele>114.512010</ele>
        <time>2017-06-06T13:59:09.000Z</time>
      </trkpt>
      <trkpt lat="44.451366" lon="4.700179">
        <ele>114.432070</ele>
        <time>2017-06-06T13:59:11.000Z</time>
      </trkpt>
      <trkpt lat="44.451244" lon="4.700186">
        <ele>114.326510</ele>
        <time>2017-06-06T13:59:14.000Z</time>
      </trkpt>
      <trkpt lat="44.451130" lon="4.700182">
        <ele>114.227923</ele>
        <time>2017-06-06T13:59:17.000Z</time>
      </trkpt>
      <trkpt lat="44.451004" lon="4.700184">
        <ele>114.118986</ele>
        <time>2017-06-06T13:59:20.000Z</time>
      </trkpt>
      <trkpt lat="44.450886" lon="4.700182">
        <ele>114.016965</ele>
        <time>2017-06-06T13:59:23.000Z</time>
      </trkpt>
      <trkpt lat="44.450780" lon="4.700171">
        <ele>113.925074</ele>
        <time>2017-06-06T13:59:26.000Z</time>
      </trkpt>
      <trkpt lat="44.450672" lon="4.700137">
        <ele>113.829377</ele>
        <time>2017-06-06T13:59:29.000Z</time>
      </trkpt>
      <trkpt lat="44.450558" lon="4.700100">
        <ele>113.728211</ele>
        <time>2017-06-06T13:59:32.000Z</time>
      </trkpt>
      <trkpt lat="44.450424" lon="4.700050">
        <ele>113.608326</ele>
        <time>2017-06-06T13:59:35.000Z</time>
      </trkpt>
      <trkpt lat="44.450300" lon="4.699999">
        <ele>113.497045</ele>
        <time>2017-06-06T13:59:38.000Z</time>
      </trkpt>
      <trkpt lat="44.450180" lon="4.699968">
        <ele>113.435260</ele>
        <time>2017-06-06T13:59:41.000Z</time>
      </trkpt>
      <trkpt lat="44.450070" lon="4.699948">
        <ele>113.379095</ele>
        <time>2017-06-06T13:59:44.000Z</time>
      </trkpt>
      <trkpt lat="44.449966" lon="4.699942">
        <ele>113.326391</ele>
        <time>2017-06-06T13:59:47.000Z</time>
      </trkpt>
      <trkpt lat="44.449863" lon="4.699948">
        <ele>113.274194</ele>
        <time>2017-06-06T13:59:50.000Z</time>
      </trkpt>
      <trkpt lat="44.449764" lon="4.700047">
        <ele>113.212604</ele>
        <time>2017-06-06T13:59:53.000Z</time>
      </trkpt>
      <trkpt lat="44.449730" lon="4.700193">
        <ele>113.157095</ele>
        <time>2017-06-06T13:59:55.000Z</time>
      </trkpt>
      <trkpt lat="44.449734" lon="4.700365">
        <ele>113.094891</ele>
        <time>2017-06-06T13:59:57.000Z</time>
      </trkpt>
      <trkpt lat="44.449764" lon="4.700537">
        <ele>113.030892</ele>
        <time>2017-06-06T13:59:59.000Z</time>
      </trkpt>
      <trkpt lat="44.449800" lon="4.700698">
        <ele>112.969909</ele>
        <time>2017-06-06T14:00:01.000Z</time>
      </trkpt>
      <trkpt lat="44.449825" lon="4.700844">
        <ele>112.915640</ele>
        <time>2017-06-06T14:00:03.000Z</time>
      </trkpt>
      <trkpt lat="44.449825" lon="4.700995">
        <ele>112.861060</ele>
        <time>2017-06-06T14:00:06.000Z</time>
      </trkpt>
      <trkpt lat="44.449745" lon="4.701085">
        <ele>112.809107</ele>
        <time>2017-06-06T14:00:09.000Z</time>
      </trkpt>
      <trkpt lat="44.449640" lon="4.701127">
        <ele>112.753817</ele>
        <time>2017-06-06T14:00:12.000Z</time>
      </trkpt>
      <trkpt lat="44.449535" lon="4.701164">
        <ele>112.698995</ele>
        <time>2017-06-06T14:00:15.000Z</time>
      </trkpt>
      <trkpt lat="44.449417" lon="4.701222">
        <ele>112.635676</ele>
        <time>2017-06-06T14:00:18.000Z</time>
      </trkpt>
      <trkpt lat="44.449314" lon="4.701241">
        <ele>112.597852</ele>
        <time>2017-06-06T14:00:21.000Z</time>
      </trkpt>
      <trkpt lat="44.449223" lon="4.701268">
        <ele>112.730132</ele>
        <time>2017-06-06T14:00:24.000Z</time>
      </trkpt>
      <trkpt lat="44.449140" lon="4.701311">
        <ele>112.855979</ele>
        <time>2017-06-06T14:00:27.000Z</time>
      </trkpt>
      <trkpt lat="44.449047" lon="4.701366">
        <ele>112.999536</ele>
        <time>2017-06-06T14:00:30.000Z</time>
      </trkpt>
      <trkpt lat="44.448917" lon="4.701374">
        <ele>113.184585</ele>
        <time>2017-06-06T14:00:33.000Z</time>
      </trkpt>
      <trkpt lat="44.448810" lon="4.701405">
        <ele>113.339968</ele>
        <time>2017-06-06T14:00:36.000Z</time>
      </trkpt>
      <trkpt lat="44.448692" lon="4.701441">
        <ele>113.511708</ele>
        <time>2017-06-06T14:00:39.000Z</time>
      </trkpt>
      <trkpt lat="44.448580" lon="4.701472">
        <ele>113.674060</ele>
        <time>2017-06-06T14:00:42.000Z</time>
      </trkpt>
      <trkpt lat="44.448475" lon="4.701509">
        <ele>113.828031</ele>
        <time>2017-06-06T14:00:45.000Z</time>
      </trkpt>
      <trkpt lat="44.448360" lon="4.701545">
        <ele>113.995605</ele>
        <time>2017-06-06T14:00:48.000Z</time>
      </trkpt>
      <trkpt lat="44.448242" lon="4.701588">
        <ele>114.168996</ele>
        <time>2017-06-06T14:00:51.000Z</time>
      </trkpt>
      <trkpt lat="44.448124" lon="4.701642">
        <ele>114.345529</ele>
        <time>2017-06-06T14:00:54.000Z</time>
      </trkpt>
      <trkpt lat="44.448010" lon="4.701697">
        <ele>114.516993</ele>
        <time>2017-06-06T14:00:57.000Z</time>
      </trkpt>
      <trkpt lat="44.447900" lon="4.701738">
        <ele>114.678865</ele>
        <time>2017-06-06T14:01:00.000Z</time>
      </trkpt>
      <trkpt lat="44.447803" lon="4.701782">
        <ele>114.823859</ele>
        <time>2017-06-06T14:01:03.000Z</time>
      </trkpt>
      <trkpt lat="44.447693" lon="4.701862">
        <ele>115.000116</ele>
        <time>2017-06-06T14:01:06.000Z</time>
      </trkpt>
      <trkpt lat="44.447605" lon="4.701934">
        <ele>115.144909</ele>
        <time>2017-06-06T14:01:09.000Z</time>
      </trkpt>
      <trkpt lat="44.447533" lon="4.702010">
        <ele>115.209692</ele>
        <time>2017-06-06T14:01:13.000Z</time>
      </trkpt>
      <trkpt lat="44.447464" lon="4.702110">
        <ele>115.281036</ele>
        <time>2017-06-06T14:01:18.000Z</time>
      </trkpt>
      <trkpt lat="44.447400" lon="4.702216">
        <ele>115.352253</ele>
        <time>2017-06-06T14:01:22.000Z</time>
      </trkpt>
      <trkpt lat="44.447340" lon="4.702344">
        <ele>115.430805</ele>
        <time>2017-06-06T14:01:26.000Z</time>
      </trkpt>
      <trkpt lat="44.447266" lon="4.702472">
        <ele>115.515298</ele>
        <time>2017-06-06T14:01:30.000Z</time>
      </trkpt>
      <trkpt lat="44.447212" lon="4.702587">
        <ele>115.585910</ele>
        <time>2017-06-06T14:01:33.000Z</time>
      </trkpt>
      <trkpt lat="44.447150" lon="4.702686">
        <ele>115.653468</ele>
        <time>2017-06-06T14:01:36.000Z</time>
      </trkpt>
      <trkpt lat="44.447086" lon="4.702824">
        <ele>115.737887</ele>
        <time>2017-06-06T14:01:40.000Z</time>
      </trkpt>
      <trkpt lat="44.447025" lon="4.702922">
        <ele>115.804586</ele>
        <time>2017-06-06T14:01:43.000Z</time>
      </trkpt>
      <trkpt lat="44.446957" lon="4.703054">
        <ele>115.888091</ele>
        <time>2017-06-06T14:01:47.000Z</time>
      </trkpt>
      <trkpt lat="44.446888" lon="4.703176">
        <ele>115.967936</ele>
        <time>2017-06-06T14:01:51.000Z</time>
      </trkpt>
      <trkpt lat="44.446823" lon="4.703303">
        <ele>116.048099</ele>
        <time>2017-06-06T14:01:55.000Z</time>
      </trkpt>
      <trkpt lat="44.446762" lon="4.703437">
        <ele>116.129627</ele>
        <time>2017-06-06T14:01:59.000Z</time>
      </trkpt>
      <trkpt lat="44.446710" lon="4.703541">
        <ele>116.194762</ele>
        <time>2017-06-06T14:02:02.000Z</time>
      </trkpt>
      <trkpt lat="44.446650" lon="4.703651">
        <ele>116.265777</ele>
        <time>2017-06-06T14:02:05.000Z</time>
      </trkpt>
      <trkpt lat="44.446594" lon="4.703764">
        <ele>116.336344</ele>
        <time>2017-06-06T14:02:08.000Z</time>
      </trkpt>
      <trkpt lat="44.446537" lon="4.703871">
        <ele>116.404832</ele>
        <time>2017-06-06T14:02:11.000Z</time>
      </trkpt>
      <trkpt lat="44.446472" lon="4.703993">
        <ele>116.576630</ele>
        <time>2017-06-06T14:02:15.000Z</time>
      </trkpt>
      <trkpt lat="44.446404" lon="4.704128">
        <ele>116.835238</ele>
        <time>2017-06-06T14:02:19.000Z</time>
      </trkpt>
      <trkpt lat="44.446346" lon="4.704238">
        <ele>117.049283</ele>
        <time>2017-06-06T14:02:22.000Z</time>
      </trkpt>
      <trkpt lat="44.446290" lon="4.704353">
        <ele>117.267172</ele>
        <time>2017-06-06T14:02:25.000Z</time>
      </trkpt>
      <trkpt lat="44.446228" lon="4.704469">
        <ele>117.493987</ele>
        <time>2017-06-06T14:02:28.000Z</time>
      </trkpt>
      <trkpt lat="44.446180" lon="4.704574">
        <ele>117.689144</ele>
        <time>2017-06-06T14:02:31.000Z</time>
      </trkpt>
      <trkpt lat="44.446117" lon="4.704689">
        <ele>117.916036</ele>
        <time>2017-06-06T14:02:35.000Z</time>
      </trkpt>
      <trkpt lat="44.446053" lon="4.704809">
        <ele>118.150491</ele>
        <time>2017-06-06T14:02:40.000Z</time>
      </trkpt>
      <trkpt lat="44.445984" lon="4.704934">
        <ele>118.397812</ele>
        <time>2017-06-06T14:02:44.000Z</time>
      </trkpt>
      <trkpt lat="44.445927" lon="4.705036">
        <ele>118.600562</ele>
        <time>2017-06-06T14:02:47.000Z</time>
      </trkpt>
      <trkpt lat="44.445870" lon="4.705140">
        <ele>118.805787</ele>
        <time>2017-06-06T14:02:50.000Z</time>
      </trkpt>
      <trkpt lat="44.445816" lon="4.705250">
        <ele>119.014742</ele>
        <time>2017-06-06T14:02:53.000Z</time>
      </trkpt>
      <trkpt lat="44.445747" lon="4.705388">
        <ele>119.278454</ele>
        <time>2017-06-06T14:02:57.000Z</time>
      </trkpt>
      <trkpt lat="44.445698" lon="4.705502">
        <ele>119.486738</ele>
        <time>2017-06-06T14:03:00.000Z</time>
      </trkpt>
      <trkpt lat="44.445650" lon="4.705607">
        <ele>119.681896</ele>
        <time>2017-06-06T14:03:03.000Z</time>
      </trkpt>
      <trkpt lat="44.445587" lon="4.705717">
        <ele>119.902632</ele>
        <time>2017-06-06T14:03:06.000Z</time>
      </trkpt>
      <trkpt lat="44.445520" lon="4.705829">
        <ele>120.131350</ele>
        <time>2017-06-06T14:03:09.000Z</time>
      </trkpt>
      <trkpt lat="44.445460" lon="4.705949">
        <ele>120.360666</ele>
        <time>2017-06-06T14:03:12.000Z</time>
      </trkpt>
      <trkpt lat="44.445400" lon="4.706057">
        <ele>120.335804</ele>
        <time>2017-06-06T14:03:15.000Z</time>
      </trkpt>
      <trkpt lat="44.445350" lon="4.706174">
        <ele>120.286382</ele>
        <time>2017-06-06T14:03:18.000Z</time>
      </trkpt>
      <trkpt lat="44.445290" lon="4.706280">
        <ele>120.237352</ele>
        <time>2017-06-06T14:03:21.000Z</time>
      </trkpt>
      <trkpt lat="44.445220" lon="4.706410">
        <ele>120.178335</ele>
        <time>2017-06-06T14:03:25.000Z</time>
      </trkpt>
      <trkpt lat="44.445170" lon="4.706532">
        <ele>120.127348</ele>
        <time>2017-06-06T14:03:29.000Z</time>
      </trkpt>
      <trkpt lat="44.445107" lon="4.706646">
        <ele>120.075097</ele>
        <time>2017-06-06T14:03:33.000Z</time>
      </trkpt>
      <trkpt lat="44.445020" lon="4.706737">
        <ele>120.019972</ele>
        <time>2017-06-06T14:03:37.000Z</time>
      </trkpt>
      <trkpt lat="44.444910" lon="4.706792">
        <ele>119.960676</ele>
        <time>2017-06-06T14:03:41.000Z</time>
      </trkpt>
      <trkpt lat="44.444805" lon="4.706813">
        <ele>119.906829</ele>
        <time>2017-06-06T14:03:44.000Z</time>
      </trkpt>
      <trkpt lat="44.444714" lon="4.706780">
        <ele>119.859106</ele>
        <time>2017-06-06T14:03:46.000Z</time>
      </trkpt>
      <trkpt lat="44.444630" lon="4.706721">
        <ele>119.811400</ele>
        <time>2017-06-06T14:03:48.000Z</time>
      </trkpt>
      <trkpt lat="44.444500" lon="4.706667">
        <ele>119.742560</ele>
        <time>2017-06-06T14:03:51.000Z</time>
      </trkpt>
      <trkpt lat="44.444412" lon="4.706624">
        <ele>119.695243</ele>
        <time>2017-06-06T14:03:53.000Z</time>
      </trkpt>
      <trkpt lat="44.444294" lon="4.706550">
        <ele>119.629607</ele>
        <time>2017-06-06T14:03:56.000Z</time>
      </trkpt>
      <trkpt lat="44.444183" lon="4.706477">
        <ele>119.567351</ele>
        <time>2017-06-06T14:03:59.000Z</time>
      </trkpt>
      <trkpt lat="44.444070" lon="4.706430">
        <ele>119.507507</ele>
        <time>2017-06-06T14:04:02.000Z</time>
      </trkpt>
      <trkpt lat="44.443970" lon="4.706378">
        <ele>119.418950</ele>
        <time>2017-06-06T14:04:05.000Z</time>
      </trkpt>
      <trkpt lat="44.443867" lon="4.706405">
        <ele>119.237391</ele>
        <time>2017-06-06T14:04:08.000Z</time>
      </trkpt>
      <trkpt lat="44.443806" lon="4.706546">
        <ele>119.033453</ele>
        <time>2017-06-06T14:04:12.000Z</time>
      </trkpt>
      <trkpt lat="44.443726" lon="4.706646">
        <ele>118.847674</ele>
        <time>2017-06-06T14:04:15.000Z</time>
      </trkpt>
      <trkpt lat="44.443650" lon="4.706771">
        <ele>118.644579</ele>
        <time>2017-06-06T14:04:18.000Z</time>
      </trkpt>
      <trkpt lat="44.443573" lon="4.706911">
        <ele>118.425971</ele>
        <time>2017-06-06T14:04:21.000Z</time>
      </trkpt>
      <trkpt lat="44.443512" lon="4.707052">
        <ele>118.222032</ele>
        <time>2017-06-06T14:04:24.000Z</time>
      </trkpt>
      <trkpt lat="44.443447" lon="4.707195">
        <ele>118.012334</ele>
        <time>2017-06-06T14:04:27.000Z</time>
      </trkpt>
      <trkpt lat="44.443390" lon="4.707324">
        <ele>117.824673</ele>
        <time>2017-06-06T14:04:30.000Z</time>
      </trkpt>
      <trkpt lat="44.443302" lon="4.707405">
        <ele>117.642227</ele>
        <time>2017-06-06T14:04:34.000Z</time>
      </trkpt>
      <trkpt lat="44.443222" lon="4.707336">
        <ele>117.479446</ele>
        <time>2017-06-06T14:04:37.000Z</time>
      </trkpt>
      <trkpt lat="44.443127" lon="4.707224">
        <ele>117.264301</ele>
        <time>2017-06-06T14:04:40.000Z</time>
      </trkpt>
      <trkpt lat="44.443035" lon="4.707092">
        <ele>117.036112</ele>
        <time>2017-06-06T14:04:43.000Z</time>
      </trkpt>
      <trkpt lat="44.442966" lon="4.707001">
        <ele>116.871906</ele>
        <time>2017-06-06T14:04:45.000Z</time>
      </trkpt>
      <trkpt lat="44.442894" lon="4.706916">
        <ele>116.708757</ele>
        <time>2017-06-06T14:04:47.000Z</time>
      </trkpt>
      <trkpt lat="44.442818" lon="4.706840">
        <ele>116.546961</ele>
        <time>2017-06-06T14:04:49.000Z</time>
      </trkpt>
      <trkpt lat="44.442740" lon="4.706747">
        <ele>116.369483</ele>
        <time>2017-06-06T14:04:51.000Z</time>
      </trkpt>
      <trkpt lat="44.442670" lon="4.706656">
        <ele>116.256943</ele>
        <time>2017-06-06T14:04:53.000Z</time>
      </trkpt>
      <trkpt lat="44.442590" lon="4.706565">
        <ele>116.142577</ele>
        <time>2017-06-06T14:04:55.000Z</time>
      </trkpt>
      <trkpt lat="44.442505" lon="4.706481">
        <ele>116.027135</ele>
        <time>2017-06-06T14:04:57.000Z</time>
      </trkpt>
      <trkpt lat="44.442420" lon="4.706398">
        <ele>115.912149</ele>
        <time>2017-06-06T14:04:59.000Z</time>
      </trkpt>
      <trkpt lat="44.442337" lon="4.706283">
        <ele>115.782590</ele>
        <time>2017-06-06T14:05:02.000Z</time>
      </trkpt>
      <trkpt lat="44.442250" lon="4.706179">
        <ele>115.655662</ele>
        <time>2017-06-06T14:05:06.000Z</time>
      </trkpt>
      <trkpt lat="44.442154" lon="4.706084">
        <ele>115.525222</ele>
        <time>2017-06-06T14:05:10.000Z</time>
      </trkpt>
      <trkpt lat="44.442078" lon="4.705996">
        <ele>115.415795</ele>
        <time>2017-06-06T14:05:13.000Z</time>
      </trkpt>
      <trkpt lat="44.442110" lon="4.706121">
        <ele>115.310584</ele>
        <time>2017-06-06T14:05:22.000Z</time>
      </trkpt>
      <trkpt lat="44.442184" lon="4.706221">
        <ele>115.196475</ele>
        <time>2017-06-06T14:05:26.000Z</time>
      </trkpt>
      <trkpt lat="44.442272" lon="4.706320">
        <ele>115.071219</ele>
        <time>2017-06-06T14:05:30.000Z</time>
      </trkpt>
      <trkpt lat="44.442370" lon="4.706375">
        <ele>114.954060</ele>
        <time>2017-06-06T14:05:34.000Z</time>
      </trkpt>
      <trkpt lat="44.442444" lon="4.706462">
        <ele>114.846846</ele>
        <time>2017-06-06T14:05:41.000Z</time>
      </trkpt>
      <trkpt lat="44.442524" lon="4.706557">
        <ele>114.730455</ele>
        <time>2017-06-06T14:06:12.000Z</time>
      </trkpt>
      <trkpt lat="44.442604" lon="4.706635">
        <ele>114.622286</ele>
        <time>2017-06-06T14:06:16.000Z</time>
      </trkpt>
      <trkpt lat="44.442684" lon="4.706694">
        <ele>114.521954</ele>
        <time>2017-06-06T14:06:19.000Z</time>
      </trkpt>
      <trkpt lat="44.442757" lon="4.706772">
        <ele>114.420063</ele>
        <time>2017-06-06T14:06:22.000Z</time>
      </trkpt>
      <trkpt lat="44.442833" lon="4.706845">
        <ele>114.338254</ele>
        <time>2017-06-06T14:06:26.000Z</time>
      </trkpt>
      <trkpt lat="44.442905" lon="4.706726">
        <ele>114.282172</ele>
        <time>2017-06-06T14:08:18.000Z</time>
      </trkpt>
      <trkpt lat="44.442966" lon="4.706601">
        <ele>114.227735</ele>
        <time>2017-06-06T14:08:22.000Z</time>
      </trkpt>
      <trkpt lat="44.443024" lon="4.706490">
        <ele>114.178281</ele>
        <time>2017-06-06T14:08:25.000Z</time>
      </trkpt>
      <trkpt lat="44.443073" lon="4.706373">
        <ele>114.129513</ele>
        <time>2017-06-06T14:08:28.000Z</time>
      </trkpt>
      <trkpt lat="44.443127" lon="4.706227">
        <ele>114.070396</ele>
        <time>2017-06-06T14:08:32.000Z</time>
      </trkpt>
      <trkpt lat="44.443172" lon="4.706107">
        <ele>114.021663</ele>
        <time>2017-06-06T14:08:35.000Z</time>
      </trkpt>
      <trkpt lat="44.443220" lon="4.705987">
        <ele>113.972209</ele>
        <time>2017-06-06T14:08:38.000Z</time>
      </trkpt>
      <trkpt lat="44.443268" lon="4.705873">
        <ele>113.924626</ele>
        <time>2017-06-06T14:08:41.000Z</time>
      </trkpt>
      <trkpt lat="44.443325" lon="4.705756">
        <ele>113.873701</ele>
        <time>2017-06-06T14:08:44.000Z</time>
      </trkpt>
      <trkpt lat="44.443386" lon="4.705621">
        <ele>113.816260</ele>
        <time>2017-06-06T14:08:47.000Z</time>
      </trkpt>
      <trkpt lat="44.443455" lon="4.705481">
        <ele>113.755098</ele>
        <time>2017-06-06T14:08:50.000Z</time>
      </trkpt>
      <trkpt lat="44.443530" lon="4.705382">
        <ele>113.703200</ele>
        <time>2017-06-06T14:08:53.000Z</time>
      </trkpt>
      <trkpt lat="44.443623" lon="4.705407">
        <ele>113.655513</ele>
        <time>2017-06-06T14:08:56.000Z</time>
      </trkpt>
      <trkpt lat="44.443670" lon="4.705545">
        <ele>113.600542</ele>
        <time>2017-06-06T14:08:59.000Z</time>
      </trkpt>
      <trkpt lat="44.443714" lon="4.705699">
        <ele>113.540905</ele>
        <time>2017-06-06T14:09:02.000Z</time>
      </trkpt>
      <trkpt lat="44.443764" lon="4.705854">
        <ele>113.479754</ele>
        <time>2017-06-06T14:09:05.000Z</time>
      </trkpt>
      <trkpt lat="44.443813" lon="4.706012">
        <ele>113.576322</ele>
        <time>2017-06-06T14:09:08.000Z</time>
      </trkpt>
      <trkpt lat="44.443860" lon="4.706141">
        <ele>113.784902</ele>
        <time>2017-06-06T14:09:11.000Z</time>
      </trkpt>
      <trkpt lat="44.443897" lon="4.706258">
        <ele>113.969196</ele>
        <time>2017-06-06T14:09:15.000Z</time>
      </trkpt>
      <trkpt lat="44.443985" lon="4.706211">
        <ele>114.159183</ele>
        <time>2017-06-06T14:09:26.000Z</time>
      </trkpt>
      <trkpt lat="44.444042" lon="4.706079">
        <ele>114.381358</ele>
        <time>2017-06-06T14:09:30.000Z</time>
      </trkpt>
      <trkpt lat="44.444090" lon="4.705958">
        <ele>114.580717</ele>
        <time>2017-06-06T14:09:34.000Z</time>
      </trkpt>
      <trkpt lat="44.444164" lon="4.705846">
        <ele>114.800494</ele>
        <time>2017-06-06T14:09:38.000Z</time>
      </trkpt>
      <trkpt lat="44.444230" lon="4.705724">
        <ele>115.020944</ele>
        <time>2017-06-06T14:09:42.000Z</time>
      </trkpt>
      <trkpt lat="44.444294" lon="4.705619">
        <ele>115.219780</ele>
        <time>2017-06-06T14:09:45.000Z</time>
      </trkpt>
      <trkpt lat="44.444344" lon="4.705506">
        <ele>115.411243</ele>
        <time>2017-06-06T14:09:48.000Z</time>
      </trkpt>
      <trkpt lat="44.444420" lon="4.705384">
        <ele>115.644430</ele>
        <time>2017-06-06T14:09:51.000Z</time>
      </trkpt>
      <trkpt lat="44.444490" lon="4.705279">
        <ele>115.851329</ele>
        <time>2017-06-06T14:09:54.000Z</time>
      </trkpt>
      <trkpt lat="44.444572" lon="4.705141">
        <ele>116.109907</ele>
        <time>2017-06-06T14:09:57.000Z</time>
      </trkpt>
      <trkpt lat="44.444660" lon="4.705003">
        <ele>116.376389</ele>
        <time>2017-06-06T14:10:00.000Z</time>
      </trkpt>
      <trkpt lat="44.444740" lon="4.704872">
        <ele>116.624659</ele>
        <time>2017-06-06T14:10:03.000Z</time>
      </trkpt>
      <trkpt lat="44.444805" lon="4.704725">
        <ele>116.873683</ele>
        <time>2017-06-06T14:10:06.000Z</time>
      </trkpt>
      <trkpt lat="44.444874" lon="4.704593">
        <ele>117.041305</ele>
        <time>2017-06-06T14:10:09.000Z</time>
      </trkpt>
      <trkpt lat="44.444940" lon="4.704472">
        <ele>116.786741</ele>
        <time>2017-06-06T14:10:12.000Z</time>
      </trkpt>
      <trkpt lat="44.445007" lon="4.704346">
        <ele>116.524094</ele>
        <time>2017-06-06T14:10:15.000Z</time>
      </trkpt>
      <trkpt lat="44.445087" lon="4.704205">
        <ele>116.223005</ele>
        <time>2017-06-06T14:10:18.000Z</time>
      </trkpt>
      <trkpt lat="44.445140" lon="4.704100">
        <ele>116.008031</ele>
        <time>2017-06-06T14:10:20.000Z</time>
      </trkpt>
      <trkpt lat="44.445206" lon="4.703996">
        <ele>115.775410</ele>
        <time>2017-06-06T14:10:22.000Z</time>
      </trkpt>
      <trkpt lat="44.445267" lon="4.703867">
        <ele>115.516740</ele>
        <time>2017-06-06T14:10:24.000Z</time>
      </trkpt>
      <trkpt lat="44.445324" lon="4.703731">
        <ele>115.253101</ele>
        <time>2017-06-06T14:10:26.000Z</time>
      </trkpt>
      <trkpt lat="44.445377" lon="4.703590">
        <ele>114.986711</ele>
        <time>2017-06-06T14:10:28.000Z</time>
      </trkpt>
      <trkpt lat="44.445408" lon="4.703425">
        <ele>114.701483</ele>
        <time>2017-06-06T14:10:30.000Z</time>
      </trkpt>
      <trkpt lat="44.445404" lon="4.703273">
        <ele>114.447207</ele>
        <time>2017-06-06T14:10:32.000Z</time>
      </trkpt>
      <trkpt lat="44.445377" lon="4.703133">
        <ele>114.204776</ele>
        <time>2017-06-06T14:10:34.000Z</time>
      </trkpt>
      <trkpt lat="44.445300" lon="4.703062">
        <ele>113.988909</ele>
        <time>2017-06-06T14:10:36.000Z</time>
      </trkpt>
      <trkpt lat="44.445168" lon="4.703105">
        <ele>113.671565</ele>
        <time>2017-06-06T14:10:39.000Z</time>
      </trkpt>
      <trkpt lat="44.445076" lon="4.703163">
        <ele>113.435321</ele>
        <time>2017-06-06T14:10:41.000Z</time>
      </trkpt>
      <trkpt lat="44.444977" lon="4.703223">
        <ele>113.182730</ele>
        <time>2017-06-06T14:10:43.000Z</time>
      </trkpt>
      <trkpt lat="44.444885" lon="4.703279">
        <ele>112.947838</ele>
        <time>2017-06-06T14:10:45.000Z</time>
      </trkpt>
      <trkpt lat="44.444798" lon="4.703338">
        <ele>112.827178</ele>
        <time>2017-06-06T14:10:47.000Z</time>
      </trkpt>
      <trkpt lat="44.444680" lon="4.703423">
        <ele>112.743591</ele>
        <time>2017-06-06T14:10:50.000Z</time>
      </trkpt>
      <trkpt lat="44.444565" lon="4.703502">
        <ele>112.662904</ele>
        <time>2017-06-06T14:10:53.000Z</time>
      </trkpt>
      <trkpt lat="44.444450" lon="4.703589">
        <ele>112.580569</ele>
        <time>2017-06-06T14:10:56.000Z</time>
      </trkpt>
      <trkpt lat="44.444340" lon="4.703683">
        <ele>112.499398</ele>
        <time>2017-06-06T14:10:59.000Z</time>
      </trkpt>
      <trkpt lat="44.444237" lon="4.703761">
        <ele>112.425637</ele>
        <time>2017-06-06T14:11:02.000Z</time>
      </trkpt>
      <trkpt lat="44.444140" lon="4.703830">
        <ele>112.357105</ele>
        <time>2017-06-06T14:11:05.000Z</time>
      </trkpt>
      <trkpt lat="44.444054" lon="4.703887">
        <ele>112.297170</ele>
        <time>2017-06-06T14:11:08.000Z</time>
      </trkpt>
      <trkpt lat="44.443960" lon="4.703933">
        <ele>112.234445</ele>
        <time>2017-06-06T14:11:13.000Z</time>
      </trkpt>
      <trkpt lat="44.443880" lon="4.703846">
        <ele>112.170644</ele>
        <time>2017-06-06T14:11:21.000Z</time>
      </trkpt>
      <trkpt lat="44.443855" lon="4.703710">
        <ele>112.107484</ele>
        <time>2017-06-06T14:11:24.000Z</time>
      </trkpt>
      <trkpt lat="44.443850" lon="4.703563">
        <ele>112.041297</ele>
        <time>2017-06-06T14:11:26.000Z</time>
      </trkpt>
      <trkpt lat="44.443848" lon="4.703416">
        <ele>111.975173</ele>
        <time>2017-06-06T14:11:28.000Z</time>
      </trkpt>
      <trkpt lat="44.443848" lon="4.703261">
        <ele>111.905463</ele>
        <time>2017-06-06T14:11:30.000Z</time>
      </trkpt>
      <trkpt lat="44.443848" lon="4.703111">
        <ele>111.838002</ele>
        <time>2017-06-06T14:11:32.000Z</time>
      </trkpt>
      <trkpt lat="44.443850" lon="4.702974">
        <ele>111.776374</ele>
        <time>2017-06-06T14:11:34.000Z</time>
      </trkpt>
      <trkpt lat="44.443855" lon="4.702845">
        <ele>111.697726</ele>
        <time>2017-06-06T14:11:36.000Z</time>
      </trkpt>
      <trkpt lat="44.443863" lon="4.702663">
        <ele>111.501513</ele>
        <time>2017-06-06T14:11:39.000Z</time>
      </trkpt>
      <trkpt lat="44.443840" lon="4.702481">
        <ele>111.302625</ele>
        <time>2017-06-06T14:11:42.000Z</time>
      </trkpt>
      <trkpt lat="44.443848" lon="4.702320">
        <ele>111.128961</ele>
        <time>2017-06-06T14:11:45.000Z</time>
      </trkpt>
      <trkpt lat="44.443916" lon="4.702218">
        <ele>110.978790</ele>
        <time>2017-06-06T14:11:48.000Z</time>
      </trkpt>
      <trkpt lat="44.444008" lon="4.702143">
        <ele>110.818350</ele>
        <time>2017-06-06T14:11:51.000Z</time>
      </trkpt>
      <trkpt lat="44.444122" lon="4.702071">
        <ele>110.629868</ele>
        <time>2017-06-06T14:11:54.000Z</time>
      </trkpt>
      <trkpt lat="44.444237" lon="4.701992">
        <ele>110.436814</ele>
        <time>2017-06-06T14:11:57.000Z</time>
      </trkpt>
      <trkpt lat="44.444347" lon="4.701903">
        <ele>110.245348</ele>
        <time>2017-06-06T14:12:00.000Z</time>
      </trkpt>
      <trkpt lat="44.444447" lon="4.701822">
        <ele>110.071239</ele>
        <time>2017-06-06T14:12:03.000Z</time>
      </trkpt>
      <trkpt lat="44.444546" lon="4.701747">
        <ele>109.901597</ele>
        <time>2017-06-06T14:12:06.000Z</time>
      </trkpt>
      <trkpt lat="44.444650" lon="4.701662">
        <ele>109.720113</ele>
        <time>2017-06-06T14:12:09.000Z</time>
      </trkpt>
      <trkpt lat="44.444730" lon="4.701560">
        <ele>109.557063</ele>
        <time>2017-06-06T14:12:12.000Z</time>
      </trkpt>
      <trkpt lat="44.444810" lon="4.701462">
        <ele>109.396878</ele>
        <time>2017-06-06T14:12:15.000Z</time>
      </trkpt>
      <trkpt lat="44.444828" lon="4.701330">
        <ele>109.252273</ele>
        <time>2017-06-06T14:12:18.000Z</time>
      </trkpt>
      <trkpt lat="44.444730" lon="4.701212">
        <ele>109.057492</ele>
        <time>2017-06-06T14:12:21.000Z</time>
      </trkpt>
      <trkpt lat="44.444637" lon="4.701117">
        <ele>109.148937</ele>
        <time>2017-06-06T14:12:24.000Z</time>
      </trkpt>
      <trkpt lat="44.444546" lon="4.701019">
        <ele>109.307899</ele>
        <time>2017-06-06T14:12:27.000Z</time>
      </trkpt>
      <trkpt lat="44.444435" lon="4.700950">
        <ele>109.476075</ele>
        <time>2017-06-06T14:12:30.000Z</time>
      </trkpt>
      <trkpt lat="44.444313" lon="4.700923">
        <ele>109.647122</ele>
        <time>2017-06-06T14:12:33.000Z</time>
      </trkpt>
      <trkpt lat="44.444187" lon="4.700907">
        <ele>109.822328</ele>
        <time>2017-06-06T14:12:36.000Z</time>
      </trkpt>
      <trkpt lat="44.444057" lon="4.700893">
        <ele>110.002889</ele>
        <time>2017-06-06T14:12:39.000Z</time>
      </trkpt>
      <trkpt lat="44.443930" lon="4.700885">
        <ele>110.178942</ele>
        <time>2017-06-06T14:12:42.000Z</time>
      </trkpt>
      <trkpt lat="44.443798" lon="4.700875">
        <ele>110.362009</ele>
        <time>2017-06-06T14:12:45.000Z</time>
      </trkpt>
      <trkpt lat="44.443634" lon="4.700860">
        <ele>110.589607</ele>
        <time>2017-06-06T14:12:49.000Z</time>
      </trkpt>
      <trkpt lat="44.443516" lon="4.700854">
        <ele>110.753127</ele>
        <time>2017-06-06T14:12:52.000Z</time>
      </trkpt>
      <trkpt lat="44.443394" lon="4.700867">
        <ele>110.922566</ele>
        <time>2017-06-06T14:12:55.000Z</time>
      </trkpt>
      <trkpt lat="44.443270" lon="4.700904">
        <ele>111.098140</ele>
        <time>2017-06-06T14:12:58.000Z</time>
      </trkpt>
      <trkpt lat="44.443157" lon="4.700963">
        <ele>111.265146</ele>
        <time>2017-06-06T14:13:01.000Z</time>
      </trkpt>
      <trkpt lat="44.443058" lon="4.701002">
        <ele>111.407565</ele>
        <time>2017-06-06T14:13:04.000Z</time>
      </trkpt>
      <trkpt lat="44.442947" lon="4.701049">
        <ele>111.507954</ele>
        <time>2017-06-06T14:13:07.000Z</time>
      </trkpt>
      <trkpt lat="44.442840" lon="4.701096">
        <ele>111.493998</ele>
        <time>2017-06-06T14:13:10.000Z</time>
      </trkpt>
      <trkpt lat="44.442734" lon="4.701131">
        <ele>111.480444</ele>
        <time>2017-06-06T14:13:13.000Z</time>
      </trkpt>
      <trkpt lat="44.442620" lon="4.701171">
        <ele>111.465817</ele>
        <time>2017-06-06T14:13:16.000Z</time>
      </trkpt>
      <trkpt lat="44.442493" lon="4.701214">
        <ele>111.449555</ele>
        <time>2017-06-06T14:13:19.000Z</time>
      </trkpt>
      <trkpt lat="44.442380" lon="4.701244">
        <ele>111.435241</ele>
        <time>2017-06-06T14:13:22.000Z</time>
      </trkpt>
      <trkpt lat="44.442272" lon="4.701287">
        <ele>111.421267</ele>
        <time>2017-06-06T14:13:25.000Z</time>
      </trkpt>
      <trkpt lat="44.442154" lon="4.701338">
        <ele>111.405898</ele>
        <time>2017-06-06T14:13:28.000Z</time>
      </trkpt>
      <trkpt lat="44.442028" lon="4.701392">
        <ele>111.389499</ele>
        <time>2017-06-06T14:13:31.000Z</time>
      </trkpt>
      <trkpt lat="44.441936" lon="4.701450">
        <ele>111.376942</ele>
        <time>2017-06-06T14:13:33.000Z</time>
      </trkpt>
      <trkpt lat="44.441853" lon="4.701512">
        <ele>111.365235</ele>
        <time>2017-06-06T14:13:35.000Z</time>
      </trkpt>
      <trkpt lat="44.441770" lon="4.701563">
        <ele>111.353954</ele>
        <time>2017-06-06T14:13:37.000Z</time>
      </trkpt>
      <trkpt lat="44.441647" lon="4.701641">
        <ele>111.337150</ele>
        <time>2017-06-06T14:13:40.000Z</time>
      </trkpt>
      <trkpt lat="44.441517" lon="4.701696">
        <ele>111.320249</ele>
        <time>2017-06-06T14:13:43.000Z</time>
      </trkpt>
      <trkpt lat="44.441425" lon="4.701716">
        <ele>111.308661</ele>
        <time>2017-06-06T14:13:45.000Z</time>
      </trkpt>
      <trkpt lat="44.441334" lon="4.701745">
        <ele>111.297046</ele>
        <time>2017-06-06T14:13:47.000Z</time>
      </trkpt>
      <trkpt lat="44.441208" lon="4.701768">
        <ele>111.244843</ele>
        <time>2017-06-06T14:13:50.000Z</time>
      </trkpt>
      <trkpt lat="44.441082" lon="4.701802">
        <ele>111.154661</ele>
        <time>2017-06-06T14:13:53.000Z</time>
      </trkpt>
      <trkpt lat="44.440990" lon="4.701822">
        <ele>111.089229</ele>
        <time>2017-06-06T14:13:55.000Z</time>
      </trkpt>
      <trkpt lat="44.440865" lon="4.701882">
        <ele>110.996363</ele>
        <time>2017-06-06T14:13:58.000Z</time>
      </trkpt>
      <trkpt lat="44.440746" lon="4.701966">
        <ele>110.902708</ele>
        <time>2017-06-06T14:14:01.000Z</time>
      </trkpt>
      <trkpt lat="44.440624" lon="4.702045">
        <ele>110.808246</ele>
        <time>2017-06-06T14:14:04.000Z</time>
      </trkpt>
      <trkpt lat="44.440502" lon="4.702030">
        <ele>110.722174</ele>
        <time>2017-06-06T14:14:07.000Z</time>
      </trkpt>
      <trkpt lat="44.440422" lon="4.701956">
        <ele>110.654794</ele>
        <time>2017-06-06T14:14:09.000Z</time>
      </trkpt>
      <trkpt lat="44.440340" lon="4.701818">
        <ele>110.564704</ele>
        <time>2017-06-06T14:14:12.000Z</time>
      </trkpt>
      <trkpt lat="44.440290" lon="4.701709">
        <ele>110.499693</ele>
        <time>2017-06-06T14:14:14.000Z</time>
      </trkpt>
      <trkpt lat="44.440273" lon="4.701571">
        <ele>110.429423</ele>
        <time>2017-06-06T14:14:16.000Z</time>
      </trkpt>
      <trkpt lat="44.440273" lon="4.701430">
        <ele>110.358671</ele>
        <time>2017-06-06T14:14:18.000Z</time>
      </trkpt>
      <trkpt lat="44.440273" lon="4.701297">
        <ele>110.291933</ele>
        <time>2017-06-06T14:14:20.000Z</time>
      </trkpt>
      <trkpt lat="44.440270" lon="4.701168">
        <ele>110.227168</ele>
        <time>2017-06-06T14:14:22.000Z</time>
      </trkpt>
      <trkpt lat="44.440266" lon="4.701040">
        <ele>110.162878</ele>
        <time>2017-06-06T14:14:24.000Z</time>
      </trkpt>
      <trkpt lat="44.440260" lon="4.700907">
        <ele>110.096007</ele>
        <time>2017-06-06T14:14:26.000Z</time>
      </trkpt>
      <trkpt lat="44.440258" lon="4.700777">
        <ele>110.030759</ele>
        <time>2017-06-06T14:14:28.000Z</time>
      </trkpt>
      <trkpt lat="44.440247" lon="4.700617">
        <ele>109.845624</ele>
        <time>2017-06-06T14:14:31.000Z</time>
      </trkpt>
      <trkpt lat="44.440228" lon="4.700437">
        <ele>109.626905</ele>
        <time>2017-06-06T14:14:34.000Z</time>
      </trkpt>
      <trkpt lat="44.440193" lon="4.700275">
        <ele>109.423455</ele>
        <time>2017-06-06T14:14:37.000Z</time>
      </trkpt>
      <trkpt lat="44.440130" lon="4.700132">
        <ele>109.221473</ele>
        <time>2017-06-06T14:14:40.000Z</time>
      </trkpt>
      <trkpt lat="44.440056" lon="4.700022">
        <ele>109.039802</ele>
        <time>2017-06-06T14:14:43.000Z</time>
      </trkpt>
      <trkpt lat="44.439980" lon="4.699923">
        <ele>108.865064</ele>
        <time>2017-06-06T14:14:46.000Z</time>
      </trkpt>
      <trkpt lat="44.439896" lon="4.699808">
        <ele>108.667305</ele>
        <time>2017-06-06T14:14:50.000Z</time>
      </trkpt>
      <trkpt lat="44.439808" lon="4.699754">
        <ele>108.505555</ele>
        <time>2017-06-06T14:14:55.000Z</time>
      </trkpt>
      <trkpt lat="44.439762" lon="4.699601">
        <ele>108.306001</ele>
        <time>2017-06-06T14:15:57.000Z</time>
      </trkpt>
      <trkpt lat="44.439693" lon="4.699495">
        <ele>108.133578</ele>
        <time>2017-06-06T14:16:00.000Z</time>
      </trkpt>
      <trkpt lat="44.439613" lon="4.699354">
        <ele>107.917091</ele>
        <time>2017-06-06T14:16:03.000Z</time>
      </trkpt>
      <trkpt lat="44.439552" lon="4.699197">
        <ele>107.702235</ele>
        <time>2017-06-06T14:16:06.000Z</time>
      </trkpt>
      <trkpt lat="44.439530" lon="4.699032">
        <ele>107.500468</ele>
        <time>2017-06-06T14:16:09.000Z</time>
      </trkpt>
      <trkpt lat="44.439537" lon="4.698877">
        <ele>107.313777</ele>
        <time>2017-06-06T14:16:12.000Z</time>
      </trkpt>
      <trkpt lat="44.439484" lon="4.698751">
        <ele>107.137988</ele>
        <time>2017-06-06T14:16:15.000Z</time>
      </trkpt>
      <trkpt lat="44.439365" lon="4.698754">
        <ele>107.111738</ele>
        <time>2017-06-06T14:16:18.000Z</time>
      </trkpt>
      <trkpt lat="44.439266" lon="4.698809">
        <ele>107.459722</ele>
        <time>2017-06-06T14:16:20.000Z</time>
      </trkpt>
      <trkpt lat="44.439163" lon="4.698842">
        <ele>107.804950</ele>
        <time>2017-06-06T14:16:22.000Z</time>
      </trkpt>
      <trkpt lat="44.439070" lon="4.698844">
        <ele>108.108847</ele>
        <time>2017-06-06T14:16:24.000Z</time>
      </trkpt>
      <trkpt lat="44.438995" lon="4.698747">
        <ele>108.442397</ele>
        <time>2017-06-06T14:16:27.000Z</time>
      </trkpt>
      <trkpt lat="44.439022" lon="4.698598">
        <ele>108.801013</ele>
        <time>2017-06-06T14:16:30.000Z</time>
      </trkpt>
      <trkpt lat="44.439075" lon="4.698468">
        <ele>109.150242</ele>
        <time>2017-06-06T14:16:33.000Z</time>
      </trkpt>
      <trkpt lat="44.439148" lon="4.698359">
        <ele>109.498880</ele>
        <time>2017-06-06T14:16:36.000Z</time>
      </trkpt>
      <trkpt lat="44.439220" lon="4.698266">
        <ele>109.818897</ele>
        <time>2017-06-06T14:16:39.000Z</time>
      </trkpt>
      <trkpt lat="44.439297" lon="4.698199">
        <ele>110.115081</ele>
        <time>2017-06-06T14:16:42.000Z</time>
      </trkpt>
      <trkpt lat="44.439373" lon="4.698114">
        <ele>110.432856</ele>
        <time>2017-06-06T14:16:45.000Z</time>
      </trkpt>
      <trkpt lat="44.439453" lon="4.698029">
        <ele>110.760945</ele>
        <time>2017-06-06T14:16:48.000Z</time>
      </trkpt>
      <trkpt lat="44.439526" lon="4.697936">
        <ele>111.083371</ele>
        <time>2017-06-06T14:16:51.000Z</time>
      </trkpt>
      <trkpt lat="44.439594" lon="4.697839">
        <ele>111.400497</ele>
        <time>2017-06-06T14:16:54.000Z</time>
      </trkpt>
      <trkpt lat="44.439644" lon="4.697724">
        <ele>111.714600</ele>
        <time>2017-06-06T14:16:57.000Z</time>
      </trkpt>
      <trkpt lat="44.439690" lon="4.697597">
        <ele>112.046812</ele>
        <time>2017-06-06T14:17:00.000Z</time>
      </trkpt>
      <trkpt lat="44.439720" lon="4.697468">
        <ele>112.363309</ele>
        <time>2017-06-06T14:17:03.000Z</time>
      </trkpt>
      <trkpt lat="44.439740" lon="4.697316">
        <ele>112.723870</ele>
        <time>2017-06-06T14:17:07.000Z</time>
      </trkpt>
      <trkpt lat="44.439754" lon="4.697153">
        <ele>113.027943</ele>
        <time>2017-06-06T14:17:11.000Z</time>
      </trkpt>
      <trkpt lat="44.439754" lon="4.696998">
        <ele>113.267204</ele>
        <time>2017-06-06T14:17:15.000Z</time>
      </trkpt>
      <trkpt lat="44.439760" lon="4.696839">
        <ele>113.512982</ele>
        <time>2017-06-06T14:17:19.000Z</time>
      </trkpt>
      <trkpt lat="44.439760" lon="4.696709">
        <ele>113.713653</ele>
        <time>2017-06-06T14:17:22.000Z</time>
      </trkpt>
      <trkpt lat="44.439760" lon="4.696574">
        <ele>113.922041</ele>
        <time>2017-06-06T14:17:25.000Z</time>
      </trkpt>
      <trkpt lat="44.439793" lon="4.696355">
        <ele>114.267540</ele>
        <time>2017-06-06T14:17:29.000Z</time>
      </trkpt>
      <trkpt lat="44.439785" lon="4.696200">
        <ele>114.507425</ele>
        <time>2017-06-06T14:17:32.000Z</time>
      </trkpt>
      <trkpt lat="44.439793" lon="4.696039">
        <ele>114.756549</ele>
        <time>2017-06-06T14:17:35.000Z</time>
      </trkpt>
      <trkpt lat="44.439790" lon="4.695896">
        <ele>114.977382</ele>
        <time>2017-06-06T14:17:38.000Z</time>
      </trkpt>
      <trkpt lat="44.439820" lon="4.695720">
        <ele>115.256693</ele>
        <time>2017-06-06T14:17:41.000Z</time>
      </trkpt>
      <trkpt lat="44.439840" lon="4.695568">
        <ele>115.495274</ele>
        <time>2017-06-06T14:17:44.000Z</time>
      </trkpt>
      <trkpt lat="44.439850" lon="4.695425">
        <ele>115.717068</ele>
        <time>2017-06-06T14:17:47.000Z</time>
      </trkpt>
      <trkpt lat="44.439865" lon="4.695286">
        <ele>115.934067</ele>
        <time>2017-06-06T14:17:50.000Z</time>
      </trkpt>
      <trkpt lat="44.439880" lon="4.695142">
        <ele>116.158701</ele>
        <time>2017-06-06T14:17:53.000Z</time>
      </trkpt>
      <trkpt lat="44.439890" lon="4.695000">
        <ele>116.378958</ele>
        <time>2017-06-06T14:17:56.000Z</time>
      </trkpt>
      <trkpt lat="44.439903" lon="4.694852">
        <ele>116.609136</ele>
        <time>2017-06-06T14:17:59.000Z</time>
      </trkpt>
      <trkpt lat="44.439915" lon="4.694702">
        <ele>116.720011</ele>
        <time>2017-06-06T14:18:02.000Z</time>
      </trkpt>
      <trkpt lat="44.439922" lon="4.694556">
        <ele>116.600791</ele>
        <time>2017-06-06T14:18:05.000Z</time>
      </trkpt>
      <trkpt lat="44.439983" lon="4.694443">
        <ele>116.485373</ele>
        <time>2017-06-06T14:18:08.000Z</time>
      </trkpt>
      <trkpt lat="44.440100" lon="4.694431">
        <ele>116.351506</ele>
        <time>2017-06-06T14:18:11.000Z</time>
      </trkpt>
      <trkpt lat="44.440224" lon="4.694477">
        <ele>116.205129</ele>
        <time>2017-06-06T14:18:14.000Z</time>
      </trkpt>
      <trkpt lat="44.440320" lon="4.694510">
        <ele>116.092331</ele>
        <time>2017-06-06T14:18:16.000Z</time>
      </trkpt>
      <trkpt lat="44.440414" lon="4.694546">
        <ele>115.981129</ele>
        <time>2017-06-06T14:18:18.000Z</time>
      </trkpt>
      <trkpt lat="44.440525" lon="4.694586">
        <ele>115.850340</ele>
        <time>2017-06-06T14:18:20.000Z</time>
      </trkpt>
      <trkpt lat="44.440640" lon="4.694633">
        <ele>115.713639</ele>
        <time>2017-06-06T14:18:22.000Z</time>
      </trkpt>
      <trkpt lat="44.440758" lon="4.694685">
        <ele>115.572480</ele>
        <time>2017-06-06T14:18:24.000Z</time>
      </trkpt>
      <trkpt lat="44.440876" lon="4.694721">
        <ele>115.434672</ele>
        <time>2017-06-06T14:18:26.000Z</time>
      </trkpt>
      <trkpt lat="44.440994" lon="4.694716">
        <ele>115.299959</ele>
        <time>2017-06-06T14:18:28.000Z</time>
      </trkpt>
      <trkpt lat="44.441082" lon="4.694627">
        <ele>115.176098</ele>
        <time>2017-06-06T14:18:30.000Z</time>
      </trkpt>
      <trkpt lat="44.441120" lon="4.694501">
        <ele>115.064661</ele>
        <time>2017-06-06T14:18:32.000Z</time>
      </trkpt>
      <trkpt lat="44.441150" lon="4.694328">
        <ele>114.919617</ele>
        <time>2017-06-06T14:18:35.000Z</time>
      </trkpt>
      <trkpt lat="44.441180" lon="4.694173">
        <ele>114.788777</ele>
        <time>2017-06-06T14:18:38.000Z</time>
      </trkpt>
      <trkpt lat="44.441210" lon="4.694020">
        <ele>114.672741</ele>
        <time>2017-06-06T14:18:41.000Z</time>
      </trkpt>
      <trkpt lat="44.441242" lon="4.693859">
        <ele>114.572446</ele>
        <time>2017-06-06T14:18:44.000Z</time>
      </trkpt>
      <trkpt lat="44.441277" lon="4.693697">
        <ele>114.470872</ele>
        <time>2017-06-06T14:18:47.000Z</time>
      </trkpt>
      <trkpt lat="44.441303" lon="4.693536">
        <ele>114.371811</ele>
        <time>2017-06-06T14:18:50.000Z</time>
      </trkpt>
      <trkpt lat="44.441330" lon="4.693376">
        <ele>114.273145</ele>
        <time>2017-06-06T14:18:53.000Z</time>
      </trkpt>
      <trkpt lat="44.441315" lon="4.693215">
        <ele>114.175705</ele>
        <time>2017-06-06T14:18:56.000Z</time>
      </trkpt>
      <trkpt lat="44.441242" lon="4.693064">
        <ele>114.066266</ele>
        <time>2017-06-06T14:18:59.000Z</time>
      </trkpt>
      <trkpt lat="44.441160" lon="4.692924">
        <ele>113.957593</ele>
        <time>2017-06-06T14:19:02.000Z</time>
      </trkpt>
      <trkpt lat="44.441067" lon="4.692792">
        <ele>113.846301</ele>
        <time>2017-06-06T14:19:05.000Z</time>
      </trkpt>
      <trkpt lat="44.440970" lon="4.692675">
        <ele>113.738700</ele>
        <time>2017-06-06T14:19:08.000Z</time>
      </trkpt>
      <trkpt lat="44.440895" lon="4.692548">
        <ele>113.639790</ele>
        <time>2017-06-06T14:19:11.000Z</time>
      </trkpt>
      <trkpt lat="44.440810" lon="4.692435">
        <ele>113.541283</ele>
        <time>2017-06-06T14:19:14.000Z</time>
      </trkpt>
      <trkpt lat="44.440704" lon="4.692332">
        <ele>113.432842</ele>
        <time>2017-06-06T14:19:17.000Z</time>
      </trkpt>
      <trkpt lat="44.440617" lon="4.692296">
        <ele>113.356590</ele>
        <time>2017-06-06T14:19:19.000Z</time>
      </trkpt>
      <trkpt lat="44.440490" lon="4.692250">
        <ele>113.246328</ele>
        <time>2017-06-06T14:19:22.000Z</time>
      </trkpt>
      <trkpt lat="44.440400" lon="4.692237">
        <ele>113.153916</ele>
        <time>2017-06-06T14:19:24.000Z</time>
      </trkpt>
      <trkpt lat="44.440308" lon="4.692250">
        <ele>113.030142</ele>
        <time>2017-06-06T14:19:26.000Z</time>
      </trkpt>
      <trkpt lat="44.440174" lon="4.692275">
        <ele>112.849190</ele>
        <time>2017-06-06T14:19:29.000Z</time>
      </trkpt>
      <trkpt lat="44.440050" lon="4.692305">
        <ele>112.680749</ele>
        <time>2017-06-06T14:19:32.000Z</time>
      </trkpt>
      <trkpt lat="44.439926" lon="4.692331">
        <ele>112.512917</ele>
        <time>2017-06-06T14:19:35.000Z</time>
      </trkpt>
      <trkpt lat="44.439804" lon="4.692346">
        <ele>112.348983</ele>
        <time>2017-06-06T14:19:38.000Z</time>
      </trkpt>
      <trkpt lat="44.439680" lon="4.692365">
        <ele>112.182011</ele>
        <time>2017-06-06T14:19:41.000Z</time>
      </trkpt>
      <trkpt lat="44.439568" lon="4.692358">
        <ele>112.031942</ele>
        <time>2017-06-06T14:19:44.000Z</time>
      </trkpt>
      <trkpt lat="44.439457" lon="4.692316">
        <ele>111.878034</ele>
        <time>2017-06-06T14:19:47.000Z</time>
      </trkpt>
      <trkpt lat="44.439354" lon="4.692260">
        <ele>111.730138</ele>
        <time>2017-06-06T14:19:50.000Z</time>
      </trkpt>
      <trkpt lat="44.439255" lon="4.692210">
        <ele>111.589267</ele>
        <time>2017-06-06T14:19:53.000Z</time>
      </trkpt>
      <trkpt lat="44.439150" lon="4.692143">
        <ele>111.434818</ele>
        <time>2017-06-06T14:19:56.000Z</time>
      </trkpt>
      <trkpt lat="44.439064" lon="4.692098">
        <ele>111.311929</ele>
        <time>2017-06-06T14:19:58.000Z</time>
      </trkpt>
      <trkpt lat="44.438970" lon="4.692038">
        <ele>111.173653</ele>
        <time>2017-06-06T14:20:00.000Z</time>
      </trkpt>
      <trkpt lat="44.438854" lon="4.691987">
        <ele>111.010908</ele>
        <time>2017-06-06T14:20:02.000Z</time>
      </trkpt>
      <trkpt lat="44.438740" lon="4.691939">
        <ele>110.851565</ele>
        <time>2017-06-06T14:20:04.000Z</time>
      </trkpt>
      <trkpt lat="44.438618" lon="4.691856">
        <ele>110.648088</ele>
        <time>2017-06-06T14:20:06.000Z</time>
      </trkpt>
      <trkpt lat="44.438484" lon="4.691764">
        <ele>110.411913</ele>
        <time>2017-06-06T14:20:08.000Z</time>
      </trkpt>
      <trkpt lat="44.438366" lon="4.691667">
        <ele>110.195379</ele>
        <time>2017-06-06T14:20:10.000Z</time>
      </trkpt>
      <trkpt lat="44.438248" lon="4.691594">
        <ele>109.991228</ele>
        <time>2017-06-06T14:20:12.000Z</time>
      </trkpt>
      <trkpt lat="44.438130" lon="4.691522">
        <ele>109.787532</ele>
        <time>2017-06-06T14:20:14.000Z</time>
      </trkpt>
      <trkpt lat="44.438023" lon="4.691450">
        <ele>109.599665</ele>
        <time>2017-06-06T14:20:16.000Z</time>
      </trkpt>
      <trkpt lat="44.437916" lon="4.691375">
        <ele>109.410307</ele>
        <time>2017-06-06T14:20:18.000Z</time>
      </trkpt>
      <trkpt lat="44.437813" lon="4.691309">
        <ele>109.231051</ele>
        <time>2017-06-06T14:20:20.000Z</time>
      </trkpt>
      <trkpt lat="44.437717" lon="4.691247">
        <ele>109.063748</ele>
        <time>2017-06-06T14:20:22.000Z</time>
      </trkpt>
      <trkpt lat="44.437637" lon="4.691177">
        <ele>108.914464</ele>
        <time>2017-06-06T14:20:24.000Z</time>
      </trkpt>
      <trkpt lat="44.437557" lon="4.691105">
        <ele>108.763971</ele>
        <time>2017-06-06T14:20:26.000Z</time>
      </trkpt>
      <trkpt lat="44.437477" lon="4.691034">
        <ele>108.614085</ele>
        <time>2017-06-06T14:20:28.000Z</time>
      </trkpt>
      <trkpt lat="44.437360" lon="4.690957">
        <ele>108.409499</ele>
        <time>2017-06-06T14:20:31.000Z</time>
      </trkpt>
      <trkpt lat="44.437260" lon="4.690880">
        <ele>108.228900</ele>
        <time>2017-06-06T14:20:34.000Z</time>
      </trkpt>
      <trkpt lat="44.437153" lon="4.690798">
        <ele>108.035871</ele>
        <time>2017-06-06T14:20:37.000Z</time>
      </trkpt>
      <trkpt lat="44.437040" lon="4.690718">
        <ele>107.905203</ele>
        <time>2017-06-06T14:20:40.000Z</time>
      </trkpt>
      <trkpt lat="44.436920" lon="4.690638">
        <ele>107.830258</ele>
        <time>2017-06-06T14:20:43.000Z</time>
      </trkpt>
      <trkpt lat="44.436836" lon="4.690586">
        <ele>107.778468</ele>
        <time>2017-06-06T14:20:45.000Z</time>
      </trkpt>
      <trkpt lat="44.436710" lon="4.690506">
        <ele>107.700454</ele>
        <time>2017-06-06T14:20:48.000Z</time>
      </trkpt>
      <trkpt lat="44.436596" lon="4.690431">
        <ele>107.629429</ele>
        <time>2017-06-06T14:20:51.000Z</time>
      </trkpt>
      <trkpt lat="44.436510" lon="4.690390">
        <ele>107.578199</ele>
        <time>2017-06-06T14:20:53.000Z</time>
      </trkpt>
      <trkpt lat="44.436424" lon="4.690332">
        <ele>107.524372</ele>
        <time>2017-06-06T14:20:55.000Z</time>
      </trkpt>
      <trkpt lat="44.436340" lon="4.690288">
        <ele>107.473799</ele>
        <time>2017-06-06T14:20:57.000Z</time>
      </trkpt>
      <trkpt lat="44.436253" lon="4.690248">
        <ele>107.422162</ele>
        <time>2017-06-06T14:20:59.000Z</time>
      </trkpt>
      <trkpt lat="44.436153" lon="4.690196">
        <ele>107.362010</ele>
        <time>2017-06-06T14:21:01.000Z</time>
      </trkpt>
      <trkpt lat="44.436047" lon="4.690147">
        <ele>107.299063</ele>
        <time>2017-06-06T14:21:03.000Z</time>
      </trkpt>
      <trkpt lat="44.435940" lon="4.690093">
        <ele>107.234926</ele>
        <time>2017-06-06T14:21:05.000Z</time>
      </trkpt>
      <trkpt lat="44.435840" lon="4.690044">
        <ele>107.175183</ele>
        <time>2017-06-06T14:21:07.000Z</time>
      </trkpt>
      <trkpt lat="44.435738" lon="4.689988">
        <ele>107.113402</ele>
        <time>2017-06-06T14:21:09.000Z</time>
      </trkpt>
      <trkpt lat="44.435640" lon="4.689925">
        <ele>107.052594</ele>
        <time>2017-06-06T14:21:11.000Z</time>
      </trkpt>
      <trkpt lat="44.435550" lon="4.689866">
        <ele>106.996557</ele>
        <time>2017-06-06T14:21:13.000Z</time>
      </trkpt>
      <trkpt lat="44.435467" lon="4.689810">
        <ele>106.944604</ele>
        <time>2017-06-06T14:21:15.000Z</time>
      </trkpt>
      <trkpt lat="44.435345" lon="4.689741">
        <ele>106.915917</ele>
        <time>2017-06-06T14:21:18.000Z</time>
      </trkpt>
      <trkpt lat="44.435220" lon="4.689666">
        <ele>106.898273</ele>
        <time>2017-06-06T14:21:21.000Z</time>
      </trkpt>
      <trkpt lat="44.435116" lon="4.689601">
        <ele>106.883497</ele>
        <time>2017-06-06T14:21:24.000Z</time>
      </trkpt>
      <trkpt lat="44.435030" lon="4.689540">
        <ele>106.870990</ele>
        <time>2017-06-06T14:21:27.000Z</time>
      </trkpt>
      <trkpt lat="44.434948" lon="4.689486">
        <ele>106.859234</ele>
        <time>2017-06-06T14:21:30.000Z</time>
      </trkpt>
      <trkpt lat="44.434853" lon="4.689397">
        <ele>106.844405</ele>
        <time>2017-06-06T14:21:35.000Z</time>
      </trkpt>
      <trkpt lat="44.434740" lon="4.689350">
        <ele>106.829111</ele>
        <time>2017-06-06T14:21:39.000Z</time>
      </trkpt>
      <trkpt lat="44.434635" lon="4.689325">
        <ele>106.815293</ele>
        <time>2017-06-06T14:21:42.000Z</time>
      </trkpt>
      <trkpt lat="44.434530" lon="4.689276">
        <ele>106.800933</ele>
        <time>2017-06-06T14:21:45.000Z</time>
      </trkpt>
      <trkpt lat="44.434414" lon="4.689199">
        <ele>106.784278</ele>
        <time>2017-06-06T14:21:48.000Z</time>
      </trkpt>
      <trkpt lat="44.434303" lon="4.689107">
        <ele>106.767544</ele>
        <time>2017-06-06T14:21:51.000Z</time>
      </trkpt>
      <trkpt lat="44.434190" lon="4.689018">
        <ele>106.750724</ele>
        <time>2017-06-06T14:21:54.000Z</time>
      </trkpt>
      <trkpt lat="44.434110" lon="4.688952">
        <ele>106.738677</ele>
        <time>2017-06-06T14:21:56.000Z</time>
      </trkpt>
      <trkpt lat="44.434020" lon="4.688876">
        <ele>106.725042</ele>
        <time>2017-06-06T14:21:58.000Z</time>
      </trkpt>
      <trkpt lat="44.433940" lon="4.688798">
        <ele>106.712395</ele>
        <time>2017-06-06T14:22:00.000Z</time>
      </trkpt>
      <trkpt lat="44.433853" lon="4.688747">
        <ele>106.700159</ele>
        <time>2017-06-06T14:22:02.000Z</time>
      </trkpt>
      <trkpt lat="44.433773" lon="4.688689">
        <ele>106.644214</ele>
        <time>2017-06-06T14:22:04.000Z</time>
      </trkpt>
      <trkpt lat="44.433650" lon="4.688599">
        <ele>106.522533</ele>
        <time>2017-06-06T14:22:07.000Z</time>
      </trkpt>
      <trkpt lat="44.433563" lon="4.688529">
        <ele>106.434556</ele>
        <time>2017-06-06T14:22:09.000Z</time>
      </trkpt>
      <trkpt lat="44.433483" lon="4.688456">
        <ele>106.350835</ele>
        <time>2017-06-06T14:22:11.000Z</time>
      </trkpt>
      <trkpt lat="44.433388" lon="4.688374">
        <ele>106.252987</ele>
        <time>2017-06-06T14:22:13.000Z</time>
      </trkpt>
      <trkpt lat="44.433296" lon="4.688309">
        <ele>106.162636</ele>
        <time>2017-06-06T14:22:15.000Z</time>
      </trkpt>
      <trkpt lat="44.433197" lon="4.688233">
        <ele>106.063646</ele>
        <time>2017-06-06T14:22:17.000Z</time>
      </trkpt>
      <trkpt lat="44.433117" lon="4.688182">
        <ele>105.986575</ele>
        <time>2017-06-06T14:22:19.000Z</time>
      </trkpt>
      <trkpt lat="44.433030" lon="4.688107">
        <ele>105.896998</ele>
        <time>2017-06-06T14:22:21.000Z</time>
      </trkpt>
      <trkpt lat="44.432950" lon="4.688047">
        <ele>105.817427</ele>
        <time>2017-06-06T14:22:23.000Z</time>
      </trkpt>
      <trkpt lat="44.432835" lon="4.687944">
        <ele>105.697735</ele>
        <time>2017-06-06T14:22:26.000Z</time>
      </trkpt>
      <trkpt lat="44.432750" lon="4.687870">
        <ele>105.609979</ele>
        <time>2017-06-06T14:22:28.000Z</time>
      </trkpt>
      <trkpt lat="44.432674" lon="4.687801">
        <ele>105.530563</ele>
        <time>2017-06-06T14:22:30.000Z</time>
      </trkpt>
      <trkpt lat="44.432570" lon="4.687723">
        <ele>105.427120</ele>
        <time>2017-06-06T14:22:32.000Z</time>
      </trkpt>
      <trkpt lat="44.432465" lon="4.687652">
        <ele>105.324885</ele>
        <time>2017-06-06T14:22:34.000Z</time>
      </trkpt>
      <trkpt lat="44.432380" lon="4.687578">
        <ele>105.237128</ele>
        <time>2017-06-06T14:22:36.000Z</time>
      </trkpt>
      <trkpt lat="44.432297" lon="4.687502">
        <ele>105.150177</ele>
        <time>2017-06-06T14:22:38.000Z</time>
      </trkpt>
      <trkpt lat="44.432213" lon="4.687431">
        <ele>105.126760</ele>
        <time>2017-06-06T14:22:40.000Z</time>
      </trkpt>
      <trkpt lat="44.432160" lon="4.687309">
        <ele>105.139245</ele>
        <time>2017-06-06T14:22:42.000Z</time>
      </trkpt>
      <trkpt lat="44.432100" lon="4.687197">
        <ele>105.151487</ele>
        <time>2017-06-06T14:22:44.000Z</time>
      </trkpt>
      <trkpt lat="44.432014" lon="4.687088">
        <ele>105.165689</ele>
        <time>2017-06-06T14:22:46.000Z</time>
      </trkpt>
      <trkpt lat="44.431934" lon="4.686996">
        <ele>105.178364</ele>
        <time>2017-06-06T14:22:48.000Z</time>
      </trkpt>
      <trkpt lat="44.431858" lon="4.686920">
        <ele>105.189798</ele>
        <time>2017-06-06T14:22:50.000Z</time>
      </trkpt>
      <trkpt lat="44.431767" lon="4.686863">
        <ele>105.202004</ele>
        <time>2017-06-06T14:22:52.000Z</time>
      </trkpt>
      <trkpt lat="44.431667" lon="4.686821">
        <ele>105.214787</ele>
        <time>2017-06-06T14:22:54.000Z</time>
      </trkpt>
      <trkpt lat="44.431564" lon="4.686784">
        <ele>105.227806</ele>
        <time>2017-06-06T14:22:56.000Z</time>
      </trkpt>
      <trkpt lat="44.431470" lon="4.686735">
        <ele>105.240087</ele>
        <time>2017-06-06T14:22:58.000Z</time>
      </trkpt>
      <trkpt lat="44.431380" lon="4.686678">
        <ele>105.252181</ele>
        <time>2017-06-06T14:23:00.000Z</time>
      </trkpt>
      <trkpt lat="44.431290" lon="4.686623">
        <ele>105.264204</ele>
        <time>2017-06-06T14:23:02.000Z</time>
      </trkpt>
      <trkpt lat="44.431187" lon="4.686562">
        <ele>105.277897</ele>
        <time>2017-06-06T14:23:04.000Z</time>
      </trkpt>
      <trkpt lat="44.431084" lon="4.686502">
        <ele>105.291556</ele>
        <time>2017-06-06T14:23:06.000Z</time>
      </trkpt>
      <trkpt lat="44.430992" lon="4.686449">
        <ele>105.303736</ele>
        <time>2017-06-06T14:23:08.000Z</time>
      </trkpt>
      <trkpt lat="44.430910" lon="4.686394">
        <ele>105.314868</ele>
        <time>2017-06-06T14:23:10.000Z</time>
      </trkpt>
      <trkpt lat="44.430824" lon="4.686340">
        <ele>105.326408</ele>
        <time>2017-06-06T14:23:12.000Z</time>
      </trkpt>
      <trkpt lat="44.430737" lon="4.686280">
        <ele>105.338282</ele>
        <time>2017-06-06T14:23:14.000Z</time>
      </trkpt>
      <trkpt lat="44.430653" lon="4.686220">
        <ele>105.274500</ele>
        <time>2017-06-06T14:23:16.000Z</time>
      </trkpt>
      <trkpt lat="44.430560" lon="4.686171">
        <ele>105.199507</ele>
        <time>2017-06-06T14:23:18.000Z</time>
      </trkpt>
      <trkpt lat="44.430470" lon="4.686115">
        <ele>105.125179</ele>
        <time>2017-06-06T14:23:20.000Z</time>
      </trkpt>
      <trkpt lat="44.430378" lon="4.686063">
        <ele>105.050302</ele>
        <time>2017-06-06T14:23:22.000Z</time>
      </trkpt>
      <trkpt lat="44.430283" lon="4.686000">
        <ele>104.970971</ele>
        <time>2017-06-06T14:23:24.000Z</time>
      </trkpt>
      <trkpt lat="44.430202" lon="4.685935">
        <ele>104.900513</ele>
        <time>2017-06-06T14:23:26.000Z</time>
      </trkpt>
      <trkpt lat="44.430100" lon="4.685885">
        <ele>104.818951</ele>
        <time>2017-06-06T14:23:28.000Z</time>
      </trkpt>
      <trkpt lat="44.430010" lon="4.685838">
        <ele>104.746457</ele>
        <time>2017-06-06T14:23:30.000Z</time>
      </trkpt>
      <trkpt lat="44.429916" lon="4.685778">
        <ele>104.668491</ele>
        <time>2017-06-06T14:23:32.000Z</time>
      </trkpt>
      <trkpt lat="44.429830" lon="4.685719">
        <ele>104.596214</ele>
        <time>2017-06-06T14:23:34.000Z</time>
      </trkpt>
      <trkpt lat="44.429745" lon="4.685671">
        <ele>104.527043</ele>
        <time>2017-06-06T14:23:36.000Z</time>
      </trkpt>
      <trkpt lat="44.429623" lon="4.685602">
        <ele>104.427741</ele>
        <time>2017-06-06T14:23:39.000Z</time>
      </trkpt>
      <trkpt lat="44.429540" lon="4.685556">
        <ele>104.360372</ele>
        <time>2017-06-06T14:23:41.000Z</time>
      </trkpt>
      <trkpt lat="44.429447" lon="4.685501">
        <ele>104.284180</ele>
        <time>2017-06-06T14:23:43.000Z</time>
      </trkpt>
      <trkpt lat="44.429356" lon="4.685439">
        <ele>104.207803</ele>
        <time>2017-06-06T14:23:45.000Z</time>
      </trkpt>
      <trkpt lat="44.429260" lon="4.685386">
        <ele>104.129923</ele>
        <time>2017-06-06T14:23:47.000Z</time>
      </trkpt>
      <trkpt lat="44.429157" lon="4.685340">
        <ele>104.048329</ele>
        <time>2017-06-06T14:23:49.000Z</time>
      </trkpt>
      <trkpt lat="44.429060" lon="4.685297">
        <ele>103.988225</ele>
        <time>2017-06-06T14:23:51.000Z</time>
      </trkpt>
      <trkpt lat="44.428970" lon="4.685255">
        <ele>104.032593</ele>
        <time>2017-06-06T14:23:53.000Z</time>
      </trkpt>
      <trkpt lat="44.428883" lon="4.685229">
        <ele>104.074199</ele>
        <time>2017-06-06T14:23:55.000Z</time>
      </trkpt>
      <trkpt lat="44.428757" lon="4.685188">
        <ele>104.134699</ele>
        <time>2017-06-06T14:23:58.000Z</time>
      </trkpt>
      <trkpt lat="44.428673" lon="4.685139">
        <ele>104.177258</ele>
        <time>2017-06-06T14:24:00.000Z</time>
      </trkpt>
      <trkpt lat="44.428543" lon="4.685079">
        <ele>104.241276</ele>
        <time>2017-06-06T14:24:03.000Z</time>
      </trkpt>
      <trkpt lat="44.428417" lon="4.685017">
        <ele>104.303738</ele>
        <time>2017-06-06T14:24:06.000Z</time>
      </trkpt>
      <trkpt lat="44.428310" lon="4.684952">
        <ele>104.358287</ele>
        <time>2017-06-06T14:24:09.000Z</time>
      </trkpt>
      <trkpt lat="44.428223" lon="4.684899">
        <ele>104.402661</ele>
        <time>2017-06-06T14:24:11.000Z</time>
      </trkpt>
      <trkpt lat="44.428135" lon="4.684833">
        <ele>104.449349</ele>
        <time>2017-06-06T14:24:13.000Z</time>
      </trkpt>
      <trkpt lat="44.428062" lon="4.684753">
        <ele>104.492704</ele>
        <time>2017-06-06T14:24:15.000Z</time>
      </trkpt>
      <trkpt lat="44.427967" lon="4.684672">
        <ele>104.544723</ele>
        <time>2017-06-06T14:24:17.000Z</time>
      </trkpt>
      <trkpt lat="44.427868" lon="4.684603">
        <ele>104.596443</ele>
        <time>2017-06-06T14:24:19.000Z</time>
      </trkpt>
      <trkpt lat="44.427780" lon="4.684522">
        <ele>104.645696</ele>
        <time>2017-06-06T14:24:21.000Z</time>
      </trkpt>
      <trkpt lat="44.427692" lon="4.684459">
        <ele>104.691920</ele>
        <time>2017-06-06T14:24:23.000Z</time>
      </trkpt>
      <trkpt lat="44.427600" lon="4.684398">
        <ele>104.739528</ele>
        <time>2017-06-06T14:24:25.000Z</time>
      </trkpt>
      <trkpt lat="44.427505" lon="4.684356">
        <ele>104.786121</ele>
        <time>2017-06-06T14:24:27.000Z</time>
      </trkpt>
      <trkpt lat="44.427414" lon="4.684310">
        <ele>104.851167</ele>
        <time>2017-06-06T14:24:29.000Z</time>
      </trkpt>
      <trkpt lat="44.427326" lon="4.684274">
        <ele>104.996193</ele>
        <time>2017-06-06T14:24:31.000Z</time>
      </trkpt>
      <trkpt lat="44.427230" lon="4.684239">
        <ele>105.153118</ele>
        <time>2017-06-06T14:24:33.000Z</time>
      </trkpt>
      <trkpt lat="44.427143" lon="4.684201">
        <ele>105.297283</ele>
        <time>2017-06-06T14:24:35.000Z</time>
      </trkpt>
      <trkpt lat="44.427055" lon="4.684161">
        <ele>105.443641</ele>
        <time>2017-06-06T14:24:37.000Z</time>
      </trkpt>
      <trkpt lat="44.426920" lon="4.684120">
        <ele>105.662162</ele>
        <time>2017-06-06T14:24:40.000Z</time>
      </trkpt>
      <trkpt lat="44.426785" lon="4.684135">
        <ele>105.876390</ele>
        <time>2017-06-06T14:24:43.000Z</time>
      </trkpt>
      <trkpt lat="44.426666" lon="4.684197">
        <ele>106.077244</ele>
        <time>2017-06-06T14:24:46.000Z</time>
      </trkpt>
      <trkpt lat="44.426560" lon="4.684247">
        <ele>106.254184</ele>
        <time>2017-06-06T14:24:49.000Z</time>
      </trkpt>
      <trkpt lat="44.426440" lon="4.684313">
        <ele>106.458130</ele>
        <time>2017-06-06T14:24:52.000Z</time>
      </trkpt>
      <trkpt lat="44.426327" lon="4.684368">
        <ele>106.647375</ele>
        <time>2017-06-06T14:24:55.000Z</time>
      </trkpt>
      <trkpt lat="44.426224" lon="4.684446">
        <ele>106.832612</ele>
        <time>2017-06-06T14:24:58.000Z</time>
      </trkpt>
      <trkpt lat="44.426120" lon="4.684516">
        <ele>107.015149</ele>
        <time>2017-06-06T14:25:01.000Z</time>
      </trkpt>
      <trkpt lat="44.426018" lon="4.684571">
        <ele>107.188053</ele>
        <time>2017-06-06T14:25:04.000Z</time>
      </trkpt>
      <trkpt lat="44.425934" lon="4.684625">
        <ele>107.334267</ele>
        <time>2017-06-06T14:25:07.000Z</time>
      </trkpt>
      <trkpt lat="44.425840" lon="4.684701">
        <ele>107.505973</ele>
        <time>2017-06-06T14:25:10.000Z</time>
      </trkpt>
      <trkpt lat="44.425747" lon="4.684772">
        <ele>107.663294</ele>
        <time>2017-06-06T14:25:13.000Z</time>
      </trkpt>
      <trkpt lat="44.425655" lon="4.684836">
        <ele>107.506043</ele>
        <time>2017-06-06T14:25:16.000Z</time>
      </trkpt>
      <trkpt lat="44.425564" lon="4.684895">
        <ele>107.352537</ele>
        <time>2017-06-06T14:25:19.000Z</time>
      </trkpt>
      <trkpt lat="44.425457" lon="4.684954">
        <ele>107.176504</ele>
        <time>2017-06-06T14:25:23.000Z</time>
      </trkpt>
      <trkpt lat="44.425358" lon="4.684940">
        <ele>107.024189</ele>
        <time>2017-06-06T14:25:26.000Z</time>
      </trkpt>
      <trkpt lat="44.425240" lon="4.684887">
        <ele>106.834495</ele>
        <time>2017-06-06T14:25:29.000Z</time>
      </trkpt>
      <trkpt lat="44.425117" lon="4.684815">
        <ele>106.630421</ele>
        <time>2017-06-06T14:25:32.000Z</time>
      </trkpt>
      <trkpt lat="44.424990" lon="4.684752">
        <ele>106.424177</ele>
        <time>2017-06-06T14:25:35.000Z</time>
      </trkpt>
      <trkpt lat="44.424862" lon="4.684684">
        <ele>106.214612</ele>
        <time>2017-06-06T14:25:38.000Z</time>
      </trkpt>
      <trkpt lat="44.424778" lon="4.684639">
        <ele>106.076939</ele>
        <time>2017-06-06T14:25:40.000Z</time>
      </trkpt>
      <trkpt lat="44.424690" lon="4.684594">
        <ele>105.933531</ele>
        <time>2017-06-06T14:25:42.000Z</time>
      </trkpt>
      <trkpt lat="44.424564" lon="4.684550">
        <ele>105.734748</ele>
        <time>2017-06-06T14:25:45.000Z</time>
      </trkpt>
      <trkpt lat="44.424454" lon="4.684504">
        <ele>105.559017</ele>
        <time>2017-06-06T14:25:48.000Z</time>
      </trkpt>
      <trkpt lat="44.424343" lon="4.684445">
        <ele>105.377272</ele>
        <time>2017-06-06T14:25:51.000Z</time>
      </trkpt>
      <trkpt lat="44.424225" lon="4.684394">
        <ele>105.188234</ele>
        <time>2017-06-06T14:25:54.000Z</time>
      </trkpt>
      <trkpt lat="44.424107" lon="4.684342">
        <ele>104.998871</ele>
        <time>2017-06-06T14:25:57.000Z</time>
      </trkpt>
      <trkpt lat="44.423990" lon="4.684285">
        <ele>104.904746</ele>
        <time>2017-06-06T14:26:00.000Z</time>
      </trkpt>
      <trkpt lat="44.423885" lon="4.684227">
        <ele>104.887918</ele>
        <time>2017-06-06T14:26:03.000Z</time>
      </trkpt>
      <trkpt lat="44.423782" lon="4.684173">
        <ele>104.871521</ele>
        <time>2017-06-06T14:26:06.000Z</time>
      </trkpt>
      <trkpt lat="44.423683" lon="4.684131">
        <ele>104.856098</ele>
        <time>2017-06-06T14:26:09.000Z</time>
      </trkpt>
      <trkpt lat="44.423576" lon="4.684082">
        <ele>104.839314</ele>
        <time>2017-06-06T14:26:12.000Z</time>
      </trkpt>
      <trkpt lat="44.423477" lon="4.684041">
        <ele>104.823922</ele>
        <time>2017-06-06T14:26:15.000Z</time>
      </trkpt>
      <trkpt lat="44.423390" lon="4.684008">
        <ele>104.810484</ele>
        <time>2017-06-06T14:26:18.000Z</time>
      </trkpt>
      <trkpt lat="44.423294" lon="4.683962">
        <ele>104.795357</ele>
        <time>2017-06-06T14:26:21.000Z</time>
      </trkpt>
      <trkpt lat="44.423183" lon="4.683906">
        <ele>104.777767</ele>
        <time>2017-06-06T14:26:24.000Z</time>
      </trkpt>
      <trkpt lat="44.423058" lon="4.683851">
        <ele>104.758232</ele>
        <time>2017-06-06T14:26:27.000Z</time>
      </trkpt>
      <trkpt lat="44.422940" lon="4.683793">
        <ele>104.739587</ele>
        <time>2017-06-06T14:26:30.000Z</time>
      </trkpt>
      <trkpt lat="44.422825" lon="4.683744">
        <ele>104.721666</ele>
        <time>2017-06-06T14:26:33.000Z</time>
      </trkpt>
      <trkpt lat="44.422707" lon="4.683692">
        <ele>104.703223</ele>
        <time>2017-06-06T14:26:36.000Z</time>
      </trkpt>
      <trkpt lat="44.422590" lon="4.683634">
        <ele>104.684718</ele>
        <time>2017-06-06T14:26:39.000Z</time>
      </trkpt>
      <trkpt lat="44.422485" lon="4.683588">
        <ele>104.668316</ele>
        <time>2017-06-06T14:26:42.000Z</time>
      </trkpt>
      <trkpt lat="44.422398" lon="4.683554">
        <ele>104.654849</ele>
        <time>2017-06-06T14:26:48.000Z</time>
      </trkpt>
      <trkpt lat="44.422320" lon="4.683624">
        <ele>104.635604</ele>
        <time>2017-06-06T14:26:57.000Z</time>
      </trkpt>
      <trkpt lat="44.422260" lon="4.683530">
        <ele>104.609733</ele>
        <time>2017-06-06T14:29:34.000Z</time>
      </trkpt>
      <trkpt lat="44.422173" lon="4.683502">
        <ele>104.584083</ele>
        <time>2017-06-06T14:29:39.000Z</time>
      </trkpt>
      <trkpt lat="44.422073" lon="4.683491">
        <ele>104.555260</ele>
        <time>2017-06-06T14:29:45.000Z</time>
      </trkpt>
      <trkpt lat="44.421974" lon="4.683450">
        <ele>104.525596</ele>
        <time>2017-06-06T14:29:51.000Z</time>
      </trkpt>
      <trkpt lat="44.421880" lon="4.683426">
        <ele>104.498141</ele>
        <time>2017-06-06T14:29:57.000Z</time>
      </trkpt>
      <trkpt lat="44.421783" lon="4.683404">
        <ele>104.469906</ele>
        <time>2017-06-06T14:30:04.000Z</time>
      </trkpt>
      <trkpt lat="44.421696" lon="4.683362">
        <ele>104.443463</ele>
        <time>2017-06-06T14:30:09.000Z</time>
      </trkpt>
      <trkpt lat="44.421600" lon="4.683317">
        <ele>104.414374</ele>
        <time>2017-06-06T14:30:14.000Z</time>
      </trkpt>
      <trkpt lat="44.421516" lon="4.683264">
        <ele>104.387901</ele>
        <time>2017-06-06T14:30:20.000Z</time>
      </trkpt>
      <trkpt lat="44.421413" lon="4.683227">
        <ele>104.357346</ele>
        <time>2017-06-06T14:31:13.000Z</time>
      </trkpt>
      <trkpt lat="44.421326" lon="4.683226">
        <ele>104.332347</ele>
        <time>2017-06-06T14:31:19.000Z</time>
      </trkpt>
      <trkpt lat="44.421230" lon="4.683213">
        <ele>104.304634</ele>
        <time>2017-06-06T14:31:23.000Z</time>
      </trkpt>
      <trkpt lat="44.421112" lon="4.683209">
        <ele>104.270718</ele>
        <time>2017-06-06T14:31:27.000Z</time>
      </trkpt>
      <trkpt lat="44.421013" lon="4.683204">
        <ele>104.242254</ele>
        <time>2017-06-06T14:31:30.000Z</time>
      </trkpt>
      <trkpt lat="44.420900" lon="4.683204">
        <ele>104.209785</ele>
        <time>2017-06-06T14:31:34.000Z</time>
      </trkpt>
      <trkpt lat="44.420795" lon="4.683198">
        <ele>104.179589</ele>
        <time>2017-06-06T14:31:38.000Z</time>
      </trkpt>
      <trkpt lat="44.420696" lon="4.683194">
        <ele>104.151131</ele>
        <time>2017-06-06T14:31:42.000Z</time>
      </trkpt>
      <trkpt lat="44.420600" lon="4.683182">
        <ele>104.131756</ele>
        <time>2017-06-06T14:31:46.000Z</time>
      </trkpt>
      <trkpt lat="44.420475" lon="4.683173">
        <ele>104.140837</ele>
        <time>2017-06-06T14:31:51.000Z</time>
      </trkpt>
      <trkpt lat="44.420387" lon="4.683167">
        <ele>104.147229</ele>
        <time>2017-06-06T14:31:56.000Z</time>
      </trkpt>
      <trkpt lat="44.420284" lon="4.683173">
        <ele>104.154709</ele>
        <time>2017-06-06T14:32:03.000Z</time>
      </trkpt>
      <trkpt lat="44.420185" lon="4.683157">
        <ele>104.161940</ele>
        <time>2017-06-06T14:35:36.000Z</time>
      </trkpt>
      <trkpt lat="44.420094" lon="4.683144">
        <ele>104.168577</ele>
        <time>2017-06-06T14:35:42.000Z</time>
      </trkpt>
      <trkpt lat="44.419983" lon="4.683139">
        <ele>104.176634</ele>
        <time>2017-06-06T14:35:47.000Z</time>
      </trkpt>
      <trkpt lat="44.419880" lon="4.683135">
        <ele>104.184110</ele>
        <time>2017-06-06T14:35:52.000Z</time>
      </trkpt>
      <trkpt lat="44.419777" lon="4.683130">
        <ele>104.191588</ele>
        <time>2017-06-06T14:35:57.000Z</time>
      </trkpt>
      <trkpt lat="44.419685" lon="4.683121">
        <ele>104.198279</ele>
        <time>2017-06-06T14:36:01.000Z</time>
      </trkpt>
      <trkpt lat="44.419575" lon="4.683116">
        <ele>104.206265</ele>
        <time>2017-06-06T14:36:05.000Z</time>
      </trkpt>
      <trkpt lat="44.419456" lon="4.683100">
        <ele>104.214938</ele>
        <time>2017-06-06T14:36:09.000Z</time>
      </trkpt>
      <trkpt lat="44.419357" lon="4.683092">
        <ele>104.222133</ele>
        <time>2017-06-06T14:36:13.000Z</time>
      </trkpt>
      <trkpt lat="44.419262" lon="4.683054">
        <ele>104.229302</ele>
        <time>2017-06-06T14:36:17.000Z</time>
      </trkpt>
      <trkpt lat="44.419212" lon="4.682944">
        <ele>104.236059</ele>
        <time>2017-06-06T14:36:20.000Z</time>
      </trkpt>
      <trkpt lat="44.419228" lon="4.682789">
        <ele>104.244174</ele>
        <time>2017-06-06T14:36:23.000Z</time>
      </trkpt>
      <trkpt lat="44.419262" lon="4.682637">
        <ele>104.252428</ele>
        <time>2017-06-06T14:36:26.000Z</time>
      </trkpt>
      <trkpt lat="44.419296" lon="4.682501">
        <ele>104.259895</ele>
        <time>2017-06-06T14:36:29.000Z</time>
      </trkpt>
      <trkpt lat="44.419323" lon="4.682358">
        <ele>104.265250</ele>
        <time>2017-06-06T14:36:32.000Z</time>
      </trkpt>
      <trkpt lat="44.419357" lon="4.682212">
        <ele>104.270575</ele>
        <time>2017-06-06T14:36:35.000Z</time>
      </trkpt>
      <trkpt lat="44.419388" lon="4.682073">
        <ele>104.275624</ele>
        <time>2017-06-06T14:36:38.000Z</time>
      </trkpt>
      <trkpt lat="44.419422" lon="4.681933">
        <ele>104.280751</ele>
        <time>2017-06-06T14:36:41.000Z</time>
      </trkpt>
      <trkpt lat="44.419453" lon="4.681791">
        <ele>104.285899</ele>
        <time>2017-06-06T14:36:44.000Z</time>
      </trkpt>
      <trkpt lat="44.419480" lon="4.681656">
        <ele>104.290760</ele>
        <time>2017-06-06T14:36:47.000Z</time>
      </trkpt>
      <trkpt lat="44.419510" lon="4.681517">
        <ele>104.295795</ele>
        <time>2017-06-06T14:36:50.000Z</time>
      </trkpt>
      <trkpt lat="44.419540" lon="4.681369">
        <ele>104.301129</ele>
        <time>2017-06-06T14:36:53.000Z</time>
      </trkpt>
      <trkpt lat="44.419575" lon="4.681220">
        <ele>104.306567</ele>
        <time>2017-06-06T14:36:56.000Z</time>
      </trkpt>
      <trkpt lat="44.419590" lon="4.681059">
        <ele>104.312197</ele>
        <time>2017-06-06T14:36:59.000Z</time>
      </trkpt>
      <trkpt lat="44.419624" lon="4.680916">
        <ele>104.317423</ele>
        <time>2017-06-06T14:37:02.000Z</time>
      </trkpt>
      <trkpt lat="44.419655" lon="4.680765">
        <ele>104.322870</ele>
        <time>2017-06-06T14:37:05.000Z</time>
      </trkpt>
      <trkpt lat="44.419693" lon="4.680609">
        <ele>104.328585</ele>
        <time>2017-06-06T14:37:08.000Z</time>
      </trkpt>
      <trkpt lat="44.419730" lon="4.680461">
        <ele>104.334022</ele>
        <time>2017-06-06T14:37:11.000Z</time>
      </trkpt>
      <trkpt lat="44.419770" lon="4.680298">
        <ele>104.339998</ele>
        <time>2017-06-06T14:37:14.000Z</time>
      </trkpt>
      <trkpt lat="44.419790" lon="4.680169">
        <ele>104.344574</ele>
        <time>2017-06-06T14:37:17.000Z</time>
      </trkpt>
      <trkpt lat="44.419792" lon="4.680028">
        <ele>104.359308</ele>
        <time>2017-06-06T14:37:21.000Z</time>
      </trkpt>
      <trkpt lat="44.419807" lon="4.679883">
        <ele>104.396243</ele>
        <time>2017-06-06T14:37:25.000Z</time>
      </trkpt>
      <trkpt lat="44.419888" lon="4.679804">
        <ele>104.431084</ele>
        <time>2017-06-06T14:37:30.000Z</time>
      </trkpt>
      <trkpt lat="44.419815" lon="4.679706">
        <ele>104.466779</ele>
        <time>2017-06-06T14:38:38.000Z</time>
      </trkpt>
      <trkpt lat="44.419823" lon="4.679557">
        <ele>104.504446</ele>
        <time>2017-06-06T14:38:44.000Z</time>
      </trkpt>
      <trkpt lat="44.419860" lon="4.679406">
        <ele>104.544689</ele>
        <time>2017-06-06T14:38:49.000Z</time>
      </trkpt>
      <trkpt lat="44.419890" lon="4.679255">
        <ele>104.584200</ele>
        <time>2017-06-06T14:38:53.000Z</time>
      </trkpt>
      <trkpt lat="44.419920" lon="4.679132">
        <ele>104.616965</ele>
        <time>2017-06-06T14:38:56.000Z</time>
      </trkpt>
      <trkpt lat="44.419960" lon="4.679001">
        <ele>104.652879</ele>
        <time>2017-06-06T14:38:59.000Z</time>
      </trkpt>
      <trkpt lat="44.419994" lon="4.678865">
        <ele>104.689203</ele>
        <time>2017-06-06T14:39:02.000Z</time>
      </trkpt>
      <trkpt lat="44.420036" lon="4.678715">
        <ele>104.729818</ele>
        <time>2017-06-06T14:39:05.000Z</time>
      </trkpt>
      <trkpt lat="44.420067" lon="4.678563">
        <ele>104.769666</ele>
        <time>2017-06-06T14:39:08.000Z</time>
      </trkpt>
      <trkpt lat="44.420113" lon="4.678388">
        <ele>104.816674</ele>
        <time>2017-06-06T14:39:11.000Z</time>
      </trkpt>
      <trkpt lat="44.420155" lon="4.678245">
        <ele>104.855651</ele>
        <time>2017-06-06T14:39:13.000Z</time>
      </trkpt>
      <trkpt lat="44.420174" lon="4.678086">
        <ele>104.896290</ele>
        <time>2017-06-06T14:39:16.000Z</time>
      </trkpt>
      <trkpt lat="44.420113" lon="4.677956">
        <ele>104.935501</ele>
        <time>2017-06-06T14:39:19.000Z</time>
      </trkpt>
      <trkpt lat="44.420000" lon="4.677905">
        <ele>104.977405</ele>
        <time>2017-06-06T14:39:22.000Z</time>
      </trkpt>
      <trkpt lat="44.419872" lon="4.677877">
        <ele>104.913316</ele>
        <time>2017-06-06T14:39:25.000Z</time>
      </trkpt>
      <trkpt lat="44.419740" lon="4.677843">
        <ele>104.831943</ele>
        <time>2017-06-06T14:39:28.000Z</time>
      </trkpt>
      <trkpt lat="44.419650" lon="4.677813">
        <ele>104.775852</ele>
        <time>2017-06-06T14:39:30.000Z</time>
      </trkpt>
      <trkpt lat="44.419520" lon="4.677776">
        <ele>104.695422</ele>
        <time>2017-06-06T14:39:33.000Z</time>
      </trkpt>
      <trkpt lat="44.419407" lon="4.677741">
        <ele>104.625255</ele>
        <time>2017-06-06T14:39:36.000Z</time>
      </trkpt>
      <trkpt lat="44.419296" lon="4.677702">
        <ele>104.555870</ele>
        <time>2017-06-06T14:39:39.000Z</time>
      </trkpt>
      <trkpt lat="44.419178" lon="4.677667">
        <ele>104.482740</ele>
        <time>2017-06-06T14:39:42.000Z</time>
      </trkpt>
      <trkpt lat="44.419070" lon="4.677634">
        <ele>104.415720</ele>
        <time>2017-06-06T14:39:45.000Z</time>
      </trkpt>
      <trkpt lat="44.418957" lon="4.677604">
        <ele>104.345989</ele>
        <time>2017-06-06T14:39:48.000Z</time>
      </trkpt>
      <trkpt lat="44.418840" lon="4.677578">
        <ele>104.274165</ele>
        <time>2017-06-06T14:39:51.000Z</time>
      </trkpt>
      <trkpt lat="44.418720" lon="4.677550">
        <ele>104.200407</ele>
        <time>2017-06-06T14:39:54.000Z</time>
      </trkpt>
      <trkpt lat="44.418610" lon="4.677520">
        <ele>104.132461</ele>
        <time>2017-06-06T14:39:57.000Z</time>
      </trkpt>
      <trkpt lat="44.418507" lon="4.677506">
        <ele>104.069720</ele>
        <time>2017-06-06T14:40:00.000Z</time>
      </trkpt>
      <trkpt lat="44.418400" lon="4.677489">
        <ele>104.004431</ele>
        <time>2017-06-06T14:40:03.000Z</time>
      </trkpt>
      <trkpt lat="44.418278" lon="4.677487">
        <ele>103.930458</ele>
        <time>2017-06-06T14:40:06.000Z</time>
      </trkpt>
      <trkpt lat="44.418156" lon="4.677479">
        <ele>103.873800</ele>
        <time>2017-06-06T14:40:09.000Z</time>
      </trkpt>
      <trkpt lat="44.418040" lon="4.677475">
        <ele>103.837606</ele>
        <time>2017-06-06T14:40:12.000Z</time>
      </trkpt>
      <trkpt lat="44.417923" lon="4.677460">
        <ele>103.800958</ele>
        <time>2017-06-06T14:40:15.000Z</time>
      </trkpt>
      <trkpt lat="44.417812" lon="4.677435">
        <ele>103.765889</ele>
        <time>2017-06-06T14:40:18.000Z</time>
      </trkpt>
      <trkpt lat="44.417710" lon="4.677407">
        <ele>103.733466</ele>
        <time>2017-06-06T14:40:21.000Z</time>
      </trkpt>
      <trkpt lat="44.417595" lon="4.677381">
        <ele>103.697130</ele>
        <time>2017-06-06T14:40:24.000Z</time>
      </trkpt>
      <trkpt lat="44.417477" lon="4.677350">
        <ele>103.659681</ele>
        <time>2017-06-06T14:40:27.000Z</time>
      </trkpt>
      <trkpt lat="44.417362" lon="4.677325">
        <ele>103.623379</ele>
        <time>2017-06-06T14:40:30.000Z</time>
      </trkpt>
      <trkpt lat="44.417248" lon="4.677300">
        <ele>103.587386</ele>
        <time>2017-06-06T14:40:33.000Z</time>
      </trkpt>
      <trkpt lat="44.417133" lon="4.677281">
        <ele>103.551266</ele>
        <time>2017-06-06T14:40:36.000Z</time>
      </trkpt>
      <trkpt lat="44.417015" lon="4.677288">
        <ele>103.514426</ele>
        <time>2017-06-06T14:40:39.000Z</time>
      </trkpt>
      <trkpt lat="44.416897" lon="4.677328">
        <ele>103.476555</ele>
        <time>2017-06-06T14:40:42.000Z</time>
      </trkpt>
      <trkpt lat="44.416770" lon="4.677364">
        <ele>103.436137</ele>
        <time>2017-06-06T14:40:45.000Z</time>
      </trkpt>
      <trkpt lat="44.416645" lon="4.677419">
        <ele>103.395266</ele>
        <time>2017-06-06T14:40:48.000Z</time>
      </trkpt>
      <trkpt lat="44.416523" lon="4.677474">
        <ele>103.355286</ele>
        <time>2017-06-06T14:40:51.000Z</time>
      </trkpt>
      <trkpt lat="44.416405" lon="4.677515">
        <ele>103.342569</ele>
        <time>2017-06-06T14:40:54.000Z</time>
      </trkpt>
      <trkpt lat="44.416283" lon="4.677556">
        <ele>103.374803</ele>
        <time>2017-06-06T14:40:57.000Z</time>
      </trkpt>
      <trkpt lat="44.416157" lon="4.677597">
        <ele>103.408038</ele>
        <time>2017-06-06T14:41:00.000Z</time>
      </trkpt>
      <trkpt lat="44.416020" lon="4.677612">
        <ele>103.443343</ele>
        <time>2017-06-06T14:41:03.000Z</time>
      </trkpt>
      <trkpt lat="44.415886" lon="4.677623">
        <ele>103.477830</ele>
        <time>2017-06-06T14:41:06.000Z</time>
      </trkpt>
      <trkpt lat="44.415794" lon="4.677626">
        <ele>103.501473</ele>
        <time>2017-06-06T14:41:08.000Z</time>
      </trkpt>
      <trkpt lat="44.415695" lon="4.677640">
        <ele>103.527037</ele>
        <time>2017-06-06T14:41:10.000Z</time>
      </trkpt>
      <trkpt lat="44.415565" lon="4.677664">
        <ele>103.560726</ele>
        <time>2017-06-06T14:41:13.000Z</time>
      </trkpt>
      <trkpt lat="44.415443" lon="4.677724">
        <ele>103.593948</ele>
        <time>2017-06-06T14:41:16.000Z</time>
      </trkpt>
      <trkpt lat="44.415337" lon="4.677836">
        <ele>103.628067</ele>
        <time>2017-06-06T14:41:19.000Z</time>
      </trkpt>
      <trkpt lat="44.415276" lon="4.677938">
        <ele>103.652480</ele>
        <time>2017-06-06T14:41:21.000Z</time>
      </trkpt>
      <trkpt lat="44.415226" lon="4.678043">
        <ele>103.675638</ele>
        <time>2017-06-06T14:41:23.000Z</time>
      </trkpt>
      <trkpt lat="44.415176" lon="4.678157">
        <ele>103.700188</ele>
        <time>2017-06-06T14:41:25.000Z</time>
      </trkpt>
      <trkpt lat="44.415123" lon="4.678326">
        <ele>103.734059</ele>
        <time>2017-06-06T14:41:28.000Z</time>
      </trkpt>
      <trkpt lat="44.415070" lon="4.678488">
        <ele>103.766759</ele>
        <time>2017-06-06T14:41:31.000Z</time>
      </trkpt>
      <trkpt lat="44.415016" lon="4.678646">
        <ele>103.793332</ele>
        <time>2017-06-06T14:41:34.000Z</time>
      </trkpt>
      <trkpt lat="44.414974" lon="4.678759">
        <ele>103.793504</ele>
        <time>2017-06-06T14:41:36.000Z</time>
      </trkpt>
      <trkpt lat="44.414930" lon="4.678873">
        <ele>103.793678</ele>
        <time>2017-06-06T14:41:38.000Z</time>
      </trkpt>
      <trkpt lat="44.414886" lon="4.678991">
        <ele>103.793858</ele>
        <time>2017-06-06T14:41:40.000Z</time>
      </trkpt>
      <trkpt lat="44.414850" lon="4.679168">
        <ele>103.794106</ele>
        <time>2017-06-06T14:41:43.000Z</time>
      </trkpt>
      <trkpt lat="44.414833" lon="4.679294">
        <ele>103.794279</ele>
        <time>2017-06-06T14:41:45.000Z</time>
      </trkpt>
      <trkpt lat="44.414825" lon="4.679426">
        <ele>103.794457</ele>
        <time>2017-06-06T14:41:47.000Z</time>
      </trkpt>
      <trkpt lat="44.414830" lon="4.679606">
        <ele>103.794700</ele>
        <time>2017-06-06T14:41:50.000Z</time>
      </trkpt>
      <trkpt lat="44.414833" lon="4.679772">
        <ele>103.794924</ele>
        <time>2017-06-06T14:41:53.000Z</time>
      </trkpt>
      <trkpt lat="44.414783" lon="4.679884">
        <ele>103.795102</ele>
        <time>2017-06-06T14:41:55.000Z</time>
      </trkpt>
      <trkpt lat="44.414692" lon="4.680005">
        <ele>103.795339</ele>
        <time>2017-06-06T14:41:58.000Z</time>
      </trkpt>
      <trkpt lat="44.414630" lon="4.680100">
        <ele>103.795513</ele>
        <time>2017-06-06T14:42:00.000Z</time>
      </trkpt>
      <trkpt lat="44.414547" lon="4.680246">
        <ele>103.795764</ele>
        <time>2017-06-06T14:42:03.000Z</time>
      </trkpt>
      <trkpt lat="44.414513" lon="4.680364">
        <ele>103.795936</ele>
        <time>2017-06-06T14:42:05.000Z</time>
      </trkpt>
      <trkpt lat="44.414480" lon="4.680490">
        <ele>103.796117</ele>
        <time>2017-06-06T14:42:07.000Z</time>
      </trkpt>
      <trkpt lat="44.414444" lon="4.680621">
        <ele>103.796306</ele>
        <time>2017-06-06T14:42:09.000Z</time>
      </trkpt>
      <trkpt lat="44.414406" lon="4.680745">
        <ele>103.796488</ele>
        <time>2017-06-06T14:42:11.000Z</time>
      </trkpt>
      <trkpt lat="44.414364" lon="4.680866">
        <ele>103.796669</ele>
        <time>2017-06-06T14:42:13.000Z</time>
      </trkpt>
      <trkpt lat="44.414307" lon="4.680986">
        <ele>103.847011</ele>
        <time>2017-06-06T14:42:15.000Z</time>
      </trkpt>
      <trkpt lat="44.414227" lon="4.681072">
        <ele>103.900874</ele>
        <time>2017-06-06T14:42:17.000Z</time>
      </trkpt>
      <trkpt lat="44.414130" lon="4.681125">
        <ele>103.956480</ele>
        <time>2017-06-06T14:42:19.000Z</time>
      </trkpt>
      <trkpt lat="44.414030" lon="4.681128">
        <ele>104.009894</ele>
        <time>2017-06-06T14:42:21.000Z</time>
      </trkpt>
      <trkpt lat="44.413930" lon="4.681111">
        <ele>104.063688</ele>
        <time>2017-06-06T14:42:23.000Z</time>
      </trkpt>
      <trkpt lat="44.413834" lon="4.681087">
        <ele>104.115765</ele>
        <time>2017-06-06T14:42:25.000Z</time>
      </trkpt>
      <trkpt lat="44.413742" lon="4.681061">
        <ele>104.165886</ele>
        <time>2017-06-06T14:42:27.000Z</time>
      </trkpt>
      <trkpt lat="44.413640" lon="4.681046">
        <ele>104.220655</ele>
        <time>2017-06-06T14:42:29.000Z</time>
      </trkpt>
      <trkpt lat="44.413544" lon="4.681032">
        <ele>104.272198</ele>
        <time>2017-06-06T14:42:31.000Z</time>
      </trkpt>
      <trkpt lat="44.413440" lon="4.681009">
        <ele>104.328425</ele>
        <time>2017-06-06T14:42:33.000Z</time>
      </trkpt>
      <trkpt lat="44.413330" lon="4.680991">
        <ele>104.387567</ele>
        <time>2017-06-06T14:42:35.000Z</time>
      </trkpt>
      <trkpt lat="44.413220" lon="4.680971">
        <ele>104.446803</ele>
        <time>2017-06-06T14:42:37.000Z</time>
      </trkpt>
      <trkpt lat="44.413116" lon="4.680950">
        <ele>104.502915</ele>
        <time>2017-06-06T14:42:39.000Z</time>
      </trkpt>
      <trkpt lat="44.413020" lon="4.680935">
        <ele>104.554500</ele>
        <time>2017-06-06T14:42:41.000Z</time>
      </trkpt>
      <trkpt lat="44.412930" lon="4.680927">
        <ele>104.602658</ele>
        <time>2017-06-06T14:42:43.000Z</time>
      </trkpt>
      <trkpt lat="44.412830" lon="4.680923">
        <ele>104.656082</ele>
        <time>2017-06-06T14:42:45.000Z</time>
      </trkpt>
      <trkpt lat="44.412735" lon="4.680923">
        <ele>104.706814</ele>
        <time>2017-06-06T14:42:47.000Z</time>
      </trkpt>
      <trkpt lat="44.412632" lon="4.680918">
        <ele>104.747942</ele>
        <time>2017-06-06T14:42:49.000Z</time>
      </trkpt>
      <trkpt lat="44.412530" lon="4.680916">
        <ele>104.639656</ele>
        <time>2017-06-06T14:42:51.000Z</time>
      </trkpt>
      <trkpt lat="44.412426" lon="4.680923">
        <ele>104.529129</ele>
        <time>2017-06-06T14:42:53.000Z</time>
      </trkpt>
      <trkpt lat="44.412330" lon="4.680945">
        <ele>104.425866</ele>
        <time>2017-06-06T14:42:55.000Z</time>
      </trkpt>
      <trkpt lat="44.412240" lon="4.680990">
        <ele>104.324418</ele>
        <time>2017-06-06T14:42:57.000Z</time>
      </trkpt>
      <trkpt lat="44.412136" lon="4.681049">
        <ele>104.205298</ele>
        <time>2017-06-06T14:42:59.000Z</time>
      </trkpt>
      <trkpt lat="44.412052" lon="4.681134">
        <ele>104.095274</ele>
        <time>2017-06-06T14:43:01.000Z</time>
      </trkpt>
      <trkpt lat="44.411987" lon="4.681247">
        <ele>103.985261</ele>
        <time>2017-06-06T14:43:03.000Z</time>
      </trkpt>
      <trkpt lat="44.411964" lon="4.681399">
        <ele>103.867445</ele>
        <time>2017-06-06T14:43:05.000Z</time>
      </trkpt>
      <trkpt lat="44.411970" lon="4.681583">
        <ele>103.727777</ele>
        <time>2017-06-06T14:43:08.000Z</time>
      </trkpt>
      <trkpt lat="44.411926" lon="4.681738">
        <ele>103.601303</ele>
        <time>2017-06-06T14:43:10.000Z</time>
      </trkpt>
      <trkpt lat="44.411915" lon="4.681901">
        <ele>103.477153</ele>
        <time>2017-06-06T14:43:12.000Z</time>
      </trkpt>
      <trkpt lat="44.411922" lon="4.682043">
        <ele>103.369222</ele>
        <time>2017-06-06T14:43:14.000Z</time>
      </trkpt>
      <trkpt lat="44.411938" lon="4.682189">
        <ele>103.257218</ele>
        <time>2017-06-06T14:43:16.000Z</time>
      </trkpt>
      <trkpt lat="44.411970" lon="4.682335">
        <ele>103.141415</ele>
        <time>2017-06-06T14:43:18.000Z</time>
      </trkpt>
      <trkpt lat="44.411980" lon="4.682474">
        <ele>103.035481</ele>
        <time>2017-06-06T14:43:20.000Z</time>
      </trkpt>
      <trkpt lat="44.412000" lon="4.682616">
        <ele>102.925733</ele>
        <time>2017-06-06T14:43:22.000Z</time>
      </trkpt>
      <trkpt lat="44.412003" lon="4.682758">
        <ele>102.851965</ele>
        <time>2017-06-06T14:43:24.000Z</time>
      </trkpt>
      <trkpt lat="44.412003" lon="4.682896">
        <ele>102.866257</ele>
        <time>2017-06-06T14:43:26.000Z</time>
      </trkpt>
      <trkpt lat="44.411995" lon="4.683041">
        <ele>102.881320</ele>
        <time>2017-06-06T14:43:28.000Z</time>
      </trkpt>
      <trkpt lat="44.411983" lon="4.683177">
        <ele>102.895512</ele>
        <time>2017-06-06T14:43:30.000Z</time>
      </trkpt>
      <trkpt lat="44.411972" lon="4.683311">
        <ele>102.909482</ele>
        <time>2017-06-06T14:43:32.000Z</time>
      </trkpt>
      <trkpt lat="44.411957" lon="4.683452">
        <ele>102.924247</ele>
        <time>2017-06-06T14:43:34.000Z</time>
      </trkpt>
      <trkpt lat="44.411934" lon="4.683587">
        <ele>102.938621</ele>
        <time>2017-06-06T14:43:36.000Z</time>
      </trkpt>
      <trkpt lat="44.411922" lon="4.683728">
        <ele>102.953327</ele>
        <time>2017-06-06T14:43:38.000Z</time>
      </trkpt>
      <trkpt lat="44.411900" lon="4.683863">
        <ele>102.967669</ele>
        <time>2017-06-06T14:43:40.000Z</time>
      </trkpt>
      <trkpt lat="44.411877" lon="4.684033">
        <ele>102.985589</ele>
        <time>2017-06-06T14:43:43.000Z</time>
      </trkpt>
      <trkpt lat="44.411880" lon="4.684184">
        <ele>103.001234</ele>
        <time>2017-06-06T14:43:46.000Z</time>
      </trkpt>
      <trkpt lat="44.411870" lon="4.684334">
        <ele>103.016837</ele>
        <time>2017-06-06T14:43:49.000Z</time>
      </trkpt>
      <trkpt lat="44.411854" lon="4.684481">
        <ele>103.032237</ele>
        <time>2017-06-06T14:43:52.000Z</time>
      </trkpt>
      <trkpt lat="44.411846" lon="4.684633">
        <ele>103.048023</ele>
        <time>2017-06-06T14:43:55.000Z</time>
      </trkpt>
      <trkpt lat="44.411835" lon="4.684790">
        <ele>103.064361</ele>
        <time>2017-06-06T14:43:57.000Z</time>
      </trkpt>
      <trkpt lat="44.411827" lon="4.684953">
        <ele>103.081283</ele>
        <time>2017-06-06T14:43:59.000Z</time>
      </trkpt>
      <trkpt lat="44.411810" lon="4.685128">
        <ele>103.099575</ele>
        <time>2017-06-06T14:44:02.000Z</time>
      </trkpt>
      <trkpt lat="44.411747" lon="4.685296">
        <ele>103.230538</ele>
        <time>2017-06-06T14:44:05.000Z</time>
      </trkpt>
      <trkpt lat="44.411694" lon="4.685423">
        <ele>103.406392</ele>
        <time>2017-06-06T14:44:07.000Z</time>
      </trkpt>
      <trkpt lat="44.411640" lon="4.685535">
        <ele>103.567947</ele>
        <time>2017-06-06T14:44:09.000Z</time>
      </trkpt>
      <trkpt lat="44.411583" lon="4.685643">
        <ele>103.728493</ele>
        <time>2017-06-06T14:44:11.000Z</time>
      </trkpt>
      <trkpt lat="44.411507" lon="4.685731">
        <ele>103.893571</ele>
        <time>2017-06-06T14:44:13.000Z</time>
      </trkpt>
      <trkpt lat="44.411427" lon="4.685788">
        <ele>104.043815</ele>
        <time>2017-06-06T14:44:15.000Z</time>
      </trkpt>
      <trkpt lat="44.411310" lon="4.685824">
        <ele>104.244316</ele>
        <time>2017-06-06T14:44:18.000Z</time>
      </trkpt>
      <trkpt lat="44.411205" lon="4.685825">
        <ele>104.420062</ele>
        <time>2017-06-06T14:44:20.000Z</time>
      </trkpt>
      <trkpt lat="44.411095" lon="4.685826">
        <ele>104.604177</ele>
        <time>2017-06-06T14:44:22.000Z</time>
      </trkpt>
      <trkpt lat="44.410980" lon="4.685823">
        <ele>104.796690</ele>
        <time>2017-06-06T14:44:24.000Z</time>
      </trkpt>
      <trkpt lat="44.410873" lon="4.685822">
        <ele>104.975784</ele>
        <time>2017-06-06T14:44:26.000Z</time>
      </trkpt>
      <trkpt lat="44.410778" lon="4.685830">
        <ele>105.135076</ele>
        <time>2017-06-06T14:44:28.000Z</time>
      </trkpt>
      <trkpt lat="44.410686" lon="4.685855">
        <ele>105.291934</ele>
        <time>2017-06-06T14:44:30.000Z</time>
      </trkpt>
      <trkpt lat="44.410587" lon="4.685926">
        <ele>105.478113</ele>
        <time>2017-06-06T14:44:32.000Z</time>
      </trkpt>
      <trkpt lat="44.410520" lon="4.686039">
        <ele>105.653694</ele>
        <time>2017-06-06T14:44:34.000Z</time>
      </trkpt>
      <trkpt lat="44.410470" lon="4.686161">
        <ele>105.821862</ele>
        <time>2017-06-06T14:44:36.000Z</time>
      </trkpt>
      <trkpt lat="44.410420" lon="4.686279">
        <ele>105.985899</ele>
        <time>2017-06-06T14:44:38.000Z</time>
      </trkpt>
      <trkpt lat="44.410362" lon="4.686381">
        <ele>106.116100</ele>
        <time>2017-06-06T14:44:40.000Z</time>
      </trkpt>
      <trkpt lat="44.410280" lon="4.686449">
        <ele>106.094815</ele>
        <time>2017-06-06T14:44:42.000Z</time>
      </trkpt>
      <trkpt lat="44.410180" lon="4.686463">
        <ele>106.072370</ele>
        <time>2017-06-06T14:44:44.000Z</time>
      </trkpt>
      <trkpt lat="44.410076" lon="4.686472">
        <ele>106.049098</ele>
        <time>2017-06-06T14:44:46.000Z</time>
      </trkpt>
      <trkpt lat="44.409977" lon="4.686486">
        <ele>106.026876</ele>
        <time>2017-06-06T14:44:48.000Z</time>
      </trkpt>
      <trkpt lat="44.409880" lon="4.686530">
        <ele>106.004103</ele>
        <time>2017-06-06T14:44:50.000Z</time>
      </trkpt>
      <trkpt lat="44.409798" lon="4.686616">
        <ele>105.981220</ele>
        <time>2017-06-06T14:44:52.000Z</time>
      </trkpt>
      <trkpt lat="44.409733" lon="4.686726">
        <ele>105.958445</ele>
        <time>2017-06-06T14:44:54.000Z</time>
      </trkpt>
      <trkpt lat="44.409687" lon="4.686861">
        <ele>105.934582</ele>
        <time>2017-06-06T14:44:56.000Z</time>
      </trkpt>
      <trkpt lat="44.409664" lon="4.687003">
        <ele>105.911352</ele>
        <time>2017-06-06T14:44:58.000Z</time>
      </trkpt>
      <trkpt lat="44.409660" lon="4.687159">
        <ele>105.886448</ele>
        <time>2017-06-06T14:45:00.000Z</time>
      </trkpt>
      <trkpt lat="44.409650" lon="4.687301">
        <ele>105.863683</ele>
        <time>2017-06-06T14:45:02.000Z</time>
      </trkpt>
      <trkpt lat="44.409657" lon="4.687443">
        <ele>105.840975</ele>
        <time>2017-06-06T14:45:04.000Z</time>
      </trkpt>
      <trkpt lat="44.409664" lon="4.687593">
        <ele>105.816992</ele>
        <time>2017-06-06T14:45:06.000Z</time>
      </trkpt>
      <trkpt lat="44.409680" lon="4.687747">
        <ele>105.792165</ele>
        <time>2017-06-06T14:45:08.000Z</time>
      </trkpt>
      <trkpt lat="44.409687" lon="4.687895">
        <ele>105.768501</ele>
        <time>2017-06-06T14:45:10.000Z</time>
      </trkpt>
      <trkpt lat="44.409680" lon="4.688050">
        <ele>105.743723</ele>
        <time>2017-06-06T14:45:12.000Z</time>
      </trkpt>
      <trkpt lat="44.409660" lon="4.688197">
        <ele>105.719849</ele>
        <time>2017-06-06T14:45:14.000Z</time>
      </trkpt>
      <trkpt lat="44.409595" lon="4.688319">
        <ele>105.728762</ele>
        <time>2017-06-06T14:45:16.000Z</time>
      </trkpt>
      <trkpt lat="44.409492" lon="4.688391">
        <ele>105.742103</ele>
        <time>2017-06-06T14:45:18.000Z</time>
      </trkpt>
      <trkpt lat="44.409386" lon="4.688422">
        <ele>105.754652</ele>
        <time>2017-06-06T14:45:20.000Z</time>
      </trkpt>
      <trkpt lat="44.409270" lon="4.688429">
        <ele>105.768106</ele>
        <time>2017-06-06T14:45:22.000Z</time>
      </trkpt>
      <trkpt lat="44.409150" lon="4.688433">
        <ele>105.782016</ele>
        <time>2017-06-06T14:45:24.000Z</time>
      </trkpt>
      <trkpt lat="44.409035" lon="4.688442">
        <ele>105.795364</ele>
        <time>2017-06-06T14:45:26.000Z</time>
      </trkpt>
      <trkpt lat="44.408928" lon="4.688456">
        <ele>105.807817</ele>
        <time>2017-06-06T14:45:28.000Z</time>
      </trkpt>
      <trkpt lat="44.408825" lon="4.688468">
        <ele>105.819794</ele>
        <time>2017-06-06T14:45:30.000Z</time>
      </trkpt>
      <trkpt lat="44.408730" lon="4.688476">
        <ele>105.830823</ele>
        <time>2017-06-06T14:45:32.000Z</time>
      </trkpt>
      <trkpt lat="44.408623" lon="4.688485">
        <ele>105.843245</ele>
        <time>2017-06-06T14:45:34.000Z</time>
      </trkpt>
      <trkpt lat="44.408512" lon="4.688494">
        <ele>105.856129</ele>
        <time>2017-06-06T14:45:36.000Z</time>
      </trkpt>
      <trkpt lat="44.408400" lon="4.688505">
        <ele>105.869140</ele>
        <time>2017-06-06T14:45:38.000Z</time>
      </trkpt>
      <trkpt lat="44.408302" lon="4.688525">
        <ele>105.880616</ele>
        <time>2017-06-06T14:45:40.000Z</time>
      </trkpt>
      <trkpt lat="44.408200" lon="4.688536">
        <ele>105.892471</ele>
        <time>2017-06-06T14:45:42.000Z</time>
      </trkpt>
      <trkpt lat="44.408104" lon="4.688546">
        <ele>105.903627</ele>
        <time>2017-06-06T14:45:44.000Z</time>
      </trkpt>
      <trkpt lat="44.407970" lon="4.688562">
        <ele>105.919211</ele>
        <time>2017-06-06T14:45:47.000Z</time>
      </trkpt>
      <trkpt lat="44.407845" lon="4.688573">
        <ele>105.878044</ele>
        <time>2017-06-06T14:45:50.000Z</time>
      </trkpt>
      <trkpt lat="44.407710" lon="4.688594">
        <ele>105.782452</ele>
        <time>2017-06-06T14:45:53.000Z</time>
      </trkpt>
      <trkpt lat="44.407616" lon="4.688620">
        <ele>105.715020</ele>
        <time>2017-06-06T14:45:55.000Z</time>
      </trkpt>
      <trkpt lat="44.407516" lon="4.688648">
        <ele>105.643251</ele>
        <time>2017-06-06T14:45:57.000Z</time>
      </trkpt>
      <trkpt lat="44.407417" lon="4.688696">
        <ele>105.569519</ele>
        <time>2017-06-06T14:45:59.000Z</time>
      </trkpt>
      <trkpt lat="44.407330" lon="4.688768">
        <ele>105.498392</ele>
        <time>2017-06-06T14:46:01.000Z</time>
      </trkpt>
      <trkpt lat="44.407246" lon="4.688846">
        <ele>105.427453</ele>
        <time>2017-06-06T14:46:03.000Z</time>
      </trkpt>
      <trkpt lat="44.407173" lon="4.688941">
        <ele>105.357307</ele>
        <time>2017-06-06T14:46:05.000Z</time>
      </trkpt>
      <trkpt lat="44.407110" lon="4.689045">
        <ele>105.288754</ele>
        <time>2017-06-06T14:46:07.000Z</time>
      </trkpt>
      <trkpt lat="44.407050" lon="4.689146">
        <ele>105.222714</ele>
        <time>2017-06-06T14:46:09.000Z</time>
      </trkpt>
      <trkpt lat="44.406967" lon="4.689283">
        <ele>105.132403</ele>
        <time>2017-06-06T14:46:12.000Z</time>
      </trkpt>
      <trkpt lat="44.406870" lon="4.689424">
        <ele>105.033990</ele>
        <time>2017-06-06T14:46:15.000Z</time>
      </trkpt>
      <trkpt lat="44.406807" lon="4.689523">
        <ele>104.967334</ele>
        <time>2017-06-06T14:46:17.000Z</time>
      </trkpt>
      <trkpt lat="44.406746" lon="4.689618">
        <ele>104.903116</ele>
        <time>2017-06-06T14:46:19.000Z</time>
      </trkpt>
      <trkpt lat="44.406662" lon="4.689751">
        <ele>104.813865</ele>
        <time>2017-06-06T14:46:22.000Z</time>
      </trkpt>
      <trkpt lat="44.406586" lon="4.689848">
        <ele>104.741484</ele>
        <time>2017-06-06T14:46:25.000Z</time>
      </trkpt>
      <trkpt lat="44.406494" lon="4.689865">
        <ele>104.676178</ele>
        <time>2017-06-06T14:46:28.000Z</time>
      </trkpt>
      <trkpt lat="44.406406" lon="4.689795">
        <ele>104.688600</ele>
        <time>2017-06-06T14:46:31.000Z</time>
      </trkpt>
      <trkpt lat="44.406350" lon="4.689693">
        <ele>104.722103</ele>
        <time>2017-06-06T14:46:34.000Z</time>
      </trkpt>
      <trkpt lat="44.406300" lon="4.689560">
        <ele>104.761244</ele>
        <time>2017-06-06T14:46:37.000Z</time>
      </trkpt>
      <trkpt lat="44.406208" lon="4.689429">
        <ele>104.809086</ele>
        <time>2017-06-06T14:46:40.000Z</time>
      </trkpt>
      <trkpt lat="44.406090" lon="4.689368">
        <ele>104.854943</ele>
        <time>2017-06-06T14:46:43.000Z</time>
      </trkpt>
      <trkpt lat="44.405960" lon="4.689333">
        <ele>104.903204</ele>
        <time>2017-06-06T14:46:46.000Z</time>
      </trkpt>
      <trkpt lat="44.405834" lon="4.689307">
        <ele>104.949635</ele>
        <time>2017-06-06T14:46:49.000Z</time>
      </trkpt>
      <trkpt lat="44.405700" lon="4.689277">
        <ele>104.999106</ele>
        <time>2017-06-06T14:46:52.000Z</time>
      </trkpt>
      <trkpt lat="44.405575" lon="4.689244">
        <ele>105.045479</ele>
        <time>2017-06-06T14:46:55.000Z</time>
      </trkpt>
      <trkpt lat="44.405440" lon="4.689219">
        <ele>105.095122</ele>
        <time>2017-06-06T14:46:58.000Z</time>
      </trkpt>
      <trkpt lat="44.405308" lon="4.689191">
        <ele>105.143793</ele>
        <time>2017-06-06T14:47:01.000Z</time>
      </trkpt>
      <trkpt lat="44.405212" lon="4.689167">
        <ele>105.179344</ele>
        <time>2017-06-06T14:47:03.000Z</time>
      </trkpt>
      <trkpt lat="44.405120" lon="4.689146">
        <ele>105.213326</ele>
        <time>2017-06-06T14:47:05.000Z</time>
      </trkpt>
      <trkpt lat="44.405003" lon="4.689100">
        <ele>105.257630</ele>
        <time>2017-06-06T14:47:08.000Z</time>
      </trkpt>
      <trkpt lat="44.404877" lon="4.689062">
        <ele>105.304618</ele>
        <time>2017-06-06T14:47:29.000Z</time>
      </trkpt>
      <trkpt lat="44.404766" lon="4.689028">
        <ele>105.351019</ele>
        <time>2017-06-06T14:47:34.000Z</time>
      </trkpt>
      <trkpt lat="44.404675" lon="4.688994">
        <ele>105.391000</ele>
        <time>2017-06-06T14:47:37.000Z</time>
      </trkpt>
      <trkpt lat="44.404580" lon="4.688965">
        <ele>105.432273</ele>
        <time>2017-06-06T14:47:40.000Z</time>
      </trkpt>
      <trkpt lat="44.404484" lon="4.688952">
        <ele>105.473214</ele>
        <time>2017-06-06T14:47:43.000Z</time>
      </trkpt>
      <trkpt lat="44.404392" lon="4.688930">
        <ele>105.512832</ele>
        <time>2017-06-06T14:47:46.000Z</time>
      </trkpt>
      <trkpt lat="44.404270" lon="4.688872">
        <ele>105.567525</ele>
        <time>2017-06-06T14:49:52.000Z</time>
      </trkpt>
      <trkpt lat="44.404160" lon="4.688829">
        <ele>105.616004</ele>
        <time>2017-06-06T14:49:57.000Z</time>
      </trkpt>
      <trkpt lat="44.404057" lon="4.688812">
        <ele>105.660029</ele>
        <time>2017-06-06T14:50:00.000Z</time>
      </trkpt>
      <trkpt lat="44.403934" lon="4.688779">
        <ele>105.713191</ele>
        <time>2017-06-06T14:50:03.000Z</time>
      </trkpt>
      <trkpt lat="44.403820" lon="4.688757">
        <ele>105.762040</ele>
        <time>2017-06-06T14:50:06.000Z</time>
      </trkpt>
      <trkpt lat="44.403710" lon="4.688748">
        <ele>105.808813</ele>
        <time>2017-06-06T14:50:09.000Z</time>
      </trkpt>
      <trkpt lat="44.403614" lon="4.688744">
        <ele>105.849581</ele>
        <time>2017-06-06T14:50:12.000Z</time>
      </trkpt>
      <trkpt lat="44.403503" lon="4.688740">
        <ele>105.896714</ele>
        <time>2017-06-06T14:50:15.000Z</time>
      </trkpt>
      <trkpt lat="44.403393" lon="4.688720">
        <ele>105.943800</ele>
        <time>2017-06-06T14:50:18.000Z</time>
      </trkpt>
      <trkpt lat="44.403270" lon="4.688709">
        <ele>105.996118</ele>
        <time>2017-06-06T14:50:21.000Z</time>
      </trkpt>
      <trkpt lat="44.403140" lon="4.688707">
        <ele>106.051304</ele>
        <time>2017-06-06T14:50:24.000Z</time>
      </trkpt>
      <trkpt lat="44.403008" lon="4.688693">
        <ele>106.096872</ele>
        <time>2017-06-06T14:50:27.000Z</time>
      </trkpt>
      <trkpt lat="44.402890" lon="4.688685">
        <ele>106.128156</ele>
        <time>2017-06-06T14:50:30.000Z</time>
      </trkpt>
      <trkpt lat="44.402763" lon="4.688677">
        <ele>106.161821</ele>
        <time>2017-06-06T14:50:33.000Z</time>
      </trkpt>
      <trkpt lat="44.402626" lon="4.688659">
        <ele>106.198259</ele>
        <time>2017-06-06T14:50:36.000Z</time>
      </trkpt>
      <trkpt lat="44.402534" lon="4.688655">
        <ele>106.222634</ele>
        <time>2017-06-06T14:50:38.000Z</time>
      </trkpt>
      <trkpt lat="44.402405" lon="4.688654">
        <ele>106.256794</ele>
        <time>2017-06-06T14:50:41.000Z</time>
      </trkpt>
      <trkpt lat="44.402283" lon="4.688660">
        <ele>106.289121</ele>
        <time>2017-06-06T14:50:44.000Z</time>
      </trkpt>
      <trkpt lat="44.402172" lon="4.688681">
        <ele>106.318782</ele>
        <time>2017-06-06T14:50:47.000Z</time>
      </trkpt>
      <trkpt lat="44.402070" lon="4.688722">
        <ele>106.346885</ele>
        <time>2017-06-06T14:50:50.000Z</time>
      </trkpt>
      <trkpt lat="44.401960" lon="4.688774">
        <ele>106.377630</ele>
        <time>2017-06-06T14:50:53.000Z</time>
      </trkpt>
      <trkpt lat="44.401875" lon="4.688823">
        <ele>106.401973</ele>
        <time>2017-06-06T14:50:55.000Z</time>
      </trkpt>
      <trkpt lat="44.401790" lon="4.688879">
        <ele>106.426851</ele>
        <time>2017-06-06T14:50:57.000Z</time>
      </trkpt>
      <trkpt lat="44.401707" lon="4.688942">
        <ele>106.451854</ele>
        <time>2017-06-06T14:50:59.000Z</time>
      </trkpt>
      <trkpt lat="44.401630" lon="4.689012">
        <ele>106.476168</ele>
        <time>2017-06-06T14:51:01.000Z</time>
      </trkpt>
      <trkpt lat="44.401524" lon="4.689122">
        <ele>106.511111</ele>
        <time>2017-06-06T14:51:04.000Z</time>
      </trkpt>
      <trkpt lat="44.401432" lon="4.689248">
        <ele>106.545196</ele>
        <time>2017-06-06T14:51:07.000Z</time>
      </trkpt>
      <trkpt lat="44.401340" lon="4.689377">
        <ele>106.618906</ele>
        <time>2017-06-06T14:51:10.000Z</time>
      </trkpt>
      <trkpt lat="44.401270" lon="4.689465">
        <ele>106.684324</ele>
        <time>2017-06-06T14:51:12.000Z</time>
      </trkpt>
      <trkpt lat="44.401203" lon="4.689557">
        <ele>106.749580</ele>
        <time>2017-06-06T14:51:14.000Z</time>
      </trkpt>
      <trkpt lat="44.401108" lon="4.689680">
        <ele>106.839556</ele>
        <time>2017-06-06T14:51:17.000Z</time>
      </trkpt>
      <trkpt lat="44.401047" lon="4.689776">
        <ele>106.903374</ele>
        <time>2017-06-06T14:51:20.000Z</time>
      </trkpt>
      <trkpt lat="44.401146" lon="4.689754">
        <ele>106.973067</ele>
        <time>2017-06-06T14:51:26.000Z</time>
      </trkpt>
      <trkpt lat="44.401234" lon="4.689791">
        <ele>107.036951</ele>
        <time>2017-06-06T14:51:33.000Z</time>
      </trkpt>
      <trkpt lat="44.401250" lon="4.689925">
        <ele>107.104436</ele>
        <time>2017-06-06T14:51:38.000Z</time>
      </trkpt>
      <trkpt lat="44.401250" lon="4.690076">
        <ele>107.179443</ele>
        <time>2017-06-06T14:51:42.000Z</time>
      </trkpt>
      <trkpt lat="44.401240" lon="4.690217">
        <ele>107.249827</ele>
        <time>2017-06-06T14:51:45.000Z</time>
      </trkpt>
      <trkpt lat="44.401234" lon="4.690363">
        <ele>107.322471</ele>
        <time>2017-06-06T14:51:48.000Z</time>
      </trkpt>
      <trkpt lat="44.401237" lon="4.690505">
        <ele>107.393038</ele>
        <time>2017-06-06T14:51:51.000Z</time>
      </trkpt>
      <trkpt lat="44.401237" lon="4.690656">
        <ele>107.468045</ele>
        <time>2017-06-06T14:51:54.000Z</time>
      </trkpt>
      <trkpt lat="44.401250" lon="4.690860">
        <ele>107.569781</ele>
        <time>2017-06-06T14:51:58.000Z</time>
      </trkpt>
      <trkpt lat="44.401253" lon="4.691026">
        <ele>107.652266</ele>
        <time>2017-06-06T14:52:01.000Z</time>
      </trkpt>
      <trkpt lat="44.401257" lon="4.691250">
        <ele>107.763569</ele>
        <time>2017-06-06T14:52:05.000Z</time>
      </trkpt>
      <trkpt lat="44.401257" lon="4.691415">
        <ele>107.826114</ele>
        <time>2017-06-06T14:52:08.000Z</time>
      </trkpt>
      <trkpt lat="44.401253" lon="4.691649">
        <ele>107.885158</ele>
        <time>2017-06-06T14:52:12.000Z</time>
      </trkpt>
      <trkpt lat="44.401245" lon="4.691824">
        <ele>107.929393</ele>
        <time>2017-06-06T14:52:15.000Z</time>
      </trkpt>
      <trkpt lat="44.401237" lon="4.692054">
        <ele>107.987480</ele>
        <time>2017-06-06T14:52:19.000Z</time>
      </trkpt>
      <trkpt lat="44.401240" lon="4.692183">
        <ele>108.020038</ele>
        <time>2017-06-06T14:52:21.000Z</time>
      </trkpt>
      <trkpt lat="44.401245" lon="4.692315">
        <ele>108.053382</ele>
        <time>2017-06-06T14:52:23.000Z</time>
      </trkpt>
      <trkpt lat="44.401245" lon="4.692504">
        <ele>108.101058</ele>
        <time>2017-06-06T14:52:26.000Z</time>
      </trkpt>
      <trkpt lat="44.401245" lon="4.692685">
        <ele>108.146716</ele>
        <time>2017-06-06T14:52:29.000Z</time>
      </trkpt>
      <trkpt lat="44.401253" lon="4.692817">
        <ele>108.180133</ele>
        <time>2017-06-06T14:52:31.000Z</time>
      </trkpt>
      <trkpt lat="44.401260" lon="4.693001">
        <ele>108.226614</ele>
        <time>2017-06-06T14:52:34.000Z</time>
      </trkpt>
      <trkpt lat="44.401268" lon="4.693186">
        <ele>108.273366</ele>
        <time>2017-06-06T14:52:37.000Z</time>
      </trkpt>
      <trkpt lat="44.401276" lon="4.693378">
        <ele>108.321881</ele>
        <time>2017-06-06T14:52:40.000Z</time>
      </trkpt>
      <trkpt lat="44.401283" lon="4.693566">
        <ele>108.369369</ele>
        <time>2017-06-06T14:52:43.000Z</time>
      </trkpt>
      <trkpt lat="44.401287" lon="4.693693">
        <ele>108.401436</ele>
        <time>2017-06-06T14:52:45.000Z</time>
      </trkpt>
      <trkpt lat="44.401290" lon="4.693823">
        <ele>108.434246</ele>
        <time>2017-06-06T14:52:47.000Z</time>
      </trkpt>
      <trkpt lat="44.401290" lon="4.693954">
        <ele>108.452638</ele>
        <time>2017-06-06T14:52:49.000Z</time>
      </trkpt>
      <trkpt lat="44.401300" lon="4.694138">
        <ele>108.473116</ele>
        <time>2017-06-06T14:52:52.000Z</time>
      </trkpt>
      <trkpt lat="44.401302" lon="4.694325">
        <ele>108.493871</ele>
        <time>2017-06-06T14:52:55.000Z</time>
      </trkpt>
      <trkpt lat="44.401302" lon="4.694454">
        <ele>108.508187</ele>
        <time>2017-06-06T14:52:57.000Z</time>
      </trkpt>
      <trkpt lat="44.401306" lon="4.694588">
        <ele>108.523070</ele>
        <time>2017-06-06T14:52:59.000Z</time>
      </trkpt>
      <trkpt lat="44.401310" lon="4.694721">
        <ele>108.537843</ele>
        <time>2017-06-06T14:53:01.000Z</time>
      </trkpt>
      <trkpt lat="44.401310" lon="4.694850">
        <ele>108.552159</ele>
        <time>2017-06-06T14:53:03.000Z</time>
      </trkpt>
      <trkpt lat="44.401314" lon="4.695029">
        <ele>108.572033</ele>
        <time>2017-06-06T14:53:06.000Z</time>
      </trkpt>
      <trkpt lat="44.401320" lon="4.695192">
        <ele>108.590146</ele>
        <time>2017-06-06T14:53:09.000Z</time>
      </trkpt>
      <trkpt lat="44.401330" lon="4.695351">
        <ele>108.607859</ele>
        <time>2017-06-06T14:53:12.000Z</time>
      </trkpt>
      <trkpt lat="44.401306" lon="4.695498">
        <ele>108.624593</ele>
        <time>2017-06-06T14:53:15.000Z</time>
      </trkpt>
      <trkpt lat="44.401215" lon="4.695544">
        <ele>108.639621</ele>
        <time>2017-06-06T14:53:18.000Z</time>
      </trkpt>
      <trkpt lat="44.401050" lon="4.695515">
        <ele>108.665452</ele>
        <time>2017-06-06T14:53:22.000Z</time>
      </trkpt>
      <trkpt lat="44.400917" lon="4.695495">
        <ele>108.686229</ele>
        <time>2017-06-06T14:53:25.000Z</time>
      </trkpt>
      <trkpt lat="44.400826" lon="4.695489">
        <ele>108.700380</ele>
        <time>2017-06-06T14:53:27.000Z</time>
      </trkpt>
      <trkpt lat="44.400734" lon="4.695478">
        <ele>108.714722</ele>
        <time>2017-06-06T14:53:29.000Z</time>
      </trkpt>
      <trkpt lat="44.400640" lon="4.695475">
        <ele>108.714673</ele>
        <time>2017-06-06T14:53:31.000Z</time>
      </trkpt>
      <trkpt lat="44.400536" lon="4.695470">
        <ele>108.703982</ele>
        <time>2017-06-06T14:53:33.000Z</time>
      </trkpt>
      <trkpt lat="44.400390" lon="4.695461">
        <ele>108.688967</ele>
        <time>2017-06-06T14:53:36.000Z</time>
      </trkpt>
      <trkpt lat="44.400260" lon="4.695467">
        <ele>108.675604</ele>
        <time>2017-06-06T14:53:39.000Z</time>
      </trkpt>
      <trkpt lat="44.400093" lon="4.695479">
        <ele>108.658425</ele>
        <time>2017-06-06T14:53:43.000Z</time>
      </trkpt>
      <trkpt lat="44.399967" lon="4.695489">
        <ele>108.645459</ele>
        <time>2017-06-06T14:53:46.000Z</time>
      </trkpt>
      <trkpt lat="44.399837" lon="4.695504">
        <ele>108.632058</ele>
        <time>2017-06-06T14:53:49.000Z</time>
      </trkpt>
      <trkpt lat="44.399742" lon="4.695512">
        <ele>108.622280</ele>
        <time>2017-06-06T14:53:51.000Z</time>
      </trkpt>
      <trkpt lat="44.399643" lon="4.695532">
        <ele>108.612004</ele>
        <time>2017-06-06T14:53:53.000Z</time>
      </trkpt>
      <trkpt lat="44.399548" lon="4.695553">
        <ele>108.602123</ele>
        <time>2017-06-06T14:53:55.000Z</time>
      </trkpt>
      <trkpt lat="44.399400" lon="4.695577">
        <ele>108.586816</ele>
        <time>2017-06-06T14:53:58.000Z</time>
      </trkpt>
      <trkpt lat="44.399303" lon="4.695600">
        <ele>108.576709</ele>
        <time>2017-06-06T14:54:00.000Z</time>
      </trkpt>
      <trkpt lat="44.399210" lon="4.695622">
        <ele>108.567019</ele>
        <time>2017-06-06T14:54:02.000Z</time>
      </trkpt>
      <trkpt lat="44.399082" lon="4.695649">
        <ele>108.553720</ele>
        <time>2017-06-06T14:54:05.000Z</time>
      </trkpt>
      <trkpt lat="44.398914" lon="4.695702">
        <ele>108.536027</ele>
        <time>2017-06-06T14:54:09.000Z</time>
      </trkpt>
      <trkpt lat="44.398827" lon="4.695733">
        <ele>108.496643</ele>
        <time>2017-06-06T14:54:11.000Z</time>
      </trkpt>
      <trkpt lat="44.398735" lon="4.695761">
        <ele>108.454247</ele>
        <time>2017-06-06T14:54:13.000Z</time>
      </trkpt>
      <trkpt lat="44.398640" lon="4.695788">
        <ele>108.410596</ele>
        <time>2017-06-06T14:54:15.000Z</time>
      </trkpt>
      <trkpt lat="44.398537" lon="4.695825">
        <ele>108.362713</ele>
        <time>2017-06-06T14:54:17.000Z</time>
      </trkpt>
      <trkpt lat="44.398438" lon="4.695859">
        <ele>108.316811</ele>
        <time>2017-06-06T14:54:19.000Z</time>
      </trkpt>
      <trkpt lat="44.398342" lon="4.695903">
        <ele>108.271324</ele>
        <time>2017-06-06T14:54:21.000Z</time>
      </trkpt>
      <trkpt lat="44.398247" lon="4.695945">
        <ele>108.226462</ele>
        <time>2017-06-06T14:54:23.000Z</time>
      </trkpt>
      <trkpt lat="44.398140" lon="4.695981">
        <ele>108.176908</ele>
        <time>2017-06-06T14:54:25.000Z</time>
      </trkpt>
      <trkpt lat="44.398033" lon="4.696020">
        <ele>108.127119</ele>
        <time>2017-06-06T14:54:27.000Z</time>
      </trkpt>
      <trkpt lat="44.397920" lon="4.696067">
        <ele>108.074036</ele>
        <time>2017-06-06T14:54:29.000Z</time>
      </trkpt>
      <trkpt lat="44.397810" lon="4.696109">
        <ele>108.022694</ele>
        <time>2017-06-06T14:54:31.000Z</time>
      </trkpt>
      <trkpt lat="44.397700" lon="4.696137">
        <ele>107.972349</ele>
        <time>2017-06-06T14:54:33.000Z</time>
      </trkpt>
      <trkpt lat="44.397590" lon="4.696173">
        <ele>107.921480</ele>
        <time>2017-06-06T14:54:35.000Z</time>
      </trkpt>
      <trkpt lat="44.397480" lon="4.696213">
        <ele>107.870303</ele>
        <time>2017-06-06T14:54:37.000Z</time>
      </trkpt>
      <trkpt lat="44.397366" lon="4.696254">
        <ele>107.817301</ele>
        <time>2017-06-06T14:54:39.000Z</time>
      </trkpt>
      <trkpt lat="44.397250" lon="4.696287">
        <ele>107.763999</ele>
        <time>2017-06-06T14:54:41.000Z</time>
      </trkpt>
      <trkpt lat="44.397133" lon="4.696308">
        <ele>107.723175</ele>
        <time>2017-06-06T14:54:43.000Z</time>
      </trkpt>
      <trkpt lat="44.397020" lon="4.696306">
        <ele>107.714224</ele>
        <time>2017-06-06T14:54:45.000Z</time>
      </trkpt>
      <trkpt lat="44.396908" lon="4.696305">
        <ele>107.705353</ele>
        <time>2017-06-06T14:54:47.000Z</time>
      </trkpt>
      <trkpt lat="44.396793" lon="4.696298">
        <ele>107.696236</ele>
        <time>2017-06-06T14:54:49.000Z</time>
      </trkpt>
      <trkpt lat="44.396680" lon="4.696282">
        <ele>107.687240</ele>
        <time>2017-06-06T14:54:51.000Z</time>
      </trkpt>
      <trkpt lat="44.396560" lon="4.696261">
        <ele>107.677661</ele>
        <time>2017-06-06T14:54:53.000Z</time>
      </trkpt>
      <trkpt lat="44.396440" lon="4.696236">
        <ele>107.668052</ele>
        <time>2017-06-06T14:54:55.000Z</time>
      </trkpt>
      <trkpt lat="44.396317" lon="4.696214">
        <ele>107.658231</ele>
        <time>2017-06-06T14:54:57.000Z</time>
      </trkpt>
      <trkpt lat="44.396200" lon="4.696197">
        <ele>107.648914</ele>
        <time>2017-06-06T14:54:59.000Z</time>
      </trkpt>
      <trkpt lat="44.396090" lon="4.696174">
        <ele>107.640105</ele>
        <time>2017-06-06T14:55:01.000Z</time>
      </trkpt>
      <trkpt lat="44.395977" lon="4.696159">
        <ele>107.631114</ele>
        <time>2017-06-06T14:55:03.000Z</time>
      </trkpt>
      <trkpt lat="44.395860" lon="4.696141">
        <ele>107.621792</ele>
        <time>2017-06-06T14:55:05.000Z</time>
      </trkpt>
      <trkpt lat="44.395740" lon="4.696129">
        <ele>107.612263</ele>
        <time>2017-06-06T14:55:07.000Z</time>
      </trkpt>
      <trkpt lat="44.395620" lon="4.696109">
        <ele>107.602691</ele>
        <time>2017-06-06T14:55:09.000Z</time>
      </trkpt>
      <trkpt lat="44.395500" lon="4.696078">
        <ele>107.593026</ele>
        <time>2017-06-06T14:55:11.000Z</time>
      </trkpt>
      <trkpt lat="44.395390" lon="4.696047">
        <ele>107.584139</ele>
        <time>2017-06-06T14:55:13.000Z</time>
      </trkpt>
      <trkpt lat="44.395280" lon="4.696004">
        <ele>107.558037</ele>
        <time>2017-06-06T14:55:15.000Z</time>
      </trkpt>
      <trkpt lat="44.395170" lon="4.695958">
        <ele>107.530134</ele>
        <time>2017-06-06T14:55:17.000Z</time>
      </trkpt>
      <trkpt lat="44.395070" lon="4.695908">
        <ele>107.504324</ele>
        <time>2017-06-06T14:55:19.000Z</time>
      </trkpt>
      <trkpt lat="44.394970" lon="4.695858">
        <ele>107.478514</ele>
        <time>2017-06-06T14:55:21.000Z</time>
      </trkpt>
      <trkpt lat="44.394875" lon="4.695813">
        <ele>107.454138</ele>
        <time>2017-06-06T14:55:23.000Z</time>
      </trkpt>
      <trkpt lat="44.394780" lon="4.695771">
        <ele>107.429923</ele>
        <time>2017-06-06T14:55:25.000Z</time>
      </trkpt>
      <trkpt lat="44.394684" lon="4.695714">
        <ele>107.404578</ele>
        <time>2017-06-06T14:55:27.000Z</time>
      </trkpt>
      <trkpt lat="44.394580" lon="4.695662">
        <ele>107.377736</ele>
        <time>2017-06-06T14:55:29.000Z</time>
      </trkpt>
      <trkpt lat="44.394480" lon="4.695607">
        <ele>107.351621</ele>
        <time>2017-06-06T14:55:31.000Z</time>
      </trkpt>
      <trkpt lat="44.394380" lon="4.695550">
        <ele>107.325377</ele>
        <time>2017-06-06T14:55:33.000Z</time>
      </trkpt>
      <trkpt lat="44.394283" lon="4.695502">
        <ele>107.300371</ele>
        <time>2017-06-06T14:55:35.000Z</time>
      </trkpt>
      <trkpt lat="44.394184" lon="4.695477">
        <ele>107.275921</ele>
        <time>2017-06-06T14:55:37.000Z</time>
      </trkpt>
      <trkpt lat="44.394085" lon="4.695470">
        <ele>107.251828</ele>
        <time>2017-06-06T14:55:39.000Z</time>
      </trkpt>
      <trkpt lat="44.393990" lon="4.695474">
        <ele>107.228728</ele>
        <time>2017-06-06T14:55:41.000Z</time>
      </trkpt>
      <trkpt lat="44.393890" lon="4.695469">
        <ele>107.204407</ele>
        <time>2017-06-06T14:55:43.000Z</time>
      </trkpt>
      <trkpt lat="44.393790" lon="4.695465">
        <ele>107.180092</ele>
        <time>2017-06-06T14:55:45.000Z</time>
      </trkpt>
      <trkpt lat="44.393696" lon="4.695464">
        <ele>107.157245</ele>
        <time>2017-06-06T14:55:47.000Z</time>
      </trkpt>
      <trkpt lat="44.393600" lon="4.695468">
        <ele>107.141120</ele>
        <time>2017-06-06T14:55:49.000Z</time>
      </trkpt>
      <trkpt lat="44.393494" lon="4.695478">
        <ele>107.130482</ele>
        <time>2017-06-06T14:55:51.000Z</time>
      </trkpt>
      <trkpt lat="44.393380" lon="4.695486">
        <ele>107.119053</ele>
        <time>2017-06-06T14:55:53.000Z</time>
      </trkpt>
      <trkpt lat="44.393265" lon="4.695488">
        <ele>107.107537</ele>
        <time>2017-06-06T14:55:55.000Z</time>
      </trkpt>
      <trkpt lat="44.393154" lon="4.695498">
        <ele>107.096400</ele>
        <time>2017-06-06T14:55:57.000Z</time>
      </trkpt>
      <trkpt lat="44.393044" lon="4.695498">
        <ele>107.085386</ele>
        <time>2017-06-06T14:55:59.000Z</time>
      </trkpt>
      <trkpt lat="44.392940" lon="4.695502">
        <ele>107.074969</ele>
        <time>2017-06-06T14:56:01.000Z</time>
      </trkpt>
      <trkpt lat="44.392840" lon="4.695498">
        <ele>107.064952</ele>
        <time>2017-06-06T14:56:03.000Z</time>
      </trkpt>
      <trkpt lat="44.392750" lon="4.695492">
        <ele>107.055930</ele>
        <time>2017-06-06T14:56:05.000Z</time>
      </trkpt>
      <trkpt lat="44.392616" lon="4.695483">
        <ele>107.042497</ele>
        <time>2017-06-06T14:56:08.000Z</time>
      </trkpt>
      <trkpt lat="44.392498" lon="4.695466">
        <ele>107.030619</ele>
        <time>2017-06-06T14:56:11.000Z</time>
      </trkpt>
      <trkpt lat="44.392390" lon="4.695437">
        <ele>107.019608</ele>
        <time>2017-06-06T14:56:14.000Z</time>
      </trkpt>
      <trkpt lat="44.392280" lon="4.695418">
        <ele>107.008510</ele>
        <time>2017-06-06T14:56:17.000Z</time>
      </trkpt>
      <trkpt lat="44.392174" lon="4.695376">
        <ele>106.997480</ele>
        <time>2017-06-06T14:56:20.000Z</time>
      </trkpt>
      <trkpt lat="44.392048" lon="4.695327">
        <ele>106.984385</ele>
        <time>2017-06-06T14:56:23.000Z</time>
      </trkpt>
      <trkpt lat="44.391920" lon="4.695272">
        <ele>106.970978</ele>
        <time>2017-06-06T14:56:26.000Z</time>
      </trkpt>
      <trkpt lat="44.391827" lon="4.695238">
        <ele>106.944117</ele>
        <time>2017-06-06T14:56:28.000Z</time>
      </trkpt>
      <trkpt lat="44.391727" lon="4.695201">
        <ele>106.895995</ele>
        <time>2017-06-06T14:56:30.000Z</time>
      </trkpt>
      <trkpt lat="44.391630" lon="4.695159">
        <ele>106.848756</ele>
        <time>2017-06-06T14:56:32.000Z</time>
      </trkpt>
      <trkpt lat="44.391540" lon="4.695099">
        <ele>106.802376</ele>
        <time>2017-06-06T14:56:34.000Z</time>
      </trkpt>
      <trkpt lat="44.391453" lon="4.695039">
        <ele>106.757252</ele>
        <time>2017-06-06T14:56:36.000Z</time>
      </trkpt>
      <trkpt lat="44.391370" lon="4.694983">
        <ele>106.714383</ele>
        <time>2017-06-06T14:56:38.000Z</time>
      </trkpt>
      <trkpt lat="44.391262" lon="4.694902">
        <ele>106.657376</ele>
        <time>2017-06-06T14:56:41.000Z</time>
      </trkpt>
      <trkpt lat="44.391144" lon="4.694819">
        <ele>106.595934</ele>
        <time>2017-06-06T14:56:44.000Z</time>
      </trkpt>
      <trkpt lat="44.391056" lon="4.694756">
        <ele>106.549946</ele>
        <time>2017-06-06T14:56:46.000Z</time>
      </trkpt>
      <trkpt lat="44.390980" lon="4.694673">
        <ele>106.505095</ele>
        <time>2017-06-06T14:56:48.000Z</time>
      </trkpt>
      <trkpt lat="44.390910" lon="4.694586">
        <ele>106.461539</ele>
        <time>2017-06-06T14:56:50.000Z</time>
      </trkpt>
      <trkpt lat="44.390842" lon="4.694499">
        <ele>106.418674</ele>
        <time>2017-06-06T14:56:52.000Z</time>
      </trkpt>
      <trkpt lat="44.390762" lon="4.694409">
        <ele>106.370919</ele>
        <time>2017-06-06T14:56:54.000Z</time>
      </trkpt>
      <trkpt lat="44.390682" lon="4.694318">
        <ele>106.322955</ele>
        <time>2017-06-06T14:56:56.000Z</time>
      </trkpt>
      <trkpt lat="44.390606" lon="4.694213">
        <ele>106.273269</ele>
        <time>2017-06-06T14:56:58.000Z</time>
      </trkpt>
      <trkpt lat="44.390526" lon="4.694115">
        <ele>106.223804</ele>
        <time>2017-06-06T14:57:00.000Z</time>
      </trkpt>
      <trkpt lat="44.390446" lon="4.694017">
        <ele>106.174339</ele>
        <time>2017-06-06T14:57:02.000Z</time>
      </trkpt>
      <trkpt lat="44.390366" lon="4.693904">
        <ele>106.118157</ele>
        <time>2017-06-06T14:57:04.000Z</time>
      </trkpt>
      <trkpt lat="44.390278" lon="4.693784">
        <ele>106.036888</ele>
        <time>2017-06-06T14:57:06.000Z</time>
      </trkpt>
      <trkpt lat="44.390186" lon="4.693668">
        <ele>105.954981</ele>
        <time>2017-06-06T14:57:08.000Z</time>
      </trkpt>
      <trkpt lat="44.390102" lon="4.693550">
        <ele>105.876258</ele>
        <time>2017-06-06T14:57:10.000Z</time>
      </trkpt>
      <trkpt lat="44.390022" lon="4.693437">
        <ele>105.801076</ele>
        <time>2017-06-06T14:57:12.000Z</time>
      </trkpt>
      <trkpt lat="44.389946" lon="4.693351">
        <ele>105.736430</ele>
        <time>2017-06-06T14:57:14.000Z</time>
      </trkpt>
      <trkpt lat="44.389870" lon="4.693265">
        <ele>105.671784</ele>
        <time>2017-06-06T14:57:16.000Z</time>
      </trkpt>
      <trkpt lat="44.389800" lon="4.693172">
        <ele>105.607942</ele>
        <time>2017-06-06T14:57:18.000Z</time>
      </trkpt>
      <trkpt lat="44.389706" lon="4.693059">
        <ele>105.525978</ele>
        <time>2017-06-06T14:57:21.000Z</time>
      </trkpt>
      <trkpt lat="44.389630" lon="4.692929">
        <ele>105.446591</ele>
        <time>2017-06-06T14:57:24.000Z</time>
      </trkpt>
      <trkpt lat="44.389553" lon="4.692808">
        <ele>105.370011</ele>
        <time>2017-06-06T14:57:27.000Z</time>
      </trkpt>
      <trkpt lat="44.389490" lon="4.692702">
        <ele>105.304846</ele>
        <time>2017-06-06T14:57:30.000Z</time>
      </trkpt>
      <trkpt lat="44.389416" lon="4.692580">
        <ele>105.229211</ele>
        <time>2017-06-06T14:57:34.000Z</time>
      </trkpt>
      <trkpt lat="44.389366" lon="4.692478">
        <ele>105.170748</ele>
        <time>2017-06-06T14:57:38.000Z</time>
      </trkpt>
      <trkpt lat="44.389282" lon="4.692392">
        <ele>105.101907</ele>
        <time>2017-06-06T14:57:44.000Z</time>
      </trkpt>
      <trkpt lat="44.389230" lon="4.692280">
        <ele>105.038778</ele>
        <time>2017-06-06T14:57:48.000Z</time>
      </trkpt>
      <trkpt lat="44.389156" lon="4.692175">
        <ele>104.969074</ele>
        <time>2017-06-06T14:57:52.000Z</time>
      </trkpt>
      <trkpt lat="44.389088" lon="4.692063">
        <ele>104.950498</ele>
        <time>2017-06-06T14:57:56.000Z</time>
      </trkpt>
      <trkpt lat="44.389023" lon="4.691966">
        <ele>104.967580</ele>
        <time>2017-06-06T14:58:00.000Z</time>
      </trkpt>
      <trkpt lat="44.388947" lon="4.691866">
        <ele>104.986332</ele>
        <time>2017-06-06T14:58:05.000Z</time>
      </trkpt>
      <trkpt lat="44.388870" lon="4.691784">
        <ele>105.003726</ele>
        <time>2017-06-06T14:58:10.000Z</time>
      </trkpt>
      <trkpt lat="44.388794" lon="4.691694">
        <ele>105.021622</ele>
        <time>2017-06-06T14:58:17.000Z</time>
      </trkpt>
      <trkpt lat="44.388730" lon="4.691601">
        <ele>105.038208</ele>
        <time>2017-06-06T14:58:25.000Z</time>
      </trkpt>
      <trkpt lat="44.388660" lon="4.691515">
        <ele>105.054952</ele>
        <time>2017-06-06T14:58:31.000Z</time>
      </trkpt>
      <trkpt lat="44.388584" lon="4.691382">
        <ele>105.076827</ele>
        <time>2017-06-06T14:59:27.000Z</time>
      </trkpt>
      <trkpt lat="44.388510" lon="4.691249">
        <ele>105.098480</ele>
        <time>2017-06-06T14:59:31.000Z</time>
      </trkpt>
      <trkpt lat="44.388443" lon="4.691144">
        <ele>105.116562</ele>
        <time>2017-06-06T14:59:34.000Z</time>
      </trkpt>
      <trkpt lat="44.388390" lon="4.691040">
        <ele>105.132971</ele>
        <time>2017-06-06T14:59:37.000Z</time>
      </trkpt>
      <trkpt lat="44.388317" lon="4.690910">
        <ele>105.154209</ele>
        <time>2017-06-06T14:59:41.000Z</time>
      </trkpt>
      <trkpt lat="44.388260" lon="4.690809">
        <ele>105.170741</ele>
        <time>2017-06-06T14:59:44.000Z</time>
      </trkpt>
      <trkpt lat="44.388190" lon="4.690671">
        <ele>105.192480</ele>
        <time>2017-06-06T14:59:48.000Z</time>
      </trkpt>
      <trkpt lat="44.388134" lon="4.690544">
        <ele>105.211650</ele>
        <time>2017-06-06T14:59:51.000Z</time>
      </trkpt>
      <trkpt lat="44.388027" lon="4.690340">
        <ele>105.244156</ele>
        <time>2017-06-06T14:59:55.000Z</time>
      </trkpt>
      <trkpt lat="44.387978" lon="4.690228">
        <ele>105.261026</ele>
        <time>2017-06-06T14:59:57.000Z</time>
      </trkpt>
      <trkpt lat="44.387928" lon="4.690119">
        <ele>105.286815</ele>
        <time>2017-06-06T14:59:59.000Z</time>
      </trkpt>
      <trkpt lat="44.387886" lon="4.690006">
        <ele>105.313346</ele>
        <time>2017-06-06T15:00:01.000Z</time>
      </trkpt>
      <trkpt lat="44.387814" lon="4.689852">
        <ele>105.351680</ele>
        <time>2017-06-06T15:00:04.000Z</time>
      </trkpt>
      <trkpt lat="44.387720" lon="4.689654">
        <ele>105.401196</ele>
        <time>2017-06-06T15:00:08.000Z</time>
      </trkpt>
      <trkpt lat="44.387650" lon="4.689519">
        <ele>105.435940</ele>
        <time>2017-06-06T15:00:11.000Z</time>
      </trkpt>
      <trkpt lat="44.387592" lon="4.689384">
        <ele>105.468751</ele>
        <time>2017-06-06T15:00:14.000Z</time>
      </trkpt>
      <trkpt lat="44.387543" lon="4.689259">
        <ele>105.498449</ele>
        <time>2017-06-06T15:00:19.000Z</time>
      </trkpt>
      <trkpt lat="44.387436" lon="4.689211">
        <ele>105.531202</ele>
        <time>2017-06-06T15:00:24.000Z</time>
      </trkpt>
      <trkpt lat="44.387330" lon="4.689206">
        <ele>105.562117</ele>
        <time>2017-06-06T15:00:27.000Z</time>
      </trkpt>
      <trkpt lat="44.387215" lon="4.689199">
        <ele>105.595670</ele>
        <time>2017-06-06T15:00:30.000Z</time>
      </trkpt>
      <trkpt lat="44.387120" lon="4.689184">
        <ele>105.623537</ele>
        <time>2017-06-06T15:00:32.000Z</time>
      </trkpt>
      <trkpt lat="44.387020" lon="4.689161">
        <ele>105.653077</ele>
        <time>2017-06-06T15:00:34.000Z</time>
      </trkpt>
      <trkpt lat="44.386930" lon="4.689131">
        <ele>105.680045</ele>
        <time>2017-06-06T15:00:36.000Z</time>
      </trkpt>
      <trkpt lat="44.386840" lon="4.689087">
        <ele>105.707833</ele>
        <time>2017-06-06T15:00:38.000Z</time>
      </trkpt>
      <trkpt lat="44.386750" lon="4.689042">
        <ele>105.735692</ele>
        <time>2017-06-06T15:00:40.000Z</time>
      </trkpt>
      <trkpt lat="44.386612" lon="4.689008">
        <ele>105.776536</ele>
        <time>2017-06-06T15:00:43.000Z</time>
      </trkpt>
      <trkpt lat="44.386482" lon="4.688994">
        <ele>105.775126</ele>
        <time>2017-06-06T15:00:46.000Z</time>
      </trkpt>
      <trkpt lat="44.386303" lon="4.688969">
        <ele>105.751905</ele>
        <time>2017-06-06T15:00:50.000Z</time>
      </trkpt>
      <trkpt lat="44.386200" lon="4.688974">
        <ele>105.738601</ele>
        <time>2017-06-06T15:00:52.000Z</time>
      </trkpt>
      <trkpt lat="44.386100" lon="4.688963">
        <ele>105.725653</ele>
        <time>2017-06-06T15:00:54.000Z</time>
      </trkpt>
      <trkpt lat="44.385937" lon="4.688958">
        <ele>105.704607</ele>
        <time>2017-06-06T15:00:57.000Z</time>
      </trkpt>
      <trkpt lat="44.385838" lon="4.688953">
        <ele>105.691820</ele>
        <time>2017-06-06T15:00:59.000Z</time>
      </trkpt>
      <trkpt lat="44.385742" lon="4.688939">
        <ele>105.679360</ele>
        <time>2017-06-06T15:01:01.000Z</time>
      </trkpt>
      <trkpt lat="44.385600" lon="4.688941">
        <ele>105.661029</ele>
        <time>2017-06-06T15:01:04.000Z</time>
      </trkpt>
      <trkpt lat="44.385506" lon="4.688941">
        <ele>105.648895</ele>
        <time>2017-06-06T15:01:06.000Z</time>
      </trkpt>
      <trkpt lat="44.385410" lon="4.688935">
        <ele>105.636491</ele>
        <time>2017-06-06T15:01:08.000Z</time>
      </trkpt>
      <trkpt lat="44.385320" lon="4.688937">
        <ele>105.624872</ele>
        <time>2017-06-06T15:01:10.000Z</time>
      </trkpt>
      <trkpt lat="44.385220" lon="4.688938">
        <ele>105.611963</ele>
        <time>2017-06-06T15:01:12.000Z</time>
      </trkpt>
      <trkpt lat="44.385117" lon="4.688940">
        <ele>105.598666</ele>
        <time>2017-06-06T15:01:14.000Z</time>
      </trkpt>
      <trkpt lat="44.385014" lon="4.688947">
        <ele>105.585355</ele>
        <time>2017-06-06T15:01:16.000Z</time>
      </trkpt>
      <trkpt lat="44.384907" lon="4.688958">
        <ele>105.571505</ele>
        <time>2017-06-06T15:01:18.000Z</time>
      </trkpt>
      <trkpt lat="44.384800" lon="4.688966">
        <ele>105.557673</ele>
        <time>2017-06-06T15:01:20.000Z</time>
      </trkpt>
      <trkpt lat="44.384697" lon="4.688976">
        <ele>105.627377</ele>
        <time>2017-06-06T15:01:22.000Z</time>
      </trkpt>
      <trkpt lat="44.384594" lon="4.688977">
        <ele>105.717253</ele>
        <time>2017-06-06T15:01:24.000Z</time>
      </trkpt>
      <trkpt lat="44.384490" lon="4.688979">
        <ele>105.808009</ele>
        <time>2017-06-06T15:01:26.000Z</time>
      </trkpt>
      <trkpt lat="44.384384" lon="4.688984">
        <ele>105.900553</ele>
        <time>2017-06-06T15:01:28.000Z</time>
      </trkpt>
      <trkpt lat="44.384280" lon="4.688990">
        <ele>105.991377</ele>
        <time>2017-06-06T15:01:30.000Z</time>
      </trkpt>
      <trkpt lat="44.384174" lon="4.688983">
        <ele>106.083972</ele>
        <time>2017-06-06T15:01:32.000Z</time>
      </trkpt>
      <trkpt lat="44.384070" lon="4.688985">
        <ele>106.174728</ele>
        <time>2017-06-06T15:01:34.000Z</time>
      </trkpt>
      <trkpt lat="44.383965" lon="4.688985">
        <ele>106.266347</ele>
        <time>2017-06-06T15:01:36.000Z</time>
      </trkpt>
      <trkpt lat="44.383860" lon="4.688992">
        <ele>106.358070</ele>
        <time>2017-06-06T15:01:38.000Z</time>
      </trkpt>
      <trkpt lat="44.383755" lon="4.688996">
        <ele>106.449724</ele>
        <time>2017-06-06T15:01:40.000Z</time>
      </trkpt>
      <trkpt lat="44.383650" lon="4.688995">
        <ele>106.541345</ele>
        <time>2017-06-06T15:01:42.000Z</time>
      </trkpt>
      <trkpt lat="44.383550" lon="4.689005">
        <ele>106.628825</ele>
        <time>2017-06-06T15:01:44.000Z</time>
      </trkpt>
      <trkpt lat="44.383446" lon="4.689006">
        <ele>106.719574</ele>
        <time>2017-06-06T15:01:46.000Z</time>
      </trkpt>
      <trkpt lat="44.383343" lon="4.689008">
        <ele>106.809457</ele>
        <time>2017-06-06T15:01:48.000Z</time>
      </trkpt>
      <trkpt lat="44.383244" lon="4.689001">
        <ele>106.895951</ele>
        <time>2017-06-06T15:01:50.000Z</time>
      </trkpt>
      <trkpt lat="44.383144" lon="4.688997">
        <ele>106.983243</ele>
        <time>2017-06-06T15:01:52.000Z</time>
      </trkpt>
      <trkpt lat="44.383038" lon="4.689008">
        <ele>107.075989</ele>
        <time>2017-06-06T15:01:54.000Z</time>
      </trkpt>
      <trkpt lat="44.382935" lon="4.689024">
        <ele>107.120385</ele>
        <time>2017-06-06T15:01:56.000Z</time>
      </trkpt>
      <trkpt lat="44.382830" lon="4.689051">
        <ele>107.111286</ele>
        <time>2017-06-06T15:01:58.000Z</time>
      </trkpt>
      <trkpt lat="44.382740" lon="4.689096">
        <ele>107.103140</ele>
        <time>2017-06-06T15:02:00.000Z</time>
      </trkpt>
      <trkpt lat="44.382633" lon="4.689188">
        <ele>107.092437</ele>
        <time>2017-06-06T15:02:03.000Z</time>
      </trkpt>
      <trkpt lat="44.382538" lon="4.689254">
        <ele>107.083397</ele>
        <time>2017-06-06T15:02:06.000Z</time>
      </trkpt>
      <trkpt lat="44.382465" lon="4.689339">
        <ele>107.075302</ele>
        <time>2017-06-06T15:02:09.000Z</time>
      </trkpt>
      <trkpt lat="44.382366" lon="4.689435">
        <ele>107.065036</ele>
        <time>2017-06-06T15:02:12.000Z</time>
      </trkpt>
      <trkpt lat="44.382260" lon="4.689532">
        <ele>107.054241</ele>
        <time>2017-06-06T15:02:15.000Z</time>
      </trkpt>
      <trkpt lat="44.382187" lon="4.689609">
        <ele>107.046450</ele>
        <time>2017-06-06T15:02:17.000Z</time>
      </trkpt>
      <trkpt lat="44.382110" lon="4.689683">
        <ele>107.038488</ele>
        <time>2017-06-06T15:02:19.000Z</time>
      </trkpt>
      <trkpt lat="44.382030" lon="4.689758">
        <ele>107.030281</ele>
        <time>2017-06-06T15:02:21.000Z</time>
      </trkpt>
      <trkpt lat="44.381950" lon="4.689833">
        <ele>107.022073</ele>
        <time>2017-06-06T15:02:23.000Z</time>
      </trkpt>
      <trkpt lat="44.381870" lon="4.689918">
        <ele>107.013512</ele>
        <time>2017-06-06T15:02:25.000Z</time>
      </trkpt>
      <trkpt lat="44.381790" lon="4.690008">
        <ele>107.004763</ele>
        <time>2017-06-06T15:02:27.000Z</time>
      </trkpt>
      <trkpt lat="44.381706" lon="4.690103">
        <ele>106.995557</ele>
        <time>2017-06-06T15:02:29.000Z</time>
      </trkpt>
      <trkpt lat="44.381626" lon="4.690192">
        <ele>106.986846</ele>
        <time>2017-06-06T15:02:31.000Z</time>
      </trkpt>
      <trkpt lat="44.381554" lon="4.690290">
        <ele>106.978285</ele>
        <time>2017-06-06T15:02:33.000Z</time>
      </trkpt>
      <trkpt lat="44.381490" lon="4.690391">
        <ele>106.962332</ele>
        <time>2017-06-06T15:02:35.000Z</time>
      </trkpt>
      <trkpt lat="44.381416" lon="4.690484">
        <ele>106.895335</ele>
        <time>2017-06-06T15:02:37.000Z</time>
      </trkpt>
      <trkpt lat="44.381348" lon="4.690574">
        <ele>106.832288</ele>
        <time>2017-06-06T15:02:39.000Z</time>
      </trkpt>
      <trkpt lat="44.381283" lon="4.690661">
        <ele>106.771701</ele>
        <time>2017-06-06T15:02:41.000Z</time>
      </trkpt>
      <trkpt lat="44.381207" lon="4.690740">
        <ele>106.707930</ele>
        <time>2017-06-06T15:02:43.000Z</time>
      </trkpt>
      <trkpt lat="44.381100" lon="4.690848">
        <ele>106.619064</ele>
        <time>2017-06-06T15:02:46.000Z</time>
      </trkpt>
      <trkpt lat="44.381004" lon="4.690967">
        <ele>106.532676</ele>
        <time>2017-06-06T15:02:49.000Z</time>
      </trkpt>
      <trkpt lat="44.380920" lon="4.691093">
        <ele>106.449729</ele>
        <time>2017-06-06T15:02:52.000Z</time>
      </trkpt>
      <trkpt lat="44.380848" lon="4.691216">
        <ele>106.373192</ele>
        <time>2017-06-06T15:02:55.000Z</time>
      </trkpt>
      <trkpt lat="44.380787" lon="4.691329">
        <ele>106.305021</ele>
        <time>2017-06-06T15:02:59.000Z</time>
      </trkpt>
      <trkpt lat="44.380726" lon="4.691435">
        <ele>106.239508</ele>
        <time>2017-06-06T15:03:10.000Z</time>
      </trkpt>
      <trkpt lat="44.380672" lon="4.691543">
        <ele>106.176057</ele>
        <time>2017-06-06T15:03:17.000Z</time>
      </trkpt>
      <trkpt lat="44.380657" lon="4.691677">
        <ele>106.110764</ele>
        <time>2017-06-06T15:03:22.000Z</time>
      </trkpt>
      <trkpt lat="44.380630" lon="4.691810">
        <ele>106.044205</ele>
        <time>2017-06-06T15:03:27.000Z</time>
      </trkpt>
      <trkpt lat="44.380540" lon="4.691833">
        <ele>105.982582</ele>
        <time>2017-06-06T15:03:33.000Z</time>
      </trkpt>
      <trkpt lat="44.380444" lon="4.691835">
        <ele>105.917913</ele>
        <time>2017-06-06T15:03:51.000Z</time>
      </trkpt>
      <trkpt lat="44.380370" lon="4.691954">
        <ele>105.841978</ele>
        <time>2017-06-06T15:03:56.000Z</time>
      </trkpt>
      <trkpt lat="44.380306" lon="4.692064">
        <ele>105.773697</ele>
        <time>2017-06-06T15:04:01.000Z</time>
      </trkpt>
      <trkpt lat="44.380238" lon="4.692173">
        <ele>105.771982</ele>
        <time>2017-06-06T15:04:05.000Z</time>
      </trkpt>
      <trkpt lat="44.380165" lon="4.692287">
        <ele>105.788253</ele>
        <time>2017-06-06T15:04:08.000Z</time>
      </trkpt>
      <trkpt lat="44.380100" lon="4.692405">
        <ele>105.804090</ele>
        <time>2017-06-06T15:04:11.000Z</time>
      </trkpt>
      <trkpt lat="44.380030" lon="4.692536">
        <ele>105.821478</ele>
        <time>2017-06-06T15:04:14.000Z</time>
      </trkpt>
      <trkpt lat="44.379950" lon="4.692667">
        <ele>105.839796</ele>
        <time>2017-06-06T15:04:17.000Z</time>
      </trkpt>
      <trkpt lat="44.379875" lon="4.692773">
        <ele>105.855652</ele>
        <time>2017-06-06T15:04:20.000Z</time>
      </trkpt>
      <trkpt lat="44.379807" lon="4.692898">
        <ele>105.872351</ele>
        <time>2017-06-06T15:04:23.000Z</time>
      </trkpt>
      <trkpt lat="44.379723" lon="4.693039">
        <ele>105.891865</ele>
        <time>2017-06-06T15:04:26.000Z</time>
      </trkpt>
      <trkpt lat="44.379658" lon="4.693146">
        <ele>105.906793</ele>
        <time>2017-06-06T15:04:28.000Z</time>
      </trkpt>
      <trkpt lat="44.379570" lon="4.693281">
        <ele>105.926217</ele>
        <time>2017-06-06T15:04:31.000Z</time>
      </trkpt>
      <trkpt lat="44.379494" lon="4.693367">
        <ele>105.940755</ele>
        <time>2017-06-06T15:04:33.000Z</time>
      </trkpt>
      <trkpt lat="44.379410" lon="4.693500">
        <ele>105.959623</ele>
        <time>2017-06-06T15:04:36.000Z</time>
      </trkpt>
      <trkpt lat="44.379314" lon="4.693617">
        <ele>105.978560</ele>
        <time>2017-06-06T15:04:39.000Z</time>
      </trkpt>
      <trkpt lat="44.379257" lon="4.693717">
        <ele>105.992157</ele>
        <time>2017-06-06T15:04:41.000Z</time>
      </trkpt>
      <trkpt lat="44.379170" lon="4.693839">
        <ele>106.010478</ele>
        <time>2017-06-06T15:04:44.000Z</time>
      </trkpt>
      <trkpt lat="44.379080" lon="4.693957">
        <ele>106.039081</ele>
        <time>2017-06-06T15:04:47.000Z</time>
      </trkpt>
      <trkpt lat="44.379013" lon="4.694051">
        <ele>106.143477</ele>
        <time>2017-06-06T15:04:49.000Z</time>
      </trkpt>
      <trkpt lat="44.378940" lon="4.694153">
        <ele>106.256991</ele>
        <time>2017-06-06T15:04:51.000Z</time>
      </trkpt>
      <trkpt lat="44.378870" lon="4.694244">
        <ele>106.362124</ele>
        <time>2017-06-06T15:04:53.000Z</time>
      </trkpt>
      <trkpt lat="44.378796" lon="4.694337">
        <ele>106.471568</ele>
        <time>2017-06-06T15:04:55.000Z</time>
      </trkpt>
      <trkpt lat="44.378677" lon="4.694417">
        <ele>106.616831</ele>
        <time>2017-06-06T15:04:58.000Z</time>
      </trkpt>
      <trkpt lat="44.378590" lon="4.694474">
        <ele>106.722530</ele>
        <time>2017-06-06T15:05:00.000Z</time>
      </trkpt>
      <trkpt lat="44.378506" lon="4.694527">
        <ele>106.823916</ele>
        <time>2017-06-06T15:05:02.000Z</time>
      </trkpt>
      <trkpt lat="44.378380" lon="4.694580">
        <ele>106.968680</ele>
        <time>2017-06-06T15:05:05.000Z</time>
      </trkpt>
      <trkpt lat="44.378260" lon="4.694641">
        <ele>107.109157</ele>
        <time>2017-06-06T15:05:08.000Z</time>
      </trkpt>
      <trkpt lat="44.378166" lon="4.694690">
        <ele>107.219527</ele>
        <time>2017-06-06T15:05:11.000Z</time>
      </trkpt>
      <trkpt lat="44.378060" lon="4.694707">
        <ele>107.336920</ele>
        <time>2017-06-06T15:05:14.000Z</time>
      </trkpt>
      <trkpt lat="44.377900" lon="4.694713">
        <ele>107.513026</ele>
        <time>2017-06-06T15:05:18.000Z</time>
      </trkpt>
      <trkpt lat="44.377792" lon="4.694708">
        <ele>107.631921</ele>
        <time>2017-06-06T15:05:21.000Z</time>
      </trkpt>
      <trkpt lat="44.377655" lon="4.694678">
        <ele>107.784493</ele>
        <time>2017-06-06T15:05:24.000Z</time>
      </trkpt>
      <trkpt lat="44.377525" lon="4.694641">
        <ele>107.930458</ele>
        <time>2017-06-06T15:05:27.000Z</time>
      </trkpt>
      <trkpt lat="44.377388" lon="4.694626">
        <ele>108.102985</ele>
        <time>2017-06-06T15:05:31.000Z</time>
      </trkpt>
      <trkpt lat="44.377285" lon="4.694614">
        <ele>108.248858</ele>
        <time>2017-06-06T15:05:34.000Z</time>
      </trkpt>
      <trkpt lat="44.377163" lon="4.694605">
        <ele>108.421282</ele>
        <time>2017-06-06T15:05:37.000Z</time>
      </trkpt>
      <trkpt lat="44.377056" lon="4.694614">
        <ele>108.572570</ele>
        <time>2017-06-06T15:05:40.000Z</time>
      </trkpt>
      <trkpt lat="44.376940" lon="4.694627">
        <ele>108.736811</ele>
        <time>2017-06-06T15:05:43.000Z</time>
      </trkpt>
      <trkpt lat="44.376842" lon="4.694648">
        <ele>108.876737</ele>
        <time>2017-06-06T15:05:46.000Z</time>
      </trkpt>
      <trkpt lat="44.376724" lon="4.694741">
        <ele>109.067883</ele>
        <time>2017-06-06T15:05:53.000Z</time>
      </trkpt>
      <trkpt lat="44.376640" lon="4.694808">
        <ele>109.204350</ele>
        <time>2017-06-06T15:05:57.000Z</time>
      </trkpt>
      <trkpt lat="44.376564" lon="4.694932">
        <ele>109.369130</ele>
        <time>2017-06-06T15:06:01.000Z</time>
      </trkpt>
      <trkpt lat="44.376495" lon="4.695016">
        <ele>109.498219</ele>
        <time>2017-06-06T15:06:04.000Z</time>
      </trkpt>
      <trkpt lat="44.376400" lon="4.695116">
        <ele>109.666008</ele>
        <time>2017-06-06T15:06:08.000Z</time>
      </trkpt>
      <trkpt lat="44.376328" lon="4.695188">
        <ele>109.790915</ele>
        <time>2017-06-06T15:06:11.000Z</time>
      </trkpt>
      <trkpt lat="44.376236" lon="4.695276">
        <ele>109.948205</ele>
        <time>2017-06-06T15:06:15.000Z</time>
      </trkpt>
      <trkpt lat="44.376156" lon="4.695365">
        <ele>110.092458</ele>
        <time>2017-06-06T15:06:19.000Z</time>
      </trkpt>
      <trkpt lat="44.376064" lon="4.695430">
        <ele>110.237920</ele>
        <time>2017-06-06T15:06:22.000Z</time>
      </trkpt>
      <trkpt lat="44.375957" lon="4.695524">
        <ele>110.416239</ele>
        <time>2017-06-06T15:06:25.000Z</time>
      </trkpt>
      <trkpt lat="44.375880" lon="4.695609">
        <ele>110.533753</ele>
        <time>2017-06-06T15:06:28.000Z</time>
      </trkpt>
      <trkpt lat="44.375810" lon="4.695689">
        <ele>110.392643</ele>
        <time>2017-06-06T15:06:31.000Z</time>
      </trkpt>
      <trkpt lat="44.375706" lon="4.695788">
        <ele>110.196259</ele>
        <time>2017-06-06T15:06:35.000Z</time>
      </trkpt>
      <trkpt lat="44.375645" lon="4.695928">
        <ele>110.013296</ele>
        <time>2017-06-06T15:06:39.000Z</time>
      </trkpt>
      <trkpt lat="44.375633" lon="4.696063">
        <ele>109.861490</ele>
        <time>2017-06-06T15:06:42.000Z</time>
      </trkpt>
      <trkpt lat="44.375637" lon="4.696200">
        <ele>109.708485</ele>
        <time>2017-06-06T15:06:45.000Z</time>
      </trkpt>
      <trkpt lat="44.375640" lon="4.696358">
        <ele>109.532112</ele>
        <time>2017-06-06T15:06:49.000Z</time>
      </trkpt>
      <trkpt lat="44.375660" lon="4.696497">
        <ele>109.373891</ele>
        <time>2017-06-06T15:06:53.000Z</time>
      </trkpt>
      <trkpt lat="44.375683" lon="4.696631">
        <ele>109.220111</ele>
        <time>2017-06-06T15:06:59.000Z</time>
      </trkpt>
      <trkpt lat="44.375690" lon="4.696779">
        <ele>109.054597</ele>
        <time>2017-06-06T15:07:04.000Z</time>
      </trkpt>
      <trkpt lat="44.375700" lon="4.696936">
        <ele>108.878708</ele>
        <time>2017-06-06T15:07:08.000Z</time>
      </trkpt>
      <trkpt lat="44.375725" lon="4.697087">
        <ele>108.705747</ele>
        <time>2017-06-06T15:07:13.000Z</time>
      </trkpt>
      <trkpt lat="44.375713" lon="4.697231">
        <ele>108.543970</ele>
        <time>2017-06-06T15:07:18.000Z</time>
      </trkpt>
      <trkpt lat="44.375730" lon="4.697360">
        <ele>108.397594</ele>
        <time>2017-06-06T15:07:23.000Z</time>
      </trkpt>
      <trkpt lat="44.375774" lon="4.697485">
        <ele>108.242110</ele>
        <time>2017-06-06T15:07:29.000Z</time>
      </trkpt>
      <trkpt lat="44.375782" lon="4.697631">
        <ele>108.078712</ele>
        <time>2017-06-06T15:07:35.000Z</time>
      </trkpt>
      <trkpt lat="44.375890" lon="4.697649">
        <ele>107.908911</ele>
        <time>2017-06-06T15:07:46.000Z</time>
      </trkpt>
      <trkpt lat="44.375885" lon="4.697521">
        <ele>107.765864</ele>
        <time>2017-06-06T15:07:52.000Z</time>
      </trkpt>
      <trkpt lat="44.375816" lon="4.697420">
        <ele>107.747437</ele>
        <time>2017-06-06T15:08:01.000Z</time>
      </trkpt>
      <trkpt lat="44.375885" lon="4.697568">
        <ele>107.764124</ele>
        <time>2017-06-06T15:09:03.000Z</time>
      </trkpt>
      <trkpt lat="44.375988" lon="4.697580">
        <ele>107.777780</ele>
        <time>2017-06-06T15:09:08.000Z</time>
      </trkpt>
      <trkpt lat="44.376072" lon="4.697518">
        <ele>107.790328</ele>
        <time>2017-06-06T15:09:13.000Z</time>
      </trkpt>
      <trkpt lat="44.376167" lon="4.697499">
        <ele>107.803008</ele>
        <time>2017-06-06T15:09:19.000Z</time>
      </trkpt>
      <trkpt lat="44.376263" lon="4.697458">
        <ele>107.816270</ele>
        <time>2017-06-06T15:09:24.000Z</time>
      </trkpt>
      <trkpt lat="44.376366" lon="4.697420">
        <ele>107.830344</ele>
        <time>2017-06-06T15:09:28.000Z</time>
      </trkpt>
      <trkpt lat="44.376460" lon="4.697395">
        <ele>107.842986</ele>
        <time>2017-06-06T15:09:32.000Z</time>
      </trkpt>
      <trkpt lat="44.376575" lon="4.697423">
        <ele>107.858409</ele>
        <time>2017-06-06T15:09:36.000Z</time>
      </trkpt>
      <trkpt lat="44.376682" lon="4.697412">
        <ele>107.872584</ele>
        <time>2017-06-06T15:09:40.000Z</time>
      </trkpt>
      <trkpt lat="44.376780" lon="4.697441">
        <ele>107.885819</ele>
        <time>2017-06-06T15:09:44.000Z</time>
      </trkpt>
      <trkpt lat="44.376846" lon="4.697542">
        <ele>107.898743</ele>
        <time>2017-06-06T15:09:51.000Z</time>
      </trkpt>
      <trkpt lat="44.376830" lon="4.697687">
        <ele>107.912598</ele>
        <time>2017-06-06T15:09:55.000Z</time>
      </trkpt>
      <trkpt lat="44.376812" lon="4.697817">
        <ele>107.925104</ele>
        <time>2017-06-06T15:09:58.000Z</time>
      </trkpt>
      <trkpt lat="44.376793" lon="4.697943">
        <ele>107.937265</ele>
        <time>2017-06-06T15:10:01.000Z</time>
      </trkpt>
      <trkpt lat="44.376755" lon="4.698061">
        <ele>107.949487</ele>
        <time>2017-06-06T15:10:05.000Z</time>
      </trkpt>
      <trkpt lat="44.376842" lon="4.698151">
        <ele>107.963783</ele>
        <time>2017-06-06T15:10:12.000Z</time>
      </trkpt>
      <trkpt lat="44.376884" lon="4.698271">
        <ele>108.011715</ele>
        <time>2017-06-06T15:10:17.000Z</time>
      </trkpt>
      <trkpt lat="44.376926" lon="4.698389">
        <ele>108.239127</ele>
        <time>2017-06-06T15:10:21.000Z</time>
      </trkpt>
      <trkpt lat="44.377018" lon="4.698444">
        <ele>108.480604</ele>
        <time>2017-06-06T15:10:25.000Z</time>
      </trkpt>
      <trkpt lat="44.377100" lon="4.698504">
        <ele>108.703954</ele>
        <time>2017-06-06T15:10:29.000Z</time>
      </trkpt>
      <trkpt lat="44.377197" lon="4.698536">
        <ele>108.944497</ele>
        <time>2017-06-06T15:10:35.000Z</time>
      </trkpt>
      <trkpt lat="44.377274" lon="4.698430">
        <ele>109.205227</ele>
        <time>2017-06-06T15:10:42.000Z</time>
      </trkpt>
      <trkpt lat="44.377274" lon="4.698285">
        <ele>109.455372</ele>
        <time>2017-06-06T15:10:49.000Z</time>
      </trkpt>
      <trkpt lat="44.377357" lon="4.698206">
        <ele>109.697667</ele>
        <time>2017-06-06T15:10:53.000Z</time>
      </trkpt>
      <trkpt lat="44.377426" lon="4.698110">
        <ele>109.932536</ele>
        <time>2017-06-06T15:10:58.000Z</time>
      </trkpt>
      <trkpt lat="44.377426" lon="4.697969">
        <ele>110.175781</ele>
        <time>2017-06-06T15:11:06.000Z</time>
      </trkpt>
      <trkpt lat="44.377460" lon="4.697816">
        <ele>110.452190</ele>
        <time>2017-06-06T15:11:10.000Z</time>
      </trkpt>
      <trkpt lat="44.377500" lon="4.697686">
        <ele>110.696356</ele>
        <time>2017-06-06T15:11:13.000Z</time>
      </trkpt>
      <trkpt lat="44.377518" lon="4.697525">
        <ele>110.977480</ele>
        <time>2017-06-06T15:11:17.000Z</time>
      </trkpt>
      <trkpt lat="44.377550" lon="4.697379">
        <ele>111.240926</ele>
        <time>2017-06-06T15:11:21.000Z</time>
      </trkpt>
      <trkpt lat="44.377445" lon="4.697295">
        <ele>111.532863</ele>
        <time>2017-06-06T15:11:27.000Z</time>
      </trkpt>
      <trkpt lat="44.377346" lon="4.697245">
        <ele>111.786904</ele>
        <time>2017-06-06T15:11:30.000Z</time>
      </trkpt>
      <trkpt lat="44.377274" lon="4.697125">
        <ele>112.057193</ele>
        <time>2017-06-06T15:11:34.000Z</time>
      </trkpt>
      <trkpt lat="44.377205" lon="4.697002">
        <ele>112.317849</ele>
        <time>2017-06-06T15:11:38.000Z</time>
      </trkpt>
      <trkpt lat="44.377132" lon="4.696882">
        <ele>112.371435</ele>
        <time>2017-06-06T15:11:44.000Z</time>
      </trkpt>
      <trkpt lat="44.377117" lon="4.696738">
        <ele>112.420919</ele>
        <time>2017-06-06T15:11:48.000Z</time>
      </trkpt>
      <trkpt lat="44.377125" lon="4.696599">
        <ele>112.468340</ele>
        <time>2017-06-06T15:11:53.000Z</time>
      </trkpt>
      <trkpt lat="44.377090" lon="4.696473">
        <ele>112.514308</ele>
        <time>2017-06-06T15:11:57.000Z</time>
      </trkpt>
      <trkpt lat="44.377033" lon="4.696356">
        <ele>112.562458</ele>
        <time>2017-06-06T15:12:02.000Z</time>
      </trkpt>
      <trkpt lat="44.376945" lon="4.696391">
        <ele>112.605984</ele>
        <time>2017-06-06T15:12:14.000Z</time>
      </trkpt>
      <trkpt lat="44.376938" lon="4.696529">
        <ele>112.653029</ele>
        <time>2017-06-06T15:12:19.000Z</time>
      </trkpt>
      <trkpt lat="44.376926" lon="4.696657">
        <ele>112.696929</ele>
        <time>2017-06-06T15:12:23.000Z</time>
      </trkpt>
      <trkpt lat="44.376910" lon="4.696783">
        <ele>112.740446</ele>
        <time>2017-06-06T15:12:27.000Z</time>
      </trkpt>
      <trkpt lat="44.376842" lon="4.696872">
        <ele>112.784748</ele>
        <time>2017-06-06T15:12:34.000Z</time>
      </trkpt>
      <trkpt lat="44.376747" lon="4.696902">
        <ele>112.831082</ele>
        <time>2017-06-06T15:12:43.000Z</time>
      </trkpt>
      <trkpt lat="44.376650" lon="4.696891">
        <ele>112.877383</ele>
        <time>2017-06-06T15:12:48.000Z</time>
      </trkpt>
      <trkpt lat="44.376545" lon="4.696871">
        <ele>112.927799</ele>
        <time>2017-06-06T15:12:54.000Z</time>
      </trkpt>
      <trkpt lat="44.376450" lon="4.696859">
        <ele>112.973180</ele>
        <time>2017-06-06T15:12:58.000Z</time>
      </trkpt>
      <trkpt lat="44.376343" lon="4.696878">
        <ele>113.024495</ele>
        <time>2017-06-06T15:13:03.000Z</time>
      </trkpt>
      <trkpt lat="44.376244" lon="4.696871">
        <ele>113.071656</ele>
        <time>2017-06-06T15:13:09.000Z</time>
      </trkpt>
      <trkpt lat="44.376150" lon="4.696867">
        <ele>113.116398</ele>
        <time>2017-06-06T15:13:13.000Z</time>
      </trkpt>
      <trkpt lat="44.376053" lon="4.696876">
        <ele>113.162648</ele>
        <time>2017-06-06T15:13:18.000Z</time>
      </trkpt>
      <trkpt lat="44.375984" lon="4.696740">
        <ele>113.019868</ele>
        <time>2017-06-06T15:13:26.000Z</time>
      </trkpt>
      <trkpt lat="44.375927" lon="4.696637">
        <ele>112.880124</ele>
        <time>2017-06-06T15:13:29.000Z</time>
      </trkpt>
      <trkpt lat="44.375904" lon="4.696500">
        <ele>112.729153</ele>
        <time>2017-06-06T15:13:33.000Z</time>
      </trkpt>
      <trkpt lat="44.375862" lon="4.696384">
        <ele>112.589654</ele>
        <time>2017-06-06T15:13:40.000Z</time>
      </trkpt>
      <trkpt lat="44.375770" lon="4.696441">
        <ele>112.438639</ele>
        <time>2017-06-06T15:13:47.000Z</time>
      </trkpt>
      <trkpt lat="44.375687" lon="4.696504">
        <ele>112.296912</ele>
        <time>2017-06-06T15:13:56.000Z</time>
      </trkpt>
      <trkpt lat="44.375675" lon="4.696638">
        <ele>112.152034</ele>
        <time>2017-06-06T15:14:01.000Z</time>
      </trkpt>
      <trkpt lat="44.375687" lon="4.696769">
        <ele>112.010349</ele>
        <time>2017-06-06T15:14:05.000Z</time>
      </trkpt>
      <trkpt lat="44.375690" lon="4.696897">
        <ele>111.872958</ele>
        <time>2017-06-06T15:14:08.000Z</time>
      </trkpt>
      <trkpt lat="44.375700" lon="4.697022">
        <ele>111.738022</ele>
        <time>2017-06-06T15:14:11.000Z</time>
      </trkpt>
      <trkpt lat="44.375755" lon="4.697166">
        <ele>111.562868</ele>
        <time>2017-06-06T15:14:15.000Z</time>
      </trkpt>
      <trkpt lat="44.375780" lon="4.697291">
        <ele>111.423619</ele>
        <time>2017-06-06T15:14:19.000Z</time>
      </trkpt>
      <trkpt lat="44.375828" lon="4.697401">
        <ele>111.285359</ele>
        <time>2017-06-06T15:15:19.000Z</time>
      </trkpt>
      <trkpt lat="44.375740" lon="4.697341">
        <ele>111.138432</ele>
        <time>2017-06-06T15:47:49.000Z</time>
      </trkpt>
      <trkpt lat="44.375717" lon="4.697481">
        <ele>110.984325</ele>
        <time>2017-06-06T15:47:54.000Z</time>
      </trkpt>
      <trkpt lat="44.375755" lon="4.697624">
        <ele>110.820657</ele>
        <time>2017-06-06T15:47:59.000Z</time>
      </trkpt>
      <trkpt lat="44.375860" lon="4.697640">
        <ele>110.662132</ele>
        <time>2017-06-06T15:48:04.000Z</time>
      </trkpt>
      <trkpt lat="44.375940" lon="4.697713">
        <ele>110.518779</ele>
        <time>2017-06-06T15:48:09.000Z</time>
      </trkpt>
      <trkpt lat="44.375973" lon="4.697860">
        <ele>110.465335</ele>
        <time>2017-06-06T15:48:14.000Z</time>
      </trkpt>
      <trkpt lat="44.376010" lon="4.697985">
        <ele>110.457426</ele>
        <time>2017-06-06T15:48:18.000Z</time>
      </trkpt>
      <trkpt lat="44.376050" lon="4.698124">
        <ele>110.448666</ele>
        <time>2017-06-06T15:48:22.000Z</time>
      </trkpt>
      <trkpt lat="44.376072" lon="4.698275">
        <ele>110.439657</ele>
        <time>2017-06-06T15:48:26.000Z</time>
      </trkpt>
      <trkpt lat="44.376102" lon="4.698401">
        <ele>110.431893</ele>
        <time>2017-06-06T15:48:29.000Z</time>
      </trkpt>
      <trkpt lat="44.376150" lon="4.698515">
        <ele>110.424158</ele>
        <time>2017-06-06T15:48:33.000Z</time>
      </trkpt>
      <trkpt lat="44.376180" lon="4.698637">
        <ele>110.416615</ele>
        <time>2017-06-06T15:48:37.000Z</time>
      </trkpt>
      <trkpt lat="44.376240" lon="4.698746">
        <ele>110.408572</ele>
        <time>2017-06-06T15:48:42.000Z</time>
      </trkpt>
      <trkpt lat="44.376286" lon="4.698879">
        <ele>110.399934</ele>
        <time>2017-06-06T15:48:47.000Z</time>
      </trkpt>
      <trkpt lat="44.376324" lon="4.699012">
        <ele>110.391561</ele>
        <time>2017-06-06T15:48:51.000Z</time>
      </trkpt>
      <trkpt lat="44.376400" lon="4.699105">
        <ele>110.383303</ele>
        <time>2017-06-06T15:48:56.000Z</time>
      </trkpt>
      <trkpt lat="44.376510" lon="4.699128">
        <ele>110.374206</ele>
        <time>2017-06-06T15:49:01.000Z</time>
      </trkpt>
      <trkpt lat="44.376617" lon="4.699171">
        <ele>110.365100</ele>
        <time>2017-06-06T15:49:06.000Z</time>
      </trkpt>
      <trkpt lat="44.376710" lon="4.699215">
        <ele>110.357070</ele>
        <time>2017-06-06T15:49:11.000Z</time>
      </trkpt>
      <trkpt lat="44.376816" lon="4.699252">
        <ele>110.348135</ele>
        <time>2017-06-06T15:49:17.000Z</time>
      </trkpt>
      <trkpt lat="44.376920" lon="4.699277">
        <ele>110.339504</ele>
        <time>2017-06-06T15:49:22.000Z</time>
      </trkpt>
      <trkpt lat="44.376972" lon="4.699170">
        <ele>110.331940</ele>
        <time>2017-06-06T15:49:28.000Z</time>
      </trkpt>
      <trkpt lat="44.377010" lon="4.699295">
        <ele>110.336244</ele>
        <time>2017-06-06T15:49:38.000Z</time>
      </trkpt>
      <trkpt lat="44.377110" lon="4.699325">
        <ele>110.480630</ele>
        <time>2017-06-06T15:49:43.000Z</time>
      </trkpt>
      <trkpt lat="44.377216" lon="4.699352">
        <ele>110.632738</ele>
        <time>2017-06-06T15:49:48.000Z</time>
      </trkpt>
      <trkpt lat="44.377335" lon="4.699371">
        <ele>110.801829</ele>
        <time>2017-06-06T15:49:52.000Z</time>
      </trkpt>
      <trkpt lat="44.377422" lon="4.699393">
        <ele>110.926643</ele>
        <time>2017-06-06T15:49:55.000Z</time>
      </trkpt>
      <trkpt lat="44.377514" lon="4.699449">
        <ele>111.068285</ele>
        <time>2017-06-06T15:49:59.000Z</time>
      </trkpt>
      <trkpt lat="44.377617" lon="4.699477">
        <ele>111.216417</ele>
        <time>2017-06-06T15:50:04.000Z</time>
      </trkpt>
      <trkpt lat="44.377724" lon="4.699500">
        <ele>111.369249</ele>
        <time>2017-06-06T15:50:09.000Z</time>
      </trkpt>
      <trkpt lat="44.377820" lon="4.699505">
        <ele>111.504873</ele>
        <time>2017-06-06T15:50:15.000Z</time>
      </trkpt>
      <trkpt lat="44.377876" lon="4.699407">
        <ele>111.631478</ele>
        <time>2017-06-06T15:50:24.000Z</time>
      </trkpt>
      <trkpt lat="44.377880" lon="4.699266">
        <ele>111.773867</ele>
        <time>2017-06-06T15:50:30.000Z</time>
      </trkpt>
      <trkpt lat="44.377870" lon="4.699135">
        <ele>111.906804</ele>
        <time>2017-06-06T15:50:36.000Z</time>
      </trkpt>
      <trkpt lat="44.377777" lon="4.699158">
        <ele>112.040134</ele>
        <time>2017-06-06T15:50:41.000Z</time>
      </trkpt>
      <trkpt lat="44.377680" lon="4.699166">
        <ele>112.177314</ele>
        <time>2017-06-06T15:50:45.000Z</time>
      </trkpt>
      <trkpt lat="44.377586" lon="4.699164">
        <ele>112.310035</ele>
        <time>2017-06-06T15:50:49.000Z</time>
      </trkpt>
      <trkpt lat="44.377476" lon="4.699137">
        <ele>112.467702</ele>
        <time>2017-06-06T15:50:53.000Z</time>
      </trkpt>
      <trkpt lat="44.377438" lon="4.699024">
        <ele>112.593716</ele>
        <time>2017-06-06T15:50:56.000Z</time>
      </trkpt>
      <trkpt lat="44.377388" lon="4.698912">
        <ele>112.726964</ele>
        <time>2017-06-06T15:50:59.000Z</time>
      </trkpt>
      <trkpt lat="44.377330" lon="4.698800">
        <ele>112.865268</ele>
        <time>2017-06-06T15:51:03.000Z</time>
      </trkpt>
      <trkpt lat="44.377270" lon="4.698686">
        <ele>112.938701</ele>
        <time>2017-06-06T15:51:07.000Z</time>
      </trkpt>
      <trkpt lat="44.377216" lon="4.698572">
        <ele>113.009640</ele>
        <time>2017-06-06T15:51:11.000Z</time>
      </trkpt>
      <trkpt lat="44.377247" lon="4.698430">
        <ele>113.086654</ele>
        <time>2017-06-06T15:51:16.000Z</time>
      </trkpt>
      <trkpt lat="44.377260" lon="4.698277">
        <ele>113.166573</ele>
        <time>2017-06-06T15:51:22.000Z</time>
      </trkpt>
      <trkpt lat="44.377350" lon="4.698224">
        <ele>113.237437</ele>
        <time>2017-06-06T15:51:27.000Z</time>
      </trkpt>
      <trkpt lat="44.377403" lon="4.698101">
        <ele>113.311933</ele>
        <time>2017-06-06T15:51:32.000Z</time>
      </trkpt>
      <trkpt lat="44.377415" lon="4.697958">
        <ele>113.386616</ele>
        <time>2017-06-06T15:51:40.000Z</time>
      </trkpt>
      <trkpt lat="44.377426" lon="4.697822">
        <ele>113.457609</ele>
        <time>2017-06-06T15:51:44.000Z</time>
      </trkpt>
      <trkpt lat="44.377453" lon="4.697689">
        <ele>113.529324</ele>
        <time>2017-06-06T15:51:48.000Z</time>
      </trkpt>
      <trkpt lat="44.377480" lon="4.697566">
        <ele>113.596065</ele>
        <time>2017-06-06T15:51:53.000Z</time>
      </trkpt>
      <trkpt lat="44.377518" lon="4.697426">
        <ele>113.673742</ele>
        <time>2017-06-06T15:51:58.000Z</time>
      </trkpt>
      <trkpt lat="44.377575" lon="4.697291">
        <ele>113.755071</ele>
        <time>2017-06-06T15:52:03.000Z</time>
      </trkpt>
      <trkpt lat="44.377647" lon="4.697178">
        <ele>113.833592</ele>
        <time>2017-06-06T15:52:08.000Z</time>
      </trkpt>
      <trkpt lat="44.377697" lon="4.697071">
        <ele>113.899901</ele>
        <time>2017-06-06T15:52:12.000Z</time>
      </trkpt>
      <trkpt lat="44.377796" lon="4.696981">
        <ele>113.985580</ele>
        <time>2017-06-06T15:52:16.000Z</time>
      </trkpt>
      <trkpt lat="44.377880" lon="4.696937">
        <ele>114.050672</ele>
        <time>2017-06-06T15:52:20.000Z</time>
      </trkpt>
      <trkpt lat="44.377980" lon="4.696930">
        <ele>114.123333</ele>
        <time>2017-06-06T15:52:24.000Z</time>
      </trkpt>
      <trkpt lat="44.378075" lon="4.696973">
        <ele>114.084551</ele>
        <time>2017-06-06T15:52:27.000Z</time>
      </trkpt>
      <trkpt lat="44.378174" lon="4.697003">
        <ele>113.850296</ele>
        <time>2017-06-06T15:52:31.000Z</time>
      </trkpt>
      <trkpt lat="44.378273" lon="4.697074">
        <ele>113.593023</ele>
        <time>2017-06-06T15:52:36.000Z</time>
      </trkpt>
      <trkpt lat="44.378370" lon="4.697142">
        <ele>113.342117</ele>
        <time>2017-06-06T15:52:40.000Z</time>
      </trkpt>
      <trkpt lat="44.378460" lon="4.697197">
        <ele>113.114996</ele>
        <time>2017-06-06T15:52:43.000Z</time>
      </trkpt>
      <trkpt lat="44.378570" lon="4.697226">
        <ele>112.856133</ele>
        <time>2017-06-06T15:52:46.000Z</time>
      </trkpt>
      <trkpt lat="44.378643" lon="4.697339">
        <ele>112.604368</ele>
        <time>2017-06-06T15:52:50.000Z</time>
      </trkpt>
      <trkpt lat="44.378616" lon="4.697475">
        <ele>112.371064</ele>
        <time>2017-06-06T15:52:54.000Z</time>
      </trkpt>
      <trkpt lat="44.378548" lon="4.697580">
        <ele>112.136862</ele>
        <time>2017-06-06T15:52:58.000Z</time>
      </trkpt>
      <trkpt lat="44.378494" lon="4.697703">
        <ele>111.898265</ele>
        <time>2017-06-06T15:53:02.000Z</time>
      </trkpt>
      <trkpt lat="44.378445" lon="4.697826">
        <ele>111.665511</ele>
        <time>2017-06-06T15:53:06.000Z</time>
      </trkpt>
      <trkpt lat="44.378395" lon="4.697947">
        <ele>111.434491</ele>
        <time>2017-06-06T15:53:11.000Z</time>
      </trkpt>
      <trkpt lat="44.378353" lon="4.698069">
        <ele>111.210664</ele>
        <time>2017-06-06T15:53:16.000Z</time>
      </trkpt>
      <trkpt lat="44.378304" lon="4.698177">
        <ele>110.999222</ele>
        <time>2017-06-06T15:53:20.000Z</time>
      </trkpt>
      <trkpt lat="44.378246" lon="4.698304">
        <ele>110.750110</ele>
        <time>2017-06-06T15:53:24.000Z</time>
      </trkpt>
      <trkpt lat="44.378200" lon="4.698453">
        <ele>110.481834</ele>
        <time>2017-06-06T15:53:28.000Z</time>
      </trkpt>
      <trkpt lat="44.378124" lon="4.698567">
        <ele>110.224158</ele>
        <time>2017-06-06T15:53:32.000Z</time>
      </trkpt>
      <trkpt lat="44.378075" lon="4.698692">
        <ele>110.014137</ele>
        <time>2017-06-06T15:53:36.000Z</time>
      </trkpt>
      <trkpt lat="44.378020" lon="4.698827">
        <ele>110.068177</ele>
        <time>2017-06-06T15:53:41.000Z</time>
      </trkpt>
      <trkpt lat="44.377990" lon="4.698951">
        <ele>110.113703</ele>
        <time>2017-06-06T15:53:45.000Z</time>
      </trkpt>
      <trkpt lat="44.377940" lon="4.699057">
        <ele>110.157871</ele>
        <time>2017-06-06T15:53:49.000Z</time>
      </trkpt>
      <trkpt lat="44.377857" lon="4.699130">
        <ele>110.205572</ele>
        <time>2017-06-06T15:53:53.000Z</time>
      </trkpt>
      <trkpt lat="44.377754" lon="4.699173">
        <ele>110.257871</ele>
        <time>2017-06-06T15:53:57.000Z</time>
      </trkpt>
      <trkpt lat="44.377644" lon="4.699162">
        <ele>110.311530</ele>
        <time>2017-06-06T15:54:01.000Z</time>
      </trkpt>
      <trkpt lat="44.377530" lon="4.699152">
        <ele>110.367107</ele>
        <time>2017-06-06T15:54:05.000Z</time>
      </trkpt>
      <trkpt lat="44.377438" lon="4.699094">
        <ele>110.416205</ele>
        <time>2017-06-06T15:54:09.000Z</time>
      </trkpt>
      <trkpt lat="44.377342" lon="4.699045">
        <ele>110.465926</ele>
        <time>2017-06-06T15:54:12.000Z</time>
      </trkpt>
      <trkpt lat="44.377240" lon="4.699029">
        <ele>110.515866</ele>
        <time>2017-06-06T15:54:15.000Z</time>
      </trkpt>
      <trkpt lat="44.377130" lon="4.699038">
        <ele>110.569480</ele>
        <time>2017-06-06T15:54:19.000Z</time>
      </trkpt>
      <trkpt lat="44.377030" lon="4.699038">
        <ele>110.618136</ele>
        <time>2017-06-06T15:54:23.000Z</time>
      </trkpt>
      <trkpt lat="44.376945" lon="4.698970">
        <ele>110.665777</ele>
        <time>2017-06-06T15:54:26.000Z</time>
      </trkpt>
      <trkpt lat="44.376858" lon="4.698886">
        <ele>110.717210</ele>
        <time>2017-06-06T15:54:29.000Z</time>
      </trkpt>
      <trkpt lat="44.376770" lon="4.698804">
        <ele>110.768655</ele>
        <time>2017-06-06T15:54:32.000Z</time>
      </trkpt>
      <trkpt lat="44.376700" lon="4.698726">
        <ele>110.812196</ele>
        <time>2017-06-06T15:54:35.000Z</time>
      </trkpt>
      <trkpt lat="44.376602" lon="4.698655">
        <ele>110.865893</ele>
        <time>2017-06-06T15:54:39.000Z</time>
      </trkpt>
      <trkpt lat="44.376510" lon="4.698649">
        <ele>110.879181</ele>
        <time>2017-06-06T15:54:42.000Z</time>
      </trkpt>
      <trkpt lat="44.376415" lon="4.698685">
        <ele>110.868717</ele>
        <time>2017-06-06T15:54:45.000Z</time>
      </trkpt>
      <trkpt lat="44.376316" lon="4.698722">
        <ele>110.857824</ele>
        <time>2017-06-06T15:54:48.000Z</time>
      </trkpt>
      <trkpt lat="44.376220" lon="4.698758">
        <ele>110.847258</ele>
        <time>2017-06-06T15:54:51.000Z</time>
      </trkpt>
      <trkpt lat="44.376118" lon="4.698796">
        <ele>110.836036</ele>
        <time>2017-06-06T15:54:54.000Z</time>
      </trkpt>
      <trkpt lat="44.376007" lon="4.698751">
        <ele>110.823750</ele>
        <time>2017-06-06T15:54:57.000Z</time>
      </trkpt>
      <trkpt lat="44.375916" lon="4.698710">
        <ele>110.813587</ele>
        <time>2017-06-06T15:55:00.000Z</time>
      </trkpt>
      <trkpt lat="44.375820" lon="4.698651">
        <ele>110.802440</ele>
        <time>2017-06-06T15:55:03.000Z</time>
      </trkpt>
      <trkpt lat="44.375706" lon="4.698586">
        <ele>110.789353</ele>
        <time>2017-06-06T15:55:06.000Z</time>
      </trkpt>
      <trkpt lat="44.375607" lon="4.698487">
        <ele>110.776416</ele>
        <time>2017-06-06T15:55:09.000Z</time>
      </trkpt>
      <trkpt lat="44.375500" lon="4.698417">
        <ele>110.763859</ele>
        <time>2017-06-06T15:55:12.000Z</time>
      </trkpt>
      <trkpt lat="44.375397" lon="4.698395">
        <ele>110.752782</ele>
        <time>2017-06-06T15:55:15.000Z</time>
      </trkpt>
      <trkpt lat="44.375298" lon="4.698366">
        <ele>110.742029</ele>
        <time>2017-06-06T15:55:18.000Z</time>
      </trkpt>
      <trkpt lat="44.375180" lon="4.698304">
        <ele>110.728629</ele>
        <time>2017-06-06T15:55:21.000Z</time>
      </trkpt>
      <trkpt lat="44.375065" lon="4.698214">
        <ele>110.714620</ele>
        <time>2017-06-06T15:55:24.000Z</time>
      </trkpt>
      <trkpt lat="44.374977" lon="4.698151">
        <ele>110.704111</ele>
        <time>2017-06-06T15:55:26.000Z</time>
      </trkpt>
      <trkpt lat="44.374897" lon="4.698089">
        <ele>110.694389</ele>
        <time>2017-06-06T15:55:28.000Z</time>
      </trkpt>
      <trkpt lat="44.374780" lon="4.698011">
        <ele>110.678055</ele>
        <time>2017-06-06T15:55:31.000Z</time>
      </trkpt>
      <trkpt lat="44.374670" lon="4.697938">
        <ele>110.662570</ele>
        <time>2017-06-06T15:55:34.000Z</time>
      </trkpt>
      <trkpt lat="44.374550" lon="4.697846">
        <ele>110.645165</ele>
        <time>2017-06-06T15:55:37.000Z</time>
      </trkpt>
      <trkpt lat="44.374435" lon="4.697773">
        <ele>110.629103</ele>
        <time>2017-06-06T15:55:40.000Z</time>
      </trkpt>
      <trkpt lat="44.374317" lon="4.697678">
        <ele>110.611787</ele>
        <time>2017-06-06T15:55:43.000Z</time>
      </trkpt>
      <trkpt lat="44.374237" lon="4.697618">
        <ele>110.600242</ele>
        <time>2017-06-06T15:55:45.000Z</time>
      </trkpt>
      <trkpt lat="44.374157" lon="4.697543">
        <ele>110.587993</ele>
        <time>2017-06-06T15:55:47.000Z</time>
      </trkpt>
      <trkpt lat="44.374046" lon="4.697429">
        <ele>110.570479</ele>
        <time>2017-06-06T15:55:50.000Z</time>
      </trkpt>
      <trkpt lat="44.373960" lon="4.697338">
        <ele>110.556764</ele>
        <time>2017-06-06T15:55:52.000Z</time>
      </trkpt>
      <trkpt lat="44.373875" lon="4.697261">
        <ele>110.543884</ele>
        <time>2017-06-06T15:55:54.000Z</time>
      </trkpt>
      <trkpt lat="44.373790" lon="4.697186">
        <ele>110.531102</ele>
        <time>2017-06-06T15:55:56.000Z</time>
      </trkpt>
      <trkpt lat="44.373703" lon="4.697109">
        <ele>110.518008</ele>
        <time>2017-06-06T15:55:58.000Z</time>
      </trkpt>
      <trkpt lat="44.373620" lon="4.697039">
        <ele>110.505681</ele>
        <time>2017-06-06T15:56:00.000Z</time>
      </trkpt>
      <trkpt lat="44.373540" lon="4.696973">
        <ele>110.493869</ele>
        <time>2017-06-06T15:56:02.000Z</time>
      </trkpt>
      <trkpt lat="44.373450" lon="4.696894">
        <ele>110.480355</ele>
        <time>2017-06-06T15:56:04.000Z</time>
      </trkpt>
      <trkpt lat="44.373363" lon="4.696812">
        <ele>110.467012</ele>
        <time>2017-06-06T15:56:06.000Z</time>
      </trkpt>
      <trkpt lat="44.373276" lon="4.696736">
        <ele>110.430641</ele>
        <time>2017-06-06T15:56:08.000Z</time>
      </trkpt>
      <trkpt lat="44.373188" lon="4.696662">
        <ele>110.389590</ele>
        <time>2017-06-06T15:56:10.000Z</time>
      </trkpt>
      <trkpt lat="44.373104" lon="4.696586">
        <ele>110.349594</ele>
        <time>2017-06-06T15:56:12.000Z</time>
      </trkpt>
      <trkpt lat="44.372997" lon="4.696474">
        <ele>110.296163</ele>
        <time>2017-06-06T15:56:15.000Z</time>
      </trkpt>
      <trkpt lat="44.372894" lon="4.696356">
        <ele>110.242935</ele>
        <time>2017-06-06T15:56:18.000Z</time>
      </trkpt>
      <trkpt lat="44.372787" lon="4.696262">
        <ele>110.192419</ele>
        <time>2017-06-06T15:56:21.000Z</time>
      </trkpt>
      <trkpt lat="44.372660" lon="4.696261">
        <ele>110.141641</ele>
        <time>2017-06-06T15:56:24.000Z</time>
      </trkpt>
      <trkpt lat="44.372528" lon="4.696246">
        <ele>110.088690</ele>
        <time>2017-06-06T15:56:27.000Z</time>
      </trkpt>
      <trkpt lat="44.372430" lon="4.696227">
        <ele>110.049133</ele>
        <time>2017-06-06T15:56:29.000Z</time>
      </trkpt>
      <trkpt lat="44.372326" lon="4.696198">
        <ele>110.006734</ele>
        <time>2017-06-06T15:56:31.000Z</time>
      </trkpt>
      <trkpt lat="44.372220" lon="4.696163">
        <ele>109.963188</ele>
        <time>2017-06-06T15:56:33.000Z</time>
      </trkpt>
      <trkpt lat="44.372116" lon="4.696126">
        <ele>109.920283</ele>
        <time>2017-06-06T15:56:35.000Z</time>
      </trkpt>
      <trkpt lat="44.372005" lon="4.696086">
        <ele>109.874454</ele>
        <time>2017-06-06T15:56:37.000Z</time>
      </trkpt>
      <trkpt lat="44.371895" lon="4.696045">
        <ele>109.828939</ele>
        <time>2017-06-06T15:56:39.000Z</time>
      </trkpt>
      <trkpt lat="44.371784" lon="4.696011">
        <ele>109.783508</ele>
        <time>2017-06-06T15:56:41.000Z</time>
      </trkpt>
      <trkpt lat="44.371670" lon="4.695965">
        <ele>109.702289</ele>
        <time>2017-06-06T15:56:43.000Z</time>
      </trkpt>
      <trkpt lat="44.371563" lon="4.695939">
        <ele>109.506714</ele>
        <time>2017-06-06T15:56:45.000Z</time>
      </trkpt>
      <trkpt lat="44.371468" lon="4.695910">
        <ele>109.331609</ele>
        <time>2017-06-06T15:56:47.000Z</time>
      </trkpt>
      <trkpt lat="44.371372" lon="4.695881">
        <ele>109.154744</ele>
        <time>2017-06-06T15:56:49.000Z</time>
      </trkpt>
      <trkpt lat="44.371280" lon="4.695865">
        <ele>108.987792</ele>
        <time>2017-06-06T15:56:51.000Z</time>
      </trkpt>
      <trkpt lat="44.371180" lon="4.695860">
        <ele>108.807594</ele>
        <time>2017-06-06T15:56:53.000Z</time>
      </trkpt>
      <trkpt lat="44.371063" lon="4.695878">
        <ele>108.595626</ele>
        <time>2017-06-06T15:56:55.000Z</time>
      </trkpt>
      <trkpt lat="44.370960" lon="4.695904">
        <ele>108.407144</ele>
        <time>2017-06-06T15:56:57.000Z</time>
      </trkpt>
      <trkpt lat="44.370860" lon="4.695958">
        <ele>108.214110</ele>
        <time>2017-06-06T15:56:59.000Z</time>
      </trkpt>
      <trkpt lat="44.370758" lon="4.696004">
        <ele>108.021116</ele>
        <time>2017-06-06T15:57:01.000Z</time>
      </trkpt>
      <trkpt lat="44.370650" lon="4.696004">
        <ele>107.826626</ele>
        <time>2017-06-06T15:57:03.000Z</time>
      </trkpt>
      <trkpt lat="44.370575" lon="4.695928">
        <ele>107.659852</ele>
        <time>2017-06-06T15:57:05.000Z</time>
      </trkpt>
      <trkpt lat="44.370533" lon="4.695809">
        <ele>107.489010</ele>
        <time>2017-06-06T15:57:07.000Z</time>
      </trkpt>
      <trkpt lat="44.370525" lon="4.695672">
        <ele>107.312063</ele>
        <time>2017-06-06T15:57:09.000Z</time>
      </trkpt>
      <trkpt lat="44.370514" lon="4.695526">
        <ele>107.123077</ele>
        <time>2017-06-06T15:57:11.000Z</time>
      </trkpt>
      <trkpt lat="44.370502" lon="4.695391">
        <ele>106.947953</ele>
        <time>2017-06-06T15:57:13.000Z</time>
      </trkpt>
      <trkpt lat="44.370487" lon="4.695260">
        <ele>106.777168</ele>
        <time>2017-06-06T15:57:15.000Z</time>
      </trkpt>
      <trkpt lat="44.370472" lon="4.695131">
        <ele>106.608924</ele>
        <time>2017-06-06T15:57:17.000Z</time>
      </trkpt>
      <trkpt lat="44.370434" lon="4.694998">
        <ele>106.480665</ele>
        <time>2017-06-06T15:57:19.000Z</time>
      </trkpt>
      <trkpt lat="44.370384" lon="4.694876">
        <ele>106.423371</ele>
        <time>2017-06-06T15:57:21.000Z</time>
      </trkpt>
      <trkpt lat="44.370308" lon="4.694776">
        <ele>106.363906</ele>
        <time>2017-06-06T15:57:23.000Z</time>
      </trkpt>
      <trkpt lat="44.370220" lon="4.694685">
        <ele>106.301535</ele>
        <time>2017-06-06T15:57:25.000Z</time>
      </trkpt>
      <trkpt lat="44.370120" lon="4.694622">
        <ele>106.239028</ele>
        <time>2017-06-06T15:57:27.000Z</time>
      </trkpt>
      <trkpt lat="44.370030" lon="4.694557">
        <ele>106.181300</ele>
        <time>2017-06-06T15:57:29.000Z</time>
      </trkpt>
      <trkpt lat="44.369930" lon="4.694500">
        <ele>106.119757</ele>
        <time>2017-06-06T15:57:31.000Z</time>
      </trkpt>
      <trkpt lat="44.369823" lon="4.694463">
        <ele>106.056937</ele>
        <time>2017-06-06T15:57:33.000Z</time>
      </trkpt>
      <trkpt lat="44.369713" lon="4.694436">
        <ele>105.993286</ele>
        <time>2017-06-06T15:57:35.000Z</time>
      </trkpt>
      <trkpt lat="44.369614" lon="4.694373">
        <ele>105.931298</ele>
        <time>2017-06-06T15:57:37.000Z</time>
      </trkpt>
      <trkpt lat="44.369507" lon="4.694357">
        <ele>105.869966</ele>
        <time>2017-06-06T15:57:39.000Z</time>
      </trkpt>
      <trkpt lat="44.369408" lon="4.694404">
        <ele>105.810381</ele>
        <time>2017-06-06T15:57:41.000Z</time>
      </trkpt>
      <trkpt lat="44.369305" lon="4.694424">
        <ele>105.751114</ele>
        <time>2017-06-06T15:57:43.000Z</time>
      </trkpt>
      <trkpt lat="44.369205" lon="4.694433">
        <ele>105.694002</ele>
        <time>2017-06-06T15:57:45.000Z</time>
      </trkpt>
      <trkpt lat="44.369072" lon="4.694434">
        <ele>105.618199</ele>
        <time>2017-06-06T15:57:48.000Z</time>
      </trkpt>
      <trkpt lat="44.368977" lon="4.694435">
        <ele>105.564053</ele>
        <time>2017-06-06T15:57:51.000Z</time>
      </trkpt>
      <trkpt lat="44.368880" lon="4.694440">
        <ele>105.508731</ele>
        <time>2017-06-06T15:57:55.000Z</time>
      </trkpt>
      <trkpt lat="44.368786" lon="4.694458">
        <ele>105.478322</ele>
        <time>2017-06-06T15:58:03.000Z</time>
      </trkpt>
      <trkpt lat="44.368828" lon="4.694588">
        <ele>105.471388</ele>
        <time>2017-06-06T15:58:19.000Z</time>
      </trkpt>
      <trkpt lat="44.368870" lon="4.694706">
        <ele>105.464982</ele>
        <time>2017-06-06T15:58:25.000Z</time>
      </trkpt>
      <trkpt lat="44.368797" lon="4.694790">
        <ele>105.458556</ele>
        <time>2017-06-06T15:58:30.000Z</time>
      </trkpt>
      <trkpt lat="44.368700" lon="4.694769">
        <ele>105.451883</ele>
        <time>2017-06-06T15:58:33.000Z</time>
      </trkpt>
      <trkpt lat="44.368572" lon="4.694723">
        <ele>105.442898</ele>
        <time>2017-06-06T15:58:36.000Z</time>
      </trkpt>
      <trkpt lat="44.368484" lon="4.694694">
        <ele>105.436751</ele>
        <time>2017-06-06T15:58:38.000Z</time>
      </trkpt>
      <trkpt lat="44.368390" lon="4.694662">
        <ele>105.430174</ele>
        <time>2017-06-06T15:58:40.000Z</time>
      </trkpt>
      <trkpt lat="44.368300" lon="4.694644">
        <ele>105.423993</ele>
        <time>2017-06-06T15:58:42.000Z</time>
      </trkpt>
      <trkpt lat="44.368202" lon="4.694604">
        <ele>105.417053</ele>
        <time>2017-06-06T15:58:44.000Z</time>
      </trkpt>
      <trkpt lat="44.368103" lon="4.694584">
        <ele>105.410252</ele>
        <time>2017-06-06T15:58:46.000Z</time>
      </trkpt>
      <trkpt lat="44.368000" lon="4.694554">
        <ele>105.403099</ele>
        <time>2017-06-06T15:58:48.000Z</time>
      </trkpt>
      <trkpt lat="44.367900" lon="4.694523">
        <ele>105.396136</ele>
        <time>2017-06-06T15:58:50.000Z</time>
      </trkpt>
      <trkpt lat="44.367794" lon="4.694490">
        <ele>105.388753</ele>
        <time>2017-06-06T15:58:52.000Z</time>
      </trkpt>
      <trkpt lat="44.367690" lon="4.694460">
        <ele>105.381534</ele>
        <time>2017-06-06T15:58:54.000Z</time>
      </trkpt>
      <trkpt lat="44.367596" lon="4.694429">
        <ele>105.374968</ele>
        <time>2017-06-06T15:58:56.000Z</time>
      </trkpt>
      <trkpt lat="44.367500" lon="4.694403">
        <ele>105.368320</ele>
        <time>2017-06-06T15:58:58.000Z</time>
      </trkpt>
      <trkpt lat="44.367410" lon="4.694388">
        <ele>105.362158</ele>
        <time>2017-06-06T15:59:00.000Z</time>
      </trkpt>
      <trkpt lat="44.367287" lon="4.694346">
        <ele>105.365910</ele>
        <time>2017-06-06T15:59:03.000Z</time>
      </trkpt>
      <trkpt lat="44.367195" lon="4.694323">
        <ele>105.373348</ele>
        <time>2017-06-06T15:59:05.000Z</time>
      </trkpt>
      <trkpt lat="44.367096" lon="4.694302">
        <ele>105.381317</ele>
        <time>2017-06-06T15:59:07.000Z</time>
      </trkpt>
      <trkpt lat="44.366990" lon="4.694288">
        <ele>105.389791</ele>
        <time>2017-06-06T15:59:09.000Z</time>
      </trkpt>
      <trkpt lat="44.366875" lon="4.694268">
        <ele>105.399014</ele>
        <time>2017-06-06T15:59:11.000Z</time>
      </trkpt>
      <trkpt lat="44.366750" lon="4.694247">
        <ele>105.409034</ele>
        <time>2017-06-06T15:59:13.000Z</time>
      </trkpt>
      <trkpt lat="44.366620" lon="4.694233">
        <ele>105.419410</ele>
        <time>2017-06-06T15:59:15.000Z</time>
      </trkpt>
      <trkpt lat="44.366490" lon="4.694212">
        <ele>105.429825</ele>
        <time>2017-06-06T15:59:17.000Z</time>
      </trkpt>
      <trkpt lat="44.366360" lon="4.694191">
        <ele>105.440240</ele>
        <time>2017-06-06T15:59:19.000Z</time>
      </trkpt>
      <trkpt lat="44.366234" lon="4.694173">
        <ele>105.450321</ele>
        <time>2017-06-06T15:59:21.000Z</time>
      </trkpt>
      <trkpt lat="44.366110" lon="4.694147">
        <ele>105.460300</ele>
        <time>2017-06-06T15:59:23.000Z</time>
      </trkpt>
      <trkpt lat="44.365990" lon="4.694119">
        <ele>105.469982</ele>
        <time>2017-06-06T15:59:25.000Z</time>
      </trkpt>
      <trkpt lat="44.365875" lon="4.694102">
        <ele>105.479185</ele>
        <time>2017-06-06T15:59:27.000Z</time>
      </trkpt>
      <trkpt lat="44.365765" lon="4.694083">
        <ele>105.488006</ele>
        <time>2017-06-06T15:59:29.000Z</time>
      </trkpt>
      <trkpt lat="44.365654" lon="4.694062">
        <ele>105.496921</ele>
        <time>2017-06-06T15:59:31.000Z</time>
      </trkpt>
      <trkpt lat="44.365540" lon="4.694037">
        <ele>105.502392</ele>
        <time>2017-06-06T15:59:33.000Z</time>
      </trkpt>
      <trkpt lat="44.365420" lon="4.694018">
        <ele>105.502392</ele>
        <time>2017-06-06T15:59:35.000Z</time>
      </trkpt>
      <trkpt lat="44.365303" lon="4.694000">
        <ele>105.502392</ele>
        <time>2017-06-06T15:59:37.000Z</time>
      </trkpt>
      <trkpt lat="44.365190" lon="4.693988">
        <ele>105.502392</ele>
        <time>2017-06-06T15:59:39.000Z</time>
      </trkpt>
      <trkpt lat="44.365074" lon="4.693973">
        <ele>105.502392</ele>
        <time>2017-06-06T15:59:41.000Z</time>
      </trkpt>
      <trkpt lat="44.364964" lon="4.693963">
        <ele>105.502392</ele>
        <time>2017-06-06T15:59:43.000Z</time>
      </trkpt>
      <trkpt lat="44.364853" lon="4.693948">
        <ele>105.502392</ele>
        <time>2017-06-06T15:59:45.000Z</time>
      </trkpt>
      <trkpt lat="44.364742" lon="4.693948">
        <ele>105.502392</ele>
        <time>2017-06-06T15:59:47.000Z</time>
      </trkpt>
      <trkpt lat="44.364640" lon="4.693959">
        <ele>105.502392</ele>
        <time>2017-06-06T15:59:49.000Z</time>
      </trkpt>
      <trkpt lat="44.364532" lon="4.693950">
        <ele>105.502392</ele>
        <time>2017-06-06T15:59:51.000Z</time>
      </trkpt>
      <trkpt lat="44.364440" lon="4.693939">
        <ele>105.502392</ele>
        <time>2017-06-06T15:59:53.000Z</time>
      </trkpt>
      <trkpt lat="44.364340" lon="4.693943">
        <ele>105.502392</ele>
        <time>2017-06-06T15:59:56.000Z</time>
      </trkpt>
      <trkpt lat="44.364265" lon="4.694032">
        <ele>105.502392</ele>
        <time>2017-06-06T16:00:00.000Z</time>
      </trkpt>
      <trkpt lat="44.364235" lon="4.694150">
        <ele>105.502392</ele>
        <time>2017-06-06T16:00:03.000Z</time>
      </trkpt>
      <trkpt lat="44.364216" lon="4.694293">
        <ele>105.502392</ele>
        <time>2017-06-06T16:00:06.000Z</time>
      </trkpt>
      <trkpt lat="44.364130" lon="4.694384">
        <ele>105.502392</ele>
        <time>2017-06-06T16:00:10.000Z</time>
      </trkpt>
      <trkpt lat="44.364020" lon="4.694437">
        <ele>105.502392</ele>
        <time>2017-06-06T16:00:14.000Z</time>
      </trkpt>
      <trkpt lat="44.363920" lon="4.694459">
        <ele>105.502392</ele>
        <time>2017-06-06T16:00:18.000Z</time>
      </trkpt>
    </trkseg>
  </trk>
</gpx>